<gpx version="1.1" creator="Apple Watch" xsi:schemaLocation="http://www.topografix.com/GPX/1/1 http://www.topografix.com/GPX/1/1/gpx.xsd http://www.garmin.com/xmlschemas/GpxExtensions/v3 http://www.garmin.com/xmlschemas/GpxExtensionsv3.xsd http://www.garmin.com/xmlschemas/TrackPointExtension/v1 http://www.garmin.com/xmlschemas/TrackPointExtensionv1.xsd" xmlns="http://www.topografix.com/GPX/1/1" xmlns:gpxtpx="http://www.garmin.com/xmlschemas/TrackPointExtension/v1" xmlns:gpxx="http://www.garmin.com/xmlschemas/GpxExtensions/v3" xmlns:xsi="http://www.w3.org/2001/XMLSchema-instance"><metadata><name>Cycle with Agnes @吐露港</name></metadata>
<trk><name>Cycle with Agnes @吐露港</name><type>cycling</type>
<trkseg>
<trkpt lat="22.3807440" lon="114.1914654">
<ele>0</ele><time>2020-12-28T05:32:58.954Z</time></trkpt>
<trkpt lat="22.3807936" lon="114.1915083">
<ele>0</ele><time>2020-12-28T05:33:04.000Z</time></trkpt>
<trkpt lat="22.3808432" lon="114.1915083">
<ele>0</ele><time>2020-12-28T05:33:07.000Z</time></trkpt>
<trkpt lat="22.3808630" lon="114.1915512">
<ele>0</ele><time>2020-12-28T05:33:09.000Z</time></trkpt>
<trkpt lat="22.3808928" lon="114.1916156">
<ele>0</ele><time>2020-12-28T05:33:12.000Z</time></trkpt>
<trkpt lat="22.3809523" lon="114.1916585">
<ele>0</ele><time>2020-12-28T05:33:15.000Z</time></trkpt>
<trkpt lat="22.3809920" lon="114.1916800">
<ele>0</ele><time>2020-12-28T05:33:18.000Z</time></trkpt>
<trkpt lat="22.3810416" lon="114.1916800">
<ele>0</ele><time>2020-12-28T05:33:21.999Z</time></trkpt>
<trkpt lat="22.3810416" lon="114.1917658">
<ele>0</ele><time>2020-12-28T05:33:26.999Z</time></trkpt>
<trkpt lat="22.3810615" lon="114.1918087">
<ele>0</ele><time>2020-12-28T05:33:30.999Z</time></trkpt>
<trkpt lat="22.3811111" lon="114.1917872">
<ele>0</ele><time>2020-12-28T05:33:33.999Z</time></trkpt>
<trkpt lat="22.3811507" lon="114.1918087">
<ele>0</ele><time>2020-12-28T05:33:39.999Z</time></trkpt>
<trkpt lat="22.3812003" lon="114.1918302">
<ele>0</ele><time>2020-12-28T05:33:43.999Z</time></trkpt>
<trkpt lat="22.3812301" lon="114.1918731">
<ele>0</ele><time>2020-12-28T05:33:46.999Z</time><extensions><gpxtpx:TrackPointExtension><gpxtpx:hr>99</gpxtpx:hr></gpxtpx:TrackPointExtension></extensions></trkpt>
<trkpt lat="22.3812698" lon="114.1918945">
<ele>0</ele><time>2020-12-28T05:33:50.999Z</time><extensions><gpxtpx:TrackPointExtension><gpxtpx:hr>99</gpxtpx:hr></gpxtpx:TrackPointExtension></extensions></trkpt>
<trkpt lat="22.3813095" lon="114.1919160">
<ele>0</ele><time>2020-12-28T05:33:53.999Z</time><extensions><gpxtpx:TrackPointExtension><gpxtpx:hr>99</gpxtpx:hr></gpxtpx:TrackPointExtension></extensions></trkpt>
<trkpt lat="22.3813392" lon="114.1919589">
<ele>0</ele><time>2020-12-28T05:33:56.999Z</time><extensions><gpxtpx:TrackPointExtension><gpxtpx:hr>99</gpxtpx:hr></gpxtpx:TrackPointExtension></extensions></trkpt>
<trkpt lat="22.3813690" lon="114.1920018">
<ele>0</ele><time>2020-12-28T05:34:00.999Z</time><extensions><gpxtpx:TrackPointExtension><gpxtpx:hr>100</gpxtpx:hr></gpxtpx:TrackPointExtension></extensions></trkpt>
<trkpt lat="22.3814087" lon="114.1920447">
<ele>0</ele><time>2020-12-28T05:34:04.999Z</time><extensions><gpxtpx:TrackPointExtension><gpxtpx:hr>100</gpxtpx:hr></gpxtpx:TrackPointExtension></extensions></trkpt>
<trkpt lat="22.3814583" lon="114.1920877">
<ele>0</ele><time>2020-12-28T05:34:09.999Z</time><extensions><gpxtpx:TrackPointExtension><gpxtpx:hr>102</gpxtpx:hr></gpxtpx:TrackPointExtension></extensions></trkpt>
<trkpt lat="22.3815079" lon="114.1921306">
<ele>0</ele><time>2020-12-28T05:34:13.999Z</time><extensions><gpxtpx:TrackPointExtension><gpxtpx:hr>102</gpxtpx:hr></gpxtpx:TrackPointExtension></extensions></trkpt>
<trkpt lat="22.3815575" lon="114.1921520">
<ele>0</ele><time>2020-12-28T05:34:17.999Z</time><extensions><gpxtpx:TrackPointExtension><gpxtpx:hr>102</gpxtpx:hr></gpxtpx:TrackPointExtension></extensions></trkpt>
<trkpt lat="22.3815872" lon="114.1921949">
<ele>0</ele><time>2020-12-28T05:34:21.999Z</time><extensions><gpxtpx:TrackPointExtension><gpxtpx:hr>102</gpxtpx:hr></gpxtpx:TrackPointExtension></extensions></trkpt>
<trkpt lat="22.3816269" lon="114.1922379">
<ele>0</ele><time>2020-12-28T05:34:26.998Z</time><extensions><gpxtpx:TrackPointExtension><gpxtpx:hr>102</gpxtpx:hr></gpxtpx:TrackPointExtension></extensions></trkpt>
<trkpt lat="22.3816666" lon="114.1922593">
<ele>0</ele><time>2020-12-28T05:34:29.998Z</time><extensions><gpxtpx:TrackPointExtension><gpxtpx:hr>102</gpxtpx:hr></gpxtpx:TrackPointExtension></extensions></trkpt>
<trkpt lat="22.3816964" lon="114.1923022">
<ele>0</ele><time>2020-12-28T05:34:32.998Z</time><extensions><gpxtpx:TrackPointExtension><gpxtpx:hr>102</gpxtpx:hr></gpxtpx:TrackPointExtension></extensions></trkpt>
<trkpt lat="22.3817361" lon="114.1923237">
<ele>0</ele><time>2020-12-28T05:34:35.998Z</time><extensions><gpxtpx:TrackPointExtension><gpxtpx:hr>102</gpxtpx:hr></gpxtpx:TrackPointExtension></extensions></trkpt>
<trkpt lat="22.3817757" lon="114.1923666">
<ele>0</ele><time>2020-12-28T05:34:38.998Z</time><extensions><gpxtpx:TrackPointExtension><gpxtpx:hr>102</gpxtpx:hr></gpxtpx:TrackPointExtension></extensions></trkpt>
<trkpt lat="22.3818154" lon="114.1923881">
<ele>0</ele><time>2020-12-28T05:34:43.998Z</time><extensions><gpxtpx:TrackPointExtension><gpxtpx:hr>102</gpxtpx:hr></gpxtpx:TrackPointExtension></extensions></trkpt>
<trkpt lat="22.3818452" lon="114.1924310">
<ele>0</ele><time>2020-12-28T05:34:48.998Z</time><extensions><gpxtpx:TrackPointExtension><gpxtpx:hr>102</gpxtpx:hr></gpxtpx:TrackPointExtension></extensions></trkpt>
<trkpt lat="22.3818948" lon="114.1924095">
<ele>0</ele><time>2020-12-28T05:34:54.998Z</time><extensions><gpxtpx:TrackPointExtension><gpxtpx:hr>102</gpxtpx:hr></gpxtpx:TrackPointExtension></extensions></trkpt>
<trkpt lat="22.3819444" lon="114.1923881">
<ele>0</ele><time>2020-12-28T05:35:02.999Z</time><extensions><gpxtpx:TrackPointExtension><gpxtpx:hr>102</gpxtpx:hr></gpxtpx:TrackPointExtension></extensions></trkpt>
<trkpt lat="22.3819841" lon="114.1923666">
<ele>0</ele><time>2020-12-28T05:35:06.999Z</time><extensions><gpxtpx:TrackPointExtension><gpxtpx:hr>102</gpxtpx:hr></gpxtpx:TrackPointExtension></extensions></trkpt>
<trkpt lat="22.3820436" lon="114.1923666">
<ele>0</ele><time>2020-12-28T05:35:17.999Z</time><extensions><gpxtpx:TrackPointExtension><gpxtpx:hr>102</gpxtpx:hr></gpxtpx:TrackPointExtension></extensions></trkpt>
<trkpt lat="22.3820932" lon="114.1923881">
<ele>0</ele><time>2020-12-28T05:35:21.999Z</time><extensions><gpxtpx:TrackPointExtension><gpxtpx:hr>102</gpxtpx:hr></gpxtpx:TrackPointExtension></extensions></trkpt>
<trkpt lat="22.3821329" lon="114.1924095">
<ele>0</ele><time>2020-12-28T05:35:25.999Z</time><extensions><gpxtpx:TrackPointExtension><gpxtpx:hr>102</gpxtpx:hr></gpxtpx:TrackPointExtension></extensions></trkpt>
<trkpt lat="22.3821726" lon="114.1924524">
<ele>0</ele><time>2020-12-28T05:35:29.999Z</time><extensions><gpxtpx:TrackPointExtension><gpxtpx:hr>102</gpxtpx:hr></gpxtpx:TrackPointExtension></extensions></trkpt>
<trkpt lat="22.3821924" lon="114.1924953">
<ele>1</ele><time>2020-12-28T05:35:34.999Z</time><extensions><gpxtpx:TrackPointExtension><gpxtpx:hr>102</gpxtpx:hr></gpxtpx:TrackPointExtension></extensions></trkpt>
<trkpt lat="22.3821924" lon="114.1925597">
<ele>1</ele><time>2020-12-28T05:35:42.999Z</time><extensions><gpxtpx:TrackPointExtension><gpxtpx:hr>102</gpxtpx:hr></gpxtpx:TrackPointExtension></extensions></trkpt>
<trkpt lat="22.3821527" lon="114.1925812">
<ele>3</ele><time>2020-12-28T05:35:54.999Z</time><extensions><gpxtpx:TrackPointExtension><gpxtpx:hr>132</gpxtpx:hr></gpxtpx:TrackPointExtension></extensions></trkpt>
<trkpt lat="22.3821230" lon="114.1926241">
<ele>3</ele><time>2020-12-28T05:35:59.999Z</time><extensions><gpxtpx:TrackPointExtension><gpxtpx:hr>131</gpxtpx:hr></gpxtpx:TrackPointExtension></extensions></trkpt>
<trkpt lat="22.3820833" lon="114.1926670">
<ele>3</ele><time>2020-12-28T05:36:02.999Z</time><extensions><gpxtpx:TrackPointExtension><gpxtpx:hr>131</gpxtpx:hr></gpxtpx:TrackPointExtension></extensions></trkpt>
<trkpt lat="22.3820436" lon="114.1927099">
<ele>3</ele><time>2020-12-28T05:36:06.999Z</time><extensions><gpxtpx:TrackPointExtension><gpxtpx:hr>129</gpxtpx:hr></gpxtpx:TrackPointExtension></extensions></trkpt>
<trkpt lat="22.3820039" lon="114.1927528">
<ele>3</ele><time>2020-12-28T05:36:09.999Z</time><extensions><gpxtpx:TrackPointExtension><gpxtpx:hr>131</gpxtpx:hr></gpxtpx:TrackPointExtension></extensions></trkpt>
<trkpt lat="22.3819642" lon="114.1927958">
<ele>3</ele><time>2020-12-28T05:36:12.999Z</time><extensions><gpxtpx:TrackPointExtension><gpxtpx:hr>131</gpxtpx:hr></gpxtpx:TrackPointExtension></extensions></trkpt>
<trkpt lat="22.3819345" lon="114.1928387">
<ele>3</ele><time>2020-12-28T05:36:15.999Z</time><extensions><gpxtpx:TrackPointExtension><gpxtpx:hr>134</gpxtpx:hr></gpxtpx:TrackPointExtension></extensions></trkpt>
<trkpt lat="22.3818948" lon="114.1928816">
<ele>3</ele><time>2020-12-28T05:36:18.999Z</time><extensions><gpxtpx:TrackPointExtension><gpxtpx:hr>134</gpxtpx:hr></gpxtpx:TrackPointExtension></extensions></trkpt>
<trkpt lat="22.3818452" lon="114.1929245">
<ele>4</ele><time>2020-12-28T05:36:21.999Z</time><extensions><gpxtpx:TrackPointExtension><gpxtpx:hr>134</gpxtpx:hr></gpxtpx:TrackPointExtension></extensions></trkpt>
<trkpt lat="22.3817956" lon="114.1929674">
<ele>4</ele><time>2020-12-28T05:36:23.999Z</time><extensions><gpxtpx:TrackPointExtension><gpxtpx:hr>134</gpxtpx:hr></gpxtpx:TrackPointExtension></extensions></trkpt>
<trkpt lat="22.3817658" lon="114.1930103">
<ele>4</ele><time>2020-12-28T05:36:25.999Z</time><extensions><gpxtpx:TrackPointExtension><gpxtpx:hr>134</gpxtpx:hr></gpxtpx:TrackPointExtension></extensions></trkpt>
<trkpt lat="22.3817261" lon="114.1930318">
<ele>4</ele><time>2020-12-28T05:36:45.998Z</time><extensions><gpxtpx:TrackPointExtension><gpxtpx:hr>134</gpxtpx:hr></gpxtpx:TrackPointExtension></extensions></trkpt>
<trkpt lat="22.3816964" lon="114.1930747">
<ele>4</ele><time>2020-12-28T05:36:47.998Z</time><extensions><gpxtpx:TrackPointExtension><gpxtpx:hr>134</gpxtpx:hr></gpxtpx:TrackPointExtension></extensions></trkpt>
<trkpt lat="22.3816468" lon="114.1931391">
<ele>4</ele><time>2020-12-28T05:36:49.998Z</time><extensions><gpxtpx:TrackPointExtension><gpxtpx:hr>134</gpxtpx:hr></gpxtpx:TrackPointExtension></extensions></trkpt>
<trkpt lat="22.3816170" lon="114.1931820">
<ele>4</ele><time>2020-12-28T05:36:50.998Z</time><extensions><gpxtpx:TrackPointExtension><gpxtpx:hr>134</gpxtpx:hr></gpxtpx:TrackPointExtension></extensions></trkpt>
<trkpt lat="22.3815872" lon="114.1932249">
<ele>4</ele><time>2020-12-28T05:36:51.998Z</time><extensions><gpxtpx:TrackPointExtension><gpxtpx:hr>134</gpxtpx:hr></gpxtpx:TrackPointExtension></extensions></trkpt>
<trkpt lat="22.3815476" lon="114.1932678">
<ele>4</ele><time>2020-12-28T05:36:53.998Z</time><extensions><gpxtpx:TrackPointExtension><gpxtpx:hr>134</gpxtpx:hr></gpxtpx:TrackPointExtension></extensions></trkpt>
<trkpt lat="22.3815178" lon="114.1933107">
<ele>4</ele><time>2020-12-28T05:36:54.998Z</time><extensions><gpxtpx:TrackPointExtension><gpxtpx:hr>134</gpxtpx:hr></gpxtpx:TrackPointExtension></extensions></trkpt>
<trkpt lat="22.3814682" lon="114.1933751">
<ele>5</ele><time>2020-12-28T05:36:56.998Z</time><extensions><gpxtpx:TrackPointExtension><gpxtpx:hr>134</gpxtpx:hr></gpxtpx:TrackPointExtension></extensions></trkpt>
<trkpt lat="22.3814186" lon="114.1934180">
<ele>5</ele><time>2020-12-28T05:36:58.998Z</time><extensions><gpxtpx:TrackPointExtension><gpxtpx:hr>134</gpxtpx:hr></gpxtpx:TrackPointExtension></extensions></trkpt>
<trkpt lat="22.3813888" lon="114.1934609">
<ele>5</ele><time>2020-12-28T05:37:00.998Z</time><extensions><gpxtpx:TrackPointExtension><gpxtpx:hr>134</gpxtpx:hr></gpxtpx:TrackPointExtension></extensions></trkpt>
<trkpt lat="22.3813492" lon="114.1935039">
<ele>4</ele><time>2020-12-28T05:37:02.998Z</time><extensions><gpxtpx:TrackPointExtension><gpxtpx:hr>134</gpxtpx:hr></gpxtpx:TrackPointExtension></extensions></trkpt>
<trkpt lat="22.3813095" lon="114.1935682">
<ele>4</ele><time>2020-12-28T05:37:04.999Z</time><extensions><gpxtpx:TrackPointExtension><gpxtpx:hr>134</gpxtpx:hr></gpxtpx:TrackPointExtension></extensions></trkpt>
<trkpt lat="22.3812499" lon="114.1936111">
<ele>4</ele><time>2020-12-28T05:37:06.999Z</time><extensions><gpxtpx:TrackPointExtension><gpxtpx:hr>134</gpxtpx:hr></gpxtpx:TrackPointExtension></extensions></trkpt>
<trkpt lat="22.3812202" lon="114.1936541">
<ele>4</ele><time>2020-12-28T05:37:14.999Z</time><extensions><gpxtpx:TrackPointExtension><gpxtpx:hr>134</gpxtpx:hr></gpxtpx:TrackPointExtension></extensions></trkpt>
<trkpt lat="22.3811904" lon="114.1936970">
<ele>4</ele><time>2020-12-28T05:37:16.999Z</time><extensions><gpxtpx:TrackPointExtension><gpxtpx:hr>134</gpxtpx:hr></gpxtpx:TrackPointExtension></extensions></trkpt>
<trkpt lat="22.3811507" lon="114.1937399">
<ele>4</ele><time>2020-12-28T05:37:18.999Z</time><extensions><gpxtpx:TrackPointExtension><gpxtpx:hr>134</gpxtpx:hr></gpxtpx:TrackPointExtension></extensions></trkpt>
<trkpt lat="22.3811011" lon="114.1937828">
<ele>4</ele><time>2020-12-28T05:37:20.999Z</time><extensions><gpxtpx:TrackPointExtension><gpxtpx:hr>134</gpxtpx:hr></gpxtpx:TrackPointExtension></extensions></trkpt>
<trkpt lat="22.3810615" lon="114.1938257">
<ele>4</ele><time>2020-12-28T05:37:22.999Z</time><extensions><gpxtpx:TrackPointExtension><gpxtpx:hr>134</gpxtpx:hr></gpxtpx:TrackPointExtension></extensions></trkpt>
<trkpt lat="22.3810317" lon="114.1938686">
<ele>4</ele><time>2020-12-28T05:37:24.999Z</time><extensions><gpxtpx:TrackPointExtension><gpxtpx:hr>134</gpxtpx:hr></gpxtpx:TrackPointExtension></extensions></trkpt>
<trkpt lat="22.3810019" lon="114.1939116">
<ele>4</ele><time>2020-12-28T05:37:26.999Z</time><extensions><gpxtpx:TrackPointExtension><gpxtpx:hr>134</gpxtpx:hr></gpxtpx:TrackPointExtension></extensions></trkpt>
<trkpt lat="22.3809622" lon="114.1939545">
<ele>3</ele><time>2020-12-28T05:37:41.999Z</time><extensions><gpxtpx:TrackPointExtension><gpxtpx:hr>140</gpxtpx:hr></gpxtpx:TrackPointExtension></extensions></trkpt>
<trkpt lat="22.3809325" lon="114.1939974">
<ele>3</ele><time>2020-12-28T05:37:43.999Z</time><extensions><gpxtpx:TrackPointExtension><gpxtpx:hr>140</gpxtpx:hr></gpxtpx:TrackPointExtension></extensions></trkpt>
<trkpt lat="22.3809027" lon="114.1940403">
<ele>3</ele><time>2020-12-28T05:37:59.999Z</time><extensions><gpxtpx:TrackPointExtension><gpxtpx:hr>138</gpxtpx:hr></gpxtpx:TrackPointExtension></extensions></trkpt>
<trkpt lat="22.3808630" lon="114.1940618">
<ele>3</ele><time>2020-12-28T05:38:03.999Z</time><extensions><gpxtpx:TrackPointExtension><gpxtpx:hr>138</gpxtpx:hr></gpxtpx:TrackPointExtension></extensions></trkpt>
<trkpt lat="22.3808234" lon="114.1940188">
<ele>3</ele><time>2020-12-28T05:38:07.999Z</time><extensions><gpxtpx:TrackPointExtension><gpxtpx:hr>142</gpxtpx:hr></gpxtpx:TrackPointExtension></extensions></trkpt>
<trkpt lat="22.3807837" lon="114.1939759">
<ele>3</ele><time>2020-12-28T05:38:10.999Z</time><extensions><gpxtpx:TrackPointExtension><gpxtpx:hr>141</gpxtpx:hr></gpxtpx:TrackPointExtension></extensions></trkpt>
<trkpt lat="22.3807440" lon="114.1939330">
<ele>3</ele><time>2020-12-28T05:38:14.999Z</time><extensions><gpxtpx:TrackPointExtension><gpxtpx:hr>141</gpxtpx:hr></gpxtpx:TrackPointExtension></extensions></trkpt>
<trkpt lat="22.3807142" lon="114.1938901">
<ele>3</ele><time>2020-12-28T05:38:19.999Z</time><extensions><gpxtpx:TrackPointExtension><gpxtpx:hr>141</gpxtpx:hr></gpxtpx:TrackPointExtension></extensions></trkpt>
<trkpt lat="22.3806745" lon="114.1938686">
<ele>3</ele><time>2020-12-28T05:38:25.999Z</time><extensions><gpxtpx:TrackPointExtension><gpxtpx:hr>141</gpxtpx:hr></gpxtpx:TrackPointExtension></extensions></trkpt>
<trkpt lat="22.3806448" lon="114.1938257">
<ele>2</ele><time>2020-12-28T05:38:28.999Z</time><extensions><gpxtpx:TrackPointExtension><gpxtpx:hr>140</gpxtpx:hr></gpxtpx:TrackPointExtension></extensions></trkpt>
<trkpt lat="22.3806150" lon="114.1937828">
<ele>2</ele><time>2020-12-28T05:38:32.999Z</time><extensions><gpxtpx:TrackPointExtension><gpxtpx:hr>139</gpxtpx:hr></gpxtpx:TrackPointExtension></extensions></trkpt>
<trkpt lat="22.3805753" lon="114.1937399">
<ele>2</ele><time>2020-12-28T05:38:35.999Z</time><extensions><gpxtpx:TrackPointExtension><gpxtpx:hr>140</gpxtpx:hr></gpxtpx:TrackPointExtension></extensions></trkpt>
<trkpt lat="22.3805555" lon="114.1936970">
<ele>2</ele><time>2020-12-28T05:39:10.999Z</time><extensions><gpxtpx:TrackPointExtension><gpxtpx:hr>129</gpxtpx:hr></gpxtpx:TrackPointExtension></extensions></trkpt>
<trkpt lat="22.3805257" lon="114.1936541">
<ele>1</ele><time>2020-12-28T05:39:26.999Z</time><extensions><gpxtpx:TrackPointExtension><gpxtpx:hr>128</gpxtpx:hr></gpxtpx:TrackPointExtension></extensions></trkpt>
<trkpt lat="22.3804960" lon="114.1936111">
<ele>1</ele><time>2020-12-28T05:39:31.999Z</time><extensions><gpxtpx:TrackPointExtension><gpxtpx:hr>126</gpxtpx:hr></gpxtpx:TrackPointExtension></extensions></trkpt>
<trkpt lat="22.3804662" lon="114.1935682">
<ele>1</ele><time>2020-12-28T05:39:41.999Z</time><extensions><gpxtpx:TrackPointExtension><gpxtpx:hr>127</gpxtpx:hr></gpxtpx:TrackPointExtension></extensions></trkpt>
<trkpt lat="22.3804761" lon="114.1935039">
<ele>1</ele><time>2020-12-28T05:39:49.999Z</time><extensions><gpxtpx:TrackPointExtension><gpxtpx:hr>126</gpxtpx:hr></gpxtpx:TrackPointExtension></extensions></trkpt>
<trkpt lat="22.3805257" lon="114.1935039">
<ele>1</ele><time>2020-12-28T05:39:54.999Z</time><extensions><gpxtpx:TrackPointExtension><gpxtpx:hr>126</gpxtpx:hr></gpxtpx:TrackPointExtension></extensions></trkpt>
<trkpt lat="22.3805555" lon="114.1935468">
<ele>1</ele><time>2020-12-28T05:39:56.999Z</time><extensions><gpxtpx:TrackPointExtension><gpxtpx:hr>127</gpxtpx:hr></gpxtpx:TrackPointExtension></extensions></trkpt>
<trkpt lat="22.3805952" lon="114.1935897">
<ele>1</ele><time>2020-12-28T05:40:00.999Z</time><extensions><gpxtpx:TrackPointExtension><gpxtpx:hr>127</gpxtpx:hr></gpxtpx:TrackPointExtension></extensions></trkpt>
<trkpt lat="22.3806349" lon="114.1936326">
<ele>1</ele><time>2020-12-28T05:40:03.999Z</time><extensions><gpxtpx:TrackPointExtension><gpxtpx:hr>126</gpxtpx:hr></gpxtpx:TrackPointExtension></extensions></trkpt>
<trkpt lat="22.3806745" lon="114.1936755">
<ele>0</ele><time>2020-12-28T05:40:06.999Z</time><extensions><gpxtpx:TrackPointExtension><gpxtpx:hr>129</gpxtpx:hr></gpxtpx:TrackPointExtension></extensions></trkpt>
<trkpt lat="22.3807142" lon="114.1936970">
<ele>0</ele><time>2020-12-28T05:40:09.999Z</time><extensions><gpxtpx:TrackPointExtension><gpxtpx:hr>129</gpxtpx:hr></gpxtpx:TrackPointExtension></extensions></trkpt>
<trkpt lat="22.3807341" lon="114.1937399">
<ele>0</ele><time>2020-12-28T05:40:11.999Z</time><extensions><gpxtpx:TrackPointExtension><gpxtpx:hr>130</gpxtpx:hr></gpxtpx:TrackPointExtension></extensions></trkpt>
<trkpt lat="22.3807738" lon="114.1937613">
<ele>0</ele><time>2020-12-28T05:40:14.999Z</time><extensions><gpxtpx:TrackPointExtension><gpxtpx:hr>130</gpxtpx:hr></gpxtpx:TrackPointExtension></extensions></trkpt>
<trkpt lat="22.3808035" lon="114.1938043">
<ele>0</ele><time>2020-12-28T05:40:17.999Z</time><extensions><gpxtpx:TrackPointExtension><gpxtpx:hr>131</gpxtpx:hr></gpxtpx:TrackPointExtension></extensions></trkpt>
<trkpt lat="22.3808432" lon="114.1938472">
<ele>0</ele><time>2020-12-28T05:40:20.999Z</time><extensions><gpxtpx:TrackPointExtension><gpxtpx:hr>131</gpxtpx:hr></gpxtpx:TrackPointExtension></extensions></trkpt>
<trkpt lat="22.3808928" lon="114.1938686">
<ele>0</ele><time>2020-12-28T05:40:23.999Z</time><extensions><gpxtpx:TrackPointExtension><gpxtpx:hr>127</gpxtpx:hr></gpxtpx:TrackPointExtension></extensions></trkpt>
<trkpt lat="22.3809226" lon="114.1939116">
<ele>0</ele><time>2020-12-28T05:40:25.999Z</time><extensions><gpxtpx:TrackPointExtension><gpxtpx:hr>127</gpxtpx:hr></gpxtpx:TrackPointExtension></extensions></trkpt>
<trkpt lat="22.3809622" lon="114.1939330">
<ele>0</ele><time>2020-12-28T05:40:28.999Z</time><extensions><gpxtpx:TrackPointExtension><gpxtpx:hr>123</gpxtpx:hr></gpxtpx:TrackPointExtension></extensions></trkpt>
<trkpt lat="22.3809920" lon="114.1939759">
<ele>0</ele><time>2020-12-28T05:40:32.999Z</time><extensions><gpxtpx:TrackPointExtension><gpxtpx:hr>122</gpxtpx:hr></gpxtpx:TrackPointExtension></extensions></trkpt>
<trkpt lat="22.3810416" lon="114.1939974">
<ele>0</ele><time>2020-12-28T05:40:39.999Z</time><extensions><gpxtpx:TrackPointExtension><gpxtpx:hr>120</gpxtpx:hr></gpxtpx:TrackPointExtension></extensions></trkpt>
<trkpt lat="22.3811408" lon="114.1940832">
<ele>0</ele><time>2020-12-28T05:40:45.998Z</time><extensions><gpxtpx:TrackPointExtension><gpxtpx:hr>120</gpxtpx:hr></gpxtpx:TrackPointExtension></extensions></trkpt>
<trkpt lat="22.3812499" lon="114.1942763">
<ele>0</ele><time>2020-12-28T05:40:46.998Z</time><extensions><gpxtpx:TrackPointExtension><gpxtpx:hr>120</gpxtpx:hr></gpxtpx:TrackPointExtension></extensions></trkpt>
<trkpt lat="22.3812202" lon="114.1942120">
<ele>0</ele><time>2020-12-28T05:40:47.998Z</time><extensions><gpxtpx:TrackPointExtension><gpxtpx:hr>120</gpxtpx:hr></gpxtpx:TrackPointExtension></extensions></trkpt>
<trkpt lat="22.3812499" lon="114.1942549">
<ele>0</ele><time>2020-12-28T05:40:53.998Z</time><extensions><gpxtpx:TrackPointExtension><gpxtpx:hr>121</gpxtpx:hr></gpxtpx:TrackPointExtension></extensions></trkpt>
<trkpt lat="22.3812698" lon="114.1942978">
<ele>0</ele><time>2020-12-28T05:40:55.998Z</time><extensions><gpxtpx:TrackPointExtension><gpxtpx:hr>121</gpxtpx:hr></gpxtpx:TrackPointExtension></extensions></trkpt>
<trkpt lat="22.3813095" lon="114.1943407">
<ele>0</ele><time>2020-12-28T05:40:59.998Z</time><extensions><gpxtpx:TrackPointExtension><gpxtpx:hr>122</gpxtpx:hr></gpxtpx:TrackPointExtension></extensions></trkpt>
<trkpt lat="22.3813392" lon="114.1943836">
<ele>0</ele><time>2020-12-28T05:41:01.998Z</time><extensions><gpxtpx:TrackPointExtension><gpxtpx:hr>124</gpxtpx:hr></gpxtpx:TrackPointExtension></extensions></trkpt>
<trkpt lat="22.3813789" lon="114.1944265">
<ele>0</ele><time>2020-12-28T05:41:04.998Z</time><extensions><gpxtpx:TrackPointExtension><gpxtpx:hr>124</gpxtpx:hr></gpxtpx:TrackPointExtension></extensions></trkpt>
<trkpt lat="22.3813988" lon="114.1944695">
<ele>1</ele><time>2020-12-28T05:41:06.998Z</time><extensions><gpxtpx:TrackPointExtension><gpxtpx:hr>124</gpxtpx:hr></gpxtpx:TrackPointExtension></extensions></trkpt>
<trkpt lat="22.3814285" lon="114.1945124">
<ele>1</ele><time>2020-12-28T05:41:12.998Z</time><extensions><gpxtpx:TrackPointExtension><gpxtpx:hr>124</gpxtpx:hr></gpxtpx:TrackPointExtension></extensions></trkpt>
<trkpt lat="22.3814682" lon="114.1945553">
<ele>1</ele><time>2020-12-28T05:41:17.999Z</time><extensions><gpxtpx:TrackPointExtension><gpxtpx:hr>124</gpxtpx:hr></gpxtpx:TrackPointExtension></extensions></trkpt>
<trkpt lat="22.3815079" lon="114.1945982">
<ele>1</ele><time>2020-12-28T05:41:21.999Z</time><extensions><gpxtpx:TrackPointExtension><gpxtpx:hr>124</gpxtpx:hr></gpxtpx:TrackPointExtension></extensions></trkpt>
<trkpt lat="22.3815575" lon="114.1946411">
<ele>1</ele><time>2020-12-28T05:41:24.999Z</time><extensions><gpxtpx:TrackPointExtension><gpxtpx:hr>124</gpxtpx:hr></gpxtpx:TrackPointExtension></extensions></trkpt>
<trkpt lat="22.3815972" lon="114.1946840">
<ele>1</ele><time>2020-12-28T05:41:27.999Z</time><extensions><gpxtpx:TrackPointExtension><gpxtpx:hr>124</gpxtpx:hr></gpxtpx:TrackPointExtension></extensions></trkpt>
<trkpt lat="22.3816369" lon="114.1947269">
<ele>1</ele><time>2020-12-28T05:41:29.999Z</time><extensions><gpxtpx:TrackPointExtension><gpxtpx:hr>124</gpxtpx:hr></gpxtpx:TrackPointExtension></extensions></trkpt>
<trkpt lat="22.3816865" lon="114.1947913">
<ele>1</ele><time>2020-12-28T05:41:33.000Z</time><extensions><gpxtpx:TrackPointExtension><gpxtpx:hr>124</gpxtpx:hr></gpxtpx:TrackPointExtension></extensions></trkpt>
<trkpt lat="22.3817261" lon="114.1948342">
<ele>1</ele><time>2020-12-28T05:41:33.999Z</time><extensions><gpxtpx:TrackPointExtension><gpxtpx:hr>124</gpxtpx:hr></gpxtpx:TrackPointExtension></extensions></trkpt>
<trkpt lat="22.3817956" lon="114.1948771">
<ele>1</ele><time>2020-12-28T05:41:36.000Z</time><extensions><gpxtpx:TrackPointExtension><gpxtpx:hr>124</gpxtpx:hr></gpxtpx:TrackPointExtension></extensions></trkpt>
<trkpt lat="22.3818253" lon="114.1949201">
<ele>1</ele><time>2020-12-28T05:41:36.999Z</time><extensions><gpxtpx:TrackPointExtension><gpxtpx:hr>124</gpxtpx:hr></gpxtpx:TrackPointExtension></extensions></trkpt>
<trkpt lat="22.3818849" lon="114.1949630">
<ele>1</ele><time>2020-12-28T05:41:38.999Z</time><extensions><gpxtpx:TrackPointExtension><gpxtpx:hr>124</gpxtpx:hr></gpxtpx:TrackPointExtension></extensions></trkpt>
<trkpt lat="22.3819146" lon="114.1950059">
<ele>0</ele><time>2020-12-28T05:41:40.999Z</time><extensions><gpxtpx:TrackPointExtension><gpxtpx:hr>124</gpxtpx:hr></gpxtpx:TrackPointExtension></extensions></trkpt>
<trkpt lat="22.3819444" lon="114.1950703">
<ele>1</ele><time>2020-12-28T05:42:56.998Z</time><extensions><gpxtpx:TrackPointExtension><gpxtpx:hr>139</gpxtpx:hr></gpxtpx:TrackPointExtension></extensions></trkpt>
<trkpt lat="22.3819940" lon="114.1951132">
<ele>1</ele><time>2020-12-28T05:42:58.998Z</time><extensions><gpxtpx:TrackPointExtension><gpxtpx:hr>139</gpxtpx:hr></gpxtpx:TrackPointExtension></extensions></trkpt>
<trkpt lat="22.3820436" lon="114.1951561">
<ele>1</ele><time>2020-12-28T05:43:00.998Z</time><extensions><gpxtpx:TrackPointExtension><gpxtpx:hr>139</gpxtpx:hr></gpxtpx:TrackPointExtension></extensions></trkpt>
<trkpt lat="22.3820833" lon="114.1951990">
<ele>1</ele><time>2020-12-28T05:43:01.998Z</time><extensions><gpxtpx:TrackPointExtension><gpxtpx:hr>139</gpxtpx:hr></gpxtpx:TrackPointExtension></extensions></trkpt>
<trkpt lat="22.3821626" lon="114.1952634">
<ele>2</ele><time>2020-12-28T05:43:03.998Z</time><extensions><gpxtpx:TrackPointExtension><gpxtpx:hr>139</gpxtpx:hr></gpxtpx:TrackPointExtension></extensions></trkpt>
<trkpt lat="22.3822321" lon="114.1953063">
<ele>2</ele><time>2020-12-28T05:43:05.998Z</time><extensions><gpxtpx:TrackPointExtension><gpxtpx:hr>139</gpxtpx:hr></gpxtpx:TrackPointExtension></extensions></trkpt>
<trkpt lat="22.3822916" lon="114.1953707">
<ele>2</ele><time>2020-12-28T05:43:07.998Z</time><extensions><gpxtpx:TrackPointExtension><gpxtpx:hr>139</gpxtpx:hr></gpxtpx:TrackPointExtension></extensions></trkpt>
<trkpt lat="22.3823412" lon="114.1954136">
<ele>2</ele><time>2020-12-28T05:43:09.998Z</time><extensions><gpxtpx:TrackPointExtension><gpxtpx:hr>139</gpxtpx:hr></gpxtpx:TrackPointExtension></extensions></trkpt>
<trkpt lat="22.3823809" lon="114.1954565">
<ele>2</ele><time>2020-12-28T05:43:13.998Z</time><extensions><gpxtpx:TrackPointExtension><gpxtpx:hr>139</gpxtpx:hr></gpxtpx:TrackPointExtension></extensions></trkpt>
<trkpt lat="22.3824206" lon="114.1954780">
<ele>2</ele><time>2020-12-28T05:43:29.999Z</time><extensions><gpxtpx:TrackPointExtension><gpxtpx:hr>139</gpxtpx:hr></gpxtpx:TrackPointExtension></extensions></trkpt>
<trkpt lat="22.3824702" lon="114.1955209">
<ele>2</ele><time>2020-12-28T05:43:40.999Z</time><extensions><gpxtpx:TrackPointExtension><gpxtpx:hr>145</gpxtpx:hr></gpxtpx:TrackPointExtension></extensions></trkpt>
<trkpt lat="22.3825198" lon="114.1955423">
<ele>2</ele><time>2020-12-28T05:43:45.999Z</time><extensions><gpxtpx:TrackPointExtension><gpxtpx:hr>145</gpxtpx:hr></gpxtpx:TrackPointExtension></extensions></trkpt>
<trkpt lat="22.3825495" lon="114.1955853">
<ele>1</ele><time>2020-12-28T05:43:48.999Z</time><extensions><gpxtpx:TrackPointExtension><gpxtpx:hr>145</gpxtpx:hr></gpxtpx:TrackPointExtension></extensions></trkpt>
<trkpt lat="22.3825793" lon="114.1956282">
<ele>1</ele><time>2020-12-28T05:43:51.999Z</time><extensions><gpxtpx:TrackPointExtension><gpxtpx:hr>145</gpxtpx:hr></gpxtpx:TrackPointExtension></extensions></trkpt>
<trkpt lat="22.3826190" lon="114.1956496">
<ele>1</ele><time>2020-12-28T05:43:54.999Z</time><extensions><gpxtpx:TrackPointExtension><gpxtpx:hr>145</gpxtpx:hr></gpxtpx:TrackPointExtension></extensions></trkpt>
<trkpt lat="22.3826686" lon="114.1956711">
<ele>1</ele><time>2020-12-28T05:43:57.999Z</time><extensions><gpxtpx:TrackPointExtension><gpxtpx:hr>145</gpxtpx:hr></gpxtpx:TrackPointExtension></extensions></trkpt>
<trkpt lat="22.3827182" lon="114.1957140">
<ele>1</ele><time>2020-12-28T05:44:01.999Z</time><extensions><gpxtpx:TrackPointExtension><gpxtpx:hr>145</gpxtpx:hr></gpxtpx:TrackPointExtension></extensions></trkpt>
<trkpt lat="22.3827480" lon="114.1957569">
<ele>1</ele><time>2020-12-28T05:44:03.999Z</time><extensions><gpxtpx:TrackPointExtension><gpxtpx:hr>145</gpxtpx:hr></gpxtpx:TrackPointExtension></extensions></trkpt>
<trkpt lat="22.3827976" lon="114.1957784">
<ele>1</ele><time>2020-12-28T05:44:06.999Z</time><extensions><gpxtpx:TrackPointExtension><gpxtpx:hr>145</gpxtpx:hr></gpxtpx:TrackPointExtension></extensions></trkpt>
<trkpt lat="22.3828372" lon="114.1957998">
<ele>1</ele><time>2020-12-28T05:44:09.999Z</time><extensions><gpxtpx:TrackPointExtension><gpxtpx:hr>145</gpxtpx:hr></gpxtpx:TrackPointExtension></extensions></trkpt>
<trkpt lat="22.3828670" lon="114.1958427">
<ele>1</ele><time>2020-12-28T05:44:11.999Z</time><extensions><gpxtpx:TrackPointExtension><gpxtpx:hr>145</gpxtpx:hr></gpxtpx:TrackPointExtension></extensions></trkpt>
<trkpt lat="22.3829166" lon="114.1958642">
<ele>1</ele><time>2020-12-28T05:44:17.999Z</time><extensions><gpxtpx:TrackPointExtension><gpxtpx:hr>124</gpxtpx:hr></gpxtpx:TrackPointExtension></extensions></trkpt>
<trkpt lat="22.3829563" lon="114.1959071">
<ele>1</ele><time>2020-12-28T05:44:21.999Z</time><extensions><gpxtpx:TrackPointExtension><gpxtpx:hr>124</gpxtpx:hr></gpxtpx:TrackPointExtension></extensions></trkpt>
<trkpt lat="22.3830059" lon="114.1959500">
<ele>1</ele><time>2020-12-28T05:44:25.999Z</time><extensions><gpxtpx:TrackPointExtension><gpxtpx:hr>124</gpxtpx:hr></gpxtpx:TrackPointExtension></extensions></trkpt>
<trkpt lat="22.3830357" lon="114.1959929">
<ele>1</ele><time>2020-12-28T05:44:28.999Z</time><extensions><gpxtpx:TrackPointExtension><gpxtpx:hr>125</gpxtpx:hr></gpxtpx:TrackPointExtension></extensions></trkpt>
<trkpt lat="22.3830654" lon="114.1960359">
<ele>1</ele><time>2020-12-28T05:44:30.999Z</time><extensions><gpxtpx:TrackPointExtension><gpxtpx:hr>129</gpxtpx:hr></gpxtpx:TrackPointExtension></extensions></trkpt>
<trkpt lat="22.3831051" lon="114.1960788">
<ele>1</ele><time>2020-12-28T05:44:32.999Z</time><extensions><gpxtpx:TrackPointExtension><gpxtpx:hr>129</gpxtpx:hr></gpxtpx:TrackPointExtension></extensions></trkpt>
<trkpt lat="22.3831448" lon="114.1961217">
<ele>1</ele><time>2020-12-28T05:44:35.999Z</time><extensions><gpxtpx:TrackPointExtension><gpxtpx:hr>129</gpxtpx:hr></gpxtpx:TrackPointExtension></extensions></trkpt>
<trkpt lat="22.3831745" lon="114.1961646">
<ele>1</ele><time>2020-12-28T05:44:37.999Z</time><extensions><gpxtpx:TrackPointExtension><gpxtpx:hr>130</gpxtpx:hr></gpxtpx:TrackPointExtension></extensions></trkpt>
<trkpt lat="22.3832043" lon="114.1962075">
<ele>1</ele><time>2020-12-28T05:44:39.999Z</time><extensions><gpxtpx:TrackPointExtension><gpxtpx:hr>130</gpxtpx:hr></gpxtpx:TrackPointExtension></extensions></trkpt>
<trkpt lat="22.3832440" lon="114.1962504">
<ele>1</ele><time>2020-12-28T05:44:42.999Z</time><extensions><gpxtpx:TrackPointExtension><gpxtpx:hr>132</gpxtpx:hr></gpxtpx:TrackPointExtension></extensions></trkpt>
<trkpt lat="22.3832936" lon="114.1963148">
<ele>1</ele><time>2020-12-28T05:44:45.999Z</time><extensions><gpxtpx:TrackPointExtension><gpxtpx:hr>132</gpxtpx:hr></gpxtpx:TrackPointExtension></extensions></trkpt>
<trkpt lat="22.3833333" lon="114.1963363">
<ele>1</ele><time>2020-12-28T05:44:48.999Z</time><extensions><gpxtpx:TrackPointExtension><gpxtpx:hr>135</gpxtpx:hr></gpxtpx:TrackPointExtension></extensions></trkpt>
<trkpt lat="22.3833531" lon="114.1963792">
<ele>2</ele><time>2020-12-28T05:44:51.999Z</time><extensions><gpxtpx:TrackPointExtension><gpxtpx:hr>135</gpxtpx:hr></gpxtpx:TrackPointExtension></extensions></trkpt>
<trkpt lat="22.3833928" lon="114.1964006">
<ele>2</ele><time>2020-12-28T05:44:53.999Z</time><extensions><gpxtpx:TrackPointExtension><gpxtpx:hr>135</gpxtpx:hr></gpxtpx:TrackPointExtension></extensions></trkpt>
<trkpt lat="22.3834226" lon="114.1964436">
<ele>3</ele><time>2020-12-28T05:44:56.999Z</time><extensions><gpxtpx:TrackPointExtension><gpxtpx:hr>135</gpxtpx:hr></gpxtpx:TrackPointExtension></extensions></trkpt>
<trkpt lat="22.3834622" lon="114.1964650">
<ele>3</ele><time>2020-12-28T05:44:59.999Z</time><extensions><gpxtpx:TrackPointExtension><gpxtpx:hr>135</gpxtpx:hr></gpxtpx:TrackPointExtension></extensions></trkpt>
<trkpt lat="22.3835019" lon="114.1965079">
<ele>2</ele><time>2020-12-28T05:45:02.998Z</time><extensions><gpxtpx:TrackPointExtension><gpxtpx:hr>133</gpxtpx:hr></gpxtpx:TrackPointExtension></extensions></trkpt>
<trkpt lat="22.3835416" lon="114.1965508">
<ele>2</ele><time>2020-12-28T05:45:05.998Z</time><extensions><gpxtpx:TrackPointExtension><gpxtpx:hr>133</gpxtpx:hr></gpxtpx:TrackPointExtension></extensions></trkpt>
<trkpt lat="22.3835912" lon="114.1965938">
<ele>2</ele><time>2020-12-28T05:45:08.998Z</time><extensions><gpxtpx:TrackPointExtension><gpxtpx:hr>134</gpxtpx:hr></gpxtpx:TrackPointExtension></extensions></trkpt>
<trkpt lat="22.3836408" lon="114.1966367">
<ele>2</ele><time>2020-12-28T05:45:11.998Z</time><extensions><gpxtpx:TrackPointExtension><gpxtpx:hr>132</gpxtpx:hr></gpxtpx:TrackPointExtension></extensions></trkpt>
<trkpt lat="22.3836904" lon="114.1966796">
<ele>2</ele><time>2020-12-28T05:45:14.998Z</time><extensions><gpxtpx:TrackPointExtension><gpxtpx:hr>132</gpxtpx:hr></gpxtpx:TrackPointExtension></extensions></trkpt>
<trkpt lat="22.3837499" lon="114.1967225">
<ele>2</ele><time>2020-12-28T05:45:17.998Z</time><extensions><gpxtpx:TrackPointExtension><gpxtpx:hr>128</gpxtpx:hr></gpxtpx:TrackPointExtension></extensions></trkpt>
<trkpt lat="22.3837995" lon="114.1967654">
<ele>2</ele><time>2020-12-28T05:45:20.998Z</time><extensions><gpxtpx:TrackPointExtension><gpxtpx:hr>128</gpxtpx:hr></gpxtpx:TrackPointExtension></extensions></trkpt>
<trkpt lat="22.3838293" lon="114.1968083">
<ele>2</ele><time>2020-12-28T05:45:22.998Z</time><extensions><gpxtpx:TrackPointExtension><gpxtpx:hr>125</gpxtpx:hr></gpxtpx:TrackPointExtension></extensions></trkpt>
<trkpt lat="22.3838789" lon="114.1968298">
<ele>2</ele><time>2020-12-28T05:45:25.998Z</time><extensions><gpxtpx:TrackPointExtension><gpxtpx:hr>124</gpxtpx:hr></gpxtpx:TrackPointExtension></extensions></trkpt>
<trkpt lat="22.3839285" lon="114.1968727">
<ele>2</ele><time>2020-12-28T05:45:29.000Z</time><extensions><gpxtpx:TrackPointExtension><gpxtpx:hr>124</gpxtpx:hr></gpxtpx:TrackPointExtension></extensions></trkpt>
<trkpt lat="22.3839682" lon="114.1968942">
<ele>2</ele><time>2020-12-28T05:45:45.000Z</time><extensions><gpxtpx:TrackPointExtension><gpxtpx:hr>123</gpxtpx:hr></gpxtpx:TrackPointExtension></extensions></trkpt>
<trkpt lat="22.3839979" lon="114.1969585">
<ele>1</ele><time>2020-12-28T05:47:04.999Z</time><extensions><gpxtpx:TrackPointExtension><gpxtpx:hr>122</gpxtpx:hr></gpxtpx:TrackPointExtension></extensions></trkpt>
<trkpt lat="22.3840376" lon="114.1970015">
<ele>1</ele><time>2020-12-28T05:47:06.999Z</time><extensions><gpxtpx:TrackPointExtension><gpxtpx:hr>123</gpxtpx:hr></gpxtpx:TrackPointExtension></extensions></trkpt>
<trkpt lat="22.3840872" lon="114.1970444">
<ele>2</ele><time>2020-12-28T05:47:08.999Z</time><extensions><gpxtpx:TrackPointExtension><gpxtpx:hr>123</gpxtpx:hr></gpxtpx:TrackPointExtension></extensions></trkpt>
<trkpt lat="22.3841368" lon="114.1971087">
<ele>2</ele><time>2020-12-28T05:47:10.998Z</time><extensions><gpxtpx:TrackPointExtension><gpxtpx:hr>123</gpxtpx:hr></gpxtpx:TrackPointExtension></extensions></trkpt>
<trkpt lat="22.3841864" lon="114.1971517">
<ele>2</ele><time>2020-12-28T05:47:12.998Z</time><extensions><gpxtpx:TrackPointExtension><gpxtpx:hr>123</gpxtpx:hr></gpxtpx:TrackPointExtension></extensions></trkpt>
<trkpt lat="22.3842261" lon="114.1971946">
<ele>2</ele><time>2020-12-28T05:47:14.998Z</time><extensions><gpxtpx:TrackPointExtension><gpxtpx:hr>123</gpxtpx:hr></gpxtpx:TrackPointExtension></extensions></trkpt>
<trkpt lat="22.3842559" lon="114.1972375">
<ele>2</ele><time>2020-12-28T05:47:15.998Z</time><extensions><gpxtpx:TrackPointExtension><gpxtpx:hr>122</gpxtpx:hr></gpxtpx:TrackPointExtension></extensions></trkpt>
<trkpt lat="22.3842956" lon="114.1972589">
<ele>2</ele><time>2020-12-28T05:47:17.998Z</time><extensions><gpxtpx:TrackPointExtension><gpxtpx:hr>122</gpxtpx:hr></gpxtpx:TrackPointExtension></extensions></trkpt>
<trkpt lat="22.3843253" lon="114.1973019">
<ele>2</ele><time>2020-12-28T05:47:19.998Z</time><extensions><gpxtpx:TrackPointExtension><gpxtpx:hr>122</gpxtpx:hr></gpxtpx:TrackPointExtension></extensions></trkpt>
<trkpt lat="22.3843749" lon="114.1973448">
<ele>2</ele><time>2020-12-28T05:47:21.998Z</time><extensions><gpxtpx:TrackPointExtension><gpxtpx:hr>122</gpxtpx:hr></gpxtpx:TrackPointExtension></extensions></trkpt>
<trkpt lat="22.3844245" lon="114.1973877">
<ele>2</ele><time>2020-12-28T05:47:24.998Z</time><extensions><gpxtpx:TrackPointExtension><gpxtpx:hr>122</gpxtpx:hr></gpxtpx:TrackPointExtension></extensions></trkpt>
<trkpt lat="22.3844642" lon="114.1974306">
<ele>2</ele><time>2020-12-28T05:47:26.998Z</time><extensions><gpxtpx:TrackPointExtension><gpxtpx:hr>123</gpxtpx:hr></gpxtpx:TrackPointExtension></extensions></trkpt>
<trkpt lat="22.3845039" lon="114.1974735">
<ele>2</ele><time>2020-12-28T05:47:28.998Z</time><extensions><gpxtpx:TrackPointExtension><gpxtpx:hr>123</gpxtpx:hr></gpxtpx:TrackPointExtension></extensions></trkpt>
<trkpt lat="22.3845535" lon="114.1975164">
<ele>2</ele><time>2020-12-28T05:47:31.998Z</time><extensions><gpxtpx:TrackPointExtension><gpxtpx:hr>126</gpxtpx:hr></gpxtpx:TrackPointExtension></extensions></trkpt>
<trkpt lat="22.3846031" lon="114.1975379">
<ele>2</ele><time>2020-12-28T05:47:33.998Z</time><extensions><gpxtpx:TrackPointExtension><gpxtpx:hr>126</gpxtpx:hr></gpxtpx:TrackPointExtension></extensions></trkpt>
<trkpt lat="22.3846527" lon="114.1975808">
<ele>2</ele><time>2020-12-28T05:47:36.998Z</time><extensions><gpxtpx:TrackPointExtension><gpxtpx:hr>129</gpxtpx:hr></gpxtpx:TrackPointExtension></extensions></trkpt>
<trkpt lat="22.3846924" lon="114.1976023">
<ele>2</ele><time>2020-12-28T05:47:38.998Z</time><extensions><gpxtpx:TrackPointExtension><gpxtpx:hr>129</gpxtpx:hr></gpxtpx:TrackPointExtension></extensions></trkpt>
<trkpt lat="22.3847420" lon="114.1976237">
<ele>2</ele><time>2020-12-28T05:47:40.998Z</time><extensions><gpxtpx:TrackPointExtension><gpxtpx:hr>129</gpxtpx:hr></gpxtpx:TrackPointExtension></extensions></trkpt>
<trkpt lat="22.3847916" lon="114.1976881">
<ele>2</ele><time>2020-12-28T05:47:42.998Z</time><extensions><gpxtpx:TrackPointExtension><gpxtpx:hr>128</gpxtpx:hr></gpxtpx:TrackPointExtension></extensions></trkpt>
<trkpt lat="22.3848511" lon="114.1977310">
<ele>2</ele><time>2020-12-28T05:47:45.998Z</time><extensions><gpxtpx:TrackPointExtension><gpxtpx:hr>128</gpxtpx:hr></gpxtpx:TrackPointExtension></extensions></trkpt>
<trkpt lat="22.3848908" lon="114.1977525">
<ele>2</ele><time>2020-12-28T05:47:47.998Z</time><extensions><gpxtpx:TrackPointExtension><gpxtpx:hr>128</gpxtpx:hr></gpxtpx:TrackPointExtension></extensions></trkpt>
<trkpt lat="22.3849404" lon="114.1977954">
<ele>2</ele><time>2020-12-28T05:47:50.998Z</time><extensions><gpxtpx:TrackPointExtension><gpxtpx:hr>128</gpxtpx:hr></gpxtpx:TrackPointExtension></extensions></trkpt>
<trkpt lat="22.3849701" lon="114.1978383">
<ele>2</ele><time>2020-12-28T05:47:52.999Z</time><extensions><gpxtpx:TrackPointExtension><gpxtpx:hr>128</gpxtpx:hr></gpxtpx:TrackPointExtension></extensions></trkpt>
<trkpt lat="22.3850098" lon="114.1978598">
<ele>2</ele><time>2020-12-28T05:47:55.999Z</time><extensions><gpxtpx:TrackPointExtension><gpxtpx:hr>128</gpxtpx:hr></gpxtpx:TrackPointExtension></extensions></trkpt>
<trkpt lat="22.3850495" lon="114.1979027">
<ele>2</ele><time>2020-12-28T05:47:58.999Z</time><extensions><gpxtpx:TrackPointExtension><gpxtpx:hr>127</gpxtpx:hr></gpxtpx:TrackPointExtension></extensions></trkpt>
<trkpt lat="22.3850892" lon="114.1979456">
<ele>2</ele><time>2020-12-28T05:48:01.999Z</time><extensions><gpxtpx:TrackPointExtension><gpxtpx:hr>126</gpxtpx:hr></gpxtpx:TrackPointExtension></extensions></trkpt>
<trkpt lat="22.3851189" lon="114.1979885">
<ele>2</ele><time>2020-12-28T05:48:04.999Z</time><extensions><gpxtpx:TrackPointExtension><gpxtpx:hr>126</gpxtpx:hr></gpxtpx:TrackPointExtension></extensions></trkpt>
<trkpt lat="22.3851487" lon="114.1980314">
<ele>2</ele><time>2020-12-28T05:48:13.999Z</time><extensions><gpxtpx:TrackPointExtension><gpxtpx:hr>125</gpxtpx:hr></gpxtpx:TrackPointExtension></extensions></trkpt>
<trkpt lat="22.3851785" lon="114.1980743">
<ele>2</ele><time>2020-12-28T05:48:25.999Z</time><extensions><gpxtpx:TrackPointExtension><gpxtpx:hr>127</gpxtpx:hr></gpxtpx:TrackPointExtension></extensions></trkpt>
<trkpt lat="22.3851487" lon="114.1980314">
<ele>2</ele><time>2020-12-28T05:49:08.998Z</time><extensions><gpxtpx:TrackPointExtension><gpxtpx:hr>136</gpxtpx:hr></gpxtpx:TrackPointExtension></extensions></trkpt>
<trkpt lat="22.3851685" lon="114.1980743">
<ele>2</ele><time>2020-12-28T05:49:09.998Z</time><extensions><gpxtpx:TrackPointExtension><gpxtpx:hr>136</gpxtpx:hr></gpxtpx:TrackPointExtension></extensions></trkpt>
<trkpt lat="22.3852082" lon="114.1981173">
<ele>2</ele><time>2020-12-28T05:49:23.998Z</time><extensions><gpxtpx:TrackPointExtension><gpxtpx:hr>133</gpxtpx:hr></gpxtpx:TrackPointExtension></extensions></trkpt>
<trkpt lat="22.3852578" lon="114.1981602">
<ele>1</ele><time>2020-12-28T05:49:25.998Z</time><extensions><gpxtpx:TrackPointExtension><gpxtpx:hr>130</gpxtpx:hr></gpxtpx:TrackPointExtension></extensions></trkpt>
<trkpt lat="22.3852975" lon="114.1982031">
<ele>1</ele><time>2020-12-28T05:49:26.998Z</time><extensions><gpxtpx:TrackPointExtension><gpxtpx:hr>130</gpxtpx:hr></gpxtpx:TrackPointExtension></extensions></trkpt>
<trkpt lat="22.3853471" lon="114.1982675">
<ele>1</ele><time>2020-12-28T05:49:28.998Z</time><extensions><gpxtpx:TrackPointExtension><gpxtpx:hr>130</gpxtpx:hr></gpxtpx:TrackPointExtension></extensions></trkpt>
<trkpt lat="22.3854066" lon="114.1983318">
<ele>1</ele><time>2020-12-28T05:49:30.998Z</time><extensions><gpxtpx:TrackPointExtension><gpxtpx:hr>130</gpxtpx:hr></gpxtpx:TrackPointExtension></extensions></trkpt>
<trkpt lat="22.3854761" lon="114.1983747">
<ele>1</ele><time>2020-12-28T05:49:32.998Z</time><extensions><gpxtpx:TrackPointExtension><gpxtpx:hr>130</gpxtpx:hr></gpxtpx:TrackPointExtension></extensions></trkpt>
<trkpt lat="22.3855257" lon="114.1984391">
<ele>1</ele><time>2020-12-28T05:49:34.998Z</time><extensions><gpxtpx:TrackPointExtension><gpxtpx:hr>130</gpxtpx:hr></gpxtpx:TrackPointExtension></extensions></trkpt>
<trkpt lat="22.3855852" lon="114.1984820">
<ele>1</ele><time>2020-12-28T05:49:36.998Z</time><extensions><gpxtpx:TrackPointExtension><gpxtpx:hr>132</gpxtpx:hr></gpxtpx:TrackPointExtension></extensions></trkpt>
<trkpt lat="22.3856150" lon="114.1985250">
<ele>1</ele><time>2020-12-28T05:49:37.998Z</time><extensions><gpxtpx:TrackPointExtension><gpxtpx:hr>132</gpxtpx:hr></gpxtpx:TrackPointExtension></extensions></trkpt>
<trkpt lat="22.3856646" lon="114.1985679">
<ele>1</ele><time>2020-12-28T05:49:39.998Z</time><extensions><gpxtpx:TrackPointExtension><gpxtpx:hr>132</gpxtpx:hr></gpxtpx:TrackPointExtension></extensions></trkpt>
<trkpt lat="22.3857142" lon="114.1986322">
<ele>1</ele><time>2020-12-28T05:49:41.998Z</time><extensions><gpxtpx:TrackPointExtension><gpxtpx:hr>132</gpxtpx:hr></gpxtpx:TrackPointExtension></extensions></trkpt>
<trkpt lat="22.3857340" lon="114.1986752">
<ele>1</ele><time>2020-12-28T05:49:42.998Z</time><extensions><gpxtpx:TrackPointExtension><gpxtpx:hr>132</gpxtpx:hr></gpxtpx:TrackPointExtension></extensions></trkpt>
<trkpt lat="22.3857836" lon="114.1987181">
<ele>1</ele><time>2020-12-28T05:49:44.999Z</time><extensions><gpxtpx:TrackPointExtension><gpxtpx:hr>132</gpxtpx:hr></gpxtpx:TrackPointExtension></extensions></trkpt>
<trkpt lat="22.3858233" lon="114.1987395">
<ele>1</ele><time>2020-12-28T05:49:46.999Z</time><extensions><gpxtpx:TrackPointExtension><gpxtpx:hr>132</gpxtpx:hr></gpxtpx:TrackPointExtension></extensions></trkpt>
<trkpt lat="22.3858431" lon="114.1987824">
<ele>1</ele><time>2020-12-28T05:49:48.999Z</time><extensions><gpxtpx:TrackPointExtension><gpxtpx:hr>132</gpxtpx:hr></gpxtpx:TrackPointExtension></extensions></trkpt>
<trkpt lat="22.3858630" lon="114.1988468">
<ele>1</ele><time>2020-12-28T05:49:50.999Z</time><extensions><gpxtpx:TrackPointExtension><gpxtpx:hr>132</gpxtpx:hr></gpxtpx:TrackPointExtension></extensions></trkpt>
<trkpt lat="22.3859126" lon="114.1988897">
<ele>1</ele><time>2020-12-28T05:49:53.999Z</time><extensions><gpxtpx:TrackPointExtension><gpxtpx:hr>132</gpxtpx:hr></gpxtpx:TrackPointExtension></extensions></trkpt>
<trkpt lat="22.3859523" lon="114.1989326">
<ele>1</ele><time>2020-12-28T05:49:55.999Z</time><extensions><gpxtpx:TrackPointExtension><gpxtpx:hr>132</gpxtpx:hr></gpxtpx:TrackPointExtension></extensions></trkpt>
<trkpt lat="22.3859919" lon="114.1989541">
<ele>1</ele><time>2020-12-28T05:49:57.999Z</time><extensions><gpxtpx:TrackPointExtension><gpxtpx:hr>132</gpxtpx:hr></gpxtpx:TrackPointExtension></extensions></trkpt>
<trkpt lat="22.3860217" lon="114.1989970">
<ele>1</ele><time>2020-12-28T05:49:59.999Z</time><extensions><gpxtpx:TrackPointExtension><gpxtpx:hr>132</gpxtpx:hr></gpxtpx:TrackPointExtension></extensions></trkpt>
<trkpt lat="22.3860713" lon="114.1990614">
<ele>2</ele><time>2020-12-28T05:50:03.999Z</time><extensions><gpxtpx:TrackPointExtension><gpxtpx:hr>132</gpxtpx:hr></gpxtpx:TrackPointExtension></extensions></trkpt>
<trkpt lat="22.3861209" lon="114.1991043">
<ele>2</ele><time>2020-12-28T05:50:10.999Z</time><extensions><gpxtpx:TrackPointExtension><gpxtpx:hr>132</gpxtpx:hr></gpxtpx:TrackPointExtension></extensions></trkpt>
<trkpt lat="22.3861705" lon="114.1991472">
<ele>2</ele><time>2020-12-28T05:50:14.999Z</time><extensions><gpxtpx:TrackPointExtension><gpxtpx:hr>132</gpxtpx:hr></gpxtpx:TrackPointExtension></extensions></trkpt>
<trkpt lat="22.3862300" lon="114.1991901">
<ele>2</ele><time>2020-12-28T05:50:17.999Z</time><extensions><gpxtpx:TrackPointExtension><gpxtpx:hr>132</gpxtpx:hr></gpxtpx:TrackPointExtension></extensions></trkpt>
<trkpt lat="22.3862697" lon="114.1992116">
<ele>1</ele><time>2020-12-28T05:50:19.999Z</time><extensions><gpxtpx:TrackPointExtension><gpxtpx:hr>132</gpxtpx:hr></gpxtpx:TrackPointExtension></extensions></trkpt>
<trkpt lat="22.3863193" lon="114.1992331">
<ele>1</ele><time>2020-12-28T05:50:21.999Z</time><extensions><gpxtpx:TrackPointExtension><gpxtpx:hr>132</gpxtpx:hr></gpxtpx:TrackPointExtension></extensions></trkpt>
<trkpt lat="22.3863689" lon="114.1992545">
<ele>1</ele><time>2020-12-28T05:50:23.999Z</time><extensions><gpxtpx:TrackPointExtension><gpxtpx:hr>132</gpxtpx:hr></gpxtpx:TrackPointExtension></extensions></trkpt>
<trkpt lat="22.3864086" lon="114.1992974">
<ele>1</ele><time>2020-12-28T05:50:25.999Z</time><extensions><gpxtpx:TrackPointExtension><gpxtpx:hr>132</gpxtpx:hr></gpxtpx:TrackPointExtension></extensions></trkpt>
<trkpt lat="22.3864483" lon="114.1993189">
<ele>1</ele><time>2020-12-28T05:50:27.999Z</time><extensions><gpxtpx:TrackPointExtension><gpxtpx:hr>132</gpxtpx:hr></gpxtpx:TrackPointExtension></extensions></trkpt>
<trkpt lat="22.3865078" lon="114.1993618">
<ele>1</ele><time>2020-12-28T05:50:29.999Z</time><extensions><gpxtpx:TrackPointExtension><gpxtpx:hr>132</gpxtpx:hr></gpxtpx:TrackPointExtension></extensions></trkpt>
<trkpt lat="22.3865475" lon="114.1994047">
<ele>1</ele><time>2020-12-28T05:50:31.999Z</time><extensions><gpxtpx:TrackPointExtension><gpxtpx:hr>132</gpxtpx:hr></gpxtpx:TrackPointExtension></extensions></trkpt>
<trkpt lat="22.3865971" lon="114.1994476">
<ele>1</ele><time>2020-12-28T05:50:33.999Z</time><extensions><gpxtpx:TrackPointExtension><gpxtpx:hr>132</gpxtpx:hr></gpxtpx:TrackPointExtension></extensions></trkpt>
<trkpt lat="22.3866467" lon="114.1994905">
<ele>1</ele><time>2020-12-28T05:50:36.999Z</time><extensions><gpxtpx:TrackPointExtension><gpxtpx:hr>132</gpxtpx:hr></gpxtpx:TrackPointExtension></extensions></trkpt>
<trkpt lat="22.3866864" lon="114.1995335">
<ele>1</ele><time>2020-12-28T05:50:38.999Z</time><extensions><gpxtpx:TrackPointExtension><gpxtpx:hr>132</gpxtpx:hr></gpxtpx:TrackPointExtension></extensions></trkpt>
<trkpt lat="22.3867260" lon="114.1995549">
<ele>1</ele><time>2020-12-28T05:50:41.999Z</time><extensions><gpxtpx:TrackPointExtension><gpxtpx:hr>132</gpxtpx:hr></gpxtpx:TrackPointExtension></extensions></trkpt>
<trkpt lat="22.3867657" lon="114.1995978">
<ele>1</ele><time>2020-12-28T05:50:43.999Z</time><extensions><gpxtpx:TrackPointExtension><gpxtpx:hr>132</gpxtpx:hr></gpxtpx:TrackPointExtension></extensions></trkpt>
<trkpt lat="22.3867955" lon="114.1996408">
<ele>1</ele><time>2020-12-28T05:50:45.999Z</time><extensions><gpxtpx:TrackPointExtension><gpxtpx:hr>132</gpxtpx:hr></gpxtpx:TrackPointExtension></extensions></trkpt>
<trkpt lat="22.3868352" lon="114.1996622">
<ele>1</ele><time>2020-12-28T05:50:48.999Z</time><extensions><gpxtpx:TrackPointExtension><gpxtpx:hr>132</gpxtpx:hr></gpxtpx:TrackPointExtension></extensions></trkpt>
<trkpt lat="22.3868748" lon="114.1996837">
<ele>1</ele><time>2020-12-28T05:50:50.999Z</time><extensions><gpxtpx:TrackPointExtension><gpxtpx:hr>132</gpxtpx:hr></gpxtpx:TrackPointExtension></extensions></trkpt>
<trkpt lat="22.3869046" lon="114.1997266">
<ele>1</ele><time>2020-12-28T05:50:52.999Z</time><extensions><gpxtpx:TrackPointExtension><gpxtpx:hr>132</gpxtpx:hr></gpxtpx:TrackPointExtension></extensions></trkpt>
<trkpt lat="22.3869344" lon="114.1997695">
<ele>1</ele><time>2020-12-28T05:50:54.999Z</time><extensions><gpxtpx:TrackPointExtension><gpxtpx:hr>132</gpxtpx:hr></gpxtpx:TrackPointExtension></extensions></trkpt>
<trkpt lat="22.3869840" lon="114.1997910">
<ele>1</ele><time>2020-12-28T05:50:57.999Z</time><extensions><gpxtpx:TrackPointExtension><gpxtpx:hr>132</gpxtpx:hr></gpxtpx:TrackPointExtension></extensions></trkpt>
<trkpt lat="22.3870236" lon="114.1998339">
<ele>1</ele><time>2020-12-28T05:51:01.999Z</time><extensions><gpxtpx:TrackPointExtension><gpxtpx:hr>132</gpxtpx:hr></gpxtpx:TrackPointExtension></extensions></trkpt>
<trkpt lat="22.3870732" lon="114.1998768">
<ele>1</ele><time>2020-12-28T05:51:07.999Z</time><extensions><gpxtpx:TrackPointExtension><gpxtpx:hr>132</gpxtpx:hr></gpxtpx:TrackPointExtension></extensions></trkpt>
<trkpt lat="22.3871129" lon="114.1998982">
<ele>1</ele><time>2020-12-28T05:51:10.999Z</time><extensions><gpxtpx:TrackPointExtension><gpxtpx:hr>132</gpxtpx:hr></gpxtpx:TrackPointExtension></extensions></trkpt>
<trkpt lat="22.3871526" lon="114.1999412">
<ele>1</ele><time>2020-12-28T05:51:14.999Z</time><extensions><gpxtpx:TrackPointExtension><gpxtpx:hr>132</gpxtpx:hr></gpxtpx:TrackPointExtension></extensions></trkpt>
<trkpt lat="22.3871923" lon="114.1999841">
<ele>1</ele><time>2020-12-28T05:51:18.999Z</time><extensions><gpxtpx:TrackPointExtension><gpxtpx:hr>132</gpxtpx:hr></gpxtpx:TrackPointExtension></extensions></trkpt>
<trkpt lat="22.3872419" lon="114.2000270">
<ele>1</ele><time>2020-12-28T05:51:24.999Z</time><extensions><gpxtpx:TrackPointExtension><gpxtpx:hr>132</gpxtpx:hr></gpxtpx:TrackPointExtension></extensions></trkpt>
<trkpt lat="22.3873014" lon="114.2001343">
<ele>1</ele><time>2020-12-28T05:51:25.999Z</time><extensions><gpxtpx:TrackPointExtension><gpxtpx:hr>132</gpxtpx:hr></gpxtpx:TrackPointExtension></extensions></trkpt>
<trkpt lat="22.3873907" lon="114.2001343">
<ele>1</ele><time>2020-12-28T05:51:26.999Z</time><extensions><gpxtpx:TrackPointExtension><gpxtpx:hr>132</gpxtpx:hr></gpxtpx:TrackPointExtension></extensions></trkpt>
<trkpt lat="22.3874304" lon="114.2002201">
<ele>1</ele><time>2020-12-28T05:51:28.999Z</time><extensions><gpxtpx:TrackPointExtension><gpxtpx:hr>132</gpxtpx:hr></gpxtpx:TrackPointExtension></extensions></trkpt>
<trkpt lat="22.3874502" lon="114.2002630">
<ele>1</ele><time>2020-12-28T05:51:30.999Z</time><extensions><gpxtpx:TrackPointExtension><gpxtpx:hr>125</gpxtpx:hr></gpxtpx:TrackPointExtension></extensions></trkpt>
<trkpt lat="22.3874800" lon="114.2003274">
<ele>1</ele><time>2020-12-28T05:51:32.999Z</time><extensions><gpxtpx:TrackPointExtension><gpxtpx:hr>125</gpxtpx:hr></gpxtpx:TrackPointExtension></extensions></trkpt>
<trkpt lat="22.3875197" lon="114.2003703">
<ele>1</ele><time>2020-12-28T05:51:34.999Z</time><extensions><gpxtpx:TrackPointExtension><gpxtpx:hr>125</gpxtpx:hr></gpxtpx:TrackPointExtension></extensions></trkpt>
<trkpt lat="22.3875494" lon="114.2004132">
<ele>1</ele><time>2020-12-28T05:51:36.998Z</time><extensions><gpxtpx:TrackPointExtension><gpxtpx:hr>123</gpxtpx:hr></gpxtpx:TrackPointExtension></extensions></trkpt>
<trkpt lat="22.3875792" lon="114.2004561">
<ele>1</ele><time>2020-12-28T05:51:38.998Z</time><extensions><gpxtpx:TrackPointExtension><gpxtpx:hr>123</gpxtpx:hr></gpxtpx:TrackPointExtension></extensions></trkpt>
<trkpt lat="22.3876189" lon="114.2004991">
<ele>1</ele><time>2020-12-28T05:51:40.998Z</time><extensions><gpxtpx:TrackPointExtension><gpxtpx:hr>122</gpxtpx:hr></gpxtpx:TrackPointExtension></extensions></trkpt>
<trkpt lat="22.3876585" lon="114.2005420">
<ele>2</ele><time>2020-12-28T05:51:43.998Z</time><extensions><gpxtpx:TrackPointExtension><gpxtpx:hr>122</gpxtpx:hr></gpxtpx:TrackPointExtension></extensions></trkpt>
<trkpt lat="22.3876883" lon="114.2005849">
<ele>2</ele><time>2020-12-28T05:51:45.998Z</time><extensions><gpxtpx:TrackPointExtension><gpxtpx:hr>122</gpxtpx:hr></gpxtpx:TrackPointExtension></extensions></trkpt>
<trkpt lat="22.3877081" lon="114.2006278">
<ele>2</ele><time>2020-12-28T05:51:47.000Z</time><extensions><gpxtpx:TrackPointExtension><gpxtpx:hr>122</gpxtpx:hr></gpxtpx:TrackPointExtension></extensions></trkpt>
<trkpt lat="22.3877478" lon="114.2006707">
<ele>2</ele><time>2020-12-28T05:51:49.000Z</time><extensions><gpxtpx:TrackPointExtension><gpxtpx:hr>122</gpxtpx:hr></gpxtpx:TrackPointExtension></extensions></trkpt>
<trkpt lat="22.3878073" lon="114.2007136">
<ele>2</ele><time>2020-12-28T05:51:51.000Z</time><extensions><gpxtpx:TrackPointExtension><gpxtpx:hr>122</gpxtpx:hr></gpxtpx:TrackPointExtension></extensions></trkpt>
<trkpt lat="22.3878569" lon="114.2007780">
<ele>2</ele><time>2020-12-28T05:51:53.000Z</time><extensions><gpxtpx:TrackPointExtension><gpxtpx:hr>122</gpxtpx:hr></gpxtpx:TrackPointExtension></extensions></trkpt>
<trkpt lat="22.3879065" lon="114.2008209">
<ele>2</ele><time>2020-12-28T05:51:55.000Z</time><extensions><gpxtpx:TrackPointExtension><gpxtpx:hr>122</gpxtpx:hr></gpxtpx:TrackPointExtension></extensions></trkpt>
<trkpt lat="22.3879462" lon="114.2008424">
<ele>2</ele><time>2020-12-28T05:51:57.000Z</time><extensions><gpxtpx:TrackPointExtension><gpxtpx:hr>122</gpxtpx:hr></gpxtpx:TrackPointExtension></extensions></trkpt>
<trkpt lat="22.3879859" lon="114.2009068">
<ele>2</ele><time>2020-12-28T05:52:00.000Z</time><extensions><gpxtpx:TrackPointExtension><gpxtpx:hr>122</gpxtpx:hr></gpxtpx:TrackPointExtension></extensions></trkpt>
<trkpt lat="22.3880256" lon="114.2009282">
<ele>2</ele><time>2020-12-28T05:52:02.000Z</time><extensions><gpxtpx:TrackPointExtension><gpxtpx:hr>123</gpxtpx:hr></gpxtpx:TrackPointExtension></extensions></trkpt>
<trkpt lat="22.3880553" lon="114.2009711">
<ele>2</ele><time>2020-12-28T05:52:04.000Z</time><extensions><gpxtpx:TrackPointExtension><gpxtpx:hr>123</gpxtpx:hr></gpxtpx:TrackPointExtension></extensions></trkpt>
<trkpt lat="22.3880950" lon="114.2010140">
<ele>2</ele><time>2020-12-28T05:52:06.000Z</time><extensions><gpxtpx:TrackPointExtension><gpxtpx:hr>123</gpxtpx:hr></gpxtpx:TrackPointExtension></extensions></trkpt>
<trkpt lat="22.3881446" lon="114.2010570">
<ele>2</ele><time>2020-12-28T05:52:09.000Z</time><extensions><gpxtpx:TrackPointExtension><gpxtpx:hr>125</gpxtpx:hr></gpxtpx:TrackPointExtension></extensions></trkpt>
<trkpt lat="22.3881843" lon="114.2010999">
<ele>2</ele><time>2020-12-28T05:52:11.000Z</time><extensions><gpxtpx:TrackPointExtension><gpxtpx:hr>125</gpxtpx:hr></gpxtpx:TrackPointExtension></extensions></trkpt>
<trkpt lat="22.3882240" lon="114.2011428">
<ele>2</ele><time>2020-12-28T05:52:14.000Z</time><extensions><gpxtpx:TrackPointExtension><gpxtpx:hr>126</gpxtpx:hr></gpxtpx:TrackPointExtension></extensions></trkpt>
<trkpt lat="22.3882537" lon="114.2011857">
<ele>2</ele><time>2020-12-28T05:52:16.000Z</time><extensions><gpxtpx:TrackPointExtension><gpxtpx:hr>126</gpxtpx:hr></gpxtpx:TrackPointExtension></extensions></trkpt>
<trkpt lat="22.3882934" lon="114.2012286">
<ele>2</ele><time>2020-12-28T05:52:18.000Z</time><extensions><gpxtpx:TrackPointExtension><gpxtpx:hr>128</gpxtpx:hr></gpxtpx:TrackPointExtension></extensions></trkpt>
<trkpt lat="22.3883529" lon="114.2012715">
<ele>2</ele><time>2020-12-28T05:52:20.000Z</time><extensions><gpxtpx:TrackPointExtension><gpxtpx:hr>128</gpxtpx:hr></gpxtpx:TrackPointExtension></extensions></trkpt>
<trkpt lat="22.3883926" lon="114.2013144">
<ele>3</ele><time>2020-12-28T05:52:21.999Z</time><extensions><gpxtpx:TrackPointExtension><gpxtpx:hr>130</gpxtpx:hr></gpxtpx:TrackPointExtension></extensions></trkpt>
<trkpt lat="22.3884422" lon="114.2013359">
<ele>3</ele><time>2020-12-28T05:52:23.999Z</time><extensions><gpxtpx:TrackPointExtension><gpxtpx:hr>130</gpxtpx:hr></gpxtpx:TrackPointExtension></extensions></trkpt>
<trkpt lat="22.3884819" lon="114.2013788">
<ele>3</ele><time>2020-12-28T05:52:25.999Z</time><extensions><gpxtpx:TrackPointExtension><gpxtpx:hr>130</gpxtpx:hr></gpxtpx:TrackPointExtension></extensions></trkpt>
<trkpt lat="22.3885315" lon="114.2014003">
<ele>3</ele><time>2020-12-28T05:52:27.999Z</time><extensions><gpxtpx:TrackPointExtension><gpxtpx:hr>129</gpxtpx:hr></gpxtpx:TrackPointExtension></extensions></trkpt>
<trkpt lat="22.3885712" lon="114.2014432">
<ele>3</ele><time>2020-12-28T05:52:29.999Z</time><extensions><gpxtpx:TrackPointExtension><gpxtpx:hr>129</gpxtpx:hr></gpxtpx:TrackPointExtension></extensions></trkpt>
<trkpt lat="22.3886307" lon="114.2014861">
<ele>3</ele><time>2020-12-28T05:52:32.999Z</time><extensions><gpxtpx:TrackPointExtension><gpxtpx:hr>126</gpxtpx:hr></gpxtpx:TrackPointExtension></extensions></trkpt>
<trkpt lat="22.3886605" lon="114.2015290">
<ele>3</ele><time>2020-12-28T05:52:34.999Z</time><extensions><gpxtpx:TrackPointExtension><gpxtpx:hr>126</gpxtpx:hr></gpxtpx:TrackPointExtension></extensions></trkpt>
<trkpt lat="22.3887001" lon="114.2015719">
<ele>3</ele><time>2020-12-28T05:52:36.999Z</time><extensions><gpxtpx:TrackPointExtension><gpxtpx:hr>124</gpxtpx:hr></gpxtpx:TrackPointExtension></extensions></trkpt>
<trkpt lat="22.3887398" lon="114.2015934">
<ele>3</ele><time>2020-12-28T05:52:38.999Z</time><extensions><gpxtpx:TrackPointExtension><gpxtpx:hr>124</gpxtpx:hr></gpxtpx:TrackPointExtension></extensions></trkpt>
<trkpt lat="22.3887696" lon="114.2016363">
<ele>3</ele><time>2020-12-28T05:52:40.999Z</time><extensions><gpxtpx:TrackPointExtension><gpxtpx:hr>122</gpxtpx:hr></gpxtpx:TrackPointExtension></extensions></trkpt>
<trkpt lat="22.3888093" lon="114.2016578">
<ele>3</ele><time>2020-12-28T05:52:42.999Z</time><extensions><gpxtpx:TrackPointExtension><gpxtpx:hr>122</gpxtpx:hr></gpxtpx:TrackPointExtension></extensions></trkpt>
<trkpt lat="22.3888390" lon="114.2017007">
<ele>3</ele><time>2020-12-28T05:52:44.999Z</time><extensions><gpxtpx:TrackPointExtension><gpxtpx:hr>122</gpxtpx:hr></gpxtpx:TrackPointExtension></extensions></trkpt>
<trkpt lat="22.3888787" lon="114.2017436">
<ele>3</ele><time>2020-12-28T05:52:47.999Z</time><extensions><gpxtpx:TrackPointExtension><gpxtpx:hr>122</gpxtpx:hr></gpxtpx:TrackPointExtension></extensions></trkpt>
<trkpt lat="22.3889085" lon="114.2017865">
<ele>3</ele><time>2020-12-28T05:52:50.999Z</time><extensions><gpxtpx:TrackPointExtension><gpxtpx:hr>122</gpxtpx:hr></gpxtpx:TrackPointExtension></extensions></trkpt>
<trkpt lat="22.3889283" lon="114.2018509">
<ele>3</ele><time>2020-12-28T05:52:53.999Z</time><extensions><gpxtpx:TrackPointExtension><gpxtpx:hr>122</gpxtpx:hr></gpxtpx:TrackPointExtension></extensions></trkpt>
<trkpt lat="22.3889878" lon="114.2018938">
<ele>3</ele><time>2020-12-28T05:52:56.999Z</time><extensions><gpxtpx:TrackPointExtension><gpxtpx:hr>122</gpxtpx:hr></gpxtpx:TrackPointExtension></extensions></trkpt>
<trkpt lat="22.3890176" lon="114.2019367">
<ele>3</ele><time>2020-12-28T05:52:58.999Z</time><extensions><gpxtpx:TrackPointExtension><gpxtpx:hr>122</gpxtpx:hr></gpxtpx:TrackPointExtension></extensions></trkpt>
<trkpt lat="22.3890374" lon="114.2019796">
<ele>3</ele><time>2020-12-28T05:53:00.999Z</time><extensions><gpxtpx:TrackPointExtension><gpxtpx:hr>122</gpxtpx:hr></gpxtpx:TrackPointExtension></extensions></trkpt>
<trkpt lat="22.3890672" lon="114.2020226">
<ele>3</ele><time>2020-12-28T05:53:02.999Z</time><extensions><gpxtpx:TrackPointExtension><gpxtpx:hr>122</gpxtpx:hr></gpxtpx:TrackPointExtension></extensions></trkpt>
<trkpt lat="22.3890870" lon="114.2020869">
<ele>3</ele><time>2020-12-28T05:53:04.999Z</time><extensions><gpxtpx:TrackPointExtension><gpxtpx:hr>122</gpxtpx:hr></gpxtpx:TrackPointExtension></extensions></trkpt>
<trkpt lat="22.3891168" lon="114.2021298">
<ele>3</ele><time>2020-12-28T05:53:06.999Z</time><extensions><gpxtpx:TrackPointExtension><gpxtpx:hr>121</gpxtpx:hr></gpxtpx:TrackPointExtension></extensions></trkpt>
<trkpt lat="22.3891267" lon="114.2021942">
<ele>3</ele><time>2020-12-28T05:53:08.999Z</time><extensions><gpxtpx:TrackPointExtension><gpxtpx:hr>121</gpxtpx:hr></gpxtpx:TrackPointExtension></extensions></trkpt>
<trkpt lat="22.3891466" lon="114.2022371">
<ele>3</ele><time>2020-12-28T05:53:10.999Z</time><extensions><gpxtpx:TrackPointExtension><gpxtpx:hr>121</gpxtpx:hr></gpxtpx:TrackPointExtension></extensions></trkpt>
<trkpt lat="22.3891763" lon="114.2022800">
<ele>3</ele><time>2020-12-28T05:53:12.999Z</time><extensions><gpxtpx:TrackPointExtension><gpxtpx:hr>121</gpxtpx:hr></gpxtpx:TrackPointExtension></extensions></trkpt>
<trkpt lat="22.3891962" lon="114.2023230">
<ele>3</ele><time>2020-12-28T05:53:14.999Z</time><extensions><gpxtpx:TrackPointExtension><gpxtpx:hr>121</gpxtpx:hr></gpxtpx:TrackPointExtension></extensions></trkpt>
<trkpt lat="22.3892160" lon="114.2023873">
<ele>3</ele><time>2020-12-28T05:53:16.999Z</time><extensions><gpxtpx:TrackPointExtension><gpxtpx:hr>120</gpxtpx:hr></gpxtpx:TrackPointExtension></extensions></trkpt>
<trkpt lat="22.3892358" lon="114.2024302">
<ele>3</ele><time>2020-12-28T05:53:18.999Z</time><extensions><gpxtpx:TrackPointExtension><gpxtpx:hr>120</gpxtpx:hr></gpxtpx:TrackPointExtension></extensions></trkpt>
<trkpt lat="22.3892557" lon="114.2024732">
<ele>3</ele><time>2020-12-28T05:53:20.999Z</time><extensions><gpxtpx:TrackPointExtension><gpxtpx:hr>120</gpxtpx:hr></gpxtpx:TrackPointExtension></extensions></trkpt>
<trkpt lat="22.3892854" lon="114.2025375">
<ele>3</ele><time>2020-12-28T05:53:23.999Z</time><extensions><gpxtpx:TrackPointExtension><gpxtpx:hr>121</gpxtpx:hr></gpxtpx:TrackPointExtension></extensions></trkpt>
<trkpt lat="22.3893152" lon="114.2025805">
<ele>3</ele><time>2020-12-28T05:53:26.999Z</time><extensions><gpxtpx:TrackPointExtension><gpxtpx:hr>118</gpxtpx:hr></gpxtpx:TrackPointExtension></extensions></trkpt>
<trkpt lat="22.3893350" lon="114.2026448">
<ele>3</ele><time>2020-12-28T05:53:29.999Z</time><extensions><gpxtpx:TrackPointExtension><gpxtpx:hr>118</gpxtpx:hr></gpxtpx:TrackPointExtension></extensions></trkpt>
<trkpt lat="22.3893152" lon="114.2026877">
<ele>3</ele><time>2020-12-28T05:53:33.999Z</time><extensions><gpxtpx:TrackPointExtension><gpxtpx:hr>118</gpxtpx:hr></gpxtpx:TrackPointExtension></extensions></trkpt>
<trkpt lat="22.3893350" lon="114.2027521">
<ele>3</ele><time>2020-12-28T05:53:46.999Z</time><extensions><gpxtpx:TrackPointExtension><gpxtpx:hr>119</gpxtpx:hr></gpxtpx:TrackPointExtension></extensions></trkpt>
<trkpt lat="22.3893549" lon="114.2027950">
<ele>3</ele><time>2020-12-28T05:53:53.000Z</time><extensions><gpxtpx:TrackPointExtension><gpxtpx:hr>118</gpxtpx:hr></gpxtpx:TrackPointExtension></extensions></trkpt>
<trkpt lat="22.3893747" lon="114.2028594">
<ele>3</ele><time>2020-12-28T05:53:57.000Z</time><extensions><gpxtpx:TrackPointExtension><gpxtpx:hr>120</gpxtpx:hr></gpxtpx:TrackPointExtension></extensions></trkpt>
<trkpt lat="22.3893946" lon="114.2029023">
<ele>3</ele><time>2020-12-28T05:54:00.000Z</time><extensions><gpxtpx:TrackPointExtension><gpxtpx:hr>120</gpxtpx:hr></gpxtpx:TrackPointExtension></extensions></trkpt>
<trkpt lat="22.3894045" lon="114.2029667">
<ele>3</ele><time>2020-12-28T05:54:05.000Z</time><extensions><gpxtpx:TrackPointExtension><gpxtpx:hr>120</gpxtpx:hr></gpxtpx:TrackPointExtension></extensions></trkpt>
<trkpt lat="22.3894342" lon="114.2030096">
<ele>3</ele><time>2020-12-28T05:54:10.000Z</time><extensions><gpxtpx:TrackPointExtension><gpxtpx:hr>122</gpxtpx:hr></gpxtpx:TrackPointExtension></extensions></trkpt>
<trkpt lat="22.3894342" lon="114.2030740">
<ele>3</ele><time>2020-12-28T05:54:15.000Z</time><extensions><gpxtpx:TrackPointExtension><gpxtpx:hr>123</gpxtpx:hr></gpxtpx:TrackPointExtension></extensions></trkpt>
<trkpt lat="22.3894541" lon="114.2031384">
<ele>4</ele><time>2020-12-28T05:54:19.000Z</time><extensions><gpxtpx:TrackPointExtension><gpxtpx:hr>125</gpxtpx:hr></gpxtpx:TrackPointExtension></extensions></trkpt>
<trkpt lat="22.3894640" lon="114.2032027">
<ele>4</ele><time>2020-12-28T05:54:22.000Z</time><extensions><gpxtpx:TrackPointExtension><gpxtpx:hr>124</gpxtpx:hr></gpxtpx:TrackPointExtension></extensions></trkpt>
<trkpt lat="22.3894739" lon="114.2032671">
<ele>4</ele><time>2020-12-28T05:54:26.000Z</time><extensions><gpxtpx:TrackPointExtension><gpxtpx:hr>124</gpxtpx:hr></gpxtpx:TrackPointExtension></extensions></trkpt>
<trkpt lat="22.3894838" lon="114.2033315">
<ele>4</ele><time>2020-12-28T05:54:30.000Z</time><extensions><gpxtpx:TrackPointExtension><gpxtpx:hr>124</gpxtpx:hr></gpxtpx:TrackPointExtension></extensions></trkpt>
<trkpt lat="22.3895037" lon="114.2033744">
<ele>4</ele><time>2020-12-28T05:54:34.000Z</time><extensions><gpxtpx:TrackPointExtension><gpxtpx:hr>125</gpxtpx:hr></gpxtpx:TrackPointExtension></extensions></trkpt>
<trkpt lat="22.3895136" lon="114.2034388">
<ele>4</ele><time>2020-12-28T05:54:37.000Z</time><extensions><gpxtpx:TrackPointExtension><gpxtpx:hr>125</gpxtpx:hr></gpxtpx:TrackPointExtension></extensions></trkpt>
<trkpt lat="22.3895235" lon="114.2035031">
<ele>4</ele><time>2020-12-28T05:54:40.999Z</time><extensions><gpxtpx:TrackPointExtension><gpxtpx:hr>125</gpxtpx:hr></gpxtpx:TrackPointExtension></extensions></trkpt>
<trkpt lat="22.3895533" lon="114.2035460">
<ele>4</ele><time>2020-12-28T05:54:47.999Z</time><extensions><gpxtpx:TrackPointExtension><gpxtpx:hr>123</gpxtpx:hr></gpxtpx:TrackPointExtension></extensions></trkpt>
<trkpt lat="22.3895731" lon="114.2035890">
<ele>4</ele><time>2020-12-28T05:54:49.999Z</time><extensions><gpxtpx:TrackPointExtension><gpxtpx:hr>123</gpxtpx:hr></gpxtpx:TrackPointExtension></extensions></trkpt>
<trkpt lat="22.3895930" lon="114.2036533">
<ele>4</ele><time>2020-12-28T05:54:52.999Z</time><extensions><gpxtpx:TrackPointExtension><gpxtpx:hr>123</gpxtpx:hr></gpxtpx:TrackPointExtension></extensions></trkpt>
<trkpt lat="22.3896128" lon="114.2036963">
<ele>5</ele><time>2020-12-28T05:54:54.999Z</time><extensions><gpxtpx:TrackPointExtension><gpxtpx:hr>123</gpxtpx:hr></gpxtpx:TrackPointExtension></extensions></trkpt>
<trkpt lat="22.3896426" lon="114.2037606">
<ele>5</ele><time>2020-12-28T05:54:57.999Z</time><extensions><gpxtpx:TrackPointExtension><gpxtpx:hr>123</gpxtpx:hr></gpxtpx:TrackPointExtension></extensions></trkpt>
<trkpt lat="22.3896723" lon="114.2038035">
<ele>5</ele><time>2020-12-28T05:54:59.999Z</time><extensions><gpxtpx:TrackPointExtension><gpxtpx:hr>123</gpxtpx:hr></gpxtpx:TrackPointExtension></extensions></trkpt>
<trkpt lat="22.3896922" lon="114.2038465">
<ele>5</ele><time>2020-12-28T05:55:01.999Z</time><extensions><gpxtpx:TrackPointExtension><gpxtpx:hr>123</gpxtpx:hr></gpxtpx:TrackPointExtension></extensions></trkpt>
<trkpt lat="22.3897219" lon="114.2039108">
<ele>5</ele><time>2020-12-28T05:55:04.999Z</time><extensions><gpxtpx:TrackPointExtension><gpxtpx:hr>123</gpxtpx:hr></gpxtpx:TrackPointExtension></extensions></trkpt>
<trkpt lat="22.3897517" lon="114.2039537">
<ele>5</ele><time>2020-12-28T05:55:07.999Z</time><extensions><gpxtpx:TrackPointExtension><gpxtpx:hr>123</gpxtpx:hr></gpxtpx:TrackPointExtension></extensions></trkpt>
<trkpt lat="22.3897814" lon="114.2040181">
<ele>5</ele><time>2020-12-28T05:55:11.999Z</time><extensions><gpxtpx:TrackPointExtension><gpxtpx:hr>131</gpxtpx:hr></gpxtpx:TrackPointExtension></extensions></trkpt>
<trkpt lat="22.3898013" lon="114.2040610">
<ele>5</ele><time>2020-12-28T05:55:13.999Z</time><extensions><gpxtpx:TrackPointExtension><gpxtpx:hr>131</gpxtpx:hr></gpxtpx:TrackPointExtension></extensions></trkpt>
<trkpt lat="22.3898310" lon="114.2041254">
<ele>5</ele><time>2020-12-28T05:55:16.999Z</time><extensions><gpxtpx:TrackPointExtension><gpxtpx:hr>130</gpxtpx:hr></gpxtpx:TrackPointExtension></extensions></trkpt>
<trkpt lat="22.3898608" lon="114.2041683">
<ele>5</ele><time>2020-12-28T05:55:19.999Z</time><extensions><gpxtpx:TrackPointExtension><gpxtpx:hr>130</gpxtpx:hr></gpxtpx:TrackPointExtension></extensions></trkpt>
<trkpt lat="22.3898906" lon="114.2042327">
<ele>5</ele><time>2020-12-28T05:55:22.999Z</time><extensions><gpxtpx:TrackPointExtension><gpxtpx:hr>130</gpxtpx:hr></gpxtpx:TrackPointExtension></extensions></trkpt>
<trkpt lat="22.3899203" lon="114.2042756">
<ele>5</ele><time>2020-12-28T05:55:24.999Z</time><extensions><gpxtpx:TrackPointExtension><gpxtpx:hr>130</gpxtpx:hr></gpxtpx:TrackPointExtension></extensions></trkpt>
<trkpt lat="22.3899501" lon="114.2043400">
<ele>5</ele><time>2020-12-28T05:55:27.999Z</time><extensions><gpxtpx:TrackPointExtension><gpxtpx:hr>130</gpxtpx:hr></gpxtpx:TrackPointExtension></extensions></trkpt>
<trkpt lat="22.3899798" lon="114.2043829">
<ele>4</ele><time>2020-12-28T05:55:29.999Z</time><extensions><gpxtpx:TrackPointExtension><gpxtpx:hr>130</gpxtpx:hr></gpxtpx:TrackPointExtension></extensions></trkpt>
<trkpt lat="22.3900195" lon="114.2044473">
<ele>4</ele><time>2020-12-28T05:55:32.999Z</time><extensions><gpxtpx:TrackPointExtension><gpxtpx:hr>130</gpxtpx:hr></gpxtpx:TrackPointExtension></extensions></trkpt>
<trkpt lat="22.3900592" lon="114.2044902">
<ele>4</ele><time>2020-12-28T05:55:35.999Z</time><extensions><gpxtpx:TrackPointExtension><gpxtpx:hr>130</gpxtpx:hr></gpxtpx:TrackPointExtension></extensions></trkpt>
<trkpt lat="22.3901187" lon="114.2045116">
<ele>3</ele><time>2020-12-28T05:55:37.999Z</time><extensions><gpxtpx:TrackPointExtension><gpxtpx:hr>130</gpxtpx:hr></gpxtpx:TrackPointExtension></extensions></trkpt>
<trkpt lat="22.3901782" lon="114.2045116">
<ele>3</ele><time>2020-12-28T05:55:39.999Z</time><extensions><gpxtpx:TrackPointExtension><gpxtpx:hr>130</gpxtpx:hr></gpxtpx:TrackPointExtension></extensions></trkpt>
<trkpt lat="22.3902179" lon="114.2044902">
<ele>2</ele><time>2020-12-28T05:55:41.999Z</time><extensions><gpxtpx:TrackPointExtension><gpxtpx:hr>130</gpxtpx:hr></gpxtpx:TrackPointExtension></extensions></trkpt>
<trkpt lat="22.3902477" lon="114.2044473">
<ele>2</ele><time>2020-12-28T05:55:43.999Z</time><extensions><gpxtpx:TrackPointExtension><gpxtpx:hr>130</gpxtpx:hr></gpxtpx:TrackPointExtension></extensions></trkpt>
<trkpt lat="22.3903072" lon="114.2044044">
<ele>2</ele><time>2020-12-28T05:55:46.999Z</time><extensions><gpxtpx:TrackPointExtension><gpxtpx:hr>131</gpxtpx:hr></gpxtpx:TrackPointExtension></extensions></trkpt>
<trkpt lat="22.3903270" lon="114.2043614">
<ele>2</ele><time>2020-12-28T05:55:48.999Z</time><extensions><gpxtpx:TrackPointExtension><gpxtpx:hr>131</gpxtpx:hr></gpxtpx:TrackPointExtension></extensions></trkpt>
<trkpt lat="22.3902675" lon="114.2043614">
<ele>2</ele><time>2020-12-28T05:56:13.000Z</time><extensions><gpxtpx:TrackPointExtension><gpxtpx:hr>122</gpxtpx:hr></gpxtpx:TrackPointExtension></extensions></trkpt>
<trkpt lat="22.3902477" lon="114.2043185">
<ele>2</ele><time>2020-12-28T05:56:15.000Z</time><extensions><gpxtpx:TrackPointExtension><gpxtpx:hr>122</gpxtpx:hr></gpxtpx:TrackPointExtension></extensions></trkpt>
<trkpt lat="22.3902179" lon="114.2042756">
<ele>2</ele><time>2020-12-28T05:56:17.000Z</time><extensions><gpxtpx:TrackPointExtension><gpxtpx:hr>123</gpxtpx:hr></gpxtpx:TrackPointExtension></extensions></trkpt>
<trkpt lat="22.3901981" lon="114.2042327">
<ele>2</ele><time>2020-12-28T05:56:20.000Z</time><extensions><gpxtpx:TrackPointExtension><gpxtpx:hr>123</gpxtpx:hr></gpxtpx:TrackPointExtension></extensions></trkpt>
<trkpt lat="22.3902278" lon="114.2041898">
<ele>2</ele><time>2020-12-28T05:56:21.000Z</time><extensions><gpxtpx:TrackPointExtension><gpxtpx:hr>122</gpxtpx:hr></gpxtpx:TrackPointExtension></extensions></trkpt>
<trkpt lat="22.3902774" lon="114.2041898">
<ele>2</ele><time>2020-12-28T05:56:23.000Z</time><extensions><gpxtpx:TrackPointExtension><gpxtpx:hr>122</gpxtpx:hr></gpxtpx:TrackPointExtension></extensions></trkpt>
<trkpt lat="22.3903270" lon="114.2041683">
<ele>2</ele><time>2020-12-28T05:56:25.000Z</time><extensions><gpxtpx:TrackPointExtension><gpxtpx:hr>122</gpxtpx:hr></gpxtpx:TrackPointExtension></extensions></trkpt>
<trkpt lat="22.3903766" lon="114.2041469">
<ele>2</ele><time>2020-12-28T05:56:27.000Z</time><extensions><gpxtpx:TrackPointExtension><gpxtpx:hr>122</gpxtpx:hr></gpxtpx:TrackPointExtension></extensions></trkpt>
<trkpt lat="22.3904362" lon="114.2041254">
<ele>2</ele><time>2020-12-28T05:56:29.000Z</time><extensions><gpxtpx:TrackPointExtension><gpxtpx:hr>122</gpxtpx:hr></gpxtpx:TrackPointExtension></extensions></trkpt>
<trkpt lat="22.3904858" lon="114.2041254">
<ele>2</ele><time>2020-12-28T05:56:31.000Z</time><extensions><gpxtpx:TrackPointExtension><gpxtpx:hr>122</gpxtpx:hr></gpxtpx:TrackPointExtension></extensions></trkpt>
<trkpt lat="22.3905453" lon="114.2041254">
<ele>2</ele><time>2020-12-28T05:56:33.000Z</time><extensions><gpxtpx:TrackPointExtension><gpxtpx:hr>122</gpxtpx:hr></gpxtpx:TrackPointExtension></extensions></trkpt>
<trkpt lat="22.3905949" lon="114.2041254">
<ele>2</ele><time>2020-12-28T05:56:35.000Z</time><extensions><gpxtpx:TrackPointExtension><gpxtpx:hr>122</gpxtpx:hr></gpxtpx:TrackPointExtension></extensions></trkpt>
<trkpt lat="22.3906445" lon="114.2041039">
<ele>2</ele><time>2020-12-28T05:56:37.000Z</time><extensions><gpxtpx:TrackPointExtension><gpxtpx:hr>125</gpxtpx:hr></gpxtpx:TrackPointExtension></extensions></trkpt>
<trkpt lat="22.3907040" lon="114.2041039">
<ele>2</ele><time>2020-12-28T05:56:40.000Z</time><extensions><gpxtpx:TrackPointExtension><gpxtpx:hr>125</gpxtpx:hr></gpxtpx:TrackPointExtension></extensions></trkpt>
<trkpt lat="22.3907536" lon="114.2041039">
<ele>1</ele><time>2020-12-28T05:56:41.999Z</time><extensions><gpxtpx:TrackPointExtension><gpxtpx:hr>124</gpxtpx:hr></gpxtpx:TrackPointExtension></extensions></trkpt>
<trkpt lat="22.3908131" lon="114.2041039">
<ele>1</ele><time>2020-12-28T05:56:44.999Z</time><extensions><gpxtpx:TrackPointExtension><gpxtpx:hr>124</gpxtpx:hr></gpxtpx:TrackPointExtension></extensions></trkpt>
<trkpt lat="22.3908726" lon="114.2040825">
<ele>1</ele><time>2020-12-28T05:56:47.999Z</time><extensions><gpxtpx:TrackPointExtension><gpxtpx:hr>123</gpxtpx:hr></gpxtpx:TrackPointExtension></extensions></trkpt>
<trkpt lat="22.3909322" lon="114.2040825">
<ele>1</ele><time>2020-12-28T05:56:49.999Z</time><extensions><gpxtpx:TrackPointExtension><gpxtpx:hr>123</gpxtpx:hr></gpxtpx:TrackPointExtension></extensions></trkpt>
<trkpt lat="22.3909818" lon="114.2040825">
<ele>1</ele><time>2020-12-28T05:56:51.999Z</time><extensions><gpxtpx:TrackPointExtension><gpxtpx:hr>121</gpxtpx:hr></gpxtpx:TrackPointExtension></extensions></trkpt>
<trkpt lat="22.3910512" lon="114.2041039">
<ele>1</ele><time>2020-12-28T05:56:54.999Z</time><extensions><gpxtpx:TrackPointExtension><gpxtpx:hr>121</gpxtpx:hr></gpxtpx:TrackPointExtension></extensions></trkpt>
<trkpt lat="22.3911008" lon="114.2041254">
<ele>1</ele><time>2020-12-28T05:56:56.999Z</time><extensions><gpxtpx:TrackPointExtension><gpxtpx:hr>121</gpxtpx:hr></gpxtpx:TrackPointExtension></extensions></trkpt>
<trkpt lat="22.3911504" lon="114.2041254">
<ele>1</ele><time>2020-12-28T05:56:58.999Z</time><extensions><gpxtpx:TrackPointExtension><gpxtpx:hr>121</gpxtpx:hr></gpxtpx:TrackPointExtension></extensions></trkpt>
<trkpt lat="22.3912000" lon="114.2041254">
<ele>1</ele><time>2020-12-28T05:57:00.999Z</time><extensions><gpxtpx:TrackPointExtension><gpxtpx:hr>121</gpxtpx:hr></gpxtpx:TrackPointExtension></extensions></trkpt>
<trkpt lat="22.3912595" lon="114.2041254">
<ele>1</ele><time>2020-12-28T05:57:03.999Z</time><extensions><gpxtpx:TrackPointExtension><gpxtpx:hr>123</gpxtpx:hr></gpxtpx:TrackPointExtension></extensions></trkpt>
<trkpt lat="22.3913190" lon="114.2041469">
<ele>1</ele><time>2020-12-28T05:57:06.999Z</time><extensions><gpxtpx:TrackPointExtension><gpxtpx:hr>123</gpxtpx:hr></gpxtpx:TrackPointExtension></extensions></trkpt>
<trkpt lat="22.3913686" lon="114.2041683">
<ele>1</ele><time>2020-12-28T05:57:08.999Z</time><extensions><gpxtpx:TrackPointExtension><gpxtpx:hr>123</gpxtpx:hr></gpxtpx:TrackPointExtension></extensions></trkpt>
<trkpt lat="22.3914182" lon="114.2041898">
<ele>1</ele><time>2020-12-28T05:57:11.999Z</time><extensions><gpxtpx:TrackPointExtension><gpxtpx:hr>121</gpxtpx:hr></gpxtpx:TrackPointExtension></extensions></trkpt>
<trkpt lat="22.3914877" lon="114.2042112">
<ele>1</ele><time>2020-12-28T05:57:14.999Z</time><extensions><gpxtpx:TrackPointExtension><gpxtpx:hr>121</gpxtpx:hr></gpxtpx:TrackPointExtension></extensions></trkpt>
<trkpt lat="22.3915174" lon="114.2042542">
<ele>1</ele><time>2020-12-28T05:57:16.999Z</time><extensions><gpxtpx:TrackPointExtension><gpxtpx:hr>120</gpxtpx:hr></gpxtpx:TrackPointExtension></extensions></trkpt>
<trkpt lat="22.3915770" lon="114.2042756">
<ele>1</ele><time>2020-12-28T05:57:19.999Z</time><extensions><gpxtpx:TrackPointExtension><gpxtpx:hr>120</gpxtpx:hr></gpxtpx:TrackPointExtension></extensions></trkpt>
<trkpt lat="22.3916067" lon="114.2043185">
<ele>1</ele><time>2020-12-28T05:57:21.999Z</time><extensions><gpxtpx:TrackPointExtension><gpxtpx:hr>119</gpxtpx:hr></gpxtpx:TrackPointExtension></extensions></trkpt>
<trkpt lat="22.3916464" lon="114.2043400">
<ele>1</ele><time>2020-12-28T05:57:23.999Z</time><extensions><gpxtpx:TrackPointExtension><gpxtpx:hr>119</gpxtpx:hr></gpxtpx:TrackPointExtension></extensions></trkpt>
<trkpt lat="22.3916762" lon="114.2043829">
<ele>1</ele><time>2020-12-28T05:57:25.999Z</time><extensions><gpxtpx:TrackPointExtension><gpxtpx:hr>119</gpxtpx:hr></gpxtpx:TrackPointExtension></extensions></trkpt>
<trkpt lat="22.3917158" lon="114.2044044">
<ele>1</ele><time>2020-12-28T05:57:27.999Z</time><extensions><gpxtpx:TrackPointExtension><gpxtpx:hr>115</gpxtpx:hr></gpxtpx:TrackPointExtension></extensions></trkpt>
<trkpt lat="22.3917456" lon="114.2044473">
<ele>1</ele><time>2020-12-28T05:57:29.999Z</time><extensions><gpxtpx:TrackPointExtension><gpxtpx:hr>115</gpxtpx:hr></gpxtpx:TrackPointExtension></extensions></trkpt>
<trkpt lat="22.3917853" lon="114.2044902">
<ele>1</ele><time>2020-12-28T05:57:31.999Z</time><extensions><gpxtpx:TrackPointExtension><gpxtpx:hr>115</gpxtpx:hr></gpxtpx:TrackPointExtension></extensions></trkpt>
<trkpt lat="22.3918150" lon="114.2045331">
<ele>1</ele><time>2020-12-28T05:57:33.999Z</time><extensions><gpxtpx:TrackPointExtension><gpxtpx:hr>115</gpxtpx:hr></gpxtpx:TrackPointExtension></extensions></trkpt>
<trkpt lat="22.3918547" lon="114.2045760">
<ele>1</ele><time>2020-12-28T05:57:35.999Z</time><extensions><gpxtpx:TrackPointExtension><gpxtpx:hr>115</gpxtpx:hr></gpxtpx:TrackPointExtension></extensions></trkpt>
<trkpt lat="22.3918944" lon="114.2046189">
<ele>1</ele><time>2020-12-28T05:57:37.999Z</time><extensions><gpxtpx:TrackPointExtension><gpxtpx:hr>114</gpxtpx:hr></gpxtpx:TrackPointExtension></extensions></trkpt>
<trkpt lat="22.3919440" lon="114.2046618">
<ele>1</ele><time>2020-12-28T05:57:40.999Z</time><extensions><gpxtpx:TrackPointExtension><gpxtpx:hr>114</gpxtpx:hr></gpxtpx:TrackPointExtension></extensions></trkpt>
<trkpt lat="22.3919737" lon="114.2047048">
<ele>1</ele><time>2020-12-28T05:57:42.999Z</time><extensions><gpxtpx:TrackPointExtension><gpxtpx:hr>113</gpxtpx:hr></gpxtpx:TrackPointExtension></extensions></trkpt>
<trkpt lat="22.3920233" lon="114.2047262">
<ele>1</ele><time>2020-12-28T05:57:44.999Z</time><extensions><gpxtpx:TrackPointExtension><gpxtpx:hr>113</gpxtpx:hr></gpxtpx:TrackPointExtension></extensions></trkpt>
<trkpt lat="22.3920630" lon="114.2047477">
<ele>1</ele><time>2020-12-28T05:57:46.999Z</time><extensions><gpxtpx:TrackPointExtension><gpxtpx:hr>114</gpxtpx:hr></gpxtpx:TrackPointExtension></extensions></trkpt>
<trkpt lat="22.3921027" lon="114.2048120">
<ele>1</ele><time>2020-12-28T05:57:48.999Z</time><extensions><gpxtpx:TrackPointExtension><gpxtpx:hr>114</gpxtpx:hr></gpxtpx:TrackPointExtension></extensions></trkpt>
<trkpt lat="22.3921424" lon="114.2048335">
<ele>1</ele><time>2020-12-28T05:57:50.999Z</time><extensions><gpxtpx:TrackPointExtension><gpxtpx:hr>114</gpxtpx:hr></gpxtpx:TrackPointExtension></extensions></trkpt>
<trkpt lat="22.3921721" lon="114.2048764">
<ele>1</ele><time>2020-12-28T05:57:52.999Z</time><extensions><gpxtpx:TrackPointExtension><gpxtpx:hr>114</gpxtpx:hr></gpxtpx:TrackPointExtension></extensions></trkpt>
<trkpt lat="22.3922118" lon="114.2049193">
<ele>1</ele><time>2020-12-28T05:57:54.999Z</time><extensions><gpxtpx:TrackPointExtension><gpxtpx:hr>114</gpxtpx:hr></gpxtpx:TrackPointExtension></extensions></trkpt>
<trkpt lat="22.3922515" lon="114.2049408">
<ele>1</ele><time>2020-12-28T05:57:56.999Z</time><extensions><gpxtpx:TrackPointExtension><gpxtpx:hr>114</gpxtpx:hr></gpxtpx:TrackPointExtension></extensions></trkpt>
<trkpt lat="22.3922912" lon="114.2049837">
<ele>1</ele><time>2020-12-28T05:57:58.999Z</time><extensions><gpxtpx:TrackPointExtension><gpxtpx:hr>114</gpxtpx:hr></gpxtpx:TrackPointExtension></extensions></trkpt>
<trkpt lat="22.3923408" lon="114.2050266">
<ele>1</ele><time>2020-12-28T05:58:00.999Z</time><extensions><gpxtpx:TrackPointExtension><gpxtpx:hr>114</gpxtpx:hr></gpxtpx:TrackPointExtension></extensions></trkpt>
<trkpt lat="22.3923904" lon="114.2050695">
<ele>2</ele><time>2020-12-28T05:58:03.999Z</time><extensions><gpxtpx:TrackPointExtension><gpxtpx:hr>114</gpxtpx:hr></gpxtpx:TrackPointExtension></extensions></trkpt>
<trkpt lat="22.3924499" lon="114.2051125">
<ele>2</ele><time>2020-12-28T05:58:07.000Z</time><extensions><gpxtpx:TrackPointExtension><gpxtpx:hr>115</gpxtpx:hr></gpxtpx:TrackPointExtension></extensions></trkpt>
<trkpt lat="22.3924896" lon="114.2051554">
<ele>2</ele><time>2020-12-28T05:58:09.000Z</time><extensions><gpxtpx:TrackPointExtension><gpxtpx:hr>115</gpxtpx:hr></gpxtpx:TrackPointExtension></extensions></trkpt>
<trkpt lat="22.3925392" lon="114.2051983">
<ele>2</ele><time>2020-12-28T05:58:12.000Z</time><extensions><gpxtpx:TrackPointExtension><gpxtpx:hr>112</gpxtpx:hr></gpxtpx:TrackPointExtension></extensions></trkpt>
<trkpt lat="22.3925888" lon="114.2052412">
<ele>2</ele><time>2020-12-28T05:58:15.000Z</time><extensions><gpxtpx:TrackPointExtension><gpxtpx:hr>112</gpxtpx:hr></gpxtpx:TrackPointExtension></extensions></trkpt>
<trkpt lat="22.3926285" lon="114.2052841">
<ele>2</ele><time>2020-12-28T05:58:19.000Z</time><extensions><gpxtpx:TrackPointExtension><gpxtpx:hr>113</gpxtpx:hr></gpxtpx:TrackPointExtension></extensions></trkpt>
<trkpt lat="22.3926781" lon="114.2053056">
<ele>2</ele><time>2020-12-28T05:58:22.000Z</time><extensions><gpxtpx:TrackPointExtension><gpxtpx:hr>113</gpxtpx:hr></gpxtpx:TrackPointExtension></extensions></trkpt>
<trkpt lat="22.3927177" lon="114.2053485">
<ele>2</ele><time>2020-12-28T05:58:24.000Z</time><extensions><gpxtpx:TrackPointExtension><gpxtpx:hr>113</gpxtpx:hr></gpxtpx:TrackPointExtension></extensions></trkpt>
<trkpt lat="22.3927475" lon="114.2053914">
<ele>2</ele><time>2020-12-28T05:58:26.000Z</time><extensions><gpxtpx:TrackPointExtension><gpxtpx:hr>113</gpxtpx:hr></gpxtpx:TrackPointExtension></extensions></trkpt>
<trkpt lat="22.3927971" lon="114.2054129">
<ele>2</ele><time>2020-12-28T05:58:29.000Z</time><extensions><gpxtpx:TrackPointExtension><gpxtpx:hr>114</gpxtpx:hr></gpxtpx:TrackPointExtension></extensions></trkpt>
<trkpt lat="22.3928368" lon="114.2054558">
<ele>2</ele><time>2020-12-28T05:58:31.000Z</time><extensions><gpxtpx:TrackPointExtension><gpxtpx:hr>114</gpxtpx:hr></gpxtpx:TrackPointExtension></extensions></trkpt>
<trkpt lat="22.3928765" lon="114.2054987">
<ele>2</ele><time>2020-12-28T05:58:33.000Z</time><extensions><gpxtpx:TrackPointExtension><gpxtpx:hr>114</gpxtpx:hr></gpxtpx:TrackPointExtension></extensions></trkpt>
<trkpt lat="22.3929161" lon="114.2055202">
<ele>2</ele><time>2020-12-28T05:58:35.000Z</time><extensions><gpxtpx:TrackPointExtension><gpxtpx:hr>114</gpxtpx:hr></gpxtpx:TrackPointExtension></extensions></trkpt>
<trkpt lat="22.3929657" lon="114.2055845">
<ele>2</ele><time>2020-12-28T05:58:38.000Z</time><extensions><gpxtpx:TrackPointExtension><gpxtpx:hr>113</gpxtpx:hr></gpxtpx:TrackPointExtension></extensions></trkpt>
<trkpt lat="22.3930153" lon="114.2056274">
<ele>2</ele><time>2020-12-28T05:58:40.999Z</time><extensions><gpxtpx:TrackPointExtension><gpxtpx:hr>113</gpxtpx:hr></gpxtpx:TrackPointExtension></extensions></trkpt>
<trkpt lat="22.3930649" lon="114.2056489">
<ele>2</ele><time>2020-12-28T05:58:43.999Z</time><extensions><gpxtpx:TrackPointExtension><gpxtpx:hr>114</gpxtpx:hr></gpxtpx:TrackPointExtension></extensions></trkpt>
<trkpt lat="22.3930947" lon="114.2056918">
<ele>2</ele><time>2020-12-28T05:58:45.999Z</time><extensions><gpxtpx:TrackPointExtension><gpxtpx:hr>114</gpxtpx:hr></gpxtpx:TrackPointExtension></extensions></trkpt>
<trkpt lat="22.3931443" lon="114.2057347">
<ele>2</ele><time>2020-12-28T05:58:48.999Z</time><extensions><gpxtpx:TrackPointExtension><gpxtpx:hr>116</gpxtpx:hr></gpxtpx:TrackPointExtension></extensions></trkpt>
<trkpt lat="22.3931840" lon="114.2057776">
<ele>2</ele><time>2020-12-28T05:58:51.999Z</time><extensions><gpxtpx:TrackPointExtension><gpxtpx:hr>117</gpxtpx:hr></gpxtpx:TrackPointExtension></extensions></trkpt>
<trkpt lat="22.3932137" lon="114.2058206">
<ele>2</ele><time>2020-12-28T05:58:53.999Z</time><extensions><gpxtpx:TrackPointExtension><gpxtpx:hr>117</gpxtpx:hr></gpxtpx:TrackPointExtension></extensions></trkpt>
<trkpt lat="22.3932534" lon="114.2058635">
<ele>2</ele><time>2020-12-28T05:58:58.999Z</time><extensions><gpxtpx:TrackPointExtension><gpxtpx:hr>116</gpxtpx:hr></gpxtpx:TrackPointExtension></extensions></trkpt>
<trkpt lat="22.3933030" lon="114.2059064">
<ele>2</ele><time>2020-12-28T05:59:01.999Z</time><extensions><gpxtpx:TrackPointExtension><gpxtpx:hr>117</gpxtpx:hr></gpxtpx:TrackPointExtension></extensions></trkpt>
<trkpt lat="22.3933526" lon="114.2059493">
<ele>2</ele><time>2020-12-28T05:59:04.999Z</time><extensions><gpxtpx:TrackPointExtension><gpxtpx:hr>117</gpxtpx:hr></gpxtpx:TrackPointExtension></extensions></trkpt>
<trkpt lat="22.3933824" lon="114.2059922">
<ele>2</ele><time>2020-12-28T05:59:06.999Z</time><extensions><gpxtpx:TrackPointExtension><gpxtpx:hr>118</gpxtpx:hr></gpxtpx:TrackPointExtension></extensions></trkpt>
<trkpt lat="22.3934220" lon="114.2060351">
<ele>2</ele><time>2020-12-28T05:59:08.999Z</time><extensions><gpxtpx:TrackPointExtension><gpxtpx:hr>118</gpxtpx:hr></gpxtpx:TrackPointExtension></extensions></trkpt>
<trkpt lat="22.3934617" lon="114.2060781">
<ele>2</ele><time>2020-12-28T05:59:11.999Z</time><extensions><gpxtpx:TrackPointExtension><gpxtpx:hr>114</gpxtpx:hr></gpxtpx:TrackPointExtension></extensions></trkpt>
<trkpt lat="22.3935014" lon="114.2061210">
<ele>2</ele><time>2020-12-28T05:59:15.999Z</time><extensions><gpxtpx:TrackPointExtension><gpxtpx:hr>114</gpxtpx:hr></gpxtpx:TrackPointExtension></extensions></trkpt>
<trkpt lat="22.3935510" lon="114.2061424">
<ele>2</ele><time>2020-12-28T05:59:18.999Z</time><extensions><gpxtpx:TrackPointExtension><gpxtpx:hr>114</gpxtpx:hr></gpxtpx:TrackPointExtension></extensions></trkpt>
<trkpt lat="22.3935808" lon="114.2061853">
<ele>2</ele><time>2020-12-28T05:59:20.999Z</time><extensions><gpxtpx:TrackPointExtension><gpxtpx:hr>114</gpxtpx:hr></gpxtpx:TrackPointExtension></extensions></trkpt>
<trkpt lat="22.3936403" lon="114.2062283">
<ele>2</ele><time>2020-12-28T05:59:23.999Z</time><extensions><gpxtpx:TrackPointExtension><gpxtpx:hr>114</gpxtpx:hr></gpxtpx:TrackPointExtension></extensions></trkpt>
<trkpt lat="22.3936800" lon="114.2062712">
<ele>2</ele><time>2020-12-28T05:59:25.999Z</time><extensions><gpxtpx:TrackPointExtension><gpxtpx:hr>117</gpxtpx:hr></gpxtpx:TrackPointExtension></extensions></trkpt>
<trkpt lat="22.3937296" lon="114.2063141">
<ele>2</ele><time>2020-12-28T05:59:28.999Z</time><extensions><gpxtpx:TrackPointExtension><gpxtpx:hr>117</gpxtpx:hr></gpxtpx:TrackPointExtension></extensions></trkpt>
<trkpt lat="22.3937593" lon="114.2063570">
<ele>2</ele><time>2020-12-28T05:59:30.999Z</time><extensions><gpxtpx:TrackPointExtension><gpxtpx:hr>115</gpxtpx:hr></gpxtpx:TrackPointExtension></extensions></trkpt>
<trkpt lat="22.3938188" lon="114.2063999">
<ele>2</ele><time>2020-12-28T05:59:33.999Z</time><extensions><gpxtpx:TrackPointExtension><gpxtpx:hr>115</gpxtpx:hr></gpxtpx:TrackPointExtension></extensions></trkpt>
<trkpt lat="22.3938585" lon="114.2064428">
<ele>2</ele><time>2020-12-28T05:59:35.999Z</time><extensions><gpxtpx:TrackPointExtension><gpxtpx:hr>115</gpxtpx:hr></gpxtpx:TrackPointExtension></extensions></trkpt>
<trkpt lat="22.3938982" lon="114.2065072">
<ele>2</ele><time>2020-12-28T05:59:38.999Z</time><extensions><gpxtpx:TrackPointExtension><gpxtpx:hr>115</gpxtpx:hr></gpxtpx:TrackPointExtension></extensions></trkpt>
<trkpt lat="22.3939478" lon="114.2065501">
<ele>2</ele><time>2020-12-28T05:59:41.999Z</time><extensions><gpxtpx:TrackPointExtension><gpxtpx:hr>115</gpxtpx:hr></gpxtpx:TrackPointExtension></extensions></trkpt>
<trkpt lat="22.3939875" lon="114.2065930">
<ele>2</ele><time>2020-12-28T05:59:44.999Z</time><extensions><gpxtpx:TrackPointExtension><gpxtpx:hr>115</gpxtpx:hr></gpxtpx:TrackPointExtension></extensions></trkpt>
<trkpt lat="22.3940371" lon="114.2066360">
<ele>2</ele><time>2020-12-28T05:59:48.999Z</time><extensions><gpxtpx:TrackPointExtension><gpxtpx:hr>114</gpxtpx:hr></gpxtpx:TrackPointExtension></extensions></trkpt>
<trkpt lat="22.3940767" lon="114.2066789">
<ele>2</ele><time>2020-12-28T05:59:51.999Z</time><extensions><gpxtpx:TrackPointExtension><gpxtpx:hr>116</gpxtpx:hr></gpxtpx:TrackPointExtension></extensions></trkpt>
<trkpt lat="22.3941164" lon="114.2067003">
<ele>2</ele><time>2020-12-28T05:59:53.999Z</time><extensions><gpxtpx:TrackPointExtension><gpxtpx:hr>116</gpxtpx:hr></gpxtpx:TrackPointExtension></extensions></trkpt>
<trkpt lat="22.3941462" lon="114.2067432">
<ele>2</ele><time>2020-12-28T05:59:55.999Z</time><extensions><gpxtpx:TrackPointExtension><gpxtpx:hr>116</gpxtpx:hr></gpxtpx:TrackPointExtension></extensions></trkpt>
<trkpt lat="22.3941859" lon="114.2067862">
<ele>2</ele><time>2020-12-28T05:59:57.999Z</time><extensions><gpxtpx:TrackPointExtension><gpxtpx:hr>113</gpxtpx:hr></gpxtpx:TrackPointExtension></extensions></trkpt>
<trkpt lat="22.3942355" lon="114.2068291">
<ele>2</ele><time>2020-12-28T06:00:00.999Z</time><extensions><gpxtpx:TrackPointExtension><gpxtpx:hr>114</gpxtpx:hr></gpxtpx:TrackPointExtension></extensions></trkpt>
<trkpt lat="22.3942751" lon="114.2068720">
<ele>2</ele><time>2020-12-28T06:00:03.999Z</time><extensions><gpxtpx:TrackPointExtension><gpxtpx:hr>114</gpxtpx:hr></gpxtpx:TrackPointExtension></extensions></trkpt>
<trkpt lat="22.3943148" lon="114.2069149">
<ele>2</ele><time>2020-12-28T06:00:06.999Z</time><extensions><gpxtpx:TrackPointExtension><gpxtpx:hr>114</gpxtpx:hr></gpxtpx:TrackPointExtension></extensions></trkpt>
<trkpt lat="22.3943644" lon="114.2069578">
<ele>2</ele><time>2020-12-28T06:00:09.999Z</time><extensions><gpxtpx:TrackPointExtension><gpxtpx:hr>114</gpxtpx:hr></gpxtpx:TrackPointExtension></extensions></trkpt>
<trkpt lat="22.3944140" lon="114.2069793">
<ele>2</ele><time>2020-12-28T06:00:12.000Z</time><extensions><gpxtpx:TrackPointExtension><gpxtpx:hr>113</gpxtpx:hr></gpxtpx:TrackPointExtension></extensions></trkpt>
<trkpt lat="22.3944636" lon="114.2070222">
<ele>2</ele><time>2020-12-28T06:00:15.000Z</time><extensions><gpxtpx:TrackPointExtension><gpxtpx:hr>113</gpxtpx:hr></gpxtpx:TrackPointExtension></extensions></trkpt>
<trkpt lat="22.3945033" lon="114.2070651">
<ele>2</ele><time>2020-12-28T06:00:18.000Z</time><extensions><gpxtpx:TrackPointExtension><gpxtpx:hr>108</gpxtpx:hr></gpxtpx:TrackPointExtension></extensions></trkpt>
<trkpt lat="22.3945231" lon="114.2071080">
<ele>2</ele><time>2020-12-28T06:00:21.000Z</time><extensions><gpxtpx:TrackPointExtension><gpxtpx:hr>108</gpxtpx:hr></gpxtpx:TrackPointExtension></extensions></trkpt>
<trkpt lat="22.3945628" lon="114.2071509">
<ele>2</ele><time>2020-12-28T06:00:24.000Z</time><extensions><gpxtpx:TrackPointExtension><gpxtpx:hr>109</gpxtpx:hr></gpxtpx:TrackPointExtension></extensions></trkpt>
<trkpt lat="22.3946025" lon="114.2071939">
<ele>2</ele><time>2020-12-28T06:00:27.000Z</time><extensions><gpxtpx:TrackPointExtension><gpxtpx:hr>112</gpxtpx:hr></gpxtpx:TrackPointExtension></extensions></trkpt>
<trkpt lat="22.3946422" lon="114.2072153">
<ele>2</ele><time>2020-12-28T06:00:29.000Z</time><extensions><gpxtpx:TrackPointExtension><gpxtpx:hr>112</gpxtpx:hr></gpxtpx:TrackPointExtension></extensions></trkpt>
<trkpt lat="22.3946719" lon="114.2072582">
<ele>2</ele><time>2020-12-28T06:00:31.000Z</time><extensions><gpxtpx:TrackPointExtension><gpxtpx:hr>112</gpxtpx:hr></gpxtpx:TrackPointExtension></extensions></trkpt>
<trkpt lat="22.3947215" lon="114.2073011">
<ele>2</ele><time>2020-12-28T06:00:33.000Z</time><extensions><gpxtpx:TrackPointExtension><gpxtpx:hr>115</gpxtpx:hr></gpxtpx:TrackPointExtension></extensions></trkpt>
<trkpt lat="22.3947711" lon="114.2073441">
<ele>2</ele><time>2020-12-28T06:00:35.000Z</time><extensions><gpxtpx:TrackPointExtension><gpxtpx:hr>115</gpxtpx:hr></gpxtpx:TrackPointExtension></extensions></trkpt>
<trkpt lat="22.3948108" lon="114.2073870">
<ele>2</ele><time>2020-12-28T06:00:37.000Z</time><extensions><gpxtpx:TrackPointExtension><gpxtpx:hr>115</gpxtpx:hr></gpxtpx:TrackPointExtension></extensions></trkpt>
<trkpt lat="22.3948604" lon="114.2074299">
<ele>2</ele><time>2020-12-28T06:00:39.000Z</time><extensions><gpxtpx:TrackPointExtension><gpxtpx:hr>115</gpxtpx:hr></gpxtpx:TrackPointExtension></extensions></trkpt>
<trkpt lat="22.3949100" lon="114.2074728">
<ele>2</ele><time>2020-12-28T06:00:42.000Z</time><extensions><gpxtpx:TrackPointExtension><gpxtpx:hr>118</gpxtpx:hr></gpxtpx:TrackPointExtension></extensions></trkpt>
<trkpt lat="22.3949596" lon="114.2075157">
<ele>2</ele><time>2020-12-28T06:00:45.000Z</time><extensions><gpxtpx:TrackPointExtension><gpxtpx:hr>118</gpxtpx:hr></gpxtpx:TrackPointExtension></extensions></trkpt>
<trkpt lat="22.3949993" lon="114.2075586">
<ele>2</ele><time>2020-12-28T06:00:47.999Z</time><extensions><gpxtpx:TrackPointExtension><gpxtpx:hr>121</gpxtpx:hr></gpxtpx:TrackPointExtension></extensions></trkpt>
<trkpt lat="22.3950390" lon="114.2076015">
<ele>2</ele><time>2020-12-28T06:00:50.999Z</time><extensions><gpxtpx:TrackPointExtension><gpxtpx:hr>122</gpxtpx:hr></gpxtpx:TrackPointExtension></extensions></trkpt>
<trkpt lat="22.3950886" lon="114.2076445">
<ele>2</ele><time>2020-12-28T06:00:52.999Z</time><extensions><gpxtpx:TrackPointExtension><gpxtpx:hr>122</gpxtpx:hr></gpxtpx:TrackPointExtension></extensions></trkpt>
<trkpt lat="22.3951282" lon="114.2076874">
<ele>2</ele><time>2020-12-28T06:00:54.999Z</time><extensions><gpxtpx:TrackPointExtension><gpxtpx:hr>122</gpxtpx:hr></gpxtpx:TrackPointExtension></extensions></trkpt>
<trkpt lat="22.3951481" lon="114.2077303">
<ele>2</ele><time>2020-12-28T06:00:55.999Z</time><extensions><gpxtpx:TrackPointExtension><gpxtpx:hr>122</gpxtpx:hr></gpxtpx:TrackPointExtension></extensions></trkpt>
<trkpt lat="22.3951977" lon="114.2077732">
<ele>2</ele><time>2020-12-28T06:00:57.999Z</time><extensions><gpxtpx:TrackPointExtension><gpxtpx:hr>122</gpxtpx:hr></gpxtpx:TrackPointExtension></extensions></trkpt>
<trkpt lat="22.3952473" lon="114.2077947">
<ele>2</ele><time>2020-12-28T06:00:59.999Z</time><extensions><gpxtpx:TrackPointExtension><gpxtpx:hr>122</gpxtpx:hr></gpxtpx:TrackPointExtension></extensions></trkpt>
<trkpt lat="22.3952869" lon="114.2078376">
<ele>2</ele><time>2020-12-28T06:01:01.999Z</time><extensions><gpxtpx:TrackPointExtension><gpxtpx:hr>120</gpxtpx:hr></gpxtpx:TrackPointExtension></extensions></trkpt>
<trkpt lat="22.3953266" lon="114.2079020">
<ele>2</ele><time>2020-12-28T06:01:03.999Z</time><extensions><gpxtpx:TrackPointExtension><gpxtpx:hr>120</gpxtpx:hr></gpxtpx:TrackPointExtension></extensions></trkpt>
<trkpt lat="22.3953663" lon="114.2079449">
<ele>2</ele><time>2020-12-28T06:01:05.999Z</time><extensions><gpxtpx:TrackPointExtension><gpxtpx:hr>120</gpxtpx:hr></gpxtpx:TrackPointExtension></extensions></trkpt>
<trkpt lat="22.3954159" lon="114.2079878">
<ele>2</ele><time>2020-12-28T06:01:07.999Z</time><extensions><gpxtpx:TrackPointExtension><gpxtpx:hr>120</gpxtpx:hr></gpxtpx:TrackPointExtension></extensions></trkpt>
<trkpt lat="22.3954556" lon="114.2080307">
<ele>2</ele><time>2020-12-28T06:01:09.999Z</time><extensions><gpxtpx:TrackPointExtension><gpxtpx:hr>120</gpxtpx:hr></gpxtpx:TrackPointExtension></extensions></trkpt>
<trkpt lat="22.3955151" lon="114.2080736">
<ele>2</ele><time>2020-12-28T06:01:12.999Z</time><extensions><gpxtpx:TrackPointExtension><gpxtpx:hr>123</gpxtpx:hr></gpxtpx:TrackPointExtension></extensions></trkpt>
<trkpt lat="22.3955449" lon="114.2081165">
<ele>2</ele><time>2020-12-28T06:01:14.999Z</time><extensions><gpxtpx:TrackPointExtension><gpxtpx:hr>123</gpxtpx:hr></gpxtpx:TrackPointExtension></extensions></trkpt>
<trkpt lat="22.3955945" lon="114.2081594">
<ele>2</ele><time>2020-12-28T06:01:16.999Z</time><extensions><gpxtpx:TrackPointExtension><gpxtpx:hr>119</gpxtpx:hr></gpxtpx:TrackPointExtension></extensions></trkpt>
<trkpt lat="22.3956341" lon="114.2082024">
<ele>2</ele><time>2020-12-28T06:01:18.999Z</time><extensions><gpxtpx:TrackPointExtension><gpxtpx:hr>119</gpxtpx:hr></gpxtpx:TrackPointExtension></extensions></trkpt>
<trkpt lat="22.3956738" lon="114.2082453">
<ele>2</ele><time>2020-12-28T06:01:20.999Z</time><extensions><gpxtpx:TrackPointExtension><gpxtpx:hr>119</gpxtpx:hr></gpxtpx:TrackPointExtension></extensions></trkpt>
<trkpt lat="22.3957135" lon="114.2082882">
<ele>2</ele><time>2020-12-28T06:01:23.999Z</time><extensions><gpxtpx:TrackPointExtension><gpxtpx:hr>119</gpxtpx:hr></gpxtpx:TrackPointExtension></extensions></trkpt>
<trkpt lat="22.3957631" lon="114.2083311">
<ele>2</ele><time>2020-12-28T06:01:26.999Z</time><extensions><gpxtpx:TrackPointExtension><gpxtpx:hr>120</gpxtpx:hr></gpxtpx:TrackPointExtension></extensions></trkpt>
<trkpt lat="22.3958028" lon="114.2083526">
<ele>2</ele><time>2020-12-28T06:01:28.999Z</time><extensions><gpxtpx:TrackPointExtension><gpxtpx:hr>120</gpxtpx:hr></gpxtpx:TrackPointExtension></extensions></trkpt>
<trkpt lat="22.3958424" lon="114.2083955">
<ele>2</ele><time>2020-12-28T06:01:30.999Z</time><extensions><gpxtpx:TrackPointExtension><gpxtpx:hr>120</gpxtpx:hr></gpxtpx:TrackPointExtension></extensions></trkpt>
<trkpt lat="22.3958821" lon="114.2084384">
<ele>2</ele><time>2020-12-28T06:01:32.999Z</time><extensions><gpxtpx:TrackPointExtension><gpxtpx:hr>121</gpxtpx:hr></gpxtpx:TrackPointExtension></extensions></trkpt>
<trkpt lat="22.3959218" lon="114.2084813">
<ele>2</ele><time>2020-12-28T06:01:34.999Z</time><extensions><gpxtpx:TrackPointExtension><gpxtpx:hr>121</gpxtpx:hr></gpxtpx:TrackPointExtension></extensions></trkpt>
<trkpt lat="22.3959615" lon="114.2085242">
<ele>2</ele><time>2020-12-28T06:01:36.999Z</time><extensions><gpxtpx:TrackPointExtension><gpxtpx:hr>119</gpxtpx:hr></gpxtpx:TrackPointExtension></extensions></trkpt>
<trkpt lat="22.3960012" lon="114.2085671">
<ele>2</ele><time>2020-12-28T06:01:38.999Z</time><extensions><gpxtpx:TrackPointExtension><gpxtpx:hr>119</gpxtpx:hr></gpxtpx:TrackPointExtension></extensions></trkpt>
<trkpt lat="22.3960607" lon="114.2086315">
<ele>2</ele><time>2020-12-28T06:01:41.999Z</time><extensions><gpxtpx:TrackPointExtension><gpxtpx:hr>118</gpxtpx:hr></gpxtpx:TrackPointExtension></extensions></trkpt>
<trkpt lat="22.3961103" lon="114.2086744">
<ele>2</ele><time>2020-12-28T06:01:44.999Z</time><extensions><gpxtpx:TrackPointExtension><gpxtpx:hr>118</gpxtpx:hr></gpxtpx:TrackPointExtension></extensions></trkpt>
<trkpt lat="22.3961500" lon="114.2087173">
<ele>2</ele><time>2020-12-28T06:01:46.999Z</time><extensions><gpxtpx:TrackPointExtension><gpxtpx:hr>116</gpxtpx:hr></gpxtpx:TrackPointExtension></extensions></trkpt>
<trkpt lat="22.3961995" lon="114.2087603">
<ele>2</ele><time>2020-12-28T06:01:48.999Z</time><extensions><gpxtpx:TrackPointExtension><gpxtpx:hr>116</gpxtpx:hr></gpxtpx:TrackPointExtension></extensions></trkpt>
<trkpt lat="22.3962392" lon="114.2088032">
<ele>2</ele><time>2020-12-28T06:01:50.999Z</time><extensions><gpxtpx:TrackPointExtension><gpxtpx:hr>116</gpxtpx:hr></gpxtpx:TrackPointExtension></extensions></trkpt>
<trkpt lat="22.3962789" lon="114.2088461">
<ele>2</ele><time>2020-12-28T06:01:52.999Z</time><extensions><gpxtpx:TrackPointExtension><gpxtpx:hr>116</gpxtpx:hr></gpxtpx:TrackPointExtension></extensions></trkpt>
<trkpt lat="22.3963087" lon="114.2088890">
<ele>2</ele><time>2020-12-28T06:01:54.999Z</time><extensions><gpxtpx:TrackPointExtension><gpxtpx:hr>116</gpxtpx:hr></gpxtpx:TrackPointExtension></extensions></trkpt>
<trkpt lat="22.3963483" lon="114.2089319">
<ele>2</ele><time>2020-12-28T06:01:57.999Z</time><extensions><gpxtpx:TrackPointExtension><gpxtpx:hr>117</gpxtpx:hr></gpxtpx:TrackPointExtension></extensions></trkpt>
<trkpt lat="22.3963979" lon="114.2089534">
<ele>2</ele><time>2020-12-28T06:02:00.999Z</time><extensions><gpxtpx:TrackPointExtension><gpxtpx:hr>117</gpxtpx:hr></gpxtpx:TrackPointExtension></extensions></trkpt>
<trkpt lat="22.3964475" lon="114.2089963">
<ele>2</ele><time>2020-12-28T06:02:04.999Z</time><extensions><gpxtpx:TrackPointExtension><gpxtpx:hr>117</gpxtpx:hr></gpxtpx:TrackPointExtension></extensions></trkpt>
<trkpt lat="22.3964773" lon="114.2089534">
<ele>3</ele><time>2020-12-28T06:02:39.000Z</time><extensions><gpxtpx:TrackPointExtension><gpxtpx:hr>120</gpxtpx:hr></gpxtpx:TrackPointExtension></extensions></trkpt>
<trkpt lat="22.3964674" lon="114.2090178">
<ele>3</ele><time>2020-12-28T06:03:08.999Z</time><extensions><gpxtpx:TrackPointExtension><gpxtpx:hr>124</gpxtpx:hr></gpxtpx:TrackPointExtension></extensions></trkpt>
<trkpt lat="22.3964773" lon="114.2089534">
<ele>3</ele><time>2020-12-28T06:03:19.999Z</time><extensions><gpxtpx:TrackPointExtension><gpxtpx:hr>121</gpxtpx:hr></gpxtpx:TrackPointExtension></extensions></trkpt>
<trkpt lat="22.3964376" lon="114.2089748">
<ele>3</ele><time>2020-12-28T06:03:36.999Z</time><extensions><gpxtpx:TrackPointExtension><gpxtpx:hr>116</gpxtpx:hr></gpxtpx:TrackPointExtension></extensions></trkpt>
<trkpt lat="22.3964079" lon="114.2089319">
<ele>3</ele><time>2020-12-28T06:03:37.999Z</time><extensions><gpxtpx:TrackPointExtension><gpxtpx:hr>116</gpxtpx:hr></gpxtpx:TrackPointExtension></extensions></trkpt>
<trkpt lat="22.3964475" lon="114.2089534">
<ele>3</ele><time>2020-12-28T06:03:50.999Z</time><extensions><gpxtpx:TrackPointExtension><gpxtpx:hr>117</gpxtpx:hr></gpxtpx:TrackPointExtension></extensions></trkpt>
<trkpt lat="22.3964674" lon="114.2089963">
<ele>3</ele><time>2020-12-28T06:03:58.999Z</time><extensions><gpxtpx:TrackPointExtension><gpxtpx:hr>119</gpxtpx:hr></gpxtpx:TrackPointExtension></extensions></trkpt>
<trkpt lat="22.3964971" lon="114.2090607">
<ele>3</ele><time>2020-12-28T06:04:01.999Z</time><extensions><gpxtpx:TrackPointExtension><gpxtpx:hr>116</gpxtpx:hr></gpxtpx:TrackPointExtension></extensions></trkpt>
<trkpt lat="22.3965368" lon="114.2091036">
<ele>3</ele><time>2020-12-28T06:04:03.999Z</time><extensions><gpxtpx:TrackPointExtension><gpxtpx:hr>116</gpxtpx:hr></gpxtpx:TrackPointExtension></extensions></trkpt>
<trkpt lat="22.3965864" lon="114.2091465">
<ele>3</ele><time>2020-12-28T06:04:05.999Z</time><extensions><gpxtpx:TrackPointExtension><gpxtpx:hr>117</gpxtpx:hr></gpxtpx:TrackPointExtension></extensions></trkpt>
<trkpt lat="22.3966261" lon="114.2092109">
<ele>3</ele><time>2020-12-28T06:04:07.999Z</time><extensions><gpxtpx:TrackPointExtension><gpxtpx:hr>117</gpxtpx:hr></gpxtpx:TrackPointExtension></extensions></trkpt>
<trkpt lat="22.3966459" lon="114.2092752">
<ele>3</ele><time>2020-12-28T06:04:09.999Z</time><extensions><gpxtpx:TrackPointExtension><gpxtpx:hr>117</gpxtpx:hr></gpxtpx:TrackPointExtension></extensions></trkpt>
<trkpt lat="22.3966558" lon="114.2091894">
<ele>3</ele><time>2020-12-28T06:04:15.998Z</time><extensions><gpxtpx:TrackPointExtension><gpxtpx:hr>118</gpxtpx:hr></gpxtpx:TrackPointExtension></extensions></trkpt>
<trkpt lat="22.3966360" lon="114.2091250">
<ele>3</ele><time>2020-12-28T06:04:17.998Z</time><extensions><gpxtpx:TrackPointExtension><gpxtpx:hr>118</gpxtpx:hr></gpxtpx:TrackPointExtension></extensions></trkpt>
<trkpt lat="22.3966063" lon="114.2090821">
<ele>3</ele><time>2020-12-28T06:04:19.998Z</time><extensions><gpxtpx:TrackPointExtension><gpxtpx:hr>118</gpxtpx:hr></gpxtpx:TrackPointExtension></extensions></trkpt>
<trkpt lat="22.3965567" lon="114.2090392">
<ele>3</ele><time>2020-12-28T06:04:22.999Z</time><extensions><gpxtpx:TrackPointExtension><gpxtpx:hr>123</gpxtpx:hr></gpxtpx:TrackPointExtension></extensions></trkpt>
<trkpt lat="22.3965269" lon="114.2089963">
<ele>3</ele><time>2020-12-28T06:04:28.999Z</time><extensions><gpxtpx:TrackPointExtension><gpxtpx:hr>123</gpxtpx:hr></gpxtpx:TrackPointExtension></extensions></trkpt>
<trkpt lat="22.3965467" lon="114.2090607">
<ele>3</ele><time>2020-12-28T06:04:41.999Z</time><extensions><gpxtpx:TrackPointExtension><gpxtpx:hr>120</gpxtpx:hr></gpxtpx:TrackPointExtension></extensions></trkpt>
<trkpt lat="22.3965963" lon="114.2091250">
<ele>3</ele><time>2020-12-28T06:04:43.999Z</time><extensions><gpxtpx:TrackPointExtension><gpxtpx:hr>120</gpxtpx:hr></gpxtpx:TrackPointExtension></extensions></trkpt>
<trkpt lat="22.3966459" lon="114.2091680">
<ele>3</ele><time>2020-12-28T06:04:45.999Z</time><extensions><gpxtpx:TrackPointExtension><gpxtpx:hr>122</gpxtpx:hr></gpxtpx:TrackPointExtension></extensions></trkpt>
<trkpt lat="22.3966757" lon="114.2092323">
<ele>3</ele><time>2020-12-28T06:04:47.999Z</time><extensions><gpxtpx:TrackPointExtension><gpxtpx:hr>122</gpxtpx:hr></gpxtpx:TrackPointExtension></extensions></trkpt>
<trkpt lat="22.3966856" lon="114.2092967">
<ele>3</ele><time>2020-12-28T06:04:49.999Z</time><extensions><gpxtpx:TrackPointExtension><gpxtpx:hr>122</gpxtpx:hr></gpxtpx:TrackPointExtension></extensions></trkpt>
<trkpt lat="22.3966757" lon="114.2093825">
<ele>3</ele><time>2020-12-28T06:04:51.999Z</time><extensions><gpxtpx:TrackPointExtension><gpxtpx:hr>122</gpxtpx:hr></gpxtpx:TrackPointExtension></extensions></trkpt>
<trkpt lat="22.3966658" lon="114.2094469">
<ele>3</ele><time>2020-12-28T06:04:53.999Z</time><extensions><gpxtpx:TrackPointExtension><gpxtpx:hr>122</gpxtpx:hr></gpxtpx:TrackPointExtension></extensions></trkpt>
<trkpt lat="22.3966360" lon="114.2094898">
<ele>3</ele><time>2020-12-28T06:04:54.999Z</time><extensions><gpxtpx:TrackPointExtension><gpxtpx:hr>122</gpxtpx:hr></gpxtpx:TrackPointExtension></extensions></trkpt>
<trkpt lat="22.3966063" lon="114.2095542">
<ele>3</ele><time>2020-12-28T06:04:58.999Z</time><extensions><gpxtpx:TrackPointExtension><gpxtpx:hr>122</gpxtpx:hr></gpxtpx:TrackPointExtension></extensions></trkpt>
<trkpt lat="22.3966558" lon="114.2095542">
<ele>3</ele><time>2020-12-28T06:05:03.999Z</time><extensions><gpxtpx:TrackPointExtension><gpxtpx:hr>125</gpxtpx:hr></gpxtpx:TrackPointExtension></extensions></trkpt>
<trkpt lat="22.3966360" lon="114.2095113">
<ele>4</ele><time>2020-12-28T06:05:13.999Z</time><extensions><gpxtpx:TrackPointExtension><gpxtpx:hr>129</gpxtpx:hr></gpxtpx:TrackPointExtension></extensions></trkpt>
<trkpt lat="22.3966558" lon="114.2095542">
<ele>4</ele><time>2020-12-28T06:06:06.998Z</time><extensions><gpxtpx:TrackPointExtension><gpxtpx:hr>131</gpxtpx:hr></gpxtpx:TrackPointExtension></extensions></trkpt>
<trkpt lat="22.3965963" lon="114.2095542">
<ele>5</ele><time>2020-12-28T06:06:21.998Z</time><extensions><gpxtpx:TrackPointExtension><gpxtpx:hr>128</gpxtpx:hr></gpxtpx:TrackPointExtension></extensions></trkpt>
<trkpt lat="22.3966360" lon="114.2095327">
<ele>5</ele><time>2020-12-28T06:06:42.999Z</time><extensions><gpxtpx:TrackPointExtension><gpxtpx:hr>123</gpxtpx:hr></gpxtpx:TrackPointExtension></extensions></trkpt>
<trkpt lat="22.3966856" lon="114.2095113">
<ele>5</ele><time>2020-12-28T06:06:45.999Z</time><extensions><gpxtpx:TrackPointExtension><gpxtpx:hr>121</gpxtpx:hr></gpxtpx:TrackPointExtension></extensions></trkpt>
<trkpt lat="22.3966360" lon="114.2095327">
<ele>5</ele><time>2020-12-28T06:06:48.999Z</time><extensions><gpxtpx:TrackPointExtension><gpxtpx:hr>121</gpxtpx:hr></gpxtpx:TrackPointExtension></extensions></trkpt>
<trkpt lat="22.3965963" lon="114.2095113">
<ele>5</ele><time>2020-12-28T06:07:39.999Z</time><extensions><gpxtpx:TrackPointExtension><gpxtpx:hr>113</gpxtpx:hr></gpxtpx:TrackPointExtension></extensions></trkpt>
<trkpt lat="22.3966459" lon="114.2095113">
<ele>5</ele><time>2020-12-28T06:08:34.999Z</time><extensions><gpxtpx:TrackPointExtension><gpxtpx:hr>110</gpxtpx:hr></gpxtpx:TrackPointExtension></extensions></trkpt>
<trkpt lat="22.3966063" lon="114.2095327">
<ele>5</ele><time>2020-12-28T06:09:06.999Z</time><extensions><gpxtpx:TrackPointExtension><gpxtpx:hr>115</gpxtpx:hr></gpxtpx:TrackPointExtension></extensions></trkpt>
<trkpt lat="22.3966261" lon="114.2094898">
<ele>5</ele><time>2020-12-28T06:09:23.999Z</time><extensions><gpxtpx:TrackPointExtension><gpxtpx:hr>116</gpxtpx:hr></gpxtpx:TrackPointExtension></extensions></trkpt>
<trkpt lat="22.3966658" lon="114.2094684">
<ele>5</ele><time>2020-12-28T06:09:46.999Z</time><extensions><gpxtpx:TrackPointExtension><gpxtpx:hr>118</gpxtpx:hr></gpxtpx:TrackPointExtension></extensions></trkpt>
<trkpt lat="22.3966558" lon="114.2095327">
<ele>5</ele><time>2020-12-28T06:10:32.999Z</time><extensions><gpxtpx:TrackPointExtension><gpxtpx:hr>113</gpxtpx:hr></gpxtpx:TrackPointExtension></extensions></trkpt>
<trkpt lat="22.3966162" lon="114.2095757">
<ele>5</ele><time>2020-12-28T06:10:42.000Z</time><extensions><gpxtpx:TrackPointExtension><gpxtpx:hr>111</gpxtpx:hr></gpxtpx:TrackPointExtension></extensions></trkpt>
<trkpt lat="22.3965864" lon="114.2096615">
<ele>5</ele><time>2020-12-28T06:10:43.000Z</time><extensions><gpxtpx:TrackPointExtension><gpxtpx:hr>111</gpxtpx:hr></gpxtpx:TrackPointExtension></extensions></trkpt>
<trkpt lat="22.3966063" lon="114.2095542">
<ele>5</ele><time>2020-12-28T06:10:45.000Z</time><extensions><gpxtpx:TrackPointExtension><gpxtpx:hr>111</gpxtpx:hr></gpxtpx:TrackPointExtension></extensions></trkpt>
<trkpt lat="22.3966360" lon="114.2095113">
<ele>5</ele><time>2020-12-28T06:10:55.000Z</time><extensions><gpxtpx:TrackPointExtension><gpxtpx:hr>111</gpxtpx:hr></gpxtpx:TrackPointExtension></extensions></trkpt>
<trkpt lat="22.3966658" lon="114.2094684">
<ele>5</ele><time>2020-12-28T06:11:11.000Z</time><extensions><gpxtpx:TrackPointExtension><gpxtpx:hr>113</gpxtpx:hr></gpxtpx:TrackPointExtension></extensions></trkpt>
<trkpt lat="22.3966162" lon="114.2094898">
<ele>5</ele><time>2020-12-28T06:11:21.999Z</time><extensions><gpxtpx:TrackPointExtension><gpxtpx:hr>113</gpxtpx:hr></gpxtpx:TrackPointExtension></extensions></trkpt>
<trkpt lat="22.3966558" lon="114.2095113">
<ele>6</ele><time>2020-12-28T06:12:23.999Z</time><extensions><gpxtpx:TrackPointExtension><gpxtpx:hr>114</gpxtpx:hr></gpxtpx:TrackPointExtension></extensions></trkpt>
<trkpt lat="22.3966162" lon="114.2095327">
<ele>6</ele><time>2020-12-28T06:12:34.999Z</time><extensions><gpxtpx:TrackPointExtension><gpxtpx:hr>115</gpxtpx:hr></gpxtpx:TrackPointExtension></extensions></trkpt>
<trkpt lat="22.3965765" lon="114.2095542">
<ele>5</ele><time>2020-12-28T06:12:53.000Z</time><extensions><gpxtpx:TrackPointExtension><gpxtpx:hr>118</gpxtpx:hr></gpxtpx:TrackPointExtension></extensions></trkpt>
<trkpt lat="22.3965467" lon="114.2095971">
<ele>5</ele><time>2020-12-28T06:12:55.000Z</time><extensions><gpxtpx:TrackPointExtension><gpxtpx:hr>118</gpxtpx:hr></gpxtpx:TrackPointExtension></extensions></trkpt>
<trkpt lat="22.3965269" lon="114.2096400">
<ele>5</ele><time>2020-12-28T06:13:01.000Z</time><extensions><gpxtpx:TrackPointExtension><gpxtpx:hr>121</gpxtpx:hr></gpxtpx:TrackPointExtension></extensions></trkpt>
<trkpt lat="22.3964773" lon="114.2096400">
<ele>5</ele><time>2020-12-28T06:13:07.000Z</time><extensions><gpxtpx:TrackPointExtension><gpxtpx:hr>121</gpxtpx:hr></gpxtpx:TrackPointExtension></extensions></trkpt>
<trkpt lat="22.3964376" lon="114.2096829">
<ele>5</ele><time>2020-12-28T06:13:10.000Z</time><extensions><gpxtpx:TrackPointExtension><gpxtpx:hr>121</gpxtpx:hr></gpxtpx:TrackPointExtension></extensions></trkpt>
<trkpt lat="22.3963880" lon="114.2097044">
<ele>5</ele><time>2020-12-28T06:13:15.000Z</time><extensions><gpxtpx:TrackPointExtension><gpxtpx:hr>123</gpxtpx:hr></gpxtpx:TrackPointExtension></extensions></trkpt>
<trkpt lat="22.3963583" lon="114.2097473">
<ele>5</ele><time>2020-12-28T06:13:17.999Z</time><extensions><gpxtpx:TrackPointExtension><gpxtpx:hr>123</gpxtpx:hr></gpxtpx:TrackPointExtension></extensions></trkpt>
<trkpt lat="22.3963384" lon="114.2097902">
<ele>6</ele><time>2020-12-28T06:13:33.999Z</time><extensions><gpxtpx:TrackPointExtension><gpxtpx:hr>123</gpxtpx:hr></gpxtpx:TrackPointExtension></extensions></trkpt>
<trkpt lat="22.3963186" lon="114.2098546">
<ele>6</ele><time>2020-12-28T06:13:39.999Z</time><extensions><gpxtpx:TrackPointExtension><gpxtpx:hr>123</gpxtpx:hr></gpxtpx:TrackPointExtension></extensions></trkpt>
<trkpt lat="22.3963384" lon="114.2098975">
<ele>6</ele><time>2020-12-28T06:13:58.999Z</time><extensions><gpxtpx:TrackPointExtension><gpxtpx:hr>116</gpxtpx:hr></gpxtpx:TrackPointExtension></extensions></trkpt>
<trkpt lat="22.3963880" lon="114.2099190">
<ele>6</ele><time>2020-12-28T06:14:03.999Z</time><extensions><gpxtpx:TrackPointExtension><gpxtpx:hr>119</gpxtpx:hr></gpxtpx:TrackPointExtension></extensions></trkpt>
<trkpt lat="22.3964277" lon="114.2099404">
<ele>6</ele><time>2020-12-28T06:14:06.999Z</time><extensions><gpxtpx:TrackPointExtension><gpxtpx:hr>119</gpxtpx:hr></gpxtpx:TrackPointExtension></extensions></trkpt>
<trkpt lat="22.3964674" lon="114.2099619">
<ele>6</ele><time>2020-12-28T06:14:09.999Z</time><extensions><gpxtpx:TrackPointExtension><gpxtpx:hr>119</gpxtpx:hr></gpxtpx:TrackPointExtension></extensions></trkpt>
<trkpt lat="22.3965269" lon="114.2099833">
<ele>6</ele><time>2020-12-28T06:14:12.999Z</time><extensions><gpxtpx:TrackPointExtension><gpxtpx:hr>119</gpxtpx:hr></gpxtpx:TrackPointExtension></extensions></trkpt>
<trkpt lat="22.3965666" lon="114.2100048">
<ele>6</ele><time>2020-12-28T06:14:14.999Z</time><extensions><gpxtpx:TrackPointExtension><gpxtpx:hr>119</gpxtpx:hr></gpxtpx:TrackPointExtension></extensions></trkpt>
<trkpt lat="22.3966063" lon="114.2100263">
<ele>6</ele><time>2020-12-28T06:14:17.999Z</time><extensions><gpxtpx:TrackPointExtension><gpxtpx:hr>119</gpxtpx:hr></gpxtpx:TrackPointExtension></extensions></trkpt>
<trkpt lat="22.3966558" lon="114.2100477">
<ele>6</ele><time>2020-12-28T06:14:20.999Z</time><extensions><gpxtpx:TrackPointExtension><gpxtpx:hr>119</gpxtpx:hr></gpxtpx:TrackPointExtension></extensions></trkpt>
<trkpt lat="22.3966955" lon="114.2100692">
<ele>6</ele><time>2020-12-28T06:14:22.999Z</time><extensions><gpxtpx:TrackPointExtension><gpxtpx:hr>118</gpxtpx:hr></gpxtpx:TrackPointExtension></extensions></trkpt>
<trkpt lat="22.3967352" lon="114.2100906">
<ele>6</ele><time>2020-12-28T06:14:24.999Z</time><extensions><gpxtpx:TrackPointExtension><gpxtpx:hr>118</gpxtpx:hr></gpxtpx:TrackPointExtension></extensions></trkpt>
<trkpt lat="22.3967848" lon="114.2101121">
<ele>6</ele><time>2020-12-28T06:14:26.999Z</time><extensions><gpxtpx:TrackPointExtension><gpxtpx:hr>118</gpxtpx:hr></gpxtpx:TrackPointExtension></extensions></trkpt>
<trkpt lat="22.3968344" lon="114.2101336">
<ele>6</ele><time>2020-12-28T06:14:29.999Z</time><extensions><gpxtpx:TrackPointExtension><gpxtpx:hr>118</gpxtpx:hr></gpxtpx:TrackPointExtension></extensions></trkpt>
<trkpt lat="22.3968840" lon="114.2101550">
<ele>6</ele><time>2020-12-28T06:14:32.999Z</time><extensions><gpxtpx:TrackPointExtension><gpxtpx:hr>120</gpxtpx:hr></gpxtpx:TrackPointExtension></extensions></trkpt>
<trkpt lat="22.3969435" lon="114.2101979">
<ele>6</ele><time>2020-12-28T06:14:35.999Z</time><extensions><gpxtpx:TrackPointExtension><gpxtpx:hr>120</gpxtpx:hr></gpxtpx:TrackPointExtension></extensions></trkpt>
<trkpt lat="22.3969832" lon="114.2102194">
<ele>6</ele><time>2020-12-28T06:14:37.999Z</time><extensions><gpxtpx:TrackPointExtension><gpxtpx:hr>121</gpxtpx:hr></gpxtpx:TrackPointExtension></extensions></trkpt>
<trkpt lat="22.3970328" lon="114.2102408">
<ele>6</ele><time>2020-12-28T06:14:40.999Z</time><extensions><gpxtpx:TrackPointExtension><gpxtpx:hr>121</gpxtpx:hr></gpxtpx:TrackPointExtension></extensions></trkpt>
<trkpt lat="22.3971022" lon="114.2102838">
<ele>6</ele><time>2020-12-28T06:14:43.999Z</time><extensions><gpxtpx:TrackPointExtension><gpxtpx:hr>119</gpxtpx:hr></gpxtpx:TrackPointExtension></extensions></trkpt>
<trkpt lat="22.3971518" lon="114.2103052">
<ele>6</ele><time>2020-12-28T06:14:45.998Z</time><extensions><gpxtpx:TrackPointExtension><gpxtpx:hr>119</gpxtpx:hr></gpxtpx:TrackPointExtension></extensions></trkpt>
<trkpt lat="22.3972113" lon="114.2103481">
<ele>6</ele><time>2020-12-28T06:14:47.998Z</time><extensions><gpxtpx:TrackPointExtension><gpxtpx:hr>118</gpxtpx:hr></gpxtpx:TrackPointExtension></extensions></trkpt>
<trkpt lat="22.3972510" lon="114.2103696">
<ele>6</ele><time>2020-12-28T06:14:48.998Z</time><extensions><gpxtpx:TrackPointExtension><gpxtpx:hr>118</gpxtpx:hr></gpxtpx:TrackPointExtension></extensions></trkpt>
<trkpt lat="22.3973205" lon="114.2103910">
<ele>6</ele><time>2020-12-28T06:14:50.998Z</time><extensions><gpxtpx:TrackPointExtension><gpxtpx:hr>118</gpxtpx:hr></gpxtpx:TrackPointExtension></extensions></trkpt>
<trkpt lat="22.3973800" lon="114.2104125">
<ele>6</ele><time>2020-12-28T06:14:53.000Z</time><extensions><gpxtpx:TrackPointExtension><gpxtpx:hr>117</gpxtpx:hr></gpxtpx:TrackPointExtension></extensions></trkpt>
<trkpt lat="22.3974296" lon="114.2104554">
<ele>6</ele><time>2020-12-28T06:14:55.000Z</time><extensions><gpxtpx:TrackPointExtension><gpxtpx:hr>117</gpxtpx:hr></gpxtpx:TrackPointExtension></extensions></trkpt>
<trkpt lat="22.3974792" lon="114.2104769">
<ele>6</ele><time>2020-12-28T06:14:57.000Z</time><extensions><gpxtpx:TrackPointExtension><gpxtpx:hr>119</gpxtpx:hr></gpxtpx:TrackPointExtension></extensions></trkpt>
<trkpt lat="22.3975486" lon="114.2105198">
<ele>6</ele><time>2020-12-28T06:15:01.000Z</time><extensions><gpxtpx:TrackPointExtension><gpxtpx:hr>119</gpxtpx:hr></gpxtpx:TrackPointExtension></extensions></trkpt>
<trkpt lat="22.3975883" lon="114.2105412">
<ele>6</ele><time>2020-12-28T06:15:03.000Z</time><extensions><gpxtpx:TrackPointExtension><gpxtpx:hr>123</gpxtpx:hr></gpxtpx:TrackPointExtension></extensions></trkpt>
<trkpt lat="22.3976280" lon="114.2105627">
<ele>6</ele><time>2020-12-28T06:15:05.000Z</time><extensions><gpxtpx:TrackPointExtension><gpxtpx:hr>123</gpxtpx:hr></gpxtpx:TrackPointExtension></extensions></trkpt>
<trkpt lat="22.3976776" lon="114.2105842">
<ele>6</ele><time>2020-12-28T06:15:07.000Z</time><extensions><gpxtpx:TrackPointExtension><gpxtpx:hr>122</gpxtpx:hr></gpxtpx:TrackPointExtension></extensions></trkpt>
<trkpt lat="22.3977073" lon="114.2106271">
<ele>6</ele><time>2020-12-28T06:15:09.000Z</time><extensions><gpxtpx:TrackPointExtension><gpxtpx:hr>122</gpxtpx:hr></gpxtpx:TrackPointExtension></extensions></trkpt>
<trkpt lat="22.3977569" lon="114.2106485">
<ele>6</ele><time>2020-12-28T06:15:11.000Z</time><extensions><gpxtpx:TrackPointExtension><gpxtpx:hr>122</gpxtpx:hr></gpxtpx:TrackPointExtension></extensions></trkpt>
<trkpt lat="22.3978065" lon="114.2106700">
<ele>6</ele><time>2020-12-28T06:15:13.000Z</time><extensions><gpxtpx:TrackPointExtension><gpxtpx:hr>127</gpxtpx:hr></gpxtpx:TrackPointExtension></extensions></trkpt>
<trkpt lat="22.3978660" lon="114.2107129">
<ele>6</ele><time>2020-12-28T06:15:15.000Z</time><extensions><gpxtpx:TrackPointExtension><gpxtpx:hr>127</gpxtpx:hr></gpxtpx:TrackPointExtension></extensions></trkpt>
<trkpt lat="22.3979156" lon="114.2107129">
<ele>6</ele><time>2020-12-28T06:15:16.000Z</time><extensions><gpxtpx:TrackPointExtension><gpxtpx:hr>127</gpxtpx:hr></gpxtpx:TrackPointExtension></extensions></trkpt>
<trkpt lat="22.3979751" lon="114.2107558">
<ele>6</ele><time>2020-12-28T06:15:19.999Z</time><extensions><gpxtpx:TrackPointExtension><gpxtpx:hr>128</gpxtpx:hr></gpxtpx:TrackPointExtension></extensions></trkpt>
<trkpt lat="22.3980247" lon="114.2107773">
<ele>6</ele><time>2020-12-28T06:15:22.999Z</time><extensions><gpxtpx:TrackPointExtension><gpxtpx:hr>132</gpxtpx:hr></gpxtpx:TrackPointExtension></extensions></trkpt>
<trkpt lat="22.3980743" lon="114.2107987">
<ele>6</ele><time>2020-12-28T06:15:24.999Z</time><extensions><gpxtpx:TrackPointExtension><gpxtpx:hr>132</gpxtpx:hr></gpxtpx:TrackPointExtension></extensions></trkpt>
<trkpt lat="22.3981339" lon="114.2108417">
<ele>6</ele><time>2020-12-28T06:15:27.999Z</time><extensions><gpxtpx:TrackPointExtension><gpxtpx:hr>132</gpxtpx:hr></gpxtpx:TrackPointExtension></extensions></trkpt>
<trkpt lat="22.3981735" lon="114.2108631">
<ele>6</ele><time>2020-12-28T06:15:29.999Z</time><extensions><gpxtpx:TrackPointExtension><gpxtpx:hr>132</gpxtpx:hr></gpxtpx:TrackPointExtension></extensions></trkpt>
<trkpt lat="22.3982231" lon="114.2108846">
<ele>6</ele><time>2020-12-28T06:15:31.999Z</time><extensions><gpxtpx:TrackPointExtension><gpxtpx:hr>132</gpxtpx:hr></gpxtpx:TrackPointExtension></extensions></trkpt>
<trkpt lat="22.3982826" lon="114.2109060">
<ele>6</ele><time>2020-12-28T06:15:34.999Z</time><extensions><gpxtpx:TrackPointExtension><gpxtpx:hr>132</gpxtpx:hr></gpxtpx:TrackPointExtension></extensions></trkpt>
<trkpt lat="22.3983322" lon="114.2109489">
<ele>6</ele><time>2020-12-28T06:15:37.999Z</time><extensions><gpxtpx:TrackPointExtension><gpxtpx:hr>132</gpxtpx:hr></gpxtpx:TrackPointExtension></extensions></trkpt>
<trkpt lat="22.3983918" lon="114.2109919">
<ele>6</ele><time>2020-12-28T06:15:40.999Z</time><extensions><gpxtpx:TrackPointExtension><gpxtpx:hr>132</gpxtpx:hr></gpxtpx:TrackPointExtension></extensions></trkpt>
<trkpt lat="22.3984414" lon="114.2110133">
<ele>6</ele><time>2020-12-28T06:15:43.999Z</time><extensions><gpxtpx:TrackPointExtension><gpxtpx:hr>132</gpxtpx:hr></gpxtpx:TrackPointExtension></extensions></trkpt>
<trkpt lat="22.3985009" lon="114.2110348">
<ele>6</ele><time>2020-12-28T06:15:45.999Z</time><extensions><gpxtpx:TrackPointExtension><gpxtpx:hr>132</gpxtpx:hr></gpxtpx:TrackPointExtension></extensions></trkpt>
<trkpt lat="22.3985306" lon="114.2110777">
<ele>6</ele><time>2020-12-28T06:15:46.999Z</time><extensions><gpxtpx:TrackPointExtension><gpxtpx:hr>132</gpxtpx:hr></gpxtpx:TrackPointExtension></extensions></trkpt>
<trkpt lat="22.3985901" lon="114.2110991">
<ele>5</ele><time>2020-12-28T06:15:48.999Z</time><extensions><gpxtpx:TrackPointExtension><gpxtpx:hr>132</gpxtpx:hr></gpxtpx:TrackPointExtension></extensions></trkpt>
<trkpt lat="22.3986397" lon="114.2111206">
<ele>5</ele><time>2020-12-28T06:15:50.999Z</time><extensions><gpxtpx:TrackPointExtension><gpxtpx:hr>132</gpxtpx:hr></gpxtpx:TrackPointExtension></extensions></trkpt>
<trkpt lat="22.3986794" lon="114.2111421">
<ele>5</ele><time>2020-12-28T06:15:52.999Z</time><extensions><gpxtpx:TrackPointExtension><gpxtpx:hr>129</gpxtpx:hr></gpxtpx:TrackPointExtension></extensions></trkpt>
<trkpt lat="22.3987191" lon="114.2111635">
<ele>5</ele><time>2020-12-28T06:15:54.999Z</time><extensions><gpxtpx:TrackPointExtension><gpxtpx:hr>129</gpxtpx:hr></gpxtpx:TrackPointExtension></extensions></trkpt>
<trkpt lat="22.3987687" lon="114.2112064">
<ele>5</ele><time>2020-12-28T06:15:56.999Z</time><extensions><gpxtpx:TrackPointExtension><gpxtpx:hr>129</gpxtpx:hr></gpxtpx:TrackPointExtension></extensions></trkpt>
<trkpt lat="22.3988183" lon="114.2112494">
<ele>5</ele><time>2020-12-28T06:15:58.999Z</time><extensions><gpxtpx:TrackPointExtension><gpxtpx:hr>129</gpxtpx:hr></gpxtpx:TrackPointExtension></extensions></trkpt>
<trkpt lat="22.3988679" lon="114.2112708">
<ele>5</ele><time>2020-12-28T06:16:00.999Z</time><extensions><gpxtpx:TrackPointExtension><gpxtpx:hr>129</gpxtpx:hr></gpxtpx:TrackPointExtension></extensions></trkpt>
<trkpt lat="22.3989175" lon="114.2113137">
<ele>5</ele><time>2020-12-28T06:16:02.999Z</time><extensions><gpxtpx:TrackPointExtension><gpxtpx:hr>129</gpxtpx:hr></gpxtpx:TrackPointExtension></extensions></trkpt>
<trkpt lat="22.3989770" lon="114.2113566">
<ele>5</ele><time>2020-12-28T06:16:05.999Z</time><extensions><gpxtpx:TrackPointExtension><gpxtpx:hr>129</gpxtpx:hr></gpxtpx:TrackPointExtension></extensions></trkpt>
<trkpt lat="22.3990167" lon="114.2113781">
<ele>5</ele><time>2020-12-28T06:16:07.999Z</time><extensions><gpxtpx:TrackPointExtension><gpxtpx:hr>129</gpxtpx:hr></gpxtpx:TrackPointExtension></extensions></trkpt>
<trkpt lat="22.3990464" lon="114.2114210">
<ele>5</ele><time>2020-12-28T06:16:09.999Z</time><extensions><gpxtpx:TrackPointExtension><gpxtpx:hr>129</gpxtpx:hr></gpxtpx:TrackPointExtension></extensions></trkpt>
<trkpt lat="22.3990762" lon="114.2114639">
<ele>5</ele><time>2020-12-28T06:16:11.999Z</time><extensions><gpxtpx:TrackPointExtension><gpxtpx:hr>129</gpxtpx:hr></gpxtpx:TrackPointExtension></extensions></trkpt>
<trkpt lat="22.3991159" lon="114.2114854">
<ele>5</ele><time>2020-12-28T06:16:13.999Z</time><extensions><gpxtpx:TrackPointExtension><gpxtpx:hr>129</gpxtpx:hr></gpxtpx:TrackPointExtension></extensions></trkpt>
<trkpt lat="22.3991556" lon="114.2115283">
<ele>5</ele><time>2020-12-28T06:16:15.999Z</time><extensions><gpxtpx:TrackPointExtension><gpxtpx:hr>129</gpxtpx:hr></gpxtpx:TrackPointExtension></extensions></trkpt>
<trkpt lat="22.3991952" lon="114.2115712">
<ele>5</ele><time>2020-12-28T06:16:17.999Z</time><extensions><gpxtpx:TrackPointExtension><gpxtpx:hr>129</gpxtpx:hr></gpxtpx:TrackPointExtension></extensions></trkpt>
<trkpt lat="22.3992448" lon="114.2116141">
<ele>5</ele><time>2020-12-28T06:16:19.999Z</time><extensions><gpxtpx:TrackPointExtension><gpxtpx:hr>129</gpxtpx:hr></gpxtpx:TrackPointExtension></extensions></trkpt>
<trkpt lat="22.3992944" lon="114.2116570">
<ele>5</ele><time>2020-12-28T06:16:22.999Z</time><extensions><gpxtpx:TrackPointExtension><gpxtpx:hr>129</gpxtpx:hr></gpxtpx:TrackPointExtension></extensions></trkpt>
<trkpt lat="22.3993341" lon="114.2117000">
<ele>5</ele><time>2020-12-28T06:16:24.999Z</time><extensions><gpxtpx:TrackPointExtension><gpxtpx:hr>129</gpxtpx:hr></gpxtpx:TrackPointExtension></extensions></trkpt>
<trkpt lat="22.3993837" lon="114.2117429">
<ele>5</ele><time>2020-12-28T06:16:27.999Z</time><extensions><gpxtpx:TrackPointExtension><gpxtpx:hr>129</gpxtpx:hr></gpxtpx:TrackPointExtension></extensions></trkpt>
<trkpt lat="22.3994135" lon="114.2117858">
<ele>5</ele><time>2020-12-28T06:16:29.999Z</time><extensions><gpxtpx:TrackPointExtension><gpxtpx:hr>129</gpxtpx:hr></gpxtpx:TrackPointExtension></extensions></trkpt>
<trkpt lat="22.3994730" lon="114.2118287">
<ele>5</ele><time>2020-12-28T06:16:32.999Z</time><extensions><gpxtpx:TrackPointExtension><gpxtpx:hr>129</gpxtpx:hr></gpxtpx:TrackPointExtension></extensions></trkpt>
<trkpt lat="22.3995027" lon="114.2118716">
<ele>5</ele><time>2020-12-28T06:16:34.999Z</time><extensions><gpxtpx:TrackPointExtension><gpxtpx:hr>129</gpxtpx:hr></gpxtpx:TrackPointExtension></extensions></trkpt>
<trkpt lat="22.3995523" lon="114.2119145">
<ele>5</ele><time>2020-12-28T06:16:36.999Z</time><extensions><gpxtpx:TrackPointExtension><gpxtpx:hr>129</gpxtpx:hr></gpxtpx:TrackPointExtension></extensions></trkpt>
<trkpt lat="22.3995920" lon="114.2119360">
<ele>5</ele><time>2020-12-28T06:16:38.999Z</time><extensions><gpxtpx:TrackPointExtension><gpxtpx:hr>129</gpxtpx:hr></gpxtpx:TrackPointExtension></extensions></trkpt>
<trkpt lat="22.3996218" lon="114.2119789">
<ele>5</ele><time>2020-12-28T06:16:40.998Z</time><extensions><gpxtpx:TrackPointExtension><gpxtpx:hr>129</gpxtpx:hr></gpxtpx:TrackPointExtension></extensions></trkpt>
<trkpt lat="22.3996714" lon="114.2120218">
<ele>5</ele><time>2020-12-28T06:16:43.998Z</time><extensions><gpxtpx:TrackPointExtension><gpxtpx:hr>129</gpxtpx:hr></gpxtpx:TrackPointExtension></extensions></trkpt>
<trkpt lat="22.3997110" lon="114.2120647">
<ele>5</ele><time>2020-12-28T06:16:45.998Z</time><extensions><gpxtpx:TrackPointExtension><gpxtpx:hr>129</gpxtpx:hr></gpxtpx:TrackPointExtension></extensions></trkpt>
<trkpt lat="22.3997507" lon="114.2121077">
<ele>5</ele><time>2020-12-28T06:16:47.998Z</time><extensions><gpxtpx:TrackPointExtension><gpxtpx:hr>129</gpxtpx:hr></gpxtpx:TrackPointExtension></extensions></trkpt>
<trkpt lat="22.3997904" lon="114.2121506">
<ele>5</ele><time>2020-12-28T06:16:49.998Z</time><extensions><gpxtpx:TrackPointExtension><gpxtpx:hr>129</gpxtpx:hr></gpxtpx:TrackPointExtension></extensions></trkpt>
<trkpt lat="22.3998400" lon="114.2121935">
<ele>5</ele><time>2020-12-28T06:16:52.998Z</time><extensions><gpxtpx:TrackPointExtension><gpxtpx:hr>123</gpxtpx:hr></gpxtpx:TrackPointExtension></extensions></trkpt>
<trkpt lat="22.3998797" lon="114.2122364">
<ele>4</ele><time>2020-12-28T06:16:54.998Z</time><extensions><gpxtpx:TrackPointExtension><gpxtpx:hr>123</gpxtpx:hr></gpxtpx:TrackPointExtension></extensions></trkpt>
<trkpt lat="22.3999193" lon="114.2122793">
<ele>4</ele><time>2020-12-28T06:16:56.998Z</time><extensions><gpxtpx:TrackPointExtension><gpxtpx:hr>123</gpxtpx:hr></gpxtpx:TrackPointExtension></extensions></trkpt>
<trkpt lat="22.3999689" lon="114.2123222">
<ele>4</ele><time>2020-12-28T06:16:59.999Z</time><extensions><gpxtpx:TrackPointExtension><gpxtpx:hr>123</gpxtpx:hr></gpxtpx:TrackPointExtension></extensions></trkpt>
<trkpt lat="22.4000086" lon="114.2123652">
<ele>4</ele><time>2020-12-28T06:17:02.000Z</time><extensions><gpxtpx:TrackPointExtension><gpxtpx:hr>121</gpxtpx:hr></gpxtpx:TrackPointExtension></extensions></trkpt>
<trkpt lat="22.4000483" lon="114.2124081">
<ele>4</ele><time>2020-12-28T06:17:03.999Z</time><extensions><gpxtpx:TrackPointExtension><gpxtpx:hr>121</gpxtpx:hr></gpxtpx:TrackPointExtension></extensions></trkpt>
<trkpt lat="22.4000880" lon="114.2124510">
<ele>4</ele><time>2020-12-28T06:17:06.000Z</time><extensions><gpxtpx:TrackPointExtension><gpxtpx:hr>121</gpxtpx:hr></gpxtpx:TrackPointExtension></extensions></trkpt>
<trkpt lat="22.4001276" lon="114.2124724">
<ele>4</ele><time>2020-12-28T06:17:08.000Z</time><extensions><gpxtpx:TrackPointExtension><gpxtpx:hr>119</gpxtpx:hr></gpxtpx:TrackPointExtension></extensions></trkpt>
<trkpt lat="22.4001673" lon="114.2125154">
<ele>4</ele><time>2020-12-28T06:17:10.000Z</time><extensions><gpxtpx:TrackPointExtension><gpxtpx:hr>119</gpxtpx:hr></gpxtpx:TrackPointExtension></extensions></trkpt>
<trkpt lat="22.4001971" lon="114.2125583">
<ele>4</ele><time>2020-12-28T06:17:12.000Z</time><extensions><gpxtpx:TrackPointExtension><gpxtpx:hr>119</gpxtpx:hr></gpxtpx:TrackPointExtension></extensions></trkpt>
<trkpt lat="22.4002368" lon="114.2126012">
<ele>4</ele><time>2020-12-28T06:17:14.000Z</time><extensions><gpxtpx:TrackPointExtension><gpxtpx:hr>119</gpxtpx:hr></gpxtpx:TrackPointExtension></extensions></trkpt>
<trkpt lat="22.4002764" lon="114.2126226">
<ele>4</ele><time>2020-12-28T06:17:16.000Z</time><extensions><gpxtpx:TrackPointExtension><gpxtpx:hr>119</gpxtpx:hr></gpxtpx:TrackPointExtension></extensions></trkpt>
<trkpt lat="22.4003161" lon="114.2126441">
<ele>4</ele><time>2020-12-28T06:17:18.000Z</time><extensions><gpxtpx:TrackPointExtension><gpxtpx:hr>121</gpxtpx:hr></gpxtpx:TrackPointExtension></extensions></trkpt>
<trkpt lat="22.4003459" lon="114.2126870">
<ele>4</ele><time>2020-12-28T06:17:19.999Z</time><extensions><gpxtpx:TrackPointExtension><gpxtpx:hr>121</gpxtpx:hr></gpxtpx:TrackPointExtension></extensions></trkpt>
<trkpt lat="22.4003756" lon="114.2127299">
<ele>4</ele><time>2020-12-28T06:17:21.999Z</time><extensions><gpxtpx:TrackPointExtension><gpxtpx:hr>122</gpxtpx:hr></gpxtpx:TrackPointExtension></extensions></trkpt>
<trkpt lat="22.4004054" lon="114.2127943">
<ele>4</ele><time>2020-12-28T06:17:23.999Z</time><extensions><gpxtpx:TrackPointExtension><gpxtpx:hr>122</gpxtpx:hr></gpxtpx:TrackPointExtension></extensions></trkpt>
<trkpt lat="22.4004847" lon="114.2128158">
<ele>4</ele><time>2020-12-28T06:17:25.999Z</time><extensions><gpxtpx:TrackPointExtension><gpxtpx:hr>122</gpxtpx:hr></gpxtpx:TrackPointExtension></extensions></trkpt>
<trkpt lat="22.4005145" lon="114.2128587">
<ele>4</ele><time>2020-12-28T06:17:26.999Z</time><extensions><gpxtpx:TrackPointExtension><gpxtpx:hr>118</gpxtpx:hr></gpxtpx:TrackPointExtension></extensions></trkpt>
<trkpt lat="22.4005740" lon="114.2129016">
<ele>4</ele><time>2020-12-28T06:17:28.999Z</time><extensions><gpxtpx:TrackPointExtension><gpxtpx:hr>118</gpxtpx:hr></gpxtpx:TrackPointExtension></extensions></trkpt>
<trkpt lat="22.4005939" lon="114.2129445">
<ele>4</ele><time>2020-12-28T06:17:29.999Z</time><extensions><gpxtpx:TrackPointExtension><gpxtpx:hr>118</gpxtpx:hr></gpxtpx:TrackPointExtension></extensions></trkpt>
<trkpt lat="22.4006434" lon="114.2129874">
<ele>4</ele><time>2020-12-28T06:17:31.999Z</time><extensions><gpxtpx:TrackPointExtension><gpxtpx:hr>119</gpxtpx:hr></gpxtpx:TrackPointExtension></extensions></trkpt>
<trkpt lat="22.4006930" lon="114.2130303">
<ele>4</ele><time>2020-12-28T06:17:33.999Z</time><extensions><gpxtpx:TrackPointExtension><gpxtpx:hr>119</gpxtpx:hr></gpxtpx:TrackPointExtension></extensions></trkpt>
<trkpt lat="22.4007426" lon="114.2130733">
<ele>4</ele><time>2020-12-28T06:17:35.999Z</time><extensions><gpxtpx:TrackPointExtension><gpxtpx:hr>115</gpxtpx:hr></gpxtpx:TrackPointExtension></extensions></trkpt>
<trkpt lat="22.4008022" lon="114.2131162">
<ele>4</ele><time>2020-12-28T06:17:38.999Z</time><extensions><gpxtpx:TrackPointExtension><gpxtpx:hr>115</gpxtpx:hr></gpxtpx:TrackPointExtension></extensions></trkpt>
<trkpt lat="22.4008319" lon="114.2131591">
<ele>4</ele><time>2020-12-28T06:17:40.999Z</time><extensions><gpxtpx:TrackPointExtension><gpxtpx:hr>115</gpxtpx:hr></gpxtpx:TrackPointExtension></extensions></trkpt>
<trkpt lat="22.4008716" lon="114.2131805">
<ele>4</ele><time>2020-12-28T06:17:42.999Z</time><extensions><gpxtpx:TrackPointExtension><gpxtpx:hr>113</gpxtpx:hr></gpxtpx:TrackPointExtension></extensions></trkpt>
<trkpt lat="22.4009013" lon="114.2132235">
<ele>4</ele><time>2020-12-28T06:17:44.999Z</time><extensions><gpxtpx:TrackPointExtension><gpxtpx:hr>113</gpxtpx:hr></gpxtpx:TrackPointExtension></extensions></trkpt>
<trkpt lat="22.4009410" lon="114.2132664">
<ele>4</ele><time>2020-12-28T06:17:46.999Z</time><extensions><gpxtpx:TrackPointExtension><gpxtpx:hr>115</gpxtpx:hr></gpxtpx:TrackPointExtension></extensions></trkpt>
<trkpt lat="22.4009906" lon="114.2133093">
<ele>4</ele><time>2020-12-28T06:17:49.999Z</time><extensions><gpxtpx:TrackPointExtension><gpxtpx:hr>115</gpxtpx:hr></gpxtpx:TrackPointExtension></extensions></trkpt>
<trkpt lat="22.4010303" lon="114.2133522">
<ele>4</ele><time>2020-12-28T06:17:51.999Z</time><extensions><gpxtpx:TrackPointExtension><gpxtpx:hr>114</gpxtpx:hr></gpxtpx:TrackPointExtension></extensions></trkpt>
<trkpt lat="22.4010799" lon="114.2133951">
<ele>4</ele><time>2020-12-28T06:17:54.999Z</time><extensions><gpxtpx:TrackPointExtension><gpxtpx:hr>114</gpxtpx:hr></gpxtpx:TrackPointExtension></extensions></trkpt>
<trkpt lat="22.4011196" lon="114.2134380">
<ele>4</ele><time>2020-12-28T06:17:57.999Z</time><extensions><gpxtpx:TrackPointExtension><gpxtpx:hr>117</gpxtpx:hr></gpxtpx:TrackPointExtension></extensions></trkpt>
<trkpt lat="22.4011592" lon="114.2134809">
<ele>4</ele><time>2020-12-28T06:17:59.999Z</time><extensions><gpxtpx:TrackPointExtension><gpxtpx:hr>117</gpxtpx:hr></gpxtpx:TrackPointExtension></extensions></trkpt>
<trkpt lat="22.4012088" lon="114.2135239">
<ele>4</ele><time>2020-12-28T06:18:02.999Z</time><extensions><gpxtpx:TrackPointExtension><gpxtpx:hr>119</gpxtpx:hr></gpxtpx:TrackPointExtension></extensions></trkpt>
<trkpt lat="22.4012584" lon="114.2135453">
<ele>4</ele><time>2020-12-28T06:18:04.999Z</time><extensions><gpxtpx:TrackPointExtension><gpxtpx:hr>119</gpxtpx:hr></gpxtpx:TrackPointExtension></extensions></trkpt>
<trkpt lat="22.4012981" lon="114.2136097">
<ele>4</ele><time>2020-12-28T06:18:06.999Z</time><extensions><gpxtpx:TrackPointExtension><gpxtpx:hr>118</gpxtpx:hr></gpxtpx:TrackPointExtension></extensions></trkpt>
<trkpt lat="22.4013477" lon="114.2136526">
<ele>4</ele><time>2020-12-28T06:18:08.999Z</time><extensions><gpxtpx:TrackPointExtension><gpxtpx:hr>118</gpxtpx:hr></gpxtpx:TrackPointExtension></extensions></trkpt>
<trkpt lat="22.4013973" lon="114.2136955">
<ele>4</ele><time>2020-12-28T06:18:10.999Z</time><extensions><gpxtpx:TrackPointExtension><gpxtpx:hr>118</gpxtpx:hr></gpxtpx:TrackPointExtension></extensions></trkpt>
<trkpt lat="22.4014370" lon="114.2137384">
<ele>4</ele><time>2020-12-28T06:18:12.999Z</time><extensions><gpxtpx:TrackPointExtension><gpxtpx:hr>119</gpxtpx:hr></gpxtpx:TrackPointExtension></extensions></trkpt>
<trkpt lat="22.4014866" lon="114.2137814">
<ele>4</ele><time>2020-12-28T06:18:14.999Z</time><extensions><gpxtpx:TrackPointExtension><gpxtpx:hr>119</gpxtpx:hr></gpxtpx:TrackPointExtension></extensions></trkpt>
<trkpt lat="22.4015163" lon="114.2138243">
<ele>4</ele><time>2020-12-28T06:18:15.999Z</time><extensions><gpxtpx:TrackPointExtension><gpxtpx:hr>119</gpxtpx:hr></gpxtpx:TrackPointExtension></extensions></trkpt>
<trkpt lat="22.4015659" lon="114.2138672">
<ele>4</ele><time>2020-12-28T06:18:17.999Z</time><extensions><gpxtpx:TrackPointExtension><gpxtpx:hr>119</gpxtpx:hr></gpxtpx:TrackPointExtension></extensions></trkpt>
<trkpt lat="22.4015957" lon="114.2139101">
<ele>4</ele><time>2020-12-28T06:18:18.999Z</time><extensions><gpxtpx:TrackPointExtension><gpxtpx:hr>119</gpxtpx:hr></gpxtpx:TrackPointExtension></extensions></trkpt>
<trkpt lat="22.4016750" lon="114.2139745">
<ele>4</ele><time>2020-12-28T06:18:20.999Z</time><extensions><gpxtpx:TrackPointExtension><gpxtpx:hr>120</gpxtpx:hr></gpxtpx:TrackPointExtension></extensions></trkpt>
<trkpt lat="22.4017246" lon="114.2140388">
<ele>4</ele><time>2020-12-28T06:18:22.999Z</time><extensions><gpxtpx:TrackPointExtension><gpxtpx:hr>120</gpxtpx:hr></gpxtpx:TrackPointExtension></extensions></trkpt>
<trkpt lat="22.4017742" lon="114.2141032">
<ele>4</ele><time>2020-12-28T06:18:24.999Z</time><extensions><gpxtpx:TrackPointExtension><gpxtpx:hr>120</gpxtpx:hr></gpxtpx:TrackPointExtension></extensions></trkpt>
<trkpt lat="22.4018238" lon="114.2141676">
<ele>5</ele><time>2020-12-28T06:18:26.999Z</time><extensions><gpxtpx:TrackPointExtension><gpxtpx:hr>120</gpxtpx:hr></gpxtpx:TrackPointExtension></extensions></trkpt>
<trkpt lat="22.4018437" lon="114.2142105">
<ele>5</ele><time>2020-12-28T06:18:27.999Z</time><extensions><gpxtpx:TrackPointExtension><gpxtpx:hr>120</gpxtpx:hr></gpxtpx:TrackPointExtension></extensions></trkpt>
<trkpt lat="22.4018933" lon="114.2142534">
<ele>5</ele><time>2020-12-28T06:18:29.999Z</time><extensions><gpxtpx:TrackPointExtension><gpxtpx:hr>120</gpxtpx:hr></gpxtpx:TrackPointExtension></extensions></trkpt>
<trkpt lat="22.4019230" lon="114.2142963">
<ele>5</ele><time>2020-12-28T06:18:31.999Z</time><extensions><gpxtpx:TrackPointExtension><gpxtpx:hr>121</gpxtpx:hr></gpxtpx:TrackPointExtension></extensions></trkpt>
<trkpt lat="22.4019528" lon="114.2143393">
<ele>6</ele><time>2020-12-28T06:18:33.999Z</time><extensions><gpxtpx:TrackPointExtension><gpxtpx:hr>121</gpxtpx:hr></gpxtpx:TrackPointExtension></extensions></trkpt>
<trkpt lat="22.4019925" lon="114.2143607">
<ele>6</ele><time>2020-12-28T06:18:36.999Z</time><extensions><gpxtpx:TrackPointExtension><gpxtpx:hr>125</gpxtpx:hr></gpxtpx:TrackPointExtension></extensions></trkpt>
<trkpt lat="22.4020222" lon="114.2144036">
<ele>7</ele><time>2020-12-28T06:18:38.999Z</time><extensions><gpxtpx:TrackPointExtension><gpxtpx:hr>125</gpxtpx:hr></gpxtpx:TrackPointExtension></extensions></trkpt>
<trkpt lat="22.4020619" lon="114.2144251">
<ele>7</ele><time>2020-12-28T06:18:42.999Z</time><extensions><gpxtpx:TrackPointExtension><gpxtpx:hr>132</gpxtpx:hr></gpxtpx:TrackPointExtension></extensions></trkpt>
<trkpt lat="22.4021016" lon="114.2144680">
<ele>8</ele><time>2020-12-28T06:18:45.999Z</time><extensions><gpxtpx:TrackPointExtension><gpxtpx:hr>132</gpxtpx:hr></gpxtpx:TrackPointExtension></extensions></trkpt>
<trkpt lat="22.4021313" lon="114.2145109">
<ele>8</ele><time>2020-12-28T06:18:49.998Z</time><extensions><gpxtpx:TrackPointExtension><gpxtpx:hr>135</gpxtpx:hr></gpxtpx:TrackPointExtension></extensions></trkpt>
<trkpt lat="22.4021809" lon="114.2145538">
<ele>8</ele><time>2020-12-28T06:18:57.998Z</time><extensions><gpxtpx:TrackPointExtension><gpxtpx:hr>133</gpxtpx:hr></gpxtpx:TrackPointExtension></extensions></trkpt>
<trkpt lat="22.4022305" lon="114.2145753">
<ele>7</ele><time>2020-12-28T06:19:01.998Z</time><extensions><gpxtpx:TrackPointExtension><gpxtpx:hr>133</gpxtpx:hr></gpxtpx:TrackPointExtension></extensions></trkpt>
<trkpt lat="22.4022603" lon="114.2146182">
<ele>7</ele><time>2020-12-28T06:19:05.000Z</time><extensions><gpxtpx:TrackPointExtension><gpxtpx:hr>133</gpxtpx:hr></gpxtpx:TrackPointExtension></extensions></trkpt>
<trkpt lat="22.4023099" lon="114.2146611">
<ele>7</ele><time>2020-12-28T06:19:08.000Z</time><extensions><gpxtpx:TrackPointExtension><gpxtpx:hr>134</gpxtpx:hr></gpxtpx:TrackPointExtension></extensions></trkpt>
<trkpt lat="22.4023595" lon="114.2147040">
<ele>7</ele><time>2020-12-28T06:19:10.000Z</time><extensions><gpxtpx:TrackPointExtension><gpxtpx:hr>134</gpxtpx:hr></gpxtpx:TrackPointExtension></extensions></trkpt>
<trkpt lat="22.4024091" lon="114.2147470">
<ele>7</ele><time>2020-12-28T06:19:12.000Z</time><extensions><gpxtpx:TrackPointExtension><gpxtpx:hr>132</gpxtpx:hr></gpxtpx:TrackPointExtension></extensions></trkpt>
<trkpt lat="22.4024785" lon="114.2148113">
<ele>7</ele><time>2020-12-28T06:19:14.000Z</time><extensions><gpxtpx:TrackPointExtension><gpxtpx:hr>132</gpxtpx:hr></gpxtpx:TrackPointExtension></extensions></trkpt>
<trkpt lat="22.4025579" lon="114.2148542">
<ele>7</ele><time>2020-12-28T06:19:16.000Z</time><extensions><gpxtpx:TrackPointExtension><gpxtpx:hr>132</gpxtpx:hr></gpxtpx:TrackPointExtension></extensions></trkpt>
<trkpt lat="22.4025876" lon="114.2148972">
<ele>7</ele><time>2020-12-28T06:19:17.000Z</time><extensions><gpxtpx:TrackPointExtension><gpxtpx:hr>132</gpxtpx:hr></gpxtpx:TrackPointExtension></extensions></trkpt>
<trkpt lat="22.4026570" lon="114.2149615">
<ele>7</ele><time>2020-12-28T06:19:19.000Z</time><extensions><gpxtpx:TrackPointExtension><gpxtpx:hr>132</gpxtpx:hr></gpxtpx:TrackPointExtension></extensions></trkpt>
<trkpt lat="22.4026868" lon="114.2150044">
<ele>7</ele><time>2020-12-28T06:19:20.000Z</time><extensions><gpxtpx:TrackPointExtension><gpxtpx:hr>132</gpxtpx:hr></gpxtpx:TrackPointExtension></extensions></trkpt>
<trkpt lat="22.4027562" lon="114.2150474">
<ele>7</ele><time>2020-12-28T06:19:22.000Z</time><extensions><gpxtpx:TrackPointExtension><gpxtpx:hr>132</gpxtpx:hr></gpxtpx:TrackPointExtension></extensions></trkpt>
<trkpt lat="22.4027860" lon="114.2150903">
<ele>7</ele><time>2020-12-28T06:19:23.000Z</time><extensions><gpxtpx:TrackPointExtension><gpxtpx:hr>132</gpxtpx:hr></gpxtpx:TrackPointExtension></extensions></trkpt>
<trkpt lat="22.4028455" lon="114.2151332">
<ele>7</ele><time>2020-12-28T06:19:25.000Z</time><extensions><gpxtpx:TrackPointExtension><gpxtpx:hr>132</gpxtpx:hr></gpxtpx:TrackPointExtension></extensions></trkpt>
<trkpt lat="22.4028951" lon="114.2151976">
<ele>7</ele><time>2020-12-28T06:19:27.000Z</time><extensions><gpxtpx:TrackPointExtension><gpxtpx:hr>132</gpxtpx:hr></gpxtpx:TrackPointExtension></extensions></trkpt>
<trkpt lat="22.4029447" lon="114.2152405">
<ele>7</ele><time>2020-12-28T06:19:29.000Z</time><extensions><gpxtpx:TrackPointExtension><gpxtpx:hr>132</gpxtpx:hr></gpxtpx:TrackPointExtension></extensions></trkpt>
<trkpt lat="22.4029844" lon="114.2152834">
<ele>6</ele><time>2020-12-28T06:19:31.000Z</time><extensions><gpxtpx:TrackPointExtension><gpxtpx:hr>132</gpxtpx:hr></gpxtpx:TrackPointExtension></extensions></trkpt>
<trkpt lat="22.4030240" lon="114.2153263">
<ele>6</ele><time>2020-12-28T06:19:33.000Z</time><extensions><gpxtpx:TrackPointExtension><gpxtpx:hr>132</gpxtpx:hr></gpxtpx:TrackPointExtension></extensions></trkpt>
<trkpt lat="22.4030538" lon="114.2153692">
<ele>6</ele><time>2020-12-28T06:19:34.999Z</time><extensions><gpxtpx:TrackPointExtension><gpxtpx:hr>132</gpxtpx:hr></gpxtpx:TrackPointExtension></extensions></trkpt>
<trkpt lat="22.4031034" lon="114.2153907">
<ele>6</ele><time>2020-12-28T06:19:37.999Z</time><extensions><gpxtpx:TrackPointExtension><gpxtpx:hr>132</gpxtpx:hr></gpxtpx:TrackPointExtension></extensions></trkpt>
<trkpt lat="22.4031332" lon="114.2154336">
<ele>6</ele><time>2020-12-28T06:19:39.999Z</time><extensions><gpxtpx:TrackPointExtension><gpxtpx:hr>132</gpxtpx:hr></gpxtpx:TrackPointExtension></extensions></trkpt>
<trkpt lat="22.4031728" lon="114.2154551">
<ele>6</ele><time>2020-12-28T06:19:43.999Z</time><extensions><gpxtpx:TrackPointExtension><gpxtpx:hr>132</gpxtpx:hr></gpxtpx:TrackPointExtension></extensions></trkpt>
<trkpt lat="22.4032125" lon="114.2154980">
<ele>6</ele><time>2020-12-28T06:19:47.999Z</time><extensions><gpxtpx:TrackPointExtension><gpxtpx:hr>124</gpxtpx:hr></gpxtpx:TrackPointExtension></extensions></trkpt>
<trkpt lat="22.4032423" lon="114.2155409">
<ele>6</ele><time>2020-12-28T06:19:49.999Z</time><extensions><gpxtpx:TrackPointExtension><gpxtpx:hr>124</gpxtpx:hr></gpxtpx:TrackPointExtension></extensions></trkpt>
<trkpt lat="22.4032819" lon="114.2155838">
<ele>6</ele><time>2020-12-28T06:19:51.999Z</time><extensions><gpxtpx:TrackPointExtension><gpxtpx:hr>125</gpxtpx:hr></gpxtpx:TrackPointExtension></extensions></trkpt>
<trkpt lat="22.4033216" lon="114.2156053">
<ele>6</ele><time>2020-12-28T06:19:53.999Z</time><extensions><gpxtpx:TrackPointExtension><gpxtpx:hr>125</gpxtpx:hr></gpxtpx:TrackPointExtension></extensions></trkpt>
<trkpt lat="22.4033613" lon="114.2156482">
<ele>6</ele><time>2020-12-28T06:19:55.999Z</time><extensions><gpxtpx:TrackPointExtension><gpxtpx:hr>125</gpxtpx:hr></gpxtpx:TrackPointExtension></extensions></trkpt>
<trkpt lat="22.4034109" lon="114.2156911">
<ele>6</ele><time>2020-12-28T06:19:57.999Z</time><extensions><gpxtpx:TrackPointExtension><gpxtpx:hr>125</gpxtpx:hr></gpxtpx:TrackPointExtension></extensions></trkpt>
<trkpt lat="22.4034605" lon="114.2157340">
<ele>6</ele><time>2020-12-28T06:19:59.999Z</time><extensions><gpxtpx:TrackPointExtension><gpxtpx:hr>125</gpxtpx:hr></gpxtpx:TrackPointExtension></extensions></trkpt>
<trkpt lat="22.4034902" lon="114.2157769">
<ele>6</ele><time>2020-12-28T06:20:00.999Z</time><extensions><gpxtpx:TrackPointExtension><gpxtpx:hr>125</gpxtpx:hr></gpxtpx:TrackPointExtension></extensions></trkpt>
<trkpt lat="22.4035299" lon="114.2158198">
<ele>6</ele><time>2020-12-28T06:20:02.999Z</time><extensions><gpxtpx:TrackPointExtension><gpxtpx:hr>123</gpxtpx:hr></gpxtpx:TrackPointExtension></extensions></trkpt>
<trkpt lat="22.4035696" lon="114.2158413">
<ele>6</ele><time>2020-12-28T06:20:04.999Z</time><extensions><gpxtpx:TrackPointExtension><gpxtpx:hr>123</gpxtpx:hr></gpxtpx:TrackPointExtension></extensions></trkpt>
<trkpt lat="22.4035994" lon="114.2158842">
<ele>6</ele><time>2020-12-28T06:20:05.999Z</time><extensions><gpxtpx:TrackPointExtension><gpxtpx:hr>123</gpxtpx:hr></gpxtpx:TrackPointExtension></extensions></trkpt>
<trkpt lat="22.4036390" lon="114.2159057">
<ele>6</ele><time>2020-12-28T06:20:07.999Z</time><extensions><gpxtpx:TrackPointExtension><gpxtpx:hr>123</gpxtpx:hr></gpxtpx:TrackPointExtension></extensions></trkpt>
<trkpt lat="22.4036787" lon="114.2159486">
<ele>6</ele><time>2020-12-28T06:20:09.999Z</time><extensions><gpxtpx:TrackPointExtension><gpxtpx:hr>123</gpxtpx:hr></gpxtpx:TrackPointExtension></extensions></trkpt>
<trkpt lat="22.4037283" lon="114.2159915">
<ele>6</ele><time>2020-12-28T06:20:12.999Z</time><extensions><gpxtpx:TrackPointExtension><gpxtpx:hr>124</gpxtpx:hr></gpxtpx:TrackPointExtension></extensions></trkpt>
<trkpt lat="22.4037680" lon="114.2160344">
<ele>6</ele><time>2020-12-28T06:20:14.999Z</time><extensions><gpxtpx:TrackPointExtension><gpxtpx:hr>124</gpxtpx:hr></gpxtpx:TrackPointExtension></extensions></trkpt>
<trkpt lat="22.4038077" lon="114.2160773">
<ele>6</ele><time>2020-12-28T06:20:16.999Z</time><extensions><gpxtpx:TrackPointExtension><gpxtpx:hr>125</gpxtpx:hr></gpxtpx:TrackPointExtension></extensions></trkpt>
<trkpt lat="22.4038473" lon="114.2161202">
<ele>6</ele><time>2020-12-28T06:20:18.999Z</time><extensions><gpxtpx:TrackPointExtension><gpxtpx:hr>125</gpxtpx:hr></gpxtpx:TrackPointExtension></extensions></trkpt>
<trkpt lat="22.4038870" lon="114.2161632">
<ele>6</ele><time>2020-12-28T06:20:20.999Z</time><extensions><gpxtpx:TrackPointExtension><gpxtpx:hr>125</gpxtpx:hr></gpxtpx:TrackPointExtension></extensions></trkpt>
<trkpt lat="22.4039267" lon="114.2161846">
<ele>6</ele><time>2020-12-28T06:20:22.999Z</time><extensions><gpxtpx:TrackPointExtension><gpxtpx:hr>125</gpxtpx:hr></gpxtpx:TrackPointExtension></extensions></trkpt>
<trkpt lat="22.4039564" lon="114.2162275">
<ele>6</ele><time>2020-12-28T06:20:24.999Z</time><extensions><gpxtpx:TrackPointExtension><gpxtpx:hr>125</gpxtpx:hr></gpxtpx:TrackPointExtension></extensions></trkpt>
<trkpt lat="22.4040060" lon="114.2162704">
<ele>6</ele><time>2020-12-28T06:20:26.999Z</time><extensions><gpxtpx:TrackPointExtension><gpxtpx:hr>124</gpxtpx:hr></gpxtpx:TrackPointExtension></extensions></trkpt>
<trkpt lat="22.4040556" lon="114.2163134">
<ele>6</ele><time>2020-12-28T06:20:29.999Z</time><extensions><gpxtpx:TrackPointExtension><gpxtpx:hr>124</gpxtpx:hr></gpxtpx:TrackPointExtension></extensions></trkpt>
<trkpt lat="22.4040854" lon="114.2163563">
<ele>6</ele><time>2020-12-28T06:20:31.999Z</time><extensions><gpxtpx:TrackPointExtension><gpxtpx:hr>122</gpxtpx:hr></gpxtpx:TrackPointExtension></extensions></trkpt>
<trkpt lat="22.4041251" lon="114.2163777">
<ele>6</ele><time>2020-12-28T06:20:33.999Z</time><extensions><gpxtpx:TrackPointExtension><gpxtpx:hr>122</gpxtpx:hr></gpxtpx:TrackPointExtension></extensions></trkpt>
<trkpt lat="22.4041548" lon="114.2164207">
<ele>6</ele><time>2020-12-28T06:20:35.999Z</time><extensions><gpxtpx:TrackPointExtension><gpxtpx:hr>122</gpxtpx:hr></gpxtpx:TrackPointExtension></extensions></trkpt>
<trkpt lat="22.4042044" lon="114.2164636">
<ele>6</ele><time>2020-12-28T06:20:37.999Z</time><extensions><gpxtpx:TrackPointExtension><gpxtpx:hr>123</gpxtpx:hr></gpxtpx:TrackPointExtension></extensions></trkpt>
<trkpt lat="22.4042540" lon="114.2165065">
<ele>6</ele><time>2020-12-28T06:20:40.999Z</time><extensions><gpxtpx:TrackPointExtension><gpxtpx:hr>123</gpxtpx:hr></gpxtpx:TrackPointExtension></extensions></trkpt>
<trkpt lat="22.4042937" lon="114.2165494">
<ele>6</ele><time>2020-12-28T06:20:42.999Z</time><extensions><gpxtpx:TrackPointExtension><gpxtpx:hr>118</gpxtpx:hr></gpxtpx:TrackPointExtension></extensions></trkpt>
<trkpt lat="22.4043433" lon="114.2165923">
<ele>6</ele><time>2020-12-28T06:20:44.999Z</time><extensions><gpxtpx:TrackPointExtension><gpxtpx:hr>118</gpxtpx:hr></gpxtpx:TrackPointExtension></extensions></trkpt>
<trkpt lat="22.4043830" lon="114.2166352">
<ele>7</ele><time>2020-12-28T06:20:46.999Z</time><extensions><gpxtpx:TrackPointExtension><gpxtpx:hr>117</gpxtpx:hr></gpxtpx:TrackPointExtension></extensions></trkpt>
<trkpt lat="22.4044226" lon="114.2166567">
<ele>7</ele><time>2020-12-28T06:20:48.999Z</time><extensions><gpxtpx:TrackPointExtension><gpxtpx:hr>117</gpxtpx:hr></gpxtpx:TrackPointExtension></extensions></trkpt>
<trkpt lat="22.4044623" lon="114.2166996">
<ele>7</ele><time>2020-12-28T06:20:50.999Z</time><extensions><gpxtpx:TrackPointExtension><gpxtpx:hr>117</gpxtpx:hr></gpxtpx:TrackPointExtension></extensions></trkpt>
<trkpt lat="22.4045020" lon="114.2167425">
<ele>7</ele><time>2020-12-28T06:20:52.999Z</time><extensions><gpxtpx:TrackPointExtension><gpxtpx:hr>119</gpxtpx:hr></gpxtpx:TrackPointExtension></extensions></trkpt>
<trkpt lat="22.4045417" lon="114.2168069">
<ele>7</ele><time>2020-12-28T06:20:54.998Z</time><extensions><gpxtpx:TrackPointExtension><gpxtpx:hr>119</gpxtpx:hr></gpxtpx:TrackPointExtension></extensions></trkpt>
<trkpt lat="22.4045913" lon="114.2168498">
<ele>7</ele><time>2020-12-28T06:20:56.998Z</time><extensions><gpxtpx:TrackPointExtension><gpxtpx:hr>118</gpxtpx:hr></gpxtpx:TrackPointExtension></extensions></trkpt>
<trkpt lat="22.4046409" lon="114.2168927">
<ele>7</ele><time>2020-12-28T06:20:58.998Z</time><extensions><gpxtpx:TrackPointExtension><gpxtpx:hr>118</gpxtpx:hr></gpxtpx:TrackPointExtension></extensions></trkpt>
<trkpt lat="22.4046904" lon="114.2169356">
<ele>7</ele><time>2020-12-28T06:21:00.998Z</time><extensions><gpxtpx:TrackPointExtension><gpxtpx:hr>118</gpxtpx:hr></gpxtpx:TrackPointExtension></extensions></trkpt>
<trkpt lat="22.4047301" lon="114.2169571">
<ele>7</ele><time>2020-12-28T06:21:02.998Z</time><extensions><gpxtpx:TrackPointExtension><gpxtpx:hr>120</gpxtpx:hr></gpxtpx:TrackPointExtension></extensions></trkpt>
<trkpt lat="22.4047698" lon="114.2170000">
<ele>7</ele><time>2020-12-28T06:21:04.998Z</time><extensions><gpxtpx:TrackPointExtension><gpxtpx:hr>120</gpxtpx:hr></gpxtpx:TrackPointExtension></extensions></trkpt>
<trkpt lat="22.4047996" lon="114.2170429">
<ele>7</ele><time>2020-12-28T06:21:06.998Z</time><extensions><gpxtpx:TrackPointExtension><gpxtpx:hr>120</gpxtpx:hr></gpxtpx:TrackPointExtension></extensions></trkpt>
<trkpt lat="22.4048392" lon="114.2170858">
<ele>7</ele><time>2020-12-28T06:21:08.998Z</time><extensions><gpxtpx:TrackPointExtension><gpxtpx:hr>120</gpxtpx:hr></gpxtpx:TrackPointExtension></extensions></trkpt>
<trkpt lat="22.4048888" lon="114.2171288">
<ele>7</ele><time>2020-12-28T06:21:12.000Z</time><extensions><gpxtpx:TrackPointExtension><gpxtpx:hr>118</gpxtpx:hr></gpxtpx:TrackPointExtension></extensions></trkpt>
<trkpt lat="22.4049285" lon="114.2171717">
<ele>7</ele><time>2020-12-28T06:21:14.000Z</time><extensions><gpxtpx:TrackPointExtension><gpxtpx:hr>118</gpxtpx:hr></gpxtpx:TrackPointExtension></extensions></trkpt>
<trkpt lat="22.4049781" lon="114.2172146">
<ele>7</ele><time>2020-12-28T06:21:16.000Z</time><extensions><gpxtpx:TrackPointExtension><gpxtpx:hr>118</gpxtpx:hr></gpxtpx:TrackPointExtension></extensions></trkpt>
<trkpt lat="22.4050178" lon="114.2172575">
<ele>7</ele><time>2020-12-28T06:21:18.000Z</time><extensions><gpxtpx:TrackPointExtension><gpxtpx:hr>117</gpxtpx:hr></gpxtpx:TrackPointExtension></extensions></trkpt>
<trkpt lat="22.4050674" lon="114.2173004">
<ele>7</ele><time>2020-12-28T06:21:21.000Z</time><extensions><gpxtpx:TrackPointExtension><gpxtpx:hr>117</gpxtpx:hr></gpxtpx:TrackPointExtension></extensions></trkpt>
<trkpt lat="22.4051170" lon="114.2173433">
<ele>7</ele><time>2020-12-28T06:21:24.000Z</time><extensions><gpxtpx:TrackPointExtension><gpxtpx:hr>117</gpxtpx:hr></gpxtpx:TrackPointExtension></extensions></trkpt>
<trkpt lat="22.4051566" lon="114.2173862">
<ele>7</ele><time>2020-12-28T06:21:26.000Z</time><extensions><gpxtpx:TrackPointExtension><gpxtpx:hr>117</gpxtpx:hr></gpxtpx:TrackPointExtension></extensions></trkpt>
<trkpt lat="22.4051963" lon="114.2174292">
<ele>7</ele><time>2020-12-28T06:21:28.000Z</time><extensions><gpxtpx:TrackPointExtension><gpxtpx:hr>115</gpxtpx:hr></gpxtpx:TrackPointExtension></extensions></trkpt>
<trkpt lat="22.4052261" lon="114.2174935">
<ele>7</ele><time>2020-12-28T06:21:30.000Z</time><extensions><gpxtpx:TrackPointExtension><gpxtpx:hr>115</gpxtpx:hr></gpxtpx:TrackPointExtension></extensions></trkpt>
<trkpt lat="22.4052558" lon="114.2175364">
<ele>7</ele><time>2020-12-28T06:21:32.000Z</time><extensions><gpxtpx:TrackPointExtension><gpxtpx:hr>116</gpxtpx:hr></gpxtpx:TrackPointExtension></extensions></trkpt>
<trkpt lat="22.4052856" lon="114.2176008">
<ele>7</ele><time>2020-12-28T06:21:34.000Z</time><extensions><gpxtpx:TrackPointExtension><gpxtpx:hr>116</gpxtpx:hr></gpxtpx:TrackPointExtension></extensions></trkpt>
<trkpt lat="22.4053054" lon="114.2176652">
<ele>7</ele><time>2020-12-28T06:21:36.000Z</time><extensions><gpxtpx:TrackPointExtension><gpxtpx:hr>116</gpxtpx:hr></gpxtpx:TrackPointExtension></extensions></trkpt>
<trkpt lat="22.4053352" lon="114.2177296">
<ele>7</ele><time>2020-12-28T06:21:38.000Z</time><extensions><gpxtpx:TrackPointExtension><gpxtpx:hr>117</gpxtpx:hr></gpxtpx:TrackPointExtension></extensions></trkpt>
<trkpt lat="22.4053649" lon="114.2177725">
<ele>7</ele><time>2020-12-28T06:21:40.000Z</time><extensions><gpxtpx:TrackPointExtension><gpxtpx:hr>117</gpxtpx:hr></gpxtpx:TrackPointExtension></extensions></trkpt>
<trkpt lat="22.4054046" lon="114.2178154">
<ele>7</ele><time>2020-12-28T06:21:41.999Z</time><extensions><gpxtpx:TrackPointExtension><gpxtpx:hr>117</gpxtpx:hr></gpxtpx:TrackPointExtension></extensions></trkpt>
<trkpt lat="22.4054641" lon="114.2178583">
<ele>7</ele><time>2020-12-28T06:21:43.999Z</time><extensions><gpxtpx:TrackPointExtension><gpxtpx:hr>117</gpxtpx:hr></gpxtpx:TrackPointExtension></extensions></trkpt>
<trkpt lat="22.4055038" lon="114.2179012">
<ele>7</ele><time>2020-12-28T06:21:45.999Z</time><extensions><gpxtpx:TrackPointExtension><gpxtpx:hr>117</gpxtpx:hr></gpxtpx:TrackPointExtension></extensions></trkpt>
<trkpt lat="22.4055435" lon="114.2179441">
<ele>7</ele><time>2020-12-28T06:21:47.999Z</time><extensions><gpxtpx:TrackPointExtension><gpxtpx:hr>118</gpxtpx:hr></gpxtpx:TrackPointExtension></extensions></trkpt>
<trkpt lat="22.4056030" lon="114.2179871">
<ele>7</ele><time>2020-12-28T06:21:49.999Z</time><extensions><gpxtpx:TrackPointExtension><gpxtpx:hr>118</gpxtpx:hr></gpxtpx:TrackPointExtension></extensions></trkpt>
<trkpt lat="22.4056427" lon="114.2180300">
<ele>7</ele><time>2020-12-28T06:21:51.999Z</time><extensions><gpxtpx:TrackPointExtension><gpxtpx:hr>118</gpxtpx:hr></gpxtpx:TrackPointExtension></extensions></trkpt>
<trkpt lat="22.4056923" lon="114.2180729">
<ele>7</ele><time>2020-12-28T06:21:53.999Z</time><extensions><gpxtpx:TrackPointExtension><gpxtpx:hr>118</gpxtpx:hr></gpxtpx:TrackPointExtension></extensions></trkpt>
<trkpt lat="22.4057319" lon="114.2181158">
<ele>7</ele><time>2020-12-28T06:21:55.999Z</time><extensions><gpxtpx:TrackPointExtension><gpxtpx:hr>118</gpxtpx:hr></gpxtpx:TrackPointExtension></extensions></trkpt>
<trkpt lat="22.4057914" lon="114.2181587">
<ele>7</ele><time>2020-12-28T06:21:58.999Z</time><extensions><gpxtpx:TrackPointExtension><gpxtpx:hr>119</gpxtpx:hr></gpxtpx:TrackPointExtension></extensions></trkpt>
<trkpt lat="22.4058311" lon="114.2182016">
<ele>7</ele><time>2020-12-28T06:22:00.999Z</time><extensions><gpxtpx:TrackPointExtension><gpxtpx:hr>119</gpxtpx:hr></gpxtpx:TrackPointExtension></extensions></trkpt>
<trkpt lat="22.4058807" lon="114.2182446">
<ele>7</ele><time>2020-12-28T06:22:02.999Z</time><extensions><gpxtpx:TrackPointExtension><gpxtpx:hr>121</gpxtpx:hr></gpxtpx:TrackPointExtension></extensions></trkpt>
<trkpt lat="22.4059204" lon="114.2182875">
<ele>7</ele><time>2020-12-28T06:22:04.999Z</time><extensions><gpxtpx:TrackPointExtension><gpxtpx:hr>121</gpxtpx:hr></gpxtpx:TrackPointExtension></extensions></trkpt>
<trkpt lat="22.4059601" lon="114.2183089">
<ele>7</ele><time>2020-12-28T06:22:06.999Z</time><extensions><gpxtpx:TrackPointExtension><gpxtpx:hr>118</gpxtpx:hr></gpxtpx:TrackPointExtension></extensions></trkpt>
<trkpt lat="22.4059997" lon="114.2183518">
<ele>7</ele><time>2020-12-28T06:22:08.999Z</time><extensions><gpxtpx:TrackPointExtension><gpxtpx:hr>118</gpxtpx:hr></gpxtpx:TrackPointExtension></extensions></trkpt>
<trkpt lat="22.4060394" lon="114.2183948">
<ele>7</ele><time>2020-12-28T06:22:10.999Z</time><extensions><gpxtpx:TrackPointExtension><gpxtpx:hr>118</gpxtpx:hr></gpxtpx:TrackPointExtension></extensions></trkpt>
<trkpt lat="22.4060593" lon="114.2184377">
<ele>7</ele><time>2020-12-28T06:22:11.999Z</time><extensions><gpxtpx:TrackPointExtension><gpxtpx:hr>117</gpxtpx:hr></gpxtpx:TrackPointExtension></extensions></trkpt>
<trkpt lat="22.4061089" lon="114.2184591">
<ele>7</ele><time>2020-12-28T06:22:13.999Z</time><extensions><gpxtpx:TrackPointExtension><gpxtpx:hr>117</gpxtpx:hr></gpxtpx:TrackPointExtension></extensions></trkpt>
<trkpt lat="22.4061287" lon="114.2185020">
<ele>7</ele><time>2020-12-28T06:22:14.999Z</time><extensions><gpxtpx:TrackPointExtension><gpxtpx:hr>117</gpxtpx:hr></gpxtpx:TrackPointExtension></extensions></trkpt>
<trkpt lat="22.4061684" lon="114.2185450">
<ele>7</ele><time>2020-12-28T06:22:16.999Z</time><extensions><gpxtpx:TrackPointExtension><gpxtpx:hr>115</gpxtpx:hr></gpxtpx:TrackPointExtension></extensions></trkpt>
<trkpt lat="22.4061783" lon="114.2186093">
<ele>7</ele><time>2020-12-28T06:22:20.999Z</time><extensions><gpxtpx:TrackPointExtension><gpxtpx:hr>115</gpxtpx:hr></gpxtpx:TrackPointExtension></extensions></trkpt>
<trkpt lat="22.4061485" lon="114.2186522">
<ele>7</ele><time>2020-12-28T06:22:44.999Z</time><extensions><gpxtpx:TrackPointExtension><gpxtpx:hr>118</gpxtpx:hr></gpxtpx:TrackPointExtension></extensions></trkpt>
<trkpt lat="22.4061783" lon="114.2186093">
<ele>7</ele><time>2020-12-28T06:22:55.998Z</time><extensions><gpxtpx:TrackPointExtension><gpxtpx:hr>119</gpxtpx:hr></gpxtpx:TrackPointExtension></extensions></trkpt>
<trkpt lat="22.4061584" lon="114.2186737">
<ele>7</ele><time>2020-12-28T06:23:27.999Z</time><extensions><gpxtpx:TrackPointExtension><gpxtpx:hr>122</gpxtpx:hr></gpxtpx:TrackPointExtension></extensions></trkpt>
<trkpt lat="22.4061783" lon="114.2186308">
<ele>7</ele><time>2020-12-28T06:23:38.999Z</time><extensions><gpxtpx:TrackPointExtension><gpxtpx:hr>115</gpxtpx:hr></gpxtpx:TrackPointExtension></extensions></trkpt>
<trkpt lat="22.4061287" lon="114.2186093">
<ele>7</ele><time>2020-12-28T06:23:56.999Z</time><extensions><gpxtpx:TrackPointExtension><gpxtpx:hr>114</gpxtpx:hr></gpxtpx:TrackPointExtension></extensions></trkpt>
<trkpt lat="22.4061684" lon="114.2186522">
<ele>7</ele><time>2020-12-28T06:24:08.999Z</time><extensions><gpxtpx:TrackPointExtension><gpxtpx:hr>111</gpxtpx:hr></gpxtpx:TrackPointExtension></extensions></trkpt>
<trkpt lat="22.4061287" lon="114.2186308">
<ele>7</ele><time>2020-12-28T06:24:57.998Z</time><extensions><gpxtpx:TrackPointExtension><gpxtpx:hr>112</gpxtpx:hr></gpxtpx:TrackPointExtension></extensions></trkpt>
<trkpt lat="22.4061783" lon="114.2186308">
<ele>7</ele><time>2020-12-28T06:25:05.998Z</time><extensions><gpxtpx:TrackPointExtension><gpxtpx:hr>113</gpxtpx:hr></gpxtpx:TrackPointExtension></extensions></trkpt>
<trkpt lat="22.4061684" lon="114.2185664">
<ele>7</ele><time>2020-12-28T06:26:22.999Z</time><extensions><gpxtpx:TrackPointExtension><gpxtpx:hr>113</gpxtpx:hr></gpxtpx:TrackPointExtension></extensions></trkpt>
<trkpt lat="22.4061287" lon="114.2185450">
<ele>7</ele><time>2020-12-28T06:26:24.999Z</time><extensions><gpxtpx:TrackPointExtension><gpxtpx:hr>113</gpxtpx:hr></gpxtpx:TrackPointExtension></extensions></trkpt>
<trkpt lat="22.4060890" lon="114.2185020">
<ele>7</ele><time>2020-12-28T06:26:26.999Z</time><extensions><gpxtpx:TrackPointExtension><gpxtpx:hr>112</gpxtpx:hr></gpxtpx:TrackPointExtension></extensions></trkpt>
<trkpt lat="22.4060394" lon="114.2184591">
<ele>7</ele><time>2020-12-28T06:26:29.999Z</time><extensions><gpxtpx:TrackPointExtension><gpxtpx:hr>112</gpxtpx:hr></gpxtpx:TrackPointExtension></extensions></trkpt>
<trkpt lat="22.4059997" lon="114.2184162">
<ele>7</ele><time>2020-12-28T06:26:31.999Z</time><extensions><gpxtpx:TrackPointExtension><gpxtpx:hr>114</gpxtpx:hr></gpxtpx:TrackPointExtension></extensions></trkpt>
<trkpt lat="22.4059700" lon="114.2183733">
<ele>7</ele><time>2020-12-28T06:26:32.999Z</time><extensions><gpxtpx:TrackPointExtension><gpxtpx:hr>114</gpxtpx:hr></gpxtpx:TrackPointExtension></extensions></trkpt>
<trkpt lat="22.4059303" lon="114.2183518">
<ele>7</ele><time>2020-12-28T06:26:33.999Z</time><extensions><gpxtpx:TrackPointExtension><gpxtpx:hr>114</gpxtpx:hr></gpxtpx:TrackPointExtension></extensions></trkpt>
<trkpt lat="22.4058807" lon="114.2183089">
<ele>7</ele><time>2020-12-28T06:26:35.999Z</time><extensions><gpxtpx:TrackPointExtension><gpxtpx:hr>116</gpxtpx:hr></gpxtpx:TrackPointExtension></extensions></trkpt>
<trkpt lat="22.4058410" lon="114.2182660">
<ele>7</ele><time>2020-12-28T06:26:37.999Z</time><extensions><gpxtpx:TrackPointExtension><gpxtpx:hr>116</gpxtpx:hr></gpxtpx:TrackPointExtension></extensions></trkpt>
<trkpt lat="22.4057914" lon="114.2182231">
<ele>7</ele><time>2020-12-28T06:26:39.999Z</time><extensions><gpxtpx:TrackPointExtension><gpxtpx:hr>116</gpxtpx:hr></gpxtpx:TrackPointExtension></extensions></trkpt>
<trkpt lat="22.4057419" lon="114.2181587">
<ele>7</ele><time>2020-12-28T06:26:42.999Z</time><extensions><gpxtpx:TrackPointExtension><gpxtpx:hr>118</gpxtpx:hr></gpxtpx:TrackPointExtension></extensions></trkpt>
<trkpt lat="22.4057022" lon="114.2181158">
<ele>7</ele><time>2020-12-28T06:26:44.998Z</time><extensions><gpxtpx:TrackPointExtension><gpxtpx:hr>118</gpxtpx:hr></gpxtpx:TrackPointExtension></extensions></trkpt>
<trkpt lat="22.4056327" lon="114.2180729">
<ele>7</ele><time>2020-12-28T06:26:47.998Z</time><extensions><gpxtpx:TrackPointExtension><gpxtpx:hr>118</gpxtpx:hr></gpxtpx:TrackPointExtension></extensions></trkpt>
<trkpt lat="22.4056030" lon="114.2180300">
<ele>7</ele><time>2020-12-28T06:26:48.998Z</time><extensions><gpxtpx:TrackPointExtension><gpxtpx:hr>118</gpxtpx:hr></gpxtpx:TrackPointExtension></extensions></trkpt>
<trkpt lat="22.4055633" lon="114.2180085">
<ele>7</ele><time>2020-12-28T06:26:51.998Z</time><extensions><gpxtpx:TrackPointExtension><gpxtpx:hr>119</gpxtpx:hr></gpxtpx:TrackPointExtension></extensions></trkpt>
<trkpt lat="22.4055336" lon="114.2179656">
<ele>7</ele><time>2020-12-28T06:26:52.998Z</time><extensions><gpxtpx:TrackPointExtension><gpxtpx:hr>119</gpxtpx:hr></gpxtpx:TrackPointExtension></extensions></trkpt>
<trkpt lat="22.4054740" lon="114.2179227">
<ele>7</ele><time>2020-12-28T06:26:54.998Z</time><extensions><gpxtpx:TrackPointExtension><gpxtpx:hr>119</gpxtpx:hr></gpxtpx:TrackPointExtension></extensions></trkpt>
<trkpt lat="22.4054244" lon="114.2178798">
<ele>7</ele><time>2020-12-28T06:26:56.998Z</time><extensions><gpxtpx:TrackPointExtension><gpxtpx:hr>119</gpxtpx:hr></gpxtpx:TrackPointExtension></extensions></trkpt>
<trkpt lat="22.4054046" lon="114.2178369">
<ele>7</ele><time>2020-12-28T06:26:57.998Z</time><extensions><gpxtpx:TrackPointExtension><gpxtpx:hr>119</gpxtpx:hr></gpxtpx:TrackPointExtension></extensions></trkpt>
<trkpt lat="22.4053649" lon="114.2177725">
<ele>7</ele><time>2020-12-28T06:26:59.998Z</time><extensions><gpxtpx:TrackPointExtension><gpxtpx:hr>119</gpxtpx:hr></gpxtpx:TrackPointExtension></extensions></trkpt>
<trkpt lat="22.4053253" lon="114.2177296">
<ele>7</ele><time>2020-12-28T06:27:01.998Z</time><extensions><gpxtpx:TrackPointExtension><gpxtpx:hr>117</gpxtpx:hr></gpxtpx:TrackPointExtension></extensions></trkpt>
<trkpt lat="22.4052955" lon="114.2176867">
<ele>7</ele><time>2020-12-28T06:27:04.998Z</time><extensions><gpxtpx:TrackPointExtension><gpxtpx:hr>117</gpxtpx:hr></gpxtpx:TrackPointExtension></extensions></trkpt>
<trkpt lat="22.4052757" lon="114.2176437">
<ele>7</ele><time>2020-12-28T06:27:06.998Z</time><extensions><gpxtpx:TrackPointExtension><gpxtpx:hr>118</gpxtpx:hr></gpxtpx:TrackPointExtension></extensions></trkpt>
<trkpt lat="22.4052459" lon="114.2176008">
<ele>7</ele><time>2020-12-28T06:27:08.998Z</time><extensions><gpxtpx:TrackPointExtension><gpxtpx:hr>118</gpxtpx:hr></gpxtpx:TrackPointExtension></extensions></trkpt>
<trkpt lat="22.4052161" lon="114.2175364">
<ele>7</ele><time>2020-12-28T06:27:11.998Z</time><extensions><gpxtpx:TrackPointExtension><gpxtpx:hr>117</gpxtpx:hr></gpxtpx:TrackPointExtension></extensions></trkpt>
<trkpt lat="22.4051963" lon="114.2174935">
<ele>7</ele><time>2020-12-28T06:27:13.998Z</time><extensions><gpxtpx:TrackPointExtension><gpxtpx:hr>117</gpxtpx:hr></gpxtpx:TrackPointExtension></extensions></trkpt>
<trkpt lat="22.4051666" lon="114.2174292">
<ele>7</ele><time>2020-12-28T06:27:16.998Z</time><extensions><gpxtpx:TrackPointExtension><gpxtpx:hr>118</gpxtpx:hr></gpxtpx:TrackPointExtension></extensions></trkpt>
<trkpt lat="22.4051070" lon="114.2173862">
<ele>7</ele><time>2020-12-28T06:27:19.998Z</time><extensions><gpxtpx:TrackPointExtension><gpxtpx:hr>118</gpxtpx:hr></gpxtpx:TrackPointExtension></extensions></trkpt>
<trkpt lat="22.4050574" lon="114.2173433">
<ele>7</ele><time>2020-12-28T06:27:21.998Z</time><extensions><gpxtpx:TrackPointExtension><gpxtpx:hr>119</gpxtpx:hr></gpxtpx:TrackPointExtension></extensions></trkpt>
<trkpt lat="22.4050178" lon="114.2172790">
<ele>7</ele><time>2020-12-28T06:27:23.998Z</time><extensions><gpxtpx:TrackPointExtension><gpxtpx:hr>119</gpxtpx:hr></gpxtpx:TrackPointExtension></extensions></trkpt>
<trkpt lat="22.4049682" lon="114.2172575">
<ele>7</ele><time>2020-12-28T06:27:25.998Z</time><extensions><gpxtpx:TrackPointExtension><gpxtpx:hr>119</gpxtpx:hr></gpxtpx:TrackPointExtension></extensions></trkpt>
<trkpt lat="22.4049285" lon="114.2172146">
<ele>7</ele><time>2020-12-28T06:27:27.998Z</time><extensions><gpxtpx:TrackPointExtension><gpxtpx:hr>119</gpxtpx:hr></gpxtpx:TrackPointExtension></extensions></trkpt>
<trkpt lat="22.4048789" lon="114.2171717">
<ele>7</ele><time>2020-12-28T06:27:29.999Z</time><extensions><gpxtpx:TrackPointExtension><gpxtpx:hr>119</gpxtpx:hr></gpxtpx:TrackPointExtension></extensions></trkpt>
<trkpt lat="22.4048392" lon="114.2171502">
<ele>7</ele><time>2020-12-28T06:27:31.999Z</time><extensions><gpxtpx:TrackPointExtension><gpxtpx:hr>116</gpxtpx:hr></gpxtpx:TrackPointExtension></extensions></trkpt>
<trkpt lat="22.4047996" lon="114.2171073">
<ele>7</ele><time>2020-12-28T06:27:33.999Z</time><extensions><gpxtpx:TrackPointExtension><gpxtpx:hr>116</gpxtpx:hr></gpxtpx:TrackPointExtension></extensions></trkpt>
<trkpt lat="22.4047698" lon="114.2170644">
<ele>7</ele><time>2020-12-28T06:27:35.999Z</time><extensions><gpxtpx:TrackPointExtension><gpxtpx:hr>116</gpxtpx:hr></gpxtpx:TrackPointExtension></extensions></trkpt>
<trkpt lat="22.4047202" lon="114.2170215">
<ele>7</ele><time>2020-12-28T06:27:38.999Z</time><extensions><gpxtpx:TrackPointExtension><gpxtpx:hr>116</gpxtpx:hr></gpxtpx:TrackPointExtension></extensions></trkpt>
<trkpt lat="22.4046904" lon="114.2169785">
<ele>7</ele><time>2020-12-28T06:27:40.999Z</time><extensions><gpxtpx:TrackPointExtension><gpxtpx:hr>116</gpxtpx:hr></gpxtpx:TrackPointExtension></extensions></trkpt>
<trkpt lat="22.4046409" lon="114.2169356">
<ele>7</ele><time>2020-12-28T06:27:43.999Z</time><extensions><gpxtpx:TrackPointExtension><gpxtpx:hr>116</gpxtpx:hr></gpxtpx:TrackPointExtension></extensions></trkpt>
<trkpt lat="22.4045913" lon="114.2168927">
<ele>7</ele><time>2020-12-28T06:27:45.999Z</time><extensions><gpxtpx:TrackPointExtension><gpxtpx:hr>116</gpxtpx:hr></gpxtpx:TrackPointExtension></extensions></trkpt>
<trkpt lat="22.4045516" lon="114.2168498">
<ele>7</ele><time>2020-12-28T06:27:47.999Z</time><extensions><gpxtpx:TrackPointExtension><gpxtpx:hr>114</gpxtpx:hr></gpxtpx:TrackPointExtension></extensions></trkpt>
<trkpt lat="22.4045119" lon="114.2168069">
<ele>7</ele><time>2020-12-28T06:27:49.999Z</time><extensions><gpxtpx:TrackPointExtension><gpxtpx:hr>114</gpxtpx:hr></gpxtpx:TrackPointExtension></extensions></trkpt>
<trkpt lat="22.4044722" lon="114.2167854">
<ele>7</ele><time>2020-12-28T06:27:51.999Z</time><extensions><gpxtpx:TrackPointExtension><gpxtpx:hr>115</gpxtpx:hr></gpxtpx:TrackPointExtension></extensions></trkpt>
<trkpt lat="22.4044226" lon="114.2167425">
<ele>7</ele><time>2020-12-28T06:27:53.999Z</time><extensions><gpxtpx:TrackPointExtension><gpxtpx:hr>115</gpxtpx:hr></gpxtpx:TrackPointExtension></extensions></trkpt>
<trkpt lat="22.4043830" lon="114.2166996">
<ele>7</ele><time>2020-12-28T06:27:55.999Z</time><extensions><gpxtpx:TrackPointExtension><gpxtpx:hr>115</gpxtpx:hr></gpxtpx:TrackPointExtension></extensions></trkpt>
<trkpt lat="22.4043433" lon="114.2166567">
<ele>7</ele><time>2020-12-28T06:27:57.999Z</time><extensions><gpxtpx:TrackPointExtension><gpxtpx:hr>111</gpxtpx:hr></gpxtpx:TrackPointExtension></extensions></trkpt>
<trkpt lat="22.4043036" lon="114.2166138">
<ele>7</ele><time>2020-12-28T06:27:59.999Z</time><extensions><gpxtpx:TrackPointExtension><gpxtpx:hr>111</gpxtpx:hr></gpxtpx:TrackPointExtension></extensions></trkpt>
<trkpt lat="22.4042639" lon="114.2165709">
<ele>7</ele><time>2020-12-28T06:28:01.999Z</time><extensions><gpxtpx:TrackPointExtension><gpxtpx:hr>112</gpxtpx:hr></gpxtpx:TrackPointExtension></extensions></trkpt>
<trkpt lat="22.4042243" lon="114.2165279">
<ele>7</ele><time>2020-12-28T06:28:03.999Z</time><extensions><gpxtpx:TrackPointExtension><gpxtpx:hr>112</gpxtpx:hr></gpxtpx:TrackPointExtension></extensions></trkpt>
<trkpt lat="22.4041846" lon="114.2165065">
<ele>7</ele><time>2020-12-28T06:28:05.999Z</time><extensions><gpxtpx:TrackPointExtension><gpxtpx:hr>112</gpxtpx:hr></gpxtpx:TrackPointExtension></extensions></trkpt>
<trkpt lat="22.4041251" lon="114.2164421">
<ele>7</ele><time>2020-12-28T06:28:07.999Z</time><extensions><gpxtpx:TrackPointExtension><gpxtpx:hr>113</gpxtpx:hr></gpxtpx:TrackPointExtension></extensions></trkpt>
<trkpt lat="22.4040655" lon="114.2163777">
<ele>7</ele><time>2020-12-28T06:28:09.999Z</time><extensions><gpxtpx:TrackPointExtension><gpxtpx:hr>113</gpxtpx:hr></gpxtpx:TrackPointExtension></extensions></trkpt>
<trkpt lat="22.4040060" lon="114.2163348">
<ele>7</ele><time>2020-12-28T06:28:11.999Z</time><extensions><gpxtpx:TrackPointExtension><gpxtpx:hr>112</gpxtpx:hr></gpxtpx:TrackPointExtension></extensions></trkpt>
<trkpt lat="22.4039564" lon="114.2162704">
<ele>7</ele><time>2020-12-28T06:28:13.999Z</time><extensions><gpxtpx:TrackPointExtension><gpxtpx:hr>112</gpxtpx:hr></gpxtpx:TrackPointExtension></extensions></trkpt>
<trkpt lat="22.4039068" lon="114.2162275">
<ele>7</ele><time>2020-12-28T06:28:15.999Z</time><extensions><gpxtpx:TrackPointExtension><gpxtpx:hr>112</gpxtpx:hr></gpxtpx:TrackPointExtension></extensions></trkpt>
<trkpt lat="22.4038672" lon="114.2161846">
<ele>7</ele><time>2020-12-28T06:28:17.999Z</time><extensions><gpxtpx:TrackPointExtension><gpxtpx:hr>114</gpxtpx:hr></gpxtpx:TrackPointExtension></extensions></trkpt>
<trkpt lat="22.4038275" lon="114.2161417">
<ele>7</ele><time>2020-12-28T06:28:19.999Z</time><extensions><gpxtpx:TrackPointExtension><gpxtpx:hr>114</gpxtpx:hr></gpxtpx:TrackPointExtension></extensions></trkpt>
<trkpt lat="22.4037878" lon="114.2160988">
<ele>7</ele><time>2020-12-28T06:28:21.999Z</time><extensions><gpxtpx:TrackPointExtension><gpxtpx:hr>111</gpxtpx:hr></gpxtpx:TrackPointExtension></extensions></trkpt>
<trkpt lat="22.4037382" lon="114.2160559">
<ele>7</ele><time>2020-12-28T06:28:23.999Z</time><extensions><gpxtpx:TrackPointExtension><gpxtpx:hr>111</gpxtpx:hr></gpxtpx:TrackPointExtension></extensions></trkpt>
<trkpt lat="22.4036985" lon="114.2160130">
<ele>7</ele><time>2020-12-28T06:28:25.999Z</time><extensions><gpxtpx:TrackPointExtension><gpxtpx:hr>111</gpxtpx:hr></gpxtpx:TrackPointExtension></extensions></trkpt>
<trkpt lat="22.4036589" lon="114.2159700">
<ele>7</ele><time>2020-12-28T06:28:27.999Z</time><extensions><gpxtpx:TrackPointExtension><gpxtpx:hr>111</gpxtpx:hr></gpxtpx:TrackPointExtension></extensions></trkpt>
<trkpt lat="22.4035994" lon="114.2159271">
<ele>7</ele><time>2020-12-28T06:28:29.999Z</time><extensions><gpxtpx:TrackPointExtension><gpxtpx:hr>111</gpxtpx:hr></gpxtpx:TrackPointExtension></extensions></trkpt>
<trkpt lat="22.4035498" lon="114.2158842">
<ele>7</ele><time>2020-12-28T06:28:31.999Z</time><extensions><gpxtpx:TrackPointExtension><gpxtpx:hr>113</gpxtpx:hr></gpxtpx:TrackPointExtension></extensions></trkpt>
<trkpt lat="22.4035200" lon="114.2158413">
<ele>7</ele><time>2020-12-28T06:28:32.999Z</time><extensions><gpxtpx:TrackPointExtension><gpxtpx:hr>113</gpxtpx:hr></gpxtpx:TrackPointExtension></extensions></trkpt>
<trkpt lat="22.4034704" lon="114.2157984">
<ele>7</ele><time>2020-12-28T06:28:34.999Z</time><extensions><gpxtpx:TrackPointExtension><gpxtpx:hr>113</gpxtpx:hr></gpxtpx:TrackPointExtension></extensions></trkpt>
<trkpt lat="22.4034208" lon="114.2157340">
<ele>7</ele><time>2020-12-28T06:28:36.999Z</time><extensions><gpxtpx:TrackPointExtension><gpxtpx:hr>115</gpxtpx:hr></gpxtpx:TrackPointExtension></extensions></trkpt>
<trkpt lat="22.4033712" lon="114.2157125">
<ele>7</ele><time>2020-12-28T06:28:38.999Z</time><extensions><gpxtpx:TrackPointExtension><gpxtpx:hr>115</gpxtpx:hr></gpxtpx:TrackPointExtension></extensions></trkpt>
<trkpt lat="22.4033514" lon="114.2156696">
<ele>7</ele><time>2020-12-28T06:28:39.999Z</time><extensions><gpxtpx:TrackPointExtension><gpxtpx:hr>115</gpxtpx:hr></gpxtpx:TrackPointExtension></extensions></trkpt>
<trkpt lat="22.4033018" lon="114.2156267">
<ele>7</ele><time>2020-12-28T06:28:41.999Z</time><extensions><gpxtpx:TrackPointExtension><gpxtpx:hr>115</gpxtpx:hr></gpxtpx:TrackPointExtension></extensions></trkpt>
<trkpt lat="22.4032522" lon="114.2155838">
<ele>7</ele><time>2020-12-28T06:28:43.999Z</time><extensions><gpxtpx:TrackPointExtension><gpxtpx:hr>115</gpxtpx:hr></gpxtpx:TrackPointExtension></extensions></trkpt>
<trkpt lat="22.4032125" lon="114.2155409">
<ele>7</ele><time>2020-12-28T06:28:45.999Z</time><extensions><gpxtpx:TrackPointExtension><gpxtpx:hr>115</gpxtpx:hr></gpxtpx:TrackPointExtension></extensions></trkpt>
<trkpt lat="22.4031728" lon="114.2154980">
<ele>7</ele><time>2020-12-28T06:28:47.999Z</time><extensions><gpxtpx:TrackPointExtension><gpxtpx:hr>115</gpxtpx:hr></gpxtpx:TrackPointExtension></extensions></trkpt>
<trkpt lat="22.4031332" lon="114.2154551">
<ele>7</ele><time>2020-12-28T06:28:49.999Z</time><extensions><gpxtpx:TrackPointExtension><gpxtpx:hr>115</gpxtpx:hr></gpxtpx:TrackPointExtension></extensions></trkpt>
<trkpt lat="22.4030935" lon="114.2154336">
<ele>7</ele><time>2020-12-28T06:28:51.999Z</time><extensions><gpxtpx:TrackPointExtension><gpxtpx:hr>115</gpxtpx:hr></gpxtpx:TrackPointExtension></extensions></trkpt>
<trkpt lat="22.4030439" lon="114.2153907">
<ele>7</ele><time>2020-12-28T06:28:53.999Z</time><extensions><gpxtpx:TrackPointExtension><gpxtpx:hr>115</gpxtpx:hr></gpxtpx:TrackPointExtension></extensions></trkpt>
<trkpt lat="22.4029943" lon="114.2153263">
<ele>7</ele><time>2020-12-28T06:28:55.999Z</time><extensions><gpxtpx:TrackPointExtension><gpxtpx:hr>115</gpxtpx:hr></gpxtpx:TrackPointExtension></extensions></trkpt>
<trkpt lat="22.4029447" lon="114.2152834">
<ele>7</ele><time>2020-12-28T06:28:57.999Z</time><extensions><gpxtpx:TrackPointExtension><gpxtpx:hr>118</gpxtpx:hr></gpxtpx:TrackPointExtension></extensions></trkpt>
<trkpt lat="22.4028852" lon="114.2152190">
<ele>7</ele><time>2020-12-28T06:28:59.999Z</time><extensions><gpxtpx:TrackPointExtension><gpxtpx:hr>118</gpxtpx:hr></gpxtpx:TrackPointExtension></extensions></trkpt>
<trkpt lat="22.4028356" lon="114.2151761">
<ele>7</ele><time>2020-12-28T06:29:01.999Z</time><extensions><gpxtpx:TrackPointExtension><gpxtpx:hr>118</gpxtpx:hr></gpxtpx:TrackPointExtension></extensions></trkpt>
<trkpt lat="22.4027860" lon="114.2151332">
<ele>7</ele><time>2020-12-28T06:29:03.999Z</time><extensions><gpxtpx:TrackPointExtension><gpxtpx:hr>118</gpxtpx:hr></gpxtpx:TrackPointExtension></extensions></trkpt>
<trkpt lat="22.4027463" lon="114.2150903">
<ele>7</ele><time>2020-12-28T06:29:05.999Z</time><extensions><gpxtpx:TrackPointExtension><gpxtpx:hr>119</gpxtpx:hr></gpxtpx:TrackPointExtension></extensions></trkpt>
<trkpt lat="22.4026967" lon="114.2150474">
<ele>7</ele><time>2020-12-28T06:29:07.999Z</time><extensions><gpxtpx:TrackPointExtension><gpxtpx:hr>119</gpxtpx:hr></gpxtpx:TrackPointExtension></extensions></trkpt>
<trkpt lat="22.4026570" lon="114.2150044">
<ele>7</ele><time>2020-12-28T06:29:09.999Z</time><extensions><gpxtpx:TrackPointExtension><gpxtpx:hr>119</gpxtpx:hr></gpxtpx:TrackPointExtension></extensions></trkpt>
<trkpt lat="22.4026174" lon="114.2149615">
<ele>7</ele><time>2020-12-28T06:29:11.999Z</time><extensions><gpxtpx:TrackPointExtension><gpxtpx:hr>118</gpxtpx:hr></gpxtpx:TrackPointExtension></extensions></trkpt>
<trkpt lat="22.4025777" lon="114.2149186">
<ele>7</ele><time>2020-12-28T06:29:13.999Z</time><extensions><gpxtpx:TrackPointExtension><gpxtpx:hr>118</gpxtpx:hr></gpxtpx:TrackPointExtension></extensions></trkpt>
<trkpt lat="22.4025281" lon="114.2148757">
<ele>7</ele><time>2020-12-28T06:29:15.999Z</time><extensions><gpxtpx:TrackPointExtension><gpxtpx:hr>119</gpxtpx:hr></gpxtpx:TrackPointExtension></extensions></trkpt>
<trkpt lat="22.4024983" lon="114.2148328">
<ele>7</ele><time>2020-12-28T06:29:17.999Z</time><extensions><gpxtpx:TrackPointExtension><gpxtpx:hr>119</gpxtpx:hr></gpxtpx:TrackPointExtension></extensions></trkpt>
<trkpt lat="22.4024587" lon="114.2148113">
<ele>7</ele><time>2020-12-28T06:29:19.999Z</time><extensions><gpxtpx:TrackPointExtension><gpxtpx:hr>119</gpxtpx:hr></gpxtpx:TrackPointExtension></extensions></trkpt>
<trkpt lat="22.4024190" lon="114.2147684">
<ele>7</ele><time>2020-12-28T06:29:21.999Z</time><extensions><gpxtpx:TrackPointExtension><gpxtpx:hr>120</gpxtpx:hr></gpxtpx:TrackPointExtension></extensions></trkpt>
<trkpt lat="22.4023694" lon="114.2147470">
<ele>7</ele><time>2020-12-28T06:29:23.999Z</time><extensions><gpxtpx:TrackPointExtension><gpxtpx:hr>120</gpxtpx:hr></gpxtpx:TrackPointExtension></extensions></trkpt>
<trkpt lat="22.4023396" lon="114.2147040">
<ele>7</ele><time>2020-12-28T06:29:26.998Z</time><extensions><gpxtpx:TrackPointExtension><gpxtpx:hr>120</gpxtpx:hr></gpxtpx:TrackPointExtension></extensions></trkpt>
<trkpt lat="22.4023000" lon="114.2146826">
<ele>8</ele><time>2020-12-28T06:29:29.998Z</time><extensions><gpxtpx:TrackPointExtension><gpxtpx:hr>120</gpxtpx:hr></gpxtpx:TrackPointExtension></extensions></trkpt>
<trkpt lat="22.4022603" lon="114.2146611">
<ele>8</ele><time>2020-12-28T06:29:31.998Z</time><extensions><gpxtpx:TrackPointExtension><gpxtpx:hr>121</gpxtpx:hr></gpxtpx:TrackPointExtension></extensions></trkpt>
<trkpt lat="22.4022206" lon="114.2146182">
<ele>8</ele><time>2020-12-28T06:29:33.998Z</time><extensions><gpxtpx:TrackPointExtension><gpxtpx:hr>121</gpxtpx:hr></gpxtpx:TrackPointExtension></extensions></trkpt>
<trkpt lat="22.4021908" lon="114.2145753">
<ele>8</ele><time>2020-12-28T06:29:37.000Z</time><extensions><gpxtpx:TrackPointExtension><gpxtpx:hr>122</gpxtpx:hr></gpxtpx:TrackPointExtension></extensions></trkpt>
<trkpt lat="22.4022107" lon="114.2145324">
<ele>8</ele><time>2020-12-28T06:29:42.000Z</time><extensions><gpxtpx:TrackPointExtension><gpxtpx:hr>123</gpxtpx:hr></gpxtpx:TrackPointExtension></extensions></trkpt>
<trkpt lat="22.4022504" lon="114.2145109">
<ele>9</ele><time>2020-12-28T06:30:06.000Z</time><extensions><gpxtpx:TrackPointExtension><gpxtpx:hr>122</gpxtpx:hr></gpxtpx:TrackPointExtension></extensions></trkpt>
<trkpt lat="22.4022702" lon="114.2144465">
<ele>9</ele><time>2020-12-28T06:30:12.999Z</time><extensions><gpxtpx:TrackPointExtension><gpxtpx:hr>120</gpxtpx:hr></gpxtpx:TrackPointExtension></extensions></trkpt>
<trkpt lat="22.4023000" lon="114.2144036">
<ele>9</ele><time>2020-12-28T06:30:14.999Z</time><extensions><gpxtpx:TrackPointExtension><gpxtpx:hr>120</gpxtpx:hr></gpxtpx:TrackPointExtension></extensions></trkpt>
<trkpt lat="22.4023297" lon="114.2143607">
<ele>9</ele><time>2020-12-28T06:30:16.999Z</time><extensions><gpxtpx:TrackPointExtension><gpxtpx:hr>121</gpxtpx:hr></gpxtpx:TrackPointExtension></extensions></trkpt>
<trkpt lat="22.4023694" lon="114.2143178">
<ele>9</ele><time>2020-12-28T06:30:19.999Z</time><extensions><gpxtpx:TrackPointExtension><gpxtpx:hr>121</gpxtpx:hr></gpxtpx:TrackPointExtension></extensions></trkpt>
<trkpt lat="22.4024091" lon="114.2142749">
<ele>9</ele><time>2020-12-28T06:30:22.999Z</time><extensions><gpxtpx:TrackPointExtension><gpxtpx:hr>121</gpxtpx:hr></gpxtpx:TrackPointExtension></extensions></trkpt>
<trkpt lat="22.4024190" lon="114.2142105">
<ele>9</ele><time>2020-12-28T06:30:25.999Z</time><extensions><gpxtpx:TrackPointExtension><gpxtpx:hr>122</gpxtpx:hr></gpxtpx:TrackPointExtension></extensions></trkpt>
<trkpt lat="22.4024487" lon="114.2141676">
<ele>9</ele><time>2020-12-28T06:30:29.999Z</time><extensions><gpxtpx:TrackPointExtension><gpxtpx:hr>122</gpxtpx:hr></gpxtpx:TrackPointExtension></extensions></trkpt>
<trkpt lat="22.4024785" lon="114.2141247">
<ele>9</ele><time>2020-12-28T06:30:32.999Z</time><extensions><gpxtpx:TrackPointExtension><gpxtpx:hr>122</gpxtpx:hr></gpxtpx:TrackPointExtension></extensions></trkpt>
<trkpt lat="22.4025380" lon="114.2141032">
<ele>9</ele><time>2020-12-28T06:30:36.999Z</time><extensions><gpxtpx:TrackPointExtension><gpxtpx:hr>121</gpxtpx:hr></gpxtpx:TrackPointExtension></extensions></trkpt>
<trkpt lat="22.4025777" lon="114.2141247">
<ele>9</ele><time>2020-12-28T06:30:39.999Z</time><extensions><gpxtpx:TrackPointExtension><gpxtpx:hr>121</gpxtpx:hr></gpxtpx:TrackPointExtension></extensions></trkpt>
<trkpt lat="22.4025380" lon="114.2141461">
<ele>9</ele><time>2020-12-28T06:35:42.999Z</time><extensions><gpxtpx:TrackPointExtension><gpxtpx:hr>112</gpxtpx:hr></gpxtpx:TrackPointExtension></extensions></trkpt>
<trkpt lat="22.4025678" lon="114.2141032">
<ele>10</ele><time>2020-12-28T06:38:33.999Z</time><extensions><gpxtpx:TrackPointExtension><gpxtpx:hr>98</gpxtpx:hr></gpxtpx:TrackPointExtension></extensions></trkpt>
<trkpt lat="22.4025479" lon="114.2141461">
<ele>10</ele><time>2020-12-28T06:39:01.999Z</time><extensions><gpxtpx:TrackPointExtension><gpxtpx:hr>112</gpxtpx:hr></gpxtpx:TrackPointExtension></extensions></trkpt>
<trkpt lat="22.4025678" lon="114.2141032">
<ele>10</ele><time>2020-12-28T06:39:15.999Z</time><extensions><gpxtpx:TrackPointExtension><gpxtpx:hr>107</gpxtpx:hr></gpxtpx:TrackPointExtension></extensions></trkpt>
<trkpt lat="22.4025380" lon="114.2141461">
<ele>10</ele><time>2020-12-28T06:39:27.999Z</time><extensions><gpxtpx:TrackPointExtension><gpxtpx:hr>109</gpxtpx:hr></gpxtpx:TrackPointExtension></extensions></trkpt>
<trkpt lat="22.4024983" lon="114.2142534">
<ele>10</ele><time>2020-12-28T06:40:52.999Z</time><extensions><gpxtpx:TrackPointExtension><gpxtpx:hr>122</gpxtpx:hr></gpxtpx:TrackPointExtension></extensions></trkpt>
<trkpt lat="22.4024587" lon="114.2143178">
<ele>10</ele><time>2020-12-28T06:40:53.999Z</time><extensions><gpxtpx:TrackPointExtension><gpxtpx:hr>122</gpxtpx:hr></gpxtpx:TrackPointExtension></extensions></trkpt>
<trkpt lat="22.4024091" lon="114.2143393">
<ele>10</ele><time>2020-12-28T06:40:54.999Z</time><extensions><gpxtpx:TrackPointExtension><gpxtpx:hr>122</gpxtpx:hr></gpxtpx:TrackPointExtension></extensions></trkpt>
<trkpt lat="22.4025281" lon="114.2141461">
<ele>10</ele><time>2020-12-28T06:40:55.999Z</time><extensions><gpxtpx:TrackPointExtension><gpxtpx:hr>122</gpxtpx:hr></gpxtpx:TrackPointExtension></extensions></trkpt>
<trkpt lat="22.4024983" lon="114.2141032">
<ele>10</ele><time>2020-12-28T06:42:17.999Z</time><extensions><gpxtpx:TrackPointExtension><gpxtpx:hr>110</gpxtpx:hr></gpxtpx:TrackPointExtension></extensions></trkpt>
<trkpt lat="22.4025182" lon="114.2140603">
<ele>10</ele><time>2020-12-28T06:42:20.999Z</time><extensions><gpxtpx:TrackPointExtension><gpxtpx:hr>110</gpxtpx:hr></gpxtpx:TrackPointExtension></extensions></trkpt>
<trkpt lat="22.4025479" lon="114.2140174">
<ele>9</ele><time>2020-12-28T06:42:22.999Z</time><extensions><gpxtpx:TrackPointExtension><gpxtpx:hr>108</gpxtpx:hr></gpxtpx:TrackPointExtension></extensions></trkpt>
<trkpt lat="22.4025876" lon="114.2139745">
<ele>9</ele><time>2020-12-28T06:42:40.999Z</time><extensions><gpxtpx:TrackPointExtension><gpxtpx:hr>110</gpxtpx:hr></gpxtpx:TrackPointExtension></extensions></trkpt>
<trkpt lat="22.4026174" lon="114.2139316">
<ele>9</ele><time>2020-12-28T06:42:48.999Z</time><extensions><gpxtpx:TrackPointExtension><gpxtpx:hr>111</gpxtpx:hr></gpxtpx:TrackPointExtension></extensions></trkpt>
<trkpt lat="22.4026471" lon="114.2138886">
<ele>9</ele><time>2020-12-28T06:42:56.999Z</time><extensions><gpxtpx:TrackPointExtension><gpxtpx:hr>115</gpxtpx:hr></gpxtpx:TrackPointExtension></extensions></trkpt>
<trkpt lat="22.4026769" lon="114.2138457">
<ele>9</ele><time>2020-12-28T06:43:00.999Z</time><extensions><gpxtpx:TrackPointExtension><gpxtpx:hr>115</gpxtpx:hr></gpxtpx:TrackPointExtension></extensions></trkpt>
<trkpt lat="22.4026471" lon="114.2138886">
<ele>10</ele><time>2020-12-28T06:44:37.999Z</time><extensions><gpxtpx:TrackPointExtension><gpxtpx:hr>106</gpxtpx:hr></gpxtpx:TrackPointExtension></extensions></trkpt>
<trkpt lat="22.4025975" lon="114.2139530">
<ele>10</ele><time>2020-12-28T06:44:40.999Z</time><extensions><gpxtpx:TrackPointExtension><gpxtpx:hr>106</gpxtpx:hr></gpxtpx:TrackPointExtension></extensions></trkpt>
<trkpt lat="22.4025579" lon="114.2139959">
<ele>11</ele><time>2020-12-28T06:44:42.999Z</time><extensions><gpxtpx:TrackPointExtension><gpxtpx:hr>106</gpxtpx:hr></gpxtpx:TrackPointExtension></extensions></trkpt>
<trkpt lat="22.4025182" lon="114.2140174">
<ele>11</ele><time>2020-12-28T06:44:44.999Z</time><extensions><gpxtpx:TrackPointExtension><gpxtpx:hr>106</gpxtpx:hr></gpxtpx:TrackPointExtension></extensions></trkpt>
<trkpt lat="22.4025579" lon="114.2139959">
<ele>11</ele><time>2020-12-28T06:44:55.999Z</time><extensions><gpxtpx:TrackPointExtension><gpxtpx:hr>107</gpxtpx:hr></gpxtpx:TrackPointExtension></extensions></trkpt>
<trkpt lat="22.4025876" lon="114.2140388">
<ele>11</ele><time>2020-12-28T06:44:59.999Z</time><extensions><gpxtpx:TrackPointExtension><gpxtpx:hr>107</gpxtpx:hr></gpxtpx:TrackPointExtension></extensions></trkpt>
<trkpt lat="22.4025579" lon="114.2141032">
<ele>11</ele><time>2020-12-28T06:45:01.999Z</time><extensions><gpxtpx:TrackPointExtension><gpxtpx:hr>107</gpxtpx:hr></gpxtpx:TrackPointExtension></extensions></trkpt>
<trkpt lat="22.4025083" lon="114.2141676">
<ele>11</ele><time>2020-12-28T06:45:03.999Z</time><extensions><gpxtpx:TrackPointExtension><gpxtpx:hr>107</gpxtpx:hr></gpxtpx:TrackPointExtension></extensions></trkpt>
<trkpt lat="22.4024686" lon="114.2142105">
<ele>11</ele><time>2020-12-28T06:45:04.999Z</time><extensions><gpxtpx:TrackPointExtension><gpxtpx:hr>107</gpxtpx:hr></gpxtpx:TrackPointExtension></extensions></trkpt>
<trkpt lat="22.4024388" lon="114.2142534">
<ele>11</ele><time>2020-12-28T06:45:05.999Z</time><extensions><gpxtpx:TrackPointExtension><gpxtpx:hr>107</gpxtpx:hr></gpxtpx:TrackPointExtension></extensions></trkpt>
<trkpt lat="22.4023991" lon="114.2142963">
<ele>11</ele><time>2020-12-28T06:45:06.999Z</time><extensions><gpxtpx:TrackPointExtension><gpxtpx:hr>121</gpxtpx:hr></gpxtpx:TrackPointExtension></extensions></trkpt>
<trkpt lat="22.4023297" lon="114.2143607">
<ele>11</ele><time>2020-12-28T06:45:08.999Z</time><extensions><gpxtpx:TrackPointExtension><gpxtpx:hr>121</gpxtpx:hr></gpxtpx:TrackPointExtension></extensions></trkpt>
<trkpt lat="22.4023000" lon="114.2144036">
<ele>11</ele><time>2020-12-28T06:45:09.999Z</time><extensions><gpxtpx:TrackPointExtension><gpxtpx:hr>121</gpxtpx:hr></gpxtpx:TrackPointExtension></extensions></trkpt>
<trkpt lat="22.4022801" lon="114.2144465">
<ele>10</ele><time>2020-12-28T06:45:10.999Z</time><extensions><gpxtpx:TrackPointExtension><gpxtpx:hr>121</gpxtpx:hr></gpxtpx:TrackPointExtension></extensions></trkpt>
<trkpt lat="22.4022206" lon="114.2144895">
<ele>10</ele><time>2020-12-28T06:45:12.999Z</time><extensions><gpxtpx:TrackPointExtension><gpxtpx:hr>121</gpxtpx:hr></gpxtpx:TrackPointExtension></extensions></trkpt>
<trkpt lat="22.4021710" lon="114.2145109">
<ele>10</ele><time>2020-12-28T06:45:14.999Z</time><extensions><gpxtpx:TrackPointExtension><gpxtpx:hr>121</gpxtpx:hr></gpxtpx:TrackPointExtension></extensions></trkpt>
<trkpt lat="22.4021214" lon="114.2145109">
<ele>10</ele><time>2020-12-28T06:45:17.999Z</time><extensions><gpxtpx:TrackPointExtension><gpxtpx:hr>121</gpxtpx:hr></gpxtpx:TrackPointExtension></extensions></trkpt>
<trkpt lat="22.4020817" lon="114.2144465">
<ele>10</ele><time>2020-12-28T06:45:20.999Z</time><extensions><gpxtpx:TrackPointExtension><gpxtpx:hr>121</gpxtpx:hr></gpxtpx:TrackPointExtension></extensions></trkpt>
<trkpt lat="22.4020718" lon="114.2143822">
<ele>10</ele><time>2020-12-28T06:45:22.999Z</time><extensions><gpxtpx:TrackPointExtension><gpxtpx:hr>121</gpxtpx:hr></gpxtpx:TrackPointExtension></extensions></trkpt>
<trkpt lat="22.4021115" lon="114.2142963">
<ele>10</ele><time>2020-12-28T06:45:24.999Z</time><extensions><gpxtpx:TrackPointExtension><gpxtpx:hr>121</gpxtpx:hr></gpxtpx:TrackPointExtension></extensions></trkpt>
<trkpt lat="22.4021412" lon="114.2142534">
<ele>10</ele><time>2020-12-28T06:45:25.999Z</time><extensions><gpxtpx:TrackPointExtension><gpxtpx:hr>121</gpxtpx:hr></gpxtpx:TrackPointExtension></extensions></trkpt>
<trkpt lat="22.4021809" lon="114.2142105">
<ele>10</ele><time>2020-12-28T06:45:26.999Z</time><extensions><gpxtpx:TrackPointExtension><gpxtpx:hr>121</gpxtpx:hr></gpxtpx:TrackPointExtension></extensions></trkpt>
<trkpt lat="22.4022206" lon="114.2141676">
<ele>10</ele><time>2020-12-28T06:45:27.999Z</time><extensions><gpxtpx:TrackPointExtension><gpxtpx:hr>121</gpxtpx:hr></gpxtpx:TrackPointExtension></extensions></trkpt>
<trkpt lat="22.4022603" lon="114.2141247">
<ele>10</ele><time>2020-12-28T06:45:28.999Z</time><extensions><gpxtpx:TrackPointExtension><gpxtpx:hr>121</gpxtpx:hr></gpxtpx:TrackPointExtension></extensions></trkpt>
<trkpt lat="22.4023099" lon="114.2140818">
<ele>10</ele><time>2020-12-28T06:45:29.999Z</time><extensions><gpxtpx:TrackPointExtension><gpxtpx:hr>121</gpxtpx:hr></gpxtpx:TrackPointExtension></extensions></trkpt>
<trkpt lat="22.4023495" lon="114.2140388">
<ele>10</ele><time>2020-12-28T06:45:30.999Z</time><extensions><gpxtpx:TrackPointExtension><gpxtpx:hr>121</gpxtpx:hr></gpxtpx:TrackPointExtension></extensions></trkpt>
<trkpt lat="22.4023793" lon="114.2139959">
<ele>10</ele><time>2020-12-28T06:45:31.999Z</time><extensions><gpxtpx:TrackPointExtension><gpxtpx:hr>121</gpxtpx:hr></gpxtpx:TrackPointExtension></extensions></trkpt>
<trkpt lat="22.4024091" lon="114.2139530">
<ele>10</ele><time>2020-12-28T06:45:32.999Z</time><extensions><gpxtpx:TrackPointExtension><gpxtpx:hr>121</gpxtpx:hr></gpxtpx:TrackPointExtension></extensions></trkpt>
<trkpt lat="22.4024487" lon="114.2139101">
<ele>10</ele><time>2020-12-28T06:45:33.999Z</time><extensions><gpxtpx:TrackPointExtension><gpxtpx:hr>121</gpxtpx:hr></gpxtpx:TrackPointExtension></extensions></trkpt>
<trkpt lat="22.4024785" lon="114.2138672">
<ele>10</ele><time>2020-12-28T06:45:34.999Z</time><extensions><gpxtpx:TrackPointExtension><gpxtpx:hr>121</gpxtpx:hr></gpxtpx:TrackPointExtension></extensions></trkpt>
<trkpt lat="22.4025182" lon="114.2138243">
<ele>10</ele><time>2020-12-28T06:45:35.999Z</time><extensions><gpxtpx:TrackPointExtension><gpxtpx:hr>121</gpxtpx:hr></gpxtpx:TrackPointExtension></extensions></trkpt>
<trkpt lat="22.4025479" lon="114.2137814">
<ele>10</ele><time>2020-12-28T06:45:36.999Z</time><extensions><gpxtpx:TrackPointExtension><gpxtpx:hr>121</gpxtpx:hr></gpxtpx:TrackPointExtension></extensions></trkpt>
<trkpt lat="22.4025678" lon="114.2137384">
<ele>10</ele><time>2020-12-28T06:45:37.999Z</time><extensions><gpxtpx:TrackPointExtension><gpxtpx:hr>121</gpxtpx:hr></gpxtpx:TrackPointExtension></extensions></trkpt>
<trkpt lat="22.4026074" lon="114.2137170">
<ele>10</ele><time>2020-12-28T06:45:38.999Z</time><extensions><gpxtpx:TrackPointExtension><gpxtpx:hr>121</gpxtpx:hr></gpxtpx:TrackPointExtension></extensions></trkpt>
<trkpt lat="22.4026471" lon="114.2136741">
<ele>10</ele><time>2020-12-28T06:45:39.999Z</time><extensions><gpxtpx:TrackPointExtension><gpxtpx:hr>121</gpxtpx:hr></gpxtpx:TrackPointExtension></extensions></trkpt>
<trkpt lat="22.4026769" lon="114.2136312">
<ele>10</ele><time>2020-12-28T06:45:40.999Z</time><extensions><gpxtpx:TrackPointExtension><gpxtpx:hr>121</gpxtpx:hr></gpxtpx:TrackPointExtension></extensions></trkpt>
<trkpt lat="22.4027166" lon="114.2135882">
<ele>10</ele><time>2020-12-28T06:45:41.999Z</time><extensions><gpxtpx:TrackPointExtension><gpxtpx:hr>121</gpxtpx:hr></gpxtpx:TrackPointExtension></extensions></trkpt>
<trkpt lat="22.4027562" lon="114.2135453">
<ele>10</ele><time>2020-12-28T06:45:42.999Z</time><extensions><gpxtpx:TrackPointExtension><gpxtpx:hr>121</gpxtpx:hr></gpxtpx:TrackPointExtension></extensions></trkpt>
<trkpt lat="22.4027761" lon="114.2135024">
<ele>10</ele><time>2020-12-28T06:45:43.999Z</time><extensions><gpxtpx:TrackPointExtension><gpxtpx:hr>121</gpxtpx:hr></gpxtpx:TrackPointExtension></extensions></trkpt>
<trkpt lat="22.4028058" lon="114.2134380">
<ele>10</ele><time>2020-12-28T06:45:44.999Z</time><extensions><gpxtpx:TrackPointExtension><gpxtpx:hr>121</gpxtpx:hr></gpxtpx:TrackPointExtension></extensions></trkpt>
<trkpt lat="22.4028455" lon="114.2133951">
<ele>10</ele><time>2020-12-28T06:45:45.999Z</time><extensions><gpxtpx:TrackPointExtension><gpxtpx:hr>121</gpxtpx:hr></gpxtpx:TrackPointExtension></extensions></trkpt>
<trkpt lat="22.4028951" lon="114.2133522">
<ele>10</ele><time>2020-12-28T06:45:46.999Z</time><extensions><gpxtpx:TrackPointExtension><gpxtpx:hr>121</gpxtpx:hr></gpxtpx:TrackPointExtension></extensions></trkpt>
<trkpt lat="22.4029348" lon="114.2133093">
<ele>10</ele><time>2020-12-28T06:45:47.999Z</time><extensions><gpxtpx:TrackPointExtension><gpxtpx:hr>121</gpxtpx:hr></gpxtpx:TrackPointExtension></extensions></trkpt>
<trkpt lat="22.4029745" lon="114.2132664">
<ele>10</ele><time>2020-12-28T06:45:48.999Z</time><extensions><gpxtpx:TrackPointExtension><gpxtpx:hr>121</gpxtpx:hr></gpxtpx:TrackPointExtension></extensions></trkpt>
<trkpt lat="22.4030141" lon="114.2132020">
<ele>10</ele><time>2020-12-28T06:45:49.999Z</time><extensions><gpxtpx:TrackPointExtension><gpxtpx:hr>121</gpxtpx:hr></gpxtpx:TrackPointExtension></extensions></trkpt>
<trkpt lat="22.4030538" lon="114.2131591">
<ele>10</ele><time>2020-12-28T06:45:50.999Z</time><extensions><gpxtpx:TrackPointExtension><gpxtpx:hr>121</gpxtpx:hr></gpxtpx:TrackPointExtension></extensions></trkpt>
<trkpt lat="22.4030836" lon="114.2131162">
<ele>10</ele><time>2020-12-28T06:45:51.999Z</time><extensions><gpxtpx:TrackPointExtension><gpxtpx:hr>121</gpxtpx:hr></gpxtpx:TrackPointExtension></extensions></trkpt>
<trkpt lat="22.4031232" lon="114.2130733">
<ele>10</ele><time>2020-12-28T06:45:52.999Z</time><extensions><gpxtpx:TrackPointExtension><gpxtpx:hr>121</gpxtpx:hr></gpxtpx:TrackPointExtension></extensions></trkpt>
<trkpt lat="22.4031530" lon="114.2130303">
<ele>10</ele><time>2020-12-28T06:45:53.999Z</time><extensions><gpxtpx:TrackPointExtension><gpxtpx:hr>121</gpxtpx:hr></gpxtpx:TrackPointExtension></extensions></trkpt>
<trkpt lat="22.4032125" lon="114.2129660">
<ele>10</ele><time>2020-12-28T06:45:55.999Z</time><extensions><gpxtpx:TrackPointExtension><gpxtpx:hr>121</gpxtpx:hr></gpxtpx:TrackPointExtension></extensions></trkpt>
<trkpt lat="22.4032522" lon="114.2129230">
<ele>10</ele><time>2020-12-28T06:45:56.999Z</time><extensions><gpxtpx:TrackPointExtension><gpxtpx:hr>121</gpxtpx:hr></gpxtpx:TrackPointExtension></extensions></trkpt>
<trkpt lat="22.4033018" lon="114.2128587">
<ele>10</ele><time>2020-12-28T06:45:58.998Z</time><extensions><gpxtpx:TrackPointExtension><gpxtpx:hr>121</gpxtpx:hr></gpxtpx:TrackPointExtension></extensions></trkpt>
<trkpt lat="22.4033514" lon="114.2127943">
<ele>10</ele><time>2020-12-28T06:46:00.998Z</time><extensions><gpxtpx:TrackPointExtension><gpxtpx:hr>121</gpxtpx:hr></gpxtpx:TrackPointExtension></extensions></trkpt>
<trkpt lat="22.4034010" lon="114.2127299">
<ele>10</ele><time>2020-12-28T06:46:02.998Z</time><extensions><gpxtpx:TrackPointExtension><gpxtpx:hr>121</gpxtpx:hr></gpxtpx:TrackPointExtension></extensions></trkpt>
<trkpt lat="22.4034605" lon="114.2126870">
<ele>10</ele><time>2020-12-28T06:46:04.998Z</time><extensions><gpxtpx:TrackPointExtension><gpxtpx:hr>121</gpxtpx:hr></gpxtpx:TrackPointExtension></extensions></trkpt>
<trkpt lat="22.4035101" lon="114.2126226">
<ele>10</ele><time>2020-12-28T06:46:06.998Z</time><extensions><gpxtpx:TrackPointExtension><gpxtpx:hr>121</gpxtpx:hr></gpxtpx:TrackPointExtension></extensions></trkpt>
<trkpt lat="22.4035398" lon="114.2125797">
<ele>10</ele><time>2020-12-28T06:46:07.998Z</time><extensions><gpxtpx:TrackPointExtension><gpxtpx:hr>121</gpxtpx:hr></gpxtpx:TrackPointExtension></extensions></trkpt>
<trkpt lat="22.4035696" lon="114.2125368">
<ele>10</ele><time>2020-12-28T06:46:08.998Z</time><extensions><gpxtpx:TrackPointExtension><gpxtpx:hr>121</gpxtpx:hr></gpxtpx:TrackPointExtension></extensions></trkpt>
<trkpt lat="22.4036390" lon="114.2124724">
<ele>10</ele><time>2020-12-28T06:46:10.998Z</time><extensions><gpxtpx:TrackPointExtension><gpxtpx:hr>121</gpxtpx:hr></gpxtpx:TrackPointExtension></extensions></trkpt>
<trkpt lat="22.4036787" lon="114.2124081">
<ele>10</ele><time>2020-12-28T06:46:12.998Z</time><extensions><gpxtpx:TrackPointExtension><gpxtpx:hr>121</gpxtpx:hr></gpxtpx:TrackPointExtension></extensions></trkpt>
<trkpt lat="22.4037184" lon="114.2123652">
<ele>10</ele><time>2020-12-28T06:46:14.998Z</time><extensions><gpxtpx:TrackPointExtension><gpxtpx:hr>121</gpxtpx:hr></gpxtpx:TrackPointExtension></extensions></trkpt>
<trkpt lat="22.4037581" lon="114.2123222">
<ele>10</ele><time>2020-12-28T06:46:16.998Z</time><extensions><gpxtpx:TrackPointExtension><gpxtpx:hr>121</gpxtpx:hr></gpxtpx:TrackPointExtension></extensions></trkpt>
<trkpt lat="22.4037779" lon="114.2122793">
<ele>10</ele><time>2020-12-28T06:46:17.998Z</time><extensions><gpxtpx:TrackPointExtension><gpxtpx:hr>121</gpxtpx:hr></gpxtpx:TrackPointExtension></extensions></trkpt>
<trkpt lat="22.4038374" lon="114.2122149">
<ele>10</ele><time>2020-12-28T06:46:19.998Z</time><extensions><gpxtpx:TrackPointExtension><gpxtpx:hr>121</gpxtpx:hr></gpxtpx:TrackPointExtension></extensions></trkpt>
<trkpt lat="22.4038771" lon="114.2121720">
<ele>10</ele><time>2020-12-28T06:46:21.998Z</time><extensions><gpxtpx:TrackPointExtension><gpxtpx:hr>121</gpxtpx:hr></gpxtpx:TrackPointExtension></extensions></trkpt>
<trkpt lat="22.4039168" lon="114.2121291">
<ele>10</ele><time>2020-12-28T06:46:23.999Z</time><extensions><gpxtpx:TrackPointExtension><gpxtpx:hr>121</gpxtpx:hr></gpxtpx:TrackPointExtension></extensions></trkpt>
<trkpt lat="22.4039564" lon="114.2120647">
<ele>10</ele><time>2020-12-28T06:46:25.999Z</time><extensions><gpxtpx:TrackPointExtension><gpxtpx:hr>121</gpxtpx:hr></gpxtpx:TrackPointExtension></extensions></trkpt>
<trkpt lat="22.4039862" lon="114.2120218">
<ele>10</ele><time>2020-12-28T06:46:26.999Z</time><extensions><gpxtpx:TrackPointExtension><gpxtpx:hr>121</gpxtpx:hr></gpxtpx:TrackPointExtension></extensions></trkpt>
<trkpt lat="22.4040259" lon="114.2120004">
<ele>10</ele><time>2020-12-28T06:46:27.999Z</time><extensions><gpxtpx:TrackPointExtension><gpxtpx:hr>121</gpxtpx:hr></gpxtpx:TrackPointExtension></extensions></trkpt>
<trkpt lat="22.4040556" lon="114.2119575">
<ele>10</ele><time>2020-12-28T06:46:28.999Z</time><extensions><gpxtpx:TrackPointExtension><gpxtpx:hr>121</gpxtpx:hr></gpxtpx:TrackPointExtension></extensions></trkpt>
<trkpt lat="22.4040854" lon="114.2119145">
<ele>10</ele><time>2020-12-28T06:46:29.999Z</time><extensions><gpxtpx:TrackPointExtension><gpxtpx:hr>121</gpxtpx:hr></gpxtpx:TrackPointExtension></extensions></trkpt>
<trkpt lat="22.4041052" lon="114.2118716">
<ele>10</ele><time>2020-12-28T06:46:30.999Z</time><extensions><gpxtpx:TrackPointExtension><gpxtpx:hr>121</gpxtpx:hr></gpxtpx:TrackPointExtension></extensions></trkpt>
<trkpt lat="22.4041449" lon="114.2118287">
<ele>10</ele><time>2020-12-28T06:46:32.999Z</time><extensions><gpxtpx:TrackPointExtension><gpxtpx:hr>121</gpxtpx:hr></gpxtpx:TrackPointExtension></extensions></trkpt>
<trkpt lat="22.4041747" lon="114.2117858">
<ele>10</ele><time>2020-12-28T06:46:34.999Z</time><extensions><gpxtpx:TrackPointExtension><gpxtpx:hr>121</gpxtpx:hr></gpxtpx:TrackPointExtension></extensions></trkpt>
<trkpt lat="22.4042143" lon="114.2117429">
<ele>10</ele><time>2020-12-28T06:46:36.999Z</time><extensions><gpxtpx:TrackPointExtension><gpxtpx:hr>121</gpxtpx:hr></gpxtpx:TrackPointExtension></extensions></trkpt>
<trkpt lat="22.4042342" lon="114.2117000">
<ele>10</ele><time>2020-12-28T06:46:37.999Z</time><extensions><gpxtpx:TrackPointExtension><gpxtpx:hr>121</gpxtpx:hr></gpxtpx:TrackPointExtension></extensions></trkpt>
<trkpt lat="22.4042838" lon="114.2116570">
<ele>10</ele><time>2020-12-28T06:46:39.999Z</time><extensions><gpxtpx:TrackPointExtension><gpxtpx:hr>121</gpxtpx:hr></gpxtpx:TrackPointExtension></extensions></trkpt>
<trkpt lat="22.4043334" lon="114.2115927">
<ele>10</ele><time>2020-12-28T06:46:41.999Z</time><extensions><gpxtpx:TrackPointExtension><gpxtpx:hr>121</gpxtpx:hr></gpxtpx:TrackPointExtension></extensions></trkpt>
<trkpt lat="22.4043830" lon="114.2115498">
<ele>9</ele><time>2020-12-28T06:46:43.999Z</time><extensions><gpxtpx:TrackPointExtension><gpxtpx:hr>121</gpxtpx:hr></gpxtpx:TrackPointExtension></extensions></trkpt>
<trkpt lat="22.4044226" lon="114.2114854">
<ele>9</ele><time>2020-12-28T06:46:45.999Z</time><extensions><gpxtpx:TrackPointExtension><gpxtpx:hr>121</gpxtpx:hr></gpxtpx:TrackPointExtension></extensions></trkpt>
<trkpt lat="22.4044722" lon="114.2114425">
<ele>9</ele><time>2020-12-28T06:46:47.999Z</time><extensions><gpxtpx:TrackPointExtension><gpxtpx:hr>121</gpxtpx:hr></gpxtpx:TrackPointExtension></extensions></trkpt>
<trkpt lat="22.4045020" lon="114.2113996">
<ele>9</ele><time>2020-12-28T06:46:49.999Z</time><extensions><gpxtpx:TrackPointExtension><gpxtpx:hr>121</gpxtpx:hr></gpxtpx:TrackPointExtension></extensions></trkpt>
<trkpt lat="22.4045417" lon="114.2113566">
<ele>9</ele><time>2020-12-28T06:46:51.999Z</time><extensions><gpxtpx:TrackPointExtension><gpxtpx:hr>121</gpxtpx:hr></gpxtpx:TrackPointExtension></extensions></trkpt>
<trkpt lat="22.4045913" lon="114.2112923">
<ele>9</ele><time>2020-12-28T06:46:54.999Z</time><extensions><gpxtpx:TrackPointExtension><gpxtpx:hr>121</gpxtpx:hr></gpxtpx:TrackPointExtension></extensions></trkpt>
<trkpt lat="22.4046309" lon="114.2112494">
<ele>9</ele><time>2020-12-28T06:46:56.999Z</time><extensions><gpxtpx:TrackPointExtension><gpxtpx:hr>121</gpxtpx:hr></gpxtpx:TrackPointExtension></extensions></trkpt>
<trkpt lat="22.4046706" lon="114.2112064">
<ele>9</ele><time>2020-12-28T06:46:58.999Z</time><extensions><gpxtpx:TrackPointExtension><gpxtpx:hr>121</gpxtpx:hr></gpxtpx:TrackPointExtension></extensions></trkpt>
<trkpt lat="22.4047004" lon="114.2111635">
<ele>9</ele><time>2020-12-28T06:47:00.999Z</time><extensions><gpxtpx:TrackPointExtension><gpxtpx:hr>121</gpxtpx:hr></gpxtpx:TrackPointExtension></extensions></trkpt>
<trkpt lat="22.4047400" lon="114.2111206">
<ele>9</ele><time>2020-12-28T06:47:02.999Z</time><extensions><gpxtpx:TrackPointExtension><gpxtpx:hr>121</gpxtpx:hr></gpxtpx:TrackPointExtension></extensions></trkpt>
<trkpt lat="22.4047797" lon="114.2110777">
<ele>9</ele><time>2020-12-28T06:47:04.999Z</time><extensions><gpxtpx:TrackPointExtension><gpxtpx:hr>121</gpxtpx:hr></gpxtpx:TrackPointExtension></extensions></trkpt>
<trkpt lat="22.4048194" lon="114.2110348">
<ele>9</ele><time>2020-12-28T06:47:06.999Z</time><extensions><gpxtpx:TrackPointExtension><gpxtpx:hr>121</gpxtpx:hr></gpxtpx:TrackPointExtension></extensions></trkpt>
<trkpt lat="22.4048491" lon="114.2109919">
<ele>9</ele><time>2020-12-28T06:47:08.999Z</time><extensions><gpxtpx:TrackPointExtension><gpxtpx:hr>121</gpxtpx:hr></gpxtpx:TrackPointExtension></extensions></trkpt>
<trkpt lat="22.4048888" lon="114.2109489">
<ele>9</ele><time>2020-12-28T06:47:10.999Z</time><extensions><gpxtpx:TrackPointExtension><gpxtpx:hr>121</gpxtpx:hr></gpxtpx:TrackPointExtension></extensions></trkpt>
<trkpt lat="22.4049285" lon="114.2109060">
<ele>9</ele><time>2020-12-28T06:47:12.999Z</time><extensions><gpxtpx:TrackPointExtension><gpxtpx:hr>121</gpxtpx:hr></gpxtpx:TrackPointExtension></extensions></trkpt>
<trkpt lat="22.4049583" lon="114.2108631">
<ele>9</ele><time>2020-12-28T06:47:14.999Z</time><extensions><gpxtpx:TrackPointExtension><gpxtpx:hr>121</gpxtpx:hr></gpxtpx:TrackPointExtension></extensions></trkpt>
<trkpt lat="22.4049979" lon="114.2108202">
<ele>9</ele><time>2020-12-28T06:47:16.999Z</time><extensions><gpxtpx:TrackPointExtension><gpxtpx:hr>121</gpxtpx:hr></gpxtpx:TrackPointExtension></extensions></trkpt>
<trkpt lat="22.4050475" lon="114.2107773">
<ele>9</ele><time>2020-12-28T06:47:18.999Z</time><extensions><gpxtpx:TrackPointExtension><gpxtpx:hr>121</gpxtpx:hr></gpxtpx:TrackPointExtension></extensions></trkpt>
<trkpt lat="22.4050674" lon="114.2107344">
<ele>9</ele><time>2020-12-28T06:47:19.999Z</time><extensions><gpxtpx:TrackPointExtension><gpxtpx:hr>121</gpxtpx:hr></gpxtpx:TrackPointExtension></extensions></trkpt>
<trkpt lat="22.4051170" lon="114.2106915">
<ele>9</ele><time>2020-12-28T06:47:21.999Z</time><extensions><gpxtpx:TrackPointExtension><gpxtpx:hr>121</gpxtpx:hr></gpxtpx:TrackPointExtension></extensions></trkpt>
<trkpt lat="22.4051566" lon="114.2106485">
<ele>9</ele><time>2020-12-28T06:47:23.999Z</time><extensions><gpxtpx:TrackPointExtension><gpxtpx:hr>121</gpxtpx:hr></gpxtpx:TrackPointExtension></extensions></trkpt>
<trkpt lat="22.4051765" lon="114.2106056">
<ele>9</ele><time>2020-12-28T06:47:24.999Z</time><extensions><gpxtpx:TrackPointExtension><gpxtpx:hr>121</gpxtpx:hr></gpxtpx:TrackPointExtension></extensions></trkpt>
<trkpt lat="22.4052161" lon="114.2105412">
<ele>9</ele><time>2020-12-28T06:47:26.999Z</time><extensions><gpxtpx:TrackPointExtension><gpxtpx:hr>121</gpxtpx:hr></gpxtpx:TrackPointExtension></extensions></trkpt>
<trkpt lat="22.4052558" lon="114.2104983">
<ele>9</ele><time>2020-12-28T06:47:28.999Z</time><extensions><gpxtpx:TrackPointExtension><gpxtpx:hr>121</gpxtpx:hr></gpxtpx:TrackPointExtension></extensions></trkpt>
<trkpt lat="22.4052955" lon="114.2104554">
<ele>9</ele><time>2020-12-28T06:47:30.999Z</time><extensions><gpxtpx:TrackPointExtension><gpxtpx:hr>121</gpxtpx:hr></gpxtpx:TrackPointExtension></extensions></trkpt>
<trkpt lat="22.4053451" lon="114.2103910">
<ele>9</ele><time>2020-12-28T06:47:32.999Z</time><extensions><gpxtpx:TrackPointExtension><gpxtpx:hr>121</gpxtpx:hr></gpxtpx:TrackPointExtension></extensions></trkpt>
<trkpt lat="22.4053947" lon="114.2103267">
<ele>8</ele><time>2020-12-28T06:47:34.999Z</time><extensions><gpxtpx:TrackPointExtension><gpxtpx:hr>121</gpxtpx:hr></gpxtpx:TrackPointExtension></extensions></trkpt>
<trkpt lat="22.4054344" lon="114.2102838">
<ele>8</ele><time>2020-12-28T06:47:36.999Z</time><extensions><gpxtpx:TrackPointExtension><gpxtpx:hr>121</gpxtpx:hr></gpxtpx:TrackPointExtension></extensions></trkpt>
<trkpt lat="22.4054840" lon="114.2102194">
<ele>8</ele><time>2020-12-28T06:47:38.999Z</time><extensions><gpxtpx:TrackPointExtension><gpxtpx:hr>121</gpxtpx:hr></gpxtpx:TrackPointExtension></extensions></trkpt>
<trkpt lat="22.4055236" lon="114.2101765">
<ele>8</ele><time>2020-12-28T06:47:40.999Z</time><extensions><gpxtpx:TrackPointExtension><gpxtpx:hr>121</gpxtpx:hr></gpxtpx:TrackPointExtension></extensions></trkpt>
<trkpt lat="22.4055633" lon="114.2101121">
<ele>8</ele><time>2020-12-28T06:47:42.999Z</time><extensions><gpxtpx:TrackPointExtension><gpxtpx:hr>121</gpxtpx:hr></gpxtpx:TrackPointExtension></extensions></trkpt>
<trkpt lat="22.4056030" lon="114.2100692">
<ele>8</ele><time>2020-12-28T06:47:44.999Z</time><extensions><gpxtpx:TrackPointExtension><gpxtpx:hr>121</gpxtpx:hr></gpxtpx:TrackPointExtension></extensions></trkpt>
<trkpt lat="22.4056427" lon="114.2100477">
<ele>8</ele><time>2020-12-28T06:47:46.999Z</time><extensions><gpxtpx:TrackPointExtension><gpxtpx:hr>123</gpxtpx:hr></gpxtpx:TrackPointExtension></extensions></trkpt>
<trkpt lat="22.4056724" lon="114.2099833">
<ele>8</ele><time>2020-12-28T06:47:48.999Z</time><extensions><gpxtpx:TrackPointExtension><gpxtpx:hr>123</gpxtpx:hr></gpxtpx:TrackPointExtension></extensions></trkpt>
<trkpt lat="22.4057121" lon="114.2099404">
<ele>8</ele><time>2020-12-28T06:47:50.999Z</time><extensions><gpxtpx:TrackPointExtension><gpxtpx:hr>123</gpxtpx:hr></gpxtpx:TrackPointExtension></extensions></trkpt>
<trkpt lat="22.4057716" lon="114.2098975">
<ele>8</ele><time>2020-12-28T06:47:53.999Z</time><extensions><gpxtpx:TrackPointExtension><gpxtpx:hr>123</gpxtpx:hr></gpxtpx:TrackPointExtension></extensions></trkpt>
<trkpt lat="22.4058212" lon="114.2099190">
<ele>8</ele><time>2020-12-28T06:47:55.999Z</time><extensions><gpxtpx:TrackPointExtension><gpxtpx:hr>123</gpxtpx:hr></gpxtpx:TrackPointExtension></extensions></trkpt>
<trkpt lat="22.4058807" lon="114.2099619">
<ele>8</ele><time>2020-12-28T06:47:57.999Z</time><extensions><gpxtpx:TrackPointExtension><gpxtpx:hr>122</gpxtpx:hr></gpxtpx:TrackPointExtension></extensions></trkpt>
<trkpt lat="22.4059204" lon="114.2100048">
<ele>7</ele><time>2020-12-28T06:47:59.999Z</time><extensions><gpxtpx:TrackPointExtension><gpxtpx:hr>122</gpxtpx:hr></gpxtpx:TrackPointExtension></extensions></trkpt>
<trkpt lat="22.4059799" lon="114.2100263">
<ele>7</ele><time>2020-12-28T06:48:01.999Z</time><extensions><gpxtpx:TrackPointExtension><gpxtpx:hr>122</gpxtpx:hr></gpxtpx:TrackPointExtension></extensions></trkpt>
<trkpt lat="22.4060295" lon="114.2100692">
<ele>7</ele><time>2020-12-28T06:48:03.999Z</time><extensions><gpxtpx:TrackPointExtension><gpxtpx:hr>122</gpxtpx:hr></gpxtpx:TrackPointExtension></extensions></trkpt>
<trkpt lat="22.4060692" lon="114.2101121">
<ele>7</ele><time>2020-12-28T06:48:05.999Z</time><extensions><gpxtpx:TrackPointExtension><gpxtpx:hr>123</gpxtpx:hr></gpxtpx:TrackPointExtension></extensions></trkpt>
<trkpt lat="22.4061188" lon="114.2101550">
<ele>7</ele><time>2020-12-28T06:48:07.999Z</time><extensions><gpxtpx:TrackPointExtension><gpxtpx:hr>123</gpxtpx:hr></gpxtpx:TrackPointExtension></extensions></trkpt>
<trkpt lat="22.4061684" lon="114.2101979">
<ele>7</ele><time>2020-12-28T06:48:09.999Z</time><extensions><gpxtpx:TrackPointExtension><gpxtpx:hr>123</gpxtpx:hr></gpxtpx:TrackPointExtension></extensions></trkpt>
<trkpt lat="22.4062279" lon="114.2102408">
<ele>7</ele><time>2020-12-28T06:48:11.999Z</time><extensions><gpxtpx:TrackPointExtension><gpxtpx:hr>122</gpxtpx:hr></gpxtpx:TrackPointExtension></extensions></trkpt>
<trkpt lat="22.4062676" lon="114.2103052">
<ele>7</ele><time>2020-12-28T06:48:13.999Z</time><extensions><gpxtpx:TrackPointExtension><gpxtpx:hr>122</gpxtpx:hr></gpxtpx:TrackPointExtension></extensions></trkpt>
<trkpt lat="22.4063171" lon="114.2103481">
<ele>7</ele><time>2020-12-28T06:48:15.999Z</time><extensions><gpxtpx:TrackPointExtension><gpxtpx:hr>120</gpxtpx:hr></gpxtpx:TrackPointExtension></extensions></trkpt>
<trkpt lat="22.4063667" lon="114.2103910">
<ele>7</ele><time>2020-12-28T06:48:17.999Z</time><extensions><gpxtpx:TrackPointExtension><gpxtpx:hr>120</gpxtpx:hr></gpxtpx:TrackPointExtension></extensions></trkpt>
<trkpt lat="22.4064064" lon="114.2104340">
<ele>7</ele><time>2020-12-28T06:48:19.999Z</time><extensions><gpxtpx:TrackPointExtension><gpxtpx:hr>120</gpxtpx:hr></gpxtpx:TrackPointExtension></extensions></trkpt>
<trkpt lat="22.4064560" lon="114.2104769">
<ele>7</ele><time>2020-12-28T06:48:21.999Z</time><extensions><gpxtpx:TrackPointExtension><gpxtpx:hr>118</gpxtpx:hr></gpxtpx:TrackPointExtension></extensions></trkpt>
<trkpt lat="22.4065056" lon="114.2105198">
<ele>7</ele><time>2020-12-28T06:48:23.999Z</time><extensions><gpxtpx:TrackPointExtension><gpxtpx:hr>118</gpxtpx:hr></gpxtpx:TrackPointExtension></extensions></trkpt>
<trkpt lat="22.4065552" lon="114.2105627">
<ele>7</ele><time>2020-12-28T06:48:25.999Z</time><extensions><gpxtpx:TrackPointExtension><gpxtpx:hr>118</gpxtpx:hr></gpxtpx:TrackPointExtension></extensions></trkpt>
<trkpt lat="22.4066048" lon="114.2106271">
<ele>7</ele><time>2020-12-28T06:48:27.999Z</time><extensions><gpxtpx:TrackPointExtension><gpxtpx:hr>122</gpxtpx:hr></gpxtpx:TrackPointExtension></extensions></trkpt>
<trkpt lat="22.4066544" lon="114.2106485">
<ele>7</ele><time>2020-12-28T06:48:30.000Z</time><extensions><gpxtpx:TrackPointExtension><gpxtpx:hr>122</gpxtpx:hr></gpxtpx:TrackPointExtension></extensions></trkpt>
<trkpt lat="22.4066941" lon="114.2107129">
<ele>7</ele><time>2020-12-28T06:48:32.000Z</time><extensions><gpxtpx:TrackPointExtension><gpxtpx:hr>120</gpxtpx:hr></gpxtpx:TrackPointExtension></extensions></trkpt>
<trkpt lat="22.4067437" lon="114.2107558">
<ele>7</ele><time>2020-12-28T06:48:34.000Z</time><extensions><gpxtpx:TrackPointExtension><gpxtpx:hr>120</gpxtpx:hr></gpxtpx:TrackPointExtension></extensions></trkpt>
<trkpt lat="22.4067833" lon="114.2107987">
<ele>7</ele><time>2020-12-28T06:48:36.000Z</time><extensions><gpxtpx:TrackPointExtension><gpxtpx:hr>119</gpxtpx:hr></gpxtpx:TrackPointExtension></extensions></trkpt>
<trkpt lat="22.4068329" lon="114.2108417">
<ele>7</ele><time>2020-12-28T06:48:38.000Z</time><extensions><gpxtpx:TrackPointExtension><gpxtpx:hr>119</gpxtpx:hr></gpxtpx:TrackPointExtension></extensions></trkpt>
<trkpt lat="22.4068726" lon="114.2108846">
<ele>7</ele><time>2020-12-28T06:48:40.000Z</time><extensions><gpxtpx:TrackPointExtension><gpxtpx:hr>119</gpxtpx:hr></gpxtpx:TrackPointExtension></extensions></trkpt>
<trkpt lat="22.4069123" lon="114.2109060">
<ele>7</ele><time>2020-12-28T06:48:42.000Z</time><extensions><gpxtpx:TrackPointExtension><gpxtpx:hr>120</gpxtpx:hr></gpxtpx:TrackPointExtension></extensions></trkpt>
<trkpt lat="22.4069619" lon="114.2109704">
<ele>7</ele><time>2020-12-28T06:48:44.000Z</time><extensions><gpxtpx:TrackPointExtension><gpxtpx:hr>120</gpxtpx:hr></gpxtpx:TrackPointExtension></extensions></trkpt>
<trkpt lat="22.4070015" lon="114.2109919">
<ele>8</ele><time>2020-12-28T06:48:46.000Z</time><extensions><gpxtpx:TrackPointExtension><gpxtpx:hr>121</gpxtpx:hr></gpxtpx:TrackPointExtension></extensions></trkpt>
<trkpt lat="22.4070412" lon="114.2110348">
<ele>8</ele><time>2020-12-28T06:48:48.000Z</time><extensions><gpxtpx:TrackPointExtension><gpxtpx:hr>121</gpxtpx:hr></gpxtpx:TrackPointExtension></extensions></trkpt>
<trkpt lat="22.4070809" lon="114.2110777">
<ele>8</ele><time>2020-12-28T06:48:50.000Z</time><extensions><gpxtpx:TrackPointExtension><gpxtpx:hr>121</gpxtpx:hr></gpxtpx:TrackPointExtension></extensions></trkpt>
<trkpt lat="22.4071107" lon="114.2111206">
<ele>8</ele><time>2020-12-28T06:48:52.000Z</time><extensions><gpxtpx:TrackPointExtension><gpxtpx:hr>124</gpxtpx:hr></gpxtpx:TrackPointExtension></extensions></trkpt>
<trkpt lat="22.4071503" lon="114.2111421">
<ele>8</ele><time>2020-12-28T06:48:54.000Z</time><extensions><gpxtpx:TrackPointExtension><gpxtpx:hr>124</gpxtpx:hr></gpxtpx:TrackPointExtension></extensions></trkpt>
<trkpt lat="22.4071900" lon="114.2111850">
<ele>8</ele><time>2020-12-28T06:48:56.000Z</time><extensions><gpxtpx:TrackPointExtension><gpxtpx:hr>124</gpxtpx:hr></gpxtpx:TrackPointExtension></extensions></trkpt>
<trkpt lat="22.4072297" lon="114.2112279">
<ele>8</ele><time>2020-12-28T06:49:01.000Z</time><extensions><gpxtpx:TrackPointExtension><gpxtpx:hr>126</gpxtpx:hr></gpxtpx:TrackPointExtension></extensions></trkpt>
<trkpt lat="22.4072098" lon="114.2112708">
<ele>8</ele><time>2020-12-28T06:49:22.000Z</time><extensions><gpxtpx:TrackPointExtension><gpxtpx:hr>125</gpxtpx:hr></gpxtpx:TrackPointExtension></extensions></trkpt>
<trkpt lat="22.4072594" lon="114.2113137">
<ele>8</ele><time>2020-12-28T06:49:26.000Z</time><extensions><gpxtpx:TrackPointExtension><gpxtpx:hr>125</gpxtpx:hr></gpxtpx:TrackPointExtension></extensions></trkpt>
<trkpt lat="22.4073090" lon="114.2113352">
<ele>8</ele><time>2020-12-28T06:49:29.000Z</time><extensions><gpxtpx:TrackPointExtension><gpxtpx:hr>125</gpxtpx:hr></gpxtpx:TrackPointExtension></extensions></trkpt>
<trkpt lat="22.4073487" lon="114.2113781">
<ele>8</ele><time>2020-12-28T06:49:31.000Z</time><extensions><gpxtpx:TrackPointExtension><gpxtpx:hr>125</gpxtpx:hr></gpxtpx:TrackPointExtension></extensions></trkpt>
<trkpt lat="22.4073884" lon="114.2113996">
<ele>8</ele><time>2020-12-28T06:49:33.000Z</time><extensions><gpxtpx:TrackPointExtension><gpxtpx:hr>124</gpxtpx:hr></gpxtpx:TrackPointExtension></extensions></trkpt>
<trkpt lat="22.4074380" lon="114.2114425">
<ele>8</ele><time>2020-12-28T06:49:35.000Z</time><extensions><gpxtpx:TrackPointExtension><gpxtpx:hr>124</gpxtpx:hr></gpxtpx:TrackPointExtension></extensions></trkpt>
<trkpt lat="22.4074876" lon="114.2114854">
<ele>8</ele><time>2020-12-28T06:49:37.000Z</time><extensions><gpxtpx:TrackPointExtension><gpxtpx:hr>124</gpxtpx:hr></gpxtpx:TrackPointExtension></extensions></trkpt>
<trkpt lat="22.4075372" lon="114.2115283">
<ele>8</ele><time>2020-12-28T06:49:39.000Z</time><extensions><gpxtpx:TrackPointExtension><gpxtpx:hr>124</gpxtpx:hr></gpxtpx:TrackPointExtension></extensions></trkpt>
<trkpt lat="22.4075768" lon="114.2115712">
<ele>8</ele><time>2020-12-28T06:49:40.999Z</time><extensions><gpxtpx:TrackPointExtension><gpxtpx:hr>124</gpxtpx:hr></gpxtpx:TrackPointExtension></extensions></trkpt>
<trkpt lat="22.4076264" lon="114.2116141">
<ele>8</ele><time>2020-12-28T06:49:42.999Z</time><extensions><gpxtpx:TrackPointExtension><gpxtpx:hr>124</gpxtpx:hr></gpxtpx:TrackPointExtension></extensions></trkpt>
<trkpt lat="22.4076661" lon="114.2116570">
<ele>8</ele><time>2020-12-28T06:49:44.999Z</time><extensions><gpxtpx:TrackPointExtension><gpxtpx:hr>124</gpxtpx:hr></gpxtpx:TrackPointExtension></extensions></trkpt>
<trkpt lat="22.4077157" lon="114.2116785">
<ele>8</ele><time>2020-12-28T06:49:46.999Z</time><extensions><gpxtpx:TrackPointExtension><gpxtpx:hr>121</gpxtpx:hr></gpxtpx:TrackPointExtension></extensions></trkpt>
<trkpt lat="22.4077653" lon="114.2117000">
<ele>8</ele><time>2020-12-28T06:49:48.999Z</time><extensions><gpxtpx:TrackPointExtension><gpxtpx:hr>121</gpxtpx:hr></gpxtpx:TrackPointExtension></extensions></trkpt>
<trkpt lat="22.4078050" lon="114.2117214">
<ele>8</ele><time>2020-12-28T06:49:50.999Z</time><extensions><gpxtpx:TrackPointExtension><gpxtpx:hr>121</gpxtpx:hr></gpxtpx:TrackPointExtension></extensions></trkpt>
<trkpt lat="22.4078546" lon="114.2117429">
<ele>8</ele><time>2020-12-28T06:49:52.999Z</time><extensions><gpxtpx:TrackPointExtension><gpxtpx:hr>121</gpxtpx:hr></gpxtpx:TrackPointExtension></extensions></trkpt>
<trkpt lat="22.4079141" lon="114.2117858">
<ele>8</ele><time>2020-12-28T06:49:55.999Z</time><extensions><gpxtpx:TrackPointExtension><gpxtpx:hr>121</gpxtpx:hr></gpxtpx:TrackPointExtension></extensions></trkpt>
<trkpt lat="22.4079537" lon="114.2118073">
<ele>8</ele><time>2020-12-28T06:49:57.999Z</time><extensions><gpxtpx:TrackPointExtension><gpxtpx:hr>121</gpxtpx:hr></gpxtpx:TrackPointExtension></extensions></trkpt>
<trkpt lat="22.4080033" lon="114.2118287">
<ele>8</ele><time>2020-12-28T06:49:59.999Z</time><extensions><gpxtpx:TrackPointExtension><gpxtpx:hr>121</gpxtpx:hr></gpxtpx:TrackPointExtension></extensions></trkpt>
<trkpt lat="22.4080430" lon="114.2118502">
<ele>8</ele><time>2020-12-28T06:50:01.999Z</time><extensions><gpxtpx:TrackPointExtension><gpxtpx:hr>120</gpxtpx:hr></gpxtpx:TrackPointExtension></extensions></trkpt>
<trkpt lat="22.4080926" lon="114.2118716">
<ele>8</ele><time>2020-12-28T06:50:03.999Z</time><extensions><gpxtpx:TrackPointExtension><gpxtpx:hr>120</gpxtpx:hr></gpxtpx:TrackPointExtension></extensions></trkpt>
<trkpt lat="22.4081422" lon="114.2119145">
<ele>8</ele><time>2020-12-28T06:50:06.999Z</time><extensions><gpxtpx:TrackPointExtension><gpxtpx:hr>118</gpxtpx:hr></gpxtpx:TrackPointExtension></extensions></trkpt>
<trkpt lat="22.4081819" lon="114.2119360">
<ele>9</ele><time>2020-12-28T06:50:08.999Z</time><extensions><gpxtpx:TrackPointExtension><gpxtpx:hr>118</gpxtpx:hr></gpxtpx:TrackPointExtension></extensions></trkpt>
<trkpt lat="22.4082116" lon="114.2119789">
<ele>9</ele><time>2020-12-28T06:50:10.999Z</time><extensions><gpxtpx:TrackPointExtension><gpxtpx:hr>118</gpxtpx:hr></gpxtpx:TrackPointExtension></extensions></trkpt>
<trkpt lat="22.4082612" lon="114.2120218">
<ele>9</ele><time>2020-12-28T06:50:12.999Z</time><extensions><gpxtpx:TrackPointExtension><gpxtpx:hr>119</gpxtpx:hr></gpxtpx:TrackPointExtension></extensions></trkpt>
<trkpt lat="22.4083009" lon="114.2120433">
<ele>9</ele><time>2020-12-28T06:50:14.999Z</time><extensions><gpxtpx:TrackPointExtension><gpxtpx:hr>119</gpxtpx:hr></gpxtpx:TrackPointExtension></extensions></trkpt>
<trkpt lat="22.4083505" lon="114.2120862">
<ele>9</ele><time>2020-12-28T06:50:17.999Z</time><extensions><gpxtpx:TrackPointExtension><gpxtpx:hr>119</gpxtpx:hr></gpxtpx:TrackPointExtension></extensions></trkpt>
<trkpt lat="22.4083803" lon="114.2121291">
<ele>9</ele><time>2020-12-28T06:50:19.999Z</time><extensions><gpxtpx:TrackPointExtension><gpxtpx:hr>119</gpxtpx:hr></gpxtpx:TrackPointExtension></extensions></trkpt>
<trkpt lat="22.4084298" lon="114.2121506">
<ele>9</ele><time>2020-12-28T06:50:22.999Z</time><extensions><gpxtpx:TrackPointExtension><gpxtpx:hr>121</gpxtpx:hr></gpxtpx:TrackPointExtension></extensions></trkpt>
<trkpt lat="22.4084596" lon="114.2121935">
<ele>9</ele><time>2020-12-28T06:50:24.999Z</time><extensions><gpxtpx:TrackPointExtension><gpxtpx:hr>121</gpxtpx:hr></gpxtpx:TrackPointExtension></extensions></trkpt>
<trkpt lat="22.4084894" lon="114.2122364">
<ele>9</ele><time>2020-12-28T06:50:26.999Z</time><extensions><gpxtpx:TrackPointExtension><gpxtpx:hr>121</gpxtpx:hr></gpxtpx:TrackPointExtension></extensions></trkpt>
<trkpt lat="22.4085290" lon="114.2122579">
<ele>9</ele><time>2020-12-28T06:50:28.999Z</time><extensions><gpxtpx:TrackPointExtension><gpxtpx:hr>121</gpxtpx:hr></gpxtpx:TrackPointExtension></extensions></trkpt>
<trkpt lat="22.4085687" lon="114.2122793">
<ele>9</ele><time>2020-12-28T06:50:30.999Z</time><extensions><gpxtpx:TrackPointExtension><gpxtpx:hr>121</gpxtpx:hr></gpxtpx:TrackPointExtension></extensions></trkpt>
<trkpt lat="22.4086084" lon="114.2123222">
<ele>9</ele><time>2020-12-28T06:50:32.999Z</time><extensions><gpxtpx:TrackPointExtension><gpxtpx:hr>118</gpxtpx:hr></gpxtpx:TrackPointExtension></extensions></trkpt>
<trkpt lat="22.4086481" lon="114.2123652">
<ele>9</ele><time>2020-12-28T06:50:35.000Z</time><extensions><gpxtpx:TrackPointExtension><gpxtpx:hr>118</gpxtpx:hr></gpxtpx:TrackPointExtension></extensions></trkpt>
<trkpt lat="22.4086877" lon="114.2123866">
<ele>9</ele><time>2020-12-28T06:50:37.000Z</time><extensions><gpxtpx:TrackPointExtension><gpxtpx:hr>119</gpxtpx:hr></gpxtpx:TrackPointExtension></extensions></trkpt>
<trkpt lat="22.4087175" lon="114.2124295">
<ele>9</ele><time>2020-12-28T06:50:39.000Z</time><extensions><gpxtpx:TrackPointExtension><gpxtpx:hr>119</gpxtpx:hr></gpxtpx:TrackPointExtension></extensions></trkpt>
<trkpt lat="22.4087572" lon="114.2124724">
<ele>9</ele><time>2020-12-28T06:50:41.000Z</time><extensions><gpxtpx:TrackPointExtension><gpxtpx:hr>119</gpxtpx:hr></gpxtpx:TrackPointExtension></extensions></trkpt>
<trkpt lat="22.4087968" lon="114.2124939">
<ele>9</ele><time>2020-12-28T06:50:43.000Z</time><extensions><gpxtpx:TrackPointExtension><gpxtpx:hr>116</gpxtpx:hr></gpxtpx:TrackPointExtension></extensions></trkpt>
<trkpt lat="22.4088266" lon="114.2125368">
<ele>9</ele><time>2020-12-28T06:50:45.000Z</time><extensions><gpxtpx:TrackPointExtension><gpxtpx:hr>116</gpxtpx:hr></gpxtpx:TrackPointExtension></extensions></trkpt>
<trkpt lat="22.4088762" lon="114.2125797">
<ele>9</ele><time>2020-12-28T06:50:48.000Z</time><extensions><gpxtpx:TrackPointExtension><gpxtpx:hr>117</gpxtpx:hr></gpxtpx:TrackPointExtension></extensions></trkpt>
<trkpt lat="22.4089159" lon="114.2126012">
<ele>9</ele><time>2020-12-28T06:50:50.000Z</time><extensions><gpxtpx:TrackPointExtension><gpxtpx:hr>117</gpxtpx:hr></gpxtpx:TrackPointExtension></extensions></trkpt>
<trkpt lat="22.4089655" lon="114.2126441">
<ele>9</ele><time>2020-12-28T06:50:52.000Z</time><extensions><gpxtpx:TrackPointExtension><gpxtpx:hr>119</gpxtpx:hr></gpxtpx:TrackPointExtension></extensions></trkpt>
<trkpt lat="22.4090051" lon="114.2126870">
<ele>9</ele><time>2020-12-28T06:50:54.000Z</time><extensions><gpxtpx:TrackPointExtension><gpxtpx:hr>119</gpxtpx:hr></gpxtpx:TrackPointExtension></extensions></trkpt>
<trkpt lat="22.4090547" lon="114.2127299">
<ele>9</ele><time>2020-12-28T06:50:56.000Z</time><extensions><gpxtpx:TrackPointExtension><gpxtpx:hr>119</gpxtpx:hr></gpxtpx:TrackPointExtension></extensions></trkpt>
<trkpt lat="22.4090944" lon="114.2127728">
<ele>9</ele><time>2020-12-28T06:50:58.000Z</time><extensions><gpxtpx:TrackPointExtension><gpxtpx:hr>119</gpxtpx:hr></gpxtpx:TrackPointExtension></extensions></trkpt>
<trkpt lat="22.4091341" lon="114.2128158">
<ele>9</ele><time>2020-12-28T06:51:00.000Z</time><extensions><gpxtpx:TrackPointExtension><gpxtpx:hr>119</gpxtpx:hr></gpxtpx:TrackPointExtension></extensions></trkpt>
<trkpt lat="22.4091737" lon="114.2128587">
<ele>9</ele><time>2020-12-28T06:51:02.000Z</time><extensions><gpxtpx:TrackPointExtension><gpxtpx:hr>118</gpxtpx:hr></gpxtpx:TrackPointExtension></extensions></trkpt>
<trkpt lat="22.4092233" lon="114.2129016">
<ele>9</ele><time>2020-12-28T06:51:04.000Z</time><extensions><gpxtpx:TrackPointExtension><gpxtpx:hr>118</gpxtpx:hr></gpxtpx:TrackPointExtension></extensions></trkpt>
<trkpt lat="22.4092630" lon="114.2129445">
<ele>8</ele><time>2020-12-28T06:51:06.000Z</time><extensions><gpxtpx:TrackPointExtension><gpxtpx:hr>114</gpxtpx:hr></gpxtpx:TrackPointExtension></extensions></trkpt>
<trkpt lat="22.4093225" lon="114.2129874">
<ele>8</ele><time>2020-12-28T06:51:08.000Z</time><extensions><gpxtpx:TrackPointExtension><gpxtpx:hr>114</gpxtpx:hr></gpxtpx:TrackPointExtension></extensions></trkpt>
<trkpt lat="22.4093721" lon="114.2130518">
<ele>8</ele><time>2020-12-28T06:51:10.000Z</time><extensions><gpxtpx:TrackPointExtension><gpxtpx:hr>114</gpxtpx:hr></gpxtpx:TrackPointExtension></extensions></trkpt>
<trkpt lat="22.4094217" lon="114.2130947">
<ele>8</ele><time>2020-12-28T06:51:12.000Z</time><extensions><gpxtpx:TrackPointExtension><gpxtpx:hr>115</gpxtpx:hr></gpxtpx:TrackPointExtension></extensions></trkpt>
<trkpt lat="22.4094515" lon="114.2131376">
<ele>8</ele><time>2020-12-28T06:51:13.000Z</time><extensions><gpxtpx:TrackPointExtension><gpxtpx:hr>115</gpxtpx:hr></gpxtpx:TrackPointExtension></extensions></trkpt>
<trkpt lat="22.4095011" lon="114.2131805">
<ele>8</ele><time>2020-12-28T06:51:15.000Z</time><extensions><gpxtpx:TrackPointExtension><gpxtpx:hr>115</gpxtpx:hr></gpxtpx:TrackPointExtension></extensions></trkpt>
<trkpt lat="22.4095606" lon="114.2132235">
<ele>8</ele><time>2020-12-28T06:51:17.000Z</time><extensions><gpxtpx:TrackPointExtension><gpxtpx:hr>115</gpxtpx:hr></gpxtpx:TrackPointExtension></extensions></trkpt>
<trkpt lat="22.4096102" lon="114.2132664">
<ele>8</ele><time>2020-12-28T06:51:19.000Z</time><extensions><gpxtpx:TrackPointExtension><gpxtpx:hr>115</gpxtpx:hr></gpxtpx:TrackPointExtension></extensions></trkpt>
<trkpt lat="22.4096697" lon="114.2132878">
<ele>8</ele><time>2020-12-28T06:51:22.000Z</time><extensions><gpxtpx:TrackPointExtension><gpxtpx:hr>115</gpxtpx:hr></gpxtpx:TrackPointExtension></extensions></trkpt>
<trkpt lat="22.4097094" lon="114.2132664">
<ele>8</ele><time>2020-12-28T06:51:24.000Z</time><extensions><gpxtpx:TrackPointExtension><gpxtpx:hr>115</gpxtpx:hr></gpxtpx:TrackPointExtension></extensions></trkpt>
<trkpt lat="22.4097391" lon="114.2132235">
<ele>8</ele><time>2020-12-28T06:51:26.000Z</time><extensions><gpxtpx:TrackPointExtension><gpxtpx:hr>115</gpxtpx:hr></gpxtpx:TrackPointExtension></extensions></trkpt>
<trkpt lat="22.4097788" lon="114.2131805">
<ele>8</ele><time>2020-12-28T06:51:28.000Z</time><extensions><gpxtpx:TrackPointExtension><gpxtpx:hr>115</gpxtpx:hr></gpxtpx:TrackPointExtension></extensions></trkpt>
<trkpt lat="22.4097986" lon="114.2131376">
<ele>8</ele><time>2020-12-28T06:51:29.000Z</time><extensions><gpxtpx:TrackPointExtension><gpxtpx:hr>115</gpxtpx:hr></gpxtpx:TrackPointExtension></extensions></trkpt>
<trkpt lat="22.4098482" lon="114.2130947">
<ele>8</ele><time>2020-12-28T06:51:31.000Z</time><extensions><gpxtpx:TrackPointExtension><gpxtpx:hr>115</gpxtpx:hr></gpxtpx:TrackPointExtension></extensions></trkpt>
<trkpt lat="22.4098780" lon="114.2130518">
<ele>8</ele><time>2020-12-28T06:51:33.000Z</time><extensions><gpxtpx:TrackPointExtension><gpxtpx:hr>119</gpxtpx:hr></gpxtpx:TrackPointExtension></extensions></trkpt>
<trkpt lat="22.4099176" lon="114.2130303">
<ele>8</ele><time>2020-12-28T06:51:35.000Z</time><extensions><gpxtpx:TrackPointExtension><gpxtpx:hr>119</gpxtpx:hr></gpxtpx:TrackPointExtension></extensions></trkpt>
<trkpt lat="22.4099474" lon="114.2129874">
<ele>9</ele><time>2020-12-28T06:51:38.000Z</time><extensions><gpxtpx:TrackPointExtension><gpxtpx:hr>118</gpxtpx:hr></gpxtpx:TrackPointExtension></extensions></trkpt>
<trkpt lat="22.4099871" lon="114.2129445">
<ele>9</ele><time>2020-12-28T06:51:40.000Z</time><extensions><gpxtpx:TrackPointExtension><gpxtpx:hr>118</gpxtpx:hr></gpxtpx:TrackPointExtension></extensions></trkpt>
<trkpt lat="22.4100267" lon="114.2129016">
<ele>9</ele><time>2020-12-28T06:51:42.000Z</time><extensions><gpxtpx:TrackPointExtension><gpxtpx:hr>116</gpxtpx:hr></gpxtpx:TrackPointExtension></extensions></trkpt>
<trkpt lat="22.4100565" lon="114.2128587">
<ele>9</ele><time>2020-12-28T06:51:44.000Z</time><extensions><gpxtpx:TrackPointExtension><gpxtpx:hr>116</gpxtpx:hr></gpxtpx:TrackPointExtension></extensions></trkpt>
<trkpt lat="22.4100962" lon="114.2128372">
<ele>9</ele><time>2020-12-28T06:51:46.000Z</time><extensions><gpxtpx:TrackPointExtension><gpxtpx:hr>116</gpxtpx:hr></gpxtpx:TrackPointExtension></extensions></trkpt>
<trkpt lat="22.4101259" lon="114.2127943">
<ele>9</ele><time>2020-12-28T06:51:47.999Z</time><extensions><gpxtpx:TrackPointExtension><gpxtpx:hr>118</gpxtpx:hr></gpxtpx:TrackPointExtension></extensions></trkpt>
<trkpt lat="22.4101656" lon="114.2127514">
<ele>9</ele><time>2020-12-28T06:51:49.999Z</time><extensions><gpxtpx:TrackPointExtension><gpxtpx:hr>118</gpxtpx:hr></gpxtpx:TrackPointExtension></extensions></trkpt>
<trkpt lat="22.4102251" lon="114.2127514">
<ele>9</ele><time>2020-12-28T06:51:52.999Z</time><extensions><gpxtpx:TrackPointExtension><gpxtpx:hr>119</gpxtpx:hr></gpxtpx:TrackPointExtension></extensions></trkpt>
<trkpt lat="22.4102648" lon="114.2127728">
<ele>9</ele><time>2020-12-28T06:51:56.999Z</time><extensions><gpxtpx:TrackPointExtension><gpxtpx:hr>119</gpxtpx:hr></gpxtpx:TrackPointExtension></extensions></trkpt>
<trkpt lat="22.4102945" lon="114.2128158">
<ele>9</ele><time>2020-12-28T06:52:02.999Z</time><extensions><gpxtpx:TrackPointExtension><gpxtpx:hr>120</gpxtpx:hr></gpxtpx:TrackPointExtension></extensions></trkpt>
<trkpt lat="22.4103144" lon="114.2128587">
<ele>9</ele><time>2020-12-28T06:52:05.999Z</time><extensions><gpxtpx:TrackPointExtension><gpxtpx:hr>120</gpxtpx:hr></gpxtpx:TrackPointExtension></extensions></trkpt>
<trkpt lat="22.4103441" lon="114.2129016">
<ele>9</ele><time>2020-12-28T06:52:08.999Z</time><extensions><gpxtpx:TrackPointExtension><gpxtpx:hr>120</gpxtpx:hr></gpxtpx:TrackPointExtension></extensions></trkpt>
<trkpt lat="22.4103937" lon="114.2129230">
<ele>9</ele><time>2020-12-28T06:52:13.999Z</time><extensions><gpxtpx:TrackPointExtension><gpxtpx:hr>121</gpxtpx:hr></gpxtpx:TrackPointExtension></extensions></trkpt>
<trkpt lat="22.4104433" lon="114.2129230">
<ele>9</ele><time>2020-12-28T06:52:17.999Z</time><extensions><gpxtpx:TrackPointExtension><gpxtpx:hr>121</gpxtpx:hr></gpxtpx:TrackPointExtension></extensions></trkpt>
<trkpt lat="22.4104929" lon="114.2129445">
<ele>9</ele><time>2020-12-28T06:52:19.999Z</time><extensions><gpxtpx:TrackPointExtension><gpxtpx:hr>121</gpxtpx:hr></gpxtpx:TrackPointExtension></extensions></trkpt>
<trkpt lat="22.4105128" lon="114.2129874">
<ele>9</ele><time>2020-12-28T06:52:21.999Z</time><extensions><gpxtpx:TrackPointExtension><gpxtpx:hr>121</gpxtpx:hr></gpxtpx:TrackPointExtension></extensions></trkpt>
<trkpt lat="22.4105723" lon="114.2130518">
<ele>9</ele><time>2020-12-28T06:52:23.999Z</time><extensions><gpxtpx:TrackPointExtension><gpxtpx:hr>121</gpxtpx:hr></gpxtpx:TrackPointExtension></extensions></trkpt>
<trkpt lat="22.4105921" lon="114.2130947">
<ele>9</ele><time>2020-12-28T06:52:24.999Z</time><extensions><gpxtpx:TrackPointExtension><gpxtpx:hr>121</gpxtpx:hr></gpxtpx:TrackPointExtension></extensions></trkpt>
<trkpt lat="22.4106417" lon="114.2131376">
<ele>9</ele><time>2020-12-28T06:52:26.999Z</time><extensions><gpxtpx:TrackPointExtension><gpxtpx:hr>123</gpxtpx:hr></gpxtpx:TrackPointExtension></extensions></trkpt>
<trkpt lat="22.4106814" lon="114.2131805">
<ele>9</ele><time>2020-12-28T06:52:28.999Z</time><extensions><gpxtpx:TrackPointExtension><gpxtpx:hr>123</gpxtpx:hr></gpxtpx:TrackPointExtension></extensions></trkpt>
<trkpt lat="22.4107111" lon="114.2132449">
<ele>9</ele><time>2020-12-28T06:52:30.999Z</time><extensions><gpxtpx:TrackPointExtension><gpxtpx:hr>123</gpxtpx:hr></gpxtpx:TrackPointExtension></extensions></trkpt>
<trkpt lat="22.4107508" lon="114.2133093">
<ele>9</ele><time>2020-12-28T06:52:32.999Z</time><extensions><gpxtpx:TrackPointExtension><gpxtpx:hr>124</gpxtpx:hr></gpxtpx:TrackPointExtension></extensions></trkpt>
<trkpt lat="22.4107905" lon="114.2133737">
<ele>9</ele><time>2020-12-28T06:52:34.999Z</time><extensions><gpxtpx:TrackPointExtension><gpxtpx:hr>124</gpxtpx:hr></gpxtpx:TrackPointExtension></extensions></trkpt>
<trkpt lat="22.4108202" lon="114.2134166">
<ele>9</ele><time>2020-12-28T06:52:36.999Z</time><extensions><gpxtpx:TrackPointExtension><gpxtpx:hr>125</gpxtpx:hr></gpxtpx:TrackPointExtension></extensions></trkpt>
<trkpt lat="22.4108401" lon="114.2134595">
<ele>9</ele><time>2020-12-28T06:52:37.999Z</time><extensions><gpxtpx:TrackPointExtension><gpxtpx:hr>125</gpxtpx:hr></gpxtpx:TrackPointExtension></extensions></trkpt>
<trkpt lat="22.4108797" lon="114.2135024">
<ele>9</ele><time>2020-12-28T06:52:39.999Z</time><extensions><gpxtpx:TrackPointExtension><gpxtpx:hr>125</gpxtpx:hr></gpxtpx:TrackPointExtension></extensions></trkpt>
<trkpt lat="22.4109095" lon="114.2135453">
<ele>9</ele><time>2020-12-28T06:52:41.000Z</time><extensions><gpxtpx:TrackPointExtension><gpxtpx:hr>125</gpxtpx:hr></gpxtpx:TrackPointExtension></extensions></trkpt>
<trkpt lat="22.4109591" lon="114.2135882">
<ele>9</ele><time>2020-12-28T06:52:43.000Z</time><extensions><gpxtpx:TrackPointExtension><gpxtpx:hr>124</gpxtpx:hr></gpxtpx:TrackPointExtension></extensions></trkpt>
<trkpt lat="22.4110384" lon="114.2136312">
<ele>8</ele><time>2020-12-28T06:52:45.000Z</time><extensions><gpxtpx:TrackPointExtension><gpxtpx:hr>124</gpxtpx:hr></gpxtpx:TrackPointExtension></extensions></trkpt>
<trkpt lat="22.4110880" lon="114.2136526">
<ele>8</ele><time>2020-12-28T06:52:46.000Z</time><extensions><gpxtpx:TrackPointExtension><gpxtpx:hr>124</gpxtpx:hr></gpxtpx:TrackPointExtension></extensions></trkpt>
<trkpt lat="22.4111575" lon="114.2136741">
<ele>8</ele><time>2020-12-28T06:52:48.000Z</time><extensions><gpxtpx:TrackPointExtension><gpxtpx:hr>126</gpxtpx:hr></gpxtpx:TrackPointExtension></extensions></trkpt>
<trkpt lat="22.4112368" lon="114.2136741">
<ele>8</ele><time>2020-12-28T06:52:50.000Z</time><extensions><gpxtpx:TrackPointExtension><gpxtpx:hr>126</gpxtpx:hr></gpxtpx:TrackPointExtension></extensions></trkpt>
<trkpt lat="22.4113062" lon="114.2136741">
<ele>8</ele><time>2020-12-28T06:52:52.000Z</time><extensions><gpxtpx:TrackPointExtension><gpxtpx:hr>125</gpxtpx:hr></gpxtpx:TrackPointExtension></extensions></trkpt>
<trkpt lat="22.4113757" lon="114.2136741">
<ele>8</ele><time>2020-12-28T06:52:54.000Z</time><extensions><gpxtpx:TrackPointExtension><gpxtpx:hr>125</gpxtpx:hr></gpxtpx:TrackPointExtension></extensions></trkpt>
<trkpt lat="22.4114352" lon="114.2136526">
<ele>8</ele><time>2020-12-28T06:52:56.000Z</time><extensions><gpxtpx:TrackPointExtension><gpxtpx:hr>125</gpxtpx:hr></gpxtpx:TrackPointExtension></extensions></trkpt>
<trkpt lat="22.4114947" lon="114.2136526">
<ele>8</ele><time>2020-12-28T06:52:58.000Z</time><extensions><gpxtpx:TrackPointExtension><gpxtpx:hr>127</gpxtpx:hr></gpxtpx:TrackPointExtension></extensions></trkpt>
<trkpt lat="22.4115344" lon="114.2136312">
<ele>8</ele><time>2020-12-28T06:53:00.000Z</time><extensions><gpxtpx:TrackPointExtension><gpxtpx:hr>127</gpxtpx:hr></gpxtpx:TrackPointExtension></extensions></trkpt>
<trkpt lat="22.4115840" lon="114.2136526">
<ele>8</ele><time>2020-12-28T06:53:03.000Z</time><extensions><gpxtpx:TrackPointExtension><gpxtpx:hr>126</gpxtpx:hr></gpxtpx:TrackPointExtension></extensions></trkpt>
<trkpt lat="22.4116435" lon="114.2136526">
<ele>8</ele><time>2020-12-28T06:53:05.000Z</time><extensions><gpxtpx:TrackPointExtension><gpxtpx:hr>126</gpxtpx:hr></gpxtpx:TrackPointExtension></extensions></trkpt>
<trkpt lat="22.4117228" lon="114.2136312">
<ele>8</ele><time>2020-12-28T06:53:07.000Z</time><extensions><gpxtpx:TrackPointExtension><gpxtpx:hr>129</gpxtpx:hr></gpxtpx:TrackPointExtension></extensions></trkpt>
<trkpt lat="22.4117922" lon="114.2136312">
<ele>8</ele><time>2020-12-28T06:53:09.000Z</time><extensions><gpxtpx:TrackPointExtension><gpxtpx:hr>129</gpxtpx:hr></gpxtpx:TrackPointExtension></extensions></trkpt>
<trkpt lat="22.4118418" lon="114.2136312">
<ele>8</ele><time>2020-12-28T06:53:10.000Z</time><extensions><gpxtpx:TrackPointExtension><gpxtpx:hr>129</gpxtpx:hr></gpxtpx:TrackPointExtension></extensions></trkpt>
<trkpt lat="22.4118815" lon="114.2136097">
<ele>8</ele><time>2020-12-28T06:53:11.000Z</time><extensions><gpxtpx:TrackPointExtension><gpxtpx:hr>129</gpxtpx:hr></gpxtpx:TrackPointExtension></extensions></trkpt>
<trkpt lat="22.4119609" lon="114.2136097">
<ele>8</ele><time>2020-12-28T06:53:13.000Z</time><extensions><gpxtpx:TrackPointExtension><gpxtpx:hr>127</gpxtpx:hr></gpxtpx:TrackPointExtension></extensions></trkpt>
<trkpt lat="22.4120105" lon="114.2136097">
<ele>9</ele><time>2020-12-28T06:53:15.000Z</time><extensions><gpxtpx:TrackPointExtension><gpxtpx:hr>127</gpxtpx:hr></gpxtpx:TrackPointExtension></extensions></trkpt>
<trkpt lat="22.4120600" lon="114.2136097">
<ele>9</ele><time>2020-12-28T06:53:17.000Z</time><extensions><gpxtpx:TrackPointExtension><gpxtpx:hr>123</gpxtpx:hr></gpxtpx:TrackPointExtension></extensions></trkpt>
<trkpt lat="22.4121196" lon="114.2136097">
<ele>9</ele><time>2020-12-28T06:53:19.000Z</time><extensions><gpxtpx:TrackPointExtension><gpxtpx:hr>123</gpxtpx:hr></gpxtpx:TrackPointExtension></extensions></trkpt>
<trkpt lat="22.4121989" lon="114.2136097">
<ele>8</ele><time>2020-12-28T06:53:21.000Z</time><extensions><gpxtpx:TrackPointExtension><gpxtpx:hr>123</gpxtpx:hr></gpxtpx:TrackPointExtension></extensions></trkpt>
<trkpt lat="22.4122782" lon="114.2136097">
<ele>8</ele><time>2020-12-28T06:53:23.000Z</time><extensions><gpxtpx:TrackPointExtension><gpxtpx:hr>124</gpxtpx:hr></gpxtpx:TrackPointExtension></extensions></trkpt>
<trkpt lat="22.4123477" lon="114.2136097">
<ele>8</ele><time>2020-12-28T06:53:25.000Z</time><extensions><gpxtpx:TrackPointExtension><gpxtpx:hr>124</gpxtpx:hr></gpxtpx:TrackPointExtension></extensions></trkpt>
<trkpt lat="22.4124270" lon="114.2136097">
<ele>8</ele><time>2020-12-28T06:53:27.000Z</time><extensions><gpxtpx:TrackPointExtension><gpxtpx:hr>124</gpxtpx:hr></gpxtpx:TrackPointExtension></extensions></trkpt>
<trkpt lat="22.4124865" lon="114.2136312">
<ele>8</ele><time>2020-12-28T06:53:29.000Z</time><extensions><gpxtpx:TrackPointExtension><gpxtpx:hr>124</gpxtpx:hr></gpxtpx:TrackPointExtension></extensions></trkpt>
<trkpt lat="22.4125361" lon="114.2136312">
<ele>8</ele><time>2020-12-28T06:53:31.000Z</time><extensions><gpxtpx:TrackPointExtension><gpxtpx:hr>124</gpxtpx:hr></gpxtpx:TrackPointExtension></extensions></trkpt>
<trkpt lat="22.4125956" lon="114.2136312">
<ele>8</ele><time>2020-12-28T06:53:32.999Z</time><extensions><gpxtpx:TrackPointExtension><gpxtpx:hr>123</gpxtpx:hr></gpxtpx:TrackPointExtension></extensions></trkpt>
<trkpt lat="22.4126353" lon="114.2136526">
<ele>8</ele><time>2020-12-28T06:53:34.999Z</time><extensions><gpxtpx:TrackPointExtension><gpxtpx:hr>123</gpxtpx:hr></gpxtpx:TrackPointExtension></extensions></trkpt>
<trkpt lat="22.4126849" lon="114.2136741">
<ele>8</ele><time>2020-12-28T06:53:36.999Z</time><extensions><gpxtpx:TrackPointExtension><gpxtpx:hr>122</gpxtpx:hr></gpxtpx:TrackPointExtension></extensions></trkpt>
<trkpt lat="22.4127345" lon="114.2136955">
<ele>8</ele><time>2020-12-28T06:53:38.999Z</time><extensions><gpxtpx:TrackPointExtension><gpxtpx:hr>122</gpxtpx:hr></gpxtpx:TrackPointExtension></extensions></trkpt>
<trkpt lat="22.4127940" lon="114.2136955">
<ele>9</ele><time>2020-12-28T06:53:40.999Z</time><extensions><gpxtpx:TrackPointExtension><gpxtpx:hr>122</gpxtpx:hr></gpxtpx:TrackPointExtension></extensions></trkpt>
<trkpt lat="22.4128535" lon="114.2137170">
<ele>9</ele><time>2020-12-28T06:53:42.999Z</time><extensions><gpxtpx:TrackPointExtension><gpxtpx:hr>120</gpxtpx:hr></gpxtpx:TrackPointExtension></extensions></trkpt>
<trkpt lat="22.4129130" lon="114.2137384">
<ele>9</ele><time>2020-12-28T06:53:44.999Z</time><extensions><gpxtpx:TrackPointExtension><gpxtpx:hr>120</gpxtpx:hr></gpxtpx:TrackPointExtension></extensions></trkpt>
<trkpt lat="22.4129626" lon="114.2137814">
<ele>9</ele><time>2020-12-28T06:53:46.999Z</time><extensions><gpxtpx:TrackPointExtension><gpxtpx:hr>121</gpxtpx:hr></gpxtpx:TrackPointExtension></extensions></trkpt>
<trkpt lat="22.4130122" lon="114.2137814">
<ele>9</ele><time>2020-12-28T06:53:48.999Z</time><extensions><gpxtpx:TrackPointExtension><gpxtpx:hr>121</gpxtpx:hr></gpxtpx:TrackPointExtension></extensions></trkpt>
<trkpt lat="22.4130519" lon="114.2138243">
<ele>9</ele><time>2020-12-28T06:53:50.999Z</time><extensions><gpxtpx:TrackPointExtension><gpxtpx:hr>121</gpxtpx:hr></gpxtpx:TrackPointExtension></extensions></trkpt>
<trkpt lat="22.4130916" lon="114.2138457">
<ele>9</ele><time>2020-12-28T06:53:52.999Z</time><extensions><gpxtpx:TrackPointExtension><gpxtpx:hr>120</gpxtpx:hr></gpxtpx:TrackPointExtension></extensions></trkpt>
<trkpt lat="22.4131411" lon="114.2138672">
<ele>9</ele><time>2020-12-28T06:53:54.999Z</time><extensions><gpxtpx:TrackPointExtension><gpxtpx:hr>120</gpxtpx:hr></gpxtpx:TrackPointExtension></extensions></trkpt>
<trkpt lat="22.4131907" lon="114.2138886">
<ele>9</ele><time>2020-12-28T06:53:56.999Z</time><extensions><gpxtpx:TrackPointExtension><gpxtpx:hr>120</gpxtpx:hr></gpxtpx:TrackPointExtension></extensions></trkpt>
<trkpt lat="22.4132403" lon="114.2139101">
<ele>9</ele><time>2020-12-28T06:53:58.999Z</time><extensions><gpxtpx:TrackPointExtension><gpxtpx:hr>120</gpxtpx:hr></gpxtpx:TrackPointExtension></extensions></trkpt>
<trkpt lat="22.4132899" lon="114.2139316">
<ele>9</ele><time>2020-12-28T06:54:00.999Z</time><extensions><gpxtpx:TrackPointExtension><gpxtpx:hr>120</gpxtpx:hr></gpxtpx:TrackPointExtension></extensions></trkpt>
<trkpt lat="22.4133395" lon="114.2139530">
<ele>9</ele><time>2020-12-28T06:54:02.999Z</time><extensions><gpxtpx:TrackPointExtension><gpxtpx:hr>118</gpxtpx:hr></gpxtpx:TrackPointExtension></extensions></trkpt>
<trkpt lat="22.4133792" lon="114.2139745">
<ele>9</ele><time>2020-12-28T06:54:04.999Z</time><extensions><gpxtpx:TrackPointExtension><gpxtpx:hr>118</gpxtpx:hr></gpxtpx:TrackPointExtension></extensions></trkpt>
<trkpt lat="22.4134189" lon="114.2139959">
<ele>9</ele><time>2020-12-28T06:54:06.999Z</time><extensions><gpxtpx:TrackPointExtension><gpxtpx:hr>118</gpxtpx:hr></gpxtpx:TrackPointExtension></extensions></trkpt>
<trkpt lat="22.4134685" lon="114.2140174">
<ele>9</ele><time>2020-12-28T06:54:09.999Z</time><extensions><gpxtpx:TrackPointExtension><gpxtpx:hr>118</gpxtpx:hr></gpxtpx:TrackPointExtension></extensions></trkpt>
<trkpt lat="22.4135180" lon="114.2140603">
<ele>9</ele><time>2020-12-28T06:54:11.999Z</time><extensions><gpxtpx:TrackPointExtension><gpxtpx:hr>118</gpxtpx:hr></gpxtpx:TrackPointExtension></extensions></trkpt>
<trkpt lat="22.4135776" lon="114.2140818">
<ele>9</ele><time>2020-12-28T06:54:14.999Z</time><extensions><gpxtpx:TrackPointExtension><gpxtpx:hr>118</gpxtpx:hr></gpxtpx:TrackPointExtension></extensions></trkpt>
<trkpt lat="22.4136172" lon="114.2141032">
<ele>9</ele><time>2020-12-28T06:54:16.999Z</time><extensions><gpxtpx:TrackPointExtension><gpxtpx:hr>118</gpxtpx:hr></gpxtpx:TrackPointExtension></extensions></trkpt>
<trkpt lat="22.4136668" lon="114.2141247">
<ele>9</ele><time>2020-12-28T06:54:18.999Z</time><extensions><gpxtpx:TrackPointExtension><gpxtpx:hr>118</gpxtpx:hr></gpxtpx:TrackPointExtension></extensions></trkpt>
<trkpt lat="22.4137065" lon="114.2141676">
<ele>9</ele><time>2020-12-28T06:54:20.999Z</time><extensions><gpxtpx:TrackPointExtension><gpxtpx:hr>119</gpxtpx:hr></gpxtpx:TrackPointExtension></extensions></trkpt>
<trkpt lat="22.4137462" lon="114.2142105">
<ele>9</ele><time>2020-12-28T06:54:22.999Z</time><extensions><gpxtpx:TrackPointExtension><gpxtpx:hr>119</gpxtpx:hr></gpxtpx:TrackPointExtension></extensions></trkpt>
<trkpt lat="22.4137858" lon="114.2142534">
<ele>9</ele><time>2020-12-28T06:54:24.999Z</time><extensions><gpxtpx:TrackPointExtension><gpxtpx:hr>119</gpxtpx:hr></gpxtpx:TrackPointExtension></extensions></trkpt>
<trkpt lat="22.4138156" lon="114.2143178">
<ele>9</ele><time>2020-12-28T06:54:26.999Z</time><extensions><gpxtpx:TrackPointExtension><gpxtpx:hr>118</gpxtpx:hr></gpxtpx:TrackPointExtension></extensions></trkpt>
<trkpt lat="22.4138652" lon="114.2143393">
<ele>9</ele><time>2020-12-28T06:54:29.999Z</time><extensions><gpxtpx:TrackPointExtension><gpxtpx:hr>118</gpxtpx:hr></gpxtpx:TrackPointExtension></extensions></trkpt>
<trkpt lat="22.4139148" lon="114.2143393">
<ele>9</ele><time>2020-12-28T06:58:27.999Z</time><extensions><gpxtpx:TrackPointExtension><gpxtpx:hr>115</gpxtpx:hr></gpxtpx:TrackPointExtension></extensions></trkpt>
<trkpt lat="22.4138751" lon="114.2143607">
<ele>8</ele><time>2020-12-28T06:59:09.999Z</time><extensions><gpxtpx:TrackPointExtension><gpxtpx:hr>116</gpxtpx:hr></gpxtpx:TrackPointExtension></extensions></trkpt>
<trkpt lat="22.4138354" lon="114.2143393">
<ele>8</ele><time>2020-12-28T06:59:38.999Z</time><extensions><gpxtpx:TrackPointExtension><gpxtpx:hr>118</gpxtpx:hr></gpxtpx:TrackPointExtension></extensions></trkpt>
<trkpt lat="22.4137958" lon="114.2143178">
<ele>9</ele><time>2020-12-28T07:01:09.999Z</time><extensions><gpxtpx:TrackPointExtension><gpxtpx:hr>107</gpxtpx:hr></gpxtpx:TrackPointExtension></extensions></trkpt>
<trkpt lat="22.4138354" lon="114.2143393">
<ele>8</ele><time>2020-12-28T07:01:55.999Z</time><extensions><gpxtpx:TrackPointExtension><gpxtpx:hr>104</gpxtpx:hr></gpxtpx:TrackPointExtension></extensions></trkpt>
<trkpt lat="22.4138553" lon="114.2145109">
<ele>9</ele><time>2020-12-28T07:02:13.077Z</time><extensions><gpxtpx:TrackPointExtension><gpxtpx:hr>115</gpxtpx:hr></gpxtpx:TrackPointExtension></extensions></trkpt>
<trkpt lat="22.4138652" lon="114.2144465">
<ele>9</ele><time>2020-12-28T07:02:19.999Z</time><extensions><gpxtpx:TrackPointExtension><gpxtpx:hr>113</gpxtpx:hr></gpxtpx:TrackPointExtension></extensions></trkpt>
<trkpt lat="22.4138454" lon="114.2144036">
<ele>9</ele><time>2020-12-28T07:02:24.999Z</time><extensions><gpxtpx:TrackPointExtension><gpxtpx:hr>112</gpxtpx:hr></gpxtpx:TrackPointExtension></extensions></trkpt>
<trkpt lat="22.4138454" lon="114.2143393">
<ele>9</ele><time>2020-12-28T07:02:41.999Z</time><extensions><gpxtpx:TrackPointExtension><gpxtpx:hr>111</gpxtpx:hr></gpxtpx:TrackPointExtension></extensions></trkpt>
<trkpt lat="22.4138949" lon="114.2143393">
<ele>9</ele><time>2020-12-28T07:06:57.000Z</time><extensions><gpxtpx:TrackPointExtension><gpxtpx:hr>108</gpxtpx:hr></gpxtpx:TrackPointExtension></extensions></trkpt>
<trkpt lat="22.4138156" lon="114.2143178">
<ele>8</ele><time>2020-12-28T07:07:31.999Z</time><extensions><gpxtpx:TrackPointExtension><gpxtpx:hr>106</gpxtpx:hr></gpxtpx:TrackPointExtension></extensions></trkpt>
<trkpt lat="22.4138652" lon="114.2143178">
<ele>8</ele><time>2020-12-28T07:07:34.999Z</time><extensions><gpxtpx:TrackPointExtension><gpxtpx:hr>106</gpxtpx:hr></gpxtpx:TrackPointExtension></extensions></trkpt>
<trkpt lat="22.4138454" lon="114.2143607">
<ele>8</ele><time>2020-12-28T07:08:00.999Z</time><extensions><gpxtpx:TrackPointExtension><gpxtpx:hr>114</gpxtpx:hr></gpxtpx:TrackPointExtension></extensions></trkpt>
<trkpt lat="22.4138255" lon="114.2143178">
<ele>8</ele><time>2020-12-28T07:09:54.999Z</time><extensions><gpxtpx:TrackPointExtension><gpxtpx:hr>114</gpxtpx:hr></gpxtpx:TrackPointExtension></extensions></trkpt>
<trkpt lat="22.4138751" lon="114.2143178">
<ele>8</ele><time>2020-12-28T07:10:10.999Z</time><extensions><gpxtpx:TrackPointExtension><gpxtpx:hr>110</gpxtpx:hr></gpxtpx:TrackPointExtension></extensions></trkpt>
<trkpt lat="22.4139247" lon="114.2143178">
<ele>8</ele><time>2020-12-28T07:10:16.999Z</time><extensions><gpxtpx:TrackPointExtension><gpxtpx:hr>112</gpxtpx:hr></gpxtpx:TrackPointExtension></extensions></trkpt>
<trkpt lat="22.4139743" lon="114.2143178">
<ele>8</ele><time>2020-12-28T07:10:21.999Z</time><extensions><gpxtpx:TrackPointExtension><gpxtpx:hr>113</gpxtpx:hr></gpxtpx:TrackPointExtension></extensions></trkpt>
<trkpt lat="22.4140239" lon="114.2143178">
<ele>8</ele><time>2020-12-28T07:10:26.999Z</time><extensions><gpxtpx:TrackPointExtension><gpxtpx:hr>112</gpxtpx:hr></gpxtpx:TrackPointExtension></extensions></trkpt>
<trkpt lat="22.4140933" lon="114.2143393">
<ele>8</ele><time>2020-12-28T07:10:51.000Z</time><extensions><gpxtpx:TrackPointExtension><gpxtpx:hr>101</gpxtpx:hr></gpxtpx:TrackPointExtension></extensions></trkpt>
<trkpt lat="22.4141330" lon="114.2143607">
<ele>8</ele><time>2020-12-28T07:10:53.000Z</time><extensions><gpxtpx:TrackPointExtension><gpxtpx:hr>105</gpxtpx:hr></gpxtpx:TrackPointExtension></extensions></trkpt>
<trkpt lat="22.4141925" lon="114.2143607">
<ele>8</ele><time>2020-12-28T07:10:56.000Z</time><extensions><gpxtpx:TrackPointExtension><gpxtpx:hr>105</gpxtpx:hr></gpxtpx:TrackPointExtension></extensions></trkpt>
<trkpt lat="22.4142421" lon="114.2143607">
<ele>8</ele><time>2020-12-28T07:11:08.000Z</time><extensions><gpxtpx:TrackPointExtension><gpxtpx:hr>110</gpxtpx:hr></gpxtpx:TrackPointExtension></extensions></trkpt>
<trkpt lat="22.4142917" lon="114.2143393">
<ele>9</ele><time>2020-12-28T07:11:11.000Z</time><extensions><gpxtpx:TrackPointExtension><gpxtpx:hr>110</gpxtpx:hr></gpxtpx:TrackPointExtension></extensions></trkpt>
<trkpt lat="22.4143413" lon="114.2143607">
<ele>9</ele><time>2020-12-28T07:11:13.000Z</time><extensions><gpxtpx:TrackPointExtension><gpxtpx:hr>110</gpxtpx:hr></gpxtpx:TrackPointExtension></extensions></trkpt>
<trkpt lat="22.4144008" lon="114.2143822">
<ele>9</ele><time>2020-12-28T07:11:15.000Z</time><extensions><gpxtpx:TrackPointExtension><gpxtpx:hr>110</gpxtpx:hr></gpxtpx:TrackPointExtension></extensions></trkpt>
<trkpt lat="22.4144603" lon="114.2144036">
<ele>9</ele><time>2020-12-28T07:11:17.000Z</time><extensions><gpxtpx:TrackPointExtension><gpxtpx:hr>112</gpxtpx:hr></gpxtpx:TrackPointExtension></extensions></trkpt>
<trkpt lat="22.4145198" lon="114.2144251">
<ele>9</ele><time>2020-12-28T07:11:19.000Z</time><extensions><gpxtpx:TrackPointExtension><gpxtpx:hr>112</gpxtpx:hr></gpxtpx:TrackPointExtension></extensions></trkpt>
<trkpt lat="22.4145793" lon="114.2144465">
<ele>9</ele><time>2020-12-28T07:11:21.000Z</time><extensions><gpxtpx:TrackPointExtension><gpxtpx:hr>112</gpxtpx:hr></gpxtpx:TrackPointExtension></extensions></trkpt>
<trkpt lat="22.4146289" lon="114.2144680">
<ele>9</ele><time>2020-12-28T07:11:23.000Z</time><extensions><gpxtpx:TrackPointExtension><gpxtpx:hr>112</gpxtpx:hr></gpxtpx:TrackPointExtension></extensions></trkpt>
<trkpt lat="22.4146686" lon="114.2144895">
<ele>9</ele><time>2020-12-28T07:11:25.000Z</time><extensions><gpxtpx:TrackPointExtension><gpxtpx:hr>112</gpxtpx:hr></gpxtpx:TrackPointExtension></extensions></trkpt>
<trkpt lat="22.4147281" lon="114.2145109">
<ele>9</ele><time>2020-12-28T07:11:28.000Z</time><extensions><gpxtpx:TrackPointExtension><gpxtpx:hr>113</gpxtpx:hr></gpxtpx:TrackPointExtension></extensions></trkpt>
<trkpt lat="22.4147678" lon="114.2145324">
<ele>9</ele><time>2020-12-28T07:11:30.000Z</time><extensions><gpxtpx:TrackPointExtension><gpxtpx:hr>113</gpxtpx:hr></gpxtpx:TrackPointExtension></extensions></trkpt>
<trkpt lat="22.4148173" lon="114.2145324">
<ele>9</ele><time>2020-12-28T07:11:32.000Z</time><extensions><gpxtpx:TrackPointExtension><gpxtpx:hr>114</gpxtpx:hr></gpxtpx:TrackPointExtension></extensions></trkpt>
<trkpt lat="22.4148669" lon="114.2145324">
<ele>9</ele><time>2020-12-28T07:11:34.000Z</time><extensions><gpxtpx:TrackPointExtension><gpxtpx:hr>114</gpxtpx:hr></gpxtpx:TrackPointExtension></extensions></trkpt>
<trkpt lat="22.4149264" lon="114.2145324">
<ele>9</ele><time>2020-12-28T07:11:37.000Z</time><extensions><gpxtpx:TrackPointExtension><gpxtpx:hr>119</gpxtpx:hr></gpxtpx:TrackPointExtension></extensions></trkpt>
<trkpt lat="22.4149860" lon="114.2145324">
<ele>9</ele><time>2020-12-28T07:11:39.000Z</time><extensions><gpxtpx:TrackPointExtension><gpxtpx:hr>119</gpxtpx:hr></gpxtpx:TrackPointExtension></extensions></trkpt>
<trkpt lat="22.4150355" lon="114.2145324">
<ele>9</ele><time>2020-12-28T07:11:41.000Z</time><extensions><gpxtpx:TrackPointExtension><gpxtpx:hr>119</gpxtpx:hr></gpxtpx:TrackPointExtension></extensions></trkpt>
<trkpt lat="22.4151050" lon="114.2145324">
<ele>9</ele><time>2020-12-28T07:11:44.000Z</time><extensions><gpxtpx:TrackPointExtension><gpxtpx:hr>119</gpxtpx:hr></gpxtpx:TrackPointExtension></extensions></trkpt>
<trkpt lat="22.4151546" lon="114.2145109">
<ele>9</ele><time>2020-12-28T07:11:46.000Z</time><extensions><gpxtpx:TrackPointExtension><gpxtpx:hr>119</gpxtpx:hr></gpxtpx:TrackPointExtension></extensions></trkpt>
<trkpt lat="22.4152141" lon="114.2145109">
<ele>9</ele><time>2020-12-28T07:11:48.000Z</time><extensions><gpxtpx:TrackPointExtension><gpxtpx:hr>119</gpxtpx:hr></gpxtpx:TrackPointExtension></extensions></trkpt>
<trkpt lat="22.4152736" lon="114.2144680">
<ele>9</ele><time>2020-12-28T07:11:50.000Z</time><extensions><gpxtpx:TrackPointExtension><gpxtpx:hr>119</gpxtpx:hr></gpxtpx:TrackPointExtension></extensions></trkpt>
<trkpt lat="22.4153232" lon="114.2144465">
<ele>9</ele><time>2020-12-28T07:11:52.000Z</time><extensions><gpxtpx:TrackPointExtension><gpxtpx:hr>119</gpxtpx:hr></gpxtpx:TrackPointExtension></extensions></trkpt>
<trkpt lat="22.4153728" lon="114.2144251">
<ele>9</ele><time>2020-12-28T07:11:54.000Z</time><extensions><gpxtpx:TrackPointExtension><gpxtpx:hr>119</gpxtpx:hr></gpxtpx:TrackPointExtension></extensions></trkpt>
<trkpt lat="22.4154124" lon="114.2144036">
<ele>9</ele><time>2020-12-28T07:11:56.000Z</time><extensions><gpxtpx:TrackPointExtension><gpxtpx:hr>119</gpxtpx:hr></gpxtpx:TrackPointExtension></extensions></trkpt>
<trkpt lat="22.4154620" lon="114.2143607">
<ele>9</ele><time>2020-12-28T07:11:57.999Z</time><extensions><gpxtpx:TrackPointExtension><gpxtpx:hr>119</gpxtpx:hr></gpxtpx:TrackPointExtension></extensions></trkpt>
<trkpt lat="22.4155017" lon="114.2143393">
<ele>9</ele><time>2020-12-28T07:11:59.999Z</time><extensions><gpxtpx:TrackPointExtension><gpxtpx:hr>119</gpxtpx:hr></gpxtpx:TrackPointExtension></extensions></trkpt>
<trkpt lat="22.4155612" lon="114.2142963">
<ele>9</ele><time>2020-12-28T07:12:02.999Z</time><extensions><gpxtpx:TrackPointExtension><gpxtpx:hr>119</gpxtpx:hr></gpxtpx:TrackPointExtension></extensions></trkpt>
<trkpt lat="22.4156207" lon="114.2142749">
<ele>9</ele><time>2020-12-28T07:12:05.999Z</time><extensions><gpxtpx:TrackPointExtension><gpxtpx:hr>119</gpxtpx:hr></gpxtpx:TrackPointExtension></extensions></trkpt>
<trkpt lat="22.4156802" lon="114.2142534">
<ele>9</ele><time>2020-12-28T07:12:08.999Z</time><extensions><gpxtpx:TrackPointExtension><gpxtpx:hr>119</gpxtpx:hr></gpxtpx:TrackPointExtension></extensions></trkpt>
<trkpt lat="22.4157199" lon="114.2142320">
<ele>9</ele><time>2020-12-28T07:12:10.999Z</time><extensions><gpxtpx:TrackPointExtension><gpxtpx:hr>119</gpxtpx:hr></gpxtpx:TrackPointExtension></extensions></trkpt>
<trkpt lat="22.4157596" lon="114.2142105">
<ele>9</ele><time>2020-12-28T07:12:12.999Z</time><extensions><gpxtpx:TrackPointExtension><gpxtpx:hr>119</gpxtpx:hr></gpxtpx:TrackPointExtension></extensions></trkpt>
<trkpt lat="22.4157992" lon="114.2141891">
<ele>9</ele><time>2020-12-28T07:12:14.999Z</time><extensions><gpxtpx:TrackPointExtension><gpxtpx:hr>119</gpxtpx:hr></gpxtpx:TrackPointExtension></extensions></trkpt>
<trkpt lat="22.4158488" lon="114.2141676">
<ele>9</ele><time>2020-12-28T07:12:16.999Z</time><extensions><gpxtpx:TrackPointExtension><gpxtpx:hr>119</gpxtpx:hr></gpxtpx:TrackPointExtension></extensions></trkpt>
<trkpt lat="22.4158885" lon="114.2141247">
<ele>9</ele><time>2020-12-28T07:12:18.999Z</time><extensions><gpxtpx:TrackPointExtension><gpxtpx:hr>119</gpxtpx:hr></gpxtpx:TrackPointExtension></extensions></trkpt>
<trkpt lat="22.4159282" lon="114.2141032">
<ele>9</ele><time>2020-12-28T07:12:20.999Z</time><extensions><gpxtpx:TrackPointExtension><gpxtpx:hr>119</gpxtpx:hr></gpxtpx:TrackPointExtension></extensions></trkpt>
<trkpt lat="22.4159679" lon="114.2140818">
<ele>9</ele><time>2020-12-28T07:12:22.999Z</time><extensions><gpxtpx:TrackPointExtension><gpxtpx:hr>119</gpxtpx:hr></gpxtpx:TrackPointExtension></extensions></trkpt>
<trkpt lat="22.4160274" lon="114.2140603">
<ele>9</ele><time>2020-12-28T07:12:25.999Z</time><extensions><gpxtpx:TrackPointExtension><gpxtpx:hr>119</gpxtpx:hr></gpxtpx:TrackPointExtension></extensions></trkpt>
<trkpt lat="22.4160770" lon="114.2140603">
<ele>9</ele><time>2020-12-28T07:12:27.999Z</time><extensions><gpxtpx:TrackPointExtension><gpxtpx:hr>119</gpxtpx:hr></gpxtpx:TrackPointExtension></extensions></trkpt>
<trkpt lat="22.4161365" lon="114.2140388">
<ele>9</ele><time>2020-12-28T07:12:29.999Z</time><extensions><gpxtpx:TrackPointExtension><gpxtpx:hr>119</gpxtpx:hr></gpxtpx:TrackPointExtension></extensions></trkpt>
<trkpt lat="22.4161960" lon="114.2140174">
<ele>9</ele><time>2020-12-28T07:12:31.999Z</time><extensions><gpxtpx:TrackPointExtension><gpxtpx:hr>119</gpxtpx:hr></gpxtpx:TrackPointExtension></extensions></trkpt>
<trkpt lat="22.4162555" lon="114.2139959">
<ele>9</ele><time>2020-12-28T07:12:33.999Z</time><extensions><gpxtpx:TrackPointExtension><gpxtpx:hr>119</gpxtpx:hr></gpxtpx:TrackPointExtension></extensions></trkpt>
<trkpt lat="22.4162952" lon="114.2139745">
<ele>9</ele><time>2020-12-28T07:12:34.999Z</time><extensions><gpxtpx:TrackPointExtension><gpxtpx:hr>119</gpxtpx:hr></gpxtpx:TrackPointExtension></extensions></trkpt>
<trkpt lat="22.4163547" lon="114.2139530">
<ele>9</ele><time>2020-12-28T07:12:36.999Z</time><extensions><gpxtpx:TrackPointExtension><gpxtpx:hr>119</gpxtpx:hr></gpxtpx:TrackPointExtension></extensions></trkpt>
<trkpt lat="22.4164043" lon="114.2139316">
<ele>9</ele><time>2020-12-28T07:12:38.999Z</time><extensions><gpxtpx:TrackPointExtension><gpxtpx:hr>119</gpxtpx:hr></gpxtpx:TrackPointExtension></extensions></trkpt>
<trkpt lat="22.4164538" lon="114.2139101">
<ele>9</ele><time>2020-12-28T07:12:40.999Z</time><extensions><gpxtpx:TrackPointExtension><gpxtpx:hr>119</gpxtpx:hr></gpxtpx:TrackPointExtension></extensions></trkpt>
<trkpt lat="22.4165134" lon="114.2139101">
<ele>9</ele><time>2020-12-28T07:12:42.999Z</time><extensions><gpxtpx:TrackPointExtension><gpxtpx:hr>119</gpxtpx:hr></gpxtpx:TrackPointExtension></extensions></trkpt>
<trkpt lat="22.4165629" lon="114.2139101">
<ele>8</ele><time>2020-12-28T07:12:45.999Z</time><extensions><gpxtpx:TrackPointExtension><gpxtpx:hr>119</gpxtpx:hr></gpxtpx:TrackPointExtension></extensions></trkpt>
<trkpt lat="22.4166225" lon="114.2139101">
<ele>8</ele><time>2020-12-28T07:12:49.000Z</time><extensions><gpxtpx:TrackPointExtension><gpxtpx:hr>119</gpxtpx:hr></gpxtpx:TrackPointExtension></extensions></trkpt>
<trkpt lat="22.4166720" lon="114.2139101">
<ele>7</ele><time>2020-12-28T07:12:53.000Z</time><extensions><gpxtpx:TrackPointExtension><gpxtpx:hr>119</gpxtpx:hr></gpxtpx:TrackPointExtension></extensions></trkpt>
<trkpt lat="22.4167316" lon="114.2139101">
<ele>7</ele><time>2020-12-28T07:12:56.000Z</time><extensions><gpxtpx:TrackPointExtension><gpxtpx:hr>119</gpxtpx:hr></gpxtpx:TrackPointExtension></extensions></trkpt>
<trkpt lat="22.4167811" lon="114.2139101">
<ele>6</ele><time>2020-12-28T07:12:58.000Z</time><extensions><gpxtpx:TrackPointExtension><gpxtpx:hr>119</gpxtpx:hr></gpxtpx:TrackPointExtension></extensions></trkpt>
<trkpt lat="22.4168307" lon="114.2139316">
<ele>6</ele><time>2020-12-28T07:13:01.000Z</time><extensions><gpxtpx:TrackPointExtension><gpxtpx:hr>119</gpxtpx:hr></gpxtpx:TrackPointExtension></extensions></trkpt>
<trkpt lat="22.4168902" lon="114.2139101">
<ele>5</ele><time>2020-12-28T07:13:04.000Z</time><extensions><gpxtpx:TrackPointExtension><gpxtpx:hr>119</gpxtpx:hr></gpxtpx:TrackPointExtension></extensions></trkpt>
<trkpt lat="22.4169497" lon="114.2139316">
<ele>5</ele><time>2020-12-28T07:13:06.000Z</time><extensions><gpxtpx:TrackPointExtension><gpxtpx:hr>119</gpxtpx:hr></gpxtpx:TrackPointExtension></extensions></trkpt>
<trkpt lat="22.4170291" lon="114.2139530">
<ele>4</ele><time>2020-12-28T07:13:08.000Z</time><extensions><gpxtpx:TrackPointExtension><gpxtpx:hr>119</gpxtpx:hr></gpxtpx:TrackPointExtension></extensions></trkpt>
<trkpt lat="22.4170886" lon="114.2139530">
<ele>4</ele><time>2020-12-28T07:13:10.024Z</time><extensions><gpxtpx:TrackPointExtension><gpxtpx:hr>119</gpxtpx:hr></gpxtpx:TrackPointExtension></extensions></trkpt>
<trkpt lat="22.4171580" lon="114.2139530">
<ele>4</ele><time>2020-12-28T07:13:12.027Z</time><extensions><gpxtpx:TrackPointExtension><gpxtpx:hr>119</gpxtpx:hr></gpxtpx:TrackPointExtension></extensions></trkpt>
<trkpt lat="22.4184275" lon="114.2139101">
<ele>5</ele><time>2020-12-28T07:13:49.032Z</time><extensions><gpxtpx:TrackPointExtension><gpxtpx:hr>119</gpxtpx:hr></gpxtpx:TrackPointExtension></extensions></trkpt>
<trkpt lat="22.4184870" lon="114.2139745">
<ele>5</ele><time>2020-12-28T07:13:50.999Z</time><extensions><gpxtpx:TrackPointExtension><gpxtpx:hr>119</gpxtpx:hr></gpxtpx:TrackPointExtension></extensions></trkpt>
<trkpt lat="22.4185763" lon="114.2139745">
<ele>6</ele><time>2020-12-28T07:13:52.999Z</time><extensions><gpxtpx:TrackPointExtension><gpxtpx:hr>119</gpxtpx:hr></gpxtpx:TrackPointExtension></extensions></trkpt>
<trkpt lat="22.4186259" lon="114.2140174">
<ele>6</ele><time>2020-12-28T07:13:53.999Z</time><extensions><gpxtpx:TrackPointExtension><gpxtpx:hr>119</gpxtpx:hr></gpxtpx:TrackPointExtension></extensions></trkpt>
<trkpt lat="22.4186854" lon="114.2139959">
<ele>7</ele><time>2020-12-28T07:13:56.999Z</time><extensions><gpxtpx:TrackPointExtension><gpxtpx:hr>119</gpxtpx:hr></gpxtpx:TrackPointExtension></extensions></trkpt>
<trkpt lat="22.4187350" lon="114.2139959">
<ele>7</ele><time>2020-12-28T07:13:58.999Z</time><extensions><gpxtpx:TrackPointExtension><gpxtpx:hr>119</gpxtpx:hr></gpxtpx:TrackPointExtension></extensions></trkpt>
<trkpt lat="22.4187846" lon="114.2139959">
<ele>7</ele><time>2020-12-28T07:14:00.999Z</time><extensions><gpxtpx:TrackPointExtension><gpxtpx:hr>119</gpxtpx:hr></gpxtpx:TrackPointExtension></extensions></trkpt>
<trkpt lat="22.4188441" lon="114.2139959">
<ele>8</ele><time>2020-12-28T07:14:02.999Z</time><extensions><gpxtpx:TrackPointExtension><gpxtpx:hr>119</gpxtpx:hr></gpxtpx:TrackPointExtension></extensions></trkpt>
<trkpt lat="22.4188838" lon="114.2139745">
<ele>8</ele><time>2020-12-28T07:14:04.999Z</time><extensions><gpxtpx:TrackPointExtension><gpxtpx:hr>119</gpxtpx:hr></gpxtpx:TrackPointExtension></extensions></trkpt>
<trkpt lat="22.4189433" lon="114.2139745">
<ele>8</ele><time>2020-12-28T07:14:06.999Z</time><extensions><gpxtpx:TrackPointExtension><gpxtpx:hr>119</gpxtpx:hr></gpxtpx:TrackPointExtension></extensions></trkpt>
<trkpt lat="22.4190028" lon="114.2139745">
<ele>9</ele><time>2020-12-28T07:14:08.999Z</time><extensions><gpxtpx:TrackPointExtension><gpxtpx:hr>119</gpxtpx:hr></gpxtpx:TrackPointExtension></extensions></trkpt>
<trkpt lat="22.4190623" lon="114.2139745">
<ele>9</ele><time>2020-12-28T07:14:11.999Z</time><extensions><gpxtpx:TrackPointExtension><gpxtpx:hr>119</gpxtpx:hr></gpxtpx:TrackPointExtension></extensions></trkpt>
<trkpt lat="22.4191317" lon="114.2139745">
<ele>9</ele><time>2020-12-28T07:14:14.999Z</time><extensions><gpxtpx:TrackPointExtension><gpxtpx:hr>119</gpxtpx:hr></gpxtpx:TrackPointExtension></extensions></trkpt>
<trkpt lat="22.4191813" lon="114.2139745">
<ele>10</ele><time>2020-12-28T07:14:16.999Z</time><extensions><gpxtpx:TrackPointExtension><gpxtpx:hr>119</gpxtpx:hr></gpxtpx:TrackPointExtension></extensions></trkpt>
<trkpt lat="22.4192309" lon="114.2139745">
<ele>10</ele><time>2020-12-28T07:14:18.999Z</time><extensions><gpxtpx:TrackPointExtension><gpxtpx:hr>119</gpxtpx:hr></gpxtpx:TrackPointExtension></extensions></trkpt>
<trkpt lat="22.4192904" lon="114.2139530">
<ele>11</ele><time>2020-12-28T07:14:20.999Z</time><extensions><gpxtpx:TrackPointExtension><gpxtpx:hr>147</gpxtpx:hr></gpxtpx:TrackPointExtension></extensions></trkpt>
<trkpt lat="22.4193400" lon="114.2139530">
<ele>11</ele><time>2020-12-28T07:14:22.999Z</time><extensions><gpxtpx:TrackPointExtension><gpxtpx:hr>147</gpxtpx:hr></gpxtpx:TrackPointExtension></extensions></trkpt>
<trkpt lat="22.4193995" lon="114.2139530">
<ele>11</ele><time>2020-12-28T07:14:24.999Z</time><extensions><gpxtpx:TrackPointExtension><gpxtpx:hr>147</gpxtpx:hr></gpxtpx:TrackPointExtension></extensions></trkpt>
<trkpt lat="22.4194590" lon="114.2139316">
<ele>11</ele><time>2020-12-28T07:14:26.999Z</time><extensions><gpxtpx:TrackPointExtension><gpxtpx:hr>146</gpxtpx:hr></gpxtpx:TrackPointExtension></extensions></trkpt>
<trkpt lat="22.4195185" lon="114.2139316">
<ele>11</ele><time>2020-12-28T07:14:28.999Z</time><extensions><gpxtpx:TrackPointExtension><gpxtpx:hr>146</gpxtpx:hr></gpxtpx:TrackPointExtension></extensions></trkpt>
<trkpt lat="22.4195879" lon="114.2139101">
<ele>11</ele><time>2020-12-28T07:14:30.999Z</time><extensions><gpxtpx:TrackPointExtension><gpxtpx:hr>146</gpxtpx:hr></gpxtpx:TrackPointExtension></extensions></trkpt>
<trkpt lat="22.4196474" lon="114.2139101">
<ele>11</ele><time>2020-12-28T07:14:32.999Z</time><extensions><gpxtpx:TrackPointExtension><gpxtpx:hr>146</gpxtpx:hr></gpxtpx:TrackPointExtension></extensions></trkpt>
<trkpt lat="22.4197070" lon="114.2139101">
<ele>11</ele><time>2020-12-28T07:14:34.999Z</time><extensions><gpxtpx:TrackPointExtension><gpxtpx:hr>146</gpxtpx:hr></gpxtpx:TrackPointExtension></extensions></trkpt>
<trkpt lat="22.4197565" lon="114.2138886">
<ele>11</ele><time>2020-12-28T07:14:36.999Z</time><extensions><gpxtpx:TrackPointExtension><gpxtpx:hr>146</gpxtpx:hr></gpxtpx:TrackPointExtension></extensions></trkpt>
<trkpt lat="22.4198061" lon="114.2138886">
<ele>10</ele><time>2020-12-28T07:14:38.999Z</time><extensions><gpxtpx:TrackPointExtension><gpxtpx:hr>146</gpxtpx:hr></gpxtpx:TrackPointExtension></extensions></trkpt>
<trkpt lat="22.4198557" lon="114.2138672">
<ele>10</ele><time>2020-12-28T07:14:40.999Z</time><extensions><gpxtpx:TrackPointExtension><gpxtpx:hr>146</gpxtpx:hr></gpxtpx:TrackPointExtension></extensions></trkpt>
<trkpt lat="22.4199152" lon="114.2138672">
<ele>10</ele><time>2020-12-28T07:14:42.999Z</time><extensions><gpxtpx:TrackPointExtension><gpxtpx:hr>146</gpxtpx:hr></gpxtpx:TrackPointExtension></extensions></trkpt>
<trkpt lat="22.4199847" lon="114.2138672">
<ele>10</ele><time>2020-12-28T07:14:45.999Z</time><extensions><gpxtpx:TrackPointExtension><gpxtpx:hr>146</gpxtpx:hr></gpxtpx:TrackPointExtension></extensions></trkpt>
<trkpt lat="22.4200342" lon="114.2138457">
<ele>10</ele><time>2020-12-28T07:14:47.999Z</time><extensions><gpxtpx:TrackPointExtension><gpxtpx:hr>146</gpxtpx:hr></gpxtpx:TrackPointExtension></extensions></trkpt>
<trkpt lat="22.4200937" lon="114.2138457">
<ele>10</ele><time>2020-12-28T07:14:49.999Z</time><extensions><gpxtpx:TrackPointExtension><gpxtpx:hr>146</gpxtpx:hr></gpxtpx:TrackPointExtension></extensions></trkpt>
<trkpt lat="22.4201731" lon="114.2138457">
<ele>10</ele><time>2020-12-28T07:14:52.999Z</time><extensions><gpxtpx:TrackPointExtension><gpxtpx:hr>145</gpxtpx:hr></gpxtpx:TrackPointExtension></extensions></trkpt>
<trkpt lat="22.4202227" lon="114.2138243">
<ele>10</ele><time>2020-12-28T07:14:55.000Z</time><extensions><gpxtpx:TrackPointExtension><gpxtpx:hr>145</gpxtpx:hr></gpxtpx:TrackPointExtension></extensions></trkpt>
<trkpt lat="22.4202822" lon="114.2138028">
<ele>11</ele><time>2020-12-28T07:14:57.000Z</time><extensions><gpxtpx:TrackPointExtension><gpxtpx:hr>143</gpxtpx:hr></gpxtpx:TrackPointExtension></extensions></trkpt>
<trkpt lat="22.4203417" lon="114.2138028">
<ele>11</ele><time>2020-12-28T07:14:59.000Z</time><extensions><gpxtpx:TrackPointExtension><gpxtpx:hr>143</gpxtpx:hr></gpxtpx:TrackPointExtension></extensions></trkpt>
<trkpt lat="22.4203913" lon="114.2137814">
<ele>11</ele><time>2020-12-28T07:15:01.000Z</time><extensions><gpxtpx:TrackPointExtension><gpxtpx:hr>142</gpxtpx:hr></gpxtpx:TrackPointExtension></extensions></trkpt>
<trkpt lat="22.4204409" lon="114.2137814">
<ele>11</ele><time>2020-12-28T07:15:03.000Z</time><extensions><gpxtpx:TrackPointExtension><gpxtpx:hr>142</gpxtpx:hr></gpxtpx:TrackPointExtension></extensions></trkpt>
<trkpt lat="22.4204905" lon="114.2137814">
<ele>11</ele><time>2020-12-28T07:15:05.000Z</time><extensions><gpxtpx:TrackPointExtension><gpxtpx:hr>142</gpxtpx:hr></gpxtpx:TrackPointExtension></extensions></trkpt>
<trkpt lat="22.4205401" lon="114.2137599">
<ele>11</ele><time>2020-12-28T07:15:07.000Z</time><extensions><gpxtpx:TrackPointExtension><gpxtpx:hr>141</gpxtpx:hr></gpxtpx:TrackPointExtension></extensions></trkpt>
<trkpt lat="22.4205996" lon="114.2137599">
<ele>11</ele><time>2020-12-28T07:15:09.000Z</time><extensions><gpxtpx:TrackPointExtension><gpxtpx:hr>141</gpxtpx:hr></gpxtpx:TrackPointExtension></extensions></trkpt>
<trkpt lat="22.4206591" lon="114.2137599">
<ele>11</ele><time>2020-12-28T07:15:11.000Z</time><extensions><gpxtpx:TrackPointExtension><gpxtpx:hr>141</gpxtpx:hr></gpxtpx:TrackPointExtension></extensions></trkpt>
<trkpt lat="22.4207087" lon="114.2137384">
<ele>10</ele><time>2020-12-28T07:15:13.000Z</time><extensions><gpxtpx:TrackPointExtension><gpxtpx:hr>138</gpxtpx:hr></gpxtpx:TrackPointExtension></extensions></trkpt>
<trkpt lat="22.4207582" lon="114.2137384">
<ele>10</ele><time>2020-12-28T07:15:15.000Z</time><extensions><gpxtpx:TrackPointExtension><gpxtpx:hr>138</gpxtpx:hr></gpxtpx:TrackPointExtension></extensions></trkpt>
<trkpt lat="22.4207979" lon="114.2137170">
<ele>10</ele><time>2020-12-28T07:15:16.000Z</time><extensions><gpxtpx:TrackPointExtension><gpxtpx:hr>131</gpxtpx:hr></gpxtpx:TrackPointExtension></extensions></trkpt>
<trkpt lat="22.4208673" lon="114.2136955">
<ele>10</ele><time>2020-12-28T07:15:18.000Z</time><extensions><gpxtpx:TrackPointExtension><gpxtpx:hr>131</gpxtpx:hr></gpxtpx:TrackPointExtension></extensions></trkpt>
<trkpt lat="22.4209268" lon="114.2136741">
<ele>10</ele><time>2020-12-28T07:15:20.000Z</time><extensions><gpxtpx:TrackPointExtension><gpxtpx:hr>131</gpxtpx:hr></gpxtpx:TrackPointExtension></extensions></trkpt>
<trkpt lat="22.4209864" lon="114.2136526">
<ele>10</ele><time>2020-12-28T07:15:22.000Z</time><extensions><gpxtpx:TrackPointExtension><gpxtpx:hr>129</gpxtpx:hr></gpxtpx:TrackPointExtension></extensions></trkpt>
<trkpt lat="22.4210459" lon="114.2136526">
<ele>10</ele><time>2020-12-28T07:15:25.000Z</time><extensions><gpxtpx:TrackPointExtension><gpxtpx:hr>129</gpxtpx:hr></gpxtpx:TrackPointExtension></extensions></trkpt>
<trkpt lat="22.4210955" lon="114.2136312">
<ele>10</ele><time>2020-12-28T07:15:27.000Z</time><extensions><gpxtpx:TrackPointExtension><gpxtpx:hr>128</gpxtpx:hr></gpxtpx:TrackPointExtension></extensions></trkpt>
<trkpt lat="22.4211450" lon="114.2136097">
<ele>10</ele><time>2020-12-28T07:15:29.000Z</time><extensions><gpxtpx:TrackPointExtension><gpxtpx:hr>128</gpxtpx:hr></gpxtpx:TrackPointExtension></extensions></trkpt>
<trkpt lat="22.4211847" lon="114.2135882">
<ele>10</ele><time>2020-12-28T07:15:31.000Z</time><extensions><gpxtpx:TrackPointExtension><gpxtpx:hr>128</gpxtpx:hr></gpxtpx:TrackPointExtension></extensions></trkpt>
<trkpt lat="22.4212343" lon="114.2135668">
<ele>10</ele><time>2020-12-28T07:15:33.000Z</time><extensions><gpxtpx:TrackPointExtension><gpxtpx:hr>128</gpxtpx:hr></gpxtpx:TrackPointExtension></extensions></trkpt>
<trkpt lat="22.4212839" lon="114.2135668">
<ele>10</ele><time>2020-12-28T07:15:34.999Z</time><extensions><gpxtpx:TrackPointExtension><gpxtpx:hr>128</gpxtpx:hr></gpxtpx:TrackPointExtension></extensions></trkpt>
<trkpt lat="22.4213434" lon="114.2135453">
<ele>10</ele><time>2020-12-28T07:15:36.999Z</time><extensions><gpxtpx:TrackPointExtension><gpxtpx:hr>128</gpxtpx:hr></gpxtpx:TrackPointExtension></extensions></trkpt>
<trkpt lat="22.4213831" lon="114.2135239">
<ele>11</ele><time>2020-12-28T07:15:38.999Z</time><extensions><gpxtpx:TrackPointExtension><gpxtpx:hr>128</gpxtpx:hr></gpxtpx:TrackPointExtension></extensions></trkpt>
<trkpt lat="22.4214426" lon="114.2135239">
<ele>11</ele><time>2020-12-28T07:15:40.999Z</time><extensions><gpxtpx:TrackPointExtension><gpxtpx:hr>128</gpxtpx:hr></gpxtpx:TrackPointExtension></extensions></trkpt>
<trkpt lat="22.4214922" lon="114.2135024">
<ele>11</ele><time>2020-12-28T07:15:42.999Z</time><extensions><gpxtpx:TrackPointExtension><gpxtpx:hr>124</gpxtpx:hr></gpxtpx:TrackPointExtension></extensions></trkpt>
<trkpt lat="22.4215517" lon="114.2134809">
<ele>11</ele><time>2020-12-28T07:15:44.999Z</time><extensions><gpxtpx:TrackPointExtension><gpxtpx:hr>124</gpxtpx:hr></gpxtpx:TrackPointExtension></extensions></trkpt>
<trkpt lat="22.4216112" lon="114.2134380">
<ele>11</ele><time>2020-12-28T07:15:46.999Z</time><extensions><gpxtpx:TrackPointExtension><gpxtpx:hr>125</gpxtpx:hr></gpxtpx:TrackPointExtension></extensions></trkpt>
<trkpt lat="22.4216707" lon="114.2134166">
<ele>10</ele><time>2020-12-28T07:15:48.999Z</time><extensions><gpxtpx:TrackPointExtension><gpxtpx:hr>125</gpxtpx:hr></gpxtpx:TrackPointExtension></extensions></trkpt>
<trkpt lat="22.4217104" lon="114.2133951">
<ele>10</ele><time>2020-12-28T07:15:50.999Z</time><extensions><gpxtpx:TrackPointExtension><gpxtpx:hr>125</gpxtpx:hr></gpxtpx:TrackPointExtension></extensions></trkpt>
<trkpt lat="22.4217599" lon="114.2133737">
<ele>10</ele><time>2020-12-28T07:15:52.999Z</time><extensions><gpxtpx:TrackPointExtension><gpxtpx:hr>124</gpxtpx:hr></gpxtpx:TrackPointExtension></extensions></trkpt>
<trkpt lat="22.4218294" lon="114.2133522">
<ele>10</ele><time>2020-12-28T07:15:55.999Z</time><extensions><gpxtpx:TrackPointExtension><gpxtpx:hr>124</gpxtpx:hr></gpxtpx:TrackPointExtension></extensions></trkpt>
<trkpt lat="22.4218790" lon="114.2133307">
<ele>10</ele><time>2020-12-28T07:15:57.999Z</time><extensions><gpxtpx:TrackPointExtension><gpxtpx:hr>122</gpxtpx:hr></gpxtpx:TrackPointExtension></extensions></trkpt>
<trkpt lat="22.4219385" lon="114.2132878">
<ele>10</ele><time>2020-12-28T07:15:59.999Z</time><extensions><gpxtpx:TrackPointExtension><gpxtpx:hr>122</gpxtpx:hr></gpxtpx:TrackPointExtension></extensions></trkpt>
<trkpt lat="22.4219980" lon="114.2132664">
<ele>10</ele><time>2020-12-28T07:16:01.999Z</time><extensions><gpxtpx:TrackPointExtension><gpxtpx:hr>123</gpxtpx:hr></gpxtpx:TrackPointExtension></extensions></trkpt>
<trkpt lat="22.4220476" lon="114.2132235">
<ele>10</ele><time>2020-12-28T07:16:03.999Z</time><extensions><gpxtpx:TrackPointExtension><gpxtpx:hr>123</gpxtpx:hr></gpxtpx:TrackPointExtension></extensions></trkpt>
<trkpt lat="22.4220971" lon="114.2132020">
<ele>10</ele><time>2020-12-28T07:16:05.999Z</time><extensions><gpxtpx:TrackPointExtension><gpxtpx:hr>120</gpxtpx:hr></gpxtpx:TrackPointExtension></extensions></trkpt>
<trkpt lat="22.4221467" lon="114.2131805">
<ele>10</ele><time>2020-12-28T07:16:08.999Z</time><extensions><gpxtpx:TrackPointExtension><gpxtpx:hr>120</gpxtpx:hr></gpxtpx:TrackPointExtension></extensions></trkpt>
<trkpt lat="22.4221864" lon="114.2131591">
<ele>10</ele><time>2020-12-28T07:16:10.999Z</time><extensions><gpxtpx:TrackPointExtension><gpxtpx:hr>120</gpxtpx:hr></gpxtpx:TrackPointExtension></extensions></trkpt>
<trkpt lat="22.4222459" lon="114.2131376">
<ele>10</ele><time>2020-12-28T07:16:12.999Z</time><extensions><gpxtpx:TrackPointExtension><gpxtpx:hr>119</gpxtpx:hr></gpxtpx:TrackPointExtension></extensions></trkpt>
<trkpt lat="22.4222955" lon="114.2130947">
<ele>10</ele><time>2020-12-28T07:16:14.999Z</time><extensions><gpxtpx:TrackPointExtension><gpxtpx:hr>119</gpxtpx:hr></gpxtpx:TrackPointExtension></extensions></trkpt>
<trkpt lat="22.4223451" lon="114.2130947">
<ele>10</ele><time>2020-12-28T07:16:16.999Z</time><extensions><gpxtpx:TrackPointExtension><gpxtpx:hr>121</gpxtpx:hr></gpxtpx:TrackPointExtension></extensions></trkpt>
<trkpt lat="22.4223947" lon="114.2130518">
<ele>10</ele><time>2020-12-28T07:16:19.999Z</time><extensions><gpxtpx:TrackPointExtension><gpxtpx:hr>121</gpxtpx:hr></gpxtpx:TrackPointExtension></extensions></trkpt>
<trkpt lat="22.4224443" lon="114.2130303">
<ele>10</ele><time>2020-12-28T07:16:21.999Z</time><extensions><gpxtpx:TrackPointExtension><gpxtpx:hr>122</gpxtpx:hr></gpxtpx:TrackPointExtension></extensions></trkpt>
<trkpt lat="22.4224939" lon="114.2130089">
<ele>10</ele><time>2020-12-28T07:16:23.999Z</time><extensions><gpxtpx:TrackPointExtension><gpxtpx:hr>122</gpxtpx:hr></gpxtpx:TrackPointExtension></extensions></trkpt>
<trkpt lat="22.4225335" lon="114.2129874">
<ele>10</ele><time>2020-12-28T07:16:25.999Z</time><extensions><gpxtpx:TrackPointExtension><gpxtpx:hr>122</gpxtpx:hr></gpxtpx:TrackPointExtension></extensions></trkpt>
<trkpt lat="22.4225732" lon="114.2129445">
<ele>10</ele><time>2020-12-28T07:16:27.999Z</time><extensions><gpxtpx:TrackPointExtension><gpxtpx:hr>122</gpxtpx:hr></gpxtpx:TrackPointExtension></extensions></trkpt>
<trkpt lat="22.4226228" lon="114.2129230">
<ele>10</ele><time>2020-12-28T07:16:29.999Z</time><extensions><gpxtpx:TrackPointExtension><gpxtpx:hr>122</gpxtpx:hr></gpxtpx:TrackPointExtension></extensions></trkpt>
<trkpt lat="22.4226525" lon="114.2128801">
<ele>10</ele><time>2020-12-28T07:16:31.999Z</time><extensions><gpxtpx:TrackPointExtension><gpxtpx:hr>124</gpxtpx:hr></gpxtpx:TrackPointExtension></extensions></trkpt>
<trkpt lat="22.4227021" lon="114.2128587">
<ele>10</ele><time>2020-12-28T07:16:33.999Z</time><extensions><gpxtpx:TrackPointExtension><gpxtpx:hr>124</gpxtpx:hr></gpxtpx:TrackPointExtension></extensions></trkpt>
<trkpt lat="22.4227616" lon="114.2128158">
<ele>10</ele><time>2020-12-28T07:16:36.999Z</time><extensions><gpxtpx:TrackPointExtension><gpxtpx:hr>127</gpxtpx:hr></gpxtpx:TrackPointExtension></extensions></trkpt>
<trkpt lat="22.4228112" lon="114.2127943">
<ele>10</ele><time>2020-12-28T07:16:38.999Z</time><extensions><gpxtpx:TrackPointExtension><gpxtpx:hr>127</gpxtpx:hr></gpxtpx:TrackPointExtension></extensions></trkpt>
<trkpt lat="22.4228608" lon="114.2128158">
<ele>10</ele><time>2020-12-28T07:16:41.999Z</time><extensions><gpxtpx:TrackPointExtension><gpxtpx:hr>125</gpxtpx:hr></gpxtpx:TrackPointExtension></extensions></trkpt>
<trkpt lat="22.4228806" lon="114.2128587">
<ele>10</ele><time>2020-12-28T07:16:42.999Z</time><extensions><gpxtpx:TrackPointExtension><gpxtpx:hr>125</gpxtpx:hr></gpxtpx:TrackPointExtension></extensions></trkpt>
<trkpt lat="22.4229104" lon="114.2129230">
<ele>10</ele><time>2020-12-28T07:16:44.999Z</time><extensions><gpxtpx:TrackPointExtension><gpxtpx:hr>125</gpxtpx:hr></gpxtpx:TrackPointExtension></extensions></trkpt>
<trkpt lat="22.4229302" lon="114.2129660">
<ele>10</ele><time>2020-12-28T07:16:46.999Z</time><extensions><gpxtpx:TrackPointExtension><gpxtpx:hr>124</gpxtpx:hr></gpxtpx:TrackPointExtension></extensions></trkpt>
<trkpt lat="22.4229501" lon="114.2130303">
<ele>9</ele><time>2020-12-28T07:16:48.999Z</time><extensions><gpxtpx:TrackPointExtension><gpxtpx:hr>124</gpxtpx:hr></gpxtpx:TrackPointExtension></extensions></trkpt>
<trkpt lat="22.4229798" lon="114.2130733">
<ele>9</ele><time>2020-12-28T07:16:50.999Z</time><extensions><gpxtpx:TrackPointExtension><gpxtpx:hr>123</gpxtpx:hr></gpxtpx:TrackPointExtension></extensions></trkpt>
<trkpt lat="22.4229997" lon="114.2131376">
<ele>9</ele><time>2020-12-28T07:16:52.999Z</time><extensions><gpxtpx:TrackPointExtension><gpxtpx:hr>123</gpxtpx:hr></gpxtpx:TrackPointExtension></extensions></trkpt>
<trkpt lat="22.4230294" lon="114.2132020">
<ele>9</ele><time>2020-12-28T07:16:54.999Z</time><extensions><gpxtpx:TrackPointExtension><gpxtpx:hr>123</gpxtpx:hr></gpxtpx:TrackPointExtension></extensions></trkpt>
<trkpt lat="22.4230592" lon="114.2132664">
<ele>9</ele><time>2020-12-28T07:16:56.999Z</time><extensions><gpxtpx:TrackPointExtension><gpxtpx:hr>124</gpxtpx:hr></gpxtpx:TrackPointExtension></extensions></trkpt>
<trkpt lat="22.4230889" lon="114.2133307">
<ele>8</ele><time>2020-12-28T07:16:58.999Z</time><extensions><gpxtpx:TrackPointExtension><gpxtpx:hr>124</gpxtpx:hr></gpxtpx:TrackPointExtension></extensions></trkpt>
<trkpt lat="22.4231385" lon="114.2133951">
<ele>8</ele><time>2020-12-28T07:17:01.000Z</time><extensions><gpxtpx:TrackPointExtension><gpxtpx:hr>124</gpxtpx:hr></gpxtpx:TrackPointExtension></extensions></trkpt>
<trkpt lat="22.4231683" lon="114.2134380">
<ele>7</ele><time>2020-12-28T07:17:02.000Z</time><extensions><gpxtpx:TrackPointExtension><gpxtpx:hr>123</gpxtpx:hr></gpxtpx:TrackPointExtension></extensions></trkpt>
<trkpt lat="22.4231980" lon="114.2135024">
<ele>7</ele><time>2020-12-28T07:17:04.000Z</time><extensions><gpxtpx:TrackPointExtension><gpxtpx:hr>123</gpxtpx:hr></gpxtpx:TrackPointExtension></extensions></trkpt>
<trkpt lat="22.4232178" lon="114.2135882">
<ele>7</ele><time>2020-12-28T07:17:06.000Z</time><extensions><gpxtpx:TrackPointExtension><gpxtpx:hr>116</gpxtpx:hr></gpxtpx:TrackPointExtension></extensions></trkpt>
<trkpt lat="22.4232377" lon="114.2136741">
<ele>6</ele><time>2020-12-28T07:17:08.000Z</time><extensions><gpxtpx:TrackPointExtension><gpxtpx:hr>116</gpxtpx:hr></gpxtpx:TrackPointExtension></extensions></trkpt>
<trkpt lat="22.4232674" lon="114.2137170">
<ele>6</ele><time>2020-12-28T07:17:09.000Z</time><extensions><gpxtpx:TrackPointExtension><gpxtpx:hr>116</gpxtpx:hr></gpxtpx:TrackPointExtension></extensions></trkpt>
<trkpt lat="22.4232873" lon="114.2137599">
<ele>6</ele><time>2020-12-28T07:17:10.000Z</time><extensions><gpxtpx:TrackPointExtension><gpxtpx:hr>116</gpxtpx:hr></gpxtpx:TrackPointExtension></extensions></trkpt>
<trkpt lat="22.4232972" lon="114.2138243">
<ele>6</ele><time>2020-12-28T07:17:11.000Z</time><extensions><gpxtpx:TrackPointExtension><gpxtpx:hr>115</gpxtpx:hr></gpxtpx:TrackPointExtension></extensions></trkpt>
<trkpt lat="22.4233071" lon="114.2139101">
<ele>6</ele><time>2020-12-28T07:17:13.000Z</time><extensions><gpxtpx:TrackPointExtension><gpxtpx:hr>115</gpxtpx:hr></gpxtpx:TrackPointExtension></extensions></trkpt>
<trkpt lat="22.4233269" lon="114.2139745">
<ele>6</ele><time>2020-12-28T07:17:14.026Z</time><extensions><gpxtpx:TrackPointExtension><gpxtpx:hr>115</gpxtpx:hr></gpxtpx:TrackPointExtension></extensions></trkpt>
<trkpt lat="22.4233468" lon="114.2140603">
<ele>6</ele><time>2020-12-28T07:17:16.028Z</time><extensions><gpxtpx:TrackPointExtension><gpxtpx:hr>115</gpxtpx:hr></gpxtpx:TrackPointExtension></extensions></trkpt>
<trkpt lat="22.4233567" lon="114.2141247">
<ele>6</ele><time>2020-12-28T07:17:17.023Z</time><extensions><gpxtpx:TrackPointExtension><gpxtpx:hr>111</gpxtpx:hr></gpxtpx:TrackPointExtension></extensions></trkpt>
<trkpt lat="22.4233864" lon="114.2142534">
<ele>6</ele><time>2020-12-28T07:17:20.000Z</time><extensions><gpxtpx:TrackPointExtension><gpxtpx:hr>111</gpxtpx:hr></gpxtpx:TrackPointExtension></extensions></trkpt>
<trkpt lat="22.4233964" lon="114.2143178">
<ele>6</ele><time>2020-12-28T07:17:24.000Z</time><extensions><gpxtpx:TrackPointExtension><gpxtpx:hr>111</gpxtpx:hr></gpxtpx:TrackPointExtension></extensions></trkpt>
<trkpt lat="22.4234063" lon="114.2144036">
<ele>6</ele><time>2020-12-28T07:17:26.000Z</time><extensions><gpxtpx:TrackPointExtension><gpxtpx:hr>111</gpxtpx:hr></gpxtpx:TrackPointExtension></extensions></trkpt>
<trkpt lat="22.4234360" lon="114.2144680">
<ele>6</ele><time>2020-12-28T07:17:28.000Z</time><extensions><gpxtpx:TrackPointExtension><gpxtpx:hr>111</gpxtpx:hr></gpxtpx:TrackPointExtension></extensions></trkpt>
<trkpt lat="22.4234559" lon="114.2145538">
<ele>7</ele><time>2020-12-28T07:17:30.000Z</time><extensions><gpxtpx:TrackPointExtension><gpxtpx:hr>111</gpxtpx:hr></gpxtpx:TrackPointExtension></extensions></trkpt>
<trkpt lat="22.4234757" lon="114.2146182">
<ele>7</ele><time>2020-12-28T07:17:32.000Z</time><extensions><gpxtpx:TrackPointExtension><gpxtpx:hr>113</gpxtpx:hr></gpxtpx:TrackPointExtension></extensions></trkpt>
<trkpt lat="22.4235154" lon="114.2146397">
<ele>7</ele><time>2020-12-28T07:17:33.000Z</time><extensions><gpxtpx:TrackPointExtension><gpxtpx:hr>113</gpxtpx:hr></gpxtpx:TrackPointExtension></extensions></trkpt>
<trkpt lat="22.4235550" lon="114.2146826">
<ele>8</ele><time>2020-12-28T07:17:34.999Z</time><extensions><gpxtpx:TrackPointExtension><gpxtpx:hr>113</gpxtpx:hr></gpxtpx:TrackPointExtension></extensions></trkpt>
<trkpt lat="22.4236046" lon="114.2147255">
<ele>8</ele><time>2020-12-28T07:17:36.999Z</time><extensions><gpxtpx:TrackPointExtension><gpxtpx:hr>113</gpxtpx:hr></gpxtpx:TrackPointExtension></extensions></trkpt>
<trkpt lat="22.4236443" lon="114.2147470">
<ele>8</ele><time>2020-12-28T07:17:40.999Z</time><extensions><gpxtpx:TrackPointExtension><gpxtpx:hr>113</gpxtpx:hr></gpxtpx:TrackPointExtension></extensions></trkpt>
<trkpt lat="22.4236741" lon="114.2147899">
<ele>9</ele><time>2020-12-28T07:17:43.999Z</time><extensions><gpxtpx:TrackPointExtension><gpxtpx:hr>120</gpxtpx:hr></gpxtpx:TrackPointExtension></extensions></trkpt>
<trkpt lat="22.4237236" lon="114.2147899">
<ele>9</ele><time>2020-12-28T07:17:45.999Z</time><extensions><gpxtpx:TrackPointExtension><gpxtpx:hr>120</gpxtpx:hr></gpxtpx:TrackPointExtension></extensions></trkpt>
<trkpt lat="22.4237831" lon="114.2148113">
<ele>10</ele><time>2020-12-28T07:17:48.999Z</time><extensions><gpxtpx:TrackPointExtension><gpxtpx:hr>121</gpxtpx:hr></gpxtpx:TrackPointExtension></extensions></trkpt>
<trkpt lat="22.4238427" lon="114.2148113">
<ele>10</ele><time>2020-12-28T07:17:51.999Z</time><extensions><gpxtpx:TrackPointExtension><gpxtpx:hr>118</gpxtpx:hr></gpxtpx:TrackPointExtension></extensions></trkpt>
<trkpt lat="22.4238922" lon="114.2148113">
<ele>10</ele><time>2020-12-28T07:17:53.999Z</time><extensions><gpxtpx:TrackPointExtension><gpxtpx:hr>118</gpxtpx:hr></gpxtpx:TrackPointExtension></extensions></trkpt>
<trkpt lat="22.4239418" lon="114.2147899">
<ele>10</ele><time>2020-12-28T07:17:56.999Z</time><extensions><gpxtpx:TrackPointExtension><gpxtpx:hr>124</gpxtpx:hr></gpxtpx:TrackPointExtension></extensions></trkpt>
<trkpt lat="22.4239914" lon="114.2147899">
<ele>10</ele><time>2020-12-28T07:17:58.999Z</time><extensions><gpxtpx:TrackPointExtension><gpxtpx:hr>124</gpxtpx:hr></gpxtpx:TrackPointExtension></extensions></trkpt>
<trkpt lat="22.4240410" lon="114.2147470">
<ele>10</ele><time>2020-12-28T07:18:00.999Z</time><extensions><gpxtpx:TrackPointExtension><gpxtpx:hr>124</gpxtpx:hr></gpxtpx:TrackPointExtension></extensions></trkpt>
<trkpt lat="22.4240906" lon="114.2147470">
<ele>10</ele><time>2020-12-28T07:18:02.999Z</time><extensions><gpxtpx:TrackPointExtension><gpxtpx:hr>130</gpxtpx:hr></gpxtpx:TrackPointExtension></extensions></trkpt>
<trkpt lat="22.4241402" lon="114.2147255">
<ele>10</ele><time>2020-12-28T07:18:04.999Z</time><extensions><gpxtpx:TrackPointExtension><gpxtpx:hr>130</gpxtpx:hr></gpxtpx:TrackPointExtension></extensions></trkpt>
<trkpt lat="22.4241997" lon="114.2147040">
<ele>10</ele><time>2020-12-28T07:18:06.999Z</time><extensions><gpxtpx:TrackPointExtension><gpxtpx:hr>130</gpxtpx:hr></gpxtpx:TrackPointExtension></extensions></trkpt>
<trkpt lat="22.4242493" lon="114.2146826">
<ele>10</ele><time>2020-12-28T07:18:08.999Z</time><extensions><gpxtpx:TrackPointExtension><gpxtpx:hr>130</gpxtpx:hr></gpxtpx:TrackPointExtension></extensions></trkpt>
<trkpt lat="22.4242889" lon="114.2146611">
<ele>10</ele><time>2020-12-28T07:18:10.999Z</time><extensions><gpxtpx:TrackPointExtension><gpxtpx:hr>129</gpxtpx:hr></gpxtpx:TrackPointExtension></extensions></trkpt>
<trkpt lat="22.4243385" lon="114.2146611">
<ele>10</ele><time>2020-12-28T07:18:12.999Z</time><extensions><gpxtpx:TrackPointExtension><gpxtpx:hr>129</gpxtpx:hr></gpxtpx:TrackPointExtension></extensions></trkpt>
<trkpt lat="22.4243980" lon="114.2146397">
<ele>10</ele><time>2020-12-28T07:18:14.999Z</time><extensions><gpxtpx:TrackPointExtension><gpxtpx:hr>129</gpxtpx:hr></gpxtpx:TrackPointExtension></extensions></trkpt>
<trkpt lat="22.4244575" lon="114.2146397">
<ele>10</ele><time>2020-12-28T07:18:16.999Z</time><extensions><gpxtpx:TrackPointExtension><gpxtpx:hr>128</gpxtpx:hr></gpxtpx:TrackPointExtension></extensions></trkpt>
<trkpt lat="22.4245071" lon="114.2146397">
<ele>10</ele><time>2020-12-28T07:18:18.999Z</time><extensions><gpxtpx:TrackPointExtension><gpxtpx:hr>128</gpxtpx:hr></gpxtpx:TrackPointExtension></extensions></trkpt>
<trkpt lat="22.4245567" lon="114.2145967">
<ele>10</ele><time>2020-12-28T07:18:21.999Z</time><extensions><gpxtpx:TrackPointExtension><gpxtpx:hr>127</gpxtpx:hr></gpxtpx:TrackPointExtension></extensions></trkpt>
<trkpt lat="22.4245964" lon="114.2145753">
<ele>10</ele><time>2020-12-28T07:18:23.999Z</time><extensions><gpxtpx:TrackPointExtension><gpxtpx:hr>127</gpxtpx:hr></gpxtpx:TrackPointExtension></extensions></trkpt>
<trkpt lat="22.4246856" lon="114.2145538">
<ele>10</ele><time>2020-12-28T07:18:27.999Z</time><extensions><gpxtpx:TrackPointExtension><gpxtpx:hr>126</gpxtpx:hr></gpxtpx:TrackPointExtension></extensions></trkpt>
<trkpt lat="22.4247352" lon="114.2145324">
<ele>10</ele><time>2020-12-28T07:18:29.999Z</time><extensions><gpxtpx:TrackPointExtension><gpxtpx:hr>126</gpxtpx:hr></gpxtpx:TrackPointExtension></extensions></trkpt>
<trkpt lat="22.4247848" lon="114.2145109">
<ele>10</ele><time>2020-12-28T07:18:31.999Z</time><extensions><gpxtpx:TrackPointExtension><gpxtpx:hr>123</gpxtpx:hr></gpxtpx:TrackPointExtension></extensions></trkpt>
<trkpt lat="22.4248443" lon="114.2144680">
<ele>10</ele><time>2020-12-28T07:18:33.999Z</time><extensions><gpxtpx:TrackPointExtension><gpxtpx:hr>123</gpxtpx:hr></gpxtpx:TrackPointExtension></extensions></trkpt>
<trkpt lat="22.4248840" lon="114.2144465">
<ele>10</ele><time>2020-12-28T07:18:34.999Z</time><extensions><gpxtpx:TrackPointExtension><gpxtpx:hr>123</gpxtpx:hr></gpxtpx:TrackPointExtension></extensions></trkpt>
<trkpt lat="22.4249336" lon="114.2144465">
<ele>10</ele><time>2020-12-28T07:18:36.999Z</time><extensions><gpxtpx:TrackPointExtension><gpxtpx:hr>122</gpxtpx:hr></gpxtpx:TrackPointExtension></extensions></trkpt>
<trkpt lat="22.4249931" lon="114.2144465">
<ele>10</ele><time>2020-12-28T07:18:38.999Z</time><extensions><gpxtpx:TrackPointExtension><gpxtpx:hr>122</gpxtpx:hr></gpxtpx:TrackPointExtension></extensions></trkpt>
<trkpt lat="22.4250328" lon="114.2144251">
<ele>10</ele><time>2020-12-28T07:18:39.999Z</time><extensions><gpxtpx:TrackPointExtension><gpxtpx:hr>122</gpxtpx:hr></gpxtpx:TrackPointExtension></extensions></trkpt>
<trkpt lat="22.4250823" lon="114.2144251">
<ele>10</ele><time>2020-12-28T07:18:41.999Z</time><extensions><gpxtpx:TrackPointExtension><gpxtpx:hr>122</gpxtpx:hr></gpxtpx:TrackPointExtension></extensions></trkpt>
<trkpt lat="22.4251419" lon="114.2143822">
<ele>10</ele><time>2020-12-28T07:18:43.999Z</time><extensions><gpxtpx:TrackPointExtension><gpxtpx:hr>122</gpxtpx:hr></gpxtpx:TrackPointExtension></extensions></trkpt>
<trkpt lat="22.4251815" lon="114.2143607">
<ele>10</ele><time>2020-12-28T07:18:44.999Z</time><extensions><gpxtpx:TrackPointExtension><gpxtpx:hr>122</gpxtpx:hr></gpxtpx:TrackPointExtension></extensions></trkpt>
<trkpt lat="22.4252311" lon="114.2143393">
<ele>10</ele><time>2020-12-28T07:18:46.999Z</time><extensions><gpxtpx:TrackPointExtension><gpxtpx:hr>119</gpxtpx:hr></gpxtpx:TrackPointExtension></extensions></trkpt>
<trkpt lat="22.4252807" lon="114.2142963">
<ele>10</ele><time>2020-12-28T07:18:48.999Z</time><extensions><gpxtpx:TrackPointExtension><gpxtpx:hr>119</gpxtpx:hr></gpxtpx:TrackPointExtension></extensions></trkpt>
<trkpt lat="22.4253402" lon="114.2142749">
<ele>10</ele><time>2020-12-28T07:18:50.999Z</time><extensions><gpxtpx:TrackPointExtension><gpxtpx:hr>119</gpxtpx:hr></gpxtpx:TrackPointExtension></extensions></trkpt>
<trkpt lat="22.4253799" lon="114.2142320">
<ele>10</ele><time>2020-12-28T07:18:52.999Z</time><extensions><gpxtpx:TrackPointExtension><gpxtpx:hr>119</gpxtpx:hr></gpxtpx:TrackPointExtension></extensions></trkpt>
<trkpt lat="22.4254394" lon="114.2142105">
<ele>10</ele><time>2020-12-28T07:18:54.998Z</time><extensions><gpxtpx:TrackPointExtension><gpxtpx:hr>119</gpxtpx:hr></gpxtpx:TrackPointExtension></extensions></trkpt>
<trkpt lat="22.4254989" lon="114.2141891">
<ele>10</ele><time>2020-12-28T07:18:56.998Z</time><extensions><gpxtpx:TrackPointExtension><gpxtpx:hr>120</gpxtpx:hr></gpxtpx:TrackPointExtension></extensions></trkpt>
<trkpt lat="22.4255286" lon="114.2141461">
<ele>10</ele><time>2020-12-28T07:18:57.998Z</time><extensions><gpxtpx:TrackPointExtension><gpxtpx:hr>120</gpxtpx:hr></gpxtpx:TrackPointExtension></extensions></trkpt>
<trkpt lat="22.4255881" lon="114.2141032">
<ele>10</ele><time>2020-12-28T07:18:59.998Z</time><extensions><gpxtpx:TrackPointExtension><gpxtpx:hr>120</gpxtpx:hr></gpxtpx:TrackPointExtension></extensions></trkpt>
<trkpt lat="22.4256476" lon="114.2140818">
<ele>10</ele><time>2020-12-28T07:19:01.998Z</time><extensions><gpxtpx:TrackPointExtension><gpxtpx:hr>116</gpxtpx:hr></gpxtpx:TrackPointExtension></extensions></trkpt>
<trkpt lat="22.4256972" lon="114.2140603">
<ele>10</ele><time>2020-12-28T07:19:03.998Z</time><extensions><gpxtpx:TrackPointExtension><gpxtpx:hr>116</gpxtpx:hr></gpxtpx:TrackPointExtension></extensions></trkpt>
<trkpt lat="22.4257270" lon="114.2140174">
<ele>10</ele><time>2020-12-28T07:19:06.000Z</time><extensions><gpxtpx:TrackPointExtension><gpxtpx:hr>116</gpxtpx:hr></gpxtpx:TrackPointExtension></extensions></trkpt>
<trkpt lat="22.4257766" lon="114.2140174">
<ele>10</ele><time>2020-12-28T07:19:08.000Z</time><extensions><gpxtpx:TrackPointExtension><gpxtpx:hr>116</gpxtpx:hr></gpxtpx:TrackPointExtension></extensions></trkpt>
<trkpt lat="22.4258262" lon="114.2139745">
<ele>10</ele><time>2020-12-28T07:19:11.000Z</time><extensions><gpxtpx:TrackPointExtension><gpxtpx:hr>116</gpxtpx:hr></gpxtpx:TrackPointExtension></extensions></trkpt>
<trkpt lat="22.4258757" lon="114.2139745">
<ele>11</ele><time>2020-12-28T07:19:13.000Z</time><extensions><gpxtpx:TrackPointExtension><gpxtpx:hr>114</gpxtpx:hr></gpxtpx:TrackPointExtension></extensions></trkpt>
<trkpt lat="22.4258956" lon="114.2139316">
<ele>11</ele><time>2020-12-28T07:19:15.000Z</time><extensions><gpxtpx:TrackPointExtension><gpxtpx:hr>114</gpxtpx:hr></gpxtpx:TrackPointExtension></extensions></trkpt>
<trkpt lat="22.4259253" lon="114.2138886">
<ele>11</ele><time>2020-12-28T07:19:18.000Z</time><extensions><gpxtpx:TrackPointExtension><gpxtpx:hr>119</gpxtpx:hr></gpxtpx:TrackPointExtension></extensions></trkpt>
<trkpt lat="22.4259749" lon="114.2138672">
<ele>11</ele><time>2020-12-28T07:19:25.000Z</time><extensions><gpxtpx:TrackPointExtension><gpxtpx:hr>119</gpxtpx:hr></gpxtpx:TrackPointExtension></extensions></trkpt>
<trkpt lat="22.4260245" lon="114.2138672">
<ele>11</ele><time>2020-12-28T07:19:36.999Z</time><extensions><gpxtpx:TrackPointExtension><gpxtpx:hr>121</gpxtpx:hr></gpxtpx:TrackPointExtension></extensions></trkpt>
<trkpt lat="22.4260642" lon="114.2139101">
<ele>10</ele><time>2020-12-28T07:20:33.999Z</time><extensions><gpxtpx:TrackPointExtension><gpxtpx:hr>122</gpxtpx:hr></gpxtpx:TrackPointExtension></extensions></trkpt>
<trkpt lat="22.4260443" lon="114.2138672">
<ele>11</ele><time>2020-12-28T07:20:49.999Z</time><extensions><gpxtpx:TrackPointExtension><gpxtpx:hr>124</gpxtpx:hr></gpxtpx:TrackPointExtension></extensions></trkpt>
<trkpt lat="22.4260344" lon="114.2138028">
<ele>11</ele><time>2020-12-28T07:20:54.998Z</time><extensions><gpxtpx:TrackPointExtension><gpxtpx:hr>125</gpxtpx:hr></gpxtpx:TrackPointExtension></extensions></trkpt>
<trkpt lat="22.4260146" lon="114.2137599">
<ele>11</ele><time>2020-12-28T07:20:57.998Z</time><extensions><gpxtpx:TrackPointExtension><gpxtpx:hr>124</gpxtpx:hr></gpxtpx:TrackPointExtension></extensions></trkpt>
<trkpt lat="22.4259848" lon="114.2137170">
<ele>11</ele><time>2020-12-28T07:21:01.998Z</time><extensions><gpxtpx:TrackPointExtension><gpxtpx:hr>120</gpxtpx:hr></gpxtpx:TrackPointExtension></extensions></trkpt>
<trkpt lat="22.4259551" lon="114.2136741">
<ele>11</ele><time>2020-12-28T07:21:07.998Z</time><extensions><gpxtpx:TrackPointExtension><gpxtpx:hr>119</gpxtpx:hr></gpxtpx:TrackPointExtension></extensions></trkpt>
<trkpt lat="22.4259452" lon="114.2136097">
<ele>11</ele><time>2020-12-28T07:21:12.000Z</time><extensions><gpxtpx:TrackPointExtension><gpxtpx:hr>122</gpxtpx:hr></gpxtpx:TrackPointExtension></extensions></trkpt>
<trkpt lat="22.4259154" lon="114.2135668">
<ele>11</ele><time>2020-12-28T07:21:16.000Z</time><extensions><gpxtpx:TrackPointExtension><gpxtpx:hr>122</gpxtpx:hr></gpxtpx:TrackPointExtension></extensions></trkpt>
<trkpt lat="22.4258857" lon="114.2135239">
<ele>11</ele><time>2020-12-28T07:21:19.000Z</time><extensions><gpxtpx:TrackPointExtension><gpxtpx:hr>123</gpxtpx:hr></gpxtpx:TrackPointExtension></extensions></trkpt>
<trkpt lat="22.4258361" lon="114.2135024">
<ele>11</ele><time>2020-12-28T07:21:23.000Z</time><extensions><gpxtpx:TrackPointExtension><gpxtpx:hr>123</gpxtpx:hr></gpxtpx:TrackPointExtension></extensions></trkpt>
<trkpt lat="22.4257865" lon="114.2135024">
<ele>11</ele><time>2020-12-28T07:21:28.999Z</time><extensions><gpxtpx:TrackPointExtension><gpxtpx:hr>124</gpxtpx:hr></gpxtpx:TrackPointExtension></extensions></trkpt>
<trkpt lat="22.4257369" lon="114.2135024">
<ele>11</ele><time>2020-12-28T07:21:38.999Z</time><extensions><gpxtpx:TrackPointExtension><gpxtpx:hr>127</gpxtpx:hr></gpxtpx:TrackPointExtension></extensions></trkpt>
<trkpt lat="22.4256972" lon="114.2134809">
<ele>11</ele><time>2020-12-28T07:21:54.999Z</time><extensions><gpxtpx:TrackPointExtension><gpxtpx:hr>123</gpxtpx:hr></gpxtpx:TrackPointExtension></extensions></trkpt>
<trkpt lat="22.4257567" lon="114.2134595">
<ele>10</ele><time>2020-12-28T07:22:19.999Z</time><extensions><gpxtpx:TrackPointExtension><gpxtpx:hr>122</gpxtpx:hr></gpxtpx:TrackPointExtension></extensions></trkpt>
<trkpt lat="22.4257964" lon="114.2134380">
<ele>10</ele><time>2020-12-28T07:22:20.999Z</time><extensions><gpxtpx:TrackPointExtension><gpxtpx:hr>118</gpxtpx:hr></gpxtpx:TrackPointExtension></extensions></trkpt>
<trkpt lat="22.4258262" lon="114.2133951">
<ele>10</ele><time>2020-12-28T07:22:22.999Z</time><extensions><gpxtpx:TrackPointExtension><gpxtpx:hr>118</gpxtpx:hr></gpxtpx:TrackPointExtension></extensions></trkpt>
<trkpt lat="22.4258757" lon="114.2133737">
<ele>10</ele><time>2020-12-28T07:22:25.999Z</time><extensions><gpxtpx:TrackPointExtension><gpxtpx:hr>116</gpxtpx:hr></gpxtpx:TrackPointExtension></extensions></trkpt>
<trkpt lat="22.4258162" lon="114.2133737">
<ele>10</ele><time>2020-12-28T07:22:28.999Z</time><extensions><gpxtpx:TrackPointExtension><gpxtpx:hr>116</gpxtpx:hr></gpxtpx:TrackPointExtension></extensions></trkpt>
<trkpt lat="22.4257567" lon="114.2133951">
<ele>10</ele><time>2020-12-28T07:22:29.999Z</time><extensions><gpxtpx:TrackPointExtension><gpxtpx:hr>116</gpxtpx:hr></gpxtpx:TrackPointExtension></extensions></trkpt>
<trkpt lat="22.4257171" lon="114.2134166">
<ele>10</ele><time>2020-12-28T07:22:32.999Z</time><extensions><gpxtpx:TrackPointExtension><gpxtpx:hr>118</gpxtpx:hr></gpxtpx:TrackPointExtension></extensions></trkpt>
<trkpt lat="22.4256675" lon="114.2133951">
<ele>10</ele><time>2020-12-28T07:22:35.999Z</time><extensions><gpxtpx:TrackPointExtension><gpxtpx:hr>119</gpxtpx:hr></gpxtpx:TrackPointExtension></extensions></trkpt>
<trkpt lat="22.4256179" lon="114.2133737">
<ele>10</ele><time>2020-12-28T07:22:39.999Z</time><extensions><gpxtpx:TrackPointExtension><gpxtpx:hr>119</gpxtpx:hr></gpxtpx:TrackPointExtension></extensions></trkpt>
<trkpt lat="22.4255584" lon="114.2133737">
<ele>10</ele><time>2020-12-28T07:22:43.999Z</time><extensions><gpxtpx:TrackPointExtension><gpxtpx:hr>120</gpxtpx:hr></gpxtpx:TrackPointExtension></extensions></trkpt>
<trkpt lat="22.4255088" lon="114.2133522">
<ele>10</ele><time>2020-12-28T07:22:47.999Z</time><extensions><gpxtpx:TrackPointExtension><gpxtpx:hr>120</gpxtpx:hr></gpxtpx:TrackPointExtension></extensions></trkpt>
<trkpt lat="22.4255187" lon="114.2132878">
<ele>10</ele><time>2020-12-28T07:22:58.998Z</time><extensions><gpxtpx:TrackPointExtension><gpxtpx:hr>125</gpxtpx:hr></gpxtpx:TrackPointExtension></extensions></trkpt>
<trkpt lat="22.4255485" lon="114.2132449">
<ele>10</ele><time>2020-12-28T07:23:06.998Z</time><extensions><gpxtpx:TrackPointExtension><gpxtpx:hr>125</gpxtpx:hr></gpxtpx:TrackPointExtension></extensions></trkpt>
<trkpt lat="22.4254790" lon="114.2132449">
<ele>10</ele><time>2020-12-28T07:23:32.999Z</time><extensions><gpxtpx:TrackPointExtension><gpxtpx:hr>122</gpxtpx:hr></gpxtpx:TrackPointExtension></extensions></trkpt>
<trkpt lat="22.4254592" lon="114.2131591">
<ele>10</ele><time>2020-12-28T07:23:38.999Z</time><extensions><gpxtpx:TrackPointExtension><gpxtpx:hr>122</gpxtpx:hr></gpxtpx:TrackPointExtension></extensions></trkpt>
<trkpt lat="22.4254691" lon="114.2132235">
<ele>10</ele><time>2020-12-28T07:23:43.999Z</time><extensions><gpxtpx:TrackPointExtension><gpxtpx:hr>120</gpxtpx:hr></gpxtpx:TrackPointExtension></extensions></trkpt>
<trkpt lat="22.4254592" lon="114.2132878">
<ele>10</ele><time>2020-12-28T07:24:01.999Z</time><extensions><gpxtpx:TrackPointExtension><gpxtpx:hr>113</gpxtpx:hr></gpxtpx:TrackPointExtension></extensions></trkpt>
<trkpt lat="22.4253501" lon="114.2130518">
<ele>10</ele><time>2020-12-28T07:24:20.999Z</time><extensions><gpxtpx:TrackPointExtension><gpxtpx:hr>108</gpxtpx:hr></gpxtpx:TrackPointExtension></extensions></trkpt>
<trkpt lat="22.4253501" lon="114.2131376">
<ele>10</ele><time>2020-12-28T07:24:23.999Z</time><extensions><gpxtpx:TrackPointExtension><gpxtpx:hr>108</gpxtpx:hr></gpxtpx:TrackPointExtension></extensions></trkpt>
<trkpt lat="22.4253303" lon="114.2130733">
<ele>10</ele><time>2020-12-28T07:24:25.999Z</time><extensions><gpxtpx:TrackPointExtension><gpxtpx:hr>111</gpxtpx:hr></gpxtpx:TrackPointExtension></extensions></trkpt>
<trkpt lat="22.4253005" lon="114.2131162">
<ele>10</ele><time>2020-12-28T07:24:28.999Z</time><extensions><gpxtpx:TrackPointExtension><gpxtpx:hr>111</gpxtpx:hr></gpxtpx:TrackPointExtension></extensions></trkpt>
<trkpt lat="22.4252410" lon="114.2130947">
<ele>10</ele><time>2020-12-28T07:24:30.999Z</time><extensions><gpxtpx:TrackPointExtension><gpxtpx:hr>111</gpxtpx:hr></gpxtpx:TrackPointExtension></extensions></trkpt>
<trkpt lat="22.4252906" lon="114.2130518">
<ele>10</ele><time>2020-12-28T07:24:32.999Z</time><extensions><gpxtpx:TrackPointExtension><gpxtpx:hr>107</gpxtpx:hr></gpxtpx:TrackPointExtension></extensions></trkpt>
<trkpt lat="22.4251815" lon="114.2128158">
<ele>10</ele><time>2020-12-28T07:24:43.999Z</time><extensions><gpxtpx:TrackPointExtension><gpxtpx:hr>109</gpxtpx:hr></gpxtpx:TrackPointExtension></extensions></trkpt>
<trkpt lat="22.4251319" lon="114.2128587">
<ele>10</ele><time>2020-12-28T07:24:44.999Z</time><extensions><gpxtpx:TrackPointExtension><gpxtpx:hr>109</gpxtpx:hr></gpxtpx:TrackPointExtension></extensions></trkpt>
<trkpt lat="22.4250823" lon="114.2128372">
<ele>10</ele><time>2020-12-28T07:24:47.999Z</time><extensions><gpxtpx:TrackPointExtension><gpxtpx:hr>108</gpxtpx:hr></gpxtpx:TrackPointExtension></extensions></trkpt>
<trkpt lat="22.4252509" lon="114.2129445">
<ele>10</ele><time>2020-12-28T07:24:50.999Z</time><extensions><gpxtpx:TrackPointExtension><gpxtpx:hr>110</gpxtpx:hr></gpxtpx:TrackPointExtension></extensions></trkpt>
<trkpt lat="22.4254394" lon="114.2129230">
<ele>10</ele><time>2020-12-28T07:24:57.998Z</time><extensions><gpxtpx:TrackPointExtension><gpxtpx:hr>112</gpxtpx:hr></gpxtpx:TrackPointExtension></extensions></trkpt>
<trkpt lat="22.4254989" lon="114.2130089">
<ele>10</ele><time>2020-12-28T07:25:02.998Z</time><extensions><gpxtpx:TrackPointExtension><gpxtpx:hr>112</gpxtpx:hr></gpxtpx:TrackPointExtension></extensions></trkpt>
<trkpt lat="22.4254790" lon="114.2131376">
<ele>10</ele><time>2020-12-28T07:25:08.998Z</time><extensions><gpxtpx:TrackPointExtension><gpxtpx:hr>116</gpxtpx:hr></gpxtpx:TrackPointExtension></extensions></trkpt>
<trkpt lat="22.4255088" lon="114.2132878">
<ele>10</ele><time>2020-12-28T07:25:09.998Z</time><extensions><gpxtpx:TrackPointExtension><gpxtpx:hr>116</gpxtpx:hr></gpxtpx:TrackPointExtension></extensions></trkpt>
<trkpt lat="22.4256972" lon="114.2134380">
<ele>10</ele><time>2020-12-28T07:25:10.998Z</time><extensions><gpxtpx:TrackPointExtension><gpxtpx:hr>116</gpxtpx:hr></gpxtpx:TrackPointExtension></extensions></trkpt>
<trkpt lat="22.4257468" lon="114.2134809">
<ele>10</ele><time>2020-12-28T07:25:11.998Z</time><extensions><gpxtpx:TrackPointExtension><gpxtpx:hr>118</gpxtpx:hr></gpxtpx:TrackPointExtension></extensions></trkpt>
<trkpt lat="22.4257270" lon="114.2135453">
<ele>10</ele><time>2020-12-28T07:25:12.998Z</time><extensions><gpxtpx:TrackPointExtension><gpxtpx:hr>118</gpxtpx:hr></gpxtpx:TrackPointExtension></extensions></trkpt>
<trkpt lat="22.4256675" lon="114.2135239">
<ele>10</ele><time>2020-12-28T07:25:13.998Z</time><extensions><gpxtpx:TrackPointExtension><gpxtpx:hr>118</gpxtpx:hr></gpxtpx:TrackPointExtension></extensions></trkpt>
<trkpt lat="22.4256774" lon="114.2134166">
<ele>10</ele><time>2020-12-28T07:25:14.998Z</time><extensions><gpxtpx:TrackPointExtension><gpxtpx:hr>118</gpxtpx:hr></gpxtpx:TrackPointExtension></extensions></trkpt>
<trkpt lat="22.4256675" lon="114.2133522">
<ele>10</ele><time>2020-12-28T07:25:15.998Z</time><extensions><gpxtpx:TrackPointExtension><gpxtpx:hr>118</gpxtpx:hr></gpxtpx:TrackPointExtension></extensions></trkpt>
<trkpt lat="22.4256278" lon="114.2132878">
<ele>10</ele><time>2020-12-28T07:25:17.998Z</time><extensions><gpxtpx:TrackPointExtension><gpxtpx:hr>116</gpxtpx:hr></gpxtpx:TrackPointExtension></extensions></trkpt>
<trkpt lat="22.4255584" lon="114.2132449">
<ele>10</ele><time>2020-12-28T07:25:20.998Z</time><extensions><gpxtpx:TrackPointExtension><gpxtpx:hr>117</gpxtpx:hr></gpxtpx:TrackPointExtension></extensions></trkpt>
<trkpt lat="22.4255088" lon="114.2132664">
<ele>10</ele><time>2020-12-28T07:25:26.999Z</time><extensions><gpxtpx:TrackPointExtension><gpxtpx:hr>115</gpxtpx:hr></gpxtpx:TrackPointExtension></extensions></trkpt>
<trkpt lat="22.4254592" lon="114.2132664">
<ele>10</ele><time>2020-12-28T07:25:29.999Z</time><extensions><gpxtpx:TrackPointExtension><gpxtpx:hr>115</gpxtpx:hr></gpxtpx:TrackPointExtension></extensions></trkpt>
<trkpt lat="22.4254195" lon="114.2132449">
<ele>10</ele><time>2020-12-28T07:25:33.999Z</time><extensions><gpxtpx:TrackPointExtension><gpxtpx:hr>114</gpxtpx:hr></gpxtpx:TrackPointExtension></extensions></trkpt>
<trkpt lat="22.4254592" lon="114.2132664">
<ele>10</ele><time>2020-12-28T07:25:52.999Z</time><extensions><gpxtpx:TrackPointExtension><gpxtpx:hr>112</gpxtpx:hr></gpxtpx:TrackPointExtension></extensions></trkpt>
<trkpt lat="22.4254989" lon="114.2132878">
<ele>10</ele><time>2020-12-28T07:26:00.999Z</time><extensions><gpxtpx:TrackPointExtension><gpxtpx:hr>111</gpxtpx:hr></gpxtpx:TrackPointExtension></extensions></trkpt>
<trkpt lat="22.4255286" lon="114.2133307">
<ele>10</ele><time>2020-12-28T07:26:08.999Z</time><extensions><gpxtpx:TrackPointExtension><gpxtpx:hr>109</gpxtpx:hr></gpxtpx:TrackPointExtension></extensions></trkpt>
<trkpt lat="22.4254890" lon="114.2133093">
<ele>10</ele><time>2020-12-28T07:26:28.999Z</time><extensions><gpxtpx:TrackPointExtension><gpxtpx:hr>103</gpxtpx:hr></gpxtpx:TrackPointExtension></extensions></trkpt>
<trkpt lat="22.4255286" lon="114.2132878">
<ele>9</ele><time>2020-12-28T07:26:55.999Z</time><extensions><gpxtpx:TrackPointExtension><gpxtpx:hr>99</gpxtpx:hr></gpxtpx:TrackPointExtension></extensions></trkpt>
<trkpt lat="22.4254890" lon="114.2133093">
<ele>9</ele><time>2020-12-28T07:27:02.999Z</time><extensions><gpxtpx:TrackPointExtension><gpxtpx:hr>104</gpxtpx:hr></gpxtpx:TrackPointExtension></extensions></trkpt>
<trkpt lat="22.4255286" lon="114.2133307">
<ele>9</ele><time>2020-12-28T07:27:10.998Z</time><extensions><gpxtpx:TrackPointExtension><gpxtpx:hr>103</gpxtpx:hr></gpxtpx:TrackPointExtension></extensions></trkpt>
<trkpt lat="22.4255088" lon="114.2132878">
<ele>9</ele><time>2020-12-28T07:27:18.998Z</time><extensions><gpxtpx:TrackPointExtension><gpxtpx:hr>102</gpxtpx:hr></gpxtpx:TrackPointExtension></extensions></trkpt>
<trkpt lat="22.4254493" lon="114.2132878">
<ele>10</ele><time>2020-12-28T07:27:45.999Z</time><extensions><gpxtpx:TrackPointExtension><gpxtpx:hr>102</gpxtpx:hr></gpxtpx:TrackPointExtension></extensions></trkpt>
<trkpt lat="22.4253898" lon="114.2133093">
<ele>10</ele><time>2020-12-28T07:27:51.999Z</time><extensions><gpxtpx:TrackPointExtension><gpxtpx:hr>102</gpxtpx:hr></gpxtpx:TrackPointExtension></extensions></trkpt>
<trkpt lat="22.4254394" lon="114.2132878">
<ele>10</ele><time>2020-12-28T07:27:57.999Z</time><extensions><gpxtpx:TrackPointExtension><gpxtpx:hr>101</gpxtpx:hr></gpxtpx:TrackPointExtension></extensions></trkpt>
<trkpt lat="22.4254790" lon="114.2133093">
<ele>10</ele><time>2020-12-28T07:27:59.999Z</time><extensions><gpxtpx:TrackPointExtension><gpxtpx:hr>101</gpxtpx:hr></gpxtpx:TrackPointExtension></extensions></trkpt>
<trkpt lat="22.4255088" lon="114.2133522">
<ele>10</ele><time>2020-12-28T07:28:04.999Z</time><extensions><gpxtpx:TrackPointExtension><gpxtpx:hr>101</gpxtpx:hr></gpxtpx:TrackPointExtension></extensions></trkpt>
<trkpt lat="22.4255088" lon="114.2132878">
<ele>10</ele><time>2020-12-28T07:28:08.999Z</time><extensions><gpxtpx:TrackPointExtension><gpxtpx:hr>101</gpxtpx:hr></gpxtpx:TrackPointExtension></extensions></trkpt>
<trkpt lat="22.4254691" lon="114.2132664">
<ele>10</ele><time>2020-12-28T07:28:18.999Z</time><extensions><gpxtpx:TrackPointExtension><gpxtpx:hr>111</gpxtpx:hr></gpxtpx:TrackPointExtension></extensions></trkpt>
<trkpt lat="22.4254195" lon="114.2132449">
<ele>10</ele><time>2020-12-28T07:28:24.999Z</time><extensions><gpxtpx:TrackPointExtension><gpxtpx:hr>111</gpxtpx:hr></gpxtpx:TrackPointExtension></extensions></trkpt>
<trkpt lat="22.4253700" lon="114.2132878">
<ele>10</ele><time>2020-12-28T07:28:30.999Z</time><extensions><gpxtpx:TrackPointExtension><gpxtpx:hr>111</gpxtpx:hr></gpxtpx:TrackPointExtension></extensions></trkpt>
<trkpt lat="22.4253898" lon="114.2132020">
<ele>10</ele><time>2020-12-28T07:28:31.999Z</time><extensions><gpxtpx:TrackPointExtension><gpxtpx:hr>111</gpxtpx:hr></gpxtpx:TrackPointExtension></extensions></trkpt>
<trkpt lat="22.4253700" lon="114.2131591">
<ele>10</ele><time>2020-12-28T07:28:35.999Z</time><extensions><gpxtpx:TrackPointExtension><gpxtpx:hr>110</gpxtpx:hr></gpxtpx:TrackPointExtension></extensions></trkpt>
<trkpt lat="22.4253799" lon="114.2132235">
<ele>10</ele><time>2020-12-28T07:28:43.999Z</time><extensions><gpxtpx:TrackPointExtension><gpxtpx:hr>105</gpxtpx:hr></gpxtpx:TrackPointExtension></extensions></trkpt>
<trkpt lat="22.4253799" lon="114.2131162">
<ele>10</ele><time>2020-12-28T07:28:47.999Z</time><extensions><gpxtpx:TrackPointExtension><gpxtpx:hr>105</gpxtpx:hr></gpxtpx:TrackPointExtension></extensions></trkpt>
<trkpt lat="22.4253799" lon="114.2130089">
<ele>10</ele><time>2020-12-28T07:28:48.999Z</time><extensions><gpxtpx:TrackPointExtension><gpxtpx:hr>105</gpxtpx:hr></gpxtpx:TrackPointExtension></extensions></trkpt>
<trkpt lat="22.4253700" lon="114.2132235">
<ele>10</ele><time>2020-12-28T07:28:49.999Z</time><extensions><gpxtpx:TrackPointExtension><gpxtpx:hr>105</gpxtpx:hr></gpxtpx:TrackPointExtension></extensions></trkpt>
<trkpt lat="22.4253700" lon="114.2133093">
<ele>10</ele><time>2020-12-28T07:28:56.999Z</time><extensions><gpxtpx:TrackPointExtension><gpxtpx:hr>107</gpxtpx:hr></gpxtpx:TrackPointExtension></extensions></trkpt>
<trkpt lat="22.4253402" lon="114.2132664">
<ele>9</ele><time>2020-12-28T07:29:24.999Z</time><extensions><gpxtpx:TrackPointExtension><gpxtpx:hr>102</gpxtpx:hr></gpxtpx:TrackPointExtension></extensions></trkpt>
<trkpt lat="22.4254195" lon="114.2132664">
<ele>9</ele><time>2020-12-28T07:29:31.998Z</time><extensions><gpxtpx:TrackPointExtension><gpxtpx:hr>102</gpxtpx:hr></gpxtpx:TrackPointExtension></extensions></trkpt>
<trkpt lat="22.4253501" lon="114.2133093">
<ele>9</ele><time>2020-12-28T07:29:52.000Z</time><extensions><gpxtpx:TrackPointExtension><gpxtpx:hr>101</gpxtpx:hr></gpxtpx:TrackPointExtension></extensions></trkpt>
<trkpt lat="22.4253104" lon="114.2132449">
<ele>9</ele><time>2020-12-28T07:29:56.000Z</time><extensions><gpxtpx:TrackPointExtension><gpxtpx:hr>101</gpxtpx:hr></gpxtpx:TrackPointExtension></extensions></trkpt>
<trkpt lat="22.4253204" lon="114.2133093">
<ele>9</ele><time>2020-12-28T07:30:04.000Z</time><extensions><gpxtpx:TrackPointExtension><gpxtpx:hr>100</gpxtpx:hr></gpxtpx:TrackPointExtension></extensions></trkpt>
<trkpt lat="22.4253005" lon="114.2132664">
<ele>9</ele><time>2020-12-28T07:30:09.000Z</time><extensions><gpxtpx:TrackPointExtension><gpxtpx:hr>103</gpxtpx:hr></gpxtpx:TrackPointExtension></extensions></trkpt>
<trkpt lat="22.4252807" lon="114.2133307">
<ele>9</ele><time>2020-12-28T07:30:14.999Z</time><extensions><gpxtpx:TrackPointExtension><gpxtpx:hr>103</gpxtpx:hr></gpxtpx:TrackPointExtension></extensions></trkpt>
<trkpt lat="22.4254394" lon="114.2133737">
<ele>9</ele><time>2020-12-28T07:30:15.999Z</time><extensions><gpxtpx:TrackPointExtension><gpxtpx:hr>103</gpxtpx:hr></gpxtpx:TrackPointExtension></extensions></trkpt>
<trkpt lat="22.4254890" lon="114.2133737">
<ele>9</ele><time>2020-12-28T07:30:18.999Z</time><extensions><gpxtpx:TrackPointExtension><gpxtpx:hr>104</gpxtpx:hr></gpxtpx:TrackPointExtension></extensions></trkpt>
<trkpt lat="22.4255088" lon="114.2133093">
<ele>9</ele><time>2020-12-28T07:30:22.999Z</time><extensions><gpxtpx:TrackPointExtension><gpxtpx:hr>106</gpxtpx:hr></gpxtpx:TrackPointExtension></extensions></trkpt>
<trkpt lat="22.4255088" lon="114.2132449">
<ele>9</ele><time>2020-12-28T07:30:24.999Z</time><extensions><gpxtpx:TrackPointExtension><gpxtpx:hr>106</gpxtpx:hr></gpxtpx:TrackPointExtension></extensions></trkpt>
<trkpt lat="22.4255584" lon="114.2132449">
<ele>9</ele><time>2020-12-28T07:30:30.999Z</time><extensions><gpxtpx:TrackPointExtension><gpxtpx:hr>107</gpxtpx:hr></gpxtpx:TrackPointExtension></extensions></trkpt>
<trkpt lat="22.4255187" lon="114.2132664">
<ele>9</ele><time>2020-12-28T07:30:35.999Z</time><extensions><gpxtpx:TrackPointExtension><gpxtpx:hr>108</gpxtpx:hr></gpxtpx:TrackPointExtension></extensions></trkpt>
<trkpt lat="22.4255584" lon="114.2132449">
<ele>9</ele><time>2020-12-28T07:31:42.000Z</time><extensions><gpxtpx:TrackPointExtension><gpxtpx:hr>123</gpxtpx:hr></gpxtpx:TrackPointExtension></extensions></trkpt>
<trkpt lat="22.4254691" lon="114.2132449">
<ele>9</ele><time>2020-12-28T07:32:43.999Z</time><extensions><gpxtpx:TrackPointExtension><gpxtpx:hr>115</gpxtpx:hr></gpxtpx:TrackPointExtension></extensions></trkpt>
<trkpt lat="22.4255286" lon="114.2132878">
<ele>9</ele><time>2020-12-28T07:34:08.000Z</time><extensions><gpxtpx:TrackPointExtension><gpxtpx:hr>105</gpxtpx:hr></gpxtpx:TrackPointExtension></extensions></trkpt>
<trkpt lat="22.4254890" lon="114.2132664">
<ele>9</ele><time>2020-12-28T07:34:09.000Z</time><extensions><gpxtpx:TrackPointExtension><gpxtpx:hr>105</gpxtpx:hr></gpxtpx:TrackPointExtension></extensions></trkpt>
<trkpt lat="22.4255286" lon="114.2132449">
<ele>9</ele><time>2020-12-28T07:34:13.000Z</time><extensions><gpxtpx:TrackPointExtension><gpxtpx:hr>105</gpxtpx:hr></gpxtpx:TrackPointExtension></extensions></trkpt>
<trkpt lat="22.4255782" lon="114.2132449">
<ele>9</ele><time>2020-12-28T07:34:24.999Z</time><extensions><gpxtpx:TrackPointExtension><gpxtpx:hr>107</gpxtpx:hr></gpxtpx:TrackPointExtension></extensions></trkpt>
<trkpt lat="22.4256179" lon="114.2132020">
<ele>9</ele><time>2020-12-28T07:34:32.999Z</time><extensions><gpxtpx:TrackPointExtension><gpxtpx:hr>109</gpxtpx:hr></gpxtpx:TrackPointExtension></extensions></trkpt>
<trkpt lat="22.4256675" lon="114.2132020">
<ele>9</ele><time>2020-12-28T07:34:56.999Z</time><extensions><gpxtpx:TrackPointExtension><gpxtpx:hr>107</gpxtpx:hr></gpxtpx:TrackPointExtension></extensions></trkpt>
<trkpt lat="22.4255881" lon="114.2132235">
<ele>9</ele><time>2020-12-28T07:35:23.999Z</time><extensions><gpxtpx:TrackPointExtension><gpxtpx:hr>110</gpxtpx:hr></gpxtpx:TrackPointExtension></extensions></trkpt>
<trkpt lat="22.4255981" lon="114.2132878">
<ele>9</ele><time>2020-12-28T07:35:35.999Z</time><extensions><gpxtpx:TrackPointExtension><gpxtpx:hr>108</gpxtpx:hr></gpxtpx:TrackPointExtension></extensions></trkpt>
<trkpt lat="22.4255782" lon="114.2133307">
<ele>9</ele><time>2020-12-28T07:35:50.998Z</time><extensions><gpxtpx:TrackPointExtension><gpxtpx:hr>108</gpxtpx:hr></gpxtpx:TrackPointExtension></extensions></trkpt>
<trkpt lat="22.4256080" lon="114.2133737">
<ele>9</ele><time>2020-12-28T07:36:09.000Z</time><extensions><gpxtpx:TrackPointExtension><gpxtpx:hr>108</gpxtpx:hr></gpxtpx:TrackPointExtension></extensions></trkpt>
<trkpt lat="22.4256278" lon="114.2134166">
<ele>9</ele><time>2020-12-28T07:36:14.000Z</time><extensions><gpxtpx:TrackPointExtension><gpxtpx:hr>112</gpxtpx:hr></gpxtpx:TrackPointExtension></extensions></trkpt>
<trkpt lat="22.4256774" lon="114.2134380">
<ele>9</ele><time>2020-12-28T07:36:20.000Z</time><extensions><gpxtpx:TrackPointExtension><gpxtpx:hr>115</gpxtpx:hr></gpxtpx:TrackPointExtension></extensions></trkpt>
<trkpt lat="22.4257270" lon="114.2134166">
<ele>9</ele><time>2020-12-28T07:36:25.000Z</time><extensions><gpxtpx:TrackPointExtension><gpxtpx:hr>118</gpxtpx:hr></gpxtpx:TrackPointExtension></extensions></trkpt>
<trkpt lat="22.4257766" lon="114.2133737">
<ele>9</ele><time>2020-12-28T07:36:28.999Z</time><extensions><gpxtpx:TrackPointExtension><gpxtpx:hr>118</gpxtpx:hr></gpxtpx:TrackPointExtension></extensions></trkpt>
<trkpt lat="22.4258063" lon="114.2133093">
<ele>9</ele><time>2020-12-28T07:36:40.999Z</time><extensions><gpxtpx:TrackPointExtension><gpxtpx:hr>115</gpxtpx:hr></gpxtpx:TrackPointExtension></extensions></trkpt>
<trkpt lat="22.4258460" lon="114.2132878">
<ele>9</ele><time>2020-12-28T07:36:44.999Z</time><extensions><gpxtpx:TrackPointExtension><gpxtpx:hr>115</gpxtpx:hr></gpxtpx:TrackPointExtension></extensions></trkpt>
<trkpt lat="22.4258757" lon="114.2132449">
<ele>9</ele><time>2020-12-28T07:36:48.999Z</time><extensions><gpxtpx:TrackPointExtension><gpxtpx:hr>113</gpxtpx:hr></gpxtpx:TrackPointExtension></extensions></trkpt>
<trkpt lat="22.4259055" lon="114.2132020">
<ele>9</ele><time>2020-12-28T07:36:52.999Z</time><extensions><gpxtpx:TrackPointExtension><gpxtpx:hr>116</gpxtpx:hr></gpxtpx:TrackPointExtension></extensions></trkpt>
<trkpt lat="22.4259452" lon="114.2131591">
<ele>9</ele><time>2020-12-28T07:36:56.999Z</time><extensions><gpxtpx:TrackPointExtension><gpxtpx:hr>116</gpxtpx:hr></gpxtpx:TrackPointExtension></extensions></trkpt>
<trkpt lat="22.4259749" lon="114.2131162">
<ele>9</ele><time>2020-12-28T07:36:59.999Z</time><extensions><gpxtpx:TrackPointExtension><gpxtpx:hr>117</gpxtpx:hr></gpxtpx:TrackPointExtension></extensions></trkpt>
<trkpt lat="22.4260344" lon="114.2130947">
<ele>9</ele><time>2020-12-28T07:37:01.999Z</time><extensions><gpxtpx:TrackPointExtension><gpxtpx:hr>117</gpxtpx:hr></gpxtpx:TrackPointExtension></extensions></trkpt>
<trkpt lat="22.4260443" lon="114.2130303">
<ele>9</ele><time>2020-12-28T07:37:03.999Z</time><extensions><gpxtpx:TrackPointExtension><gpxtpx:hr>117</gpxtpx:hr></gpxtpx:TrackPointExtension></extensions></trkpt>
<trkpt lat="22.4260939" lon="114.2129874">
<ele>9</ele><time>2020-12-28T07:37:06.999Z</time><extensions><gpxtpx:TrackPointExtension><gpxtpx:hr>117</gpxtpx:hr></gpxtpx:TrackPointExtension></extensions></trkpt>
<trkpt lat="22.4261336" lon="114.2129660">
<ele>9</ele><time>2020-12-28T07:37:08.999Z</time><extensions><gpxtpx:TrackPointExtension><gpxtpx:hr>117</gpxtpx:hr></gpxtpx:TrackPointExtension></extensions></trkpt>
<trkpt lat="22.4261931" lon="114.2129445">
<ele>9</ele><time>2020-12-28T07:37:11.999Z</time><extensions><gpxtpx:TrackPointExtension><gpxtpx:hr>117</gpxtpx:hr></gpxtpx:TrackPointExtension></extensions></trkpt>
<trkpt lat="22.4262427" lon="114.2129016">
<ele>9</ele><time>2020-12-28T07:37:14.999Z</time><extensions><gpxtpx:TrackPointExtension><gpxtpx:hr>117</gpxtpx:hr></gpxtpx:TrackPointExtension></extensions></trkpt>
<trkpt lat="22.4262824" lon="114.2128587">
<ele>9</ele><time>2020-12-28T07:37:16.999Z</time><extensions><gpxtpx:TrackPointExtension><gpxtpx:hr>117</gpxtpx:hr></gpxtpx:TrackPointExtension></extensions></trkpt>
<trkpt lat="22.4263121" lon="114.2128158">
<ele>9</ele><time>2020-12-28T07:37:18.999Z</time><extensions><gpxtpx:TrackPointExtension><gpxtpx:hr>124</gpxtpx:hr></gpxtpx:TrackPointExtension></extensions></trkpt>
<trkpt lat="22.4263419" lon="114.2127299">
<ele>9</ele><time>2020-12-28T07:37:21.999Z</time><extensions><gpxtpx:TrackPointExtension><gpxtpx:hr>124</gpxtpx:hr></gpxtpx:TrackPointExtension></extensions></trkpt>
<trkpt lat="22.4263617" lon="114.2126870">
<ele>9</ele><time>2020-12-28T07:37:23.999Z</time><extensions><gpxtpx:TrackPointExtension><gpxtpx:hr>127</gpxtpx:hr></gpxtpx:TrackPointExtension></extensions></trkpt>
<trkpt lat="22.4264113" lon="114.2126441">
<ele>9</ele><time>2020-12-28T07:37:25.999Z</time><extensions><gpxtpx:TrackPointExtension><gpxtpx:hr>127</gpxtpx:hr></gpxtpx:TrackPointExtension></extensions></trkpt>
<trkpt lat="22.4264807" lon="114.2126870">
<ele>9</ele><time>2020-12-28T07:37:27.999Z</time><extensions><gpxtpx:TrackPointExtension><gpxtpx:hr>127</gpxtpx:hr></gpxtpx:TrackPointExtension></extensions></trkpt>
<trkpt lat="22.4265204" lon="114.2127085">
<ele>9</ele><time>2020-12-28T07:37:30.999Z</time><extensions><gpxtpx:TrackPointExtension><gpxtpx:hr>127</gpxtpx:hr></gpxtpx:TrackPointExtension></extensions></trkpt>
<trkpt lat="22.4265700" lon="114.2127085">
<ele>10</ele><time>2020-12-28T07:37:33.999Z</time><extensions><gpxtpx:TrackPointExtension><gpxtpx:hr>127</gpxtpx:hr></gpxtpx:TrackPointExtension></extensions></trkpt>
<trkpt lat="22.4265898" lon="114.2127514">
<ele>10</ele><time>2020-12-28T07:37:35.999Z</time><extensions><gpxtpx:TrackPointExtension><gpxtpx:hr>127</gpxtpx:hr></gpxtpx:TrackPointExtension></extensions></trkpt>
<trkpt lat="22.4266295" lon="114.2127728">
<ele>10</ele><time>2020-12-28T07:37:38.999Z</time><extensions><gpxtpx:TrackPointExtension><gpxtpx:hr>127</gpxtpx:hr></gpxtpx:TrackPointExtension></extensions></trkpt>
<trkpt lat="22.4266691" lon="114.2128158">
<ele>11</ele><time>2020-12-28T07:37:41.999Z</time><extensions><gpxtpx:TrackPointExtension><gpxtpx:hr>127</gpxtpx:hr></gpxtpx:TrackPointExtension></extensions></trkpt>
<trkpt lat="22.4267187" lon="114.2128158">
<ele>11</ele><time>2020-12-28T07:37:50.998Z</time><extensions><gpxtpx:TrackPointExtension><gpxtpx:hr>132</gpxtpx:hr></gpxtpx:TrackPointExtension></extensions></trkpt>
<trkpt lat="22.4267485" lon="114.2128587">
<ele>10</ele><time>2020-12-28T07:37:54.998Z</time><extensions><gpxtpx:TrackPointExtension><gpxtpx:hr>132</gpxtpx:hr></gpxtpx:TrackPointExtension></extensions></trkpt>
<trkpt lat="22.4267782" lon="114.2129016">
<ele>10</ele><time>2020-12-28T07:37:57.998Z</time><extensions><gpxtpx:TrackPointExtension><gpxtpx:hr>132</gpxtpx:hr></gpxtpx:TrackPointExtension></extensions></trkpt>
<trkpt lat="22.4268080" lon="114.2129445">
<ele>9</ele><time>2020-12-28T07:38:01.000Z</time><extensions><gpxtpx:TrackPointExtension><gpxtpx:hr>132</gpxtpx:hr></gpxtpx:TrackPointExtension></extensions></trkpt>
<trkpt lat="22.4268278" lon="114.2129874">
<ele>9</ele><time>2020-12-28T07:38:05.000Z</time><extensions><gpxtpx:TrackPointExtension><gpxtpx:hr>132</gpxtpx:hr></gpxtpx:TrackPointExtension></extensions></trkpt>
<trkpt lat="22.4268675" lon="114.2129660">
<ele>9</ele><time>2020-12-28T07:38:10.000Z</time><extensions><gpxtpx:TrackPointExtension><gpxtpx:hr>132</gpxtpx:hr></gpxtpx:TrackPointExtension></extensions></trkpt>
<trkpt lat="22.4269270" lon="114.2129230">
<ele>9</ele><time>2020-12-28T07:38:23.000Z</time><extensions><gpxtpx:TrackPointExtension><gpxtpx:hr>132</gpxtpx:hr></gpxtpx:TrackPointExtension></extensions></trkpt>
<trkpt lat="22.4269667" lon="114.2128801">
<ele>9</ele><time>2020-12-28T07:38:27.000Z</time><extensions><gpxtpx:TrackPointExtension><gpxtpx:hr>132</gpxtpx:hr></gpxtpx:TrackPointExtension></extensions></trkpt>
<trkpt lat="22.4269964" lon="114.2128372">
<ele>9</ele><time>2020-12-28T07:38:30.000Z</time><extensions><gpxtpx:TrackPointExtension><gpxtpx:hr>132</gpxtpx:hr></gpxtpx:TrackPointExtension></extensions></trkpt>
<trkpt lat="22.4270460" lon="114.2128158">
<ele>9</ele><time>2020-12-28T07:38:33.000Z</time><extensions><gpxtpx:TrackPointExtension><gpxtpx:hr>132</gpxtpx:hr></gpxtpx:TrackPointExtension></extensions></trkpt>
<trkpt lat="22.4270857" lon="114.2127728">
<ele>9</ele><time>2020-12-28T07:38:37.999Z</time><extensions><gpxtpx:TrackPointExtension><gpxtpx:hr>132</gpxtpx:hr></gpxtpx:TrackPointExtension></extensions></trkpt>
<trkpt lat="22.4271253" lon="114.2127514">
<ele>9</ele><time>2020-12-28T07:38:39.999Z</time><extensions><gpxtpx:TrackPointExtension><gpxtpx:hr>132</gpxtpx:hr></gpxtpx:TrackPointExtension></extensions></trkpt>
<trkpt lat="22.4271551" lon="114.2127085">
<ele>9</ele><time>2020-12-28T07:38:41.999Z</time><extensions><gpxtpx:TrackPointExtension><gpxtpx:hr>132</gpxtpx:hr></gpxtpx:TrackPointExtension></extensions></trkpt>
<trkpt lat="22.4271948" lon="114.2126441">
<ele>9</ele><time>2020-12-28T07:38:43.999Z</time><extensions><gpxtpx:TrackPointExtension><gpxtpx:hr>132</gpxtpx:hr></gpxtpx:TrackPointExtension></extensions></trkpt>
<trkpt lat="22.4272245" lon="114.2126012">
<ele>9</ele><time>2020-12-28T07:38:45.999Z</time><extensions><gpxtpx:TrackPointExtension><gpxtpx:hr>132</gpxtpx:hr></gpxtpx:TrackPointExtension></extensions></trkpt>
<trkpt lat="22.4272543" lon="114.2125583">
<ele>10</ele><time>2020-12-28T07:38:46.999Z</time><extensions><gpxtpx:TrackPointExtension><gpxtpx:hr>132</gpxtpx:hr></gpxtpx:TrackPointExtension></extensions></trkpt>
<trkpt lat="22.4272939" lon="114.2125154">
<ele>10</ele><time>2020-12-28T07:38:47.999Z</time><extensions><gpxtpx:TrackPointExtension><gpxtpx:hr>132</gpxtpx:hr></gpxtpx:TrackPointExtension></extensions></trkpt>
<trkpt lat="22.4273336" lon="114.2124724">
<ele>10</ele><time>2020-12-28T07:38:49.999Z</time><extensions><gpxtpx:TrackPointExtension><gpxtpx:hr>132</gpxtpx:hr></gpxtpx:TrackPointExtension></extensions></trkpt>
<trkpt lat="22.4273634" lon="114.2124295">
<ele>10</ele><time>2020-12-28T07:38:50.999Z</time><extensions><gpxtpx:TrackPointExtension><gpxtpx:hr>132</gpxtpx:hr></gpxtpx:TrackPointExtension></extensions></trkpt>
<trkpt lat="22.4274129" lon="114.2123866">
<ele>10</ele><time>2020-12-28T07:38:51.999Z</time><extensions><gpxtpx:TrackPointExtension><gpxtpx:hr>132</gpxtpx:hr></gpxtpx:TrackPointExtension></extensions></trkpt>
<trkpt lat="22.4274427" lon="114.2123008">
<ele>10</ele><time>2020-12-28T07:38:53.999Z</time><extensions><gpxtpx:TrackPointExtension><gpxtpx:hr>132</gpxtpx:hr></gpxtpx:TrackPointExtension></extensions></trkpt>
<trkpt lat="22.4274824" lon="114.2122579">
<ele>10</ele><time>2020-12-28T07:38:55.999Z</time><extensions><gpxtpx:TrackPointExtension><gpxtpx:hr>132</gpxtpx:hr></gpxtpx:TrackPointExtension></extensions></trkpt>
<trkpt lat="22.4275220" lon="114.2121935">
<ele>10</ele><time>2020-12-28T07:38:57.999Z</time><extensions><gpxtpx:TrackPointExtension><gpxtpx:hr>132</gpxtpx:hr></gpxtpx:TrackPointExtension></extensions></trkpt>
<trkpt lat="22.4275617" lon="114.2121506">
<ele>10</ele><time>2020-12-28T07:38:59.999Z</time><extensions><gpxtpx:TrackPointExtension><gpxtpx:hr>132</gpxtpx:hr></gpxtpx:TrackPointExtension></extensions></trkpt>
<trkpt lat="22.4276014" lon="114.2121077">
<ele>10</ele><time>2020-12-28T07:39:01.999Z</time><extensions><gpxtpx:TrackPointExtension><gpxtpx:hr>132</gpxtpx:hr></gpxtpx:TrackPointExtension></extensions></trkpt>
<trkpt lat="22.4276311" lon="114.2120647">
<ele>10</ele><time>2020-12-28T07:39:02.999Z</time><extensions><gpxtpx:TrackPointExtension><gpxtpx:hr>132</gpxtpx:hr></gpxtpx:TrackPointExtension></extensions></trkpt>
<trkpt lat="22.4276708" lon="114.2120218">
<ele>10</ele><time>2020-12-28T07:39:04.999Z</time><extensions><gpxtpx:TrackPointExtension><gpxtpx:hr>132</gpxtpx:hr></gpxtpx:TrackPointExtension></extensions></trkpt>
<trkpt lat="22.4277005" lon="114.2119575">
<ele>10</ele><time>2020-12-28T07:39:06.999Z</time><extensions><gpxtpx:TrackPointExtension><gpxtpx:hr>132</gpxtpx:hr></gpxtpx:TrackPointExtension></extensions></trkpt>
<trkpt lat="22.4277402" lon="114.2118931">
<ele>10</ele><time>2020-12-28T07:39:08.999Z</time><extensions><gpxtpx:TrackPointExtension><gpxtpx:hr>132</gpxtpx:hr></gpxtpx:TrackPointExtension></extensions></trkpt>
<trkpt lat="22.4277799" lon="114.2118287">
<ele>10</ele><time>2020-12-28T07:39:10.999Z</time><extensions><gpxtpx:TrackPointExtension><gpxtpx:hr>132</gpxtpx:hr></gpxtpx:TrackPointExtension></extensions></trkpt>
<trkpt lat="22.4278196" lon="114.2117858">
<ele>10</ele><time>2020-12-28T07:39:12.999Z</time><extensions><gpxtpx:TrackPointExtension><gpxtpx:hr>132</gpxtpx:hr></gpxtpx:TrackPointExtension></extensions></trkpt>
<trkpt lat="22.4278592" lon="114.2117214">
<ele>10</ele><time>2020-12-28T07:39:14.999Z</time><extensions><gpxtpx:TrackPointExtension><gpxtpx:hr>132</gpxtpx:hr></gpxtpx:TrackPointExtension></extensions></trkpt>
<trkpt lat="22.4278890" lon="114.2116570">
<ele>10</ele><time>2020-12-28T07:39:16.999Z</time><extensions><gpxtpx:TrackPointExtension><gpxtpx:hr>132</gpxtpx:hr></gpxtpx:TrackPointExtension></extensions></trkpt>
<trkpt lat="22.4279286" lon="114.2115927">
<ele>10</ele><time>2020-12-28T07:39:18.999Z</time><extensions><gpxtpx:TrackPointExtension><gpxtpx:hr>132</gpxtpx:hr></gpxtpx:TrackPointExtension></extensions></trkpt>
<trkpt lat="22.4279782" lon="114.2115498">
<ele>10</ele><time>2020-12-28T07:39:20.999Z</time><extensions><gpxtpx:TrackPointExtension><gpxtpx:hr>132</gpxtpx:hr></gpxtpx:TrackPointExtension></extensions></trkpt>
<trkpt lat="22.4280080" lon="114.2114854">
<ele>10</ele><time>2020-12-28T07:39:22.999Z</time><extensions><gpxtpx:TrackPointExtension><gpxtpx:hr>132</gpxtpx:hr></gpxtpx:TrackPointExtension></extensions></trkpt>
<trkpt lat="22.4280576" lon="114.2114210">
<ele>10</ele><time>2020-12-28T07:39:24.999Z</time><extensions><gpxtpx:TrackPointExtension><gpxtpx:hr>132</gpxtpx:hr></gpxtpx:TrackPointExtension></extensions></trkpt>
<trkpt lat="22.4281171" lon="114.2113781">
<ele>10</ele><time>2020-12-28T07:39:26.999Z</time><extensions><gpxtpx:TrackPointExtension><gpxtpx:hr>132</gpxtpx:hr></gpxtpx:TrackPointExtension></extensions></trkpt>
<trkpt lat="22.4281468" lon="114.2113352">
<ele>10</ele><time>2020-12-28T07:39:28.999Z</time><extensions><gpxtpx:TrackPointExtension><gpxtpx:hr>132</gpxtpx:hr></gpxtpx:TrackPointExtension></extensions></trkpt>
<trkpt lat="22.4281667" lon="114.2112708">
<ele>10</ele><time>2020-12-28T07:39:30.999Z</time><extensions><gpxtpx:TrackPointExtension><gpxtpx:hr>132</gpxtpx:hr></gpxtpx:TrackPointExtension></extensions></trkpt>
<trkpt lat="22.4282063" lon="114.2112064">
<ele>10</ele><time>2020-12-28T07:39:32.999Z</time><extensions><gpxtpx:TrackPointExtension><gpxtpx:hr>132</gpxtpx:hr></gpxtpx:TrackPointExtension></extensions></trkpt>
<trkpt lat="22.4282361" lon="114.2111635">
<ele>10</ele><time>2020-12-28T07:39:34.999Z</time><extensions><gpxtpx:TrackPointExtension><gpxtpx:hr>132</gpxtpx:hr></gpxtpx:TrackPointExtension></extensions></trkpt>
<trkpt lat="22.4282658" lon="114.2110991">
<ele>10</ele><time>2020-12-28T07:39:36.999Z</time><extensions><gpxtpx:TrackPointExtension><gpxtpx:hr>132</gpxtpx:hr></gpxtpx:TrackPointExtension></extensions></trkpt>
<trkpt lat="22.4283055" lon="114.2110562">
<ele>10</ele><time>2020-12-28T07:39:38.999Z</time><extensions><gpxtpx:TrackPointExtension><gpxtpx:hr>132</gpxtpx:hr></gpxtpx:TrackPointExtension></extensions></trkpt>
<trkpt lat="22.4283452" lon="114.2109919">
<ele>10</ele><time>2020-12-28T07:39:40.999Z</time><extensions><gpxtpx:TrackPointExtension><gpxtpx:hr>132</gpxtpx:hr></gpxtpx:TrackPointExtension></extensions></trkpt>
<trkpt lat="22.4283948" lon="114.2109275">
<ele>10</ele><time>2020-12-28T07:39:43.999Z</time><extensions><gpxtpx:TrackPointExtension><gpxtpx:hr>132</gpxtpx:hr></gpxtpx:TrackPointExtension></extensions></trkpt>
<trkpt lat="22.4284245" lon="114.2108846">
<ele>10</ele><time>2020-12-28T07:39:45.999Z</time><extensions><gpxtpx:TrackPointExtension><gpxtpx:hr>132</gpxtpx:hr></gpxtpx:TrackPointExtension></extensions></trkpt>
<trkpt lat="22.4284543" lon="114.2108417">
<ele>10</ele><time>2020-12-28T07:39:47.999Z</time><extensions><gpxtpx:TrackPointExtension><gpxtpx:hr>132</gpxtpx:hr></gpxtpx:TrackPointExtension></extensions></trkpt>
<trkpt lat="22.4284840" lon="114.2107987">
<ele>10</ele><time>2020-12-28T07:39:49.998Z</time><extensions><gpxtpx:TrackPointExtension><gpxtpx:hr>132</gpxtpx:hr></gpxtpx:TrackPointExtension></extensions></trkpt>
<trkpt lat="22.4285237" lon="114.2107558">
<ele>10</ele><time>2020-12-28T07:39:51.998Z</time><extensions><gpxtpx:TrackPointExtension><gpxtpx:hr>132</gpxtpx:hr></gpxtpx:TrackPointExtension></extensions></trkpt>
<trkpt lat="22.4285634" lon="114.2106915">
<ele>10</ele><time>2020-12-28T07:39:53.998Z</time><extensions><gpxtpx:TrackPointExtension><gpxtpx:hr>132</gpxtpx:hr></gpxtpx:TrackPointExtension></extensions></trkpt>
<trkpt lat="22.4286030" lon="114.2106485">
<ele>10</ele><time>2020-12-28T07:39:55.998Z</time><extensions><gpxtpx:TrackPointExtension><gpxtpx:hr>132</gpxtpx:hr></gpxtpx:TrackPointExtension></extensions></trkpt>
<trkpt lat="22.4286328" lon="114.2106056">
<ele>10</ele><time>2020-12-28T07:39:57.998Z</time><extensions><gpxtpx:TrackPointExtension><gpxtpx:hr>132</gpxtpx:hr></gpxtpx:TrackPointExtension></extensions></trkpt>
<trkpt lat="22.4286625" lon="114.2105627">
<ele>10</ele><time>2020-12-28T07:39:59.998Z</time><extensions><gpxtpx:TrackPointExtension><gpxtpx:hr>132</gpxtpx:hr></gpxtpx:TrackPointExtension></extensions></trkpt>
<trkpt lat="22.4286923" lon="114.2105198">
<ele>10</ele><time>2020-12-28T07:40:01.998Z</time><extensions><gpxtpx:TrackPointExtension><gpxtpx:hr>132</gpxtpx:hr></gpxtpx:TrackPointExtension></extensions></trkpt>
<trkpt lat="22.4287220" lon="114.2104769">
<ele>10</ele><time>2020-12-28T07:40:02.998Z</time><extensions><gpxtpx:TrackPointExtension><gpxtpx:hr>132</gpxtpx:hr></gpxtpx:TrackPointExtension></extensions></trkpt>
<trkpt lat="22.4287518" lon="114.2104340">
<ele>10</ele><time>2020-12-28T07:40:04.998Z</time><extensions><gpxtpx:TrackPointExtension><gpxtpx:hr>132</gpxtpx:hr></gpxtpx:TrackPointExtension></extensions></trkpt>
<trkpt lat="22.4287815" lon="114.2103910">
<ele>10</ele><time>2020-12-28T07:40:07.000Z</time><extensions><gpxtpx:TrackPointExtension><gpxtpx:hr>132</gpxtpx:hr></gpxtpx:TrackPointExtension></extensions></trkpt>
<trkpt lat="22.4288113" lon="114.2103267">
<ele>10</ele><time>2020-12-28T07:40:10.000Z</time><extensions><gpxtpx:TrackPointExtension><gpxtpx:hr>132</gpxtpx:hr></gpxtpx:TrackPointExtension></extensions></trkpt>
<trkpt lat="22.4288410" lon="114.2102838">
<ele>10</ele><time>2020-12-28T07:40:12.000Z</time><extensions><gpxtpx:TrackPointExtension><gpxtpx:hr>132</gpxtpx:hr></gpxtpx:TrackPointExtension></extensions></trkpt>
<trkpt lat="22.4288807" lon="114.2102194">
<ele>10</ele><time>2020-12-28T07:40:14.000Z</time><extensions><gpxtpx:TrackPointExtension><gpxtpx:hr>132</gpxtpx:hr></gpxtpx:TrackPointExtension></extensions></trkpt>
<trkpt lat="22.4289005" lon="114.2101765">
<ele>10</ele><time>2020-12-28T07:40:16.000Z</time><extensions><gpxtpx:TrackPointExtension><gpxtpx:hr>132</gpxtpx:hr></gpxtpx:TrackPointExtension></extensions></trkpt>
<trkpt lat="22.4289402" lon="114.2101121">
<ele>10</ele><time>2020-12-28T07:40:18.000Z</time><extensions><gpxtpx:TrackPointExtension><gpxtpx:hr>132</gpxtpx:hr></gpxtpx:TrackPointExtension></extensions></trkpt>
<trkpt lat="22.4289799" lon="114.2100692">
<ele>10</ele><time>2020-12-28T07:40:20.000Z</time><extensions><gpxtpx:TrackPointExtension><gpxtpx:hr>132</gpxtpx:hr></gpxtpx:TrackPointExtension></extensions></trkpt>
<trkpt lat="22.4290195" lon="114.2100048">
<ele>10</ele><time>2020-12-28T07:40:22.000Z</time><extensions><gpxtpx:TrackPointExtension><gpxtpx:hr>132</gpxtpx:hr></gpxtpx:TrackPointExtension></extensions></trkpt>
<trkpt lat="22.4290592" lon="114.2099404">
<ele>10</ele><time>2020-12-28T07:40:24.000Z</time><extensions><gpxtpx:TrackPointExtension><gpxtpx:hr>132</gpxtpx:hr></gpxtpx:TrackPointExtension></extensions></trkpt>
<trkpt lat="22.4291187" lon="114.2098761">
<ele>10</ele><time>2020-12-28T07:40:26.000Z</time><extensions><gpxtpx:TrackPointExtension><gpxtpx:hr>132</gpxtpx:hr></gpxtpx:TrackPointExtension></extensions></trkpt>
<trkpt lat="22.4291485" lon="114.2098331">
<ele>10</ele><time>2020-12-28T07:40:28.000Z</time><extensions><gpxtpx:TrackPointExtension><gpxtpx:hr>132</gpxtpx:hr></gpxtpx:TrackPointExtension></extensions></trkpt>
<trkpt lat="22.4291782" lon="114.2097902">
<ele>10</ele><time>2020-12-28T07:40:30.000Z</time><extensions><gpxtpx:TrackPointExtension><gpxtpx:hr>132</gpxtpx:hr></gpxtpx:TrackPointExtension></extensions></trkpt>
<trkpt lat="22.4292080" lon="114.2097473">
<ele>10</ele><time>2020-12-28T07:40:32.000Z</time><extensions><gpxtpx:TrackPointExtension><gpxtpx:hr>132</gpxtpx:hr></gpxtpx:TrackPointExtension></extensions></trkpt>
<trkpt lat="22.4292377" lon="114.2097044">
<ele>10</ele><time>2020-12-28T07:40:35.000Z</time><extensions><gpxtpx:TrackPointExtension><gpxtpx:hr>132</gpxtpx:hr></gpxtpx:TrackPointExtension></extensions></trkpt>
<trkpt lat="22.4292675" lon="114.2096400">
<ele>10</ele><time>2020-12-28T07:40:36.999Z</time><extensions><gpxtpx:TrackPointExtension><gpxtpx:hr>132</gpxtpx:hr></gpxtpx:TrackPointExtension></extensions></trkpt>
<trkpt lat="22.4292972" lon="114.2095971">
<ele>10</ele><time>2020-12-28T07:40:38.999Z</time><extensions><gpxtpx:TrackPointExtension><gpxtpx:hr>132</gpxtpx:hr></gpxtpx:TrackPointExtension></extensions></trkpt>
<trkpt lat="22.4293369" lon="114.2095542">
<ele>10</ele><time>2020-12-28T07:40:40.999Z</time><extensions><gpxtpx:TrackPointExtension><gpxtpx:hr>132</gpxtpx:hr></gpxtpx:TrackPointExtension></extensions></trkpt>
<trkpt lat="22.4293567" lon="114.2095113">
<ele>10</ele><time>2020-12-28T07:40:42.999Z</time><extensions><gpxtpx:TrackPointExtension><gpxtpx:hr>132</gpxtpx:hr></gpxtpx:TrackPointExtension></extensions></trkpt>
<trkpt lat="22.4294063" lon="114.2094684">
<ele>10</ele><time>2020-12-28T07:40:44.999Z</time><extensions><gpxtpx:TrackPointExtension><gpxtpx:hr>121</gpxtpx:hr></gpxtpx:TrackPointExtension></extensions></trkpt>
<trkpt lat="22.4294460" lon="114.2094254">
<ele>10</ele><time>2020-12-28T07:40:46.999Z</time><extensions><gpxtpx:TrackPointExtension><gpxtpx:hr>121</gpxtpx:hr></gpxtpx:TrackPointExtension></extensions></trkpt>
<trkpt lat="22.4294857" lon="114.2093611">
<ele>10</ele><time>2020-12-28T07:40:48.999Z</time><extensions><gpxtpx:TrackPointExtension><gpxtpx:hr>121</gpxtpx:hr></gpxtpx:TrackPointExtension></extensions></trkpt>
<trkpt lat="22.4295253" lon="114.2092967">
<ele>10</ele><time>2020-12-28T07:40:51.999Z</time><extensions><gpxtpx:TrackPointExtension><gpxtpx:hr>121</gpxtpx:hr></gpxtpx:TrackPointExtension></extensions></trkpt>
<trkpt lat="22.4295352" lon="114.2092323">
<ele>10</ele><time>2020-12-28T07:40:53.999Z</time><extensions><gpxtpx:TrackPointExtension><gpxtpx:hr>121</gpxtpx:hr></gpxtpx:TrackPointExtension></extensions></trkpt>
<trkpt lat="22.4295055" lon="114.2091680">
<ele>10</ele><time>2020-12-28T07:40:55.999Z</time><extensions><gpxtpx:TrackPointExtension><gpxtpx:hr>121</gpxtpx:hr></gpxtpx:TrackPointExtension></extensions></trkpt>
<trkpt lat="22.4294956" lon="114.2091036">
<ele>10</ele><time>2020-12-28T07:40:58.999Z</time><extensions><gpxtpx:TrackPointExtension><gpxtpx:hr>121</gpxtpx:hr></gpxtpx:TrackPointExtension></extensions></trkpt>
<trkpt lat="22.4294757" lon="114.2090607">
<ele>10</ele><time>2020-12-28T07:41:01.999Z</time><extensions><gpxtpx:TrackPointExtension><gpxtpx:hr>119</gpxtpx:hr></gpxtpx:TrackPointExtension></extensions></trkpt>
<trkpt lat="22.4294460" lon="114.2090178">
<ele>10</ele><time>2020-12-28T07:41:03.999Z</time><extensions><gpxtpx:TrackPointExtension><gpxtpx:hr>120</gpxtpx:hr></gpxtpx:TrackPointExtension></extensions></trkpt>
<trkpt lat="22.4294162" lon="114.2089748">
<ele>10</ele><time>2020-12-28T07:41:09.999Z</time><extensions><gpxtpx:TrackPointExtension><gpxtpx:hr>121</gpxtpx:hr></gpxtpx:TrackPointExtension></extensions></trkpt>
<trkpt lat="22.4294658" lon="114.2089748">
<ele>10</ele><time>2020-12-28T07:41:15.999Z</time><extensions><gpxtpx:TrackPointExtension><gpxtpx:hr>119</gpxtpx:hr></gpxtpx:TrackPointExtension></extensions></trkpt>
<trkpt lat="22.4295055" lon="114.2090178">
<ele>10</ele><time>2020-12-28T07:41:16.999Z</time><extensions><gpxtpx:TrackPointExtension><gpxtpx:hr>119</gpxtpx:hr></gpxtpx:TrackPointExtension></extensions></trkpt>
<trkpt lat="22.4295551" lon="114.2090392">
<ele>10</ele><time>2020-12-28T07:41:19.999Z</time><extensions><gpxtpx:TrackPointExtension><gpxtpx:hr>121</gpxtpx:hr></gpxtpx:TrackPointExtension></extensions></trkpt>
<trkpt lat="22.4296146" lon="114.2090821">
<ele>10</ele><time>2020-12-28T07:41:22.999Z</time><extensions><gpxtpx:TrackPointExtension><gpxtpx:hr>121</gpxtpx:hr></gpxtpx:TrackPointExtension></extensions></trkpt>
<trkpt lat="22.4296642" lon="114.2090821">
<ele>10</ele><time>2020-12-28T07:41:24.999Z</time><extensions><gpxtpx:TrackPointExtension><gpxtpx:hr>122</gpxtpx:hr></gpxtpx:TrackPointExtension></extensions></trkpt>
<trkpt lat="22.4297038" lon="114.2089963">
<ele>10</ele><time>2020-12-28T07:41:26.999Z</time><extensions><gpxtpx:TrackPointExtension><gpxtpx:hr>122</gpxtpx:hr></gpxtpx:TrackPointExtension></extensions></trkpt>
<trkpt lat="22.4297336" lon="114.2089534">
<ele>10</ele><time>2020-12-28T07:41:27.999Z</time><extensions><gpxtpx:TrackPointExtension><gpxtpx:hr>122</gpxtpx:hr></gpxtpx:TrackPointExtension></extensions></trkpt>
<trkpt lat="22.4297633" lon="114.2089105">
<ele>10</ele><time>2020-12-28T07:41:28.999Z</time><extensions><gpxtpx:TrackPointExtension><gpxtpx:hr>122</gpxtpx:hr></gpxtpx:TrackPointExtension></extensions></trkpt>
<trkpt lat="22.4297931" lon="114.2088675">
<ele>10</ele><time>2020-12-28T07:41:29.999Z</time><extensions><gpxtpx:TrackPointExtension><gpxtpx:hr>122</gpxtpx:hr></gpxtpx:TrackPointExtension></extensions></trkpt>
<trkpt lat="22.4298129" lon="114.2088246">
<ele>10</ele><time>2020-12-28T07:41:30.999Z</time><extensions><gpxtpx:TrackPointExtension><gpxtpx:hr>122</gpxtpx:hr></gpxtpx:TrackPointExtension></extensions></trkpt>
<trkpt lat="22.4298526" lon="114.2087817">
<ele>10</ele><time>2020-12-28T07:41:31.999Z</time><extensions><gpxtpx:TrackPointExtension><gpxtpx:hr>122</gpxtpx:hr></gpxtpx:TrackPointExtension></extensions></trkpt>
<trkpt lat="22.4298823" lon="114.2087388">
<ele>10</ele><time>2020-12-28T07:41:32.999Z</time><extensions><gpxtpx:TrackPointExtension><gpxtpx:hr>122</gpxtpx:hr></gpxtpx:TrackPointExtension></extensions></trkpt>
<trkpt lat="22.4299022" lon="114.2086959">
<ele>10</ele><time>2020-12-28T07:41:33.999Z</time><extensions><gpxtpx:TrackPointExtension><gpxtpx:hr>122</gpxtpx:hr></gpxtpx:TrackPointExtension></extensions></trkpt>
<trkpt lat="22.4299418" lon="114.2086530">
<ele>10</ele><time>2020-12-28T07:41:34.999Z</time><extensions><gpxtpx:TrackPointExtension><gpxtpx:hr>122</gpxtpx:hr></gpxtpx:TrackPointExtension></extensions></trkpt>
<trkpt lat="22.4299716" lon="114.2086101">
<ele>10</ele><time>2020-12-28T07:41:35.999Z</time><extensions><gpxtpx:TrackPointExtension><gpxtpx:hr>122</gpxtpx:hr></gpxtpx:TrackPointExtension></extensions></trkpt>
<trkpt lat="22.4300013" lon="114.2085671">
<ele>10</ele><time>2020-12-28T07:41:36.999Z</time><extensions><gpxtpx:TrackPointExtension><gpxtpx:hr>122</gpxtpx:hr></gpxtpx:TrackPointExtension></extensions></trkpt>
<trkpt lat="22.4300311" lon="114.2085242">
<ele>10</ele><time>2020-12-28T07:41:37.999Z</time><extensions><gpxtpx:TrackPointExtension><gpxtpx:hr>122</gpxtpx:hr></gpxtpx:TrackPointExtension></extensions></trkpt>
<trkpt lat="22.4300608" lon="114.2084813">
<ele>10</ele><time>2020-12-28T07:41:38.999Z</time><extensions><gpxtpx:TrackPointExtension><gpxtpx:hr>123</gpxtpx:hr></gpxtpx:TrackPointExtension></extensions></trkpt>
<trkpt lat="22.4300906" lon="114.2084384">
<ele>10</ele><time>2020-12-28T07:41:39.999Z</time><extensions><gpxtpx:TrackPointExtension><gpxtpx:hr>123</gpxtpx:hr></gpxtpx:TrackPointExtension></extensions></trkpt>
<trkpt lat="22.4301303" lon="114.2083955">
<ele>10</ele><time>2020-12-28T07:41:40.999Z</time><extensions><gpxtpx:TrackPointExtension><gpxtpx:hr>123</gpxtpx:hr></gpxtpx:TrackPointExtension></extensions></trkpt>
<trkpt lat="22.4301600" lon="114.2083526">
<ele>10</ele><time>2020-12-28T07:41:41.999Z</time><extensions><gpxtpx:TrackPointExtension><gpxtpx:hr>123</gpxtpx:hr></gpxtpx:TrackPointExtension></extensions></trkpt>
<trkpt lat="22.4301997" lon="114.2082882">
<ele>10</ele><time>2020-12-28T07:41:42.999Z</time><extensions><gpxtpx:TrackPointExtension><gpxtpx:hr>123</gpxtpx:hr></gpxtpx:TrackPointExtension></extensions></trkpt>
<trkpt lat="22.4302294" lon="114.2082453">
<ele>10</ele><time>2020-12-28T07:41:43.999Z</time><extensions><gpxtpx:TrackPointExtension><gpxtpx:hr>126</gpxtpx:hr></gpxtpx:TrackPointExtension></extensions></trkpt>
<trkpt lat="22.4302889" lon="114.2081594">
<ele>10</ele><time>2020-12-28T07:41:45.999Z</time><extensions><gpxtpx:TrackPointExtension><gpxtpx:hr>126</gpxtpx:hr></gpxtpx:TrackPointExtension></extensions></trkpt>
<trkpt lat="22.4303088" lon="114.2081165">
<ele>10</ele><time>2020-12-28T07:41:46.999Z</time><extensions><gpxtpx:TrackPointExtension><gpxtpx:hr>126</gpxtpx:hr></gpxtpx:TrackPointExtension></extensions></trkpt>
<trkpt lat="22.4303584" lon="114.2080736">
<ele>10</ele><time>2020-12-28T07:41:47.999Z</time><extensions><gpxtpx:TrackPointExtension><gpxtpx:hr>126</gpxtpx:hr></gpxtpx:TrackPointExtension></extensions></trkpt>
<trkpt lat="22.4303881" lon="114.2080307">
<ele>10</ele><time>2020-12-28T07:41:48.998Z</time><extensions><gpxtpx:TrackPointExtension><gpxtpx:hr>133</gpxtpx:hr></gpxtpx:TrackPointExtension></extensions></trkpt>
<trkpt lat="22.4304377" lon="114.2079663">
<ele>10</ele><time>2020-12-28T07:41:50.998Z</time><extensions><gpxtpx:TrackPointExtension><gpxtpx:hr>133</gpxtpx:hr></gpxtpx:TrackPointExtension></extensions></trkpt>
<trkpt lat="22.4304675" lon="114.2079234">
<ele>10</ele><time>2020-12-28T07:41:51.998Z</time><extensions><gpxtpx:TrackPointExtension><gpxtpx:hr>133</gpxtpx:hr></gpxtpx:TrackPointExtension></extensions></trkpt>
<trkpt lat="22.4304873" lon="114.2078805">
<ele>10</ele><time>2020-12-28T07:41:52.998Z</time><extensions><gpxtpx:TrackPointExtension><gpxtpx:hr>133</gpxtpx:hr></gpxtpx:TrackPointExtension></extensions></trkpt>
<trkpt lat="22.4305170" lon="114.2078376">
<ele>10</ele><time>2020-12-28T07:41:53.998Z</time><extensions><gpxtpx:TrackPointExtension><gpxtpx:hr>134</gpxtpx:hr></gpxtpx:TrackPointExtension></extensions></trkpt>
<trkpt lat="22.4305765" lon="114.2077947">
<ele>10</ele><time>2020-12-28T07:41:55.998Z</time><extensions><gpxtpx:TrackPointExtension><gpxtpx:hr>134</gpxtpx:hr></gpxtpx:TrackPointExtension></extensions></trkpt>
<trkpt lat="22.4305964" lon="114.2077518">
<ele>10</ele><time>2020-12-28T07:41:56.998Z</time><extensions><gpxtpx:TrackPointExtension><gpxtpx:hr>134</gpxtpx:hr></gpxtpx:TrackPointExtension></extensions></trkpt>
<trkpt lat="22.4306460" lon="114.2077088">
<ele>10</ele><time>2020-12-28T07:41:58.998Z</time><extensions><gpxtpx:TrackPointExtension><gpxtpx:hr>134</gpxtpx:hr></gpxtpx:TrackPointExtension></extensions></trkpt>
<trkpt lat="22.4306757" lon="114.2076659">
<ele>10</ele><time>2020-12-28T07:41:59.998Z</time><extensions><gpxtpx:TrackPointExtension><gpxtpx:hr>134</gpxtpx:hr></gpxtpx:TrackPointExtension></extensions></trkpt>
<trkpt lat="22.4307352" lon="114.2076015">
<ele>10</ele><time>2020-12-28T07:42:01.998Z</time><extensions><gpxtpx:TrackPointExtension><gpxtpx:hr>134</gpxtpx:hr></gpxtpx:TrackPointExtension></extensions></trkpt>
<trkpt lat="22.4307848" lon="114.2075372">
<ele>10</ele><time>2020-12-28T07:42:03.998Z</time><extensions><gpxtpx:TrackPointExtension><gpxtpx:hr>134</gpxtpx:hr></gpxtpx:TrackPointExtension></extensions></trkpt>
<trkpt lat="22.4308245" lon="114.2074728">
<ele>10</ele><time>2020-12-28T07:42:05.998Z</time><extensions><gpxtpx:TrackPointExtension><gpxtpx:hr>134</gpxtpx:hr></gpxtpx:TrackPointExtension></extensions></trkpt>
<trkpt lat="22.4308443" lon="114.2074299">
<ele>10</ele><time>2020-12-28T07:42:06.998Z</time><extensions><gpxtpx:TrackPointExtension><gpxtpx:hr>134</gpxtpx:hr></gpxtpx:TrackPointExtension></extensions></trkpt>
<trkpt lat="22.4308939" lon="114.2073655">
<ele>10</ele><time>2020-12-28T07:42:08.998Z</time><extensions><gpxtpx:TrackPointExtension><gpxtpx:hr>134</gpxtpx:hr></gpxtpx:TrackPointExtension></extensions></trkpt>
<trkpt lat="22.4309435" lon="114.2073011">
<ele>10</ele><time>2020-12-28T07:42:10.998Z</time><extensions><gpxtpx:TrackPointExtension><gpxtpx:hr>134</gpxtpx:hr></gpxtpx:TrackPointExtension></extensions></trkpt>
<trkpt lat="22.4309931" lon="114.2072368">
<ele>10</ele><time>2020-12-28T07:42:13.000Z</time><extensions><gpxtpx:TrackPointExtension><gpxtpx:hr>134</gpxtpx:hr></gpxtpx:TrackPointExtension></extensions></trkpt>
<trkpt lat="22.4310327" lon="114.2071724">
<ele>10</ele><time>2020-12-28T07:42:15.000Z</time><extensions><gpxtpx:TrackPointExtension><gpxtpx:hr>134</gpxtpx:hr></gpxtpx:TrackPointExtension></extensions></trkpt>
<trkpt lat="22.4310724" lon="114.2071080">
<ele>10</ele><time>2020-12-28T07:42:17.000Z</time><extensions><gpxtpx:TrackPointExtension><gpxtpx:hr>134</gpxtpx:hr></gpxtpx:TrackPointExtension></extensions></trkpt>
<trkpt lat="22.4311121" lon="114.2070436">
<ele>10</ele><time>2020-12-28T07:42:19.000Z</time><extensions><gpxtpx:TrackPointExtension><gpxtpx:hr>134</gpxtpx:hr></gpxtpx:TrackPointExtension></extensions></trkpt>
<trkpt lat="22.4311418" lon="114.2070007">
<ele>10</ele><time>2020-12-28T07:42:21.000Z</time><extensions><gpxtpx:TrackPointExtension><gpxtpx:hr>134</gpxtpx:hr></gpxtpx:TrackPointExtension></extensions></trkpt>
<trkpt lat="22.4311716" lon="114.2069578">
<ele>10</ele><time>2020-12-28T07:42:23.000Z</time><extensions><gpxtpx:TrackPointExtension><gpxtpx:hr>134</gpxtpx:hr></gpxtpx:TrackPointExtension></extensions></trkpt>
<trkpt lat="22.4312112" lon="114.2068934">
<ele>10</ele><time>2020-12-28T07:42:25.000Z</time><extensions><gpxtpx:TrackPointExtension><gpxtpx:hr>134</gpxtpx:hr></gpxtpx:TrackPointExtension></extensions></trkpt>
<trkpt lat="22.4312509" lon="114.2068505">
<ele>10</ele><time>2020-12-28T07:42:27.000Z</time><extensions><gpxtpx:TrackPointExtension><gpxtpx:hr>134</gpxtpx:hr></gpxtpx:TrackPointExtension></extensions></trkpt>
<trkpt lat="22.4312906" lon="114.2067862">
<ele>10</ele><time>2020-12-28T07:42:29.000Z</time><extensions><gpxtpx:TrackPointExtension><gpxtpx:hr>134</gpxtpx:hr></gpxtpx:TrackPointExtension></extensions></trkpt>
<trkpt lat="22.4313402" lon="114.2067432">
<ele>10</ele><time>2020-12-28T07:42:31.000Z</time><extensions><gpxtpx:TrackPointExtension><gpxtpx:hr>134</gpxtpx:hr></gpxtpx:TrackPointExtension></extensions></trkpt>
<trkpt lat="22.4313699" lon="114.2067003">
<ele>10</ele><time>2020-12-28T07:42:33.000Z</time><extensions><gpxtpx:TrackPointExtension><gpxtpx:hr>134</gpxtpx:hr></gpxtpx:TrackPointExtension></extensions></trkpt>
<trkpt lat="22.4314096" lon="114.2066574">
<ele>10</ele><time>2020-12-28T07:42:36.000Z</time><extensions><gpxtpx:TrackPointExtension><gpxtpx:hr>134</gpxtpx:hr></gpxtpx:TrackPointExtension></extensions></trkpt>
<trkpt lat="22.4314393" lon="114.2066145">
<ele>10</ele><time>2020-12-28T07:42:38.000Z</time><extensions><gpxtpx:TrackPointExtension><gpxtpx:hr>134</gpxtpx:hr></gpxtpx:TrackPointExtension></extensions></trkpt>
<trkpt lat="22.4314790" lon="114.2065501">
<ele>10</ele><time>2020-12-28T07:42:39.999Z</time><extensions><gpxtpx:TrackPointExtension><gpxtpx:hr>134</gpxtpx:hr></gpxtpx:TrackPointExtension></extensions></trkpt>
<trkpt lat="22.4315187" lon="114.2065072">
<ele>10</ele><time>2020-12-28T07:42:41.999Z</time><extensions><gpxtpx:TrackPointExtension><gpxtpx:hr>134</gpxtpx:hr></gpxtpx:TrackPointExtension></extensions></trkpt>
<trkpt lat="22.4315484" lon="114.2064428">
<ele>10</ele><time>2020-12-28T07:42:43.999Z</time><extensions><gpxtpx:TrackPointExtension><gpxtpx:hr>134</gpxtpx:hr></gpxtpx:TrackPointExtension></extensions></trkpt>
<trkpt lat="22.4315980" lon="114.2063999">
<ele>10</ele><time>2020-12-28T07:42:46.999Z</time><extensions><gpxtpx:TrackPointExtension><gpxtpx:hr>134</gpxtpx:hr></gpxtpx:TrackPointExtension></extensions></trkpt>
<trkpt lat="22.4316278" lon="114.2063355">
<ele>10</ele><time>2020-12-28T07:42:48.999Z</time><extensions><gpxtpx:TrackPointExtension><gpxtpx:hr>126</gpxtpx:hr></gpxtpx:TrackPointExtension></extensions></trkpt>
<trkpt lat="22.4316674" lon="114.2062926">
<ele>10</ele><time>2020-12-28T07:42:50.999Z</time><extensions><gpxtpx:TrackPointExtension><gpxtpx:hr>126</gpxtpx:hr></gpxtpx:TrackPointExtension></extensions></trkpt>
<trkpt lat="22.4316972" lon="114.2062283">
<ele>9</ele><time>2020-12-28T07:42:52.999Z</time><extensions><gpxtpx:TrackPointExtension><gpxtpx:hr>126</gpxtpx:hr></gpxtpx:TrackPointExtension></extensions></trkpt>
<trkpt lat="22.4317269" lon="114.2061853">
<ele>9</ele><time>2020-12-28T07:42:54.999Z</time><extensions><gpxtpx:TrackPointExtension><gpxtpx:hr>126</gpxtpx:hr></gpxtpx:TrackPointExtension></extensions></trkpt>
<trkpt lat="22.4317666" lon="114.2061424">
<ele>9</ele><time>2020-12-28T07:42:56.999Z</time><extensions><gpxtpx:TrackPointExtension><gpxtpx:hr>126</gpxtpx:hr></gpxtpx:TrackPointExtension></extensions></trkpt>
<trkpt lat="22.4318063" lon="114.2060995">
<ele>9</ele><time>2020-12-28T07:42:58.999Z</time><extensions><gpxtpx:TrackPointExtension><gpxtpx:hr>126</gpxtpx:hr></gpxtpx:TrackPointExtension></extensions></trkpt>
<trkpt lat="22.4318360" lon="114.2060566">
<ele>9</ele><time>2020-12-28T07:43:00.999Z</time><extensions><gpxtpx:TrackPointExtension><gpxtpx:hr>126</gpxtpx:hr></gpxtpx:TrackPointExtension></extensions></trkpt>
<trkpt lat="22.4318658" lon="114.2060137">
<ele>9</ele><time>2020-12-28T07:43:02.999Z</time><extensions><gpxtpx:TrackPointExtension><gpxtpx:hr>126</gpxtpx:hr></gpxtpx:TrackPointExtension></extensions></trkpt>
<trkpt lat="22.4318955" lon="114.2059493">
<ele>9</ele><time>2020-12-28T07:43:04.999Z</time><extensions><gpxtpx:TrackPointExtension><gpxtpx:hr>126</gpxtpx:hr></gpxtpx:TrackPointExtension></extensions></trkpt>
<trkpt lat="22.4319352" lon="114.2059064">
<ele>9</ele><time>2020-12-28T07:43:06.999Z</time><extensions><gpxtpx:TrackPointExtension><gpxtpx:hr>126</gpxtpx:hr></gpxtpx:TrackPointExtension></extensions></trkpt>
<trkpt lat="22.4319550" lon="114.2058635">
<ele>9</ele><time>2020-12-28T07:43:07.999Z</time><extensions><gpxtpx:TrackPointExtension><gpxtpx:hr>126</gpxtpx:hr></gpxtpx:TrackPointExtension></extensions></trkpt>
<trkpt lat="22.4319947" lon="114.2058206">
<ele>9</ele><time>2020-12-28T07:43:09.999Z</time><extensions><gpxtpx:TrackPointExtension><gpxtpx:hr>126</gpxtpx:hr></gpxtpx:TrackPointExtension></extensions></trkpt>
<trkpt lat="22.4320443" lon="114.2057562">
<ele>9</ele><time>2020-12-28T07:43:11.999Z</time><extensions><gpxtpx:TrackPointExtension><gpxtpx:hr>126</gpxtpx:hr></gpxtpx:TrackPointExtension></extensions></trkpt>
<trkpt lat="22.4320839" lon="114.2057133">
<ele>9</ele><time>2020-12-28T07:43:13.999Z</time><extensions><gpxtpx:TrackPointExtension><gpxtpx:hr>126</gpxtpx:hr></gpxtpx:TrackPointExtension></extensions></trkpt>
<trkpt lat="22.4321236" lon="114.2056704">
<ele>9</ele><time>2020-12-28T07:43:15.999Z</time><extensions><gpxtpx:TrackPointExtension><gpxtpx:hr>126</gpxtpx:hr></gpxtpx:TrackPointExtension></extensions></trkpt>
<trkpt lat="22.4321534" lon="114.2056274">
<ele>9</ele><time>2020-12-28T07:43:17.999Z</time><extensions><gpxtpx:TrackPointExtension><gpxtpx:hr>126</gpxtpx:hr></gpxtpx:TrackPointExtension></extensions></trkpt>
<trkpt lat="22.4321831" lon="114.2055631">
<ele>9</ele><time>2020-12-28T07:43:19.999Z</time><extensions><gpxtpx:TrackPointExtension><gpxtpx:hr>126</gpxtpx:hr></gpxtpx:TrackPointExtension></extensions></trkpt>
<trkpt lat="22.4322129" lon="114.2055202">
<ele>9</ele><time>2020-12-28T07:43:21.999Z</time><extensions><gpxtpx:TrackPointExtension><gpxtpx:hr>126</gpxtpx:hr></gpxtpx:TrackPointExtension></extensions></trkpt>
<trkpt lat="22.4322426" lon="114.2054772">
<ele>9</ele><time>2020-12-28T07:43:23.999Z</time><extensions><gpxtpx:TrackPointExtension><gpxtpx:hr>123</gpxtpx:hr></gpxtpx:TrackPointExtension></extensions></trkpt>
<trkpt lat="22.4322823" lon="114.2054129">
<ele>9</ele><time>2020-12-28T07:43:26.999Z</time><extensions><gpxtpx:TrackPointExtension><gpxtpx:hr>123</gpxtpx:hr></gpxtpx:TrackPointExtension></extensions></trkpt>
<trkpt lat="22.4323120" lon="114.2053699">
<ele>9</ele><time>2020-12-28T07:43:28.999Z</time><extensions><gpxtpx:TrackPointExtension><gpxtpx:hr>122</gpxtpx:hr></gpxtpx:TrackPointExtension></extensions></trkpt>
<trkpt lat="22.4323418" lon="114.2053270">
<ele>9</ele><time>2020-12-28T07:43:31.999Z</time><extensions><gpxtpx:TrackPointExtension><gpxtpx:hr>122</gpxtpx:hr></gpxtpx:TrackPointExtension></extensions></trkpt>
<trkpt lat="22.4323715" lon="114.2052841">
<ele>9</ele><time>2020-12-28T07:43:51.998Z</time><extensions><gpxtpx:TrackPointExtension><gpxtpx:hr>116</gpxtpx:hr></gpxtpx:TrackPointExtension></extensions></trkpt>
<trkpt lat="22.4324013" lon="114.2052412">
<ele>9</ele><time>2020-12-28T07:43:54.998Z</time><extensions><gpxtpx:TrackPointExtension><gpxtpx:hr>115</gpxtpx:hr></gpxtpx:TrackPointExtension></extensions></trkpt>
<trkpt lat="22.4324310" lon="114.2051983">
<ele>9</ele><time>2020-12-28T07:43:56.998Z</time><extensions><gpxtpx:TrackPointExtension><gpxtpx:hr>115</gpxtpx:hr></gpxtpx:TrackPointExtension></extensions></trkpt>
<trkpt lat="22.4324509" lon="114.2051554">
<ele>9</ele><time>2020-12-28T07:43:58.998Z</time><extensions><gpxtpx:TrackPointExtension><gpxtpx:hr>115</gpxtpx:hr></gpxtpx:TrackPointExtension></extensions></trkpt>
<trkpt lat="22.4324905" lon="114.2051339">
<ele>9</ele><time>2020-12-28T07:44:00.998Z</time><extensions><gpxtpx:TrackPointExtension><gpxtpx:hr>115</gpxtpx:hr></gpxtpx:TrackPointExtension></extensions></trkpt>
<trkpt lat="22.4325203" lon="114.2050695">
<ele>9</ele><time>2020-12-28T07:44:02.998Z</time><extensions><gpxtpx:TrackPointExtension><gpxtpx:hr>115</gpxtpx:hr></gpxtpx:TrackPointExtension></extensions></trkpt>
<trkpt lat="22.4325599" lon="114.2050266">
<ele>9</ele><time>2020-12-28T07:44:04.998Z</time><extensions><gpxtpx:TrackPointExtension><gpxtpx:hr>116</gpxtpx:hr></gpxtpx:TrackPointExtension></extensions></trkpt>
<trkpt lat="22.4325897" lon="114.2049623">
<ele>9</ele><time>2020-12-28T07:44:06.998Z</time><extensions><gpxtpx:TrackPointExtension><gpxtpx:hr>116</gpxtpx:hr></gpxtpx:TrackPointExtension></extensions></trkpt>
<trkpt lat="22.4326195" lon="114.2049193">
<ele>9</ele><time>2020-12-28T07:44:08.998Z</time><extensions><gpxtpx:TrackPointExtension><gpxtpx:hr>116</gpxtpx:hr></gpxtpx:TrackPointExtension></extensions></trkpt>
<trkpt lat="22.4326591" lon="114.2048764">
<ele>9</ele><time>2020-12-28T07:44:10.998Z</time><extensions><gpxtpx:TrackPointExtension><gpxtpx:hr>116</gpxtpx:hr></gpxtpx:TrackPointExtension></extensions></trkpt>
<trkpt lat="22.4326790" lon="114.2048335">
<ele>9</ele><time>2020-12-28T07:44:12.998Z</time><extensions><gpxtpx:TrackPointExtension><gpxtpx:hr>116</gpxtpx:hr></gpxtpx:TrackPointExtension></extensions></trkpt>
<trkpt lat="22.4327186" lon="114.2047906">
<ele>9</ele><time>2020-12-28T07:44:14.998Z</time><extensions><gpxtpx:TrackPointExtension><gpxtpx:hr>117</gpxtpx:hr></gpxtpx:TrackPointExtension></extensions></trkpt>
<trkpt lat="22.4327583" lon="114.2047477">
<ele>9</ele><time>2020-12-28T07:44:16.998Z</time><extensions><gpxtpx:TrackPointExtension><gpxtpx:hr>117</gpxtpx:hr></gpxtpx:TrackPointExtension></extensions></trkpt>
<trkpt lat="22.4328079" lon="114.2046833">
<ele>9</ele><time>2020-12-28T07:44:19.000Z</time><extensions><gpxtpx:TrackPointExtension><gpxtpx:hr>117</gpxtpx:hr></gpxtpx:TrackPointExtension></extensions></trkpt>
<trkpt lat="22.4328475" lon="114.2046189">
<ele>9</ele><time>2020-12-28T07:44:21.000Z</time><extensions><gpxtpx:TrackPointExtension><gpxtpx:hr>114</gpxtpx:hr></gpxtpx:TrackPointExtension></extensions></trkpt>
<trkpt lat="22.4328872" lon="114.2045760">
<ele>9</ele><time>2020-12-28T07:44:23.000Z</time><extensions><gpxtpx:TrackPointExtension><gpxtpx:hr>114</gpxtpx:hr></gpxtpx:TrackPointExtension></extensions></trkpt>
<trkpt lat="22.4329269" lon="114.2045116">
<ele>9</ele><time>2020-12-28T07:44:25.000Z</time><extensions><gpxtpx:TrackPointExtension><gpxtpx:hr>115</gpxtpx:hr></gpxtpx:TrackPointExtension></extensions></trkpt>
<trkpt lat="22.4329665" lon="114.2044687">
<ele>9</ele><time>2020-12-28T07:44:27.000Z</time><extensions><gpxtpx:TrackPointExtension><gpxtpx:hr>115</gpxtpx:hr></gpxtpx:TrackPointExtension></extensions></trkpt>
<trkpt lat="22.4329864" lon="114.2044258">
<ele>9</ele><time>2020-12-28T07:44:28.000Z</time><extensions><gpxtpx:TrackPointExtension><gpxtpx:hr>115</gpxtpx:hr></gpxtpx:TrackPointExtension></extensions></trkpt>
<trkpt lat="22.4330260" lon="114.2043614">
<ele>9</ele><time>2020-12-28T07:44:30.000Z</time><extensions><gpxtpx:TrackPointExtension><gpxtpx:hr>114</gpxtpx:hr></gpxtpx:TrackPointExtension></extensions></trkpt>
<trkpt lat="22.4330756" lon="114.2042971">
<ele>9</ele><time>2020-12-28T07:44:32.000Z</time><extensions><gpxtpx:TrackPointExtension><gpxtpx:hr>114</gpxtpx:hr></gpxtpx:TrackPointExtension></extensions></trkpt>
<trkpt lat="22.4331054" lon="114.2042542">
<ele>9</ele><time>2020-12-28T07:44:34.000Z</time><extensions><gpxtpx:TrackPointExtension><gpxtpx:hr>114</gpxtpx:hr></gpxtpx:TrackPointExtension></extensions></trkpt>
<trkpt lat="22.4331451" lon="114.2041898">
<ele>9</ele><time>2020-12-28T07:44:36.000Z</time><extensions><gpxtpx:TrackPointExtension><gpxtpx:hr>114</gpxtpx:hr></gpxtpx:TrackPointExtension></extensions></trkpt>
<trkpt lat="22.4331847" lon="114.2041469">
<ele>9</ele><time>2020-12-28T07:44:38.000Z</time><extensions><gpxtpx:TrackPointExtension><gpxtpx:hr>114</gpxtpx:hr></gpxtpx:TrackPointExtension></extensions></trkpt>
<trkpt lat="22.4332145" lon="114.2041039">
<ele>9</ele><time>2020-12-28T07:44:39.000Z</time><extensions><gpxtpx:TrackPointExtension><gpxtpx:hr>115</gpxtpx:hr></gpxtpx:TrackPointExtension></extensions></trkpt>
<trkpt lat="22.4332541" lon="114.2040610">
<ele>9</ele><time>2020-12-28T07:44:41.000Z</time><extensions><gpxtpx:TrackPointExtension><gpxtpx:hr>115</gpxtpx:hr></gpxtpx:TrackPointExtension></extensions></trkpt>
<trkpt lat="22.4332740" lon="114.2040181">
<ele>9</ele><time>2020-12-28T07:44:42.000Z</time><extensions><gpxtpx:TrackPointExtension><gpxtpx:hr>115</gpxtpx:hr></gpxtpx:TrackPointExtension></extensions></trkpt>
<trkpt lat="22.4333136" lon="114.2039752">
<ele>9</ele><time>2020-12-28T07:44:43.999Z</time><extensions><gpxtpx:TrackPointExtension><gpxtpx:hr>115</gpxtpx:hr></gpxtpx:TrackPointExtension></extensions></trkpt>
<trkpt lat="22.4333533" lon="114.2039108">
<ele>9</ele><time>2020-12-28T07:44:45.999Z</time><extensions><gpxtpx:TrackPointExtension><gpxtpx:hr>115</gpxtpx:hr></gpxtpx:TrackPointExtension></extensions></trkpt>
<trkpt lat="22.4333930" lon="114.2038679">
<ele>9</ele><time>2020-12-28T07:44:47.999Z</time><extensions><gpxtpx:TrackPointExtension><gpxtpx:hr>115</gpxtpx:hr></gpxtpx:TrackPointExtension></extensions></trkpt>
<trkpt lat="22.4334227" lon="114.2038250">
<ele>9</ele><time>2020-12-28T07:44:49.999Z</time><extensions><gpxtpx:TrackPointExtension><gpxtpx:hr>115</gpxtpx:hr></gpxtpx:TrackPointExtension></extensions></trkpt>
<trkpt lat="22.4334624" lon="114.2037821">
<ele>9</ele><time>2020-12-28T07:44:51.999Z</time><extensions><gpxtpx:TrackPointExtension><gpxtpx:hr>115</gpxtpx:hr></gpxtpx:TrackPointExtension></extensions></trkpt>
<trkpt lat="22.4334822" lon="114.2037392">
<ele>9</ele><time>2020-12-28T07:44:53.999Z</time><extensions><gpxtpx:TrackPointExtension><gpxtpx:hr>115</gpxtpx:hr></gpxtpx:TrackPointExtension></extensions></trkpt>
<trkpt lat="22.4335120" lon="114.2036963">
<ele>9</ele><time>2020-12-28T07:44:55.999Z</time><extensions><gpxtpx:TrackPointExtension><gpxtpx:hr>115</gpxtpx:hr></gpxtpx:TrackPointExtension></extensions></trkpt>
<trkpt lat="22.4335318" lon="114.2036533">
<ele>9</ele><time>2020-12-28T07:44:57.999Z</time><extensions><gpxtpx:TrackPointExtension><gpxtpx:hr>115</gpxtpx:hr></gpxtpx:TrackPointExtension></extensions></trkpt>
<trkpt lat="22.4335616" lon="114.2036104">
<ele>9</ele><time>2020-12-28T07:44:59.999Z</time><extensions><gpxtpx:TrackPointExtension><gpxtpx:hr>116</gpxtpx:hr></gpxtpx:TrackPointExtension></extensions></trkpt>
<trkpt lat="22.4335913" lon="114.2035675">
<ele>9</ele><time>2020-12-28T07:45:01.999Z</time><extensions><gpxtpx:TrackPointExtension><gpxtpx:hr>116</gpxtpx:hr></gpxtpx:TrackPointExtension></extensions></trkpt>
<trkpt lat="22.4336310" lon="114.2035246">
<ele>9</ele><time>2020-12-28T07:45:03.999Z</time><extensions><gpxtpx:TrackPointExtension><gpxtpx:hr>116</gpxtpx:hr></gpxtpx:TrackPointExtension></extensions></trkpt>
<trkpt lat="22.4336607" lon="114.2034602">
<ele>9</ele><time>2020-12-28T07:45:05.999Z</time><extensions><gpxtpx:TrackPointExtension><gpxtpx:hr>116</gpxtpx:hr></gpxtpx:TrackPointExtension></extensions></trkpt>
<trkpt lat="22.4337004" lon="114.2034388">
<ele>9</ele><time>2020-12-28T07:45:07.999Z</time><extensions><gpxtpx:TrackPointExtension><gpxtpx:hr>116</gpxtpx:hr></gpxtpx:TrackPointExtension></extensions></trkpt>
<trkpt lat="22.4337301" lon="114.2033744">
<ele>9</ele><time>2020-12-28T07:45:09.999Z</time><extensions><gpxtpx:TrackPointExtension><gpxtpx:hr>116</gpxtpx:hr></gpxtpx:TrackPointExtension></extensions></trkpt>
<trkpt lat="22.4337599" lon="114.2033315">
<ele>9</ele><time>2020-12-28T07:45:11.999Z</time><extensions><gpxtpx:TrackPointExtension><gpxtpx:hr>116</gpxtpx:hr></gpxtpx:TrackPointExtension></extensions></trkpt>
<trkpt lat="22.4338095" lon="114.2032671">
<ele>9</ele><time>2020-12-28T07:45:13.999Z</time><extensions><gpxtpx:TrackPointExtension><gpxtpx:hr>114</gpxtpx:hr></gpxtpx:TrackPointExtension></extensions></trkpt>
<trkpt lat="22.4338392" lon="114.2032242">
<ele>9</ele><time>2020-12-28T07:45:15.999Z</time><extensions><gpxtpx:TrackPointExtension><gpxtpx:hr>114</gpxtpx:hr></gpxtpx:TrackPointExtension></extensions></trkpt>
<trkpt lat="22.4338690" lon="114.2031813">
<ele>9</ele><time>2020-12-28T07:45:17.999Z</time><extensions><gpxtpx:TrackPointExtension><gpxtpx:hr>114</gpxtpx:hr></gpxtpx:TrackPointExtension></extensions></trkpt>
<trkpt lat="22.4339087" lon="114.2031384">
<ele>9</ele><time>2020-12-28T07:45:19.999Z</time><extensions><gpxtpx:TrackPointExtension><gpxtpx:hr>114</gpxtpx:hr></gpxtpx:TrackPointExtension></extensions></trkpt>
<trkpt lat="22.4339285" lon="114.2030954">
<ele>9</ele><time>2020-12-28T07:45:21.999Z</time><extensions><gpxtpx:TrackPointExtension><gpxtpx:hr>114</gpxtpx:hr></gpxtpx:TrackPointExtension></extensions></trkpt>
<trkpt lat="22.4339483" lon="114.2030525">
<ele>9</ele><time>2020-12-28T07:45:23.999Z</time><extensions><gpxtpx:TrackPointExtension><gpxtpx:hr>114</gpxtpx:hr></gpxtpx:TrackPointExtension></extensions></trkpt>
<trkpt lat="22.4339880" lon="114.2030096">
<ele>9</ele><time>2020-12-28T07:45:25.999Z</time><extensions><gpxtpx:TrackPointExtension><gpxtpx:hr>114</gpxtpx:hr></gpxtpx:TrackPointExtension></extensions></trkpt>
<trkpt lat="22.4340078" lon="114.2029667">
<ele>9</ele><time>2020-12-28T07:45:26.999Z</time><extensions><gpxtpx:TrackPointExtension><gpxtpx:hr>114</gpxtpx:hr></gpxtpx:TrackPointExtension></extensions></trkpt>
<trkpt lat="22.4340376" lon="114.2029238">
<ele>9</ele><time>2020-12-28T07:45:28.999Z</time><extensions><gpxtpx:TrackPointExtension><gpxtpx:hr>116</gpxtpx:hr></gpxtpx:TrackPointExtension></extensions></trkpt>
<trkpt lat="22.4340772" lon="114.2028809">
<ele>9</ele><time>2020-12-28T07:45:30.999Z</time><extensions><gpxtpx:TrackPointExtension><gpxtpx:hr>116</gpxtpx:hr></gpxtpx:TrackPointExtension></extensions></trkpt>
<trkpt lat="22.4341070" lon="114.2028379">
<ele>9</ele><time>2020-12-28T07:45:32.999Z</time><extensions><gpxtpx:TrackPointExtension><gpxtpx:hr>116</gpxtpx:hr></gpxtpx:TrackPointExtension></extensions></trkpt>
<trkpt lat="22.4341367" lon="114.2027950">
<ele>9</ele><time>2020-12-28T07:45:34.999Z</time><extensions><gpxtpx:TrackPointExtension><gpxtpx:hr>115</gpxtpx:hr></gpxtpx:TrackPointExtension></extensions></trkpt>
<trkpt lat="22.4341764" lon="114.2027307">
<ele>9</ele><time>2020-12-28T07:45:36.999Z</time><extensions><gpxtpx:TrackPointExtension><gpxtpx:hr>115</gpxtpx:hr></gpxtpx:TrackPointExtension></extensions></trkpt>
<trkpt lat="22.4342161" lon="114.2026877">
<ele>9</ele><time>2020-12-28T07:45:38.999Z</time><extensions><gpxtpx:TrackPointExtension><gpxtpx:hr>115</gpxtpx:hr></gpxtpx:TrackPointExtension></extensions></trkpt>
<trkpt lat="22.4342458" lon="114.2026448">
<ele>9</ele><time>2020-12-28T07:45:40.999Z</time><extensions><gpxtpx:TrackPointExtension><gpxtpx:hr>115</gpxtpx:hr></gpxtpx:TrackPointExtension></extensions></trkpt>
<trkpt lat="22.4342756" lon="114.2025805">
<ele>9</ele><time>2020-12-28T07:45:42.999Z</time><extensions><gpxtpx:TrackPointExtension><gpxtpx:hr>115</gpxtpx:hr></gpxtpx:TrackPointExtension></extensions></trkpt>
<trkpt lat="22.4343152" lon="114.2025375">
<ele>9</ele><time>2020-12-28T07:45:44.999Z</time><extensions><gpxtpx:TrackPointExtension><gpxtpx:hr>115</gpxtpx:hr></gpxtpx:TrackPointExtension></extensions></trkpt>
<trkpt lat="22.4343450" lon="114.2024946">
<ele>9</ele><time>2020-12-28T07:45:46.999Z</time><extensions><gpxtpx:TrackPointExtension><gpxtpx:hr>115</gpxtpx:hr></gpxtpx:TrackPointExtension></extensions></trkpt>
<trkpt lat="22.4343747" lon="114.2024302">
<ele>9</ele><time>2020-12-28T07:45:49.999Z</time><extensions><gpxtpx:TrackPointExtension><gpxtpx:hr>117</gpxtpx:hr></gpxtpx:TrackPointExtension></extensions></trkpt>
<trkpt lat="22.4344144" lon="114.2023873">
<ele>9</ele><time>2020-12-28T07:45:51.999Z</time><extensions><gpxtpx:TrackPointExtension><gpxtpx:hr>117</gpxtpx:hr></gpxtpx:TrackPointExtension></extensions></trkpt>
<trkpt lat="22.4344541" lon="114.2023444">
<ele>9</ele><time>2020-12-28T07:45:53.998Z</time><extensions><gpxtpx:TrackPointExtension><gpxtpx:hr>117</gpxtpx:hr></gpxtpx:TrackPointExtension></extensions></trkpt>
<trkpt lat="22.4344838" lon="114.2023015">
<ele>9</ele><time>2020-12-28T07:45:55.998Z</time><extensions><gpxtpx:TrackPointExtension><gpxtpx:hr>117</gpxtpx:hr></gpxtpx:TrackPointExtension></extensions></trkpt>
<trkpt lat="22.4345037" lon="114.2022586">
<ele>9</ele><time>2020-12-28T07:45:56.998Z</time><extensions><gpxtpx:TrackPointExtension><gpxtpx:hr>117</gpxtpx:hr></gpxtpx:TrackPointExtension></extensions></trkpt>
<trkpt lat="22.4345334" lon="114.2022157">
<ele>9</ele><time>2020-12-28T07:45:58.998Z</time><extensions><gpxtpx:TrackPointExtension><gpxtpx:hr>117</gpxtpx:hr></gpxtpx:TrackPointExtension></extensions></trkpt>
<trkpt lat="22.4345731" lon="114.2021728">
<ele>9</ele><time>2020-12-28T07:46:01.998Z</time><extensions><gpxtpx:TrackPointExtension><gpxtpx:hr>117</gpxtpx:hr></gpxtpx:TrackPointExtension></extensions></trkpt>
<trkpt lat="22.4346127" lon="114.2021084">
<ele>9</ele><time>2020-12-28T07:46:04.998Z</time><extensions><gpxtpx:TrackPointExtension><gpxtpx:hr>118</gpxtpx:hr></gpxtpx:TrackPointExtension></extensions></trkpt>
<trkpt lat="22.4346425" lon="114.2020655">
<ele>9</ele><time>2020-12-28T07:46:06.998Z</time><extensions><gpxtpx:TrackPointExtension><gpxtpx:hr>118</gpxtpx:hr></gpxtpx:TrackPointExtension></extensions></trkpt>
<trkpt lat="22.4346723" lon="114.2020226">
<ele>9</ele><time>2020-12-28T07:46:08.998Z</time><extensions><gpxtpx:TrackPointExtension><gpxtpx:hr>119</gpxtpx:hr></gpxtpx:TrackPointExtension></extensions></trkpt>
<trkpt lat="22.4347020" lon="114.2019796">
<ele>9</ele><time>2020-12-28T07:46:10.998Z</time><extensions><gpxtpx:TrackPointExtension><gpxtpx:hr>119</gpxtpx:hr></gpxtpx:TrackPointExtension></extensions></trkpt>
<trkpt lat="22.4347417" lon="114.2019367">
<ele>9</ele><time>2020-12-28T07:46:13.998Z</time><extensions><gpxtpx:TrackPointExtension><gpxtpx:hr>120</gpxtpx:hr></gpxtpx:TrackPointExtension></extensions></trkpt>
<trkpt lat="22.4347913" lon="114.2019153">
<ele>9</ele><time>2020-12-28T07:46:15.998Z</time><extensions><gpxtpx:TrackPointExtension><gpxtpx:hr>120</gpxtpx:hr></gpxtpx:TrackPointExtension></extensions></trkpt>
<trkpt lat="22.4348309" lon="114.2018723">
<ele>9</ele><time>2020-12-28T07:46:17.998Z</time><extensions><gpxtpx:TrackPointExtension><gpxtpx:hr>120</gpxtpx:hr></gpxtpx:TrackPointExtension></extensions></trkpt>
<trkpt lat="22.4348904" lon="114.2018509">
<ele>9</ele><time>2020-12-28T07:46:20.998Z</time><extensions><gpxtpx:TrackPointExtension><gpxtpx:hr>120</gpxtpx:hr></gpxtpx:TrackPointExtension></extensions></trkpt>
<trkpt lat="22.4349301" lon="114.2018080">
<ele>9</ele><time>2020-12-28T07:46:22.998Z</time><extensions><gpxtpx:TrackPointExtension><gpxtpx:hr>120</gpxtpx:hr></gpxtpx:TrackPointExtension></extensions></trkpt>
<trkpt lat="22.4349598" lon="114.2017651">
<ele>10</ele><time>2020-12-28T07:46:25.000Z</time><extensions><gpxtpx:TrackPointExtension><gpxtpx:hr>120</gpxtpx:hr></gpxtpx:TrackPointExtension></extensions></trkpt>
<trkpt lat="22.4349995" lon="114.2017221">
<ele>10</ele><time>2020-12-28T07:46:27.000Z</time><extensions><gpxtpx:TrackPointExtension><gpxtpx:hr>120</gpxtpx:hr></gpxtpx:TrackPointExtension></extensions></trkpt>
<trkpt lat="22.4350193" lon="114.2016792">
<ele>9</ele><time>2020-12-28T07:46:29.000Z</time><extensions><gpxtpx:TrackPointExtension><gpxtpx:hr>120</gpxtpx:hr></gpxtpx:TrackPointExtension></extensions></trkpt>
<trkpt lat="22.4350590" lon="114.2016363">
<ele>9</ele><time>2020-12-28T07:46:31.000Z</time><extensions><gpxtpx:TrackPointExtension><gpxtpx:hr>120</gpxtpx:hr></gpxtpx:TrackPointExtension></extensions></trkpt>
<trkpt lat="22.4350987" lon="114.2015934">
<ele>9</ele><time>2020-12-28T07:46:33.000Z</time><extensions><gpxtpx:TrackPointExtension><gpxtpx:hr>120</gpxtpx:hr></gpxtpx:TrackPointExtension></extensions></trkpt>
<trkpt lat="22.4351383" lon="114.2015505">
<ele>9</ele><time>2020-12-28T07:46:35.000Z</time><extensions><gpxtpx:TrackPointExtension><gpxtpx:hr>120</gpxtpx:hr></gpxtpx:TrackPointExtension></extensions></trkpt>
<trkpt lat="22.4351582" lon="114.2015076">
<ele>9</ele><time>2020-12-28T07:46:36.000Z</time><extensions><gpxtpx:TrackPointExtension><gpxtpx:hr>120</gpxtpx:hr></gpxtpx:TrackPointExtension></extensions></trkpt>
<trkpt lat="22.4352078" lon="114.2014647">
<ele>9</ele><time>2020-12-28T07:46:38.000Z</time><extensions><gpxtpx:TrackPointExtension><gpxtpx:hr>120</gpxtpx:hr></gpxtpx:TrackPointExtension></extensions></trkpt>
<trkpt lat="22.4352573" lon="114.2013788">
<ele>9</ele><time>2020-12-28T07:46:40.000Z</time><extensions><gpxtpx:TrackPointExtension><gpxtpx:hr>119</gpxtpx:hr></gpxtpx:TrackPointExtension></extensions></trkpt>
<trkpt lat="22.4353069" lon="114.2013144">
<ele>9</ele><time>2020-12-28T07:46:42.000Z</time><extensions><gpxtpx:TrackPointExtension><gpxtpx:hr>119</gpxtpx:hr></gpxtpx:TrackPointExtension></extensions></trkpt>
<trkpt lat="22.4353565" lon="114.2012715">
<ele>9</ele><time>2020-12-28T07:46:44.000Z</time><extensions><gpxtpx:TrackPointExtension><gpxtpx:hr>117</gpxtpx:hr></gpxtpx:TrackPointExtension></extensions></trkpt>
<trkpt lat="22.4354061" lon="114.2012072">
<ele>9</ele><time>2020-12-28T07:46:46.000Z</time><extensions><gpxtpx:TrackPointExtension><gpxtpx:hr>117</gpxtpx:hr></gpxtpx:TrackPointExtension></extensions></trkpt>
<trkpt lat="22.4354259" lon="114.2011428">
<ele>9</ele><time>2020-12-28T07:46:47.999Z</time><extensions><gpxtpx:TrackPointExtension><gpxtpx:hr>117</gpxtpx:hr></gpxtpx:TrackPointExtension></extensions></trkpt>
<trkpt lat="22.4354656" lon="114.2010784">
<ele>9</ele><time>2020-12-28T07:46:49.999Z</time><extensions><gpxtpx:TrackPointExtension><gpxtpx:hr>117</gpxtpx:hr></gpxtpx:TrackPointExtension></extensions></trkpt>
<trkpt lat="22.4354953" lon="114.2010355">
<ele>9</ele><time>2020-12-28T07:46:51.999Z</time><extensions><gpxtpx:TrackPointExtension><gpxtpx:hr>117</gpxtpx:hr></gpxtpx:TrackPointExtension></extensions></trkpt>
<trkpt lat="22.4355152" lon="114.2009926">
<ele>9</ele><time>2020-12-28T07:46:52.999Z</time><extensions><gpxtpx:TrackPointExtension><gpxtpx:hr>117</gpxtpx:hr></gpxtpx:TrackPointExtension></extensions></trkpt>
<trkpt lat="22.4355449" lon="114.2009282">
<ele>9</ele><time>2020-12-28T07:46:54.999Z</time><extensions><gpxtpx:TrackPointExtension><gpxtpx:hr>116</gpxtpx:hr></gpxtpx:TrackPointExtension></extensions></trkpt>
<trkpt lat="22.4355648" lon="114.2008638">
<ele>9</ele><time>2020-12-28T07:46:56.999Z</time><extensions><gpxtpx:TrackPointExtension><gpxtpx:hr>116</gpxtpx:hr></gpxtpx:TrackPointExtension></extensions></trkpt>
<trkpt lat="22.4355846" lon="114.2008209">
<ele>9</ele><time>2020-12-28T07:46:57.999Z</time><extensions><gpxtpx:TrackPointExtension><gpxtpx:hr>116</gpxtpx:hr></gpxtpx:TrackPointExtension></extensions></trkpt>
<trkpt lat="22.4356143" lon="114.2007780">
<ele>9</ele><time>2020-12-28T07:46:59.999Z</time><extensions><gpxtpx:TrackPointExtension><gpxtpx:hr>117</gpxtpx:hr></gpxtpx:TrackPointExtension></extensions></trkpt>
<trkpt lat="22.4356441" lon="114.2007136">
<ele>9</ele><time>2020-12-28T07:47:01.999Z</time><extensions><gpxtpx:TrackPointExtension><gpxtpx:hr>117</gpxtpx:hr></gpxtpx:TrackPointExtension></extensions></trkpt>
<trkpt lat="22.4356738" lon="114.2006707">
<ele>9</ele><time>2020-12-28T07:47:03.999Z</time><extensions><gpxtpx:TrackPointExtension><gpxtpx:hr>116</gpxtpx:hr></gpxtpx:TrackPointExtension></extensions></trkpt>
<trkpt lat="22.4356937" lon="114.2006063">
<ele>9</ele><time>2020-12-28T07:47:05.999Z</time><extensions><gpxtpx:TrackPointExtension><gpxtpx:hr>116</gpxtpx:hr></gpxtpx:TrackPointExtension></extensions></trkpt>
<trkpt lat="22.4357234" lon="114.2005420">
<ele>9</ele><time>2020-12-28T07:47:07.999Z</time><extensions><gpxtpx:TrackPointExtension><gpxtpx:hr>116</gpxtpx:hr></gpxtpx:TrackPointExtension></extensions></trkpt>
<trkpt lat="22.4357532" lon="114.2004991">
<ele>9</ele><time>2020-12-28T07:47:09.999Z</time><extensions><gpxtpx:TrackPointExtension><gpxtpx:hr>115</gpxtpx:hr></gpxtpx:TrackPointExtension></extensions></trkpt>
<trkpt lat="22.4357730" lon="114.2004347">
<ele>9</ele><time>2020-12-28T07:47:11.999Z</time><extensions><gpxtpx:TrackPointExtension><gpxtpx:hr>115</gpxtpx:hr></gpxtpx:TrackPointExtension></extensions></trkpt>
<trkpt lat="22.4358028" lon="114.2003703">
<ele>9</ele><time>2020-12-28T07:47:14.999Z</time><extensions><gpxtpx:TrackPointExtension><gpxtpx:hr>116</gpxtpx:hr></gpxtpx:TrackPointExtension></extensions></trkpt>
<trkpt lat="22.4358226" lon="114.2003059">
<ele>9</ele><time>2020-12-28T07:47:16.999Z</time><extensions><gpxtpx:TrackPointExtension><gpxtpx:hr>116</gpxtpx:hr></gpxtpx:TrackPointExtension></extensions></trkpt>
<trkpt lat="22.4358623" lon="114.2002201">
<ele>9</ele><time>2020-12-28T07:47:19.999Z</time><extensions><gpxtpx:TrackPointExtension><gpxtpx:hr>119</gpxtpx:hr></gpxtpx:TrackPointExtension></extensions></trkpt>
<trkpt lat="22.4358920" lon="114.2001557">
<ele>9</ele><time>2020-12-28T07:47:22.999Z</time><extensions><gpxtpx:TrackPointExtension><gpxtpx:hr>119</gpxtpx:hr></gpxtpx:TrackPointExtension></extensions></trkpt>
<trkpt lat="22.4359118" lon="114.2000914">
<ele>9</ele><time>2020-12-28T07:47:25.999Z</time><extensions><gpxtpx:TrackPointExtension><gpxtpx:hr>119</gpxtpx:hr></gpxtpx:TrackPointExtension></extensions></trkpt>
<trkpt lat="22.4359317" lon="114.2000270">
<ele>9</ele><time>2020-12-28T07:47:27.999Z</time><extensions><gpxtpx:TrackPointExtension><gpxtpx:hr>119</gpxtpx:hr></gpxtpx:TrackPointExtension></extensions></trkpt>
<trkpt lat="22.4359515" lon="114.1999626">
<ele>9</ele><time>2020-12-28T07:47:30.999Z</time><extensions><gpxtpx:TrackPointExtension><gpxtpx:hr>117</gpxtpx:hr></gpxtpx:TrackPointExtension></extensions></trkpt>
<trkpt lat="22.4359614" lon="114.1998982">
<ele>9</ele><time>2020-12-28T07:47:32.999Z</time><extensions><gpxtpx:TrackPointExtension><gpxtpx:hr>117</gpxtpx:hr></gpxtpx:TrackPointExtension></extensions></trkpt>
<trkpt lat="22.4359813" lon="114.1998339">
<ele>9</ele><time>2020-12-28T07:47:34.999Z</time><extensions><gpxtpx:TrackPointExtension><gpxtpx:hr>116</gpxtpx:hr></gpxtpx:TrackPointExtension></extensions></trkpt>
<trkpt lat="22.4360011" lon="114.1997695">
<ele>9</ele><time>2020-12-28T07:47:37.999Z</time><extensions><gpxtpx:TrackPointExtension><gpxtpx:hr>116</gpxtpx:hr></gpxtpx:TrackPointExtension></extensions></trkpt>
<trkpt lat="22.4360110" lon="114.1997051">
<ele>9</ele><time>2020-12-28T07:47:39.999Z</time><extensions><gpxtpx:TrackPointExtension><gpxtpx:hr>115</gpxtpx:hr></gpxtpx:TrackPointExtension></extensions></trkpt>
<trkpt lat="22.4360308" lon="114.1996622">
<ele>9</ele><time>2020-12-28T07:47:41.999Z</time><extensions><gpxtpx:TrackPointExtension><gpxtpx:hr>115</gpxtpx:hr></gpxtpx:TrackPointExtension></extensions></trkpt>
<trkpt lat="22.4360507" lon="114.1996193">
<ele>9</ele><time>2020-12-28T07:47:43.999Z</time><extensions><gpxtpx:TrackPointExtension><gpxtpx:hr>114</gpxtpx:hr></gpxtpx:TrackPointExtension></extensions></trkpt>
<trkpt lat="22.4360903" lon="114.1995549">
<ele>9</ele><time>2020-12-28T07:47:46.999Z</time><extensions><gpxtpx:TrackPointExtension><gpxtpx:hr>114</gpxtpx:hr></gpxtpx:TrackPointExtension></extensions></trkpt>
<trkpt lat="22.4361201" lon="114.1995120">
<ele>9</ele><time>2020-12-28T07:47:48.999Z</time><extensions><gpxtpx:TrackPointExtension><gpxtpx:hr>115</gpxtpx:hr></gpxtpx:TrackPointExtension></extensions></trkpt>
<trkpt lat="22.4361598" lon="114.1994691">
<ele>9</ele><time>2020-12-28T07:47:50.999Z</time><extensions><gpxtpx:TrackPointExtension><gpxtpx:hr>115</gpxtpx:hr></gpxtpx:TrackPointExtension></extensions></trkpt>
<trkpt lat="22.4361994" lon="114.1994476">
<ele>9</ele><time>2020-12-28T07:47:52.999Z</time><extensions><gpxtpx:TrackPointExtension><gpxtpx:hr>115</gpxtpx:hr></gpxtpx:TrackPointExtension></extensions></trkpt>
<trkpt lat="22.4362490" lon="114.1994047">
<ele>9</ele><time>2020-12-28T07:48:11.998Z</time><extensions><gpxtpx:TrackPointExtension><gpxtpx:hr>114</gpxtpx:hr></gpxtpx:TrackPointExtension></extensions></trkpt>
<trkpt lat="22.4362986" lon="114.1993618">
<ele>9</ele><time>2020-12-28T07:48:15.998Z</time><extensions><gpxtpx:TrackPointExtension><gpxtpx:hr>114</gpxtpx:hr></gpxtpx:TrackPointExtension></extensions></trkpt>
<trkpt lat="22.4363581" lon="114.1993189">
<ele>9</ele><time>2020-12-28T07:48:18.998Z</time><extensions><gpxtpx:TrackPointExtension><gpxtpx:hr>112</gpxtpx:hr></gpxtpx:TrackPointExtension></extensions></trkpt>
<trkpt lat="22.4363978" lon="114.1992760">
<ele>9</ele><time>2020-12-28T07:48:20.998Z</time><extensions><gpxtpx:TrackPointExtension><gpxtpx:hr>112</gpxtpx:hr></gpxtpx:TrackPointExtension></extensions></trkpt>
<trkpt lat="22.4364573" lon="114.1992331">
<ele>9</ele><time>2020-12-28T07:48:22.998Z</time><extensions><gpxtpx:TrackPointExtension><gpxtpx:hr>112</gpxtpx:hr></gpxtpx:TrackPointExtension></extensions></trkpt>
<trkpt lat="22.4365069" lon="114.1991901">
<ele>9</ele><time>2020-12-28T07:48:24.998Z</time><extensions><gpxtpx:TrackPointExtension><gpxtpx:hr>114</gpxtpx:hr></gpxtpx:TrackPointExtension></extensions></trkpt>
<trkpt lat="22.4365465" lon="114.1991258">
<ele>9</ele><time>2020-12-28T07:48:26.998Z</time><extensions><gpxtpx:TrackPointExtension><gpxtpx:hr>114</gpxtpx:hr></gpxtpx:TrackPointExtension></extensions></trkpt>
<trkpt lat="22.4365961" lon="114.1990829">
<ele>9</ele><time>2020-12-28T07:48:28.998Z</time><extensions><gpxtpx:TrackPointExtension><gpxtpx:hr>114</gpxtpx:hr></gpxtpx:TrackPointExtension></extensions></trkpt>
<trkpt lat="22.4366358" lon="114.1990614">
<ele>9</ele><time>2020-12-28T07:48:31.000Z</time><extensions><gpxtpx:TrackPointExtension><gpxtpx:hr>114</gpxtpx:hr></gpxtpx:TrackPointExtension></extensions></trkpt>
<trkpt lat="22.4366754" lon="114.1989970">
<ele>9</ele><time>2020-12-28T07:48:33.000Z</time><extensions><gpxtpx:TrackPointExtension><gpxtpx:hr>114</gpxtpx:hr></gpxtpx:TrackPointExtension></extensions></trkpt>
<trkpt lat="22.4367250" lon="114.1989541">
<ele>9</ele><time>2020-12-28T07:48:35.000Z</time><extensions><gpxtpx:TrackPointExtension><gpxtpx:hr>114</gpxtpx:hr></gpxtpx:TrackPointExtension></extensions></trkpt>
<trkpt lat="22.4367647" lon="114.1989112">
<ele>9</ele><time>2020-12-28T07:48:37.000Z</time><extensions><gpxtpx:TrackPointExtension><gpxtpx:hr>114</gpxtpx:hr></gpxtpx:TrackPointExtension></extensions></trkpt>
<trkpt lat="22.4368044" lon="114.1988683">
<ele>9</ele><time>2020-12-28T07:48:39.000Z</time><extensions><gpxtpx:TrackPointExtension><gpxtpx:hr>113</gpxtpx:hr></gpxtpx:TrackPointExtension></extensions></trkpt>
<trkpt lat="22.4368440" lon="114.1988039">
<ele>9</ele><time>2020-12-28T07:48:41.000Z</time><extensions><gpxtpx:TrackPointExtension><gpxtpx:hr>113</gpxtpx:hr></gpxtpx:TrackPointExtension></extensions></trkpt>
<trkpt lat="22.4368837" lon="114.1987395">
<ele>9</ele><time>2020-12-28T07:48:43.000Z</time><extensions><gpxtpx:TrackPointExtension><gpxtpx:hr>113</gpxtpx:hr></gpxtpx:TrackPointExtension></extensions></trkpt>
<trkpt lat="22.4369234" lon="114.1986966">
<ele>9</ele><time>2020-12-28T07:48:45.000Z</time><extensions><gpxtpx:TrackPointExtension><gpxtpx:hr>113</gpxtpx:hr></gpxtpx:TrackPointExtension></extensions></trkpt>
<trkpt lat="22.4369531" lon="114.1986537">
<ele>9</ele><time>2020-12-28T07:48:46.000Z</time><extensions><gpxtpx:TrackPointExtension><gpxtpx:hr>113</gpxtpx:hr></gpxtpx:TrackPointExtension></extensions></trkpt>
<trkpt lat="22.4369928" lon="114.1985893">
<ele>9</ele><time>2020-12-28T07:48:48.000Z</time><extensions><gpxtpx:TrackPointExtension><gpxtpx:hr>113</gpxtpx:hr></gpxtpx:TrackPointExtension></extensions></trkpt>
<trkpt lat="22.4370225" lon="114.1985464">
<ele>10</ele><time>2020-12-28T07:48:49.000Z</time><extensions><gpxtpx:TrackPointExtension><gpxtpx:hr>112</gpxtpx:hr></gpxtpx:TrackPointExtension></extensions></trkpt>
<trkpt lat="22.4370622" lon="114.1985035">
<ele>10</ele><time>2020-12-28T07:48:50.999Z</time><extensions><gpxtpx:TrackPointExtension><gpxtpx:hr>112</gpxtpx:hr></gpxtpx:TrackPointExtension></extensions></trkpt>
<trkpt lat="22.4370919" lon="114.1984606">
<ele>10</ele><time>2020-12-28T07:48:51.999Z</time><extensions><gpxtpx:TrackPointExtension><gpxtpx:hr>112</gpxtpx:hr></gpxtpx:TrackPointExtension></extensions></trkpt>
<trkpt lat="22.4371118" lon="114.1984177">
<ele>10</ele><time>2020-12-28T07:48:52.999Z</time><extensions><gpxtpx:TrackPointExtension><gpxtpx:hr>112</gpxtpx:hr></gpxtpx:TrackPointExtension></extensions></trkpt>
<trkpt lat="22.4371514" lon="114.1983747">
<ele>9</ele><time>2020-12-28T07:48:54.999Z</time><extensions><gpxtpx:TrackPointExtension><gpxtpx:hr>112</gpxtpx:hr></gpxtpx:TrackPointExtension></extensions></trkpt>
<trkpt lat="22.4371812" lon="114.1983318">
<ele>9</ele><time>2020-12-28T07:48:55.999Z</time><extensions><gpxtpx:TrackPointExtension><gpxtpx:hr>112</gpxtpx:hr></gpxtpx:TrackPointExtension></extensions></trkpt>
<trkpt lat="22.4372308" lon="114.1982889">
<ele>9</ele><time>2020-12-28T07:48:57.999Z</time><extensions><gpxtpx:TrackPointExtension><gpxtpx:hr>112</gpxtpx:hr></gpxtpx:TrackPointExtension></extensions></trkpt>
<trkpt lat="22.4372605" lon="114.1982245">
<ele>9</ele><time>2020-12-28T07:48:59.999Z</time><extensions><gpxtpx:TrackPointExtension><gpxtpx:hr>113</gpxtpx:hr></gpxtpx:TrackPointExtension></extensions></trkpt>
<trkpt lat="22.4372903" lon="114.1981816">
<ele>9</ele><time>2020-12-28T07:49:01.999Z</time><extensions><gpxtpx:TrackPointExtension><gpxtpx:hr>113</gpxtpx:hr></gpxtpx:TrackPointExtension></extensions></trkpt>
<trkpt lat="22.4373299" lon="114.1981387">
<ele>9</ele><time>2020-12-28T07:49:03.999Z</time><extensions><gpxtpx:TrackPointExtension><gpxtpx:hr>113</gpxtpx:hr></gpxtpx:TrackPointExtension></extensions></trkpt>
<trkpt lat="22.4373894" lon="114.1980958">
<ele>9</ele><time>2020-12-28T07:49:05.999Z</time><extensions><gpxtpx:TrackPointExtension><gpxtpx:hr>113</gpxtpx:hr></gpxtpx:TrackPointExtension></extensions></trkpt>
<trkpt lat="22.4374093" lon="114.1980529">
<ele>9</ele><time>2020-12-28T07:49:06.999Z</time><extensions><gpxtpx:TrackPointExtension><gpxtpx:hr>113</gpxtpx:hr></gpxtpx:TrackPointExtension></extensions></trkpt>
<trkpt lat="22.4374489" lon="114.1979885">
<ele>9</ele><time>2020-12-28T07:49:08.999Z</time><extensions><gpxtpx:TrackPointExtension><gpxtpx:hr>114</gpxtpx:hr></gpxtpx:TrackPointExtension></extensions></trkpt>
<trkpt lat="22.4374688" lon="114.1979456">
<ele>9</ele><time>2020-12-28T07:49:09.999Z</time><extensions><gpxtpx:TrackPointExtension><gpxtpx:hr>114</gpxtpx:hr></gpxtpx:TrackPointExtension></extensions></trkpt>
<trkpt lat="22.4375184" lon="114.1978812">
<ele>9</ele><time>2020-12-28T07:49:11.999Z</time><extensions><gpxtpx:TrackPointExtension><gpxtpx:hr>114</gpxtpx:hr></gpxtpx:TrackPointExtension></extensions></trkpt>
<trkpt lat="22.4375580" lon="114.1978383">
<ele>9</ele><time>2020-12-28T07:49:13.999Z</time><extensions><gpxtpx:TrackPointExtension><gpxtpx:hr>114</gpxtpx:hr></gpxtpx:TrackPointExtension></extensions></trkpt>
<trkpt lat="22.4375878" lon="114.1977954">
<ele>9</ele><time>2020-12-28T07:49:15.999Z</time><extensions><gpxtpx:TrackPointExtension><gpxtpx:hr>114</gpxtpx:hr></gpxtpx:TrackPointExtension></extensions></trkpt>
<trkpt lat="22.4376373" lon="114.1977310">
<ele>9</ele><time>2020-12-28T07:49:17.999Z</time><extensions><gpxtpx:TrackPointExtension><gpxtpx:hr>114</gpxtpx:hr></gpxtpx:TrackPointExtension></extensions></trkpt>
<trkpt lat="22.4376869" lon="114.1976666">
<ele>9</ele><time>2020-12-28T07:49:19.999Z</time><extensions><gpxtpx:TrackPointExtension><gpxtpx:hr>112</gpxtpx:hr></gpxtpx:TrackPointExtension></extensions></trkpt>
<trkpt lat="22.4377167" lon="114.1976237">
<ele>9</ele><time>2020-12-28T07:49:20.999Z</time><extensions><gpxtpx:TrackPointExtension><gpxtpx:hr>112</gpxtpx:hr></gpxtpx:TrackPointExtension></extensions></trkpt>
<trkpt lat="22.4377663" lon="114.1975594">
<ele>9</ele><time>2020-12-28T07:49:22.999Z</time><extensions><gpxtpx:TrackPointExtension><gpxtpx:hr>112</gpxtpx:hr></gpxtpx:TrackPointExtension></extensions></trkpt>
<trkpt lat="22.4378158" lon="114.1974950">
<ele>9</ele><time>2020-12-28T07:49:24.999Z</time><extensions><gpxtpx:TrackPointExtension><gpxtpx:hr>113</gpxtpx:hr></gpxtpx:TrackPointExtension></extensions></trkpt>
<trkpt lat="22.4378555" lon="114.1974306">
<ele>9</ele><time>2020-12-28T07:49:26.999Z</time><extensions><gpxtpx:TrackPointExtension><gpxtpx:hr>113</gpxtpx:hr></gpxtpx:TrackPointExtension></extensions></trkpt>
<trkpt lat="22.4379051" lon="114.1973877">
<ele>9</ele><time>2020-12-28T07:49:28.999Z</time><extensions><gpxtpx:TrackPointExtension><gpxtpx:hr>115</gpxtpx:hr></gpxtpx:TrackPointExtension></extensions></trkpt>
<trkpt lat="22.4379448" lon="114.1973233">
<ele>9</ele><time>2020-12-28T07:49:30.999Z</time><extensions><gpxtpx:TrackPointExtension><gpxtpx:hr>115</gpxtpx:hr></gpxtpx:TrackPointExtension></extensions></trkpt>
<trkpt lat="22.4379844" lon="114.1972589">
<ele>9</ele><time>2020-12-28T07:49:32.999Z</time><extensions><gpxtpx:TrackPointExtension><gpxtpx:hr>115</gpxtpx:hr></gpxtpx:TrackPointExtension></extensions></trkpt>
<trkpt lat="22.4380340" lon="114.1971946">
<ele>9</ele><time>2020-12-28T07:49:34.999Z</time><extensions><gpxtpx:TrackPointExtension><gpxtpx:hr>116</gpxtpx:hr></gpxtpx:TrackPointExtension></extensions></trkpt>
<trkpt lat="22.4380836" lon="114.1971302">
<ele>9</ele><time>2020-12-28T07:49:36.999Z</time><extensions><gpxtpx:TrackPointExtension><gpxtpx:hr>116</gpxtpx:hr></gpxtpx:TrackPointExtension></extensions></trkpt>
<trkpt lat="22.4381233" lon="114.1970658">
<ele>9</ele><time>2020-12-28T07:49:38.999Z</time><extensions><gpxtpx:TrackPointExtension><gpxtpx:hr>116</gpxtpx:hr></gpxtpx:TrackPointExtension></extensions></trkpt>
<trkpt lat="22.4381629" lon="114.1970229">
<ele>9</ele><time>2020-12-28T07:49:40.999Z</time><extensions><gpxtpx:TrackPointExtension><gpxtpx:hr>114</gpxtpx:hr></gpxtpx:TrackPointExtension></extensions></trkpt>
<trkpt lat="22.4382026" lon="114.1969585">
<ele>9</ele><time>2020-12-28T07:49:42.999Z</time><extensions><gpxtpx:TrackPointExtension><gpxtpx:hr>114</gpxtpx:hr></gpxtpx:TrackPointExtension></extensions></trkpt>
<trkpt lat="22.4382423" lon="114.1969156">
<ele>9</ele><time>2020-12-28T07:49:44.999Z</time><extensions><gpxtpx:TrackPointExtension><gpxtpx:hr>117</gpxtpx:hr></gpxtpx:TrackPointExtension></extensions></trkpt>
<trkpt lat="22.4382819" lon="114.1968513">
<ele>9</ele><time>2020-12-28T07:49:46.999Z</time><extensions><gpxtpx:TrackPointExtension><gpxtpx:hr>117</gpxtpx:hr></gpxtpx:TrackPointExtension></extensions></trkpt>
<trkpt lat="22.4383117" lon="114.1968083">
<ele>9</ele><time>2020-12-28T07:49:48.999Z</time><extensions><gpxtpx:TrackPointExtension><gpxtpx:hr>117</gpxtpx:hr></gpxtpx:TrackPointExtension></extensions></trkpt>
<trkpt lat="22.4383414" lon="114.1967654">
<ele>9</ele><time>2020-12-28T07:49:50.999Z</time><extensions><gpxtpx:TrackPointExtension><gpxtpx:hr>116</gpxtpx:hr></gpxtpx:TrackPointExtension></extensions></trkpt>
<trkpt lat="22.4383712" lon="114.1967225">
<ele>9</ele><time>2020-12-28T07:49:52.999Z</time><extensions><gpxtpx:TrackPointExtension><gpxtpx:hr>116</gpxtpx:hr></gpxtpx:TrackPointExtension></extensions></trkpt>
<trkpt lat="22.4384108" lon="114.1966796">
<ele>9</ele><time>2020-12-28T07:49:54.999Z</time><extensions><gpxtpx:TrackPointExtension><gpxtpx:hr>117</gpxtpx:hr></gpxtpx:TrackPointExtension></extensions></trkpt>
<trkpt lat="22.4384406" lon="114.1966152">
<ele>9</ele><time>2020-12-28T07:49:56.999Z</time><extensions><gpxtpx:TrackPointExtension><gpxtpx:hr>117</gpxtpx:hr></gpxtpx:TrackPointExtension></extensions></trkpt>
<trkpt lat="22.4384604" lon="114.1965723">
<ele>9</ele><time>2020-12-28T07:49:58.998Z</time><extensions><gpxtpx:TrackPointExtension><gpxtpx:hr>117</gpxtpx:hr></gpxtpx:TrackPointExtension></extensions></trkpt>
<trkpt lat="22.4385001" lon="114.1966152">
<ele>9</ele><time>2020-12-28T07:50:39.999Z</time><extensions><gpxtpx:TrackPointExtension><gpxtpx:hr>113</gpxtpx:hr></gpxtpx:TrackPointExtension></extensions></trkpt>
<trkpt lat="22.4384406" lon="114.1965938">
<ele>9</ele><time>2020-12-28T07:50:40.999Z</time><extensions><gpxtpx:TrackPointExtension><gpxtpx:hr>113</gpxtpx:hr></gpxtpx:TrackPointExtension></extensions></trkpt>
<trkpt lat="22.4384803" lon="114.1965508">
<ele>9</ele><time>2020-12-28T07:51:16.999Z</time><extensions><gpxtpx:TrackPointExtension><gpxtpx:hr>111</gpxtpx:hr></gpxtpx:TrackPointExtension></extensions></trkpt>
<trkpt lat="22.4385199" lon="114.1965079">
<ele>9</ele><time>2020-12-28T07:51:50.999Z</time><extensions><gpxtpx:TrackPointExtension><gpxtpx:hr>110</gpxtpx:hr></gpxtpx:TrackPointExtension></extensions></trkpt>
<trkpt lat="22.4385398" lon="114.1964650">
<ele>9</ele><time>2020-12-28T07:51:51.999Z</time><extensions><gpxtpx:TrackPointExtension><gpxtpx:hr>110</gpxtpx:hr></gpxtpx:TrackPointExtension></extensions></trkpt>
<trkpt lat="22.4385794" lon="114.1964006">
<ele>9</ele><time>2020-12-28T07:51:53.999Z</time><extensions><gpxtpx:TrackPointExtension><gpxtpx:hr>110</gpxtpx:hr></gpxtpx:TrackPointExtension></extensions></trkpt>
<trkpt lat="22.4386290" lon="114.1963363">
<ele>9</ele><time>2020-12-28T07:51:55.999Z</time><extensions><gpxtpx:TrackPointExtension><gpxtpx:hr>110</gpxtpx:hr></gpxtpx:TrackPointExtension></extensions></trkpt>
<trkpt lat="22.4386588" lon="114.1962934">
<ele>9</ele><time>2020-12-28T07:51:56.999Z</time><extensions><gpxtpx:TrackPointExtension><gpxtpx:hr>110</gpxtpx:hr></gpxtpx:TrackPointExtension></extensions></trkpt>
<trkpt lat="22.4386786" lon="114.1962290">
<ele>9</ele><time>2020-12-28T07:51:57.999Z</time><extensions><gpxtpx:TrackPointExtension><gpxtpx:hr>110</gpxtpx:hr></gpxtpx:TrackPointExtension></extensions></trkpt>
<trkpt lat="22.4387083" lon="114.1961861">
<ele>9</ele><time>2020-12-28T07:51:58.999Z</time><extensions><gpxtpx:TrackPointExtension><gpxtpx:hr>111</gpxtpx:hr></gpxtpx:TrackPointExtension></extensions></trkpt>
<trkpt lat="22.4387381" lon="114.1961432">
<ele>9</ele><time>2020-12-28T07:51:59.998Z</time><extensions><gpxtpx:TrackPointExtension><gpxtpx:hr>111</gpxtpx:hr></gpxtpx:TrackPointExtension></extensions></trkpt>
<trkpt lat="22.4387678" lon="114.1961002">
<ele>9</ele><time>2020-12-28T07:52:00.998Z</time><extensions><gpxtpx:TrackPointExtension><gpxtpx:hr>111</gpxtpx:hr></gpxtpx:TrackPointExtension></extensions></trkpt>
<trkpt lat="22.4387976" lon="114.1960359">
<ele>9</ele><time>2020-12-28T07:52:01.998Z</time><extensions><gpxtpx:TrackPointExtension><gpxtpx:hr>111</gpxtpx:hr></gpxtpx:TrackPointExtension></extensions></trkpt>
<trkpt lat="22.4388273" lon="114.1959929">
<ele>9</ele><time>2020-12-28T07:52:02.998Z</time><extensions><gpxtpx:TrackPointExtension><gpxtpx:hr>113</gpxtpx:hr></gpxtpx:TrackPointExtension></extensions></trkpt>
<trkpt lat="22.4388571" lon="114.1959286">
<ele>9</ele><time>2020-12-28T07:52:03.998Z</time><extensions><gpxtpx:TrackPointExtension><gpxtpx:hr>113</gpxtpx:hr></gpxtpx:TrackPointExtension></extensions></trkpt>
<trkpt lat="22.4388968" lon="114.1958642">
<ele>9</ele><time>2020-12-28T07:52:04.998Z</time><extensions><gpxtpx:TrackPointExtension><gpxtpx:hr>113</gpxtpx:hr></gpxtpx:TrackPointExtension></extensions></trkpt>
<trkpt lat="22.4389265" lon="114.1958213">
<ele>9</ele><time>2020-12-28T07:52:05.998Z</time><extensions><gpxtpx:TrackPointExtension><gpxtpx:hr>113</gpxtpx:hr></gpxtpx:TrackPointExtension></extensions></trkpt>
<trkpt lat="22.4389563" lon="114.1957569">
<ele>9</ele><time>2020-12-28T07:52:06.998Z</time><extensions><gpxtpx:TrackPointExtension><gpxtpx:hr>113</gpxtpx:hr></gpxtpx:TrackPointExtension></extensions></trkpt>
<trkpt lat="22.4390058" lon="114.1956711">
<ele>10</ele><time>2020-12-28T07:52:08.998Z</time><extensions><gpxtpx:TrackPointExtension><gpxtpx:hr>113</gpxtpx:hr></gpxtpx:TrackPointExtension></extensions></trkpt>
<trkpt lat="22.4390356" lon="114.1956067">
<ele>9</ele><time>2020-12-28T07:52:09.998Z</time><extensions><gpxtpx:TrackPointExtension><gpxtpx:hr>116</gpxtpx:hr></gpxtpx:TrackPointExtension></extensions></trkpt>
<trkpt lat="22.4390554" lon="114.1955638">
<ele>9</ele><time>2020-12-28T07:52:10.998Z</time><extensions><gpxtpx:TrackPointExtension><gpxtpx:hr>116</gpxtpx:hr></gpxtpx:TrackPointExtension></extensions></trkpt>
<trkpt lat="22.4390852" lon="114.1955209">
<ele>9</ele><time>2020-12-28T07:52:11.998Z</time><extensions><gpxtpx:TrackPointExtension><gpxtpx:hr>116</gpxtpx:hr></gpxtpx:TrackPointExtension></extensions></trkpt>
<trkpt lat="22.4391149" lon="114.1954565">
<ele>9</ele><time>2020-12-28T07:52:12.998Z</time><extensions><gpxtpx:TrackPointExtension><gpxtpx:hr>116</gpxtpx:hr></gpxtpx:TrackPointExtension></extensions></trkpt>
<trkpt lat="22.4391348" lon="114.1953921">
<ele>9</ele><time>2020-12-28T07:52:13.998Z</time><extensions><gpxtpx:TrackPointExtension><gpxtpx:hr>117</gpxtpx:hr></gpxtpx:TrackPointExtension></extensions></trkpt>
<trkpt lat="22.4391645" lon="114.1953278">
<ele>9</ele><time>2020-12-28T07:52:14.998Z</time><extensions><gpxtpx:TrackPointExtension><gpxtpx:hr>117</gpxtpx:hr></gpxtpx:TrackPointExtension></extensions></trkpt>
<trkpt lat="22.4391942" lon="114.1952848">
<ele>9</ele><time>2020-12-28T07:52:15.998Z</time><extensions><gpxtpx:TrackPointExtension><gpxtpx:hr>117</gpxtpx:hr></gpxtpx:TrackPointExtension></extensions></trkpt>
<trkpt lat="22.4392240" lon="114.1952205">
<ele>9</ele><time>2020-12-28T07:52:16.998Z</time><extensions><gpxtpx:TrackPointExtension><gpxtpx:hr>117</gpxtpx:hr></gpxtpx:TrackPointExtension></extensions></trkpt>
<trkpt lat="22.4392537" lon="114.1951561">
<ele>9</ele><time>2020-12-28T07:52:17.998Z</time><extensions><gpxtpx:TrackPointExtension><gpxtpx:hr>119</gpxtpx:hr></gpxtpx:TrackPointExtension></extensions></trkpt>
<trkpt lat="22.4392835" lon="114.1951132">
<ele>9</ele><time>2020-12-28T07:52:18.998Z</time><extensions><gpxtpx:TrackPointExtension><gpxtpx:hr>119</gpxtpx:hr></gpxtpx:TrackPointExtension></extensions></trkpt>
<trkpt lat="22.4393033" lon="114.1950488">
<ele>9</ele><time>2020-12-28T07:52:19.998Z</time><extensions><gpxtpx:TrackPointExtension><gpxtpx:hr>119</gpxtpx:hr></gpxtpx:TrackPointExtension></extensions></trkpt>
<trkpt lat="22.4393331" lon="114.1949844">
<ele>9</ele><time>2020-12-28T07:52:20.998Z</time><extensions><gpxtpx:TrackPointExtension><gpxtpx:hr>119</gpxtpx:hr></gpxtpx:TrackPointExtension></extensions></trkpt>
<trkpt lat="22.4393529" lon="114.1949201">
<ele>9</ele><time>2020-12-28T07:52:21.998Z</time><extensions><gpxtpx:TrackPointExtension><gpxtpx:hr>119</gpxtpx:hr></gpxtpx:TrackPointExtension></extensions></trkpt>
<trkpt lat="22.4393827" lon="114.1948557">
<ele>9</ele><time>2020-12-28T07:52:22.998Z</time><extensions><gpxtpx:TrackPointExtension><gpxtpx:hr>119</gpxtpx:hr></gpxtpx:TrackPointExtension></extensions></trkpt>
<trkpt lat="22.4394124" lon="114.1947913">
<ele>9</ele><time>2020-12-28T07:52:23.998Z</time><extensions><gpxtpx:TrackPointExtension><gpxtpx:hr>121</gpxtpx:hr></gpxtpx:TrackPointExtension></extensions></trkpt>
<trkpt lat="22.4394322" lon="114.1947484">
<ele>9</ele><time>2020-12-28T07:52:24.998Z</time><extensions><gpxtpx:TrackPointExtension><gpxtpx:hr>121</gpxtpx:hr></gpxtpx:TrackPointExtension></extensions></trkpt>
<trkpt lat="22.4394620" lon="114.1946840">
<ele>9</ele><time>2020-12-28T07:52:25.998Z</time><extensions><gpxtpx:TrackPointExtension><gpxtpx:hr>121</gpxtpx:hr></gpxtpx:TrackPointExtension></extensions></trkpt>
<trkpt lat="22.4394917" lon="114.1946197">
<ele>9</ele><time>2020-12-28T07:52:26.998Z</time><extensions><gpxtpx:TrackPointExtension><gpxtpx:hr>121</gpxtpx:hr></gpxtpx:TrackPointExtension></extensions></trkpt>
<trkpt lat="22.4395215" lon="114.1945767">
<ele>9</ele><time>2020-12-28T07:52:27.998Z</time><extensions><gpxtpx:TrackPointExtension><gpxtpx:hr>121</gpxtpx:hr></gpxtpx:TrackPointExtension></extensions></trkpt>
<trkpt lat="22.4395512" lon="114.1945124">
<ele>9</ele><time>2020-12-28T07:52:28.998Z</time><extensions><gpxtpx:TrackPointExtension><gpxtpx:hr>123</gpxtpx:hr></gpxtpx:TrackPointExtension></extensions></trkpt>
<trkpt lat="22.4395711" lon="114.1944480">
<ele>9</ele><time>2020-12-28T07:52:29.998Z</time><extensions><gpxtpx:TrackPointExtension><gpxtpx:hr>123</gpxtpx:hr></gpxtpx:TrackPointExtension></extensions></trkpt>
<trkpt lat="22.4395909" lon="114.1943836">
<ele>9</ele><time>2020-12-28T07:52:30.998Z</time><extensions><gpxtpx:TrackPointExtension><gpxtpx:hr>123</gpxtpx:hr></gpxtpx:TrackPointExtension></extensions></trkpt>
<trkpt lat="22.4396107" lon="114.1942978">
<ele>9</ele><time>2020-12-28T07:52:31.998Z</time><extensions><gpxtpx:TrackPointExtension><gpxtpx:hr>123</gpxtpx:hr></gpxtpx:TrackPointExtension></extensions></trkpt>
<trkpt lat="22.4396306" lon="114.1942549">
<ele>9</ele><time>2020-12-28T07:52:32.998Z</time><extensions><gpxtpx:TrackPointExtension><gpxtpx:hr>123</gpxtpx:hr></gpxtpx:TrackPointExtension></extensions></trkpt>
<trkpt lat="22.4396405" lon="114.1941905">
<ele>9</ele><time>2020-12-28T07:52:33.998Z</time><extensions><gpxtpx:TrackPointExtension><gpxtpx:hr>123</gpxtpx:hr></gpxtpx:TrackPointExtension></extensions></trkpt>
<trkpt lat="22.4396504" lon="114.1941047">
<ele>9</ele><time>2020-12-28T07:52:34.998Z</time><extensions><gpxtpx:TrackPointExtension><gpxtpx:hr>123</gpxtpx:hr></gpxtpx:TrackPointExtension></extensions></trkpt>
<trkpt lat="22.4396702" lon="114.1940618">
<ele>9</ele><time>2020-12-28T07:52:35.998Z</time><extensions><gpxtpx:TrackPointExtension><gpxtpx:hr>123</gpxtpx:hr></gpxtpx:TrackPointExtension></extensions></trkpt>
<trkpt lat="22.4396802" lon="114.1939974">
<ele>9</ele><time>2020-12-28T07:52:36.998Z</time><extensions><gpxtpx:TrackPointExtension><gpxtpx:hr>123</gpxtpx:hr></gpxtpx:TrackPointExtension></extensions></trkpt>
<trkpt lat="22.4397000" lon="114.1939330">
<ele>9</ele><time>2020-12-28T07:52:37.998Z</time><extensions><gpxtpx:TrackPointExtension><gpxtpx:hr>123</gpxtpx:hr></gpxtpx:TrackPointExtension></extensions></trkpt>
<trkpt lat="22.4397297" lon="114.1938901">
<ele>9</ele><time>2020-12-28T07:52:38.998Z</time><extensions><gpxtpx:TrackPointExtension><gpxtpx:hr>123</gpxtpx:hr></gpxtpx:TrackPointExtension></extensions></trkpt>
<trkpt lat="22.4397496" lon="114.1938257">
<ele>9</ele><time>2020-12-28T07:52:39.998Z</time><extensions><gpxtpx:TrackPointExtension><gpxtpx:hr>123</gpxtpx:hr></gpxtpx:TrackPointExtension></extensions></trkpt>
<trkpt lat="22.4397793" lon="114.1937399">
<ele>9</ele><time>2020-12-28T07:52:41.999Z</time><extensions><gpxtpx:TrackPointExtension><gpxtpx:hr>123</gpxtpx:hr></gpxtpx:TrackPointExtension></extensions></trkpt>
<trkpt lat="22.4397793" lon="114.1936755">
<ele>9</ele><time>2020-12-28T07:52:42.999Z</time><extensions><gpxtpx:TrackPointExtension><gpxtpx:hr>123</gpxtpx:hr></gpxtpx:TrackPointExtension></extensions></trkpt>
<trkpt lat="22.4397793" lon="114.1935897">
<ele>9</ele><time>2020-12-28T07:52:44.999Z</time><extensions><gpxtpx:TrackPointExtension><gpxtpx:hr>123</gpxtpx:hr></gpxtpx:TrackPointExtension></extensions></trkpt>
<trkpt lat="22.4398091" lon="114.1935039">
<ele>9</ele><time>2020-12-28T07:52:47.999Z</time><extensions><gpxtpx:TrackPointExtension><gpxtpx:hr>123</gpxtpx:hr></gpxtpx:TrackPointExtension></extensions></trkpt>
<trkpt lat="22.4398190" lon="114.1934395">
<ele>9</ele><time>2020-12-28T07:52:49.999Z</time><extensions><gpxtpx:TrackPointExtension><gpxtpx:hr>119</gpxtpx:hr></gpxtpx:TrackPointExtension></extensions></trkpt>
<trkpt lat="22.4398388" lon="114.1933751">
<ele>9</ele><time>2020-12-28T07:52:51.999Z</time><extensions><gpxtpx:TrackPointExtension><gpxtpx:hr>119</gpxtpx:hr></gpxtpx:TrackPointExtension></extensions></trkpt>
<trkpt lat="22.4398487" lon="114.1932893">
<ele>9</ele><time>2020-12-28T07:52:53.999Z</time><extensions><gpxtpx:TrackPointExtension><gpxtpx:hr>119</gpxtpx:hr></gpxtpx:TrackPointExtension></extensions></trkpt>
<trkpt lat="22.4398587" lon="114.1932249">
<ele>9</ele><time>2020-12-28T07:52:56.999Z</time><extensions><gpxtpx:TrackPointExtension><gpxtpx:hr>118</gpxtpx:hr></gpxtpx:TrackPointExtension></extensions></trkpt>
<trkpt lat="22.4398884" lon="114.1931820">
<ele>9</ele><time>2020-12-28T07:53:56.999Z</time><extensions><gpxtpx:TrackPointExtension><gpxtpx:hr>128</gpxtpx:hr></gpxtpx:TrackPointExtension></extensions></trkpt>
<trkpt lat="22.4399182" lon="114.1931391">
<ele>9</ele><time>2020-12-28T07:54:59.999Z</time><extensions><gpxtpx:TrackPointExtension><gpxtpx:hr>117</gpxtpx:hr></gpxtpx:TrackPointExtension></extensions></trkpt>
<trkpt lat="22.4399082" lon="114.1930747">
<ele>9</ele><time>2020-12-28T07:55:01.999Z</time><extensions><gpxtpx:TrackPointExtension><gpxtpx:hr>117</gpxtpx:hr></gpxtpx:TrackPointExtension></extensions></trkpt>
<trkpt lat="22.4399182" lon="114.1929889">
<ele>9</ele><time>2020-12-28T07:55:04.999Z</time><extensions><gpxtpx:TrackPointExtension><gpxtpx:hr>118</gpxtpx:hr></gpxtpx:TrackPointExtension></extensions></trkpt>
<trkpt lat="22.4399281" lon="114.1929245">
<ele>9</ele><time>2020-12-28T07:55:06.999Z</time><extensions><gpxtpx:TrackPointExtension><gpxtpx:hr>118</gpxtpx:hr></gpxtpx:TrackPointExtension></extensions></trkpt>
<trkpt lat="22.4399281" lon="114.1928387">
<ele>9</ele><time>2020-12-28T07:55:08.999Z</time><extensions><gpxtpx:TrackPointExtension><gpxtpx:hr>118</gpxtpx:hr></gpxtpx:TrackPointExtension></extensions></trkpt>
<trkpt lat="22.4399281" lon="114.1927528">
<ele>9</ele><time>2020-12-28T07:55:10.999Z</time><extensions><gpxtpx:TrackPointExtension><gpxtpx:hr>118</gpxtpx:hr></gpxtpx:TrackPointExtension></extensions></trkpt>
<trkpt lat="22.4399281" lon="114.1926670">
<ele>9</ele><time>2020-12-28T07:55:12.999Z</time><extensions><gpxtpx:TrackPointExtension><gpxtpx:hr>118</gpxtpx:hr></gpxtpx:TrackPointExtension></extensions></trkpt>
<trkpt lat="22.4399182" lon="114.1925812">
<ele>9</ele><time>2020-12-28T07:55:14.999Z</time><extensions><gpxtpx:TrackPointExtension><gpxtpx:hr>119</gpxtpx:hr></gpxtpx:TrackPointExtension></extensions></trkpt>
<trkpt lat="22.4399182" lon="114.1924953">
<ele>10</ele><time>2020-12-28T07:55:17.999Z</time><extensions><gpxtpx:TrackPointExtension><gpxtpx:hr>119</gpxtpx:hr></gpxtpx:TrackPointExtension></extensions></trkpt>
<trkpt lat="22.4399082" lon="114.1924310">
<ele>10</ele><time>2020-12-28T07:55:19.999Z</time><extensions><gpxtpx:TrackPointExtension><gpxtpx:hr>119</gpxtpx:hr></gpxtpx:TrackPointExtension></extensions></trkpt>
<trkpt lat="22.4398983" lon="114.1923451">
<ele>10</ele><time>2020-12-28T07:55:21.999Z</time><extensions><gpxtpx:TrackPointExtension><gpxtpx:hr>119</gpxtpx:hr></gpxtpx:TrackPointExtension></extensions></trkpt>
<trkpt lat="22.4398884" lon="114.1922593">
<ele>10</ele><time>2020-12-28T07:55:23.999Z</time><extensions><gpxtpx:TrackPointExtension><gpxtpx:hr>119</gpxtpx:hr></gpxtpx:TrackPointExtension></extensions></trkpt>
<trkpt lat="22.4398785" lon="114.1921949">
<ele>10</ele><time>2020-12-28T07:55:25.999Z</time><extensions><gpxtpx:TrackPointExtension><gpxtpx:hr>119</gpxtpx:hr></gpxtpx:TrackPointExtension></extensions></trkpt>
<trkpt lat="22.4398686" lon="114.1921306">
<ele>10</ele><time>2020-12-28T07:55:26.999Z</time><extensions><gpxtpx:TrackPointExtension><gpxtpx:hr>119</gpxtpx:hr></gpxtpx:TrackPointExtension></extensions></trkpt>
<trkpt lat="22.4398587" lon="114.1920447">
<ele>10</ele><time>2020-12-28T07:55:28.999Z</time><extensions><gpxtpx:TrackPointExtension><gpxtpx:hr>120</gpxtpx:hr></gpxtpx:TrackPointExtension></extensions></trkpt>
<trkpt lat="22.4398487" lon="114.1919589">
<ele>10</ele><time>2020-12-28T07:55:30.999Z</time><extensions><gpxtpx:TrackPointExtension><gpxtpx:hr>120</gpxtpx:hr></gpxtpx:TrackPointExtension></extensions></trkpt>
<trkpt lat="22.4398388" lon="114.1918945">
<ele>9</ele><time>2020-12-28T07:55:32.999Z</time><extensions><gpxtpx:TrackPointExtension><gpxtpx:hr>120</gpxtpx:hr></gpxtpx:TrackPointExtension></extensions></trkpt>
<trkpt lat="22.4398190" lon="114.1918087">
<ele>9</ele><time>2020-12-28T07:55:34.999Z</time><extensions><gpxtpx:TrackPointExtension><gpxtpx:hr>120</gpxtpx:hr></gpxtpx:TrackPointExtension></extensions></trkpt>
<trkpt lat="22.4398091" lon="114.1917229">
<ele>9</ele><time>2020-12-28T07:55:36.999Z</time><extensions><gpxtpx:TrackPointExtension><gpxtpx:hr>120</gpxtpx:hr></gpxtpx:TrackPointExtension></extensions></trkpt>
<trkpt lat="22.4397992" lon="114.1916585">
<ele>9</ele><time>2020-12-28T07:55:38.999Z</time><extensions><gpxtpx:TrackPointExtension><gpxtpx:hr>130</gpxtpx:hr></gpxtpx:TrackPointExtension></extensions></trkpt>
<trkpt lat="22.4397892" lon="114.1915727">
<ele>9</ele><time>2020-12-28T07:55:40.999Z</time><extensions><gpxtpx:TrackPointExtension><gpxtpx:hr>130</gpxtpx:hr></gpxtpx:TrackPointExtension></extensions></trkpt>
<trkpt lat="22.4397694" lon="114.1915083">
<ele>9</ele><time>2020-12-28T07:55:42.999Z</time><extensions><gpxtpx:TrackPointExtension><gpxtpx:hr>130</gpxtpx:hr></gpxtpx:TrackPointExtension></extensions></trkpt>
<trkpt lat="22.4397496" lon="114.1914225">
<ele>9</ele><time>2020-12-28T07:55:44.999Z</time><extensions><gpxtpx:TrackPointExtension><gpxtpx:hr>134</gpxtpx:hr></gpxtpx:TrackPointExtension></extensions></trkpt>
<trkpt lat="22.4397397" lon="114.1913366">
<ele>9</ele><time>2020-12-28T07:55:46.999Z</time><extensions><gpxtpx:TrackPointExtension><gpxtpx:hr>134</gpxtpx:hr></gpxtpx:TrackPointExtension></extensions></trkpt>
<trkpt lat="22.4397198" lon="114.1912723">
<ele>9</ele><time>2020-12-28T07:55:48.999Z</time><extensions><gpxtpx:TrackPointExtension><gpxtpx:hr>128</gpxtpx:hr></gpxtpx:TrackPointExtension></extensions></trkpt>
<trkpt lat="22.4397099" lon="114.1911864">
<ele>9</ele><time>2020-12-28T07:55:50.999Z</time><extensions><gpxtpx:TrackPointExtension><gpxtpx:hr>128</gpxtpx:hr></gpxtpx:TrackPointExtension></extensions></trkpt>
<trkpt lat="22.4396802" lon="114.1911221">
<ele>9</ele><time>2020-12-28T07:55:52.999Z</time><extensions><gpxtpx:TrackPointExtension><gpxtpx:hr>128</gpxtpx:hr></gpxtpx:TrackPointExtension></extensions></trkpt>
<trkpt lat="22.4396702" lon="114.1910577">
<ele>9</ele><time>2020-12-28T07:55:54.999Z</time><extensions><gpxtpx:TrackPointExtension><gpxtpx:hr>128</gpxtpx:hr></gpxtpx:TrackPointExtension></extensions></trkpt>
<trkpt lat="22.4396603" lon="114.1909933">
<ele>9</ele><time>2020-12-28T07:55:56.999Z</time><extensions><gpxtpx:TrackPointExtension><gpxtpx:hr>128</gpxtpx:hr></gpxtpx:TrackPointExtension></extensions></trkpt>
<trkpt lat="22.4396405" lon="114.1909289">
<ele>9</ele><time>2020-12-28T07:55:58.999Z</time><extensions><gpxtpx:TrackPointExtension><gpxtpx:hr>127</gpxtpx:hr></gpxtpx:TrackPointExtension></extensions></trkpt>
<trkpt lat="22.4396306" lon="114.1908646">
<ele>9</ele><time>2020-12-28T07:56:00.999Z</time><extensions><gpxtpx:TrackPointExtension><gpxtpx:hr>127</gpxtpx:hr></gpxtpx:TrackPointExtension></extensions></trkpt>
<trkpt lat="22.4396107" lon="114.1908216">
<ele>9</ele><time>2020-12-28T07:56:02.999Z</time><extensions><gpxtpx:TrackPointExtension><gpxtpx:hr>127</gpxtpx:hr></gpxtpx:TrackPointExtension></extensions></trkpt>
<trkpt lat="22.4396008" lon="114.1907573">
<ele>9</ele><time>2020-12-28T07:56:04.999Z</time><extensions><gpxtpx:TrackPointExtension><gpxtpx:hr>131</gpxtpx:hr></gpxtpx:TrackPointExtension></extensions></trkpt>
<trkpt lat="22.4395810" lon="114.1907144">
<ele>9</ele><time>2020-12-28T07:56:07.999Z</time><extensions><gpxtpx:TrackPointExtension><gpxtpx:hr>131</gpxtpx:hr></gpxtpx:TrackPointExtension></extensions></trkpt>
<trkpt lat="22.4395711" lon="114.1906500">
<ele>9</ele><time>2020-12-28T07:56:19.998Z</time><extensions><gpxtpx:TrackPointExtension><gpxtpx:hr>117</gpxtpx:hr></gpxtpx:TrackPointExtension></extensions></trkpt>
<trkpt lat="22.4395711" lon="114.1905856">
<ele>9</ele><time>2020-12-28T07:57:33.999Z</time><extensions><gpxtpx:TrackPointExtension><gpxtpx:hr>111</gpxtpx:hr></gpxtpx:TrackPointExtension></extensions></trkpt>
<trkpt lat="22.4395512" lon="114.1905212">
<ele>9</ele><time>2020-12-28T07:57:36.999Z</time><extensions><gpxtpx:TrackPointExtension><gpxtpx:hr>111</gpxtpx:hr></gpxtpx:TrackPointExtension></extensions></trkpt>
<trkpt lat="22.4395314" lon="114.1904354">
<ele>10</ele><time>2020-12-28T07:57:39.999Z</time><extensions><gpxtpx:TrackPointExtension><gpxtpx:hr>111</gpxtpx:hr></gpxtpx:TrackPointExtension></extensions></trkpt>
<trkpt lat="22.4395215" lon="114.1903496">
<ele>10</ele><time>2020-12-28T07:57:42.999Z</time><extensions><gpxtpx:TrackPointExtension><gpxtpx:hr>111</gpxtpx:hr></gpxtpx:TrackPointExtension></extensions></trkpt>
<trkpt lat="22.4395017" lon="114.1903067">
<ele>10</ele><time>2020-12-28T07:57:44.999Z</time><extensions><gpxtpx:TrackPointExtension><gpxtpx:hr>114</gpxtpx:hr></gpxtpx:TrackPointExtension></extensions></trkpt>
<trkpt lat="22.4394917" lon="114.1902423">
<ele>10</ele><time>2020-12-28T07:57:48.999Z</time><extensions><gpxtpx:TrackPointExtension><gpxtpx:hr>117</gpxtpx:hr></gpxtpx:TrackPointExtension></extensions></trkpt>
<trkpt lat="22.4394620" lon="114.1901779">
<ele>10</ele><time>2020-12-28T07:57:51.999Z</time><extensions><gpxtpx:TrackPointExtension><gpxtpx:hr>117</gpxtpx:hr></gpxtpx:TrackPointExtension></extensions></trkpt>
<trkpt lat="22.4394521" lon="114.1901135">
<ele>10</ele><time>2020-12-28T07:57:54.999Z</time><extensions><gpxtpx:TrackPointExtension><gpxtpx:hr>120</gpxtpx:hr></gpxtpx:TrackPointExtension></extensions></trkpt>
<trkpt lat="22.4394422" lon="114.1900492">
<ele>10</ele><time>2020-12-28T07:57:56.999Z</time><extensions><gpxtpx:TrackPointExtension><gpxtpx:hr>120</gpxtpx:hr></gpxtpx:TrackPointExtension></extensions></trkpt>
<trkpt lat="22.4394223" lon="114.1899848">
<ele>10</ele><time>2020-12-28T07:57:58.999Z</time><extensions><gpxtpx:TrackPointExtension><gpxtpx:hr>121</gpxtpx:hr></gpxtpx:TrackPointExtension></extensions></trkpt>
<trkpt lat="22.4394223" lon="114.1899204">
<ele>10</ele><time>2020-12-28T07:58:00.999Z</time><extensions><gpxtpx:TrackPointExtension><gpxtpx:hr>121</gpxtpx:hr></gpxtpx:TrackPointExtension></extensions></trkpt>
<trkpt lat="22.4394124" lon="114.1898561">
<ele>10</ele><time>2020-12-28T07:58:03.999Z</time><extensions><gpxtpx:TrackPointExtension><gpxtpx:hr>121</gpxtpx:hr></gpxtpx:TrackPointExtension></extensions></trkpt>
<trkpt lat="22.4394025" lon="114.1897917">
<ele>10</ele><time>2020-12-28T07:58:06.999Z</time><extensions><gpxtpx:TrackPointExtension><gpxtpx:hr>121</gpxtpx:hr></gpxtpx:TrackPointExtension></extensions></trkpt>
<trkpt lat="22.4393926" lon="114.1897058">
<ele>10</ele><time>2020-12-28T07:58:09.999Z</time><extensions><gpxtpx:TrackPointExtension><gpxtpx:hr>115</gpxtpx:hr></gpxtpx:TrackPointExtension></extensions></trkpt>
<trkpt lat="22.4393827" lon="114.1896200">
<ele>10</ele><time>2020-12-28T07:58:12.999Z</time><extensions><gpxtpx:TrackPointExtension><gpxtpx:hr>115</gpxtpx:hr></gpxtpx:TrackPointExtension></extensions></trkpt>
<trkpt lat="22.4393727" lon="114.1895556">
<ele>10</ele><time>2020-12-28T07:58:14.999Z</time><extensions><gpxtpx:TrackPointExtension><gpxtpx:hr>115</gpxtpx:hr></gpxtpx:TrackPointExtension></extensions></trkpt>
<trkpt lat="22.4393628" lon="114.1894913">
<ele>10</ele><time>2020-12-28T07:58:17.999Z</time><extensions><gpxtpx:TrackPointExtension><gpxtpx:hr>115</gpxtpx:hr></gpxtpx:TrackPointExtension></extensions></trkpt>
<trkpt lat="22.4393628" lon="114.1894269">
<ele>10</ele><time>2020-12-28T07:58:19.999Z</time><extensions><gpxtpx:TrackPointExtension><gpxtpx:hr>118</gpxtpx:hr></gpxtpx:TrackPointExtension></extensions></trkpt>
<trkpt lat="22.4393529" lon="114.1893625">
<ele>10</ele><time>2020-12-28T07:58:22.999Z</time><extensions><gpxtpx:TrackPointExtension><gpxtpx:hr>118</gpxtpx:hr></gpxtpx:TrackPointExtension></extensions></trkpt>
<trkpt lat="22.4393529" lon="114.1892982">
<ele>10</ele><time>2020-12-28T07:58:24.999Z</time><extensions><gpxtpx:TrackPointExtension><gpxtpx:hr>119</gpxtpx:hr></gpxtpx:TrackPointExtension></extensions></trkpt>
<trkpt lat="22.4393529" lon="114.1892338">
<ele>10</ele><time>2020-12-28T07:58:26.999Z</time><extensions><gpxtpx:TrackPointExtension><gpxtpx:hr>119</gpxtpx:hr></gpxtpx:TrackPointExtension></extensions></trkpt>
<trkpt lat="22.4393430" lon="114.1891694">
<ele>10</ele><time>2020-12-28T07:58:28.999Z</time><extensions><gpxtpx:TrackPointExtension><gpxtpx:hr>117</gpxtpx:hr></gpxtpx:TrackPointExtension></extensions></trkpt>
<trkpt lat="22.4393331" lon="114.1890836">
<ele>10</ele><time>2020-12-28T07:58:30.999Z</time><extensions><gpxtpx:TrackPointExtension><gpxtpx:hr>117</gpxtpx:hr></gpxtpx:TrackPointExtension></extensions></trkpt>
<trkpt lat="22.4393232" lon="114.1890192">
<ele>10</ele><time>2020-12-28T07:58:32.999Z</time><extensions><gpxtpx:TrackPointExtension><gpxtpx:hr>117</gpxtpx:hr></gpxtpx:TrackPointExtension></extensions></trkpt>
<trkpt lat="22.4393132" lon="114.1889548">
<ele>10</ele><time>2020-12-28T07:58:34.999Z</time><extensions><gpxtpx:TrackPointExtension><gpxtpx:hr>117</gpxtpx:hr></gpxtpx:TrackPointExtension></extensions></trkpt>
<trkpt lat="22.4393033" lon="114.1888905">
<ele>10</ele><time>2020-12-28T07:58:37.999Z</time><extensions><gpxtpx:TrackPointExtension><gpxtpx:hr>117</gpxtpx:hr></gpxtpx:TrackPointExtension></extensions></trkpt>
<trkpt lat="22.4393033" lon="114.1888261">
<ele>10</ele><time>2020-12-28T07:58:39.999Z</time><extensions><gpxtpx:TrackPointExtension><gpxtpx:hr>119</gpxtpx:hr></gpxtpx:TrackPointExtension></extensions></trkpt>
<trkpt lat="22.4393033" lon="114.1887617">
<ele>10</ele><time>2020-12-28T07:58:41.998Z</time><extensions><gpxtpx:TrackPointExtension><gpxtpx:hr>119</gpxtpx:hr></gpxtpx:TrackPointExtension></extensions></trkpt>
<trkpt lat="22.4393132" lon="114.1886973">
<ele>10</ele><time>2020-12-28T07:58:43.998Z</time><extensions><gpxtpx:TrackPointExtension><gpxtpx:hr>121</gpxtpx:hr></gpxtpx:TrackPointExtension></extensions></trkpt>
<trkpt lat="22.4393132" lon="114.1886330">
<ele>10</ele><time>2020-12-28T07:58:45.998Z</time><extensions><gpxtpx:TrackPointExtension><gpxtpx:hr>121</gpxtpx:hr></gpxtpx:TrackPointExtension></extensions></trkpt>
<trkpt lat="22.4393132" lon="114.1885686">
<ele>11</ele><time>2020-12-28T07:58:48.998Z</time><extensions><gpxtpx:TrackPointExtension><gpxtpx:hr>123</gpxtpx:hr></gpxtpx:TrackPointExtension></extensions></trkpt>
<trkpt lat="22.4393132" lon="114.1885042">
<ele>11</ele><time>2020-12-28T07:58:50.998Z</time><extensions><gpxtpx:TrackPointExtension><gpxtpx:hr>123</gpxtpx:hr></gpxtpx:TrackPointExtension></extensions></trkpt>
<trkpt lat="22.4393132" lon="114.1884398">
<ele>11</ele><time>2020-12-28T07:58:53.998Z</time><extensions><gpxtpx:TrackPointExtension><gpxtpx:hr>119</gpxtpx:hr></gpxtpx:TrackPointExtension></extensions></trkpt>
<trkpt lat="22.4393232" lon="114.1883755">
<ele>11</ele><time>2020-12-28T07:58:56.998Z</time><extensions><gpxtpx:TrackPointExtension><gpxtpx:hr>119</gpxtpx:hr></gpxtpx:TrackPointExtension></extensions></trkpt>
<trkpt lat="22.4393331" lon="114.1883111">
<ele>11</ele><time>2020-12-28T07:58:59.000Z</time><extensions><gpxtpx:TrackPointExtension><gpxtpx:hr>121</gpxtpx:hr></gpxtpx:TrackPointExtension></extensions></trkpt>
<trkpt lat="22.4393331" lon="114.1882467">
<ele>11</ele><time>2020-12-28T07:59:01.000Z</time><extensions><gpxtpx:TrackPointExtension><gpxtpx:hr>121</gpxtpx:hr></gpxtpx:TrackPointExtension></extensions></trkpt>
<trkpt lat="22.4393430" lon="114.1881609">
<ele>11</ele><time>2020-12-28T07:59:04.000Z</time><extensions><gpxtpx:TrackPointExtension><gpxtpx:hr>120</gpxtpx:hr></gpxtpx:TrackPointExtension></extensions></trkpt>
<trkpt lat="22.4393529" lon="114.1880965">
<ele>11</ele><time>2020-12-28T07:59:06.000Z</time><extensions><gpxtpx:TrackPointExtension><gpxtpx:hr>120</gpxtpx:hr></gpxtpx:TrackPointExtension></extensions></trkpt>
<trkpt lat="22.4393529" lon="114.1880322">
<ele>11</ele><time>2020-12-28T07:59:08.000Z</time><extensions><gpxtpx:TrackPointExtension><gpxtpx:hr>120</gpxtpx:hr></gpxtpx:TrackPointExtension></extensions></trkpt>
<trkpt lat="22.4393727" lon="114.1879892">
<ele>11</ele><time>2020-12-28T07:59:10.000Z</time><extensions><gpxtpx:TrackPointExtension><gpxtpx:hr>120</gpxtpx:hr></gpxtpx:TrackPointExtension></extensions></trkpt>
<trkpt lat="22.4393727" lon="114.1879249">
<ele>10</ele><time>2020-12-28T07:59:12.000Z</time><extensions><gpxtpx:TrackPointExtension><gpxtpx:hr>120</gpxtpx:hr></gpxtpx:TrackPointExtension></extensions></trkpt>
<trkpt lat="22.4393926" lon="114.1878819">
<ele>10</ele><time>2020-12-28T07:59:14.000Z</time><extensions><gpxtpx:TrackPointExtension><gpxtpx:hr>120</gpxtpx:hr></gpxtpx:TrackPointExtension></extensions></trkpt>
<trkpt lat="22.4394025" lon="114.1878176">
<ele>10</ele><time>2020-12-28T07:59:16.000Z</time><extensions><gpxtpx:TrackPointExtension><gpxtpx:hr>120</gpxtpx:hr></gpxtpx:TrackPointExtension></extensions></trkpt>
<trkpt lat="22.4394223" lon="114.1877317">
<ele>10</ele><time>2020-12-28T07:59:19.000Z</time><extensions><gpxtpx:TrackPointExtension><gpxtpx:hr>121</gpxtpx:hr></gpxtpx:TrackPointExtension></extensions></trkpt>
<trkpt lat="22.4394322" lon="114.1876459">
<ele>10</ele><time>2020-12-28T07:59:22.000Z</time><extensions><gpxtpx:TrackPointExtension><gpxtpx:hr>121</gpxtpx:hr></gpxtpx:TrackPointExtension></extensions></trkpt>
<trkpt lat="22.4394521" lon="114.1875815">
<ele>10</ele><time>2020-12-28T07:59:24.000Z</time><extensions><gpxtpx:TrackPointExtension><gpxtpx:hr>116</gpxtpx:hr></gpxtpx:TrackPointExtension></extensions></trkpt>
<trkpt lat="22.4394719" lon="114.1875386">
<ele>10</ele><time>2020-12-28T07:59:26.000Z</time><extensions><gpxtpx:TrackPointExtension><gpxtpx:hr>116</gpxtpx:hr></gpxtpx:TrackPointExtension></extensions></trkpt>
<trkpt lat="22.4394917" lon="114.1874743">
<ele>10</ele><time>2020-12-28T07:59:27.999Z</time><extensions><gpxtpx:TrackPointExtension><gpxtpx:hr>116</gpxtpx:hr></gpxtpx:TrackPointExtension></extensions></trkpt>
<trkpt lat="22.4395215" lon="114.1874099">
<ele>10</ele><time>2020-12-28T07:59:29.999Z</time><extensions><gpxtpx:TrackPointExtension><gpxtpx:hr>114</gpxtpx:hr></gpxtpx:TrackPointExtension></extensions></trkpt>
<trkpt lat="22.4395413" lon="114.1873455">
<ele>10</ele><time>2020-12-28T07:59:31.999Z</time><extensions><gpxtpx:TrackPointExtension><gpxtpx:hr>114</gpxtpx:hr></gpxtpx:TrackPointExtension></extensions></trkpt>
<trkpt lat="22.4395711" lon="114.1873026">
<ele>10</ele><time>2020-12-28T07:59:33.999Z</time><extensions><gpxtpx:TrackPointExtension><gpxtpx:hr>114</gpxtpx:hr></gpxtpx:TrackPointExtension></extensions></trkpt>
<trkpt lat="22.4395909" lon="114.1872382">
<ele>10</ele><time>2020-12-28T07:59:35.999Z</time><extensions><gpxtpx:TrackPointExtension><gpxtpx:hr>114</gpxtpx:hr></gpxtpx:TrackPointExtension></extensions></trkpt>
<trkpt lat="22.4396107" lon="114.1871738">
<ele>10</ele><time>2020-12-28T07:59:38.999Z</time><extensions><gpxtpx:TrackPointExtension><gpxtpx:hr>110</gpxtpx:hr></gpxtpx:TrackPointExtension></extensions></trkpt>
<trkpt lat="22.4396306" lon="114.1871095">
<ele>10</ele><time>2020-12-28T07:59:40.999Z</time><extensions><gpxtpx:TrackPointExtension><gpxtpx:hr>110</gpxtpx:hr></gpxtpx:TrackPointExtension></extensions></trkpt>
<trkpt lat="22.4396504" lon="114.1870451">
<ele>10</ele><time>2020-12-28T07:59:42.999Z</time><extensions><gpxtpx:TrackPointExtension><gpxtpx:hr>110</gpxtpx:hr></gpxtpx:TrackPointExtension></extensions></trkpt>
<trkpt lat="22.4396802" lon="114.1869593">
<ele>10</ele><time>2020-12-28T07:59:44.999Z</time><extensions><gpxtpx:TrackPointExtension><gpxtpx:hr>107</gpxtpx:hr></gpxtpx:TrackPointExtension></extensions></trkpt>
<trkpt lat="22.4397000" lon="114.1868949">
<ele>10</ele><time>2020-12-28T07:59:46.999Z</time><extensions><gpxtpx:TrackPointExtension><gpxtpx:hr>107</gpxtpx:hr></gpxtpx:TrackPointExtension></extensions></trkpt>
<trkpt lat="22.4397297" lon="114.1868305">
<ele>10</ele><time>2020-12-28T07:59:48.999Z</time><extensions><gpxtpx:TrackPointExtension><gpxtpx:hr>107</gpxtpx:hr></gpxtpx:TrackPointExtension></extensions></trkpt>
<trkpt lat="22.4397595" lon="114.1867661">
<ele>10</ele><time>2020-12-28T07:59:50.999Z</time><extensions><gpxtpx:TrackPointExtension><gpxtpx:hr>107</gpxtpx:hr></gpxtpx:TrackPointExtension></extensions></trkpt>
<trkpt lat="22.4397892" lon="114.1867232">
<ele>10</ele><time>2020-12-28T07:59:52.999Z</time><extensions><gpxtpx:TrackPointExtension><gpxtpx:hr>107</gpxtpx:hr></gpxtpx:TrackPointExtension></extensions></trkpt>
<trkpt lat="22.4397992" lon="114.1866589">
<ele>10</ele><time>2020-12-28T07:59:54.999Z</time><extensions><gpxtpx:TrackPointExtension><gpxtpx:hr>109</gpxtpx:hr></gpxtpx:TrackPointExtension></extensions></trkpt>
<trkpt lat="22.4398289" lon="114.1865945">
<ele>9</ele><time>2020-12-28T07:59:56.999Z</time><extensions><gpxtpx:TrackPointExtension><gpxtpx:hr>109</gpxtpx:hr></gpxtpx:TrackPointExtension></extensions></trkpt>
<trkpt lat="22.4398686" lon="114.1865301">
<ele>9</ele><time>2020-12-28T07:59:59.999Z</time><extensions><gpxtpx:TrackPointExtension><gpxtpx:hr>109</gpxtpx:hr></gpxtpx:TrackPointExtension></extensions></trkpt>
<trkpt lat="22.4398884" lon="114.1864872">
<ele>9</ele><time>2020-12-28T08:00:01.999Z</time><extensions><gpxtpx:TrackPointExtension><gpxtpx:hr>109</gpxtpx:hr></gpxtpx:TrackPointExtension></extensions></trkpt>
<trkpt lat="22.4399182" lon="114.1864443">
<ele>9</ele><time>2020-12-28T08:00:03.999Z</time><extensions><gpxtpx:TrackPointExtension><gpxtpx:hr>109</gpxtpx:hr></gpxtpx:TrackPointExtension></extensions></trkpt>
<trkpt lat="22.4399578" lon="114.1863799">
<ele>9</ele><time>2020-12-28T08:00:05.999Z</time><extensions><gpxtpx:TrackPointExtension><gpxtpx:hr>109</gpxtpx:hr></gpxtpx:TrackPointExtension></extensions></trkpt>
<trkpt lat="22.4399876" lon="114.1862941">
<ele>9</ele><time>2020-12-28T08:00:08.999Z</time><extensions><gpxtpx:TrackPointExtension><gpxtpx:hr>110</gpxtpx:hr></gpxtpx:TrackPointExtension></extensions></trkpt>
<trkpt lat="22.4400173" lon="114.1862512">
<ele>9</ele><time>2020-12-28T08:00:10.999Z</time><extensions><gpxtpx:TrackPointExtension><gpxtpx:hr>110</gpxtpx:hr></gpxtpx:TrackPointExtension></extensions></trkpt>
<trkpt lat="22.4400471" lon="114.1862082">
<ele>9</ele><time>2020-12-28T08:00:12.999Z</time><extensions><gpxtpx:TrackPointExtension><gpxtpx:hr>110</gpxtpx:hr></gpxtpx:TrackPointExtension></extensions></trkpt>
<trkpt lat="22.4400669" lon="114.1861439">
<ele>9</ele><time>2020-12-28T08:00:14.999Z</time><extensions><gpxtpx:TrackPointExtension><gpxtpx:hr>112</gpxtpx:hr></gpxtpx:TrackPointExtension></extensions></trkpt>
<trkpt lat="22.4400966" lon="114.1860795">
<ele>9</ele><time>2020-12-28T08:00:16.999Z</time><extensions><gpxtpx:TrackPointExtension><gpxtpx:hr>112</gpxtpx:hr></gpxtpx:TrackPointExtension></extensions></trkpt>
<trkpt lat="22.4401264" lon="114.1860366">
<ele>9</ele><time>2020-12-28T08:00:18.999Z</time><extensions><gpxtpx:TrackPointExtension><gpxtpx:hr>112</gpxtpx:hr></gpxtpx:TrackPointExtension></extensions></trkpt>
<trkpt lat="22.4401462" lon="114.1859722">
<ele>9</ele><time>2020-12-28T08:00:20.999Z</time><extensions><gpxtpx:TrackPointExtension><gpxtpx:hr>112</gpxtpx:hr></gpxtpx:TrackPointExtension></extensions></trkpt>
<trkpt lat="22.4401760" lon="114.1859293">
<ele>9</ele><time>2020-12-28T08:00:22.999Z</time><extensions><gpxtpx:TrackPointExtension><gpxtpx:hr>112</gpxtpx:hr></gpxtpx:TrackPointExtension></extensions></trkpt>
<trkpt lat="22.4401958" lon="114.1858864">
<ele>8</ele><time>2020-12-28T08:00:23.999Z</time><extensions><gpxtpx:TrackPointExtension><gpxtpx:hr>112</gpxtpx:hr></gpxtpx:TrackPointExtension></extensions></trkpt>
<trkpt lat="22.4402355" lon="114.1858220">
<ele>8</ele><time>2020-12-28T08:00:26.999Z</time><extensions><gpxtpx:TrackPointExtension><gpxtpx:hr>112</gpxtpx:hr></gpxtpx:TrackPointExtension></extensions></trkpt>
<trkpt lat="22.4402652" lon="114.1857576">
<ele>8</ele><time>2020-12-28T08:00:28.999Z</time><extensions><gpxtpx:TrackPointExtension><gpxtpx:hr>112</gpxtpx:hr></gpxtpx:TrackPointExtension></extensions></trkpt>
<trkpt lat="22.4402851" lon="114.1857147">
<ele>8</ele><time>2020-12-28T08:00:30.999Z</time><extensions><gpxtpx:TrackPointExtension><gpxtpx:hr>112</gpxtpx:hr></gpxtpx:TrackPointExtension></extensions></trkpt>
<trkpt lat="22.4403148" lon="114.1856718">
<ele>8</ele><time>2020-12-28T08:00:32.999Z</time><extensions><gpxtpx:TrackPointExtension><gpxtpx:hr>112</gpxtpx:hr></gpxtpx:TrackPointExtension></extensions></trkpt>
<trkpt lat="22.4403446" lon="114.1856074">
<ele>8</ele><time>2020-12-28T08:00:35.999Z</time><extensions><gpxtpx:TrackPointExtension><gpxtpx:hr>111</gpxtpx:hr></gpxtpx:TrackPointExtension></extensions></trkpt>
<trkpt lat="22.4403644" lon="114.1855431">
<ele>8</ele><time>2020-12-28T08:00:37.999Z</time><extensions><gpxtpx:TrackPointExtension><gpxtpx:hr>111</gpxtpx:hr></gpxtpx:TrackPointExtension></extensions></trkpt>
<trkpt lat="22.4403842" lon="114.1855001">
<ele>8</ele><time>2020-12-28T08:00:39.999Z</time><extensions><gpxtpx:TrackPointExtension><gpxtpx:hr>111</gpxtpx:hr></gpxtpx:TrackPointExtension></extensions></trkpt>
<trkpt lat="22.4404140" lon="114.1854572">
<ele>8</ele><time>2020-12-28T08:00:41.999Z</time><extensions><gpxtpx:TrackPointExtension><gpxtpx:hr>111</gpxtpx:hr></gpxtpx:TrackPointExtension></extensions></trkpt>
<trkpt lat="22.4404437" lon="114.1853929">
<ele>8</ele><time>2020-12-28T08:00:43.999Z</time><extensions><gpxtpx:TrackPointExtension><gpxtpx:hr>111</gpxtpx:hr></gpxtpx:TrackPointExtension></extensions></trkpt>
<trkpt lat="22.4404636" lon="114.1853499">
<ele>8</ele><time>2020-12-28T08:00:45.998Z</time><extensions><gpxtpx:TrackPointExtension><gpxtpx:hr>111</gpxtpx:hr></gpxtpx:TrackPointExtension></extensions></trkpt>
<trkpt lat="22.4404933" lon="114.1853070">
<ele>8</ele><time>2020-12-28T08:00:47.998Z</time><extensions><gpxtpx:TrackPointExtension><gpxtpx:hr>111</gpxtpx:hr></gpxtpx:TrackPointExtension></extensions></trkpt>
<trkpt lat="22.4405131" lon="114.1852641">
<ele>8</ele><time>2020-12-28T08:00:49.998Z</time><extensions><gpxtpx:TrackPointExtension><gpxtpx:hr>113</gpxtpx:hr></gpxtpx:TrackPointExtension></extensions></trkpt>
<trkpt lat="22.4405429" lon="114.1852212">
<ele>8</ele><time>2020-12-28T08:00:51.998Z</time><extensions><gpxtpx:TrackPointExtension><gpxtpx:hr>113</gpxtpx:hr></gpxtpx:TrackPointExtension></extensions></trkpt>
<trkpt lat="22.4405826" lon="114.1851783">
<ele>8</ele><time>2020-12-28T08:00:53.998Z</time><extensions><gpxtpx:TrackPointExtension><gpxtpx:hr>113</gpxtpx:hr></gpxtpx:TrackPointExtension></extensions></trkpt>
<trkpt lat="22.4406123" lon="114.1851354">
<ele>8</ele><time>2020-12-28T08:00:55.998Z</time><extensions><gpxtpx:TrackPointExtension><gpxtpx:hr>112</gpxtpx:hr></gpxtpx:TrackPointExtension></extensions></trkpt>
<trkpt lat="22.4406619" lon="114.1850924">
<ele>8</ele><time>2020-12-28T08:00:57.998Z</time><extensions><gpxtpx:TrackPointExtension><gpxtpx:hr>112</gpxtpx:hr></gpxtpx:TrackPointExtension></extensions></trkpt>
<trkpt lat="22.4407015" lon="114.1850495">
<ele>8</ele><time>2020-12-28T08:00:59.998Z</time><extensions><gpxtpx:TrackPointExtension><gpxtpx:hr>111</gpxtpx:hr></gpxtpx:TrackPointExtension></extensions></trkpt>
<trkpt lat="22.4407412" lon="114.1850066">
<ele>8</ele><time>2020-12-28T08:01:01.998Z</time><extensions><gpxtpx:TrackPointExtension><gpxtpx:hr>111</gpxtpx:hr></gpxtpx:TrackPointExtension></extensions></trkpt>
<trkpt lat="22.4407610" lon="114.1849422">
<ele>8</ele><time>2020-12-28T08:01:03.998Z</time><extensions><gpxtpx:TrackPointExtension><gpxtpx:hr>111</gpxtpx:hr></gpxtpx:TrackPointExtension></extensions></trkpt>
<trkpt lat="22.4407809" lon="114.1848993">
<ele>8</ele><time>2020-12-28T08:01:06.000Z</time><extensions><gpxtpx:TrackPointExtension><gpxtpx:hr>113</gpxtpx:hr></gpxtpx:TrackPointExtension></extensions></trkpt>
<trkpt lat="22.4408205" lon="114.1848564">
<ele>8</ele><time>2020-12-28T08:01:09.000Z</time><extensions><gpxtpx:TrackPointExtension><gpxtpx:hr>113</gpxtpx:hr></gpxtpx:TrackPointExtension></extensions></trkpt>
<trkpt lat="22.4408503" lon="114.1848135">
<ele>8</ele><time>2020-12-28T08:01:12.000Z</time><extensions><gpxtpx:TrackPointExtension><gpxtpx:hr>115</gpxtpx:hr></gpxtpx:TrackPointExtension></extensions></trkpt>
<trkpt lat="22.4408999" lon="114.1847706">
<ele>9</ele><time>2020-12-28T08:01:16.000Z</time><extensions><gpxtpx:TrackPointExtension><gpxtpx:hr>119</gpxtpx:hr></gpxtpx:TrackPointExtension></extensions></trkpt>
<trkpt lat="22.4409296" lon="114.1847277">
<ele>9</ele><time>2020-12-28T08:01:18.000Z</time><extensions><gpxtpx:TrackPointExtension><gpxtpx:hr>119</gpxtpx:hr></gpxtpx:TrackPointExtension></extensions></trkpt>
<trkpt lat="22.4409693" lon="114.1846848">
<ele>9</ele><time>2020-12-28T08:01:21.000Z</time><extensions><gpxtpx:TrackPointExtension><gpxtpx:hr>122</gpxtpx:hr></gpxtpx:TrackPointExtension></extensions></trkpt>
<trkpt lat="22.4410090" lon="114.1846418">
<ele>9</ele><time>2020-12-28T08:01:24.000Z</time><extensions><gpxtpx:TrackPointExtension><gpxtpx:hr>122</gpxtpx:hr></gpxtpx:TrackPointExtension></extensions></trkpt>
<trkpt lat="22.4410387" lon="114.1845989">
<ele>9</ele><time>2020-12-28T08:01:26.000Z</time><extensions><gpxtpx:TrackPointExtension><gpxtpx:hr>122</gpxtpx:hr></gpxtpx:TrackPointExtension></extensions></trkpt>
<trkpt lat="22.4410685" lon="114.1845560">
<ele>9</ele><time>2020-12-28T08:01:29.000Z</time><extensions><gpxtpx:TrackPointExtension><gpxtpx:hr>121</gpxtpx:hr></gpxtpx:TrackPointExtension></extensions></trkpt>
<trkpt lat="22.4410883" lon="114.1845131">
<ele>9</ele><time>2020-12-28T08:01:30.999Z</time><extensions><gpxtpx:TrackPointExtension><gpxtpx:hr>121</gpxtpx:hr></gpxtpx:TrackPointExtension></extensions></trkpt>
<trkpt lat="22.4411180" lon="114.1844487">
<ele>9</ele><time>2020-12-28T08:01:33.999Z</time><extensions><gpxtpx:TrackPointExtension><gpxtpx:hr>121</gpxtpx:hr></gpxtpx:TrackPointExtension></extensions></trkpt>
<trkpt lat="22.4411478" lon="114.1844058">
<ele>9</ele><time>2020-12-28T08:01:35.999Z</time><extensions><gpxtpx:TrackPointExtension><gpxtpx:hr>121</gpxtpx:hr></gpxtpx:TrackPointExtension></extensions></trkpt>
<trkpt lat="22.4411875" lon="114.1843414">
<ele>9</ele><time>2020-12-28T08:01:38.999Z</time><extensions><gpxtpx:TrackPointExtension><gpxtpx:hr>120</gpxtpx:hr></gpxtpx:TrackPointExtension></extensions></trkpt>
<trkpt lat="22.4412073" lon="114.1842985">
<ele>9</ele><time>2020-12-28T08:01:40.999Z</time><extensions><gpxtpx:TrackPointExtension><gpxtpx:hr>120</gpxtpx:hr></gpxtpx:TrackPointExtension></extensions></trkpt>
<trkpt lat="22.4412370" lon="114.1842556">
<ele>9</ele><time>2020-12-28T08:01:42.999Z</time><extensions><gpxtpx:TrackPointExtension><gpxtpx:hr>120</gpxtpx:hr></gpxtpx:TrackPointExtension></extensions></trkpt>
<trkpt lat="22.4412668" lon="114.1841912">
<ele>9</ele><time>2020-12-28T08:01:44.999Z</time><extensions><gpxtpx:TrackPointExtension><gpxtpx:hr>120</gpxtpx:hr></gpxtpx:TrackPointExtension></extensions></trkpt>
<trkpt lat="22.4412965" lon="114.1841269">
<ele>9</ele><time>2020-12-28T08:01:47.999Z</time><extensions><gpxtpx:TrackPointExtension><gpxtpx:hr>120</gpxtpx:hr></gpxtpx:TrackPointExtension></extensions></trkpt>
<trkpt lat="22.4413263" lon="114.1840839">
<ele>9</ele><time>2020-12-28T08:01:49.999Z</time><extensions><gpxtpx:TrackPointExtension><gpxtpx:hr>120</gpxtpx:hr></gpxtpx:TrackPointExtension></extensions></trkpt>
<trkpt lat="22.4413560" lon="114.1840410">
<ele>9</ele><time>2020-12-28T08:01:51.999Z</time><extensions><gpxtpx:TrackPointExtension><gpxtpx:hr>120</gpxtpx:hr></gpxtpx:TrackPointExtension></extensions></trkpt>
<trkpt lat="22.4413858" lon="114.1839981">
<ele>9</ele><time>2020-12-28T08:01:53.999Z</time><extensions><gpxtpx:TrackPointExtension><gpxtpx:hr>119</gpxtpx:hr></gpxtpx:TrackPointExtension></extensions></trkpt>
<trkpt lat="22.4414155" lon="114.1839552">
<ele>9</ele><time>2020-12-28T08:01:55.999Z</time><extensions><gpxtpx:TrackPointExtension><gpxtpx:hr>119</gpxtpx:hr></gpxtpx:TrackPointExtension></extensions></trkpt>
<trkpt lat="22.4414354" lon="114.1838908">
<ele>9</ele><time>2020-12-28T08:01:57.999Z</time><extensions><gpxtpx:TrackPointExtension><gpxtpx:hr>119</gpxtpx:hr></gpxtpx:TrackPointExtension></extensions></trkpt>
<trkpt lat="22.4414651" lon="114.1838479">
<ele>9</ele><time>2020-12-28T08:01:59.999Z</time><extensions><gpxtpx:TrackPointExtension><gpxtpx:hr>119</gpxtpx:hr></gpxtpx:TrackPointExtension></extensions></trkpt>
<trkpt lat="22.4414949" lon="114.1837835">
<ele>9</ele><time>2020-12-28T08:02:02.999Z</time><extensions><gpxtpx:TrackPointExtension><gpxtpx:hr>119</gpxtpx:hr></gpxtpx:TrackPointExtension></extensions></trkpt>
<trkpt lat="22.4415246" lon="114.1837406">
<ele>9</ele><time>2020-12-28T08:02:04.999Z</time><extensions><gpxtpx:TrackPointExtension><gpxtpx:hr>119</gpxtpx:hr></gpxtpx:TrackPointExtension></extensions></trkpt>
<trkpt lat="22.4415544" lon="114.1836762">
<ele>9</ele><time>2020-12-28T08:02:07.999Z</time><extensions><gpxtpx:TrackPointExtension><gpxtpx:hr>119</gpxtpx:hr></gpxtpx:TrackPointExtension></extensions></trkpt>
<trkpt lat="22.4415841" lon="114.1836333">
<ele>9</ele><time>2020-12-28T08:02:09.999Z</time><extensions><gpxtpx:TrackPointExtension><gpxtpx:hr>119</gpxtpx:hr></gpxtpx:TrackPointExtension></extensions></trkpt>
<trkpt lat="22.4416039" lon="114.1835690">
<ele>9</ele><time>2020-12-28T08:02:11.999Z</time><extensions><gpxtpx:TrackPointExtension><gpxtpx:hr>119</gpxtpx:hr></gpxtpx:TrackPointExtension></extensions></trkpt>
<trkpt lat="22.4416337" lon="114.1835260">
<ele>9</ele><time>2020-12-28T08:02:13.999Z</time><extensions><gpxtpx:TrackPointExtension><gpxtpx:hr>119</gpxtpx:hr></gpxtpx:TrackPointExtension></extensions></trkpt>
<trkpt lat="22.4416634" lon="114.1834617">
<ele>9</ele><time>2020-12-28T08:02:16.999Z</time><extensions><gpxtpx:TrackPointExtension><gpxtpx:hr>119</gpxtpx:hr></gpxtpx:TrackPointExtension></extensions></trkpt>
<trkpt lat="22.4416932" lon="114.1834188">
<ele>9</ele><time>2020-12-28T08:02:19.999Z</time><extensions><gpxtpx:TrackPointExtension><gpxtpx:hr>118</gpxtpx:hr></gpxtpx:TrackPointExtension></extensions></trkpt>
<trkpt lat="22.4417130" lon="114.1833758">
<ele>9</ele><time>2020-12-28T08:02:21.999Z</time><extensions><gpxtpx:TrackPointExtension><gpxtpx:hr>118</gpxtpx:hr></gpxtpx:TrackPointExtension></extensions></trkpt>
<trkpt lat="22.4417428" lon="114.1833115">
<ele>9</ele><time>2020-12-28T08:02:23.999Z</time><extensions><gpxtpx:TrackPointExtension><gpxtpx:hr>118</gpxtpx:hr></gpxtpx:TrackPointExtension></extensions></trkpt>
<trkpt lat="22.4417725" lon="114.1832685">
<ele>9</ele><time>2020-12-28T08:02:25.999Z</time><extensions><gpxtpx:TrackPointExtension><gpxtpx:hr>118</gpxtpx:hr></gpxtpx:TrackPointExtension></extensions></trkpt>
<trkpt lat="22.4418023" lon="114.1832256">
<ele>9</ele><time>2020-12-28T08:02:27.999Z</time><extensions><gpxtpx:TrackPointExtension><gpxtpx:hr>118</gpxtpx:hr></gpxtpx:TrackPointExtension></extensions></trkpt>
<trkpt lat="22.4418221" lon="114.1831827">
<ele>9</ele><time>2020-12-28T08:02:29.999Z</time><extensions><gpxtpx:TrackPointExtension><gpxtpx:hr>118</gpxtpx:hr></gpxtpx:TrackPointExtension></extensions></trkpt>
<trkpt lat="22.4418518" lon="114.1831398">
<ele>9</ele><time>2020-12-28T08:02:31.999Z</time><extensions><gpxtpx:TrackPointExtension><gpxtpx:hr>118</gpxtpx:hr></gpxtpx:TrackPointExtension></extensions></trkpt>
<trkpt lat="22.4418915" lon="114.1830540">
<ele>9</ele><time>2020-12-28T08:02:34.999Z</time><extensions><gpxtpx:TrackPointExtension><gpxtpx:hr>118</gpxtpx:hr></gpxtpx:TrackPointExtension></extensions></trkpt>
<trkpt lat="22.4419312" lon="114.1829896">
<ele>9</ele><time>2020-12-28T08:02:37.999Z</time><extensions><gpxtpx:TrackPointExtension><gpxtpx:hr>118</gpxtpx:hr></gpxtpx:TrackPointExtension></extensions></trkpt>
<trkpt lat="22.4419510" lon="114.1829467">
<ele>9</ele><time>2020-12-28T08:02:39.999Z</time><extensions><gpxtpx:TrackPointExtension><gpxtpx:hr>118</gpxtpx:hr></gpxtpx:TrackPointExtension></extensions></trkpt>
<trkpt lat="22.4419708" lon="114.1828823">
<ele>9</ele><time>2020-12-28T08:02:41.999Z</time><extensions><gpxtpx:TrackPointExtension><gpxtpx:hr>116</gpxtpx:hr></gpxtpx:TrackPointExtension></extensions></trkpt>
<trkpt lat="22.4420006" lon="114.1828394">
<ele>9</ele><time>2020-12-28T08:02:43.999Z</time><extensions><gpxtpx:TrackPointExtension><gpxtpx:hr>116</gpxtpx:hr></gpxtpx:TrackPointExtension></extensions></trkpt>
<trkpt lat="22.4420105" lon="114.1827750">
<ele>9</ele><time>2020-12-28T08:02:45.999Z</time><extensions><gpxtpx:TrackPointExtension><gpxtpx:hr>114</gpxtpx:hr></gpxtpx:TrackPointExtension></extensions></trkpt>
<trkpt lat="22.4420403" lon="114.1827321">
<ele>9</ele><time>2020-12-28T08:02:47.998Z</time><extensions><gpxtpx:TrackPointExtension><gpxtpx:hr>114</gpxtpx:hr></gpxtpx:TrackPointExtension></extensions></trkpt>
<trkpt lat="22.4420601" lon="114.1826677">
<ele>9</ele><time>2020-12-28T08:02:50.998Z</time><extensions><gpxtpx:TrackPointExtension><gpxtpx:hr>110</gpxtpx:hr></gpxtpx:TrackPointExtension></extensions></trkpt>
<trkpt lat="22.4420700" lon="114.1826034">
<ele>9</ele><time>2020-12-28T08:02:52.998Z</time><extensions><gpxtpx:TrackPointExtension><gpxtpx:hr>110</gpxtpx:hr></gpxtpx:TrackPointExtension></extensions></trkpt>
<trkpt lat="22.4420998" lon="114.1825390">
<ele>9</ele><time>2020-12-28T08:02:54.998Z</time><extensions><gpxtpx:TrackPointExtension><gpxtpx:hr>112</gpxtpx:hr></gpxtpx:TrackPointExtension></extensions></trkpt>
<trkpt lat="22.4421196" lon="114.1824961">
<ele>9</ele><time>2020-12-28T08:02:56.998Z</time><extensions><gpxtpx:TrackPointExtension><gpxtpx:hr>112</gpxtpx:hr></gpxtpx:TrackPointExtension></extensions></trkpt>
<trkpt lat="22.4421493" lon="114.1824532">
<ele>9</ele><time>2020-12-28T08:02:58.998Z</time><extensions><gpxtpx:TrackPointExtension><gpxtpx:hr>114</gpxtpx:hr></gpxtpx:TrackPointExtension></extensions></trkpt>
<trkpt lat="22.4421593" lon="114.1823888">
<ele>9</ele><time>2020-12-28T08:03:00.998Z</time><extensions><gpxtpx:TrackPointExtension><gpxtpx:hr>114</gpxtpx:hr></gpxtpx:TrackPointExtension></extensions></trkpt>
<trkpt lat="22.4421890" lon="114.1823459">
<ele>9</ele><time>2020-12-28T08:03:02.998Z</time><extensions><gpxtpx:TrackPointExtension><gpxtpx:hr>114</gpxtpx:hr></gpxtpx:TrackPointExtension></extensions></trkpt>
<trkpt lat="22.4422088" lon="114.1822815">
<ele>9</ele><time>2020-12-28T08:03:04.998Z</time><extensions><gpxtpx:TrackPointExtension><gpxtpx:hr>112</gpxtpx:hr></gpxtpx:TrackPointExtension></extensions></trkpt>
<trkpt lat="22.4422386" lon="114.1821957">
<ele>9</ele><time>2020-12-28T08:03:07.998Z</time><extensions><gpxtpx:TrackPointExtension><gpxtpx:hr>112</gpxtpx:hr></gpxtpx:TrackPointExtension></extensions></trkpt>
<trkpt lat="22.4422683" lon="114.1821527">
<ele>9</ele><time>2020-12-28T08:03:09.998Z</time><extensions><gpxtpx:TrackPointExtension><gpxtpx:hr>110</gpxtpx:hr></gpxtpx:TrackPointExtension></extensions></trkpt>
<trkpt lat="22.4422981" lon="114.1820884">
<ele>9</ele><time>2020-12-28T08:03:13.000Z</time><extensions><gpxtpx:TrackPointExtension><gpxtpx:hr>110</gpxtpx:hr></gpxtpx:TrackPointExtension></extensions></trkpt>
<trkpt lat="22.4423179" lon="114.1820455">
<ele>9</ele><time>2020-12-28T08:03:15.000Z</time><extensions><gpxtpx:TrackPointExtension><gpxtpx:hr>111</gpxtpx:hr></gpxtpx:TrackPointExtension></extensions></trkpt>
<trkpt lat="22.4423477" lon="114.1820025">
<ele>9</ele><time>2020-12-28T08:03:17.000Z</time><extensions><gpxtpx:TrackPointExtension><gpxtpx:hr>111</gpxtpx:hr></gpxtpx:TrackPointExtension></extensions></trkpt>
<trkpt lat="22.4423774" lon="114.1819596">
<ele>9</ele><time>2020-12-28T08:03:19.000Z</time><extensions><gpxtpx:TrackPointExtension><gpxtpx:hr>113</gpxtpx:hr></gpxtpx:TrackPointExtension></extensions></trkpt>
<trkpt lat="22.4423972" lon="114.1819167">
<ele>9</ele><time>2020-12-28T08:03:21.000Z</time><extensions><gpxtpx:TrackPointExtension><gpxtpx:hr>113</gpxtpx:hr></gpxtpx:TrackPointExtension></extensions></trkpt>
<trkpt lat="22.4424270" lon="114.1818523">
<ele>9</ele><time>2020-12-28T08:03:23.000Z</time><extensions><gpxtpx:TrackPointExtension><gpxtpx:hr>113</gpxtpx:hr></gpxtpx:TrackPointExtension></extensions></trkpt>
<trkpt lat="22.4424667" lon="114.1817880">
<ele>9</ele><time>2020-12-28T08:03:26.000Z</time><extensions><gpxtpx:TrackPointExtension><gpxtpx:hr>116</gpxtpx:hr></gpxtpx:TrackPointExtension></extensions></trkpt>
<trkpt lat="22.4424964" lon="114.1817451">
<ele>9</ele><time>2020-12-28T08:03:28.000Z</time><extensions><gpxtpx:TrackPointExtension><gpxtpx:hr>116</gpxtpx:hr></gpxtpx:TrackPointExtension></extensions></trkpt>
<trkpt lat="22.4425162" lon="114.1817021">
<ele>9</ele><time>2020-12-28T08:03:30.000Z</time><extensions><gpxtpx:TrackPointExtension><gpxtpx:hr>113</gpxtpx:hr></gpxtpx:TrackPointExtension></extensions></trkpt>
<trkpt lat="22.4425460" lon="114.1816378">
<ele>9</ele><time>2020-12-28T08:03:31.999Z</time><extensions><gpxtpx:TrackPointExtension><gpxtpx:hr>113</gpxtpx:hr></gpxtpx:TrackPointExtension></extensions></trkpt>
<trkpt lat="22.4425757" lon="114.1815948">
<ele>9</ele><time>2020-12-28T08:03:33.999Z</time><extensions><gpxtpx:TrackPointExtension><gpxtpx:hr>113</gpxtpx:hr></gpxtpx:TrackPointExtension></extensions></trkpt>
<trkpt lat="22.4426055" lon="114.1815519">
<ele>9</ele><time>2020-12-28T08:03:35.999Z</time><extensions><gpxtpx:TrackPointExtension><gpxtpx:hr>113</gpxtpx:hr></gpxtpx:TrackPointExtension></extensions></trkpt>
<trkpt lat="22.4426451" lon="114.1814876">
<ele>9</ele><time>2020-12-28T08:03:38.999Z</time><extensions><gpxtpx:TrackPointExtension><gpxtpx:hr>113</gpxtpx:hr></gpxtpx:TrackPointExtension></extensions></trkpt>
<trkpt lat="22.4426551" lon="114.1814232">
<ele>9</ele><time>2020-12-28T08:03:42.999Z</time><extensions><gpxtpx:TrackPointExtension><gpxtpx:hr>113</gpxtpx:hr></gpxtpx:TrackPointExtension></extensions></trkpt>
<trkpt lat="22.4426749" lon="114.1813803">
<ele>9</ele><time>2020-12-28T08:03:58.999Z</time><extensions><gpxtpx:TrackPointExtension><gpxtpx:hr>113</gpxtpx:hr></gpxtpx:TrackPointExtension></extensions></trkpt>
<trkpt lat="22.4427146" lon="114.1813374">
<ele>9</ele><time>2020-12-28T08:04:01.999Z</time><extensions><gpxtpx:TrackPointExtension><gpxtpx:hr>113</gpxtpx:hr></gpxtpx:TrackPointExtension></extensions></trkpt>
<trkpt lat="22.4427443" lon="114.1812730">
<ele>9</ele><time>2020-12-28T08:04:04.999Z</time><extensions><gpxtpx:TrackPointExtension><gpxtpx:hr>113</gpxtpx:hr></gpxtpx:TrackPointExtension></extensions></trkpt>
<trkpt lat="22.4427840" lon="114.1812301">
<ele>9</ele><time>2020-12-28T08:04:06.999Z</time><extensions><gpxtpx:TrackPointExtension><gpxtpx:hr>113</gpxtpx:hr></gpxtpx:TrackPointExtension></extensions></trkpt>
<trkpt lat="22.4428236" lon="114.1811657">
<ele>9</ele><time>2020-12-28T08:04:08.999Z</time><extensions><gpxtpx:TrackPointExtension><gpxtpx:hr>113</gpxtpx:hr></gpxtpx:TrackPointExtension></extensions></trkpt>
<trkpt lat="22.4428435" lon="114.1811228">
<ele>9</ele><time>2020-12-28T08:04:09.999Z</time><extensions><gpxtpx:TrackPointExtension><gpxtpx:hr>113</gpxtpx:hr></gpxtpx:TrackPointExtension></extensions></trkpt>
<trkpt lat="22.4428732" lon="114.1810584">
<ele>9</ele><time>2020-12-28T08:04:11.999Z</time><extensions><gpxtpx:TrackPointExtension><gpxtpx:hr>113</gpxtpx:hr></gpxtpx:TrackPointExtension></extensions></trkpt>
<trkpt lat="22.4429030" lon="114.1809940">
<ele>9</ele><time>2020-12-28T08:04:13.999Z</time><extensions><gpxtpx:TrackPointExtension><gpxtpx:hr>116</gpxtpx:hr></gpxtpx:TrackPointExtension></extensions></trkpt>
<trkpt lat="22.4429426" lon="114.1809297">
<ele>9</ele><time>2020-12-28T08:04:15.999Z</time><extensions><gpxtpx:TrackPointExtension><gpxtpx:hr>116</gpxtpx:hr></gpxtpx:TrackPointExtension></extensions></trkpt>
<trkpt lat="22.4429724" lon="114.1808653">
<ele>9</ele><time>2020-12-28T08:04:17.999Z</time><extensions><gpxtpx:TrackPointExtension><gpxtpx:hr>116</gpxtpx:hr></gpxtpx:TrackPointExtension></extensions></trkpt>
<trkpt lat="22.4430121" lon="114.1808224">
<ele>9</ele><time>2020-12-28T08:04:19.999Z</time><extensions><gpxtpx:TrackPointExtension><gpxtpx:hr>119</gpxtpx:hr></gpxtpx:TrackPointExtension></extensions></trkpt>
<trkpt lat="22.4430319" lon="114.1807795">
<ele>9</ele><time>2020-12-28T08:04:20.999Z</time><extensions><gpxtpx:TrackPointExtension><gpxtpx:hr>119</gpxtpx:hr></gpxtpx:TrackPointExtension></extensions></trkpt>
<trkpt lat="22.4430616" lon="114.1807365">
<ele>9</ele><time>2020-12-28T08:04:22.999Z</time><extensions><gpxtpx:TrackPointExtension><gpxtpx:hr>119</gpxtpx:hr></gpxtpx:TrackPointExtension></extensions></trkpt>
<trkpt lat="22.4430815" lon="114.1806936">
<ele>9</ele><time>2020-12-28T08:04:23.999Z</time><extensions><gpxtpx:TrackPointExtension><gpxtpx:hr>118</gpxtpx:hr></gpxtpx:TrackPointExtension></extensions></trkpt>
<trkpt lat="22.4431211" lon="114.1806507">
<ele>9</ele><time>2020-12-28T08:04:25.999Z</time><extensions><gpxtpx:TrackPointExtension><gpxtpx:hr>118</gpxtpx:hr></gpxtpx:TrackPointExtension></extensions></trkpt>
<trkpt lat="22.4431509" lon="114.1806078">
<ele>9</ele><time>2020-12-28T08:04:27.999Z</time><extensions><gpxtpx:TrackPointExtension><gpxtpx:hr>118</gpxtpx:hr></gpxtpx:TrackPointExtension></extensions></trkpt>
<trkpt lat="22.4431806" lon="114.1805649">
<ele>9</ele><time>2020-12-28T08:04:29.999Z</time><extensions><gpxtpx:TrackPointExtension><gpxtpx:hr>117</gpxtpx:hr></gpxtpx:TrackPointExtension></extensions></trkpt>
<trkpt lat="22.4432104" lon="114.1805220">
<ele>9</ele><time>2020-12-28T08:04:31.999Z</time><extensions><gpxtpx:TrackPointExtension><gpxtpx:hr>117</gpxtpx:hr></gpxtpx:TrackPointExtension></extensions></trkpt>
<trkpt lat="22.4432401" lon="114.1804790">
<ele>9</ele><time>2020-12-28T08:04:33.999Z</time><extensions><gpxtpx:TrackPointExtension><gpxtpx:hr>116</gpxtpx:hr></gpxtpx:TrackPointExtension></extensions></trkpt>
<trkpt lat="22.4432699" lon="114.1804361">
<ele>9</ele><time>2020-12-28T08:04:35.999Z</time><extensions><gpxtpx:TrackPointExtension><gpxtpx:hr>116</gpxtpx:hr></gpxtpx:TrackPointExtension></extensions></trkpt>
<trkpt lat="22.4432996" lon="114.1803932">
<ele>9</ele><time>2020-12-28T08:04:37.999Z</time><extensions><gpxtpx:TrackPointExtension><gpxtpx:hr>116</gpxtpx:hr></gpxtpx:TrackPointExtension></extensions></trkpt>
<trkpt lat="22.4433294" lon="114.1803503">
<ele>9</ele><time>2020-12-28T08:04:39.999Z</time><extensions><gpxtpx:TrackPointExtension><gpxtpx:hr>116</gpxtpx:hr></gpxtpx:TrackPointExtension></extensions></trkpt>
<trkpt lat="22.4433591" lon="114.1803074">
<ele>9</ele><time>2020-12-28T08:04:41.999Z</time><extensions><gpxtpx:TrackPointExtension><gpxtpx:hr>116</gpxtpx:hr></gpxtpx:TrackPointExtension></extensions></trkpt>
<trkpt lat="22.4433889" lon="114.1802645">
<ele>9</ele><time>2020-12-28T08:04:43.999Z</time><extensions><gpxtpx:TrackPointExtension><gpxtpx:hr>116</gpxtpx:hr></gpxtpx:TrackPointExtension></extensions></trkpt>
<trkpt lat="22.4434186" lon="114.1802216">
<ele>9</ele><time>2020-12-28T08:04:45.999Z</time><extensions><gpxtpx:TrackPointExtension><gpxtpx:hr>116</gpxtpx:hr></gpxtpx:TrackPointExtension></extensions></trkpt>
<trkpt lat="22.4434484" lon="114.1801786">
<ele>9</ele><time>2020-12-28T08:04:47.999Z</time><extensions><gpxtpx:TrackPointExtension><gpxtpx:hr>116</gpxtpx:hr></gpxtpx:TrackPointExtension></extensions></trkpt>
<trkpt lat="22.4434781" lon="114.1801357">
<ele>9</ele><time>2020-12-28T08:04:49.999Z</time><extensions><gpxtpx:TrackPointExtension><gpxtpx:hr>117</gpxtpx:hr></gpxtpx:TrackPointExtension></extensions></trkpt>
<trkpt lat="22.4435079" lon="114.1800928">
<ele>9</ele><time>2020-12-28T08:04:52.998Z</time><extensions><gpxtpx:TrackPointExtension><gpxtpx:hr>117</gpxtpx:hr></gpxtpx:TrackPointExtension></extensions></trkpt>
<trkpt lat="22.4435376" lon="114.1800499">
<ele>9</ele><time>2020-12-28T08:04:54.998Z</time><extensions><gpxtpx:TrackPointExtension><gpxtpx:hr>117</gpxtpx:hr></gpxtpx:TrackPointExtension></extensions></trkpt>
<trkpt lat="22.4435674" lon="114.1800070">
<ele>9</ele><time>2020-12-28T08:04:56.998Z</time><extensions><gpxtpx:TrackPointExtension><gpxtpx:hr>117</gpxtpx:hr></gpxtpx:TrackPointExtension></extensions></trkpt>
<trkpt lat="22.4435971" lon="114.1799641">
<ele>9</ele><time>2020-12-28T08:04:58.998Z</time><extensions><gpxtpx:TrackPointExtension><gpxtpx:hr>117</gpxtpx:hr></gpxtpx:TrackPointExtension></extensions></trkpt>
<trkpt lat="22.4436368" lon="114.1799212">
<ele>9</ele><time>2020-12-28T08:05:00.998Z</time><extensions><gpxtpx:TrackPointExtension><gpxtpx:hr>117</gpxtpx:hr></gpxtpx:TrackPointExtension></extensions></trkpt>
<trkpt lat="22.4436665" lon="114.1798782">
<ele>9</ele><time>2020-12-28T08:05:02.998Z</time><extensions><gpxtpx:TrackPointExtension><gpxtpx:hr>117</gpxtpx:hr></gpxtpx:TrackPointExtension></extensions></trkpt>
<trkpt lat="22.4437062" lon="114.1798353">
<ele>9</ele><time>2020-12-28T08:05:05.998Z</time><extensions><gpxtpx:TrackPointExtension><gpxtpx:hr>117</gpxtpx:hr></gpxtpx:TrackPointExtension></extensions></trkpt>
<trkpt lat="22.4437359" lon="114.1797924">
<ele>9</ele><time>2020-12-28T08:05:07.998Z</time><extensions><gpxtpx:TrackPointExtension><gpxtpx:hr>117</gpxtpx:hr></gpxtpx:TrackPointExtension></extensions></trkpt>
<trkpt lat="22.4437756" lon="114.1797495">
<ele>9</ele><time>2020-12-28T08:05:09.998Z</time><extensions><gpxtpx:TrackPointExtension><gpxtpx:hr>119</gpxtpx:hr></gpxtpx:TrackPointExtension></extensions></trkpt>
<trkpt lat="22.4437954" lon="114.1797066">
<ele>9</ele><time>2020-12-28T08:05:11.998Z</time><extensions><gpxtpx:TrackPointExtension><gpxtpx:hr>119</gpxtpx:hr></gpxtpx:TrackPointExtension></extensions></trkpt>
<trkpt lat="22.4438351" lon="114.1796637">
<ele>9</ele><time>2020-12-28T08:05:13.998Z</time><extensions><gpxtpx:TrackPointExtension><gpxtpx:hr>120</gpxtpx:hr></gpxtpx:TrackPointExtension></extensions></trkpt>
<trkpt lat="22.4438648" lon="114.1795993">
<ele>9</ele><time>2020-12-28T08:05:15.998Z</time><extensions><gpxtpx:TrackPointExtension><gpxtpx:hr>120</gpxtpx:hr></gpxtpx:TrackPointExtension></extensions></trkpt>
<trkpt lat="22.4439045" lon="114.1795564">
<ele>9</ele><time>2020-12-28T08:05:17.999Z</time><extensions><gpxtpx:TrackPointExtension><gpxtpx:hr>120</gpxtpx:hr></gpxtpx:TrackPointExtension></extensions></trkpt>
<trkpt lat="22.4439343" lon="114.1795135">
<ele>9</ele><time>2020-12-28T08:05:19.999Z</time><extensions><gpxtpx:TrackPointExtension><gpxtpx:hr>112</gpxtpx:hr></gpxtpx:TrackPointExtension></extensions></trkpt>
<trkpt lat="22.4439640" lon="114.1794705">
<ele>9</ele><time>2020-12-28T08:05:21.999Z</time><extensions><gpxtpx:TrackPointExtension><gpxtpx:hr>112</gpxtpx:hr></gpxtpx:TrackPointExtension></extensions></trkpt>
<trkpt lat="22.4439938" lon="114.1794276">
<ele>9</ele><time>2020-12-28T08:05:23.999Z</time><extensions><gpxtpx:TrackPointExtension><gpxtpx:hr>112</gpxtpx:hr></gpxtpx:TrackPointExtension></extensions></trkpt>
<trkpt lat="22.4440235" lon="114.1793847">
<ele>9</ele><time>2020-12-28T08:05:25.999Z</time><extensions><gpxtpx:TrackPointExtension><gpxtpx:hr>112</gpxtpx:hr></gpxtpx:TrackPointExtension></extensions></trkpt>
<trkpt lat="22.4440533" lon="114.1793418">
<ele>9</ele><time>2020-12-28T08:05:27.999Z</time><extensions><gpxtpx:TrackPointExtension><gpxtpx:hr>112</gpxtpx:hr></gpxtpx:TrackPointExtension></extensions></trkpt>
<trkpt lat="22.4440929" lon="114.1792989">
<ele>9</ele><time>2020-12-28T08:05:29.999Z</time><extensions><gpxtpx:TrackPointExtension><gpxtpx:hr>112</gpxtpx:hr></gpxtpx:TrackPointExtension></extensions></trkpt>
<trkpt lat="22.4441227" lon="114.1792560">
<ele>9</ele><time>2020-12-28T08:05:31.999Z</time><extensions><gpxtpx:TrackPointExtension><gpxtpx:hr>112</gpxtpx:hr></gpxtpx:TrackPointExtension></extensions></trkpt>
<trkpt lat="22.4441524" lon="114.1792130">
<ele>9</ele><time>2020-12-28T08:05:33.999Z</time><extensions><gpxtpx:TrackPointExtension><gpxtpx:hr>110</gpxtpx:hr></gpxtpx:TrackPointExtension></extensions></trkpt>
<trkpt lat="22.4441822" lon="114.1791701">
<ele>8</ele><time>2020-12-28T08:05:35.999Z</time><extensions><gpxtpx:TrackPointExtension><gpxtpx:hr>110</gpxtpx:hr></gpxtpx:TrackPointExtension></extensions></trkpt>
<trkpt lat="22.4442119" lon="114.1791272">
<ele>8</ele><time>2020-12-28T08:05:37.999Z</time><extensions><gpxtpx:TrackPointExtension><gpxtpx:hr>110</gpxtpx:hr></gpxtpx:TrackPointExtension></extensions></trkpt>
<trkpt lat="22.4442417" lon="114.1790843">
<ele>8</ele><time>2020-12-28T08:05:39.999Z</time><extensions><gpxtpx:TrackPointExtension><gpxtpx:hr>110</gpxtpx:hr></gpxtpx:TrackPointExtension></extensions></trkpt>
<trkpt lat="22.4442615" lon="114.1790414">
<ele>8</ele><time>2020-12-28T08:05:41.999Z</time><extensions><gpxtpx:TrackPointExtension><gpxtpx:hr>110</gpxtpx:hr></gpxtpx:TrackPointExtension></extensions></trkpt>
<trkpt lat="22.4442912" lon="114.1789770">
<ele>8</ele><time>2020-12-28T08:05:43.999Z</time><extensions><gpxtpx:TrackPointExtension><gpxtpx:hr>111</gpxtpx:hr></gpxtpx:TrackPointExtension></extensions></trkpt>
<trkpt lat="22.4443408" lon="114.1789341">
<ele>8</ele><time>2020-12-28T08:05:46.999Z</time><extensions><gpxtpx:TrackPointExtension><gpxtpx:hr>111</gpxtpx:hr></gpxtpx:TrackPointExtension></extensions></trkpt>
<trkpt lat="22.4443706" lon="114.1788697">
<ele>8</ele><time>2020-12-28T08:05:48.999Z</time><extensions><gpxtpx:TrackPointExtension><gpxtpx:hr>112</gpxtpx:hr></gpxtpx:TrackPointExtension></extensions></trkpt>
<trkpt lat="22.4444003" lon="114.1788268">
<ele>8</ele><time>2020-12-28T08:05:50.999Z</time><extensions><gpxtpx:TrackPointExtension><gpxtpx:hr>112</gpxtpx:hr></gpxtpx:TrackPointExtension></extensions></trkpt>
<trkpt lat="22.4444499" lon="114.1787624">
<ele>8</ele><time>2020-12-28T08:05:53.999Z</time><extensions><gpxtpx:TrackPointExtension><gpxtpx:hr>111</gpxtpx:hr></gpxtpx:TrackPointExtension></extensions></trkpt>
<trkpt lat="22.4444796" lon="114.1787195">
<ele>8</ele><time>2020-12-28T08:05:55.999Z</time><extensions><gpxtpx:TrackPointExtension><gpxtpx:hr>111</gpxtpx:hr></gpxtpx:TrackPointExtension></extensions></trkpt>
<trkpt lat="22.4445094" lon="114.1786766">
<ele>8</ele><time>2020-12-28T08:05:57.999Z</time><extensions><gpxtpx:TrackPointExtension><gpxtpx:hr>111</gpxtpx:hr></gpxtpx:TrackPointExtension></extensions></trkpt>
<trkpt lat="22.4445391" lon="114.1786337">
<ele>8</ele><time>2020-12-28T08:05:59.999Z</time><extensions><gpxtpx:TrackPointExtension><gpxtpx:hr>108</gpxtpx:hr></gpxtpx:TrackPointExtension></extensions></trkpt>
<trkpt lat="22.4445689" lon="114.1785908">
<ele>8</ele><time>2020-12-28T08:06:01.999Z</time><extensions><gpxtpx:TrackPointExtension><gpxtpx:hr>108</gpxtpx:hr></gpxtpx:TrackPointExtension></extensions></trkpt>
<trkpt lat="22.4446086" lon="114.1785479">
<ele>9</ele><time>2020-12-28T08:06:03.999Z</time><extensions><gpxtpx:TrackPointExtension><gpxtpx:hr>107</gpxtpx:hr></gpxtpx:TrackPointExtension></extensions></trkpt>
<trkpt lat="22.4446383" lon="114.1785049">
<ele>9</ele><time>2020-12-28T08:06:05.999Z</time><extensions><gpxtpx:TrackPointExtension><gpxtpx:hr>107</gpxtpx:hr></gpxtpx:TrackPointExtension></extensions></trkpt>
<trkpt lat="22.4446879" lon="114.1784620">
<ele>9</ele><time>2020-12-28T08:06:08.999Z</time><extensions><gpxtpx:TrackPointExtension><gpxtpx:hr>108</gpxtpx:hr></gpxtpx:TrackPointExtension></extensions></trkpt>
<trkpt lat="22.4447275" lon="114.1783977">
<ele>9</ele><time>2020-12-28T08:06:10.999Z</time><extensions><gpxtpx:TrackPointExtension><gpxtpx:hr>108</gpxtpx:hr></gpxtpx:TrackPointExtension></extensions></trkpt>
<trkpt lat="22.4447573" lon="114.1783547">
<ele>9</ele><time>2020-12-28T08:06:12.999Z</time><extensions><gpxtpx:TrackPointExtension><gpxtpx:hr>108</gpxtpx:hr></gpxtpx:TrackPointExtension></extensions></trkpt>
<trkpt lat="22.4447870" lon="114.1783118">
<ele>9</ele><time>2020-12-28T08:06:14.999Z</time><extensions><gpxtpx:TrackPointExtension><gpxtpx:hr>110</gpxtpx:hr></gpxtpx:TrackPointExtension></extensions></trkpt>
<trkpt lat="22.4448267" lon="114.1782689">
<ele>9</ele><time>2020-12-28T08:06:16.999Z</time><extensions><gpxtpx:TrackPointExtension><gpxtpx:hr>110</gpxtpx:hr></gpxtpx:TrackPointExtension></extensions></trkpt>
<trkpt lat="22.4448565" lon="114.1782260">
<ele>9</ele><time>2020-12-28T08:06:18.999Z</time><extensions><gpxtpx:TrackPointExtension><gpxtpx:hr>110</gpxtpx:hr></gpxtpx:TrackPointExtension></extensions></trkpt>
<trkpt lat="22.4448862" lon="114.1781831">
<ele>9</ele><time>2020-12-28T08:06:20.999Z</time><extensions><gpxtpx:TrackPointExtension><gpxtpx:hr>110</gpxtpx:hr></gpxtpx:TrackPointExtension></extensions></trkpt>
<trkpt lat="22.4449259" lon="114.1781402">
<ele>9</ele><time>2020-12-28T08:06:23.999Z</time><extensions><gpxtpx:TrackPointExtension><gpxtpx:hr>108</gpxtpx:hr></gpxtpx:TrackPointExtension></extensions></trkpt>
<trkpt lat="22.4449655" lon="114.1781187">
<ele>9</ele><time>2020-12-28T08:06:25.999Z</time><extensions><gpxtpx:TrackPointExtension><gpxtpx:hr>108</gpxtpx:hr></gpxtpx:TrackPointExtension></extensions></trkpt>
<trkpt lat="22.4449953" lon="114.1780758">
<ele>9</ele><time>2020-12-28T08:06:27.999Z</time><extensions><gpxtpx:TrackPointExtension><gpxtpx:hr>108</gpxtpx:hr></gpxtpx:TrackPointExtension></extensions></trkpt>
<trkpt lat="22.4450349" lon="114.1780329">
<ele>9</ele><time>2020-12-28T08:06:29.999Z</time><extensions><gpxtpx:TrackPointExtension><gpxtpx:hr>109</gpxtpx:hr></gpxtpx:TrackPointExtension></extensions></trkpt>
<trkpt lat="22.4450647" lon="114.1779900">
<ele>9</ele><time>2020-12-28T08:06:31.999Z</time><extensions><gpxtpx:TrackPointExtension><gpxtpx:hr>109</gpxtpx:hr></gpxtpx:TrackPointExtension></extensions></trkpt>
<trkpt lat="22.4450944" lon="114.1779470">
<ele>9</ele><time>2020-12-28T08:06:33.999Z</time><extensions><gpxtpx:TrackPointExtension><gpxtpx:hr>110</gpxtpx:hr></gpxtpx:TrackPointExtension></extensions></trkpt>
<trkpt lat="22.4451341" lon="114.1779041">
<ele>9</ele><time>2020-12-28T08:06:35.999Z</time><extensions><gpxtpx:TrackPointExtension><gpxtpx:hr>110</gpxtpx:hr></gpxtpx:TrackPointExtension></extensions></trkpt>
<trkpt lat="22.4451639" lon="114.1778612">
<ele>9</ele><time>2020-12-28T08:06:37.999Z</time><extensions><gpxtpx:TrackPointExtension><gpxtpx:hr>110</gpxtpx:hr></gpxtpx:TrackPointExtension></extensions></trkpt>
<trkpt lat="22.4452134" lon="114.1778183">
<ele>9</ele><time>2020-12-28T08:06:40.999Z</time><extensions><gpxtpx:TrackPointExtension><gpxtpx:hr>109</gpxtpx:hr></gpxtpx:TrackPointExtension></extensions></trkpt>
<trkpt lat="22.4452432" lon="114.1777754">
<ele>9</ele><time>2020-12-28T08:06:42.999Z</time><extensions><gpxtpx:TrackPointExtension><gpxtpx:hr>109</gpxtpx:hr></gpxtpx:TrackPointExtension></extensions></trkpt>
<trkpt lat="22.4452828" lon="114.1777325">
<ele>9</ele><time>2020-12-28T08:06:44.999Z</time><extensions><gpxtpx:TrackPointExtension><gpxtpx:hr>111</gpxtpx:hr></gpxtpx:TrackPointExtension></extensions></trkpt>
<trkpt lat="22.4453324" lon="114.1777110">
<ele>9</ele><time>2020-12-28T08:06:47.999Z</time><extensions><gpxtpx:TrackPointExtension><gpxtpx:hr>111</gpxtpx:hr></gpxtpx:TrackPointExtension></extensions></trkpt>
<trkpt lat="22.4453820" lon="114.1776681">
<ele>9</ele><time>2020-12-28T08:06:50.999Z</time><extensions><gpxtpx:TrackPointExtension><gpxtpx:hr>111</gpxtpx:hr></gpxtpx:TrackPointExtension></extensions></trkpt>
<trkpt lat="22.4454316" lon="114.1776252">
<ele>9</ele><time>2020-12-28T08:06:53.998Z</time><extensions><gpxtpx:TrackPointExtension><gpxtpx:hr>110</gpxtpx:hr></gpxtpx:TrackPointExtension></extensions></trkpt>
<trkpt lat="22.4454812" lon="114.1776037">
<ele>9</ele><time>2020-12-28T08:06:56.998Z</time><extensions><gpxtpx:TrackPointExtension><gpxtpx:hr>110</gpxtpx:hr></gpxtpx:TrackPointExtension></extensions></trkpt>
<trkpt lat="22.4455208" lon="114.1775823">
<ele>9</ele><time>2020-12-28T08:06:58.998Z</time><extensions><gpxtpx:TrackPointExtension><gpxtpx:hr>108</gpxtpx:hr></gpxtpx:TrackPointExtension></extensions></trkpt>
<trkpt lat="22.4455605" lon="114.1775393">
<ele>9</ele><time>2020-12-28T08:07:01.998Z</time><extensions><gpxtpx:TrackPointExtension><gpxtpx:hr>108</gpxtpx:hr></gpxtpx:TrackPointExtension></extensions></trkpt>
<trkpt lat="22.4456002" lon="114.1774964">
<ele>9</ele><time>2020-12-28T08:07:03.998Z</time><extensions><gpxtpx:TrackPointExtension><gpxtpx:hr>108</gpxtpx:hr></gpxtpx:TrackPointExtension></extensions></trkpt>
<trkpt lat="22.4456398" lon="114.1774750">
<ele>9</ele><time>2020-12-28T08:07:05.998Z</time><extensions><gpxtpx:TrackPointExtension><gpxtpx:hr>108</gpxtpx:hr></gpxtpx:TrackPointExtension></extensions></trkpt>
<trkpt lat="22.4456993" lon="114.1774321">
<ele>9</ele><time>2020-12-28T08:07:09.998Z</time><extensions><gpxtpx:TrackPointExtension><gpxtpx:hr>108</gpxtpx:hr></gpxtpx:TrackPointExtension></extensions></trkpt>
<trkpt lat="22.4457489" lon="114.1773891">
<ele>9</ele><time>2020-12-28T08:07:13.998Z</time><extensions><gpxtpx:TrackPointExtension><gpxtpx:hr>108</gpxtpx:hr></gpxtpx:TrackPointExtension></extensions></trkpt>
<trkpt lat="22.4457886" lon="114.1773677">
<ele>9</ele><time>2020-12-28T08:07:16.998Z</time><extensions><gpxtpx:TrackPointExtension><gpxtpx:hr>108</gpxtpx:hr></gpxtpx:TrackPointExtension></extensions></trkpt>
<trkpt lat="22.4458282" lon="114.1773248">
<ele>9</ele><time>2020-12-28T08:07:19.998Z</time><extensions><gpxtpx:TrackPointExtension><gpxtpx:hr>110</gpxtpx:hr></gpxtpx:TrackPointExtension></extensions></trkpt>
<trkpt lat="22.4458778" lon="114.1773033">
<ele>9</ele><time>2020-12-28T08:07:22.999Z</time><extensions><gpxtpx:TrackPointExtension><gpxtpx:hr>110</gpxtpx:hr></gpxtpx:TrackPointExtension></extensions></trkpt>
<trkpt lat="22.4459175" lon="114.1772604">
<ele>9</ele><time>2020-12-28T08:07:25.999Z</time><extensions><gpxtpx:TrackPointExtension><gpxtpx:hr>110</gpxtpx:hr></gpxtpx:TrackPointExtension></extensions></trkpt>
<trkpt lat="22.4459571" lon="114.1772175">
<ele>9</ele><time>2020-12-28T08:07:29.999Z</time><extensions><gpxtpx:TrackPointExtension><gpxtpx:hr>110</gpxtpx:hr></gpxtpx:TrackPointExtension></extensions></trkpt>
<trkpt lat="22.4459869" lon="114.1771746">
<ele>9</ele><time>2020-12-28T08:07:32.999Z</time><extensions><gpxtpx:TrackPointExtension><gpxtpx:hr>110</gpxtpx:hr></gpxtpx:TrackPointExtension></extensions></trkpt>
<trkpt lat="22.4460166" lon="114.1771317">
<ele>9</ele><time>2020-12-28T08:07:37.999Z</time><extensions><gpxtpx:TrackPointExtension><gpxtpx:hr>111</gpxtpx:hr></gpxtpx:TrackPointExtension></extensions></trkpt>
<trkpt lat="22.4460563" lon="114.1771102">
<ele>9</ele><time>2020-12-28T08:07:41.999Z</time><extensions><gpxtpx:TrackPointExtension><gpxtpx:hr>112</gpxtpx:hr></gpxtpx:TrackPointExtension></extensions></trkpt>
<trkpt lat="22.4460960" lon="114.1771317">
<ele>9</ele><time>2020-12-28T08:07:44.999Z</time><extensions><gpxtpx:TrackPointExtension><gpxtpx:hr>114</gpxtpx:hr></gpxtpx:TrackPointExtension></extensions></trkpt>
<trkpt lat="22.4461356" lon="114.1771746">
<ele>9</ele><time>2020-12-28T08:07:49.999Z</time><extensions><gpxtpx:TrackPointExtension><gpxtpx:hr>113</gpxtpx:hr></gpxtpx:TrackPointExtension></extensions></trkpt>
<trkpt lat="22.4461951" lon="114.1771960">
<ele>9</ele><time>2020-12-28T08:07:54.999Z</time><extensions><gpxtpx:TrackPointExtension><gpxtpx:hr>114</gpxtpx:hr></gpxtpx:TrackPointExtension></extensions></trkpt>
<trkpt lat="22.4462447" lon="114.1772175">
<ele>9</ele><time>2020-12-28T08:07:56.999Z</time><extensions><gpxtpx:TrackPointExtension><gpxtpx:hr>114</gpxtpx:hr></gpxtpx:TrackPointExtension></extensions></trkpt>
<trkpt lat="22.4463042" lon="114.1771960">
<ele>9</ele><time>2020-12-28T08:07:58.999Z</time><extensions><gpxtpx:TrackPointExtension><gpxtpx:hr>117</gpxtpx:hr></gpxtpx:TrackPointExtension></extensions></trkpt>
<trkpt lat="22.4463736" lon="114.1771960">
<ele>9</ele><time>2020-12-28T08:08:00.999Z</time><extensions><gpxtpx:TrackPointExtension><gpxtpx:hr>117</gpxtpx:hr></gpxtpx:TrackPointExtension></extensions></trkpt>
<trkpt lat="22.4464430" lon="114.1771746">
<ele>9</ele><time>2020-12-28T08:08:02.999Z</time><extensions><gpxtpx:TrackPointExtension><gpxtpx:hr>117</gpxtpx:hr></gpxtpx:TrackPointExtension></extensions></trkpt>
<trkpt lat="22.4465025" lon="114.1771746">
<ele>9</ele><time>2020-12-28T08:08:04.999Z</time><extensions><gpxtpx:TrackPointExtension><gpxtpx:hr>118</gpxtpx:hr></gpxtpx:TrackPointExtension></extensions></trkpt>
<trkpt lat="22.4465620" lon="114.1771746">
<ele>9</ele><time>2020-12-28T08:08:06.999Z</time><extensions><gpxtpx:TrackPointExtension><gpxtpx:hr>118</gpxtpx:hr></gpxtpx:TrackPointExtension></extensions></trkpt>
<trkpt lat="22.4466215" lon="114.1771531">
<ele>9</ele><time>2020-12-28T08:08:08.999Z</time><extensions><gpxtpx:TrackPointExtension><gpxtpx:hr>117</gpxtpx:hr></gpxtpx:TrackPointExtension></extensions></trkpt>
<trkpt lat="22.4466810" lon="114.1771531">
<ele>9</ele><time>2020-12-28T08:08:10.999Z</time><extensions><gpxtpx:TrackPointExtension><gpxtpx:hr>117</gpxtpx:hr></gpxtpx:TrackPointExtension></extensions></trkpt>
<trkpt lat="22.4467405" lon="114.1771531">
<ele>9</ele><time>2020-12-28T08:08:12.999Z</time><extensions><gpxtpx:TrackPointExtension><gpxtpx:hr>117</gpxtpx:hr></gpxtpx:TrackPointExtension></extensions></trkpt>
<trkpt lat="22.4468000" lon="114.1771317">
<ele>9</ele><time>2020-12-28T08:08:14.999Z</time><extensions><gpxtpx:TrackPointExtension><gpxtpx:hr>122</gpxtpx:hr></gpxtpx:TrackPointExtension></extensions></trkpt>
<trkpt lat="22.4468595" lon="114.1771317">
<ele>9</ele><time>2020-12-28T08:08:16.999Z</time><extensions><gpxtpx:TrackPointExtension><gpxtpx:hr>122</gpxtpx:hr></gpxtpx:TrackPointExtension></extensions></trkpt>
<trkpt lat="22.4469190" lon="114.1771102">
<ele>9</ele><time>2020-12-28T08:08:18.999Z</time><extensions><gpxtpx:TrackPointExtension><gpxtpx:hr>121</gpxtpx:hr></gpxtpx:TrackPointExtension></extensions></trkpt>
<trkpt lat="22.4469785" lon="114.1771102">
<ele>9</ele><time>2020-12-28T08:08:20.999Z</time><extensions><gpxtpx:TrackPointExtension><gpxtpx:hr>121</gpxtpx:hr></gpxtpx:TrackPointExtension></extensions></trkpt>
<trkpt lat="22.4470281" lon="114.1771102">
<ele>9</ele><time>2020-12-28T08:08:22.999Z</time><extensions><gpxtpx:TrackPointExtension><gpxtpx:hr>121</gpxtpx:hr></gpxtpx:TrackPointExtension></extensions></trkpt>
<trkpt lat="22.4470776" lon="114.1771102">
<ele>9</ele><time>2020-12-28T08:08:24.999Z</time><extensions><gpxtpx:TrackPointExtension><gpxtpx:hr>117</gpxtpx:hr></gpxtpx:TrackPointExtension></extensions></trkpt>
<trkpt lat="22.4471371" lon="114.1771102">
<ele>9</ele><time>2020-12-28T08:08:26.999Z</time><extensions><gpxtpx:TrackPointExtension><gpxtpx:hr>117</gpxtpx:hr></gpxtpx:TrackPointExtension></extensions></trkpt>
<trkpt lat="22.4471966" lon="114.1770887">
<ele>9</ele><time>2020-12-28T08:08:28.999Z</time><extensions><gpxtpx:TrackPointExtension><gpxtpx:hr>118</gpxtpx:hr></gpxtpx:TrackPointExtension></extensions></trkpt>
<trkpt lat="22.4472561" lon="114.1770887">
<ele>9</ele><time>2020-12-28T08:08:31.999Z</time><extensions><gpxtpx:TrackPointExtension><gpxtpx:hr>118</gpxtpx:hr></gpxtpx:TrackPointExtension></extensions></trkpt>
<trkpt lat="22.4473057" lon="114.1770673">
<ele>9</ele><time>2020-12-28T08:08:33.999Z</time><extensions><gpxtpx:TrackPointExtension><gpxtpx:hr>116</gpxtpx:hr></gpxtpx:TrackPointExtension></extensions></trkpt>
<trkpt lat="22.4473652" lon="114.1770673">
<ele>9</ele><time>2020-12-28T08:08:35.999Z</time><extensions><gpxtpx:TrackPointExtension><gpxtpx:hr>116</gpxtpx:hr></gpxtpx:TrackPointExtension></extensions></trkpt>
<trkpt lat="22.4474049" lon="114.1770458">
<ele>9</ele><time>2020-12-28T08:08:37.999Z</time><extensions><gpxtpx:TrackPointExtension><gpxtpx:hr>116</gpxtpx:hr></gpxtpx:TrackPointExtension></extensions></trkpt>
<trkpt lat="22.4474445" lon="114.1770673">
<ele>10</ele><time>2020-12-28T08:08:39.999Z</time><extensions><gpxtpx:TrackPointExtension><gpxtpx:hr>115</gpxtpx:hr></gpxtpx:TrackPointExtension></extensions></trkpt>
<trkpt lat="22.4474842" lon="114.1770458">
<ele>10</ele><time>2020-12-28T08:08:40.999Z</time><extensions><gpxtpx:TrackPointExtension><gpxtpx:hr>115</gpxtpx:hr></gpxtpx:TrackPointExtension></extensions></trkpt>
<trkpt lat="22.4475338" lon="114.1770458">
<ele>10</ele><time>2020-12-28T08:08:42.999Z</time><extensions><gpxtpx:TrackPointExtension><gpxtpx:hr>115</gpxtpx:hr></gpxtpx:TrackPointExtension></extensions></trkpt>
<trkpt lat="22.4476032" lon="114.1770244">
<ele>10</ele><time>2020-12-28T08:08:44.999Z</time><extensions><gpxtpx:TrackPointExtension><gpxtpx:hr>115</gpxtpx:hr></gpxtpx:TrackPointExtension></extensions></trkpt>
<trkpt lat="22.4476528" lon="114.1770244">
<ele>10</ele><time>2020-12-28T08:08:46.999Z</time><extensions><gpxtpx:TrackPointExtension><gpxtpx:hr>115</gpxtpx:hr></gpxtpx:TrackPointExtension></extensions></trkpt>
<trkpt lat="22.4477222" lon="114.1770244">
<ele>10</ele><time>2020-12-28T08:08:48.999Z</time><extensions><gpxtpx:TrackPointExtension><gpxtpx:hr>115</gpxtpx:hr></gpxtpx:TrackPointExtension></extensions></trkpt>
<trkpt lat="22.4477718" lon="114.1770244">
<ele>10</ele><time>2020-12-28T08:08:50.999Z</time><extensions><gpxtpx:TrackPointExtension><gpxtpx:hr>115</gpxtpx:hr></gpxtpx:TrackPointExtension></extensions></trkpt>
<trkpt lat="22.4478213" lon="114.1770029">
<ele>10</ele><time>2020-12-28T08:08:52.999Z</time><extensions><gpxtpx:TrackPointExtension><gpxtpx:hr>115</gpxtpx:hr></gpxtpx:TrackPointExtension></extensions></trkpt>
<trkpt lat="22.4478808" lon="114.1770244">
<ele>10</ele><time>2020-12-28T08:08:55.999Z</time><extensions><gpxtpx:TrackPointExtension><gpxtpx:hr>115</gpxtpx:hr></gpxtpx:TrackPointExtension></extensions></trkpt>
<trkpt lat="22.4479403" lon="114.1770029">
<ele>10</ele><time>2020-12-28T08:08:58.998Z</time><extensions><gpxtpx:TrackPointExtension><gpxtpx:hr>117</gpxtpx:hr></gpxtpx:TrackPointExtension></extensions></trkpt>
<trkpt lat="22.4479899" lon="114.1770029">
<ele>10</ele><time>2020-12-28T08:09:00.998Z</time><extensions><gpxtpx:TrackPointExtension><gpxtpx:hr>117</gpxtpx:hr></gpxtpx:TrackPointExtension></extensions></trkpt>
<trkpt lat="22.4480593" lon="114.1770029">
<ele>10</ele><time>2020-12-28T08:09:03.998Z</time><extensions><gpxtpx:TrackPointExtension><gpxtpx:hr>117</gpxtpx:hr></gpxtpx:TrackPointExtension></extensions></trkpt>
<trkpt lat="22.4481089" lon="114.1769814">
<ele>10</ele><time>2020-12-28T08:09:05.998Z</time><extensions><gpxtpx:TrackPointExtension><gpxtpx:hr>117</gpxtpx:hr></gpxtpx:TrackPointExtension></extensions></trkpt>
<trkpt lat="22.4481585" lon="114.1769814">
<ele>10</ele><time>2020-12-28T08:09:07.998Z</time><extensions><gpxtpx:TrackPointExtension><gpxtpx:hr>117</gpxtpx:hr></gpxtpx:TrackPointExtension></extensions></trkpt>
<trkpt lat="22.4482180" lon="114.1769814">
<ele>11</ele><time>2020-12-28T08:09:10.998Z</time><extensions><gpxtpx:TrackPointExtension><gpxtpx:hr>117</gpxtpx:hr></gpxtpx:TrackPointExtension></extensions></trkpt>
<trkpt lat="22.4482676" lon="114.1769600">
<ele>11</ele><time>2020-12-28T08:09:12.998Z</time><extensions><gpxtpx:TrackPointExtension><gpxtpx:hr>117</gpxtpx:hr></gpxtpx:TrackPointExtension></extensions></trkpt>
<trkpt lat="22.4483270" lon="114.1769385">
<ele>11</ele><time>2020-12-28T08:09:15.998Z</time><extensions><gpxtpx:TrackPointExtension><gpxtpx:hr>117</gpxtpx:hr></gpxtpx:TrackPointExtension></extensions></trkpt>
<trkpt lat="22.4483865" lon="114.1769385">
<ele>11</ele><time>2020-12-28T08:09:18.998Z</time><extensions><gpxtpx:TrackPointExtension><gpxtpx:hr>120</gpxtpx:hr></gpxtpx:TrackPointExtension></extensions></trkpt>
<trkpt lat="22.4484460" lon="114.1769385">
<ele>11</ele><time>2020-12-28T08:09:21.998Z</time><extensions><gpxtpx:TrackPointExtension><gpxtpx:hr>120</gpxtpx:hr></gpxtpx:TrackPointExtension></extensions></trkpt>
<trkpt lat="22.4484857" lon="114.1769171">
<ele>11</ele><time>2020-12-28T08:09:23.998Z</time><extensions><gpxtpx:TrackPointExtension><gpxtpx:hr>121</gpxtpx:hr></gpxtpx:TrackPointExtension></extensions></trkpt>
<trkpt lat="22.4485353" lon="114.1769171">
<ele>11</ele><time>2020-12-28T08:09:25.998Z</time><extensions><gpxtpx:TrackPointExtension><gpxtpx:hr>121</gpxtpx:hr></gpxtpx:TrackPointExtension></extensions></trkpt>
<trkpt lat="22.4485849" lon="114.1769171">
<ele>11</ele><time>2020-12-28T08:09:27.998Z</time><extensions><gpxtpx:TrackPointExtension><gpxtpx:hr>121</gpxtpx:hr></gpxtpx:TrackPointExtension></extensions></trkpt>
<trkpt lat="22.4486543" lon="114.1769171">
<ele>11</ele><time>2020-12-28T08:09:30.999Z</time><extensions><gpxtpx:TrackPointExtension><gpxtpx:hr>119</gpxtpx:hr></gpxtpx:TrackPointExtension></extensions></trkpt>
<trkpt lat="22.4487039" lon="114.1769385">
<ele>11</ele><time>2020-12-28T08:09:32.999Z</time><extensions><gpxtpx:TrackPointExtension><gpxtpx:hr>119</gpxtpx:hr></gpxtpx:TrackPointExtension></extensions></trkpt>
<trkpt lat="22.4487733" lon="114.1769385">
<ele>11</ele><time>2020-12-28T08:09:35.999Z</time><extensions><gpxtpx:TrackPointExtension><gpxtpx:hr>119</gpxtpx:hr></gpxtpx:TrackPointExtension></extensions></trkpt>
<trkpt lat="22.4488328" lon="114.1769385">
<ele>11</ele><time>2020-12-28T08:09:38.999Z</time><extensions><gpxtpx:TrackPointExtension><gpxtpx:hr>121</gpxtpx:hr></gpxtpx:TrackPointExtension></extensions></trkpt>
<trkpt lat="22.4488823" lon="114.1769600">
<ele>11</ele><time>2020-12-28T08:09:41.999Z</time><extensions><gpxtpx:TrackPointExtension><gpxtpx:hr>121</gpxtpx:hr></gpxtpx:TrackPointExtension></extensions></trkpt>
<trkpt lat="22.4489418" lon="114.1769600">
<ele>11</ele><time>2020-12-28T08:09:45.999Z</time><extensions><gpxtpx:TrackPointExtension><gpxtpx:hr>120</gpxtpx:hr></gpxtpx:TrackPointExtension></extensions></trkpt>
<trkpt lat="22.4489914" lon="114.1769600">
<ele>11</ele><time>2020-12-28T08:09:48.999Z</time><extensions><gpxtpx:TrackPointExtension><gpxtpx:hr>123</gpxtpx:hr></gpxtpx:TrackPointExtension></extensions></trkpt>
<trkpt lat="22.4490410" lon="114.1769814">
<ele>11</ele><time>2020-12-28T08:09:51.999Z</time><extensions><gpxtpx:TrackPointExtension><gpxtpx:hr>123</gpxtpx:hr></gpxtpx:TrackPointExtension></extensions></trkpt>
<trkpt lat="22.4491005" lon="114.1769814">
<ele>12</ele><time>2020-12-28T08:09:54.999Z</time><extensions><gpxtpx:TrackPointExtension><gpxtpx:hr>125</gpxtpx:hr></gpxtpx:TrackPointExtension></extensions></trkpt>
<trkpt lat="22.4491600" lon="114.1769814">
<ele>12</ele><time>2020-12-28T08:09:57.999Z</time><extensions><gpxtpx:TrackPointExtension><gpxtpx:hr>125</gpxtpx:hr></gpxtpx:TrackPointExtension></extensions></trkpt>
<trkpt lat="22.4492096" lon="114.1769814">
<ele>12</ele><time>2020-12-28T08:10:00.999Z</time><extensions><gpxtpx:TrackPointExtension><gpxtpx:hr>126</gpxtpx:hr></gpxtpx:TrackPointExtension></extensions></trkpt>
<trkpt lat="22.4492492" lon="114.1770029">
<ele>12</ele><time>2020-12-28T08:10:02.999Z</time><extensions><gpxtpx:TrackPointExtension><gpxtpx:hr>126</gpxtpx:hr></gpxtpx:TrackPointExtension></extensions></trkpt>
<trkpt lat="22.4493186" lon="114.1770029">
<ele>12</ele><time>2020-12-28T08:10:05.999Z</time><extensions><gpxtpx:TrackPointExtension><gpxtpx:hr>126</gpxtpx:hr></gpxtpx:TrackPointExtension></extensions></trkpt>
<trkpt lat="22.4493682" lon="114.1770029">
<ele>12</ele><time>2020-12-28T08:10:07.999Z</time><extensions><gpxtpx:TrackPointExtension><gpxtpx:hr>126</gpxtpx:hr></gpxtpx:TrackPointExtension></extensions></trkpt>
<trkpt lat="22.4494178" lon="114.1770244">
<ele>12</ele><time>2020-12-28T08:10:09.999Z</time><extensions><gpxtpx:TrackPointExtension><gpxtpx:hr>126</gpxtpx:hr></gpxtpx:TrackPointExtension></extensions></trkpt>
<trkpt lat="22.4494773" lon="114.1770244">
<ele>12</ele><time>2020-12-28T08:10:12.999Z</time><extensions><gpxtpx:TrackPointExtension><gpxtpx:hr>126</gpxtpx:hr></gpxtpx:TrackPointExtension></extensions></trkpt>
<trkpt lat="22.4495269" lon="114.1770244">
<ele>12</ele><time>2020-12-28T08:10:14.999Z</time><extensions><gpxtpx:TrackPointExtension><gpxtpx:hr>126</gpxtpx:hr></gpxtpx:TrackPointExtension></extensions></trkpt>
<trkpt lat="22.4495764" lon="114.1770458">
<ele>12</ele><time>2020-12-28T08:10:16.999Z</time><extensions><gpxtpx:TrackPointExtension><gpxtpx:hr>126</gpxtpx:hr></gpxtpx:TrackPointExtension></extensions></trkpt>
<trkpt lat="22.4496359" lon="114.1770458">
<ele>11</ele><time>2020-12-28T08:10:18.999Z</time><extensions><gpxtpx:TrackPointExtension><gpxtpx:hr>120</gpxtpx:hr></gpxtpx:TrackPointExtension></extensions></trkpt>
<trkpt lat="22.4496954" lon="114.1770458">
<ele>11</ele><time>2020-12-28T08:10:20.999Z</time><extensions><gpxtpx:TrackPointExtension><gpxtpx:hr>120</gpxtpx:hr></gpxtpx:TrackPointExtension></extensions></trkpt>
<trkpt lat="22.4497450" lon="114.1770673">
<ele>11</ele><time>2020-12-28T08:10:22.999Z</time><extensions><gpxtpx:TrackPointExtension><gpxtpx:hr>120</gpxtpx:hr></gpxtpx:TrackPointExtension></extensions></trkpt>
<trkpt lat="22.4497946" lon="114.1770887">
<ele>11</ele><time>2020-12-28T08:10:24.999Z</time><extensions><gpxtpx:TrackPointExtension><gpxtpx:hr>119</gpxtpx:hr></gpxtpx:TrackPointExtension></extensions></trkpt>
<trkpt lat="22.4498640" lon="114.1771102">
<ele>11</ele><time>2020-12-28T08:10:27.999Z</time><extensions><gpxtpx:TrackPointExtension><gpxtpx:hr>119</gpxtpx:hr></gpxtpx:TrackPointExtension></extensions></trkpt>
<trkpt lat="22.4499136" lon="114.1771531">
<ele>11</ele><time>2020-12-28T08:10:30.999Z</time><extensions><gpxtpx:TrackPointExtension><gpxtpx:hr>116</gpxtpx:hr></gpxtpx:TrackPointExtension></extensions></trkpt>
<trkpt lat="22.4499632" lon="114.1771960">
<ele>11</ele><time>2020-12-28T08:10:33.999Z</time><extensions><gpxtpx:TrackPointExtension><gpxtpx:hr>116</gpxtpx:hr></gpxtpx:TrackPointExtension></extensions></trkpt>
<trkpt lat="22.4500226" lon="114.1772389">
<ele>11</ele><time>2020-12-28T08:10:36.999Z</time><extensions><gpxtpx:TrackPointExtension><gpxtpx:hr>115</gpxtpx:hr></gpxtpx:TrackPointExtension></extensions></trkpt>
<trkpt lat="22.4500722" lon="114.1772604">
<ele>11</ele><time>2020-12-28T08:10:39.999Z</time><extensions><gpxtpx:TrackPointExtension><gpxtpx:hr>115</gpxtpx:hr></gpxtpx:TrackPointExtension></extensions></trkpt>
<trkpt lat="22.4501119" lon="114.1772819">
<ele>10</ele><time>2020-12-28T08:10:41.999Z</time><extensions><gpxtpx:TrackPointExtension><gpxtpx:hr>115</gpxtpx:hr></gpxtpx:TrackPointExtension></extensions></trkpt>
<trkpt lat="22.4501615" lon="114.1773248">
<ele>10</ele><time>2020-12-28T08:10:43.999Z</time><extensions><gpxtpx:TrackPointExtension><gpxtpx:hr>116</gpxtpx:hr></gpxtpx:TrackPointExtension></extensions></trkpt>
<trkpt lat="22.4502110" lon="114.1773248">
<ele>10</ele><time>2020-12-28T08:10:45.999Z</time><extensions><gpxtpx:TrackPointExtension><gpxtpx:hr>116</gpxtpx:hr></gpxtpx:TrackPointExtension></extensions></trkpt>
<trkpt lat="22.4502606" lon="114.1773248">
<ele>10</ele><time>2020-12-28T08:10:47.999Z</time><extensions><gpxtpx:TrackPointExtension><gpxtpx:hr>116</gpxtpx:hr></gpxtpx:TrackPointExtension></extensions></trkpt>
<trkpt lat="22.4503201" lon="114.1773248">
<ele>10</ele><time>2020-12-28T08:10:49.999Z</time><extensions><gpxtpx:TrackPointExtension><gpxtpx:hr>116</gpxtpx:hr></gpxtpx:TrackPointExtension></extensions></trkpt>
<trkpt lat="22.4503697" lon="114.1773462">
<ele>10</ele><time>2020-12-28T08:10:51.999Z</time><extensions><gpxtpx:TrackPointExtension><gpxtpx:hr>116</gpxtpx:hr></gpxtpx:TrackPointExtension></extensions></trkpt>
<trkpt lat="22.4504193" lon="114.1773462">
<ele>10</ele><time>2020-12-28T08:10:53.999Z</time><extensions><gpxtpx:TrackPointExtension><gpxtpx:hr>113</gpxtpx:hr></gpxtpx:TrackPointExtension></extensions></trkpt>
<trkpt lat="22.4504788" lon="114.1773677">
<ele>10</ele><time>2020-12-28T08:10:55.999Z</time><extensions><gpxtpx:TrackPointExtension><gpxtpx:hr>113</gpxtpx:hr></gpxtpx:TrackPointExtension></extensions></trkpt>
<trkpt lat="22.4505284" lon="114.1773677">
<ele>9</ele><time>2020-12-28T08:10:57.999Z</time><extensions><gpxtpx:TrackPointExtension><gpxtpx:hr>113</gpxtpx:hr></gpxtpx:TrackPointExtension></extensions></trkpt>
<trkpt lat="22.4505878" lon="114.1773677">
<ele>9</ele><time>2020-12-28T08:10:59.999Z</time><extensions><gpxtpx:TrackPointExtension><gpxtpx:hr>112</gpxtpx:hr></gpxtpx:TrackPointExtension></extensions></trkpt>
<trkpt lat="22.4506473" lon="114.1773891">
<ele>9</ele><time>2020-12-28T08:11:01.999Z</time><extensions><gpxtpx:TrackPointExtension><gpxtpx:hr>112</gpxtpx:hr></gpxtpx:TrackPointExtension></extensions></trkpt>
<trkpt lat="22.4507167" lon="114.1774106">
<ele>9</ele><time>2020-12-28T08:11:03.999Z</time><extensions><gpxtpx:TrackPointExtension><gpxtpx:hr>110</gpxtpx:hr></gpxtpx:TrackPointExtension></extensions></trkpt>
<trkpt lat="22.4507762" lon="114.1774106">
<ele>8</ele><time>2020-12-28T08:11:05.999Z</time><extensions><gpxtpx:TrackPointExtension><gpxtpx:hr>110</gpxtpx:hr></gpxtpx:TrackPointExtension></extensions></trkpt>
<trkpt lat="22.4508258" lon="114.1774321">
<ele>8</ele><time>2020-12-28T08:11:07.998Z</time><extensions><gpxtpx:TrackPointExtension><gpxtpx:hr>110</gpxtpx:hr></gpxtpx:TrackPointExtension></extensions></trkpt>
<trkpt lat="22.4508853" lon="114.1774321">
<ele>8</ele><time>2020-12-28T08:11:09.998Z</time><extensions><gpxtpx:TrackPointExtension><gpxtpx:hr>109</gpxtpx:hr></gpxtpx:TrackPointExtension></extensions></trkpt>
<trkpt lat="22.4509448" lon="114.1774535">
<ele>8</ele><time>2020-12-28T08:11:11.998Z</time><extensions><gpxtpx:TrackPointExtension><gpxtpx:hr>109</gpxtpx:hr></gpxtpx:TrackPointExtension></extensions></trkpt>
<trkpt lat="22.4509944" lon="114.1774535">
<ele>7</ele><time>2020-12-28T08:11:13.998Z</time><extensions><gpxtpx:TrackPointExtension><gpxtpx:hr>109</gpxtpx:hr></gpxtpx:TrackPointExtension></extensions></trkpt>
<trkpt lat="22.4510340" lon="114.1774321">
<ele>7</ele><time>2020-12-28T08:11:15.998Z</time><extensions><gpxtpx:TrackPointExtension><gpxtpx:hr>109</gpxtpx:hr></gpxtpx:TrackPointExtension></extensions></trkpt>
<trkpt lat="22.4511035" lon="114.1774106">
<ele>7</ele><time>2020-12-28T08:11:18.998Z</time><extensions><gpxtpx:TrackPointExtension><gpxtpx:hr>109</gpxtpx:hr></gpxtpx:TrackPointExtension></extensions></trkpt>
<trkpt lat="22.4511729" lon="114.1773677">
<ele>6</ele><time>2020-12-28T08:11:20.998Z</time><extensions><gpxtpx:TrackPointExtension><gpxtpx:hr>109</gpxtpx:hr></gpxtpx:TrackPointExtension></extensions></trkpt>
<trkpt lat="22.4511927" lon="114.1772819">
<ele>6</ele><time>2020-12-28T08:11:22.998Z</time><extensions><gpxtpx:TrackPointExtension><gpxtpx:hr>109</gpxtpx:hr></gpxtpx:TrackPointExtension></extensions></trkpt>
<trkpt lat="22.4512026" lon="114.1771960">
<ele>6</ele><time>2020-12-28T08:11:25.998Z</time><extensions><gpxtpx:TrackPointExtension><gpxtpx:hr>111</gpxtpx:hr></gpxtpx:TrackPointExtension></extensions></trkpt>
<trkpt lat="22.4512125" lon="114.1771317">
<ele>6</ele><time>2020-12-28T08:11:28.025Z</time><extensions><gpxtpx:TrackPointExtension><gpxtpx:hr>111</gpxtpx:hr></gpxtpx:TrackPointExtension></extensions></trkpt>
<trkpt lat="22.4512224" lon="114.1770673">
<ele>6</ele><time>2020-12-28T08:11:29.998Z</time><extensions><gpxtpx:TrackPointExtension><gpxtpx:hr>111</gpxtpx:hr></gpxtpx:TrackPointExtension></extensions></trkpt>
<trkpt lat="22.4512423" lon="114.1770244">
<ele>6</ele><time>2020-12-28T08:11:30.998Z</time><extensions><gpxtpx:TrackPointExtension><gpxtpx:hr>111</gpxtpx:hr></gpxtpx:TrackPointExtension></extensions></trkpt>
<trkpt lat="22.4512423" lon="114.1769385">
<ele>6</ele><time>2020-12-28T08:11:32.998Z</time><extensions><gpxtpx:TrackPointExtension><gpxtpx:hr>111</gpxtpx:hr></gpxtpx:TrackPointExtension></extensions></trkpt>
<trkpt lat="22.4512919" lon="114.1768956">
<ele>6</ele><time>2020-12-28T08:11:35.000Z</time><extensions><gpxtpx:TrackPointExtension><gpxtpx:hr>111</gpxtpx:hr></gpxtpx:TrackPointExtension></extensions></trkpt>
<trkpt lat="22.4513414" lon="114.1769171">
<ele>6</ele><time>2020-12-28T08:11:37.000Z</time><extensions><gpxtpx:TrackPointExtension><gpxtpx:hr>111</gpxtpx:hr></gpxtpx:TrackPointExtension></extensions></trkpt>
<trkpt lat="22.4513910" lon="114.1769171">
<ele>6</ele><time>2020-12-28T08:11:39.000Z</time><extensions><gpxtpx:TrackPointExtension><gpxtpx:hr>111</gpxtpx:hr></gpxtpx:TrackPointExtension></extensions></trkpt>
<trkpt lat="22.4514604" lon="114.1769385">
<ele>6</ele><time>2020-12-28T08:11:42.000Z</time><extensions><gpxtpx:TrackPointExtension><gpxtpx:hr>111</gpxtpx:hr></gpxtpx:TrackPointExtension></extensions></trkpt>
<trkpt lat="22.4515199" lon="114.1769385">
<ele>7</ele><time>2020-12-28T08:11:45.000Z</time><extensions><gpxtpx:TrackPointExtension><gpxtpx:hr>112</gpxtpx:hr></gpxtpx:TrackPointExtension></extensions></trkpt>
<trkpt lat="22.4515695" lon="114.1769385">
<ele>7</ele><time>2020-12-28T08:11:49.000Z</time><extensions><gpxtpx:TrackPointExtension><gpxtpx:hr>112</gpxtpx:hr></gpxtpx:TrackPointExtension></extensions></trkpt>
<trkpt lat="22.4516191" lon="114.1769385">
<ele>8</ele><time>2020-12-28T08:12:10.999Z</time><extensions><gpxtpx:TrackPointExtension><gpxtpx:hr>118</gpxtpx:hr></gpxtpx:TrackPointExtension></extensions></trkpt>
<trkpt lat="22.4516687" lon="114.1769600">
<ele>8</ele><time>2020-12-28T08:12:21.999Z</time><extensions><gpxtpx:TrackPointExtension><gpxtpx:hr>117</gpxtpx:hr></gpxtpx:TrackPointExtension></extensions></trkpt>
<trkpt lat="22.4517182" lon="114.1769600">
<ele>8</ele><time>2020-12-28T08:12:25.999Z</time><extensions><gpxtpx:TrackPointExtension><gpxtpx:hr>116</gpxtpx:hr></gpxtpx:TrackPointExtension></extensions></trkpt>
<trkpt lat="22.4517678" lon="114.1769600">
<ele>8</ele><time>2020-12-28T08:12:30.999Z</time><extensions><gpxtpx:TrackPointExtension><gpxtpx:hr>114</gpxtpx:hr></gpxtpx:TrackPointExtension></extensions></trkpt>
<trkpt lat="22.4517579" lon="114.1768956">
<ele>8</ele><time>2020-12-28T08:15:30.998Z</time><extensions><gpxtpx:TrackPointExtension><gpxtpx:hr>105</gpxtpx:hr></gpxtpx:TrackPointExtension></extensions></trkpt>
<trkpt lat="22.4517777" lon="114.1769385">
<ele>8</ele><time>2020-12-28T08:17:29.998Z</time><extensions><gpxtpx:TrackPointExtension><gpxtpx:hr>108</gpxtpx:hr></gpxtpx:TrackPointExtension></extensions></trkpt>
<trkpt lat="22.4517976" lon="114.1768956">
<ele>8</ele><time>2020-12-28T08:19:06.999Z</time><extensions><gpxtpx:TrackPointExtension><gpxtpx:hr>109</gpxtpx:hr></gpxtpx:TrackPointExtension></extensions></trkpt>
<trkpt lat="22.4518670" lon="114.1768527">
<ele>8</ele><time>2020-12-28T08:20:55.999Z</time><extensions><gpxtpx:TrackPointExtension><gpxtpx:hr>107</gpxtpx:hr></gpxtpx:TrackPointExtension></extensions></trkpt>
<trkpt lat="22.4518471" lon="114.1768956">
<ele>8</ele><time>2020-12-28T08:20:59.999Z</time><extensions><gpxtpx:TrackPointExtension><gpxtpx:hr>108</gpxtpx:hr></gpxtpx:TrackPointExtension></extensions></trkpt>
<trkpt lat="22.4518075" lon="114.1769171">
<ele>8</ele><time>2020-12-28T08:21:18.999Z</time><extensions><gpxtpx:TrackPointExtension><gpxtpx:hr>109</gpxtpx:hr></gpxtpx:TrackPointExtension></extensions></trkpt>
<trkpt lat="22.4518075" lon="114.1769814">
<ele>8</ele><time>2020-12-28T08:22:20.000Z</time><extensions><gpxtpx:TrackPointExtension><gpxtpx:hr>111</gpxtpx:hr></gpxtpx:TrackPointExtension></extensions></trkpt>
<trkpt lat="22.4518471" lon="114.1770029">
<ele>9</ele><time>2020-12-28T08:22:36.999Z</time><extensions><gpxtpx:TrackPointExtension><gpxtpx:hr>111</gpxtpx:hr></gpxtpx:TrackPointExtension></extensions></trkpt>
<trkpt lat="22.4518967" lon="114.1770029">
<ele>9</ele><time>2020-12-28T08:22:44.999Z</time><extensions><gpxtpx:TrackPointExtension><gpxtpx:hr>112</gpxtpx:hr></gpxtpx:TrackPointExtension></extensions></trkpt>
<trkpt lat="22.4519364" lon="114.1770244">
<ele>9</ele><time>2020-12-28T08:22:49.999Z</time><extensions><gpxtpx:TrackPointExtension><gpxtpx:hr>111</gpxtpx:hr></gpxtpx:TrackPointExtension></extensions></trkpt>
<trkpt lat="22.4519859" lon="114.1770244">
<ele>9</ele><time>2020-12-28T08:22:53.999Z</time><extensions><gpxtpx:TrackPointExtension><gpxtpx:hr>111</gpxtpx:hr></gpxtpx:TrackPointExtension></extensions></trkpt>
<trkpt lat="22.4520355" lon="114.1770458">
<ele>9</ele><time>2020-12-28T08:22:57.999Z</time><extensions><gpxtpx:TrackPointExtension><gpxtpx:hr>111</gpxtpx:hr></gpxtpx:TrackPointExtension></extensions></trkpt>
<trkpt lat="22.4520653" lon="114.1770887">
<ele>9</ele><time>2020-12-28T08:23:00.999Z</time><extensions><gpxtpx:TrackPointExtension><gpxtpx:hr>112</gpxtpx:hr></gpxtpx:TrackPointExtension></extensions></trkpt>
<trkpt lat="22.4521149" lon="114.1770887">
<ele>9</ele><time>2020-12-28T08:23:03.999Z</time><extensions><gpxtpx:TrackPointExtension><gpxtpx:hr>117</gpxtpx:hr></gpxtpx:TrackPointExtension></extensions></trkpt>
<trkpt lat="22.4521545" lon="114.1771102">
<ele>9</ele><time>2020-12-28T08:23:06.999Z</time><extensions><gpxtpx:TrackPointExtension><gpxtpx:hr>117</gpxtpx:hr></gpxtpx:TrackPointExtension></extensions></trkpt>
<trkpt lat="22.4521942" lon="114.1771531">
<ele>9</ele><time>2020-12-28T08:23:10.999Z</time><extensions><gpxtpx:TrackPointExtension><gpxtpx:hr>117</gpxtpx:hr></gpxtpx:TrackPointExtension></extensions></trkpt>
<trkpt lat="22.4522338" lon="114.1771746">
<ele>9</ele><time>2020-12-28T08:23:14.999Z</time><extensions><gpxtpx:TrackPointExtension><gpxtpx:hr>117</gpxtpx:hr></gpxtpx:TrackPointExtension></extensions></trkpt>
<trkpt lat="22.4522636" lon="114.1772175">
<ele>10</ele><time>2020-12-28T08:23:21.999Z</time><extensions><gpxtpx:TrackPointExtension><gpxtpx:hr>117</gpxtpx:hr></gpxtpx:TrackPointExtension></extensions></trkpt>
<trkpt lat="22.4523032" lon="114.1772604">
<ele>10</ele><time>2020-12-28T08:23:30.999Z</time><extensions><gpxtpx:TrackPointExtension><gpxtpx:hr>125</gpxtpx:hr></gpxtpx:TrackPointExtension></extensions></trkpt>
<trkpt lat="22.4523528" lon="114.1772819">
<ele>10</ele><time>2020-12-28T08:23:40.998Z</time><extensions><gpxtpx:TrackPointExtension><gpxtpx:hr>124</gpxtpx:hr></gpxtpx:TrackPointExtension></extensions></trkpt>
<trkpt lat="22.4523826" lon="114.1773248">
<ele>10</ele><time>2020-12-28T08:23:47.998Z</time><extensions><gpxtpx:TrackPointExtension><gpxtpx:hr>120</gpxtpx:hr></gpxtpx:TrackPointExtension></extensions></trkpt>
<trkpt lat="22.4524322" lon="114.1773462">
<ele>11</ele><time>2020-12-28T08:23:50.998Z</time><extensions><gpxtpx:TrackPointExtension><gpxtpx:hr>120</gpxtpx:hr></gpxtpx:TrackPointExtension></extensions></trkpt>
<trkpt lat="22.4525016" lon="114.1773677">
<ele>10</ele><time>2020-12-28T08:23:53.998Z</time><extensions><gpxtpx:TrackPointExtension><gpxtpx:hr>120</gpxtpx:hr></gpxtpx:TrackPointExtension></extensions></trkpt>
<trkpt lat="22.4525412" lon="114.1773891">
<ele>10</ele><time>2020-12-28T08:23:55.998Z</time><extensions><gpxtpx:TrackPointExtension><gpxtpx:hr>120</gpxtpx:hr></gpxtpx:TrackPointExtension></extensions></trkpt>
<trkpt lat="22.4526007" lon="114.1774106">
<ele>10</ele><time>2020-12-28T08:23:57.998Z</time><extensions><gpxtpx:TrackPointExtension><gpxtpx:hr>120</gpxtpx:hr></gpxtpx:TrackPointExtension></extensions></trkpt>
<trkpt lat="22.4526701" lon="114.1774321">
<ele>10</ele><time>2020-12-28T08:24:00.998Z</time><extensions><gpxtpx:TrackPointExtension><gpxtpx:hr>123</gpxtpx:hr></gpxtpx:TrackPointExtension></extensions></trkpt>
<trkpt lat="22.4527197" lon="114.1774535">
<ele>10</ele><time>2020-12-28T08:24:02.998Z</time><extensions><gpxtpx:TrackPointExtension><gpxtpx:hr>123</gpxtpx:hr></gpxtpx:TrackPointExtension></extensions></trkpt>
<trkpt lat="22.4527792" lon="114.1774750">
<ele>10</ele><time>2020-12-28T08:24:05.998Z</time><extensions><gpxtpx:TrackPointExtension><gpxtpx:hr>125</gpxtpx:hr></gpxtpx:TrackPointExtension></extensions></trkpt>
<trkpt lat="22.4528387" lon="114.1774964">
<ele>10</ele><time>2020-12-28T08:24:07.998Z</time><extensions><gpxtpx:TrackPointExtension><gpxtpx:hr>125</gpxtpx:hr></gpxtpx:TrackPointExtension></extensions></trkpt>
<trkpt lat="22.4528982" lon="114.1775179">
<ele>10</ele><time>2020-12-28T08:24:09.998Z</time><extensions><gpxtpx:TrackPointExtension><gpxtpx:hr>124</gpxtpx:hr></gpxtpx:TrackPointExtension></extensions></trkpt>
<trkpt lat="22.4529478" lon="114.1775393">
<ele>10</ele><time>2020-12-28T08:24:12.000Z</time><extensions><gpxtpx:TrackPointExtension><gpxtpx:hr>124</gpxtpx:hr></gpxtpx:TrackPointExtension></extensions></trkpt>
<trkpt lat="22.4529874" lon="114.1775608">
<ele>9</ele><time>2020-12-28T08:24:14.000Z</time><extensions><gpxtpx:TrackPointExtension><gpxtpx:hr>124</gpxtpx:hr></gpxtpx:TrackPointExtension></extensions></trkpt>
<trkpt lat="22.4530370" lon="114.1776037">
<ele>9</ele><time>2020-12-28T08:24:16.000Z</time><extensions><gpxtpx:TrackPointExtension><gpxtpx:hr>122</gpxtpx:hr></gpxtpx:TrackPointExtension></extensions></trkpt>
<trkpt lat="22.4531064" lon="114.1776252">
<ele>9</ele><time>2020-12-28T08:24:19.000Z</time><extensions><gpxtpx:TrackPointExtension><gpxtpx:hr>116</gpxtpx:hr></gpxtpx:TrackPointExtension></extensions></trkpt>
<trkpt lat="22.4531659" lon="114.1776466">
<ele>9</ele><time>2020-12-28T08:24:22.000Z</time><extensions><gpxtpx:TrackPointExtension><gpxtpx:hr>116</gpxtpx:hr></gpxtpx:TrackPointExtension></extensions></trkpt>
<trkpt lat="22.4532155" lon="114.1776896">
<ele>9</ele><time>2020-12-28T08:24:24.000Z</time><extensions><gpxtpx:TrackPointExtension><gpxtpx:hr>114</gpxtpx:hr></gpxtpx:TrackPointExtension></extensions></trkpt>
<trkpt lat="22.4532849" lon="114.1777110">
<ele>9</ele><time>2020-12-28T08:24:27.000Z</time><extensions><gpxtpx:TrackPointExtension><gpxtpx:hr>114</gpxtpx:hr></gpxtpx:TrackPointExtension></extensions></trkpt>
<trkpt lat="22.4533245" lon="114.1777325">
<ele>9</ele><time>2020-12-28T08:24:29.000Z</time><extensions><gpxtpx:TrackPointExtension><gpxtpx:hr>113</gpxtpx:hr></gpxtpx:TrackPointExtension></extensions></trkpt>
<trkpt lat="22.4533741" lon="114.1777325">
<ele>9</ele><time>2020-12-28T08:24:31.000Z</time><extensions><gpxtpx:TrackPointExtension><gpxtpx:hr>113</gpxtpx:hr></gpxtpx:TrackPointExtension></extensions></trkpt>
<trkpt lat="22.4534237" lon="114.1777754">
<ele>9</ele><time>2020-12-28T08:24:33.000Z</time><extensions><gpxtpx:TrackPointExtension><gpxtpx:hr>113</gpxtpx:hr></gpxtpx:TrackPointExtension></extensions></trkpt>
<trkpt lat="22.4534832" lon="114.1777754">
<ele>9</ele><time>2020-12-28T08:24:35.999Z</time><extensions><gpxtpx:TrackPointExtension><gpxtpx:hr>113</gpxtpx:hr></gpxtpx:TrackPointExtension></extensions></trkpt>
<trkpt lat="22.4535328" lon="114.1777968">
<ele>9</ele><time>2020-12-28T08:24:37.999Z</time><extensions><gpxtpx:TrackPointExtension><gpxtpx:hr>113</gpxtpx:hr></gpxtpx:TrackPointExtension></extensions></trkpt>
<trkpt lat="22.4535824" lon="114.1778183">
<ele>8</ele><time>2020-12-28T08:24:39.999Z</time><extensions><gpxtpx:TrackPointExtension><gpxtpx:hr>114</gpxtpx:hr></gpxtpx:TrackPointExtension></extensions></trkpt>
<trkpt lat="22.4536319" lon="114.1778183">
<ele>8</ele><time>2020-12-28T08:24:41.999Z</time><extensions><gpxtpx:TrackPointExtension><gpxtpx:hr>114</gpxtpx:hr></gpxtpx:TrackPointExtension></extensions></trkpt>
<trkpt lat="22.4536716" lon="114.1778398">
<ele>8</ele><time>2020-12-28T08:24:43.999Z</time><extensions><gpxtpx:TrackPointExtension><gpxtpx:hr>113</gpxtpx:hr></gpxtpx:TrackPointExtension></extensions></trkpt>
<trkpt lat="22.4537212" lon="114.1778398">
<ele>8</ele><time>2020-12-28T08:24:45.999Z</time><extensions><gpxtpx:TrackPointExtension><gpxtpx:hr>113</gpxtpx:hr></gpxtpx:TrackPointExtension></extensions></trkpt>
<trkpt lat="22.4537707" lon="114.1778398">
<ele>8</ele><time>2020-12-28T08:24:47.999Z</time><extensions><gpxtpx:TrackPointExtension><gpxtpx:hr>113</gpxtpx:hr></gpxtpx:TrackPointExtension></extensions></trkpt>
<trkpt lat="22.4538203" lon="114.1778612">
<ele>8</ele><time>2020-12-28T08:24:49.999Z</time><extensions><gpxtpx:TrackPointExtension><gpxtpx:hr>112</gpxtpx:hr></gpxtpx:TrackPointExtension></extensions></trkpt>
<trkpt lat="22.4538699" lon="114.1778612">
<ele>8</ele><time>2020-12-28T08:24:51.999Z</time><extensions><gpxtpx:TrackPointExtension><gpxtpx:hr>112</gpxtpx:hr></gpxtpx:TrackPointExtension></extensions></trkpt>
<trkpt lat="22.4539294" lon="114.1778612">
<ele>8</ele><time>2020-12-28T08:24:54.999Z</time><extensions><gpxtpx:TrackPointExtension><gpxtpx:hr>112</gpxtpx:hr></gpxtpx:TrackPointExtension></extensions></trkpt>
<trkpt lat="22.4539790" lon="114.1778612">
<ele>8</ele><time>2020-12-28T08:24:56.999Z</time><extensions><gpxtpx:TrackPointExtension><gpxtpx:hr>112</gpxtpx:hr></gpxtpx:TrackPointExtension></extensions></trkpt>
<trkpt lat="22.4540285" lon="114.1778612">
<ele>8</ele><time>2020-12-28T08:24:58.999Z</time><extensions><gpxtpx:TrackPointExtension><gpxtpx:hr>113</gpxtpx:hr></gpxtpx:TrackPointExtension></extensions></trkpt>
<trkpt lat="22.4540880" lon="114.1778612">
<ele>8</ele><time>2020-12-28T08:25:01.999Z</time><extensions><gpxtpx:TrackPointExtension><gpxtpx:hr>113</gpxtpx:hr></gpxtpx:TrackPointExtension></extensions></trkpt>
<trkpt lat="22.4541376" lon="114.1778827">
<ele>8</ele><time>2020-12-28T08:25:03.999Z</time><extensions><gpxtpx:TrackPointExtension><gpxtpx:hr>114</gpxtpx:hr></gpxtpx:TrackPointExtension></extensions></trkpt>
<trkpt lat="22.4541872" lon="114.1778612">
<ele>8</ele><time>2020-12-28T08:25:05.999Z</time><extensions><gpxtpx:TrackPointExtension><gpxtpx:hr>114</gpxtpx:hr></gpxtpx:TrackPointExtension></extensions></trkpt>
<trkpt lat="22.4542467" lon="114.1778612">
<ele>8</ele><time>2020-12-28T08:25:07.999Z</time><extensions><gpxtpx:TrackPointExtension><gpxtpx:hr>114</gpxtpx:hr></gpxtpx:TrackPointExtension></extensions></trkpt>
<trkpt lat="22.4543062" lon="114.1778612">
<ele>8</ele><time>2020-12-28T08:25:09.999Z</time><extensions><gpxtpx:TrackPointExtension><gpxtpx:hr>117</gpxtpx:hr></gpxtpx:TrackPointExtension></extensions></trkpt>
<trkpt lat="22.4543657" lon="114.1778398">
<ele>8</ele><time>2020-12-28T08:25:11.999Z</time><extensions><gpxtpx:TrackPointExtension><gpxtpx:hr>117</gpxtpx:hr></gpxtpx:TrackPointExtension></extensions></trkpt>
<trkpt lat="22.4544152" lon="114.1778398">
<ele>8</ele><time>2020-12-28T08:25:13.999Z</time><extensions><gpxtpx:TrackPointExtension><gpxtpx:hr>117</gpxtpx:hr></gpxtpx:TrackPointExtension></extensions></trkpt>
<trkpt lat="22.4544648" lon="114.1778398">
<ele>8</ele><time>2020-12-28T08:25:15.999Z</time><extensions><gpxtpx:TrackPointExtension><gpxtpx:hr>117</gpxtpx:hr></gpxtpx:TrackPointExtension></extensions></trkpt>
<trkpt lat="22.4545144" lon="114.1778183">
<ele>8</ele><time>2020-12-28T08:25:17.999Z</time><extensions><gpxtpx:TrackPointExtension><gpxtpx:hr>117</gpxtpx:hr></gpxtpx:TrackPointExtension></extensions></trkpt>
<trkpt lat="22.4545739" lon="114.1778183">
<ele>8</ele><time>2020-12-28T08:25:20.999Z</time><extensions><gpxtpx:TrackPointExtension><gpxtpx:hr>116</gpxtpx:hr></gpxtpx:TrackPointExtension></extensions></trkpt>
<trkpt lat="22.4546235" lon="114.1778183">
<ele>8</ele><time>2020-12-28T08:25:22.999Z</time><extensions><gpxtpx:TrackPointExtension><gpxtpx:hr>116</gpxtpx:hr></gpxtpx:TrackPointExtension></extensions></trkpt>
<trkpt lat="22.4546730" lon="114.1778183">
<ele>8</ele><time>2020-12-28T08:25:24.999Z</time><extensions><gpxtpx:TrackPointExtension><gpxtpx:hr>114</gpxtpx:hr></gpxtpx:TrackPointExtension></extensions></trkpt>
<trkpt lat="22.4547226" lon="114.1777968">
<ele>9</ele><time>2020-12-28T08:25:26.999Z</time><extensions><gpxtpx:TrackPointExtension><gpxtpx:hr>114</gpxtpx:hr></gpxtpx:TrackPointExtension></extensions></trkpt>
<trkpt lat="22.4547821" lon="114.1777968">
<ele>9</ele><time>2020-12-28T08:25:28.999Z</time><extensions><gpxtpx:TrackPointExtension><gpxtpx:hr>115</gpxtpx:hr></gpxtpx:TrackPointExtension></extensions></trkpt>
<trkpt lat="22.4548317" lon="114.1777754">
<ele>9</ele><time>2020-12-28T08:25:30.999Z</time><extensions><gpxtpx:TrackPointExtension><gpxtpx:hr>115</gpxtpx:hr></gpxtpx:TrackPointExtension></extensions></trkpt>
<trkpt lat="22.4548813" lon="114.1777754">
<ele>9</ele><time>2020-12-28T08:25:32.999Z</time><extensions><gpxtpx:TrackPointExtension><gpxtpx:hr>115</gpxtpx:hr></gpxtpx:TrackPointExtension></extensions></trkpt>
<trkpt lat="22.4549308" lon="114.1777754">
<ele>9</ele><time>2020-12-28T08:25:35.999Z</time><extensions><gpxtpx:TrackPointExtension><gpxtpx:hr>115</gpxtpx:hr></gpxtpx:TrackPointExtension></extensions></trkpt>
<trkpt lat="22.4549804" lon="114.1777539">
<ele>9</ele><time>2020-12-28T08:25:37.999Z</time><extensions><gpxtpx:TrackPointExtension><gpxtpx:hr>115</gpxtpx:hr></gpxtpx:TrackPointExtension></extensions></trkpt>
<trkpt lat="22.4550201" lon="114.1777325">
<ele>9</ele><time>2020-12-28T08:25:39.999Z</time><extensions><gpxtpx:TrackPointExtension><gpxtpx:hr>115</gpxtpx:hr></gpxtpx:TrackPointExtension></extensions></trkpt>
<trkpt lat="22.4550796" lon="114.1776896">
<ele>9</ele><time>2020-12-28T08:25:42.999Z</time><extensions><gpxtpx:TrackPointExtension><gpxtpx:hr>115</gpxtpx:hr></gpxtpx:TrackPointExtension></extensions></trkpt>
<trkpt lat="22.4551490" lon="114.1776681">
<ele>9</ele><time>2020-12-28T08:25:44.999Z</time><extensions><gpxtpx:TrackPointExtension><gpxtpx:hr>115</gpxtpx:hr></gpxtpx:TrackPointExtension></extensions></trkpt>
<trkpt lat="22.4551986" lon="114.1776252">
<ele>9</ele><time>2020-12-28T08:25:46.999Z</time><extensions><gpxtpx:TrackPointExtension><gpxtpx:hr>115</gpxtpx:hr></gpxtpx:TrackPointExtension></extensions></trkpt>
<trkpt lat="22.4552481" lon="114.1775823">
<ele>9</ele><time>2020-12-28T08:25:48.999Z</time><extensions><gpxtpx:TrackPointExtension><gpxtpx:hr>108</gpxtpx:hr></gpxtpx:TrackPointExtension></extensions></trkpt>
<trkpt lat="22.4553175" lon="114.1775393">
<ele>9</ele><time>2020-12-28T08:25:50.998Z</time><extensions><gpxtpx:TrackPointExtension><gpxtpx:hr>108</gpxtpx:hr></gpxtpx:TrackPointExtension></extensions></trkpt>
<trkpt lat="22.4553770" lon="114.1775179">
<ele>8</ele><time>2020-12-28T08:25:52.998Z</time><extensions><gpxtpx:TrackPointExtension><gpxtpx:hr>108</gpxtpx:hr></gpxtpx:TrackPointExtension></extensions></trkpt>
<trkpt lat="22.4554564" lon="114.1774964">
<ele>8</ele><time>2020-12-28T08:25:54.998Z</time><extensions><gpxtpx:TrackPointExtension><gpxtpx:hr>109</gpxtpx:hr></gpxtpx:TrackPointExtension></extensions></trkpt>
<trkpt lat="22.4555059" lon="114.1774964">
<ele>8</ele><time>2020-12-28T08:25:55.998Z</time><extensions><gpxtpx:TrackPointExtension><gpxtpx:hr>109</gpxtpx:hr></gpxtpx:TrackPointExtension></extensions></trkpt>
<trkpt lat="22.4555456" lon="114.1774750">
<ele>7</ele><time>2020-12-28T08:25:56.998Z</time><extensions><gpxtpx:TrackPointExtension><gpxtpx:hr>109</gpxtpx:hr></gpxtpx:TrackPointExtension></extensions></trkpt>
<trkpt lat="22.4556249" lon="114.1774750">
<ele>7</ele><time>2020-12-28T08:25:58.998Z</time><extensions><gpxtpx:TrackPointExtension><gpxtpx:hr>109</gpxtpx:hr></gpxtpx:TrackPointExtension></extensions></trkpt>
<trkpt lat="22.4556745" lon="114.1774535">
<ele>7</ele><time>2020-12-28T08:25:59.998Z</time><extensions><gpxtpx:TrackPointExtension><gpxtpx:hr>109</gpxtpx:hr></gpxtpx:TrackPointExtension></extensions></trkpt>
<trkpt lat="22.4557340" lon="114.1774321">
<ele>7</ele><time>2020-12-28T08:26:01.998Z</time><extensions><gpxtpx:TrackPointExtension><gpxtpx:hr>109</gpxtpx:hr></gpxtpx:TrackPointExtension></extensions></trkpt>
<trkpt lat="22.4557836" lon="114.1774106">
<ele>7</ele><time>2020-12-28T08:26:03.998Z</time><extensions><gpxtpx:TrackPointExtension><gpxtpx:hr>108</gpxtpx:hr></gpxtpx:TrackPointExtension></extensions></trkpt>
<trkpt lat="22.4558431" lon="114.1773891">
<ele>7</ele><time>2020-12-28T08:26:05.998Z</time><extensions><gpxtpx:TrackPointExtension><gpxtpx:hr>108</gpxtpx:hr></gpxtpx:TrackPointExtension></extensions></trkpt>
<trkpt lat="22.4558926" lon="114.1773891">
<ele>7</ele><time>2020-12-28T08:26:07.998Z</time><extensions><gpxtpx:TrackPointExtension><gpxtpx:hr>108</gpxtpx:hr></gpxtpx:TrackPointExtension></extensions></trkpt>
<trkpt lat="22.4559323" lon="114.1773677">
<ele>7</ele><time>2020-12-28T08:26:08.998Z</time><extensions><gpxtpx:TrackPointExtension><gpxtpx:hr>105</gpxtpx:hr></gpxtpx:TrackPointExtension></extensions></trkpt>
<trkpt lat="22.4559819" lon="114.1773462">
<ele>7</ele><time>2020-12-28T08:26:10.998Z</time><extensions><gpxtpx:TrackPointExtension><gpxtpx:hr>105</gpxtpx:hr></gpxtpx:TrackPointExtension></extensions></trkpt>
<trkpt lat="22.4560315" lon="114.1773248">
<ele>7</ele><time>2020-12-28T08:26:12.998Z</time><extensions><gpxtpx:TrackPointExtension><gpxtpx:hr>105</gpxtpx:hr></gpxtpx:TrackPointExtension></extensions></trkpt>
<trkpt lat="22.4561009" lon="114.1773033">
<ele>7</ele><time>2020-12-28T08:26:15.998Z</time><extensions><gpxtpx:TrackPointExtension><gpxtpx:hr>105</gpxtpx:hr></gpxtpx:TrackPointExtension></extensions></trkpt>
<trkpt lat="22.4561603" lon="114.1772819">
<ele>7</ele><time>2020-12-28T08:26:19.000Z</time><extensions><gpxtpx:TrackPointExtension><gpxtpx:hr>110</gpxtpx:hr></gpxtpx:TrackPointExtension></extensions></trkpt>
<trkpt lat="22.4562099" lon="114.1772389">
<ele>7</ele><time>2020-12-28T08:26:21.000Z</time><extensions><gpxtpx:TrackPointExtension><gpxtpx:hr>110</gpxtpx:hr></gpxtpx:TrackPointExtension></extensions></trkpt>
<trkpt lat="22.4562694" lon="114.1772175">
<ele>7</ele><time>2020-12-28T08:26:23.000Z</time><extensions><gpxtpx:TrackPointExtension><gpxtpx:hr>110</gpxtpx:hr></gpxtpx:TrackPointExtension></extensions></trkpt>
<trkpt lat="22.4563190" lon="114.1771746">
<ele>7</ele><time>2020-12-28T08:26:25.000Z</time><extensions><gpxtpx:TrackPointExtension><gpxtpx:hr>110</gpxtpx:hr></gpxtpx:TrackPointExtension></extensions></trkpt>
<trkpt lat="22.4563785" lon="114.1772175">
<ele>7</ele><time>2020-12-28T08:26:27.000Z</time><extensions><gpxtpx:TrackPointExtension><gpxtpx:hr>110</gpxtpx:hr></gpxtpx:TrackPointExtension></extensions></trkpt>
<trkpt lat="22.4564281" lon="114.1772389">
<ele>7</ele><time>2020-12-28T08:26:29.000Z</time><extensions><gpxtpx:TrackPointExtension><gpxtpx:hr>112</gpxtpx:hr></gpxtpx:TrackPointExtension></extensions></trkpt>
<trkpt lat="22.4565173" lon="114.1772389">
<ele>6</ele><time>2020-12-28T08:26:31.000Z</time><extensions><gpxtpx:TrackPointExtension><gpxtpx:hr>112</gpxtpx:hr></gpxtpx:TrackPointExtension></extensions></trkpt>
<trkpt lat="22.4565669" lon="114.1772389">
<ele>6</ele><time>2020-12-28T08:26:32.000Z</time><extensions><gpxtpx:TrackPointExtension><gpxtpx:hr>112</gpxtpx:hr></gpxtpx:TrackPointExtension></extensions></trkpt>
<trkpt lat="22.4566363" lon="114.1772389">
<ele>6</ele><time>2020-12-28T08:26:34.000Z</time><extensions><gpxtpx:TrackPointExtension><gpxtpx:hr>116</gpxtpx:hr></gpxtpx:TrackPointExtension></extensions></trkpt>
<trkpt lat="22.4567156" lon="114.1772389">
<ele>6</ele><time>2020-12-28T08:26:36.028Z</time><extensions><gpxtpx:TrackPointExtension><gpxtpx:hr>116</gpxtpx:hr></gpxtpx:TrackPointExtension></extensions></trkpt>
<trkpt lat="22.4567850" lon="114.1772389">
<ele>6</ele><time>2020-12-28T08:26:38.031Z</time><extensions><gpxtpx:TrackPointExtension><gpxtpx:hr>116</gpxtpx:hr></gpxtpx:TrackPointExtension></extensions></trkpt>
<trkpt lat="22.4569040" lon="114.1772604">
<ele>6</ele><time>2020-12-28T08:26:40.999Z</time><extensions><gpxtpx:TrackPointExtension><gpxtpx:hr>117</gpxtpx:hr></gpxtpx:TrackPointExtension></extensions></trkpt>
<trkpt lat="22.4569635" lon="114.1772175">
<ele>6</ele><time>2020-12-28T08:26:41.999Z</time><extensions><gpxtpx:TrackPointExtension><gpxtpx:hr>117</gpxtpx:hr></gpxtpx:TrackPointExtension></extensions></trkpt>
<trkpt lat="22.4570131" lon="114.1772175">
<ele>6</ele><time>2020-12-28T08:26:44.999Z</time><extensions><gpxtpx:TrackPointExtension><gpxtpx:hr>117</gpxtpx:hr></gpxtpx:TrackPointExtension></extensions></trkpt>
<trkpt lat="22.4570626" lon="114.1771960">
<ele>7</ele><time>2020-12-28T08:26:46.999Z</time><extensions><gpxtpx:TrackPointExtension><gpxtpx:hr>117</gpxtpx:hr></gpxtpx:TrackPointExtension></extensions></trkpt>
<trkpt lat="22.4571122" lon="114.1772175">
<ele>7</ele><time>2020-12-28T08:26:48.999Z</time><extensions><gpxtpx:TrackPointExtension><gpxtpx:hr>117</gpxtpx:hr></gpxtpx:TrackPointExtension></extensions></trkpt>
<trkpt lat="22.4571519" lon="114.1772604">
<ele>7</ele><time>2020-12-28T08:26:50.999Z</time><extensions><gpxtpx:TrackPointExtension><gpxtpx:hr>117</gpxtpx:hr></gpxtpx:TrackPointExtension></extensions></trkpt>
<trkpt lat="22.4572015" lon="114.1773033">
<ele>7</ele><time>2020-12-28T08:26:52.999Z</time><extensions><gpxtpx:TrackPointExtension><gpxtpx:hr>117</gpxtpx:hr></gpxtpx:TrackPointExtension></extensions></trkpt>
<trkpt lat="22.4572609" lon="114.1773248">
<ele>7</ele><time>2020-12-28T08:26:54.999Z</time><extensions><gpxtpx:TrackPointExtension><gpxtpx:hr>117</gpxtpx:hr></gpxtpx:TrackPointExtension></extensions></trkpt>
<trkpt lat="22.4573204" lon="114.1773248">
<ele>7</ele><time>2020-12-28T08:26:57.999Z</time><extensions><gpxtpx:TrackPointExtension><gpxtpx:hr>117</gpxtpx:hr></gpxtpx:TrackPointExtension></extensions></trkpt>
<trkpt lat="22.4573799" lon="114.1773462">
<ele>7</ele><time>2020-12-28T08:27:00.999Z</time><extensions><gpxtpx:TrackPointExtension><gpxtpx:hr>117</gpxtpx:hr></gpxtpx:TrackPointExtension></extensions></trkpt>
<trkpt lat="22.4574295" lon="114.1773677">
<ele>8</ele><time>2020-12-28T08:27:02.999Z</time><extensions><gpxtpx:TrackPointExtension><gpxtpx:hr>117</gpxtpx:hr></gpxtpx:TrackPointExtension></extensions></trkpt>
<trkpt lat="22.4574989" lon="114.1773677">
<ele>8</ele><time>2020-12-28T08:27:04.999Z</time><extensions><gpxtpx:TrackPointExtension><gpxtpx:hr>117</gpxtpx:hr></gpxtpx:TrackPointExtension></extensions></trkpt>
<trkpt lat="22.4575584" lon="114.1773891">
<ele>8</ele><time>2020-12-28T08:27:07.999Z</time><extensions><gpxtpx:TrackPointExtension><gpxtpx:hr>117</gpxtpx:hr></gpxtpx:TrackPointExtension></extensions></trkpt>
<trkpt lat="22.4575981" lon="114.1774106">
<ele>8</ele><time>2020-12-28T08:27:10.999Z</time><extensions><gpxtpx:TrackPointExtension><gpxtpx:hr>117</gpxtpx:hr></gpxtpx:TrackPointExtension></extensions></trkpt>
<trkpt lat="22.4576476" lon="114.1774106">
<ele>9</ele><time>2020-12-28T08:27:14.999Z</time><extensions><gpxtpx:TrackPointExtension><gpxtpx:hr>117</gpxtpx:hr></gpxtpx:TrackPointExtension></extensions></trkpt>
<trkpt lat="22.4576972" lon="114.1774321">
<ele>9</ele><time>2020-12-28T08:27:23.999Z</time><extensions><gpxtpx:TrackPointExtension><gpxtpx:hr>117</gpxtpx:hr></gpxtpx:TrackPointExtension></extensions></trkpt>
<trkpt lat="22.4577468" lon="114.1774321">
<ele>9</ele><time>2020-12-28T08:27:25.999Z</time><extensions><gpxtpx:TrackPointExtension><gpxtpx:hr>117</gpxtpx:hr></gpxtpx:TrackPointExtension></extensions></trkpt>
<trkpt lat="22.4577864" lon="114.1774535">
<ele>9</ele><time>2020-12-28T08:27:27.999Z</time><extensions><gpxtpx:TrackPointExtension><gpxtpx:hr>117</gpxtpx:hr></gpxtpx:TrackPointExtension></extensions></trkpt>
<trkpt lat="22.4578459" lon="114.1774535">
<ele>9</ele><time>2020-12-28T08:27:29.999Z</time><extensions><gpxtpx:TrackPointExtension><gpxtpx:hr>117</gpxtpx:hr></gpxtpx:TrackPointExtension></extensions></trkpt>
<trkpt lat="22.4579153" lon="114.1774750">
<ele>9</ele><time>2020-12-28T08:27:32.999Z</time><extensions><gpxtpx:TrackPointExtension><gpxtpx:hr>117</gpxtpx:hr></gpxtpx:TrackPointExtension></extensions></trkpt>
<trkpt lat="22.4579649" lon="114.1774964">
<ele>9</ele><time>2020-12-28T08:27:34.999Z</time><extensions><gpxtpx:TrackPointExtension><gpxtpx:hr>117</gpxtpx:hr></gpxtpx:TrackPointExtension></extensions></trkpt>
<trkpt lat="22.4580343" lon="114.1775179">
<ele>8</ele><time>2020-12-28T08:27:36.999Z</time><extensions><gpxtpx:TrackPointExtension><gpxtpx:hr>117</gpxtpx:hr></gpxtpx:TrackPointExtension></extensions></trkpt>
<trkpt lat="22.4581136" lon="114.1775608">
<ele>8</ele><time>2020-12-28T08:27:38.999Z</time><extensions><gpxtpx:TrackPointExtension><gpxtpx:hr>117</gpxtpx:hr></gpxtpx:TrackPointExtension></extensions></trkpt>
<trkpt lat="22.4581930" lon="114.1775823">
<ele>8</ele><time>2020-12-28T08:27:40.999Z</time><extensions><gpxtpx:TrackPointExtension><gpxtpx:hr>117</gpxtpx:hr></gpxtpx:TrackPointExtension></extensions></trkpt>
<trkpt lat="22.4582624" lon="114.1776037">
<ele>8</ele><time>2020-12-28T08:27:42.999Z</time><extensions><gpxtpx:TrackPointExtension><gpxtpx:hr>117</gpxtpx:hr></gpxtpx:TrackPointExtension></extensions></trkpt>
<trkpt lat="22.4583020" lon="114.1776252">
<ele>8</ele><time>2020-12-28T08:27:43.999Z</time><extensions><gpxtpx:TrackPointExtension><gpxtpx:hr>117</gpxtpx:hr></gpxtpx:TrackPointExtension></extensions></trkpt>
<trkpt lat="22.4583814" lon="114.1776466">
<ele>8</ele><time>2020-12-28T08:27:45.999Z</time><extensions><gpxtpx:TrackPointExtension><gpxtpx:hr>117</gpxtpx:hr></gpxtpx:TrackPointExtension></extensions></trkpt>
<trkpt lat="22.4584408" lon="114.1776681">
<ele>8</ele><time>2020-12-28T08:27:47.999Z</time><extensions><gpxtpx:TrackPointExtension><gpxtpx:hr>117</gpxtpx:hr></gpxtpx:TrackPointExtension></extensions></trkpt>
<trkpt lat="22.4585003" lon="114.1777110">
<ele>8</ele><time>2020-12-28T08:27:49.999Z</time><extensions><gpxtpx:TrackPointExtension><gpxtpx:hr>117</gpxtpx:hr></gpxtpx:TrackPointExtension></extensions></trkpt>
<trkpt lat="22.4585400" lon="114.1777325">
<ele>8</ele><time>2020-12-28T08:27:51.999Z</time><extensions><gpxtpx:TrackPointExtension><gpxtpx:hr>117</gpxtpx:hr></gpxtpx:TrackPointExtension></extensions></trkpt>
<trkpt lat="22.4585896" lon="114.1777754">
<ele>8</ele><time>2020-12-28T08:27:54.998Z</time><extensions><gpxtpx:TrackPointExtension><gpxtpx:hr>117</gpxtpx:hr></gpxtpx:TrackPointExtension></extensions></trkpt>
<trkpt lat="22.4586292" lon="114.1777968">
<ele>8</ele><time>2020-12-28T08:27:56.998Z</time><extensions><gpxtpx:TrackPointExtension><gpxtpx:hr>117</gpxtpx:hr></gpxtpx:TrackPointExtension></extensions></trkpt>
<trkpt lat="22.4586689" lon="114.1778398">
<ele>8</ele><time>2020-12-28T08:27:58.998Z</time><extensions><gpxtpx:TrackPointExtension><gpxtpx:hr>117</gpxtpx:hr></gpxtpx:TrackPointExtension></extensions></trkpt>
<trkpt lat="22.4587185" lon="114.1778612">
<ele>8</ele><time>2020-12-28T08:28:01.998Z</time><extensions><gpxtpx:TrackPointExtension><gpxtpx:hr>117</gpxtpx:hr></gpxtpx:TrackPointExtension></extensions></trkpt>
<trkpt lat="22.4587680" lon="114.1779041">
<ele>8</ele><time>2020-12-28T08:28:03.998Z</time><extensions><gpxtpx:TrackPointExtension><gpxtpx:hr>117</gpxtpx:hr></gpxtpx:TrackPointExtension></extensions></trkpt>
<trkpt lat="22.4588077" lon="114.1779470">
<ele>8</ele><time>2020-12-28T08:28:05.998Z</time><extensions><gpxtpx:TrackPointExtension><gpxtpx:hr>117</gpxtpx:hr></gpxtpx:TrackPointExtension></extensions></trkpt>
<trkpt lat="22.4588573" lon="114.1779900">
<ele>8</ele><time>2020-12-28T08:28:07.998Z</time><extensions><gpxtpx:TrackPointExtension><gpxtpx:hr>117</gpxtpx:hr></gpxtpx:TrackPointExtension></extensions></trkpt>
<trkpt lat="22.4588870" lon="114.1780329">
<ele>8</ele><time>2020-12-28T08:28:09.998Z</time><extensions><gpxtpx:TrackPointExtension><gpxtpx:hr>117</gpxtpx:hr></gpxtpx:TrackPointExtension></extensions></trkpt>
<trkpt lat="22.4589267" lon="114.1780758">
<ele>8</ele><time>2020-12-28T08:28:11.998Z</time><extensions><gpxtpx:TrackPointExtension><gpxtpx:hr>117</gpxtpx:hr></gpxtpx:TrackPointExtension></extensions></trkpt>
<trkpt lat="22.4589663" lon="114.1781187">
<ele>8</ele><time>2020-12-28T08:28:13.998Z</time><extensions><gpxtpx:TrackPointExtension><gpxtpx:hr>117</gpxtpx:hr></gpxtpx:TrackPointExtension></extensions></trkpt>
<trkpt lat="22.4590060" lon="114.1781616">
<ele>8</ele><time>2020-12-28T08:28:15.998Z</time><extensions><gpxtpx:TrackPointExtension><gpxtpx:hr>114</gpxtpx:hr></gpxtpx:TrackPointExtension></extensions></trkpt>
<trkpt lat="22.4590358" lon="114.1782260">
<ele>8</ele><time>2020-12-28T08:28:17.998Z</time><extensions><gpxtpx:TrackPointExtension><gpxtpx:hr>114</gpxtpx:hr></gpxtpx:TrackPointExtension></extensions></trkpt>
<trkpt lat="22.4590754" lon="114.1782689">
<ele>8</ele><time>2020-12-28T08:28:19.998Z</time><extensions><gpxtpx:TrackPointExtension><gpxtpx:hr>114</gpxtpx:hr></gpxtpx:TrackPointExtension></extensions></trkpt>
<trkpt lat="22.4591052" lon="114.1783333">
<ele>8</ele><time>2020-12-28T08:28:21.998Z</time><extensions><gpxtpx:TrackPointExtension><gpxtpx:hr>114</gpxtpx:hr></gpxtpx:TrackPointExtension></extensions></trkpt>
<trkpt lat="22.4591448" lon="114.1783977">
<ele>8</ele><time>2020-12-28T08:28:24.000Z</time><extensions><gpxtpx:TrackPointExtension><gpxtpx:hr>114</gpxtpx:hr></gpxtpx:TrackPointExtension></extensions></trkpt>
<trkpt lat="22.4591746" lon="114.1784406">
<ele>8</ele><time>2020-12-28T08:28:26.000Z</time><extensions><gpxtpx:TrackPointExtension><gpxtpx:hr>114</gpxtpx:hr></gpxtpx:TrackPointExtension></extensions></trkpt>
<trkpt lat="22.4591944" lon="114.1785049">
<ele>8</ele><time>2020-12-28T08:28:28.000Z</time><extensions><gpxtpx:TrackPointExtension><gpxtpx:hr>114</gpxtpx:hr></gpxtpx:TrackPointExtension></extensions></trkpt>
<trkpt lat="22.4592241" lon="114.1785693">
<ele>8</ele><time>2020-12-28T08:28:31.000Z</time><extensions><gpxtpx:TrackPointExtension><gpxtpx:hr>112</gpxtpx:hr></gpxtpx:TrackPointExtension></extensions></trkpt>
<trkpt lat="22.4592440" lon="114.1786337">
<ele>8</ele><time>2020-12-28T08:28:34.000Z</time><extensions><gpxtpx:TrackPointExtension><gpxtpx:hr>112</gpxtpx:hr></gpxtpx:TrackPointExtension></extensions></trkpt>
<trkpt lat="22.4592638" lon="114.1786981">
<ele>8</ele><time>2020-12-28T08:28:36.000Z</time><extensions><gpxtpx:TrackPointExtension><gpxtpx:hr>112</gpxtpx:hr></gpxtpx:TrackPointExtension></extensions></trkpt>
<trkpt lat="22.4592935" lon="114.1787624">
<ele>8</ele><time>2020-12-28T08:28:39.000Z</time><extensions><gpxtpx:TrackPointExtension><gpxtpx:hr>112</gpxtpx:hr></gpxtpx:TrackPointExtension></extensions></trkpt>
<trkpt lat="22.4593035" lon="114.1788268">
<ele>8</ele><time>2020-12-28T08:28:41.000Z</time><extensions><gpxtpx:TrackPointExtension><gpxtpx:hr>113</gpxtpx:hr></gpxtpx:TrackPointExtension></extensions></trkpt>
<trkpt lat="22.4593134" lon="114.1788912">
<ele>8</ele><time>2020-12-28T08:28:44.000Z</time><extensions><gpxtpx:TrackPointExtension><gpxtpx:hr>113</gpxtpx:hr></gpxtpx:TrackPointExtension></extensions></trkpt>
<trkpt lat="22.4593233" lon="114.1789556">
<ele>8</ele><time>2020-12-28T08:28:46.000Z</time><extensions><gpxtpx:TrackPointExtension><gpxtpx:hr>113</gpxtpx:hr></gpxtpx:TrackPointExtension></extensions></trkpt>
<trkpt lat="22.4593233" lon="114.1790414">
<ele>8</ele><time>2020-12-28T08:28:48.999Z</time><extensions><gpxtpx:TrackPointExtension><gpxtpx:hr>113</gpxtpx:hr></gpxtpx:TrackPointExtension></extensions></trkpt>
<trkpt lat="22.4593332" lon="114.1791058">
<ele>8</ele><time>2020-12-28T08:28:51.999Z</time><extensions><gpxtpx:TrackPointExtension><gpxtpx:hr>114</gpxtpx:hr></gpxtpx:TrackPointExtension></extensions></trkpt>
<trkpt lat="22.4593332" lon="114.1791701">
<ele>8</ele><time>2020-12-28T08:28:53.999Z</time><extensions><gpxtpx:TrackPointExtension><gpxtpx:hr>114</gpxtpx:hr></gpxtpx:TrackPointExtension></extensions></trkpt>
<trkpt lat="22.4593332" lon="114.1792345">
<ele>8</ele><time>2020-12-28T08:28:56.999Z</time><extensions><gpxtpx:TrackPointExtension><gpxtpx:hr>115</gpxtpx:hr></gpxtpx:TrackPointExtension></extensions></trkpt>
<trkpt lat="22.4593332" lon="114.1792989">
<ele>8</ele><time>2020-12-28T08:28:58.999Z</time><extensions><gpxtpx:TrackPointExtension><gpxtpx:hr>115</gpxtpx:hr></gpxtpx:TrackPointExtension></extensions></trkpt>
<trkpt lat="22.4593332" lon="114.1793633">
<ele>8</ele><time>2020-12-28T08:29:01.999Z</time><extensions><gpxtpx:TrackPointExtension><gpxtpx:hr>115</gpxtpx:hr></gpxtpx:TrackPointExtension></extensions></trkpt>
<trkpt lat="22.4593134" lon="114.1794276">
<ele>7</ele><time>2020-12-28T08:29:04.999Z</time><extensions><gpxtpx:TrackPointExtension><gpxtpx:hr>115</gpxtpx:hr></gpxtpx:TrackPointExtension></extensions></trkpt>
<trkpt lat="22.4593233" lon="114.1794920">
<ele>7</ele><time>2020-12-28T08:29:07.999Z</time><extensions><gpxtpx:TrackPointExtension><gpxtpx:hr>115</gpxtpx:hr></gpxtpx:TrackPointExtension></extensions></trkpt>
<trkpt lat="22.4593431" lon="114.1795564">
<ele>7</ele><time>2020-12-28T08:29:10.999Z</time><extensions><gpxtpx:TrackPointExtension><gpxtpx:hr>114</gpxtpx:hr></gpxtpx:TrackPointExtension></extensions></trkpt>
<trkpt lat="22.4593729" lon="114.1795993">
<ele>7</ele><time>2020-12-28T08:29:19.999Z</time><extensions><gpxtpx:TrackPointExtension><gpxtpx:hr>113</gpxtpx:hr></gpxtpx:TrackPointExtension></extensions></trkpt>
<trkpt lat="22.4593431" lon="114.1796422">
<ele>7</ele><time>2020-12-28T08:29:44.999Z</time><extensions><gpxtpx:TrackPointExtension><gpxtpx:hr>117</gpxtpx:hr></gpxtpx:TrackPointExtension></extensions></trkpt>
<trkpt lat="22.4593233" lon="114.1796851">
<ele>7</ele><time>2020-12-28T08:29:48.999Z</time><extensions><gpxtpx:TrackPointExtension><gpxtpx:hr>117</gpxtpx:hr></gpxtpx:TrackPointExtension></extensions></trkpt>
<trkpt lat="22.4593035" lon="114.1797495">
<ele>7</ele><time>2020-12-28T08:29:53.999Z</time><extensions><gpxtpx:TrackPointExtension><gpxtpx:hr>116</gpxtpx:hr></gpxtpx:TrackPointExtension></extensions></trkpt>
<trkpt lat="22.4592836" lon="114.1797924">
<ele>7</ele><time>2020-12-28T08:29:55.999Z</time><extensions><gpxtpx:TrackPointExtension><gpxtpx:hr>118</gpxtpx:hr></gpxtpx:TrackPointExtension></extensions></trkpt>
<trkpt lat="22.4592539" lon="114.1798353">
<ele>7</ele><time>2020-12-28T08:29:58.998Z</time><extensions><gpxtpx:TrackPointExtension><gpxtpx:hr>118</gpxtpx:hr></gpxtpx:TrackPointExtension></extensions></trkpt>
<trkpt lat="22.4592440" lon="114.1798997">
<ele>7</ele><time>2020-12-28T08:30:02.998Z</time><extensions><gpxtpx:TrackPointExtension><gpxtpx:hr>119</gpxtpx:hr></gpxtpx:TrackPointExtension></extensions></trkpt>
<trkpt lat="22.4592341" lon="114.1799641">
<ele>7</ele><time>2020-12-28T08:30:05.998Z</time><extensions><gpxtpx:TrackPointExtension><gpxtpx:hr>120</gpxtpx:hr></gpxtpx:TrackPointExtension></extensions></trkpt>
<trkpt lat="22.4592241" lon="114.1800284">
<ele>7</ele><time>2020-12-28T08:30:08.998Z</time><extensions><gpxtpx:TrackPointExtension><gpxtpx:hr>120</gpxtpx:hr></gpxtpx:TrackPointExtension></extensions></trkpt>
<trkpt lat="22.4592241" lon="114.1800928">
<ele>7</ele><time>2020-12-28T08:30:10.998Z</time><extensions><gpxtpx:TrackPointExtension><gpxtpx:hr>120</gpxtpx:hr></gpxtpx:TrackPointExtension></extensions></trkpt>
<trkpt lat="22.4592241" lon="114.1801572">
<ele>7</ele><time>2020-12-28T08:30:13.998Z</time><extensions><gpxtpx:TrackPointExtension><gpxtpx:hr>120</gpxtpx:hr></gpxtpx:TrackPointExtension></extensions></trkpt>
<trkpt lat="22.4592142" lon="114.1802430">
<ele>7</ele><time>2020-12-28T08:30:16.998Z</time><extensions><gpxtpx:TrackPointExtension><gpxtpx:hr>120</gpxtpx:hr></gpxtpx:TrackPointExtension></extensions></trkpt>
<trkpt lat="22.4592142" lon="114.1803074">
<ele>7</ele><time>2020-12-28T08:30:18.998Z</time><extensions><gpxtpx:TrackPointExtension><gpxtpx:hr>120</gpxtpx:hr></gpxtpx:TrackPointExtension></extensions></trkpt>
<trkpt lat="22.4592142" lon="114.1803718">
<ele>7</ele><time>2020-12-28T08:30:21.998Z</time><extensions><gpxtpx:TrackPointExtension><gpxtpx:hr>120</gpxtpx:hr></gpxtpx:TrackPointExtension></extensions></trkpt>
<trkpt lat="22.4592043" lon="114.1804576">
<ele>7</ele><time>2020-12-28T08:30:23.998Z</time><extensions><gpxtpx:TrackPointExtension><gpxtpx:hr>120</gpxtpx:hr></gpxtpx:TrackPointExtension></extensions></trkpt>
<trkpt lat="22.4592142" lon="114.1805434">
<ele>7</ele><time>2020-12-28T08:30:26.998Z</time><extensions><gpxtpx:TrackPointExtension><gpxtpx:hr>120</gpxtpx:hr></gpxtpx:TrackPointExtension></extensions></trkpt>
<trkpt lat="22.4592043" lon="114.1806078">
<ele>7</ele><time>2020-12-28T08:30:30.000Z</time><extensions><gpxtpx:TrackPointExtension><gpxtpx:hr>120</gpxtpx:hr></gpxtpx:TrackPointExtension></extensions></trkpt>
<trkpt lat="22.4592043" lon="114.1806722">
<ele>7</ele><time>2020-12-28T08:30:32.000Z</time><extensions><gpxtpx:TrackPointExtension><gpxtpx:hr>120</gpxtpx:hr></gpxtpx:TrackPointExtension></extensions></trkpt>
<trkpt lat="22.4592043" lon="114.1807365">
<ele>7</ele><time>2020-12-28T08:30:35.000Z</time><extensions><gpxtpx:TrackPointExtension><gpxtpx:hr>121</gpxtpx:hr></gpxtpx:TrackPointExtension></extensions></trkpt>
<trkpt lat="22.4592043" lon="114.1808009">
<ele>7</ele><time>2020-12-28T08:30:37.000Z</time><extensions><gpxtpx:TrackPointExtension><gpxtpx:hr>121</gpxtpx:hr></gpxtpx:TrackPointExtension></extensions></trkpt>
<trkpt lat="22.4592043" lon="114.1808653">
<ele>7</ele><time>2020-12-28T08:30:40.000Z</time><extensions><gpxtpx:TrackPointExtension><gpxtpx:hr>120</gpxtpx:hr></gpxtpx:TrackPointExtension></extensions></trkpt>
<trkpt lat="22.4592043" lon="114.1809297">
<ele>8</ele><time>2020-12-28T08:30:43.000Z</time><extensions><gpxtpx:TrackPointExtension><gpxtpx:hr>120</gpxtpx:hr></gpxtpx:TrackPointExtension></extensions></trkpt>
<trkpt lat="22.4592142" lon="114.1809940">
<ele>7</ele><time>2020-12-28T08:30:45.000Z</time><extensions><gpxtpx:TrackPointExtension><gpxtpx:hr>118</gpxtpx:hr></gpxtpx:TrackPointExtension></extensions></trkpt>
<trkpt lat="22.4592142" lon="114.1810584">
<ele>7</ele><time>2020-12-28T08:30:49.000Z</time><extensions><gpxtpx:TrackPointExtension><gpxtpx:hr>118</gpxtpx:hr></gpxtpx:TrackPointExtension></extensions></trkpt>
<trkpt lat="22.4592043" lon="114.1811228">
<ele>7</ele><time>2020-12-28T08:30:51.999Z</time><extensions><gpxtpx:TrackPointExtension><gpxtpx:hr>116</gpxtpx:hr></gpxtpx:TrackPointExtension></extensions></trkpt>
<trkpt lat="22.4592142" lon="114.1811872">
<ele>7</ele><time>2020-12-28T08:30:53.999Z</time><extensions><gpxtpx:TrackPointExtension><gpxtpx:hr>116</gpxtpx:hr></gpxtpx:TrackPointExtension></extensions></trkpt>
<trkpt lat="22.4592043" lon="114.1812730">
<ele>7</ele><time>2020-12-28T08:30:56.999Z</time><extensions><gpxtpx:TrackPointExtension><gpxtpx:hr>116</gpxtpx:hr></gpxtpx:TrackPointExtension></extensions></trkpt>
<trkpt lat="22.4592043" lon="114.1813588">
<ele>7</ele><time>2020-12-28T08:30:59.999Z</time><extensions><gpxtpx:TrackPointExtension><gpxtpx:hr>116</gpxtpx:hr></gpxtpx:TrackPointExtension></extensions></trkpt>
<trkpt lat="22.4591944" lon="114.1814232">
<ele>7</ele><time>2020-12-28T08:31:01.999Z</time><extensions><gpxtpx:TrackPointExtension><gpxtpx:hr>116</gpxtpx:hr></gpxtpx:TrackPointExtension></extensions></trkpt>
<trkpt lat="22.4591944" lon="114.1815090">
<ele>8</ele><time>2020-12-28T08:31:04.999Z</time><extensions><gpxtpx:TrackPointExtension><gpxtpx:hr>115</gpxtpx:hr></gpxtpx:TrackPointExtension></extensions></trkpt>
<trkpt lat="22.4591944" lon="114.1815734">
<ele>8</ele><time>2020-12-28T08:31:07.999Z</time><extensions><gpxtpx:TrackPointExtension><gpxtpx:hr>115</gpxtpx:hr></gpxtpx:TrackPointExtension></extensions></trkpt>
<trkpt lat="22.4591845" lon="114.1816378">
<ele>8</ele><time>2020-12-28T08:31:09.999Z</time><extensions><gpxtpx:TrackPointExtension><gpxtpx:hr>113</gpxtpx:hr></gpxtpx:TrackPointExtension></extensions></trkpt>
<trkpt lat="22.4591746" lon="114.1817021">
<ele>8</ele><time>2020-12-28T08:31:11.999Z</time><extensions><gpxtpx:TrackPointExtension><gpxtpx:hr>113</gpxtpx:hr></gpxtpx:TrackPointExtension></extensions></trkpt>
<trkpt lat="22.4591746" lon="114.1817880">
<ele>8</ele><time>2020-12-28T08:31:14.999Z</time><extensions><gpxtpx:TrackPointExtension><gpxtpx:hr>116</gpxtpx:hr></gpxtpx:TrackPointExtension></extensions></trkpt>
<trkpt lat="22.4591845" lon="114.1818523">
<ele>8</ele><time>2020-12-28T08:31:17.999Z</time><extensions><gpxtpx:TrackPointExtension><gpxtpx:hr>116</gpxtpx:hr></gpxtpx:TrackPointExtension></extensions></trkpt>
<trkpt lat="22.4591746" lon="114.1819167">
<ele>8</ele><time>2020-12-28T08:31:19.999Z</time><extensions><gpxtpx:TrackPointExtension><gpxtpx:hr>117</gpxtpx:hr></gpxtpx:TrackPointExtension></extensions></trkpt>
<trkpt lat="22.4591746" lon="114.1820025">
<ele>8</ele><time>2020-12-28T08:31:22.999Z</time><extensions><gpxtpx:TrackPointExtension><gpxtpx:hr>117</gpxtpx:hr></gpxtpx:TrackPointExtension></extensions></trkpt>
<trkpt lat="22.4591944" lon="114.1820669">
<ele>8</ele><time>2020-12-28T08:31:25.999Z</time><extensions><gpxtpx:TrackPointExtension><gpxtpx:hr>116</gpxtpx:hr></gpxtpx:TrackPointExtension></extensions></trkpt>
<trkpt lat="22.4592142" lon="114.1821313">
<ele>8</ele><time>2020-12-28T08:31:27.999Z</time><extensions><gpxtpx:TrackPointExtension><gpxtpx:hr>116</gpxtpx:hr></gpxtpx:TrackPointExtension></extensions></trkpt>
<trkpt lat="22.4592241" lon="114.1821957">
<ele>8</ele><time>2020-12-28T08:31:30.999Z</time><extensions><gpxtpx:TrackPointExtension><gpxtpx:hr>114</gpxtpx:hr></gpxtpx:TrackPointExtension></extensions></trkpt>
<trkpt lat="22.4592440" lon="114.1822600">
<ele>8</ele><time>2020-12-28T08:31:32.999Z</time><extensions><gpxtpx:TrackPointExtension><gpxtpx:hr>114</gpxtpx:hr></gpxtpx:TrackPointExtension></extensions></trkpt>
<trkpt lat="22.4592638" lon="114.1823244">
<ele>8</ele><time>2020-12-28T08:31:35.999Z</time><extensions><gpxtpx:TrackPointExtension><gpxtpx:hr>113</gpxtpx:hr></gpxtpx:TrackPointExtension></extensions></trkpt>
<trkpt lat="22.4592935" lon="114.1823888">
<ele>8</ele><time>2020-12-28T08:31:38.999Z</time><extensions><gpxtpx:TrackPointExtension><gpxtpx:hr>113</gpxtpx:hr></gpxtpx:TrackPointExtension></extensions></trkpt>
<trkpt lat="22.4593134" lon="114.1824532">
<ele>8</ele><time>2020-12-28T08:31:40.999Z</time><extensions><gpxtpx:TrackPointExtension><gpxtpx:hr>113</gpxtpx:hr></gpxtpx:TrackPointExtension></extensions></trkpt>
<trkpt lat="22.4593332" lon="114.1824961">
<ele>8</ele><time>2020-12-28T08:31:42.999Z</time><extensions><gpxtpx:TrackPointExtension><gpxtpx:hr>113</gpxtpx:hr></gpxtpx:TrackPointExtension></extensions></trkpt>
<trkpt lat="22.4593530" lon="114.1825604">
<ele>8</ele><time>2020-12-28T08:31:44.999Z</time><extensions><gpxtpx:TrackPointExtension><gpxtpx:hr>114</gpxtpx:hr></gpxtpx:TrackPointExtension></extensions></trkpt>
<trkpt lat="22.4593927" lon="114.1826248">
<ele>8</ele><time>2020-12-28T08:31:47.999Z</time><extensions><gpxtpx:TrackPointExtension><gpxtpx:hr>114</gpxtpx:hr></gpxtpx:TrackPointExtension></extensions></trkpt>
<trkpt lat="22.4594224" lon="114.1826892">
<ele>8</ele><time>2020-12-28T08:31:49.999Z</time><extensions><gpxtpx:TrackPointExtension><gpxtpx:hr>115</gpxtpx:hr></gpxtpx:TrackPointExtension></extensions></trkpt>
<trkpt lat="22.4594522" lon="114.1827536">
<ele>8</ele><time>2020-12-28T08:31:51.999Z</time><extensions><gpxtpx:TrackPointExtension><gpxtpx:hr>115</gpxtpx:hr></gpxtpx:TrackPointExtension></extensions></trkpt>
<trkpt lat="22.4594918" lon="114.1827965">
<ele>8</ele><time>2020-12-28T08:31:53.999Z</time><extensions><gpxtpx:TrackPointExtension><gpxtpx:hr>115</gpxtpx:hr></gpxtpx:TrackPointExtension></extensions></trkpt>
<trkpt lat="22.4595216" lon="114.1828609">
<ele>8</ele><time>2020-12-28T08:31:55.999Z</time><extensions><gpxtpx:TrackPointExtension><gpxtpx:hr>115</gpxtpx:hr></gpxtpx:TrackPointExtension></extensions></trkpt>
<trkpt lat="22.4595613" lon="114.1829038">
<ele>8</ele><time>2020-12-28T08:31:57.999Z</time><extensions><gpxtpx:TrackPointExtension><gpxtpx:hr>115</gpxtpx:hr></gpxtpx:TrackPointExtension></extensions></trkpt>
<trkpt lat="22.4596009" lon="114.1829467">
<ele>8</ele><time>2020-12-28T08:31:59.999Z</time><extensions><gpxtpx:TrackPointExtension><gpxtpx:hr>115</gpxtpx:hr></gpxtpx:TrackPointExtension></extensions></trkpt>
<trkpt lat="22.4596207" lon="114.1829896">
<ele>8</ele><time>2020-12-28T08:32:00.998Z</time><extensions><gpxtpx:TrackPointExtension><gpxtpx:hr>115</gpxtpx:hr></gpxtpx:TrackPointExtension></extensions></trkpt>
<trkpt lat="22.4596604" lon="114.1830325">
<ele>8</ele><time>2020-12-28T08:32:02.998Z</time><extensions><gpxtpx:TrackPointExtension><gpxtpx:hr>115</gpxtpx:hr></gpxtpx:TrackPointExtension></extensions></trkpt>
<trkpt lat="22.4597001" lon="114.1830754">
<ele>7</ele><time>2020-12-28T08:32:04.998Z</time><extensions><gpxtpx:TrackPointExtension><gpxtpx:hr>117</gpxtpx:hr></gpxtpx:TrackPointExtension></extensions></trkpt>
<trkpt lat="22.4597496" lon="114.1831183">
<ele>7</ele><time>2020-12-28T08:32:06.998Z</time><extensions><gpxtpx:TrackPointExtension><gpxtpx:hr>117</gpxtpx:hr></gpxtpx:TrackPointExtension></extensions></trkpt>
<trkpt lat="22.4597794" lon="114.1831613">
<ele>7</ele><time>2020-12-28T08:32:08.998Z</time><extensions><gpxtpx:TrackPointExtension><gpxtpx:hr>117</gpxtpx:hr></gpxtpx:TrackPointExtension></extensions></trkpt>
<trkpt lat="22.4598389" lon="114.1832042">
<ele>7</ele><time>2020-12-28T08:32:10.998Z</time><extensions><gpxtpx:TrackPointExtension><gpxtpx:hr>116</gpxtpx:hr></gpxtpx:TrackPointExtension></extensions></trkpt>
<trkpt lat="22.4598785" lon="114.1832471">
<ele>7</ele><time>2020-12-28T08:32:12.998Z</time><extensions><gpxtpx:TrackPointExtension><gpxtpx:hr>116</gpxtpx:hr></gpxtpx:TrackPointExtension></extensions></trkpt>
<trkpt lat="22.4599182" lon="114.1832900">
<ele>7</ele><time>2020-12-28T08:32:14.998Z</time><extensions><gpxtpx:TrackPointExtension><gpxtpx:hr>115</gpxtpx:hr></gpxtpx:TrackPointExtension></extensions></trkpt>
<trkpt lat="22.4599678" lon="114.1833329">
<ele>7</ele><time>2020-12-28T08:32:16.998Z</time><extensions><gpxtpx:TrackPointExtension><gpxtpx:hr>115</gpxtpx:hr></gpxtpx:TrackPointExtension></extensions></trkpt>
<trkpt lat="22.4600173" lon="114.1833544">
<ele>7</ele><time>2020-12-28T08:32:19.998Z</time><extensions><gpxtpx:TrackPointExtension><gpxtpx:hr>115</gpxtpx:hr></gpxtpx:TrackPointExtension></extensions></trkpt>
<trkpt lat="22.4600669" lon="114.1833973">
<ele>7</ele><time>2020-12-28T08:32:21.998Z</time><extensions><gpxtpx:TrackPointExtension><gpxtpx:hr>115</gpxtpx:hr></gpxtpx:TrackPointExtension></extensions></trkpt>
<trkpt lat="22.4601066" lon="114.1834402">
<ele>7</ele><time>2020-12-28T08:32:23.998Z</time><extensions><gpxtpx:TrackPointExtension><gpxtpx:hr>115</gpxtpx:hr></gpxtpx:TrackPointExtension></extensions></trkpt>
<trkpt lat="22.4601562" lon="114.1834617">
<ele>7</ele><time>2020-12-28T08:32:25.998Z</time><extensions><gpxtpx:TrackPointExtension><gpxtpx:hr>113</gpxtpx:hr></gpxtpx:TrackPointExtension></extensions></trkpt>
<trkpt lat="22.4601859" lon="114.1835046">
<ele>7</ele><time>2020-12-28T08:32:26.998Z</time><extensions><gpxtpx:TrackPointExtension><gpxtpx:hr>113</gpxtpx:hr></gpxtpx:TrackPointExtension></extensions></trkpt>
<trkpt lat="22.4602256" lon="114.1835260">
<ele>7</ele><time>2020-12-28T08:32:28.998Z</time><extensions><gpxtpx:TrackPointExtension><gpxtpx:hr>113</gpxtpx:hr></gpxtpx:TrackPointExtension></extensions></trkpt>
<trkpt lat="22.4602751" lon="114.1835690">
<ele>7</ele><time>2020-12-28T08:32:30.998Z</time><extensions><gpxtpx:TrackPointExtension><gpxtpx:hr>114</gpxtpx:hr></gpxtpx:TrackPointExtension></extensions></trkpt>
<trkpt lat="22.4603247" lon="114.1836119">
<ele>7</ele><time>2020-12-28T08:32:32.998Z</time><extensions><gpxtpx:TrackPointExtension><gpxtpx:hr>114</gpxtpx:hr></gpxtpx:TrackPointExtension></extensions></trkpt>
<trkpt lat="22.4603644" lon="114.1836333">
<ele>7</ele><time>2020-12-28T08:32:35.000Z</time><extensions><gpxtpx:TrackPointExtension><gpxtpx:hr>115</gpxtpx:hr></gpxtpx:TrackPointExtension></extensions></trkpt>
<trkpt lat="22.4604040" lon="114.1836762">
<ele>7</ele><time>2020-12-28T08:32:37.000Z</time><extensions><gpxtpx:TrackPointExtension><gpxtpx:hr>115</gpxtpx:hr></gpxtpx:TrackPointExtension></extensions></trkpt>
<trkpt lat="22.4604437" lon="114.1836977">
<ele>7</ele><time>2020-12-28T08:32:39.000Z</time><extensions><gpxtpx:TrackPointExtension><gpxtpx:hr>115</gpxtpx:hr></gpxtpx:TrackPointExtension></extensions></trkpt>
<trkpt lat="22.4604734" lon="114.1837406">
<ele>7</ele><time>2020-12-28T08:32:41.000Z</time><extensions><gpxtpx:TrackPointExtension><gpxtpx:hr>115</gpxtpx:hr></gpxtpx:TrackPointExtension></extensions></trkpt>
<trkpt lat="22.4605230" lon="114.1837835">
<ele>7</ele><time>2020-12-28T08:32:44.000Z</time><extensions><gpxtpx:TrackPointExtension><gpxtpx:hr>115</gpxtpx:hr></gpxtpx:TrackPointExtension></extensions></trkpt>
<trkpt lat="22.4605627" lon="114.1838264">
<ele>7</ele><time>2020-12-28T08:32:46.000Z</time><extensions><gpxtpx:TrackPointExtension><gpxtpx:hr>115</gpxtpx:hr></gpxtpx:TrackPointExtension></extensions></trkpt>
<trkpt lat="22.4606023" lon="114.1838479">
<ele>7</ele><time>2020-12-28T08:32:48.000Z</time><extensions><gpxtpx:TrackPointExtension><gpxtpx:hr>115</gpxtpx:hr></gpxtpx:TrackPointExtension></extensions></trkpt>
<trkpt lat="22.4606420" lon="114.1838694">
<ele>6</ele><time>2020-12-28T08:32:50.000Z</time><extensions><gpxtpx:TrackPointExtension><gpxtpx:hr>116</gpxtpx:hr></gpxtpx:TrackPointExtension></extensions></trkpt>
<trkpt lat="22.4606816" lon="114.1839123">
<ele>6</ele><time>2020-12-28T08:32:52.000Z</time><extensions><gpxtpx:TrackPointExtension><gpxtpx:hr>116</gpxtpx:hr></gpxtpx:TrackPointExtension></extensions></trkpt>
<trkpt lat="22.4607213" lon="114.1839337">
<ele>6</ele><time>2020-12-28T08:32:54.000Z</time><extensions><gpxtpx:TrackPointExtension><gpxtpx:hr>116</gpxtpx:hr></gpxtpx:TrackPointExtension></extensions></trkpt>
<trkpt lat="22.4607709" lon="114.1839552">
<ele>6</ele><time>2020-12-28T08:32:56.999Z</time><extensions><gpxtpx:TrackPointExtension><gpxtpx:hr>116</gpxtpx:hr></gpxtpx:TrackPointExtension></extensions></trkpt>
<trkpt lat="22.4608105" lon="114.1839981">
<ele>6</ele><time>2020-12-28T08:32:59.999Z</time><extensions><gpxtpx:TrackPointExtension><gpxtpx:hr>117</gpxtpx:hr></gpxtpx:TrackPointExtension></extensions></trkpt>
<trkpt lat="22.4608601" lon="114.1840410">
<ele>6</ele><time>2020-12-28T08:33:03.999Z</time><extensions><gpxtpx:TrackPointExtension><gpxtpx:hr>117</gpxtpx:hr></gpxtpx:TrackPointExtension></extensions></trkpt>
<trkpt lat="22.4608998" lon="114.1840839">
<ele>6</ele><time>2020-12-28T08:33:05.999Z</time><extensions><gpxtpx:TrackPointExtension><gpxtpx:hr>117</gpxtpx:hr></gpxtpx:TrackPointExtension></extensions></trkpt>
<trkpt lat="22.4609394" lon="114.1841054">
<ele>6</ele><time>2020-12-28T08:33:07.999Z</time><extensions><gpxtpx:TrackPointExtension><gpxtpx:hr>117</gpxtpx:hr></gpxtpx:TrackPointExtension></extensions></trkpt>
<trkpt lat="22.4609890" lon="114.1841269">
<ele>6</ele><time>2020-12-28T08:33:09.999Z</time><extensions><gpxtpx:TrackPointExtension><gpxtpx:hr>116</gpxtpx:hr></gpxtpx:TrackPointExtension></extensions></trkpt>
<trkpt lat="22.4610287" lon="114.1841483">
<ele>7</ele><time>2020-12-28T08:33:11.999Z</time><extensions><gpxtpx:TrackPointExtension><gpxtpx:hr>116</gpxtpx:hr></gpxtpx:TrackPointExtension></extensions></trkpt>
<trkpt lat="22.4610782" lon="114.1841483">
<ele>7</ele><time>2020-12-28T08:33:13.999Z</time><extensions><gpxtpx:TrackPointExtension><gpxtpx:hr>116</gpxtpx:hr></gpxtpx:TrackPointExtension></extensions></trkpt>
<trkpt lat="22.4611278" lon="114.1841912">
<ele>7</ele><time>2020-12-28T08:33:15.999Z</time><extensions><gpxtpx:TrackPointExtension><gpxtpx:hr>116</gpxtpx:hr></gpxtpx:TrackPointExtension></extensions></trkpt>
<trkpt lat="22.4611873" lon="114.1842127">
<ele>7</ele><time>2020-12-28T08:33:17.999Z</time><extensions><gpxtpx:TrackPointExtension><gpxtpx:hr>116</gpxtpx:hr></gpxtpx:TrackPointExtension></extensions></trkpt>
<trkpt lat="22.4612270" lon="114.1842556">
<ele>7</ele><time>2020-12-28T08:33:19.999Z</time><extensions><gpxtpx:TrackPointExtension><gpxtpx:hr>117</gpxtpx:hr></gpxtpx:TrackPointExtension></extensions></trkpt>
<trkpt lat="22.4612666" lon="114.1842771">
<ele>7</ele><time>2020-12-28T08:33:21.999Z</time><extensions><gpxtpx:TrackPointExtension><gpxtpx:hr>117</gpxtpx:hr></gpxtpx:TrackPointExtension></extensions></trkpt>
<trkpt lat="22.4613261" lon="114.1843200">
<ele>7</ele><time>2020-12-28T08:33:24.999Z</time><extensions><gpxtpx:TrackPointExtension><gpxtpx:hr>118</gpxtpx:hr></gpxtpx:TrackPointExtension></extensions></trkpt>
<trkpt lat="22.4613658" lon="114.1843629">
<ele>7</ele><time>2020-12-28T08:33:26.999Z</time><extensions><gpxtpx:TrackPointExtension><gpxtpx:hr>118</gpxtpx:hr></gpxtpx:TrackPointExtension></extensions></trkpt>
<trkpt lat="22.4614253" lon="114.1844273">
<ele>7</ele><time>2020-12-28T08:33:29.999Z</time><extensions><gpxtpx:TrackPointExtension><gpxtpx:hr>118</gpxtpx:hr></gpxtpx:TrackPointExtension></extensions></trkpt>
<trkpt lat="22.4614550" lon="114.1844702">
<ele>7</ele><time>2020-12-28T08:33:31.999Z</time><extensions><gpxtpx:TrackPointExtension><gpxtpx:hr>118</gpxtpx:hr></gpxtpx:TrackPointExtension></extensions></trkpt>
<trkpt lat="22.4614947" lon="114.1844916">
<ele>7</ele><time>2020-12-28T08:33:33.999Z</time><extensions><gpxtpx:TrackPointExtension><gpxtpx:hr>118</gpxtpx:hr></gpxtpx:TrackPointExtension></extensions></trkpt>
<trkpt lat="22.4615343" lon="114.1845345">
<ele>7</ele><time>2020-12-28T08:33:35.999Z</time><extensions><gpxtpx:TrackPointExtension><gpxtpx:hr>118</gpxtpx:hr></gpxtpx:TrackPointExtension></extensions></trkpt>
<trkpt lat="22.4615740" lon="114.1845560">
<ele>7</ele><time>2020-12-28T08:33:37.999Z</time><extensions><gpxtpx:TrackPointExtension><gpxtpx:hr>118</gpxtpx:hr></gpxtpx:TrackPointExtension></extensions></trkpt>
<trkpt lat="22.4616037" lon="114.1845989">
<ele>7</ele><time>2020-12-28T08:33:39.999Z</time><extensions><gpxtpx:TrackPointExtension><gpxtpx:hr>118</gpxtpx:hr></gpxtpx:TrackPointExtension></extensions></trkpt>
<trkpt lat="22.4616533" lon="114.1846418">
<ele>7</ele><time>2020-12-28T08:33:41.999Z</time><extensions><gpxtpx:TrackPointExtension><gpxtpx:hr>118</gpxtpx:hr></gpxtpx:TrackPointExtension></extensions></trkpt>
<trkpt lat="22.4616930" lon="114.1846633">
<ele>7</ele><time>2020-12-28T08:33:43.999Z</time><extensions><gpxtpx:TrackPointExtension><gpxtpx:hr>118</gpxtpx:hr></gpxtpx:TrackPointExtension></extensions></trkpt>
<trkpt lat="22.4617425" lon="114.1847062">
<ele>7</ele><time>2020-12-28T08:33:45.999Z</time><extensions><gpxtpx:TrackPointExtension><gpxtpx:hr>118</gpxtpx:hr></gpxtpx:TrackPointExtension></extensions></trkpt>
<trkpt lat="22.4617723" lon="114.1847491">
<ele>7</ele><time>2020-12-28T08:33:47.999Z</time><extensions><gpxtpx:TrackPointExtension><gpxtpx:hr>118</gpxtpx:hr></gpxtpx:TrackPointExtension></extensions></trkpt>
<trkpt lat="22.4617921" lon="114.1847920">
<ele>7</ele><time>2020-12-28T08:33:49.999Z</time><extensions><gpxtpx:TrackPointExtension><gpxtpx:hr>117</gpxtpx:hr></gpxtpx:TrackPointExtension></extensions></trkpt>
<trkpt lat="22.4618318" lon="114.1848135">
<ele>7</ele><time>2020-12-28T08:33:51.999Z</time><extensions><gpxtpx:TrackPointExtension><gpxtpx:hr>117</gpxtpx:hr></gpxtpx:TrackPointExtension></extensions></trkpt>
<trkpt lat="22.4618615" lon="114.1848564">
<ele>7</ele><time>2020-12-28T08:33:53.999Z</time><extensions><gpxtpx:TrackPointExtension><gpxtpx:hr>117</gpxtpx:hr></gpxtpx:TrackPointExtension></extensions></trkpt>
<trkpt lat="22.4619111" lon="114.1848993">
<ele>6</ele><time>2020-12-28T08:33:55.999Z</time><extensions><gpxtpx:TrackPointExtension><gpxtpx:hr>118</gpxtpx:hr></gpxtpx:TrackPointExtension></extensions></trkpt>
<trkpt lat="22.4619508" lon="114.1849422">
<ele>6</ele><time>2020-12-28T08:33:57.999Z</time><extensions><gpxtpx:TrackPointExtension><gpxtpx:hr>118</gpxtpx:hr></gpxtpx:TrackPointExtension></extensions></trkpt>
<trkpt lat="22.4619805" lon="114.1850066">
<ele>6</ele><time>2020-12-28T08:33:59.999Z</time><extensions><gpxtpx:TrackPointExtension><gpxtpx:hr>118</gpxtpx:hr></gpxtpx:TrackPointExtension></extensions></trkpt>
<trkpt lat="22.4620102" lon="114.1850495">
<ele>6</ele><time>2020-12-28T08:34:01.999Z</time><extensions><gpxtpx:TrackPointExtension><gpxtpx:hr>118</gpxtpx:hr></gpxtpx:TrackPointExtension></extensions></trkpt>
<trkpt lat="22.4620400" lon="114.1851139">
<ele>6</ele><time>2020-12-28T08:34:04.999Z</time><extensions><gpxtpx:TrackPointExtension><gpxtpx:hr>118</gpxtpx:hr></gpxtpx:TrackPointExtension></extensions></trkpt>
<trkpt lat="22.4620797" lon="114.1851568">
<ele>6</ele><time>2020-12-28T08:34:07.999Z</time><extensions><gpxtpx:TrackPointExtension><gpxtpx:hr>118</gpxtpx:hr></gpxtpx:TrackPointExtension></extensions></trkpt>
<trkpt lat="22.4620995" lon="114.1852212">
<ele>6</ele><time>2020-12-28T08:34:09.998Z</time><extensions><gpxtpx:TrackPointExtension><gpxtpx:hr>118</gpxtpx:hr></gpxtpx:TrackPointExtension></extensions></trkpt>
<trkpt lat="22.4621292" lon="114.1852641">
<ele>6</ele><time>2020-12-28T08:34:11.998Z</time><extensions><gpxtpx:TrackPointExtension><gpxtpx:hr>118</gpxtpx:hr></gpxtpx:TrackPointExtension></extensions></trkpt>
<trkpt lat="22.4621491" lon="114.1853285">
<ele>6</ele><time>2020-12-28T08:34:13.998Z</time><extensions><gpxtpx:TrackPointExtension><gpxtpx:hr>118</gpxtpx:hr></gpxtpx:TrackPointExtension></extensions></trkpt>
<trkpt lat="22.4621689" lon="114.1853714">
<ele>6</ele><time>2020-12-28T08:34:15.998Z</time><extensions><gpxtpx:TrackPointExtension><gpxtpx:hr>118</gpxtpx:hr></gpxtpx:TrackPointExtension></extensions></trkpt>
<trkpt lat="22.4621887" lon="114.1854143">
<ele>6</ele><time>2020-12-28T08:34:17.998Z</time><extensions><gpxtpx:TrackPointExtension><gpxtpx:hr>118</gpxtpx:hr></gpxtpx:TrackPointExtension></extensions></trkpt>
<trkpt lat="22.4622085" lon="114.1854787">
<ele>6</ele><time>2020-12-28T08:34:19.998Z</time><extensions><gpxtpx:TrackPointExtension><gpxtpx:hr>110</gpxtpx:hr></gpxtpx:TrackPointExtension></extensions></trkpt>
<trkpt lat="22.4622284" lon="114.1855216">
<ele>6</ele><time>2020-12-28T08:34:21.998Z</time><extensions><gpxtpx:TrackPointExtension><gpxtpx:hr>110</gpxtpx:hr></gpxtpx:TrackPointExtension></extensions></trkpt>
<trkpt lat="22.4622383" lon="114.1855860">
<ele>6</ele><time>2020-12-28T08:34:24.998Z</time><extensions><gpxtpx:TrackPointExtension><gpxtpx:hr>110</gpxtpx:hr></gpxtpx:TrackPointExtension></extensions></trkpt>
<trkpt lat="22.4622482" lon="114.1856503">
<ele>6</ele><time>2020-12-28T08:34:27.998Z</time><extensions><gpxtpx:TrackPointExtension><gpxtpx:hr>110</gpxtpx:hr></gpxtpx:TrackPointExtension></extensions></trkpt>
<trkpt lat="22.4622581" lon="114.1857147">
<ele>6</ele><time>2020-12-28T08:34:29.998Z</time><extensions><gpxtpx:TrackPointExtension><gpxtpx:hr>109</gpxtpx:hr></gpxtpx:TrackPointExtension></extensions></trkpt>
<trkpt lat="22.4622779" lon="114.1857791">
<ele>6</ele><time>2020-12-28T08:34:32.998Z</time><extensions><gpxtpx:TrackPointExtension><gpxtpx:hr>109</gpxtpx:hr></gpxtpx:TrackPointExtension></extensions></trkpt>
<trkpt lat="22.4622879" lon="114.1858435">
<ele>6</ele><time>2020-12-28T08:34:35.998Z</time><extensions><gpxtpx:TrackPointExtension><gpxtpx:hr>110</gpxtpx:hr></gpxtpx:TrackPointExtension></extensions></trkpt>
<trkpt lat="22.4622978" lon="114.1859078">
<ele>7</ele><time>2020-12-28T08:34:39.998Z</time><extensions><gpxtpx:TrackPointExtension><gpxtpx:hr>113</gpxtpx:hr></gpxtpx:TrackPointExtension></extensions></trkpt>
<trkpt lat="22.4623077" lon="114.1859722">
<ele>7</ele><time>2020-12-28T08:34:44.000Z</time><extensions><gpxtpx:TrackPointExtension><gpxtpx:hr>113</gpxtpx:hr></gpxtpx:TrackPointExtension></extensions></trkpt>
<trkpt lat="22.4623176" lon="114.1860366">
<ele>7</ele><time>2020-12-28T08:34:47.000Z</time><extensions><gpxtpx:TrackPointExtension><gpxtpx:hr>114</gpxtpx:hr></gpxtpx:TrackPointExtension></extensions></trkpt>
<trkpt lat="22.4623374" lon="114.1861010">
<ele>7</ele><time>2020-12-28T08:34:51.000Z</time><extensions><gpxtpx:TrackPointExtension><gpxtpx:hr>116</gpxtpx:hr></gpxtpx:TrackPointExtension></extensions></trkpt>
<trkpt lat="22.4623176" lon="114.1861653">
<ele>7</ele><time>2020-12-28T08:34:55.000Z</time><extensions><gpxtpx:TrackPointExtension><gpxtpx:hr>116</gpxtpx:hr></gpxtpx:TrackPointExtension></extensions></trkpt>
<trkpt lat="22.4623176" lon="114.1862512">
<ele>7</ele><time>2020-12-28T08:34:59.000Z</time><extensions><gpxtpx:TrackPointExtension><gpxtpx:hr>116</gpxtpx:hr></gpxtpx:TrackPointExtension></extensions></trkpt>
<trkpt lat="22.4623275" lon="114.1863155">
<ele>7</ele><time>2020-12-28T08:35:03.999Z</time><extensions><gpxtpx:TrackPointExtension><gpxtpx:hr>116</gpxtpx:hr></gpxtpx:TrackPointExtension></extensions></trkpt>
<trkpt lat="22.4623275" lon="114.1863799">
<ele>7</ele><time>2020-12-28T08:35:07.999Z</time><extensions><gpxtpx:TrackPointExtension><gpxtpx:hr>115</gpxtpx:hr></gpxtpx:TrackPointExtension></extensions></trkpt>
<trkpt lat="22.4623176" lon="114.1864443">
<ele>7</ele><time>2020-12-28T08:35:11.999Z</time><extensions><gpxtpx:TrackPointExtension><gpxtpx:hr>118</gpxtpx:hr></gpxtpx:TrackPointExtension></extensions></trkpt>
<trkpt lat="22.4623176" lon="114.1865087">
<ele>7</ele><time>2020-12-28T08:35:13.999Z</time><extensions><gpxtpx:TrackPointExtension><gpxtpx:hr>118</gpxtpx:hr></gpxtpx:TrackPointExtension></extensions></trkpt>
<trkpt lat="22.4623176" lon="114.1865730">
<ele>7</ele><time>2020-12-28T08:35:17.999Z</time><extensions><gpxtpx:TrackPointExtension><gpxtpx:hr>119</gpxtpx:hr></gpxtpx:TrackPointExtension></extensions></trkpt>
<trkpt lat="22.4623374" lon="114.1866374">
<ele>7</ele><time>2020-12-28T08:35:20.999Z</time><extensions><gpxtpx:TrackPointExtension><gpxtpx:hr>120</gpxtpx:hr></gpxtpx:TrackPointExtension></extensions></trkpt>
<trkpt lat="22.4623474" lon="114.1867018">
<ele>7</ele><time>2020-12-28T08:35:22.999Z</time><extensions><gpxtpx:TrackPointExtension><gpxtpx:hr>120</gpxtpx:hr></gpxtpx:TrackPointExtension></extensions></trkpt>
<trkpt lat="22.4623374" lon="114.1867661">
<ele>7</ele><time>2020-12-28T08:35:24.999Z</time><extensions><gpxtpx:TrackPointExtension><gpxtpx:hr>120</gpxtpx:hr></gpxtpx:TrackPointExtension></extensions></trkpt>
<trkpt lat="22.4623374" lon="114.1868305">
<ele>7</ele><time>2020-12-28T08:35:27.999Z</time><extensions><gpxtpx:TrackPointExtension><gpxtpx:hr>120</gpxtpx:hr></gpxtpx:TrackPointExtension></extensions></trkpt>
<trkpt lat="22.4623374" lon="114.1868949">
<ele>7</ele><time>2020-12-28T08:35:41.999Z</time><extensions><gpxtpx:TrackPointExtension><gpxtpx:hr>122</gpxtpx:hr></gpxtpx:TrackPointExtension></extensions></trkpt>
<trkpt lat="22.4623374" lon="114.1869593">
<ele>7</ele><time>2020-12-28T08:35:46.999Z</time><extensions><gpxtpx:TrackPointExtension><gpxtpx:hr>123</gpxtpx:hr></gpxtpx:TrackPointExtension></extensions></trkpt>
<trkpt lat="22.4623374" lon="114.1870236">
<ele>7</ele><time>2020-12-28T08:35:50.999Z</time><extensions><gpxtpx:TrackPointExtension><gpxtpx:hr>121</gpxtpx:hr></gpxtpx:TrackPointExtension></extensions></trkpt>
<trkpt lat="22.4623374" lon="114.1870880">
<ele>7</ele><time>2020-12-28T08:35:52.999Z</time><extensions><gpxtpx:TrackPointExtension><gpxtpx:hr>121</gpxtpx:hr></gpxtpx:TrackPointExtension></extensions></trkpt>
<trkpt lat="22.4623275" lon="114.1871738">
<ele>7</ele><time>2020-12-28T08:35:55.999Z</time><extensions><gpxtpx:TrackPointExtension><gpxtpx:hr>121</gpxtpx:hr></gpxtpx:TrackPointExtension></extensions></trkpt>
<trkpt lat="22.4623275" lon="114.1872597">
<ele>7</ele><time>2020-12-28T08:35:58.999Z</time><extensions><gpxtpx:TrackPointExtension><gpxtpx:hr>121</gpxtpx:hr></gpxtpx:TrackPointExtension></extensions></trkpt>
<trkpt lat="22.4623374" lon="114.1873455">
<ele>7</ele><time>2020-12-28T08:36:01.999Z</time><extensions><gpxtpx:TrackPointExtension><gpxtpx:hr>123</gpxtpx:hr></gpxtpx:TrackPointExtension></extensions></trkpt>
<trkpt lat="22.4623374" lon="114.1874099">
<ele>7</ele><time>2020-12-28T08:36:04.999Z</time><extensions><gpxtpx:TrackPointExtension><gpxtpx:hr>123</gpxtpx:hr></gpxtpx:TrackPointExtension></extensions></trkpt>
<trkpt lat="22.4623275" lon="114.1874743">
<ele>7</ele><time>2020-12-28T08:36:07.999Z</time><extensions><gpxtpx:TrackPointExtension><gpxtpx:hr>123</gpxtpx:hr></gpxtpx:TrackPointExtension></extensions></trkpt>
<trkpt lat="22.4623176" lon="114.1875386">
<ele>7</ele><time>2020-12-28T08:36:09.998Z</time><extensions><gpxtpx:TrackPointExtension><gpxtpx:hr>123</gpxtpx:hr></gpxtpx:TrackPointExtension></extensions></trkpt>
<trkpt lat="22.4622978" lon="114.1876030">
<ele>8</ele><time>2020-12-28T08:36:11.998Z</time><extensions><gpxtpx:TrackPointExtension><gpxtpx:hr>123</gpxtpx:hr></gpxtpx:TrackPointExtension></extensions></trkpt>
<trkpt lat="22.4622879" lon="114.1876674">
<ele>8</ele><time>2020-12-28T08:36:14.998Z</time><extensions><gpxtpx:TrackPointExtension><gpxtpx:hr>123</gpxtpx:hr></gpxtpx:TrackPointExtension></extensions></trkpt>
<trkpt lat="22.4622879" lon="114.1877317">
<ele>8</ele><time>2020-12-28T08:36:16.998Z</time><extensions><gpxtpx:TrackPointExtension><gpxtpx:hr>123</gpxtpx:hr></gpxtpx:TrackPointExtension></extensions></trkpt>
<trkpt lat="22.4622978" lon="114.1877961">
<ele>8</ele><time>2020-12-28T08:36:19.998Z</time><extensions><gpxtpx:TrackPointExtension><gpxtpx:hr>121</gpxtpx:hr></gpxtpx:TrackPointExtension></extensions></trkpt>
<trkpt lat="22.4622978" lon="114.1878605">
<ele>8</ele><time>2020-12-28T08:36:21.998Z</time><extensions><gpxtpx:TrackPointExtension><gpxtpx:hr>121</gpxtpx:hr></gpxtpx:TrackPointExtension></extensions></trkpt>
<trkpt lat="22.4622978" lon="114.1879249">
<ele>8</ele><time>2020-12-28T08:36:24.998Z</time><extensions><gpxtpx:TrackPointExtension><gpxtpx:hr>121</gpxtpx:hr></gpxtpx:TrackPointExtension></extensions></trkpt>
<trkpt lat="22.4622978" lon="114.1879892">
<ele>8</ele><time>2020-12-28T08:36:27.998Z</time><extensions><gpxtpx:TrackPointExtension><gpxtpx:hr>121</gpxtpx:hr></gpxtpx:TrackPointExtension></extensions></trkpt>
<trkpt lat="22.4622978" lon="114.1880751">
<ele>8</ele><time>2020-12-28T08:36:31.998Z</time><extensions><gpxtpx:TrackPointExtension><gpxtpx:hr>122</gpxtpx:hr></gpxtpx:TrackPointExtension></extensions></trkpt>
<trkpt lat="22.4623077" lon="114.1881394">
<ele>8</ele><time>2020-12-28T08:36:35.998Z</time><extensions><gpxtpx:TrackPointExtension><gpxtpx:hr>121</gpxtpx:hr></gpxtpx:TrackPointExtension></extensions></trkpt>
<trkpt lat="22.4623077" lon="114.1882253">
<ele>8</ele><time>2020-12-28T08:36:38.998Z</time><extensions><gpxtpx:TrackPointExtension><gpxtpx:hr>121</gpxtpx:hr></gpxtpx:TrackPointExtension></extensions></trkpt>
<trkpt lat="22.4623077" lon="114.1882896">
<ele>8</ele><time>2020-12-28T08:36:42.998Z</time><extensions><gpxtpx:TrackPointExtension><gpxtpx:hr>121</gpxtpx:hr></gpxtpx:TrackPointExtension></extensions></trkpt>
<trkpt lat="22.4623176" lon="114.1883540">
<ele>8</ele><time>2020-12-28T08:36:45.998Z</time><extensions><gpxtpx:TrackPointExtension><gpxtpx:hr>119</gpxtpx:hr></gpxtpx:TrackPointExtension></extensions></trkpt>
<trkpt lat="22.4623374" lon="114.1883969">
<ele>8</ele><time>2020-12-28T08:36:47.999Z</time><extensions><gpxtpx:TrackPointExtension><gpxtpx:hr>119</gpxtpx:hr></gpxtpx:TrackPointExtension></extensions></trkpt>
<trkpt lat="22.4623474" lon="114.1884613">
<ele>8</ele><time>2020-12-28T08:36:52.999Z</time><extensions><gpxtpx:TrackPointExtension><gpxtpx:hr>119</gpxtpx:hr></gpxtpx:TrackPointExtension></extensions></trkpt>
<trkpt lat="22.4623077" lon="114.1884828">
<ele>8</ele><time>2020-12-28T08:36:58.999Z</time><extensions><gpxtpx:TrackPointExtension><gpxtpx:hr>118</gpxtpx:hr></gpxtpx:TrackPointExtension></extensions></trkpt>
<trkpt lat="22.4622383" lon="114.1885042">
<ele>7</ele><time>2020-12-28T08:37:30.999Z</time><extensions><gpxtpx:TrackPointExtension><gpxtpx:hr>118</gpxtpx:hr></gpxtpx:TrackPointExtension></extensions></trkpt>
<trkpt lat="22.4622779" lon="114.1884828">
<ele>7</ele><time>2020-12-28T08:38:03.999Z</time><extensions><gpxtpx:TrackPointExtension><gpxtpx:hr>107</gpxtpx:hr></gpxtpx:TrackPointExtension></extensions></trkpt>
<trkpt lat="22.4622383" lon="114.1884613">
<ele>7</ele><time>2020-12-28T08:38:47.998Z</time><extensions><gpxtpx:TrackPointExtension><gpxtpx:hr>111</gpxtpx:hr></gpxtpx:TrackPointExtension></extensions></trkpt>
<trkpt lat="22.4621887" lon="114.1884828">
<ele>7</ele><time>2020-12-28T08:39:30.999Z</time><extensions><gpxtpx:TrackPointExtension><gpxtpx:hr>111</gpxtpx:hr></gpxtpx:TrackPointExtension></extensions></trkpt>
<trkpt lat="22.4621391" lon="114.1884828">
<ele>7</ele><time>2020-12-28T08:39:35.999Z</time><extensions><gpxtpx:TrackPointExtension><gpxtpx:hr>111</gpxtpx:hr></gpxtpx:TrackPointExtension></extensions></trkpt>
<trkpt lat="22.4621094" lon="114.1885257">
<ele>7</ele><time>2020-12-28T08:39:40.999Z</time><extensions><gpxtpx:TrackPointExtension><gpxtpx:hr>113</gpxtpx:hr></gpxtpx:TrackPointExtension></extensions></trkpt>
<trkpt lat="22.4621193" lon="114.1886115">
<ele>7</ele><time>2020-12-28T08:39:43.999Z</time><extensions><gpxtpx:TrackPointExtension><gpxtpx:hr>113</gpxtpx:hr></gpxtpx:TrackPointExtension></extensions></trkpt>
<trkpt lat="22.4621193" lon="114.1886759">
<ele>7</ele><time>2020-12-28T08:39:45.999Z</time><extensions><gpxtpx:TrackPointExtension><gpxtpx:hr>117</gpxtpx:hr></gpxtpx:TrackPointExtension></extensions></trkpt>
<trkpt lat="22.4621391" lon="114.1887403">
<ele>7</ele><time>2020-12-28T08:39:48.999Z</time><extensions><gpxtpx:TrackPointExtension><gpxtpx:hr>117</gpxtpx:hr></gpxtpx:TrackPointExtension></extensions></trkpt>
<trkpt lat="22.4621391" lon="114.1888046">
<ele>7</ele><time>2020-12-28T08:39:50.999Z</time><extensions><gpxtpx:TrackPointExtension><gpxtpx:hr>121</gpxtpx:hr></gpxtpx:TrackPointExtension></extensions></trkpt>
<trkpt lat="22.4621590" lon="114.1888905">
<ele>7</ele><time>2020-12-28T08:39:53.999Z</time><extensions><gpxtpx:TrackPointExtension><gpxtpx:hr>121</gpxtpx:hr></gpxtpx:TrackPointExtension></extensions></trkpt>
<trkpt lat="22.4621590" lon="114.1889763">
<ele>7</ele><time>2020-12-28T08:39:56.999Z</time><extensions><gpxtpx:TrackPointExtension><gpxtpx:hr>121</gpxtpx:hr></gpxtpx:TrackPointExtension></extensions></trkpt>
<trkpt lat="22.4621590" lon="114.1890407">
<ele>7</ele><time>2020-12-28T08:39:58.999Z</time><extensions><gpxtpx:TrackPointExtension><gpxtpx:hr>121</gpxtpx:hr></gpxtpx:TrackPointExtension></extensions></trkpt>
<trkpt lat="22.4621689" lon="114.1891265">
<ele>7</ele><time>2020-12-28T08:40:00.999Z</time><extensions><gpxtpx:TrackPointExtension><gpxtpx:hr>121</gpxtpx:hr></gpxtpx:TrackPointExtension></extensions></trkpt>
<trkpt lat="22.4621689" lon="114.1892338">
<ele>7</ele><time>2020-12-28T08:40:02.999Z</time><extensions><gpxtpx:TrackPointExtension><gpxtpx:hr>121</gpxtpx:hr></gpxtpx:TrackPointExtension></extensions></trkpt>
<trkpt lat="22.4621590" lon="114.1892982">
<ele>7</ele><time>2020-12-28T08:40:04.999Z</time><extensions><gpxtpx:TrackPointExtension><gpxtpx:hr>121</gpxtpx:hr></gpxtpx:TrackPointExtension></extensions></trkpt>
<trkpt lat="22.4621689" lon="114.1893840">
<ele>7</ele><time>2020-12-28T08:40:06.999Z</time><extensions><gpxtpx:TrackPointExtension><gpxtpx:hr>121</gpxtpx:hr></gpxtpx:TrackPointExtension></extensions></trkpt>
<trkpt lat="22.4621590" lon="114.1894698">
<ele>7</ele><time>2020-12-28T08:40:08.999Z</time><extensions><gpxtpx:TrackPointExtension><gpxtpx:hr>121</gpxtpx:hr></gpxtpx:TrackPointExtension></extensions></trkpt>
<trkpt lat="22.4621491" lon="114.1895342">
<ele>7</ele><time>2020-12-28T08:40:11.999Z</time><extensions><gpxtpx:TrackPointExtension><gpxtpx:hr>121</gpxtpx:hr></gpxtpx:TrackPointExtension></extensions></trkpt>
<trkpt lat="22.4621590" lon="114.1895986">
<ele>7</ele><time>2020-12-28T08:40:13.999Z</time><extensions><gpxtpx:TrackPointExtension><gpxtpx:hr>121</gpxtpx:hr></gpxtpx:TrackPointExtension></extensions></trkpt>
<trkpt lat="22.4621590" lon="114.1896844">
<ele>7</ele><time>2020-12-28T08:40:16.999Z</time><extensions><gpxtpx:TrackPointExtension><gpxtpx:hr>121</gpxtpx:hr></gpxtpx:TrackPointExtension></extensions></trkpt>
<trkpt lat="22.4621590" lon="114.1897488">
<ele>7</ele><time>2020-12-28T08:40:19.999Z</time><extensions><gpxtpx:TrackPointExtension><gpxtpx:hr>121</gpxtpx:hr></gpxtpx:TrackPointExtension></extensions></trkpt>
<trkpt lat="22.4621590" lon="114.1898131">
<ele>7</ele><time>2020-12-28T08:40:21.999Z</time><extensions><gpxtpx:TrackPointExtension><gpxtpx:hr>121</gpxtpx:hr></gpxtpx:TrackPointExtension></extensions></trkpt>
<trkpt lat="22.4621590" lon="114.1898775">
<ele>7</ele><time>2020-12-28T08:40:24.999Z</time><extensions><gpxtpx:TrackPointExtension><gpxtpx:hr>121</gpxtpx:hr></gpxtpx:TrackPointExtension></extensions></trkpt>
<trkpt lat="22.4621689" lon="114.1899419">
<ele>7</ele><time>2020-12-28T08:40:26.998Z</time><extensions><gpxtpx:TrackPointExtension><gpxtpx:hr>121</gpxtpx:hr></gpxtpx:TrackPointExtension></extensions></trkpt>
<trkpt lat="22.4621689" lon="114.1900277">
<ele>7</ele><time>2020-12-28T08:40:29.998Z</time><extensions><gpxtpx:TrackPointExtension><gpxtpx:hr>121</gpxtpx:hr></gpxtpx:TrackPointExtension></extensions></trkpt>
<trkpt lat="22.4621689" lon="114.1900921">
<ele>7</ele><time>2020-12-28T08:40:32.998Z</time><extensions><gpxtpx:TrackPointExtension><gpxtpx:hr>121</gpxtpx:hr></gpxtpx:TrackPointExtension></extensions></trkpt>
<trkpt lat="22.4621689" lon="114.1901565">
<ele>6</ele><time>2020-12-28T08:40:34.998Z</time><extensions><gpxtpx:TrackPointExtension><gpxtpx:hr>121</gpxtpx:hr></gpxtpx:TrackPointExtension></extensions></trkpt>
<trkpt lat="22.4621590" lon="114.1902208">
<ele>6</ele><time>2020-12-28T08:40:37.998Z</time><extensions><gpxtpx:TrackPointExtension><gpxtpx:hr>121</gpxtpx:hr></gpxtpx:TrackPointExtension></extensions></trkpt>
<trkpt lat="22.4621491" lon="114.1902852">
<ele>6</ele><time>2020-12-28T08:40:40.998Z</time><extensions><gpxtpx:TrackPointExtension><gpxtpx:hr>121</gpxtpx:hr></gpxtpx:TrackPointExtension></extensions></trkpt>
<trkpt lat="22.4621491" lon="114.1903710">
<ele>6</ele><time>2020-12-28T08:40:44.998Z</time><extensions><gpxtpx:TrackPointExtension><gpxtpx:hr>121</gpxtpx:hr></gpxtpx:TrackPointExtension></extensions></trkpt>
<trkpt lat="22.4621292" lon="114.1904354">
<ele>6</ele><time>2020-12-28T08:40:49.998Z</time><extensions><gpxtpx:TrackPointExtension><gpxtpx:hr>121</gpxtpx:hr></gpxtpx:TrackPointExtension></extensions></trkpt>
<trkpt lat="22.4621193" lon="114.1904998">
<ele>6</ele><time>2020-12-28T08:40:54.998Z</time><extensions><gpxtpx:TrackPointExtension><gpxtpx:hr>121</gpxtpx:hr></gpxtpx:TrackPointExtension></extensions></trkpt>
<trkpt lat="22.4621094" lon="114.1905642">
<ele>6</ele><time>2020-12-28T08:41:00.000Z</time><extensions><gpxtpx:TrackPointExtension><gpxtpx:hr>121</gpxtpx:hr></gpxtpx:TrackPointExtension></extensions></trkpt>
<trkpt lat="22.4620995" lon="114.1906285">
<ele>6</ele><time>2020-12-28T08:41:03.000Z</time><extensions><gpxtpx:TrackPointExtension><gpxtpx:hr>121</gpxtpx:hr></gpxtpx:TrackPointExtension></extensions></trkpt>
<trkpt lat="22.4620697" lon="114.1906714">
<ele>6</ele><time>2020-12-28T08:41:12.000Z</time><extensions><gpxtpx:TrackPointExtension><gpxtpx:hr>121</gpxtpx:hr></gpxtpx:TrackPointExtension></extensions></trkpt>
<trkpt lat="22.4620598" lon="114.1907358">
<ele>7</ele><time>2020-12-28T08:41:18.000Z</time><extensions><gpxtpx:TrackPointExtension><gpxtpx:hr>121</gpxtpx:hr></gpxtpx:TrackPointExtension></extensions></trkpt>
<trkpt lat="22.4620499" lon="114.1908002">
<ele>7</ele><time>2020-12-28T08:41:24.999Z</time><extensions><gpxtpx:TrackPointExtension><gpxtpx:hr>121</gpxtpx:hr></gpxtpx:TrackPointExtension></extensions></trkpt>
<trkpt lat="22.4620301" lon="114.1908646">
<ele>7</ele><time>2020-12-28T08:41:28.999Z</time><extensions><gpxtpx:TrackPointExtension><gpxtpx:hr>121</gpxtpx:hr></gpxtpx:TrackPointExtension></extensions></trkpt>
<trkpt lat="22.4620102" lon="114.1909075">
<ele>7</ele><time>2020-12-28T08:41:45.999Z</time><extensions><gpxtpx:TrackPointExtension><gpxtpx:hr>121</gpxtpx:hr></gpxtpx:TrackPointExtension></extensions></trkpt>
<trkpt lat="22.4619904" lon="114.1909719">
<ele>7</ele><time>2020-12-28T08:41:49.999Z</time><extensions><gpxtpx:TrackPointExtension><gpxtpx:hr>121</gpxtpx:hr></gpxtpx:TrackPointExtension></extensions></trkpt>
<trkpt lat="22.4619508" lon="114.1910362">
<ele>7</ele><time>2020-12-28T08:41:52.999Z</time><extensions><gpxtpx:TrackPointExtension><gpxtpx:hr>121</gpxtpx:hr></gpxtpx:TrackPointExtension></extensions></trkpt>
<trkpt lat="22.4619210" lon="114.1911006">
<ele>7</ele><time>2020-12-28T08:41:54.999Z</time><extensions><gpxtpx:TrackPointExtension><gpxtpx:hr>121</gpxtpx:hr></gpxtpx:TrackPointExtension></extensions></trkpt>
<trkpt lat="22.4618714" lon="114.1911650">
<ele>7</ele><time>2020-12-28T08:41:56.999Z</time><extensions><gpxtpx:TrackPointExtension><gpxtpx:hr>121</gpxtpx:hr></gpxtpx:TrackPointExtension></extensions></trkpt>
<trkpt lat="22.4618417" lon="114.1912508">
<ele>7</ele><time>2020-12-28T08:41:58.999Z</time><extensions><gpxtpx:TrackPointExtension><gpxtpx:hr>121</gpxtpx:hr></gpxtpx:TrackPointExtension></extensions></trkpt>
<trkpt lat="22.4618020" lon="114.1913581">
<ele>6</ele><time>2020-12-28T08:42:00.999Z</time><extensions><gpxtpx:TrackPointExtension><gpxtpx:hr>121</gpxtpx:hr></gpxtpx:TrackPointExtension></extensions></trkpt>
<trkpt lat="22.4617624" lon="114.1914225">
<ele>6</ele><time>2020-12-28T08:42:02.999Z</time><extensions><gpxtpx:TrackPointExtension><gpxtpx:hr>121</gpxtpx:hr></gpxtpx:TrackPointExtension></extensions></trkpt>
<trkpt lat="22.4617425" lon="114.1915083">
<ele>6</ele><time>2020-12-28T08:42:04.999Z</time><extensions><gpxtpx:TrackPointExtension><gpxtpx:hr>121</gpxtpx:hr></gpxtpx:TrackPointExtension></extensions></trkpt>
<trkpt lat="22.4617128" lon="114.1915727">
<ele>6</ele><time>2020-12-28T08:42:06.999Z</time><extensions><gpxtpx:TrackPointExtension><gpxtpx:hr>121</gpxtpx:hr></gpxtpx:TrackPointExtension></extensions></trkpt>
<trkpt lat="22.4616831" lon="114.1916370">
<ele>6</ele><time>2020-12-28T08:42:08.999Z</time><extensions><gpxtpx:TrackPointExtension><gpxtpx:hr>121</gpxtpx:hr></gpxtpx:TrackPointExtension></extensions></trkpt>
<trkpt lat="22.4616632" lon="114.1916800">
<ele>6</ele><time>2020-12-28T08:42:09.999Z</time><extensions><gpxtpx:TrackPointExtension><gpxtpx:hr>121</gpxtpx:hr></gpxtpx:TrackPointExtension></extensions></trkpt>
<trkpt lat="22.4616434" lon="114.1917229">
<ele>6</ele><time>2020-12-28T08:42:11.999Z</time><extensions><gpxtpx:TrackPointExtension><gpxtpx:hr>121</gpxtpx:hr></gpxtpx:TrackPointExtension></extensions></trkpt>
<trkpt lat="22.4616137" lon="114.1917872">
<ele>6</ele><time>2020-12-28T08:42:13.999Z</time><extensions><gpxtpx:TrackPointExtension><gpxtpx:hr>121</gpxtpx:hr></gpxtpx:TrackPointExtension></extensions></trkpt>
<trkpt lat="22.4615938" lon="114.1918516">
<ele>6</ele><time>2020-12-28T08:42:15.999Z</time><extensions><gpxtpx:TrackPointExtension><gpxtpx:hr>121</gpxtpx:hr></gpxtpx:TrackPointExtension></extensions></trkpt>
<trkpt lat="22.4615740" lon="114.1918945">
<ele>6</ele><time>2020-12-28T08:42:17.999Z</time><extensions><gpxtpx:TrackPointExtension><gpxtpx:hr>121</gpxtpx:hr></gpxtpx:TrackPointExtension></extensions></trkpt>
<trkpt lat="22.4615542" lon="114.1919374">
<ele>6</ele><time>2020-12-28T08:42:19.999Z</time><extensions><gpxtpx:TrackPointExtension><gpxtpx:hr>121</gpxtpx:hr></gpxtpx:TrackPointExtension></extensions></trkpt>
<trkpt lat="22.4615244" lon="114.1920018">
<ele>7</ele><time>2020-12-28T08:42:23.999Z</time><extensions><gpxtpx:TrackPointExtension><gpxtpx:hr>121</gpxtpx:hr></gpxtpx:TrackPointExtension></extensions></trkpt>
<trkpt lat="22.4615046" lon="114.1920447">
<ele>7</ele><time>2020-12-28T08:42:27.999Z</time><extensions><gpxtpx:TrackPointExtension><gpxtpx:hr>121</gpxtpx:hr></gpxtpx:TrackPointExtension></extensions></trkpt>
<trkpt lat="22.4614748" lon="114.1921091">
<ele>7</ele><time>2020-12-28T08:42:31.999Z</time><extensions><gpxtpx:TrackPointExtension><gpxtpx:hr>121</gpxtpx:hr></gpxtpx:TrackPointExtension></extensions></trkpt>
<trkpt lat="22.4614550" lon="114.1921735">
<ele>7</ele><time>2020-12-28T08:42:34.998Z</time><extensions><gpxtpx:TrackPointExtension><gpxtpx:hr>121</gpxtpx:hr></gpxtpx:TrackPointExtension></extensions></trkpt>
<trkpt lat="22.4614253" lon="114.1922164">
<ele>8</ele><time>2020-12-28T08:42:36.998Z</time><extensions><gpxtpx:TrackPointExtension><gpxtpx:hr>121</gpxtpx:hr></gpxtpx:TrackPointExtension></extensions></trkpt>
<trkpt lat="22.4614054" lon="114.1922593">
<ele>8</ele><time>2020-12-28T08:42:38.998Z</time><extensions><gpxtpx:TrackPointExtension><gpxtpx:hr>121</gpxtpx:hr></gpxtpx:TrackPointExtension></extensions></trkpt>
<trkpt lat="22.4613757" lon="114.1923237">
<ele>8</ele><time>2020-12-28T08:42:42.998Z</time><extensions><gpxtpx:TrackPointExtension><gpxtpx:hr>121</gpxtpx:hr></gpxtpx:TrackPointExtension></extensions></trkpt>
<trkpt lat="22.4613559" lon="114.1923881">
<ele>8</ele><time>2020-12-28T08:42:47.998Z</time><extensions><gpxtpx:TrackPointExtension><gpxtpx:hr>121</gpxtpx:hr></gpxtpx:TrackPointExtension></extensions></trkpt>
<trkpt lat="22.4613459" lon="114.1924524">
<ele>9</ele><time>2020-12-28T08:42:50.998Z</time><extensions><gpxtpx:TrackPointExtension><gpxtpx:hr>121</gpxtpx:hr></gpxtpx:TrackPointExtension></extensions></trkpt>
<trkpt lat="22.4613261" lon="114.1924953">
<ele>9</ele><time>2020-12-28T08:42:53.998Z</time><extensions><gpxtpx:TrackPointExtension><gpxtpx:hr>121</gpxtpx:hr></gpxtpx:TrackPointExtension></extensions></trkpt>
<trkpt lat="22.4613063" lon="114.1925597">
<ele>9</ele><time>2020-12-28T08:42:57.998Z</time><extensions><gpxtpx:TrackPointExtension><gpxtpx:hr>121</gpxtpx:hr></gpxtpx:TrackPointExtension></extensions></trkpt>
<trkpt lat="22.4612964" lon="114.1926241">
<ele>10</ele><time>2020-12-28T08:43:01.998Z</time><extensions><gpxtpx:TrackPointExtension><gpxtpx:hr>121</gpxtpx:hr></gpxtpx:TrackPointExtension></extensions></trkpt>
<trkpt lat="22.4612865" lon="114.1926885">
<ele>10</ele><time>2020-12-28T08:43:06.000Z</time><extensions><gpxtpx:TrackPointExtension><gpxtpx:hr>121</gpxtpx:hr></gpxtpx:TrackPointExtension></extensions></trkpt>
<trkpt lat="22.4612666" lon="114.1927314">
<ele>11</ele><time>2020-12-28T08:43:27.000Z</time><extensions><gpxtpx:TrackPointExtension><gpxtpx:hr>121</gpxtpx:hr></gpxtpx:TrackPointExtension></extensions></trkpt>
<trkpt lat="22.4612666" lon="114.1927958">
<ele>11</ele><time>2020-12-28T08:43:34.999Z</time><extensions><gpxtpx:TrackPointExtension><gpxtpx:hr>121</gpxtpx:hr></gpxtpx:TrackPointExtension></extensions></trkpt>
<trkpt lat="22.4612468" lon="114.1928387">
<ele>11</ele><time>2020-12-28T08:43:37.999Z</time><extensions><gpxtpx:TrackPointExtension><gpxtpx:hr>121</gpxtpx:hr></gpxtpx:TrackPointExtension></extensions></trkpt>
<trkpt lat="22.4612369" lon="114.1929030">
<ele>11</ele><time>2020-12-28T08:43:42.999Z</time><extensions><gpxtpx:TrackPointExtension><gpxtpx:hr>121</gpxtpx:hr></gpxtpx:TrackPointExtension></extensions></trkpt>
<trkpt lat="22.4612369" lon="114.1929674">
<ele>12</ele><time>2020-12-28T08:43:51.999Z</time><extensions><gpxtpx:TrackPointExtension><gpxtpx:hr>121</gpxtpx:hr></gpxtpx:TrackPointExtension></extensions></trkpt>
<trkpt lat="22.4612071" lon="114.1930103">
<ele>12</ele><time>2020-12-28T08:44:00.999Z</time><extensions><gpxtpx:TrackPointExtension><gpxtpx:hr>121</gpxtpx:hr></gpxtpx:TrackPointExtension></extensions></trkpt>
<trkpt lat="22.4611873" lon="114.1930747">
<ele>12</ele><time>2020-12-28T08:44:08.999Z</time><extensions><gpxtpx:TrackPointExtension><gpxtpx:hr>121</gpxtpx:hr></gpxtpx:TrackPointExtension></extensions></trkpt>
<trkpt lat="22.4611675" lon="114.1931605">
<ele>13</ele><time>2020-12-28T08:44:12.999Z</time><extensions><gpxtpx:TrackPointExtension><gpxtpx:hr>121</gpxtpx:hr></gpxtpx:TrackPointExtension></extensions></trkpt>
<trkpt lat="22.4611774" lon="114.1932249">
<ele>13</ele><time>2020-12-28T08:44:14.999Z</time><extensions><gpxtpx:TrackPointExtension><gpxtpx:hr>121</gpxtpx:hr></gpxtpx:TrackPointExtension></extensions></trkpt>
<trkpt lat="22.4611576" lon="114.1933107">
<ele>13</ele><time>2020-12-28T08:44:17.999Z</time><extensions><gpxtpx:TrackPointExtension><gpxtpx:hr>121</gpxtpx:hr></gpxtpx:TrackPointExtension></extensions></trkpt>
<trkpt lat="22.4611377" lon="114.1933966">
<ele>13</ele><time>2020-12-28T08:44:20.999Z</time><extensions><gpxtpx:TrackPointExtension><gpxtpx:hr>121</gpxtpx:hr></gpxtpx:TrackPointExtension></extensions></trkpt>
<trkpt lat="22.4611179" lon="114.1934609">
<ele>14</ele><time>2020-12-28T08:44:23.999Z</time><extensions><gpxtpx:TrackPointExtension><gpxtpx:hr>121</gpxtpx:hr></gpxtpx:TrackPointExtension></extensions></trkpt>
<trkpt lat="22.4611080" lon="114.1935253">
<ele>14</ele><time>2020-12-28T08:44:26.999Z</time><extensions><gpxtpx:TrackPointExtension><gpxtpx:hr>121</gpxtpx:hr></gpxtpx:TrackPointExtension></extensions></trkpt>
<trkpt lat="22.4610782" lon="114.1935682">
<ele>14</ele><time>2020-12-28T08:44:29.999Z</time><extensions><gpxtpx:TrackPointExtension><gpxtpx:hr>121</gpxtpx:hr></gpxtpx:TrackPointExtension></extensions></trkpt>
<trkpt lat="22.4610683" lon="114.1936326">
<ele>14</ele><time>2020-12-28T08:44:33.999Z</time><extensions><gpxtpx:TrackPointExtension><gpxtpx:hr>121</gpxtpx:hr></gpxtpx:TrackPointExtension></extensions></trkpt>
<trkpt lat="22.4610485" lon="114.1936970">
<ele>15</ele><time>2020-12-28T08:44:36.998Z</time><extensions><gpxtpx:TrackPointExtension><gpxtpx:hr>121</gpxtpx:hr></gpxtpx:TrackPointExtension></extensions></trkpt>
<trkpt lat="22.4610287" lon="114.1937613">
<ele>15</ele><time>2020-12-28T08:44:39.998Z</time><extensions><gpxtpx:TrackPointExtension><gpxtpx:hr>121</gpxtpx:hr></gpxtpx:TrackPointExtension></extensions></trkpt>
<trkpt lat="22.4609989" lon="114.1938257">
<ele>16</ele><time>2020-12-28T08:44:43.998Z</time><extensions><gpxtpx:TrackPointExtension><gpxtpx:hr>121</gpxtpx:hr></gpxtpx:TrackPointExtension></extensions></trkpt>
<trkpt lat="22.4609791" lon="114.1938901">
<ele>16</ele><time>2020-12-28T08:44:46.998Z</time><extensions><gpxtpx:TrackPointExtension><gpxtpx:hr>121</gpxtpx:hr></gpxtpx:TrackPointExtension></extensions></trkpt>
<trkpt lat="22.4609494" lon="114.1939330">
<ele>17</ele><time>2020-12-28T08:44:49.998Z</time><extensions><gpxtpx:TrackPointExtension><gpxtpx:hr>121</gpxtpx:hr></gpxtpx:TrackPointExtension></extensions></trkpt>
<trkpt lat="22.4609593" lon="114.1939974">
<ele>17</ele><time>2020-12-28T08:44:53.998Z</time><extensions><gpxtpx:TrackPointExtension><gpxtpx:hr>121</gpxtpx:hr></gpxtpx:TrackPointExtension></extensions></trkpt>
<trkpt lat="22.4609494" lon="114.1940618">
<ele>19</ele><time>2020-12-28T08:45:46.999Z</time><extensions><gpxtpx:TrackPointExtension><gpxtpx:hr>121</gpxtpx:hr></gpxtpx:TrackPointExtension></extensions></trkpt>
<trkpt lat="22.4609196" lon="114.1941047">
<ele>19</ele><time>2020-12-28T08:45:50.999Z</time><extensions><gpxtpx:TrackPointExtension><gpxtpx:hr>121</gpxtpx:hr></gpxtpx:TrackPointExtension></extensions></trkpt>
<trkpt lat="22.4608899" lon="114.1941690">
<ele>19</ele><time>2020-12-28T08:45:53.999Z</time><extensions><gpxtpx:TrackPointExtension><gpxtpx:hr>121</gpxtpx:hr></gpxtpx:TrackPointExtension></extensions></trkpt>
<trkpt lat="22.4608601" lon="114.1942120">
<ele>19</ele><time>2020-12-28T08:45:56.999Z</time><extensions><gpxtpx:TrackPointExtension><gpxtpx:hr>121</gpxtpx:hr></gpxtpx:TrackPointExtension></extensions></trkpt>
<trkpt lat="22.4608403" lon="114.1942763">
<ele>19</ele><time>2020-12-28T08:45:59.999Z</time><extensions><gpxtpx:TrackPointExtension><gpxtpx:hr>121</gpxtpx:hr></gpxtpx:TrackPointExtension></extensions></trkpt>
<trkpt lat="22.4608403" lon="114.1943622">
<ele>19</ele><time>2020-12-28T08:46:02.999Z</time><extensions><gpxtpx:TrackPointExtension><gpxtpx:hr>121</gpxtpx:hr></gpxtpx:TrackPointExtension></extensions></trkpt>
<trkpt lat="22.4608205" lon="114.1944265">
<ele>19</ele><time>2020-12-28T08:46:05.999Z</time><extensions><gpxtpx:TrackPointExtension><gpxtpx:hr>121</gpxtpx:hr></gpxtpx:TrackPointExtension></extensions></trkpt>
<trkpt lat="22.4608006" lon="114.1944909">
<ele>19</ele><time>2020-12-28T08:46:08.999Z</time><extensions><gpxtpx:TrackPointExtension><gpxtpx:hr>121</gpxtpx:hr></gpxtpx:TrackPointExtension></extensions></trkpt>
<trkpt lat="22.4607709" lon="114.1945338">
<ele>19</ele><time>2020-12-28T08:46:11.999Z</time><extensions><gpxtpx:TrackPointExtension><gpxtpx:hr>121</gpxtpx:hr></gpxtpx:TrackPointExtension></extensions></trkpt>
<trkpt lat="22.4607610" lon="114.1945982">
<ele>19</ele><time>2020-12-28T08:46:14.999Z</time><extensions><gpxtpx:TrackPointExtension><gpxtpx:hr>121</gpxtpx:hr></gpxtpx:TrackPointExtension></extensions></trkpt>
<trkpt lat="22.4607411" lon="114.1946411">
<ele>19</ele><time>2020-12-28T08:46:16.999Z</time><extensions><gpxtpx:TrackPointExtension><gpxtpx:hr>121</gpxtpx:hr></gpxtpx:TrackPointExtension></extensions></trkpt>
<trkpt lat="22.4607114" lon="114.1947055">
<ele>19</ele><time>2020-12-28T08:46:19.999Z</time><extensions><gpxtpx:TrackPointExtension><gpxtpx:hr>121</gpxtpx:hr></gpxtpx:TrackPointExtension></extensions></trkpt>
<trkpt lat="22.4606916" lon="114.1947484">
<ele>19</ele><time>2020-12-28T08:46:22.999Z</time><extensions><gpxtpx:TrackPointExtension><gpxtpx:hr>121</gpxtpx:hr></gpxtpx:TrackPointExtension></extensions></trkpt>
<trkpt lat="22.4606717" lon="114.1947913">
<ele>19</ele><time>2020-12-28T08:46:25.999Z</time><extensions><gpxtpx:TrackPointExtension><gpxtpx:hr>121</gpxtpx:hr></gpxtpx:TrackPointExtension></extensions></trkpt>
<trkpt lat="22.4606519" lon="114.1948557">
<ele>19</ele><time>2020-12-28T08:46:28.999Z</time><extensions><gpxtpx:TrackPointExtension><gpxtpx:hr>121</gpxtpx:hr></gpxtpx:TrackPointExtension></extensions></trkpt>
<trkpt lat="22.4606222" lon="114.1948986">
<ele>19</ele><time>2020-12-28T08:46:30.999Z</time><extensions><gpxtpx:TrackPointExtension><gpxtpx:hr>121</gpxtpx:hr></gpxtpx:TrackPointExtension></extensions></trkpt>
<trkpt lat="22.4605924" lon="114.1949630">
<ele>20</ele><time>2020-12-28T08:46:32.999Z</time><extensions><gpxtpx:TrackPointExtension><gpxtpx:hr>121</gpxtpx:hr></gpxtpx:TrackPointExtension></extensions></trkpt>
<trkpt lat="22.4605825" lon="114.1950274">
<ele>20</ele><time>2020-12-28T08:46:39.998Z</time><extensions><gpxtpx:TrackPointExtension><gpxtpx:hr>121</gpxtpx:hr></gpxtpx:TrackPointExtension></extensions></trkpt>
<trkpt lat="22.4605528" lon="114.1950917">
<ele>20</ele><time>2020-12-28T08:46:44.998Z</time><extensions><gpxtpx:TrackPointExtension><gpxtpx:hr>121</gpxtpx:hr></gpxtpx:TrackPointExtension></extensions></trkpt>
<trkpt lat="22.4605329" lon="114.1951346">
<ele>20</ele><time>2020-12-28T08:46:46.998Z</time><extensions><gpxtpx:TrackPointExtension><gpxtpx:hr>121</gpxtpx:hr></gpxtpx:TrackPointExtension></extensions></trkpt>
<trkpt lat="22.4605131" lon="114.1951990">
<ele>20</ele><time>2020-12-28T08:46:49.998Z</time><extensions><gpxtpx:TrackPointExtension><gpxtpx:hr>121</gpxtpx:hr></gpxtpx:TrackPointExtension></extensions></trkpt>
<trkpt lat="22.4604833" lon="114.1952634">
<ele>20</ele><time>2020-12-28T08:46:52.998Z</time><extensions><gpxtpx:TrackPointExtension><gpxtpx:hr>121</gpxtpx:hr></gpxtpx:TrackPointExtension></extensions></trkpt>
<trkpt lat="22.4604635" lon="114.1953278">
<ele>20</ele><time>2020-12-28T08:46:55.998Z</time><extensions><gpxtpx:TrackPointExtension><gpxtpx:hr>121</gpxtpx:hr></gpxtpx:TrackPointExtension></extensions></trkpt>
<trkpt lat="22.4604437" lon="114.1953707">
<ele>20</ele><time>2020-12-28T08:46:57.998Z</time><extensions><gpxtpx:TrackPointExtension><gpxtpx:hr>121</gpxtpx:hr></gpxtpx:TrackPointExtension></extensions></trkpt>
<trkpt lat="22.4604139" lon="114.1954136">
<ele>20</ele><time>2020-12-28T08:47:00.998Z</time><extensions><gpxtpx:TrackPointExtension><gpxtpx:hr>121</gpxtpx:hr></gpxtpx:TrackPointExtension></extensions></trkpt>
<trkpt lat="22.4603941" lon="114.1954780">
<ele>20</ele><time>2020-12-28T08:47:03.998Z</time><extensions><gpxtpx:TrackPointExtension><gpxtpx:hr>121</gpxtpx:hr></gpxtpx:TrackPointExtension></extensions></trkpt>
<trkpt lat="22.4603743" lon="114.1955423">
<ele>20</ele><time>2020-12-28T08:47:05.998Z</time><extensions><gpxtpx:TrackPointExtension><gpxtpx:hr>121</gpxtpx:hr></gpxtpx:TrackPointExtension></extensions></trkpt>
<trkpt lat="22.4603545" lon="114.1956282">
<ele>20</ele><time>2020-12-28T08:47:09.998Z</time><extensions><gpxtpx:TrackPointExtension><gpxtpx:hr>121</gpxtpx:hr></gpxtpx:TrackPointExtension></extensions></trkpt>
<trkpt lat="22.4603346" lon="114.1956925">
<ele>19</ele><time>2020-12-28T08:47:12.998Z</time><extensions><gpxtpx:TrackPointExtension><gpxtpx:hr>121</gpxtpx:hr></gpxtpx:TrackPointExtension></extensions></trkpt>
<trkpt lat="22.4603049" lon="114.1957569">
<ele>19</ele><time>2020-12-28T08:47:15.998Z</time><extensions><gpxtpx:TrackPointExtension><gpxtpx:hr>121</gpxtpx:hr></gpxtpx:TrackPointExtension></extensions></trkpt>
<trkpt lat="22.4602850" lon="114.1957998">
<ele>19</ele><time>2020-12-28T08:47:17.999Z</time><extensions><gpxtpx:TrackPointExtension><gpxtpx:hr>121</gpxtpx:hr></gpxtpx:TrackPointExtension></extensions></trkpt>
<trkpt lat="22.4602652" lon="114.1958427">
<ele>19</ele><time>2020-12-28T08:47:19.999Z</time><extensions><gpxtpx:TrackPointExtension><gpxtpx:hr>121</gpxtpx:hr></gpxtpx:TrackPointExtension></extensions></trkpt>
<trkpt lat="22.4602355" lon="114.1959071">
<ele>19</ele><time>2020-12-28T08:47:22.999Z</time><extensions><gpxtpx:TrackPointExtension><gpxtpx:hr>121</gpxtpx:hr></gpxtpx:TrackPointExtension></extensions></trkpt>
<trkpt lat="22.4602256" lon="114.1959715">
<ele>19</ele><time>2020-12-28T08:47:24.999Z</time><extensions><gpxtpx:TrackPointExtension><gpxtpx:hr>121</gpxtpx:hr></gpxtpx:TrackPointExtension></extensions></trkpt>
<trkpt lat="22.4602057" lon="114.1960144">
<ele>19</ele><time>2020-12-28T08:47:27.999Z</time><extensions><gpxtpx:TrackPointExtension><gpxtpx:hr>121</gpxtpx:hr></gpxtpx:TrackPointExtension></extensions></trkpt>
<trkpt lat="22.4601859" lon="114.1960573">
<ele>19</ele><time>2020-12-28T08:47:29.999Z</time><extensions><gpxtpx:TrackPointExtension><gpxtpx:hr>121</gpxtpx:hr></gpxtpx:TrackPointExtension></extensions></trkpt>
<trkpt lat="22.4601562" lon="114.1961217">
<ele>19</ele><time>2020-12-28T08:47:32.999Z</time><extensions><gpxtpx:TrackPointExtension><gpxtpx:hr>121</gpxtpx:hr></gpxtpx:TrackPointExtension></extensions></trkpt>
<trkpt lat="22.4601264" lon="114.1961646">
<ele>19</ele><time>2020-12-28T08:47:34.999Z</time><extensions><gpxtpx:TrackPointExtension><gpxtpx:hr>121</gpxtpx:hr></gpxtpx:TrackPointExtension></extensions></trkpt>
<trkpt lat="22.4601066" lon="114.1962290">
<ele>19</ele><time>2020-12-28T08:47:36.999Z</time><extensions><gpxtpx:TrackPointExtension><gpxtpx:hr>121</gpxtpx:hr></gpxtpx:TrackPointExtension></extensions></trkpt>
<trkpt lat="22.4600867" lon="114.1962719">
<ele>19</ele><time>2020-12-28T08:47:38.999Z</time><extensions><gpxtpx:TrackPointExtension><gpxtpx:hr>121</gpxtpx:hr></gpxtpx:TrackPointExtension></extensions></trkpt>
<trkpt lat="22.4600570" lon="114.1963363">
<ele>19</ele><time>2020-12-28T08:47:41.999Z</time><extensions><gpxtpx:TrackPointExtension><gpxtpx:hr>121</gpxtpx:hr></gpxtpx:TrackPointExtension></extensions></trkpt>
<trkpt lat="22.4600372" lon="114.1964006">
<ele>18</ele><time>2020-12-28T08:47:44.999Z</time><extensions><gpxtpx:TrackPointExtension><gpxtpx:hr>121</gpxtpx:hr></gpxtpx:TrackPointExtension></extensions></trkpt>
<trkpt lat="22.4600074" lon="114.1964436">
<ele>18</ele><time>2020-12-28T08:47:46.999Z</time><extensions><gpxtpx:TrackPointExtension><gpxtpx:hr>121</gpxtpx:hr></gpxtpx:TrackPointExtension></extensions></trkpt>
<trkpt lat="22.4599876" lon="114.1964865">
<ele>18</ele><time>2020-12-28T08:47:48.999Z</time><extensions><gpxtpx:TrackPointExtension><gpxtpx:hr>121</gpxtpx:hr></gpxtpx:TrackPointExtension></extensions></trkpt>
<trkpt lat="22.4599579" lon="114.1965294">
<ele>18</ele><time>2020-12-28T08:47:50.999Z</time><extensions><gpxtpx:TrackPointExtension><gpxtpx:hr>125</gpxtpx:hr></gpxtpx:TrackPointExtension></extensions></trkpt>
<trkpt lat="22.4599281" lon="114.1965938">
<ele>18</ele><time>2020-12-28T08:47:53.999Z</time><extensions><gpxtpx:TrackPointExtension><gpxtpx:hr>125</gpxtpx:hr></gpxtpx:TrackPointExtension></extensions></trkpt>
<trkpt lat="22.4598884" lon="114.1966581">
<ele>18</ele><time>2020-12-28T08:47:56.999Z</time><extensions><gpxtpx:TrackPointExtension><gpxtpx:hr>123</gpxtpx:hr></gpxtpx:TrackPointExtension></extensions></trkpt>
<trkpt lat="22.4598488" lon="114.1967010">
<ele>18</ele><time>2020-12-28T08:47:59.999Z</time><extensions><gpxtpx:TrackPointExtension><gpxtpx:hr>123</gpxtpx:hr></gpxtpx:TrackPointExtension></extensions></trkpt>
<trkpt lat="22.4598190" lon="114.1967440">
<ele>18</ele><time>2020-12-28T08:48:02.999Z</time><extensions><gpxtpx:TrackPointExtension><gpxtpx:hr>123</gpxtpx:hr></gpxtpx:TrackPointExtension></extensions></trkpt>
<trkpt lat="22.4597695" lon="114.1967869">
<ele>18</ele><time>2020-12-28T08:48:05.999Z</time><extensions><gpxtpx:TrackPointExtension><gpxtpx:hr>123</gpxtpx:hr></gpxtpx:TrackPointExtension></extensions></trkpt>
<trkpt lat="22.4597199" lon="114.1968298">
<ele>18</ele><time>2020-12-28T08:48:08.999Z</time><extensions><gpxtpx:TrackPointExtension><gpxtpx:hr>123</gpxtpx:hr></gpxtpx:TrackPointExtension></extensions></trkpt>
<trkpt lat="22.4596703" lon="114.1968942">
<ele>18</ele><time>2020-12-28T08:48:11.999Z</time><extensions><gpxtpx:TrackPointExtension><gpxtpx:hr>123</gpxtpx:hr></gpxtpx:TrackPointExtension></extensions></trkpt>
<trkpt lat="22.4596207" lon="114.1969371">
<ele>18</ele><time>2020-12-28T08:48:14.999Z</time><extensions><gpxtpx:TrackPointExtension><gpxtpx:hr>123</gpxtpx:hr></gpxtpx:TrackPointExtension></extensions></trkpt>
<trkpt lat="22.4595811" lon="114.1969800">
<ele>18</ele><time>2020-12-28T08:48:17.999Z</time><extensions><gpxtpx:TrackPointExtension><gpxtpx:hr>123</gpxtpx:hr></gpxtpx:TrackPointExtension></extensions></trkpt>
<trkpt lat="22.4595414" lon="114.1970229">
<ele>18</ele><time>2020-12-28T08:48:20.999Z</time><extensions><gpxtpx:TrackPointExtension><gpxtpx:hr>123</gpxtpx:hr></gpxtpx:TrackPointExtension></extensions></trkpt>
<trkpt lat="22.4595117" lon="114.1970658">
<ele>18</ele><time>2020-12-28T08:48:22.999Z</time><extensions><gpxtpx:TrackPointExtension><gpxtpx:hr>123</gpxtpx:hr></gpxtpx:TrackPointExtension></extensions></trkpt>
<trkpt lat="22.4594621" lon="114.1971087">
<ele>18</ele><time>2020-12-28T08:48:25.999Z</time><extensions><gpxtpx:TrackPointExtension><gpxtpx:hr>123</gpxtpx:hr></gpxtpx:TrackPointExtension></extensions></trkpt>
<trkpt lat="22.4594522" lon="114.1971731">
<ele>18</ele><time>2020-12-28T08:48:28.999Z</time><extensions><gpxtpx:TrackPointExtension><gpxtpx:hr>123</gpxtpx:hr></gpxtpx:TrackPointExtension></extensions></trkpt>
<trkpt lat="22.4594224" lon="114.1972160">
<ele>18</ele><time>2020-12-28T08:48:30.999Z</time><extensions><gpxtpx:TrackPointExtension><gpxtpx:hr>124</gpxtpx:hr></gpxtpx:TrackPointExtension></extensions></trkpt>
<trkpt lat="22.4593927" lon="114.1972804">
<ele>18</ele><time>2020-12-28T08:48:33.999Z</time><extensions><gpxtpx:TrackPointExtension><gpxtpx:hr>124</gpxtpx:hr></gpxtpx:TrackPointExtension></extensions></trkpt>
<trkpt lat="22.4593729" lon="114.1973448">
<ele>18</ele><time>2020-12-28T08:48:36.999Z</time><extensions><gpxtpx:TrackPointExtension><gpxtpx:hr>125</gpxtpx:hr></gpxtpx:TrackPointExtension></extensions></trkpt>
<trkpt lat="22.4593431" lon="114.1973877">
<ele>17</ele><time>2020-12-28T08:48:39.999Z</time><extensions><gpxtpx:TrackPointExtension><gpxtpx:hr>125</gpxtpx:hr></gpxtpx:TrackPointExtension></extensions></trkpt>
<trkpt lat="22.4593233" lon="114.1974306">
<ele>17</ele><time>2020-12-28T08:48:41.998Z</time><extensions><gpxtpx:TrackPointExtension><gpxtpx:hr>125</gpxtpx:hr></gpxtpx:TrackPointExtension></extensions></trkpt>
<trkpt lat="22.4593134" lon="114.1974950">
<ele>17</ele><time>2020-12-28T08:48:43.998Z</time><extensions><gpxtpx:TrackPointExtension><gpxtpx:hr>125</gpxtpx:hr></gpxtpx:TrackPointExtension></extensions></trkpt>
<trkpt lat="22.4592935" lon="114.1975379">
<ele>17</ele><time>2020-12-28T08:48:46.998Z</time><extensions><gpxtpx:TrackPointExtension><gpxtpx:hr>125</gpxtpx:hr></gpxtpx:TrackPointExtension></extensions></trkpt>
<trkpt lat="22.4592935" lon="114.1976023">
<ele>17</ele><time>2020-12-28T08:48:48.998Z</time><extensions><gpxtpx:TrackPointExtension><gpxtpx:hr>125</gpxtpx:hr></gpxtpx:TrackPointExtension></extensions></trkpt>
<trkpt lat="22.4592737" lon="114.1976452">
<ele>17</ele><time>2020-12-28T08:48:50.998Z</time><extensions><gpxtpx:TrackPointExtension><gpxtpx:hr>125</gpxtpx:hr></gpxtpx:TrackPointExtension></extensions></trkpt>
<trkpt lat="22.4592836" lon="114.1977096">
<ele>17</ele><time>2020-12-28T08:48:53.998Z</time><extensions><gpxtpx:TrackPointExtension><gpxtpx:hr>125</gpxtpx:hr></gpxtpx:TrackPointExtension></extensions></trkpt>
<trkpt lat="22.4592935" lon="114.1977739">
<ele>17</ele><time>2020-12-28T08:48:55.998Z</time><extensions><gpxtpx:TrackPointExtension><gpxtpx:hr>125</gpxtpx:hr></gpxtpx:TrackPointExtension></extensions></trkpt>
<trkpt lat="22.4593035" lon="114.1978383">
<ele>17</ele><time>2020-12-28T08:48:57.998Z</time><extensions><gpxtpx:TrackPointExtension><gpxtpx:hr>125</gpxtpx:hr></gpxtpx:TrackPointExtension></extensions></trkpt>
<trkpt lat="22.4593035" lon="114.1979027">
<ele>17</ele><time>2020-12-28T08:49:00.998Z</time><extensions><gpxtpx:TrackPointExtension><gpxtpx:hr>125</gpxtpx:hr></gpxtpx:TrackPointExtension></extensions></trkpt>
<trkpt lat="22.4593035" lon="114.1979671">
<ele>17</ele><time>2020-12-28T08:49:03.998Z</time><extensions><gpxtpx:TrackPointExtension><gpxtpx:hr>125</gpxtpx:hr></gpxtpx:TrackPointExtension></extensions></trkpt>
<trkpt lat="22.4592935" lon="114.1980314">
<ele>16</ele><time>2020-12-28T08:49:33.999Z</time><extensions><gpxtpx:TrackPointExtension><gpxtpx:hr>113</gpxtpx:hr></gpxtpx:TrackPointExtension></extensions></trkpt>
<trkpt lat="22.4593035" lon="114.1980958">
<ele>16</ele><time>2020-12-28T08:49:46.999Z</time><extensions><gpxtpx:TrackPointExtension><gpxtpx:hr>111</gpxtpx:hr></gpxtpx:TrackPointExtension></extensions></trkpt>
<trkpt lat="22.4592935" lon="114.1981602">
<ele>16</ele><time>2020-12-28T08:49:50.999Z</time><extensions><gpxtpx:TrackPointExtension><gpxtpx:hr>109</gpxtpx:hr></gpxtpx:TrackPointExtension></extensions></trkpt>
<trkpt lat="22.4593035" lon="114.1982245">
<ele>16</ele><time>2020-12-28T08:49:54.999Z</time><extensions><gpxtpx:TrackPointExtension><gpxtpx:hr>110</gpxtpx:hr></gpxtpx:TrackPointExtension></extensions></trkpt>
<trkpt lat="22.4592935" lon="114.1982889">
<ele>15</ele><time>2020-12-28T08:49:56.999Z</time><extensions><gpxtpx:TrackPointExtension><gpxtpx:hr>110</gpxtpx:hr></gpxtpx:TrackPointExtension></extensions></trkpt>
<trkpt lat="22.4593134" lon="114.1983533">
<ele>15</ele><time>2020-12-28T08:49:58.999Z</time><extensions><gpxtpx:TrackPointExtension><gpxtpx:hr>110</gpxtpx:hr></gpxtpx:TrackPointExtension></extensions></trkpt>
<trkpt lat="22.4593233" lon="114.1984177">
<ele>15</ele><time>2020-12-28T08:50:00.999Z</time><extensions><gpxtpx:TrackPointExtension><gpxtpx:hr>116</gpxtpx:hr></gpxtpx:TrackPointExtension></extensions></trkpt>
<trkpt lat="22.4593431" lon="114.1984606">
<ele>15</ele><time>2020-12-28T08:50:01.999Z</time><extensions><gpxtpx:TrackPointExtension><gpxtpx:hr>116</gpxtpx:hr></gpxtpx:TrackPointExtension></extensions></trkpt>
<trkpt lat="22.4593530" lon="114.1985250">
<ele>15</ele><time>2020-12-28T08:50:03.999Z</time><extensions><gpxtpx:TrackPointExtension><gpxtpx:hr>116</gpxtpx:hr></gpxtpx:TrackPointExtension></extensions></trkpt>
<trkpt lat="22.4593729" lon="114.1986108">
<ele>15</ele><time>2020-12-28T08:50:05.999Z</time><extensions><gpxtpx:TrackPointExtension><gpxtpx:hr>117</gpxtpx:hr></gpxtpx:TrackPointExtension></extensions></trkpt>
<trkpt lat="22.4593828" lon="114.1986966">
<ele>14</ele><time>2020-12-28T08:50:07.999Z</time><extensions><gpxtpx:TrackPointExtension><gpxtpx:hr>117</gpxtpx:hr></gpxtpx:TrackPointExtension></extensions></trkpt>
<trkpt lat="22.4594026" lon="114.1987824">
<ele>14</ele><time>2020-12-28T08:50:09.999Z</time><extensions><gpxtpx:TrackPointExtension><gpxtpx:hr>116</gpxtpx:hr></gpxtpx:TrackPointExtension></extensions></trkpt>
<trkpt lat="22.4594224" lon="114.1988683">
<ele>14</ele><time>2020-12-28T08:50:11.999Z</time><extensions><gpxtpx:TrackPointExtension><gpxtpx:hr>116</gpxtpx:hr></gpxtpx:TrackPointExtension></extensions></trkpt>
<trkpt lat="22.4594324" lon="114.1989326">
<ele>14</ele><time>2020-12-28T08:50:13.999Z</time><extensions><gpxtpx:TrackPointExtension><gpxtpx:hr>116</gpxtpx:hr></gpxtpx:TrackPointExtension></extensions></trkpt>
<trkpt lat="22.4594522" lon="114.1989970">
<ele>14</ele><time>2020-12-28T08:50:15.999Z</time><extensions><gpxtpx:TrackPointExtension><gpxtpx:hr>115</gpxtpx:hr></gpxtpx:TrackPointExtension></extensions></trkpt>
<trkpt lat="22.4594819" lon="114.1990614">
<ele>14</ele><time>2020-12-28T08:50:17.999Z</time><extensions><gpxtpx:TrackPointExtension><gpxtpx:hr>115</gpxtpx:hr></gpxtpx:TrackPointExtension></extensions></trkpt>
<trkpt lat="22.4594918" lon="114.1991258">
<ele>14</ele><time>2020-12-28T08:50:19.999Z</time><extensions><gpxtpx:TrackPointExtension><gpxtpx:hr>115</gpxtpx:hr></gpxtpx:TrackPointExtension></extensions></trkpt>
<trkpt lat="22.4595117" lon="114.1991901">
<ele>14</ele><time>2020-12-28T08:50:21.999Z</time><extensions><gpxtpx:TrackPointExtension><gpxtpx:hr>115</gpxtpx:hr></gpxtpx:TrackPointExtension></extensions></trkpt>
<trkpt lat="22.4595216" lon="114.1992545">
<ele>14</ele><time>2020-12-28T08:50:23.999Z</time><extensions><gpxtpx:TrackPointExtension><gpxtpx:hr>115</gpxtpx:hr></gpxtpx:TrackPointExtension></extensions></trkpt>
<trkpt lat="22.4595216" lon="114.1993189">
<ele>14</ele><time>2020-12-28T08:50:25.999Z</time><extensions><gpxtpx:TrackPointExtension><gpxtpx:hr>115</gpxtpx:hr></gpxtpx:TrackPointExtension></extensions></trkpt>
<trkpt lat="22.4595315" lon="114.1993833">
<ele>14</ele><time>2020-12-28T08:50:27.999Z</time><extensions><gpxtpx:TrackPointExtension><gpxtpx:hr>115</gpxtpx:hr></gpxtpx:TrackPointExtension></extensions></trkpt>
<trkpt lat="22.4595414" lon="114.1994476">
<ele>14</ele><time>2020-12-28T08:50:29.999Z</time><extensions><gpxtpx:TrackPointExtension><gpxtpx:hr>118</gpxtpx:hr></gpxtpx:TrackPointExtension></extensions></trkpt>
<trkpt lat="22.4595414" lon="114.1995120">
<ele>14</ele><time>2020-12-28T08:50:32.999Z</time><extensions><gpxtpx:TrackPointExtension><gpxtpx:hr>118</gpxtpx:hr></gpxtpx:TrackPointExtension></extensions></trkpt>
<trkpt lat="22.4595613" lon="114.1995549">
<ele>14</ele><time>2020-12-28T08:50:34.999Z</time><extensions><gpxtpx:TrackPointExtension><gpxtpx:hr>120</gpxtpx:hr></gpxtpx:TrackPointExtension></extensions></trkpt>
<trkpt lat="22.4595811" lon="114.1996193">
<ele>14</ele><time>2020-12-28T08:50:36.999Z</time><extensions><gpxtpx:TrackPointExtension><gpxtpx:hr>120</gpxtpx:hr></gpxtpx:TrackPointExtension></extensions></trkpt>
<trkpt lat="22.4595811" lon="114.1996837">
<ele>14</ele><time>2020-12-28T08:50:39.999Z</time><extensions><gpxtpx:TrackPointExtension><gpxtpx:hr>119</gpxtpx:hr></gpxtpx:TrackPointExtension></extensions></trkpt>
<trkpt lat="22.4596009" lon="114.1997480">
<ele>14</ele><time>2020-12-28T08:50:42.999Z</time><extensions><gpxtpx:TrackPointExtension><gpxtpx:hr>119</gpxtpx:hr></gpxtpx:TrackPointExtension></extensions></trkpt>
<trkpt lat="22.4596009" lon="114.1998124">
<ele>14</ele><time>2020-12-28T08:50:45.999Z</time><extensions><gpxtpx:TrackPointExtension><gpxtpx:hr>120</gpxtpx:hr></gpxtpx:TrackPointExtension></extensions></trkpt>
<trkpt lat="22.4596207" lon="114.1998768">
<ele>14</ele><time>2020-12-28T08:50:48.999Z</time><extensions><gpxtpx:TrackPointExtension><gpxtpx:hr>120</gpxtpx:hr></gpxtpx:TrackPointExtension></extensions></trkpt>
<trkpt lat="22.4596406" lon="114.1999197">
<ele>14</ele><time>2020-12-28T08:50:50.999Z</time><extensions><gpxtpx:TrackPointExtension><gpxtpx:hr>117</gpxtpx:hr></gpxtpx:TrackPointExtension></extensions></trkpt>
<trkpt lat="22.4596505" lon="114.1999841">
<ele>14</ele><time>2020-12-28T08:50:53.999Z</time><extensions><gpxtpx:TrackPointExtension><gpxtpx:hr>117</gpxtpx:hr></gpxtpx:TrackPointExtension></extensions></trkpt>
<trkpt lat="22.4596703" lon="114.2000484">
<ele>14</ele><time>2020-12-28T08:50:57.998Z</time><extensions><gpxtpx:TrackPointExtension><gpxtpx:hr>116</gpxtpx:hr></gpxtpx:TrackPointExtension></extensions></trkpt>
<trkpt lat="22.4596802" lon="114.2001128">
<ele>14</ele><time>2020-12-28T08:50:59.998Z</time><extensions><gpxtpx:TrackPointExtension><gpxtpx:hr>117</gpxtpx:hr></gpxtpx:TrackPointExtension></extensions></trkpt>
<trkpt lat="22.4596901" lon="114.2001772">
<ele>14</ele><time>2020-12-28T08:51:02.998Z</time><extensions><gpxtpx:TrackPointExtension><gpxtpx:hr>117</gpxtpx:hr></gpxtpx:TrackPointExtension></extensions></trkpt>
<trkpt lat="22.4597100" lon="114.2002416">
<ele>14</ele><time>2020-12-28T08:51:05.998Z</time><extensions><gpxtpx:TrackPointExtension><gpxtpx:hr>117</gpxtpx:hr></gpxtpx:TrackPointExtension></extensions></trkpt>
<trkpt lat="22.4597199" lon="114.2003059">
<ele>14</ele><time>2020-12-28T08:51:08.998Z</time><extensions><gpxtpx:TrackPointExtension><gpxtpx:hr>117</gpxtpx:hr></gpxtpx:TrackPointExtension></extensions></trkpt>
<trkpt lat="22.4597298" lon="114.2003703">
<ele>14</ele><time>2020-12-28T08:51:10.998Z</time><extensions><gpxtpx:TrackPointExtension><gpxtpx:hr>115</gpxtpx:hr></gpxtpx:TrackPointExtension></extensions></trkpt>
<trkpt lat="22.4597496" lon="114.2004561">
<ele>14</ele><time>2020-12-28T08:51:13.998Z</time><extensions><gpxtpx:TrackPointExtension><gpxtpx:hr>115</gpxtpx:hr></gpxtpx:TrackPointExtension></extensions></trkpt>
<trkpt lat="22.4597695" lon="114.2004991">
<ele>14</ele><time>2020-12-28T08:51:15.998Z</time><extensions><gpxtpx:TrackPointExtension><gpxtpx:hr>115</gpxtpx:hr></gpxtpx:TrackPointExtension></extensions></trkpt>
<trkpt lat="22.4597992" lon="114.2005849">
<ele>14</ele><time>2020-12-28T08:51:18.998Z</time><extensions><gpxtpx:TrackPointExtension><gpxtpx:hr>115</gpxtpx:hr></gpxtpx:TrackPointExtension></extensions></trkpt>
<trkpt lat="22.4598091" lon="114.2006493">
<ele>14</ele><time>2020-12-28T08:51:21.998Z</time><extensions><gpxtpx:TrackPointExtension><gpxtpx:hr>113</gpxtpx:hr></gpxtpx:TrackPointExtension></extensions></trkpt>
<trkpt lat="22.4598290" lon="114.2007351">
<ele>14</ele><time>2020-12-28T08:51:24.998Z</time><extensions><gpxtpx:TrackPointExtension><gpxtpx:hr>113</gpxtpx:hr></gpxtpx:TrackPointExtension></extensions></trkpt>
<trkpt lat="22.4598290" lon="114.2007995">
<ele>14</ele><time>2020-12-28T08:51:26.998Z</time><extensions><gpxtpx:TrackPointExtension><gpxtpx:hr>113</gpxtpx:hr></gpxtpx:TrackPointExtension></extensions></trkpt>
<trkpt lat="22.4598290" lon="114.2008638">
<ele>14</ele><time>2020-12-28T08:51:30.000Z</time><extensions><gpxtpx:TrackPointExtension><gpxtpx:hr>113</gpxtpx:hr></gpxtpx:TrackPointExtension></extensions></trkpt>
<trkpt lat="22.4598290" lon="114.2009282">
<ele>13</ele><time>2020-12-28T08:51:32.000Z</time><extensions><gpxtpx:TrackPointExtension><gpxtpx:hr>113</gpxtpx:hr></gpxtpx:TrackPointExtension></extensions></trkpt>
<trkpt lat="22.4598389" lon="114.2010140">
<ele>13</ele><time>2020-12-28T08:51:35.000Z</time><extensions><gpxtpx:TrackPointExtension><gpxtpx:hr>113</gpxtpx:hr></gpxtpx:TrackPointExtension></extensions></trkpt>
<trkpt lat="22.4598488" lon="114.2010784">
<ele>13</ele><time>2020-12-28T08:51:38.000Z</time><extensions><gpxtpx:TrackPointExtension><gpxtpx:hr>113</gpxtpx:hr></gpxtpx:TrackPointExtension></extensions></trkpt>
<trkpt lat="22.4598587" lon="114.2011428">
<ele>13</ele><time>2020-12-28T08:51:41.000Z</time><extensions><gpxtpx:TrackPointExtension><gpxtpx:hr>113</gpxtpx:hr></gpxtpx:TrackPointExtension></extensions></trkpt>
<trkpt lat="22.4598686" lon="114.2012072">
<ele>13</ele><time>2020-12-28T08:51:43.000Z</time><extensions><gpxtpx:TrackPointExtension><gpxtpx:hr>113</gpxtpx:hr></gpxtpx:TrackPointExtension></extensions></trkpt>
<trkpt lat="22.4598686" lon="114.2012715">
<ele>13</ele><time>2020-12-28T08:51:46.000Z</time><extensions><gpxtpx:TrackPointExtension><gpxtpx:hr>113</gpxtpx:hr></gpxtpx:TrackPointExtension></extensions></trkpt>
<trkpt lat="22.4598785" lon="114.2013359">
<ele>13</ele><time>2020-12-28T08:51:48.000Z</time><extensions><gpxtpx:TrackPointExtension><gpxtpx:hr>113</gpxtpx:hr></gpxtpx:TrackPointExtension></extensions></trkpt>
<trkpt lat="22.4598785" lon="114.2014003">
<ele>13</ele><time>2020-12-28T08:51:50.000Z</time><extensions><gpxtpx:TrackPointExtension><gpxtpx:hr>114</gpxtpx:hr></gpxtpx:TrackPointExtension></extensions></trkpt>
<trkpt lat="22.4598884" lon="114.2014647">
<ele>13</ele><time>2020-12-28T08:51:52.999Z</time><extensions><gpxtpx:TrackPointExtension><gpxtpx:hr>114</gpxtpx:hr></gpxtpx:TrackPointExtension></extensions></trkpt>
<trkpt lat="22.4598984" lon="114.2015290">
<ele>13</ele><time>2020-12-28T08:51:54.999Z</time><extensions><gpxtpx:TrackPointExtension><gpxtpx:hr>115</gpxtpx:hr></gpxtpx:TrackPointExtension></extensions></trkpt>
<trkpt lat="22.4599083" lon="114.2015934">
<ele>13</ele><time>2020-12-28T08:51:56.999Z</time><extensions><gpxtpx:TrackPointExtension><gpxtpx:hr>115</gpxtpx:hr></gpxtpx:TrackPointExtension></extensions></trkpt>
<trkpt lat="22.4599281" lon="114.2016363">
<ele>13</ele><time>2020-12-28T08:51:58.999Z</time><extensions><gpxtpx:TrackPointExtension><gpxtpx:hr>115</gpxtpx:hr></gpxtpx:TrackPointExtension></extensions></trkpt>
<trkpt lat="22.4599281" lon="114.2017221">
<ele>13</ele><time>2020-12-28T08:52:01.999Z</time><extensions><gpxtpx:TrackPointExtension><gpxtpx:hr>116</gpxtpx:hr></gpxtpx:TrackPointExtension></extensions></trkpt>
<trkpt lat="22.4599380" lon="114.2017865">
<ele>13</ele><time>2020-12-28T08:52:04.999Z</time><extensions><gpxtpx:TrackPointExtension><gpxtpx:hr>116</gpxtpx:hr></gpxtpx:TrackPointExtension></extensions></trkpt>
<trkpt lat="22.4599479" lon="114.2018509">
<ele>13</ele><time>2020-12-28T08:52:07.999Z</time><extensions><gpxtpx:TrackPointExtension><gpxtpx:hr>116</gpxtpx:hr></gpxtpx:TrackPointExtension></extensions></trkpt>
<trkpt lat="22.4599479" lon="114.2019153">
<ele>13</ele><time>2020-12-28T08:52:10.999Z</time><extensions><gpxtpx:TrackPointExtension><gpxtpx:hr>116</gpxtpx:hr></gpxtpx:TrackPointExtension></extensions></trkpt>
<trkpt lat="22.4599579" lon="114.2019796">
<ele>13</ele><time>2020-12-28T08:52:13.999Z</time><extensions><gpxtpx:TrackPointExtension><gpxtpx:hr>116</gpxtpx:hr></gpxtpx:TrackPointExtension></extensions></trkpt>
<trkpt lat="22.4599579" lon="114.2020440">
<ele>13</ele><time>2020-12-28T08:52:15.999Z</time><extensions><gpxtpx:TrackPointExtension><gpxtpx:hr>118</gpxtpx:hr></gpxtpx:TrackPointExtension></extensions></trkpt>
<trkpt lat="22.4599678" lon="114.2021084">
<ele>12</ele><time>2020-12-28T08:52:18.999Z</time><extensions><gpxtpx:TrackPointExtension><gpxtpx:hr>118</gpxtpx:hr></gpxtpx:TrackPointExtension></extensions></trkpt>
<trkpt lat="22.4599579" lon="114.2021728">
<ele>12</ele><time>2020-12-28T08:52:22.999Z</time><extensions><gpxtpx:TrackPointExtension><gpxtpx:hr>118</gpxtpx:hr></gpxtpx:TrackPointExtension></extensions></trkpt>
<trkpt lat="22.4599678" lon="114.2022371">
<ele>12</ele><time>2020-12-28T08:52:25.999Z</time><extensions><gpxtpx:TrackPointExtension><gpxtpx:hr>117</gpxtpx:hr></gpxtpx:TrackPointExtension></extensions></trkpt>
<trkpt lat="22.4599777" lon="114.2023015">
<ele>12</ele><time>2020-12-28T08:52:28.999Z</time><extensions><gpxtpx:TrackPointExtension><gpxtpx:hr>117</gpxtpx:hr></gpxtpx:TrackPointExtension></extensions></trkpt>
<trkpt lat="22.4599777" lon="114.2023659">
<ele>12</ele><time>2020-12-28T08:52:30.999Z</time><extensions><gpxtpx:TrackPointExtension><gpxtpx:hr>116</gpxtpx:hr></gpxtpx:TrackPointExtension></extensions></trkpt>
<trkpt lat="22.4599876" lon="114.2024302">
<ele>12</ele><time>2020-12-28T08:52:33.999Z</time><extensions><gpxtpx:TrackPointExtension><gpxtpx:hr>116</gpxtpx:hr></gpxtpx:TrackPointExtension></extensions></trkpt>
<trkpt lat="22.4599876" lon="114.2024946">
<ele>12</ele><time>2020-12-28T08:52:35.999Z</time><extensions><gpxtpx:TrackPointExtension><gpxtpx:hr>117</gpxtpx:hr></gpxtpx:TrackPointExtension></extensions></trkpt>
<trkpt lat="22.4599975" lon="114.2025805">
<ele>12</ele><time>2020-12-28T08:52:38.999Z</time><extensions><gpxtpx:TrackPointExtension><gpxtpx:hr>117</gpxtpx:hr></gpxtpx:TrackPointExtension></extensions></trkpt>
<trkpt lat="22.4599975" lon="114.2026663">
<ele>12</ele><time>2020-12-28T08:52:41.999Z</time><extensions><gpxtpx:TrackPointExtension><gpxtpx:hr>118</gpxtpx:hr></gpxtpx:TrackPointExtension></extensions></trkpt>
<trkpt lat="22.4599975" lon="114.2027307">
<ele>12</ele><time>2020-12-28T08:52:44.999Z</time><extensions><gpxtpx:TrackPointExtension><gpxtpx:hr>118</gpxtpx:hr></gpxtpx:TrackPointExtension></extensions></trkpt>
<trkpt lat="22.4600074" lon="114.2027950">
<ele>11</ele><time>2020-12-28T08:52:47.999Z</time><extensions><gpxtpx:TrackPointExtension><gpxtpx:hr>117</gpxtpx:hr></gpxtpx:TrackPointExtension></extensions></trkpt>
<trkpt lat="22.4600173" lon="114.2028594">
<ele>11</ele><time>2020-12-28T08:52:49.999Z</time><extensions><gpxtpx:TrackPointExtension><gpxtpx:hr>117</gpxtpx:hr></gpxtpx:TrackPointExtension></extensions></trkpt>
<trkpt lat="22.4600273" lon="114.2029238">
<ele>11</ele><time>2020-12-28T08:52:52.999Z</time><extensions><gpxtpx:TrackPointExtension><gpxtpx:hr>117</gpxtpx:hr></gpxtpx:TrackPointExtension></extensions></trkpt>
<trkpt lat="22.4600372" lon="114.2029881">
<ele>11</ele><time>2020-12-28T08:52:54.999Z</time><extensions><gpxtpx:TrackPointExtension><gpxtpx:hr>117</gpxtpx:hr></gpxtpx:TrackPointExtension></extensions></trkpt>
<trkpt lat="22.4600471" lon="114.2030525">
<ele>11</ele><time>2020-12-28T08:52:57.998Z</time><extensions><gpxtpx:TrackPointExtension><gpxtpx:hr>117</gpxtpx:hr></gpxtpx:TrackPointExtension></extensions></trkpt>
<trkpt lat="22.4600570" lon="114.2031169">
<ele>11</ele><time>2020-12-28T08:53:00.998Z</time><extensions><gpxtpx:TrackPointExtension><gpxtpx:hr>117</gpxtpx:hr></gpxtpx:TrackPointExtension></extensions></trkpt>
<trkpt lat="22.4600570" lon="114.2031813">
<ele>11</ele><time>2020-12-28T08:53:02.998Z</time><extensions><gpxtpx:TrackPointExtension><gpxtpx:hr>117</gpxtpx:hr></gpxtpx:TrackPointExtension></extensions></trkpt>
<trkpt lat="22.4600768" lon="114.2032242">
<ele>11</ele><time>2020-12-28T08:53:04.998Z</time><extensions><gpxtpx:TrackPointExtension><gpxtpx:hr>117</gpxtpx:hr></gpxtpx:TrackPointExtension></extensions></trkpt>
<trkpt lat="22.4600967" lon="114.2032671">
<ele>10</ele><time>2020-12-28T08:53:06.998Z</time><extensions><gpxtpx:TrackPointExtension><gpxtpx:hr>117</gpxtpx:hr></gpxtpx:TrackPointExtension></extensions></trkpt>
<trkpt lat="22.4601165" lon="114.2033315">
<ele>10</ele><time>2020-12-28T08:53:08.998Z</time><extensions><gpxtpx:TrackPointExtension><gpxtpx:hr>117</gpxtpx:hr></gpxtpx:TrackPointExtension></extensions></trkpt>
<trkpt lat="22.4601165" lon="114.2033958">
<ele>10</ele><time>2020-12-28T08:53:10.998Z</time><extensions><gpxtpx:TrackPointExtension><gpxtpx:hr>117</gpxtpx:hr></gpxtpx:TrackPointExtension></extensions></trkpt>
<trkpt lat="22.4601363" lon="114.2034602">
<ele>10</ele><time>2020-12-28T08:53:13.998Z</time><extensions><gpxtpx:TrackPointExtension><gpxtpx:hr>117</gpxtpx:hr></gpxtpx:TrackPointExtension></extensions></trkpt>
<trkpt lat="22.4601264" lon="114.2035246">
<ele>10</ele><time>2020-12-28T08:53:16.998Z</time><extensions><gpxtpx:TrackPointExtension><gpxtpx:hr>117</gpxtpx:hr></gpxtpx:TrackPointExtension></extensions></trkpt>
<trkpt lat="22.4601462" lon="114.2035890">
<ele>10</ele><time>2020-12-28T08:53:18.998Z</time><extensions><gpxtpx:TrackPointExtension><gpxtpx:hr>117</gpxtpx:hr></gpxtpx:TrackPointExtension></extensions></trkpt>
<trkpt lat="22.4601760" lon="114.2036319">
<ele>10</ele><time>2020-12-28T08:53:21.998Z</time><extensions><gpxtpx:TrackPointExtension><gpxtpx:hr>118</gpxtpx:hr></gpxtpx:TrackPointExtension></extensions></trkpt>
<trkpt lat="22.4601462" lon="114.2036748">
<ele>10</ele><time>2020-12-28T08:53:41.000Z</time><extensions><gpxtpx:TrackPointExtension><gpxtpx:hr>121</gpxtpx:hr></gpxtpx:TrackPointExtension></extensions></trkpt>
<trkpt lat="22.4601165" lon="114.2037177">
<ele>9</ele><time>2020-12-28T08:54:11.999Z</time><extensions><gpxtpx:TrackPointExtension><gpxtpx:hr>113</gpxtpx:hr></gpxtpx:TrackPointExtension></extensions></trkpt>
<trkpt lat="22.4601264" lon="114.2037821">
<ele>9</ele><time>2020-12-28T08:54:13.999Z</time><extensions><gpxtpx:TrackPointExtension><gpxtpx:hr>113</gpxtpx:hr></gpxtpx:TrackPointExtension></extensions></trkpt>
<trkpt lat="22.4601760" lon="114.2037821">
<ele>9</ele><time>2020-12-28T08:54:16.999Z</time><extensions><gpxtpx:TrackPointExtension><gpxtpx:hr>113</gpxtpx:hr></gpxtpx:TrackPointExtension></extensions></trkpt>
<trkpt lat="22.4602256" lon="114.2038035">
<ele>9</ele><time>2020-12-28T08:54:19.999Z</time><extensions><gpxtpx:TrackPointExtension><gpxtpx:hr>113</gpxtpx:hr></gpxtpx:TrackPointExtension></extensions></trkpt>
<trkpt lat="22.4602751" lon="114.2038465">
<ele>9</ele><time>2020-12-28T08:54:21.999Z</time><extensions><gpxtpx:TrackPointExtension><gpxtpx:hr>113</gpxtpx:hr></gpxtpx:TrackPointExtension></extensions></trkpt>
<trkpt lat="22.4603049" lon="114.2038894">
<ele>9</ele><time>2020-12-28T08:54:23.999Z</time><extensions><gpxtpx:TrackPointExtension><gpxtpx:hr>113</gpxtpx:hr></gpxtpx:TrackPointExtension></extensions></trkpt>
<trkpt lat="22.4603445" lon="114.2039537">
<ele>9</ele><time>2020-12-28T08:54:25.999Z</time><extensions><gpxtpx:TrackPointExtension><gpxtpx:hr>113</gpxtpx:hr></gpxtpx:TrackPointExtension></extensions></trkpt>
<trkpt lat="22.4603743" lon="114.2039967">
<ele>9</ele><time>2020-12-28T08:54:27.999Z</time><extensions><gpxtpx:TrackPointExtension><gpxtpx:hr>113</gpxtpx:hr></gpxtpx:TrackPointExtension></extensions></trkpt>
<trkpt lat="22.4603941" lon="114.2040610">
<ele>9</ele><time>2020-12-28T08:54:29.999Z</time><extensions><gpxtpx:TrackPointExtension><gpxtpx:hr>120</gpxtpx:hr></gpxtpx:TrackPointExtension></extensions></trkpt>
<trkpt lat="22.4604239" lon="114.2041254">
<ele>9</ele><time>2020-12-28T08:54:31.999Z</time><extensions><gpxtpx:TrackPointExtension><gpxtpx:hr>120</gpxtpx:hr></gpxtpx:TrackPointExtension></extensions></trkpt>
<trkpt lat="22.4604536" lon="114.2041683">
<ele>9</ele><time>2020-12-28T08:54:33.999Z</time><extensions><gpxtpx:TrackPointExtension><gpxtpx:hr>120</gpxtpx:hr></gpxtpx:TrackPointExtension></extensions></trkpt>
<trkpt lat="22.4604833" lon="114.2042327">
<ele>9</ele><time>2020-12-28T08:54:35.999Z</time><extensions><gpxtpx:TrackPointExtension><gpxtpx:hr>121</gpxtpx:hr></gpxtpx:TrackPointExtension></extensions></trkpt>
<trkpt lat="22.4605131" lon="114.2042756">
<ele>9</ele><time>2020-12-28T08:54:37.999Z</time><extensions><gpxtpx:TrackPointExtension><gpxtpx:hr>121</gpxtpx:hr></gpxtpx:TrackPointExtension></extensions></trkpt>
<trkpt lat="22.4605528" lon="114.2043185">
<ele>9</ele><time>2020-12-28T08:54:39.999Z</time><extensions><gpxtpx:TrackPointExtension><gpxtpx:hr>121</gpxtpx:hr></gpxtpx:TrackPointExtension></extensions></trkpt>
<trkpt lat="22.4605825" lon="114.2043829">
<ele>9</ele><time>2020-12-28T08:54:41.999Z</time><extensions><gpxtpx:TrackPointExtension><gpxtpx:hr>121</gpxtpx:hr></gpxtpx:TrackPointExtension></extensions></trkpt>
<trkpt lat="22.4606122" lon="114.2044258">
<ele>9</ele><time>2020-12-28T08:54:43.999Z</time><extensions><gpxtpx:TrackPointExtension><gpxtpx:hr>121</gpxtpx:hr></gpxtpx:TrackPointExtension></extensions></trkpt>
<trkpt lat="22.4606321" lon="114.2044687">
<ele>9</ele><time>2020-12-28T08:54:44.999Z</time><extensions><gpxtpx:TrackPointExtension><gpxtpx:hr>121</gpxtpx:hr></gpxtpx:TrackPointExtension></extensions></trkpt>
<trkpt lat="22.4606618" lon="114.2045116">
<ele>9</ele><time>2020-12-28T08:54:46.999Z</time><extensions><gpxtpx:TrackPointExtension><gpxtpx:hr>121</gpxtpx:hr></gpxtpx:TrackPointExtension></extensions></trkpt>
<trkpt lat="22.4606916" lon="114.2045760">
<ele>8</ele><time>2020-12-28T08:54:48.999Z</time><extensions><gpxtpx:TrackPointExtension><gpxtpx:hr>121</gpxtpx:hr></gpxtpx:TrackPointExtension></extensions></trkpt>
<trkpt lat="22.4607411" lon="114.2045975">
<ele>8</ele><time>2020-12-28T08:54:50.999Z</time><extensions><gpxtpx:TrackPointExtension><gpxtpx:hr>121</gpxtpx:hr></gpxtpx:TrackPointExtension></extensions></trkpt>
<trkpt lat="22.4607709" lon="114.2046404">
<ele>8</ele><time>2020-12-28T08:54:51.999Z</time><extensions><gpxtpx:TrackPointExtension><gpxtpx:hr>121</gpxtpx:hr></gpxtpx:TrackPointExtension></extensions></trkpt>
<trkpt lat="22.4608205" lon="114.2046833">
<ele>8</ele><time>2020-12-28T08:54:53.999Z</time><extensions><gpxtpx:TrackPointExtension><gpxtpx:hr>121</gpxtpx:hr></gpxtpx:TrackPointExtension></extensions></trkpt>
<trkpt lat="22.4608799" lon="114.2047262">
<ele>8</ele><time>2020-12-28T08:54:56.999Z</time><extensions><gpxtpx:TrackPointExtension><gpxtpx:hr>123</gpxtpx:hr></gpxtpx:TrackPointExtension></extensions></trkpt>
<trkpt lat="22.4609196" lon="114.2047477">
<ele>8</ele><time>2020-12-28T08:54:57.999Z</time><extensions><gpxtpx:TrackPointExtension><gpxtpx:hr>123</gpxtpx:hr></gpxtpx:TrackPointExtension></extensions></trkpt>
<trkpt lat="22.4609494" lon="114.2047906">
<ele>7</ele><time>2020-12-28T08:54:58.999Z</time><extensions><gpxtpx:TrackPointExtension><gpxtpx:hr>123</gpxtpx:hr></gpxtpx:TrackPointExtension></extensions></trkpt>
<trkpt lat="22.4610188" lon="114.2048120">
<ele>7</ele><time>2020-12-28T08:55:00.999Z</time><extensions><gpxtpx:TrackPointExtension><gpxtpx:hr>125</gpxtpx:hr></gpxtpx:TrackPointExtension></extensions></trkpt>
<trkpt lat="22.4610782" lon="114.2048550">
<ele>7</ele><time>2020-12-28T08:55:02.999Z</time><extensions><gpxtpx:TrackPointExtension><gpxtpx:hr>125</gpxtpx:hr></gpxtpx:TrackPointExtension></extensions></trkpt>
<trkpt lat="22.4611278" lon="114.2048764">
<ele>6</ele><time>2020-12-28T08:55:04.998Z</time><extensions><gpxtpx:TrackPointExtension><gpxtpx:hr>125</gpxtpx:hr></gpxtpx:TrackPointExtension></extensions></trkpt>
<trkpt lat="22.4611873" lon="114.2048979">
<ele>6</ele><time>2020-12-28T08:55:06.998Z</time><extensions><gpxtpx:TrackPointExtension><gpxtpx:hr>125</gpxtpx:hr></gpxtpx:TrackPointExtension></extensions></trkpt>
<trkpt lat="22.4612468" lon="114.2049193">
<ele>6</ele><time>2020-12-28T08:55:08.998Z</time><extensions><gpxtpx:TrackPointExtension><gpxtpx:hr>125</gpxtpx:hr></gpxtpx:TrackPointExtension></extensions></trkpt>
<trkpt lat="22.4613162" lon="114.2049623">
<ele>6</ele><time>2020-12-28T08:55:10.998Z</time><extensions><gpxtpx:TrackPointExtension><gpxtpx:hr>125</gpxtpx:hr></gpxtpx:TrackPointExtension></extensions></trkpt>
<trkpt lat="22.4613658" lon="114.2050052">
<ele>6</ele><time>2020-12-28T08:55:12.998Z</time><extensions><gpxtpx:TrackPointExtension><gpxtpx:hr>125</gpxtpx:hr></gpxtpx:TrackPointExtension></extensions></trkpt>
<trkpt lat="22.4614154" lon="114.2050695">
<ele>6</ele><time>2020-12-28T08:55:14.998Z</time><extensions><gpxtpx:TrackPointExtension><gpxtpx:hr>125</gpxtpx:hr></gpxtpx:TrackPointExtension></extensions></trkpt>
<trkpt lat="22.4614649" lon="114.2051339">
<ele>5</ele><time>2020-12-28T08:55:16.998Z</time><extensions><gpxtpx:TrackPointExtension><gpxtpx:hr>125</gpxtpx:hr></gpxtpx:TrackPointExtension></extensions></trkpt>
<trkpt lat="22.4615046" lon="114.2051768">
<ele>5</ele><time>2020-12-28T08:55:18.998Z</time><extensions><gpxtpx:TrackPointExtension><gpxtpx:hr>125</gpxtpx:hr></gpxtpx:TrackPointExtension></extensions></trkpt>
<trkpt lat="22.4615442" lon="114.2051983">
<ele>5</ele><time>2020-12-28T08:55:20.998Z</time><extensions><gpxtpx:TrackPointExtension><gpxtpx:hr>125</gpxtpx:hr></gpxtpx:TrackPointExtension></extensions></trkpt>
<trkpt lat="22.4615938" lon="114.2052412">
<ele>5</ele><time>2020-12-28T08:55:22.998Z</time><extensions><gpxtpx:TrackPointExtension><gpxtpx:hr>125</gpxtpx:hr></gpxtpx:TrackPointExtension></extensions></trkpt>
<trkpt lat="22.4616434" lon="114.2052627">
<ele>4</ele><time>2020-12-28T08:55:24.998Z</time><extensions><gpxtpx:TrackPointExtension><gpxtpx:hr>125</gpxtpx:hr></gpxtpx:TrackPointExtension></extensions></trkpt>
<trkpt lat="22.4617128" lon="114.2053056">
<ele>4</ele><time>2020-12-28T08:55:27.998Z</time><extensions><gpxtpx:TrackPointExtension><gpxtpx:hr>125</gpxtpx:hr></gpxtpx:TrackPointExtension></extensions></trkpt>
<trkpt lat="22.4617624" lon="114.2053699">
<ele>3</ele><time>2020-12-28T08:55:29.998Z</time><extensions><gpxtpx:TrackPointExtension><gpxtpx:hr>125</gpxtpx:hr></gpxtpx:TrackPointExtension></extensions></trkpt>
<trkpt lat="22.4618219" lon="114.2053914">
<ele>3</ele><time>2020-12-28T08:55:31.998Z</time><extensions><gpxtpx:TrackPointExtension><gpxtpx:hr>125</gpxtpx:hr></gpxtpx:TrackPointExtension></extensions></trkpt>
<trkpt lat="22.4618913" lon="114.2054129">
<ele>3</ele><time>2020-12-28T08:55:33.998Z</time><extensions><gpxtpx:TrackPointExtension><gpxtpx:hr>125</gpxtpx:hr></gpxtpx:TrackPointExtension></extensions></trkpt>
<trkpt lat="22.4619309" lon="114.2054343">
<ele>3</ele><time>2020-12-28T08:55:34.998Z</time><extensions><gpxtpx:TrackPointExtension><gpxtpx:hr>125</gpxtpx:hr></gpxtpx:TrackPointExtension></extensions></trkpt>
<trkpt lat="22.4619706" lon="114.2054129">
<ele>3</ele><time>2020-12-28T08:55:35.998Z</time><extensions><gpxtpx:TrackPointExtension><gpxtpx:hr>125</gpxtpx:hr></gpxtpx:TrackPointExtension></extensions></trkpt>
<trkpt lat="22.4620301" lon="114.2054129">
<ele>3</ele><time>2020-12-28T08:55:39.998Z</time><extensions><gpxtpx:TrackPointExtension><gpxtpx:hr>125</gpxtpx:hr></gpxtpx:TrackPointExtension></extensions></trkpt>
<trkpt lat="22.4620499" lon="114.2054558">
<ele>3</ele><time>2020-12-28T08:55:45.999Z</time><extensions><gpxtpx:TrackPointExtension><gpxtpx:hr>125</gpxtpx:hr></gpxtpx:TrackPointExtension></extensions></trkpt>
<trkpt lat="22.4620995" lon="114.2054772">
<ele>3</ele><time>2020-12-28T08:55:54.999Z</time><extensions><gpxtpx:TrackPointExtension><gpxtpx:hr>125</gpxtpx:hr></gpxtpx:TrackPointExtension></extensions></trkpt>
<trkpt lat="22.4621193" lon="114.2055202">
<ele>3</ele><time>2020-12-28T08:55:58.999Z</time><extensions><gpxtpx:TrackPointExtension><gpxtpx:hr>125</gpxtpx:hr></gpxtpx:TrackPointExtension></extensions></trkpt>
<trkpt lat="22.4621689" lon="114.2055416">
<ele>5</ele><time>2020-12-28T08:56:16.999Z</time><extensions><gpxtpx:TrackPointExtension><gpxtpx:hr>125</gpxtpx:hr></gpxtpx:TrackPointExtension></extensions></trkpt>
<trkpt lat="22.4621986" lon="114.2056060">
<ele>5</ele><time>2020-12-28T08:56:22.999Z</time><extensions><gpxtpx:TrackPointExtension><gpxtpx:hr>125</gpxtpx:hr></gpxtpx:TrackPointExtension></extensions></trkpt>
<trkpt lat="22.4622284" lon="114.2056489">
<ele>5</ele><time>2020-12-28T08:56:29.999Z</time><extensions><gpxtpx:TrackPointExtension><gpxtpx:hr>125</gpxtpx:hr></gpxtpx:TrackPointExtension></extensions></trkpt>
<trkpt lat="22.4622581" lon="114.2056918">
<ele>5</ele><time>2020-12-28T08:56:37.999Z</time><extensions><gpxtpx:TrackPointExtension><gpxtpx:hr>125</gpxtpx:hr></gpxtpx:TrackPointExtension></extensions></trkpt>
<trkpt lat="22.4622779" lon="114.2057347">
<ele>5</ele><time>2020-12-28T08:56:41.999Z</time><extensions><gpxtpx:TrackPointExtension><gpxtpx:hr>125</gpxtpx:hr></gpxtpx:TrackPointExtension></extensions></trkpt>
<trkpt lat="22.4622978" lon="114.2057776">
<ele>6</ele><time>2020-12-28T08:56:48.999Z</time><extensions><gpxtpx:TrackPointExtension><gpxtpx:hr>125</gpxtpx:hr></gpxtpx:TrackPointExtension></extensions></trkpt>
<trkpt lat="22.4623275" lon="114.2058206">
<ele>6</ele><time>2020-12-28T08:56:55.999Z</time><extensions><gpxtpx:TrackPointExtension><gpxtpx:hr>125</gpxtpx:hr></gpxtpx:TrackPointExtension></extensions></trkpt>
<trkpt lat="22.4623474" lon="114.2058635">
<ele>6</ele><time>2020-12-28T08:56:58.999Z</time><extensions><gpxtpx:TrackPointExtension><gpxtpx:hr>125</gpxtpx:hr></gpxtpx:TrackPointExtension></extensions></trkpt>
<trkpt lat="22.4623672" lon="114.2059064">
<ele>6</ele><time>2020-12-28T08:57:00.999Z</time><extensions><gpxtpx:TrackPointExtension><gpxtpx:hr>125</gpxtpx:hr></gpxtpx:TrackPointExtension></extensions></trkpt>
<trkpt lat="22.4623969" lon="114.2059922">
<ele>6</ele><time>2020-12-28T08:57:03.999Z</time><extensions><gpxtpx:TrackPointExtension><gpxtpx:hr>125</gpxtpx:hr></gpxtpx:TrackPointExtension></extensions></trkpt>
<trkpt lat="22.4624366" lon="114.2060566">
<ele>6</ele><time>2020-12-28T08:57:05.999Z</time><extensions><gpxtpx:TrackPointExtension><gpxtpx:hr>125</gpxtpx:hr></gpxtpx:TrackPointExtension></extensions></trkpt>
<trkpt lat="22.4624564" lon="114.2060995">
<ele>6</ele><time>2020-12-28T08:57:06.999Z</time><extensions><gpxtpx:TrackPointExtension><gpxtpx:hr>125</gpxtpx:hr></gpxtpx:TrackPointExtension></extensions></trkpt>
<trkpt lat="22.4624862" lon="114.2061639">
<ele>6</ele><time>2020-12-28T08:57:08.999Z</time><extensions><gpxtpx:TrackPointExtension><gpxtpx:hr>125</gpxtpx:hr></gpxtpx:TrackPointExtension></extensions></trkpt>
<trkpt lat="22.4625258" lon="114.2062283">
<ele>6</ele><time>2020-12-28T08:57:10.998Z</time><extensions><gpxtpx:TrackPointExtension><gpxtpx:hr>125</gpxtpx:hr></gpxtpx:TrackPointExtension></extensions></trkpt>
<trkpt lat="22.4625655" lon="114.2062926">
<ele>6</ele><time>2020-12-28T08:57:12.998Z</time><extensions><gpxtpx:TrackPointExtension><gpxtpx:hr>125</gpxtpx:hr></gpxtpx:TrackPointExtension></extensions></trkpt>
<trkpt lat="22.4625952" lon="114.2063570">
<ele>6</ele><time>2020-12-28T08:57:14.998Z</time><extensions><gpxtpx:TrackPointExtension><gpxtpx:hr>125</gpxtpx:hr></gpxtpx:TrackPointExtension></extensions></trkpt>
<trkpt lat="22.4626448" lon="114.2063999">
<ele>6</ele><time>2020-12-28T08:57:16.998Z</time><extensions><gpxtpx:TrackPointExtension><gpxtpx:hr>125</gpxtpx:hr></gpxtpx:TrackPointExtension></extensions></trkpt>
<trkpt lat="22.4626646" lon="114.2064428">
<ele>6</ele><time>2020-12-28T08:57:17.998Z</time><extensions><gpxtpx:TrackPointExtension><gpxtpx:hr>125</gpxtpx:hr></gpxtpx:TrackPointExtension></extensions></trkpt>
<trkpt lat="22.4627142" lon="114.2064857">
<ele>6</ele><time>2020-12-28T08:57:19.998Z</time><extensions><gpxtpx:TrackPointExtension><gpxtpx:hr>125</gpxtpx:hr></gpxtpx:TrackPointExtension></extensions></trkpt>
<trkpt lat="22.4627439" lon="114.2065287">
<ele>6</ele><time>2020-12-28T08:57:21.998Z</time><extensions><gpxtpx:TrackPointExtension><gpxtpx:hr>125</gpxtpx:hr></gpxtpx:TrackPointExtension></extensions></trkpt>
<trkpt lat="22.4627836" lon="114.2065716">
<ele>6</ele><time>2020-12-28T08:57:23.998Z</time><extensions><gpxtpx:TrackPointExtension><gpxtpx:hr>125</gpxtpx:hr></gpxtpx:TrackPointExtension></extensions></trkpt>
<trkpt lat="22.4628134" lon="114.2066145">
<ele>6</ele><time>2020-12-28T08:57:26.998Z</time><extensions><gpxtpx:TrackPointExtension><gpxtpx:hr>125</gpxtpx:hr></gpxtpx:TrackPointExtension></extensions></trkpt>
<trkpt lat="22.4628431" lon="114.2066574">
<ele>6</ele><time>2020-12-28T08:57:28.998Z</time><extensions><gpxtpx:TrackPointExtension><gpxtpx:hr>125</gpxtpx:hr></gpxtpx:TrackPointExtension></extensions></trkpt>
<trkpt lat="22.4628828" lon="114.2067003">
<ele>6</ele><time>2020-12-28T08:57:32.998Z</time><extensions><gpxtpx:TrackPointExtension><gpxtpx:hr>125</gpxtpx:hr></gpxtpx:TrackPointExtension></extensions></trkpt>
<trkpt lat="22.4629224" lon="114.2067432">
<ele>6</ele><time>2020-12-28T08:57:35.998Z</time><extensions><gpxtpx:TrackPointExtension><gpxtpx:hr>125</gpxtpx:hr></gpxtpx:TrackPointExtension></extensions></trkpt>
<trkpt lat="22.4629621" lon="114.2067862">
<ele>6</ele><time>2020-12-28T08:57:39.998Z</time><extensions><gpxtpx:TrackPointExtension><gpxtpx:hr>125</gpxtpx:hr></gpxtpx:TrackPointExtension></extensions></trkpt>
<trkpt lat="22.4630017" lon="114.2068291">
<ele>6</ele><time>2020-12-28T08:57:43.998Z</time><extensions><gpxtpx:TrackPointExtension><gpxtpx:hr>125</gpxtpx:hr></gpxtpx:TrackPointExtension></extensions></trkpt>
<trkpt lat="22.4630414" lon="114.2068720">
<ele>6</ele><time>2020-12-28T08:57:48.000Z</time><extensions><gpxtpx:TrackPointExtension><gpxtpx:hr>125</gpxtpx:hr></gpxtpx:TrackPointExtension></extensions></trkpt>
<trkpt lat="22.4630810" lon="114.2068934">
<ele>6</ele><time>2020-12-28T08:57:51.000Z</time><extensions><gpxtpx:TrackPointExtension><gpxtpx:hr>125</gpxtpx:hr></gpxtpx:TrackPointExtension></extensions></trkpt>
<trkpt lat="22.4631207" lon="114.2069364">
<ele>6</ele><time>2020-12-28T08:57:54.000Z</time><extensions><gpxtpx:TrackPointExtension><gpxtpx:hr>125</gpxtpx:hr></gpxtpx:TrackPointExtension></extensions></trkpt>
<trkpt lat="22.4631604" lon="114.2069793">
<ele>6</ele><time>2020-12-28T08:57:58.000Z</time><extensions><gpxtpx:TrackPointExtension><gpxtpx:hr>125</gpxtpx:hr></gpxtpx:TrackPointExtension></extensions></trkpt>
<trkpt lat="22.4632000" lon="114.2070007">
<ele>6</ele><time>2020-12-28T08:58:00.000Z</time><extensions><gpxtpx:TrackPointExtension><gpxtpx:hr>125</gpxtpx:hr></gpxtpx:TrackPointExtension></extensions></trkpt>
<trkpt lat="22.4632397" lon="114.2070222">
<ele>6</ele><time>2020-12-28T08:58:02.000Z</time><extensions><gpxtpx:TrackPointExtension><gpxtpx:hr>125</gpxtpx:hr></gpxtpx:TrackPointExtension></extensions></trkpt>
<trkpt lat="22.4632793" lon="114.2070651">
<ele>6</ele><time>2020-12-28T08:58:05.000Z</time><extensions><gpxtpx:TrackPointExtension><gpxtpx:hr>125</gpxtpx:hr></gpxtpx:TrackPointExtension></extensions></trkpt>
<trkpt lat="22.4633190" lon="114.2071080">
<ele>6</ele><time>2020-12-28T08:58:07.999Z</time><extensions><gpxtpx:TrackPointExtension><gpxtpx:hr>125</gpxtpx:hr></gpxtpx:TrackPointExtension></extensions></trkpt>
<trkpt lat="22.4633686" lon="114.2071295">
<ele>6</ele><time>2020-12-28T08:58:11.999Z</time><extensions><gpxtpx:TrackPointExtension><gpxtpx:hr>125</gpxtpx:hr></gpxtpx:TrackPointExtension></extensions></trkpt>
<trkpt lat="22.4634082" lon="114.2071724">
<ele>6</ele><time>2020-12-28T08:58:13.999Z</time><extensions><gpxtpx:TrackPointExtension><gpxtpx:hr>125</gpxtpx:hr></gpxtpx:TrackPointExtension></extensions></trkpt>
<trkpt lat="22.4634578" lon="114.2071939">
<ele>6</ele><time>2020-12-28T08:58:16.999Z</time><extensions><gpxtpx:TrackPointExtension><gpxtpx:hr>125</gpxtpx:hr></gpxtpx:TrackPointExtension></extensions></trkpt>
<trkpt lat="22.4634975" lon="114.2072153">
<ele>6</ele><time>2020-12-28T08:58:18.999Z</time><extensions><gpxtpx:TrackPointExtension><gpxtpx:hr>125</gpxtpx:hr></gpxtpx:TrackPointExtension></extensions></trkpt>
<trkpt lat="22.4635470" lon="114.2072582">
<ele>6</ele><time>2020-12-28T08:58:21.999Z</time><extensions><gpxtpx:TrackPointExtension><gpxtpx:hr>125</gpxtpx:hr></gpxtpx:TrackPointExtension></extensions></trkpt>
<trkpt lat="22.4635867" lon="114.2072797">
<ele>6</ele><time>2020-12-28T08:58:23.999Z</time><extensions><gpxtpx:TrackPointExtension><gpxtpx:hr>125</gpxtpx:hr></gpxtpx:TrackPointExtension></extensions></trkpt>
<trkpt lat="22.4636462" lon="114.2073011">
<ele>6</ele><time>2020-12-28T08:58:26.999Z</time><extensions><gpxtpx:TrackPointExtension><gpxtpx:hr>113</gpxtpx:hr></gpxtpx:TrackPointExtension></extensions></trkpt>
<trkpt lat="22.4636958" lon="114.2073226">
<ele>6</ele><time>2020-12-28T08:58:29.999Z</time><extensions><gpxtpx:TrackPointExtension><gpxtpx:hr>113</gpxtpx:hr></gpxtpx:TrackPointExtension></extensions></trkpt>
<trkpt lat="22.4637453" lon="114.2073441">
<ele>6</ele><time>2020-12-28T08:58:32.999Z</time><extensions><gpxtpx:TrackPointExtension><gpxtpx:hr>114</gpxtpx:hr></gpxtpx:TrackPointExtension></extensions></trkpt>
<trkpt lat="22.4638147" lon="114.2073655">
<ele>6</ele><time>2020-12-28T08:58:34.999Z</time><extensions><gpxtpx:TrackPointExtension><gpxtpx:hr>114</gpxtpx:hr></gpxtpx:TrackPointExtension></extensions></trkpt>
<trkpt lat="22.4638742" lon="114.2073870">
<ele>6</ele><time>2020-12-28T08:58:36.999Z</time><extensions><gpxtpx:TrackPointExtension><gpxtpx:hr>115</gpxtpx:hr></gpxtpx:TrackPointExtension></extensions></trkpt>
<trkpt lat="22.4639337" lon="114.2074299">
<ele>6</ele><time>2020-12-28T08:58:38.999Z</time><extensions><gpxtpx:TrackPointExtension><gpxtpx:hr>115</gpxtpx:hr></gpxtpx:TrackPointExtension></extensions></trkpt>
<trkpt lat="22.4639734" lon="114.2074513">
<ele>6</ele><time>2020-12-28T08:58:40.999Z</time><extensions><gpxtpx:TrackPointExtension><gpxtpx:hr>115</gpxtpx:hr></gpxtpx:TrackPointExtension></extensions></trkpt>
<trkpt lat="22.4640230" lon="114.2074513">
<ele>6</ele><time>2020-12-28T08:58:42.999Z</time><extensions><gpxtpx:TrackPointExtension><gpxtpx:hr>115</gpxtpx:hr></gpxtpx:TrackPointExtension></extensions></trkpt>
<trkpt lat="22.4640725" lon="114.2074728">
<ele>6</ele><time>2020-12-28T08:58:45.999Z</time><extensions><gpxtpx:TrackPointExtension><gpxtpx:hr>115</gpxtpx:hr></gpxtpx:TrackPointExtension></extensions></trkpt>
<trkpt lat="22.4641221" lon="114.2074943">
<ele>6</ele><time>2020-12-28T08:58:47.999Z</time><extensions><gpxtpx:TrackPointExtension><gpxtpx:hr>115</gpxtpx:hr></gpxtpx:TrackPointExtension></extensions></trkpt>
<trkpt lat="22.4641816" lon="114.2075157">
<ele>6</ele><time>2020-12-28T08:58:50.999Z</time><extensions><gpxtpx:TrackPointExtension><gpxtpx:hr>115</gpxtpx:hr></gpxtpx:TrackPointExtension></extensions></trkpt>
<trkpt lat="22.4642312" lon="114.2075372">
<ele>6</ele><time>2020-12-28T08:58:53.999Z</time><extensions><gpxtpx:TrackPointExtension><gpxtpx:hr>115</gpxtpx:hr></gpxtpx:TrackPointExtension></extensions></trkpt>
<trkpt lat="22.4642708" lon="114.2075586">
<ele>6</ele><time>2020-12-28T08:58:55.999Z</time><extensions><gpxtpx:TrackPointExtension><gpxtpx:hr>115</gpxtpx:hr></gpxtpx:TrackPointExtension></extensions></trkpt>
<trkpt lat="22.4643204" lon="114.2075586">
<ele>6</ele><time>2020-12-28T08:58:58.999Z</time><extensions><gpxtpx:TrackPointExtension><gpxtpx:hr>115</gpxtpx:hr></gpxtpx:TrackPointExtension></extensions></trkpt>
<trkpt lat="22.4643799" lon="114.2075801">
<ele>6</ele><time>2020-12-28T08:59:01.999Z</time><extensions><gpxtpx:TrackPointExtension><gpxtpx:hr>115</gpxtpx:hr></gpxtpx:TrackPointExtension></extensions></trkpt>
<trkpt lat="22.4644195" lon="114.2076015">
<ele>6</ele><time>2020-12-28T08:59:05.999Z</time><extensions><gpxtpx:TrackPointExtension><gpxtpx:hr>115</gpxtpx:hr></gpxtpx:TrackPointExtension></extensions></trkpt>
<trkpt lat="22.4644592" lon="114.2076445">
<ele>6</ele><time>2020-12-28T08:59:08.999Z</time><extensions><gpxtpx:TrackPointExtension><gpxtpx:hr>115</gpxtpx:hr></gpxtpx:TrackPointExtension></extensions></trkpt>
<trkpt lat="22.4644989" lon="114.2076659">
<ele>7</ele><time>2020-12-28T08:59:11.998Z</time><extensions><gpxtpx:TrackPointExtension><gpxtpx:hr>115</gpxtpx:hr></gpxtpx:TrackPointExtension></extensions></trkpt>
<trkpt lat="22.4645385" lon="114.2076874">
<ele>6</ele><time>2020-12-28T08:59:13.998Z</time><extensions><gpxtpx:TrackPointExtension><gpxtpx:hr>115</gpxtpx:hr></gpxtpx:TrackPointExtension></extensions></trkpt>
<trkpt lat="22.4645782" lon="114.2077303">
<ele>6</ele><time>2020-12-28T08:59:15.998Z</time><extensions><gpxtpx:TrackPointExtension><gpxtpx:hr>115</gpxtpx:hr></gpxtpx:TrackPointExtension></extensions></trkpt>
<trkpt lat="22.4646178" lon="114.2077732">
<ele>6</ele><time>2020-12-28T08:59:17.998Z</time><extensions><gpxtpx:TrackPointExtension><gpxtpx:hr>115</gpxtpx:hr></gpxtpx:TrackPointExtension></extensions></trkpt>
<trkpt lat="22.4646674" lon="114.2077947">
<ele>6</ele><time>2020-12-28T08:59:20.998Z</time><extensions><gpxtpx:TrackPointExtension><gpxtpx:hr>115</gpxtpx:hr></gpxtpx:TrackPointExtension></extensions></trkpt>
<trkpt lat="22.4646972" lon="114.2078376">
<ele>6</ele><time>2020-12-28T08:59:22.998Z</time><extensions><gpxtpx:TrackPointExtension><gpxtpx:hr>115</gpxtpx:hr></gpxtpx:TrackPointExtension></extensions></trkpt>
<trkpt lat="22.4647467" lon="114.2078805">
<ele>6</ele><time>2020-12-28T08:59:25.998Z</time><extensions><gpxtpx:TrackPointExtension><gpxtpx:hr>115</gpxtpx:hr></gpxtpx:TrackPointExtension></extensions></trkpt>
<trkpt lat="22.4647963" lon="114.2079234">
<ele>6</ele><time>2020-12-28T08:59:28.998Z</time><extensions><gpxtpx:TrackPointExtension><gpxtpx:hr>115</gpxtpx:hr></gpxtpx:TrackPointExtension></extensions></trkpt>
<trkpt lat="22.4648459" lon="114.2079663">
<ele>6</ele><time>2020-12-28T08:59:32.998Z</time><extensions><gpxtpx:TrackPointExtension><gpxtpx:hr>115</gpxtpx:hr></gpxtpx:TrackPointExtension></extensions></trkpt>
<trkpt lat="22.4648855" lon="114.2080092">
<ele>6</ele><time>2020-12-28T08:59:35.998Z</time><extensions><gpxtpx:TrackPointExtension><gpxtpx:hr>115</gpxtpx:hr></gpxtpx:TrackPointExtension></extensions></trkpt>
<trkpt lat="22.4649252" lon="114.2080522">
<ele>6</ele><time>2020-12-28T08:59:38.998Z</time><extensions><gpxtpx:TrackPointExtension><gpxtpx:hr>115</gpxtpx:hr></gpxtpx:TrackPointExtension></extensions></trkpt>
<trkpt lat="22.4649648" lon="114.2080951">
<ele>6</ele><time>2020-12-28T08:59:41.998Z</time><extensions><gpxtpx:TrackPointExtension><gpxtpx:hr>115</gpxtpx:hr></gpxtpx:TrackPointExtension></extensions></trkpt>
<trkpt lat="22.4650045" lon="114.2081165">
<ele>6</ele><time>2020-12-28T08:59:43.998Z</time><extensions><gpxtpx:TrackPointExtension><gpxtpx:hr>115</gpxtpx:hr></gpxtpx:TrackPointExtension></extensions></trkpt>
<trkpt lat="22.4650442" lon="114.2081594">
<ele>6</ele><time>2020-12-28T08:59:46.998Z</time><extensions><gpxtpx:TrackPointExtension><gpxtpx:hr>115</gpxtpx:hr></gpxtpx:TrackPointExtension></extensions></trkpt>
<trkpt lat="22.4650937" lon="114.2082024">
<ele>6</ele><time>2020-12-28T08:59:49.998Z</time><extensions><gpxtpx:TrackPointExtension><gpxtpx:hr>115</gpxtpx:hr></gpxtpx:TrackPointExtension></extensions></trkpt>
<trkpt lat="22.4651235" lon="114.2082453">
<ele>6</ele><time>2020-12-28T08:59:52.999Z</time><extensions><gpxtpx:TrackPointExtension><gpxtpx:hr>115</gpxtpx:hr></gpxtpx:TrackPointExtension></extensions></trkpt>
<trkpt lat="22.4651631" lon="114.2082882">
<ele>6</ele><time>2020-12-28T08:59:56.999Z</time><extensions><gpxtpx:TrackPointExtension><gpxtpx:hr>115</gpxtpx:hr></gpxtpx:TrackPointExtension></extensions></trkpt>
<trkpt lat="22.4652127" lon="114.2083311">
<ele>6</ele><time>2020-12-28T08:59:59.999Z</time><extensions><gpxtpx:TrackPointExtension><gpxtpx:hr>115</gpxtpx:hr></gpxtpx:TrackPointExtension></extensions></trkpt>
<trkpt lat="22.4652425" lon="114.2083740">
<ele>6</ele><time>2020-12-28T09:00:03.999Z</time><extensions><gpxtpx:TrackPointExtension><gpxtpx:hr>115</gpxtpx:hr></gpxtpx:TrackPointExtension></extensions></trkpt>
<trkpt lat="22.4652623" lon="114.2084169">
<ele>6</ele><time>2020-12-28T09:00:07.000Z</time><extensions><gpxtpx:TrackPointExtension><gpxtpx:hr>115</gpxtpx:hr></gpxtpx:TrackPointExtension></extensions></trkpt>
<trkpt lat="22.4653119" lon="114.2084599">
<ele>6</ele><time>2020-12-28T09:00:11.000Z</time><extensions><gpxtpx:TrackPointExtension><gpxtpx:hr>115</gpxtpx:hr></gpxtpx:TrackPointExtension></extensions></trkpt>
<trkpt lat="22.4653515" lon="114.2084813">
<ele>6</ele><time>2020-12-28T09:00:13.999Z</time><extensions><gpxtpx:TrackPointExtension><gpxtpx:hr>115</gpxtpx:hr></gpxtpx:TrackPointExtension></extensions></trkpt>
<trkpt lat="22.4653317" lon="114.2084384">
<ele>6</ele><time>2020-12-28T09:00:33.999Z</time><extensions><gpxtpx:TrackPointExtension><gpxtpx:hr>115</gpxtpx:hr></gpxtpx:TrackPointExtension></extensions></trkpt>
<trkpt lat="22.4653019" lon="114.2083955">
<ele>6</ele><time>2020-12-28T09:00:39.999Z</time><extensions><gpxtpx:TrackPointExtension><gpxtpx:hr>115</gpxtpx:hr></gpxtpx:TrackPointExtension></extensions></trkpt>
<trkpt lat="22.4653614" lon="114.2084599">
<ele>6</ele><time>2020-12-28T09:00:49.999Z</time><extensions><gpxtpx:TrackPointExtension><gpxtpx:hr>119</gpxtpx:hr></gpxtpx:TrackPointExtension></extensions></trkpt>
<trkpt lat="22.4654011" lon="114.2084813">
<ele>6</ele><time>2020-12-28T09:01:44.998Z</time><extensions><gpxtpx:TrackPointExtension><gpxtpx:hr>121</gpxtpx:hr></gpxtpx:TrackPointExtension></extensions></trkpt>
<trkpt lat="22.4654507" lon="114.2085028">
<ele>6</ele><time>2020-12-28T09:01:48.998Z</time><extensions><gpxtpx:TrackPointExtension><gpxtpx:hr>121</gpxtpx:hr></gpxtpx:TrackPointExtension></extensions></trkpt>
<trkpt lat="22.4655002" lon="114.2085242">
<ele>6</ele><time>2020-12-28T09:01:50.998Z</time><extensions><gpxtpx:TrackPointExtension><gpxtpx:hr>122</gpxtpx:hr></gpxtpx:TrackPointExtension></extensions></trkpt>
<trkpt lat="22.4655597" lon="114.2085457">
<ele>6</ele><time>2020-12-28T09:01:52.998Z</time><extensions><gpxtpx:TrackPointExtension><gpxtpx:hr>122</gpxtpx:hr></gpxtpx:TrackPointExtension></extensions></trkpt>
<trkpt lat="22.4656192" lon="114.2085886">
<ele>6</ele><time>2020-12-28T09:01:54.998Z</time><extensions><gpxtpx:TrackPointExtension><gpxtpx:hr>122</gpxtpx:hr></gpxtpx:TrackPointExtension></extensions></trkpt>
<trkpt lat="22.4656886" lon="114.2086101">
<ele>6</ele><time>2020-12-28T09:01:56.998Z</time><extensions><gpxtpx:TrackPointExtension><gpxtpx:hr>121</gpxtpx:hr></gpxtpx:TrackPointExtension></extensions></trkpt>
<trkpt lat="22.4657481" lon="114.2086530">
<ele>5</ele><time>2020-12-28T09:01:58.999Z</time><extensions><gpxtpx:TrackPointExtension><gpxtpx:hr>121</gpxtpx:hr></gpxtpx:TrackPointExtension></extensions></trkpt>
<trkpt lat="22.4658175" lon="114.2086744">
<ele>5</ele><time>2020-12-28T09:02:00.999Z</time><extensions><gpxtpx:TrackPointExtension><gpxtpx:hr>122</gpxtpx:hr></gpxtpx:TrackPointExtension></extensions></trkpt>
<trkpt lat="22.4658671" lon="114.2086959">
<ele>5</ele><time>2020-12-28T09:02:02.999Z</time><extensions><gpxtpx:TrackPointExtension><gpxtpx:hr>122</gpxtpx:hr></gpxtpx:TrackPointExtension></extensions></trkpt>
<trkpt lat="22.4659266" lon="114.2087173">
<ele>5</ele><time>2020-12-28T09:02:05.999Z</time><extensions><gpxtpx:TrackPointExtension><gpxtpx:hr>122</gpxtpx:hr></gpxtpx:TrackPointExtension></extensions></trkpt>
<trkpt lat="22.4659960" lon="114.2087173">
<ele>5</ele><time>2020-12-28T09:02:08.999Z</time><extensions><gpxtpx:TrackPointExtension><gpxtpx:hr>122</gpxtpx:hr></gpxtpx:TrackPointExtension></extensions></trkpt>
<trkpt lat="22.4660356" lon="114.2087388">
<ele>5</ele><time>2020-12-28T09:02:10.999Z</time><extensions><gpxtpx:TrackPointExtension><gpxtpx:hr>122</gpxtpx:hr></gpxtpx:TrackPointExtension></extensions></trkpt>
<trkpt lat="22.4660852" lon="114.2087603">
<ele>5</ele><time>2020-12-28T09:02:12.999Z</time><extensions><gpxtpx:TrackPointExtension><gpxtpx:hr>122</gpxtpx:hr></gpxtpx:TrackPointExtension></extensions></trkpt>
<trkpt lat="22.4661348" lon="114.2087603">
<ele>5</ele><time>2020-12-28T09:02:15.999Z</time><extensions><gpxtpx:TrackPointExtension><gpxtpx:hr>122</gpxtpx:hr></gpxtpx:TrackPointExtension></extensions></trkpt>
<trkpt lat="22.4661843" lon="114.2087817">
<ele>5</ele><time>2020-12-28T09:02:17.999Z</time><extensions><gpxtpx:TrackPointExtension><gpxtpx:hr>122</gpxtpx:hr></gpxtpx:TrackPointExtension></extensions></trkpt>
<trkpt lat="22.4662339" lon="114.2087817">
<ele>5</ele><time>2020-12-28T09:02:20.999Z</time><extensions><gpxtpx:TrackPointExtension><gpxtpx:hr>118</gpxtpx:hr></gpxtpx:TrackPointExtension></extensions></trkpt>
<trkpt lat="22.4662835" lon="114.2088032">
<ele>5</ele><time>2020-12-28T09:02:23.999Z</time><extensions><gpxtpx:TrackPointExtension><gpxtpx:hr>118</gpxtpx:hr></gpxtpx:TrackPointExtension></extensions></trkpt>
<trkpt lat="22.4663331" lon="114.2088032">
<ele>5</ele><time>2020-12-28T09:02:25.999Z</time><extensions><gpxtpx:TrackPointExtension><gpxtpx:hr>116</gpxtpx:hr></gpxtpx:TrackPointExtension></extensions></trkpt>
<trkpt lat="22.4663926" lon="114.2088032">
<ele>5</ele><time>2020-12-28T09:02:28.999Z</time><extensions><gpxtpx:TrackPointExtension><gpxtpx:hr>116</gpxtpx:hr></gpxtpx:TrackPointExtension></extensions></trkpt>
<trkpt lat="22.4664421" lon="114.2088246">
<ele>5</ele><time>2020-12-28T09:02:31.999Z</time><extensions><gpxtpx:TrackPointExtension><gpxtpx:hr>116</gpxtpx:hr></gpxtpx:TrackPointExtension></extensions></trkpt>
<trkpt lat="22.4665016" lon="114.2088246">
<ele>5</ele><time>2020-12-28T09:02:34.999Z</time><extensions><gpxtpx:TrackPointExtension><gpxtpx:hr>116</gpxtpx:hr></gpxtpx:TrackPointExtension></extensions></trkpt>
<trkpt lat="22.4665611" lon="114.2088246">
<ele>5</ele><time>2020-12-28T09:02:38.999Z</time><extensions><gpxtpx:TrackPointExtension><gpxtpx:hr>116</gpxtpx:hr></gpxtpx:TrackPointExtension></extensions></trkpt>
<trkpt lat="22.4666107" lon="114.2088246">
<ele>5</ele><time>2020-12-28T09:02:42.999Z</time><extensions><gpxtpx:TrackPointExtension><gpxtpx:hr>116</gpxtpx:hr></gpxtpx:TrackPointExtension></extensions></trkpt>
<trkpt lat="22.4666702" lon="114.2088246">
<ele>5</ele><time>2020-12-28T09:02:45.999Z</time><extensions><gpxtpx:TrackPointExtension><gpxtpx:hr>116</gpxtpx:hr></gpxtpx:TrackPointExtension></extensions></trkpt>
<trkpt lat="22.4667296" lon="114.2088461">
<ele>5</ele><time>2020-12-28T09:02:48.999Z</time><extensions><gpxtpx:TrackPointExtension><gpxtpx:hr>116</gpxtpx:hr></gpxtpx:TrackPointExtension></extensions></trkpt>
<trkpt lat="22.4667792" lon="114.2088461">
<ele>5</ele><time>2020-12-28T09:02:50.999Z</time><extensions><gpxtpx:TrackPointExtension><gpxtpx:hr>116</gpxtpx:hr></gpxtpx:TrackPointExtension></extensions></trkpt>
<trkpt lat="22.4668288" lon="114.2088461">
<ele>5</ele><time>2020-12-28T09:02:52.999Z</time><extensions><gpxtpx:TrackPointExtension><gpxtpx:hr>116</gpxtpx:hr></gpxtpx:TrackPointExtension></extensions></trkpt>
<trkpt lat="22.4668685" lon="114.2088675">
<ele>5</ele><time>2020-12-28T09:02:54.999Z</time><extensions><gpxtpx:TrackPointExtension><gpxtpx:hr>116</gpxtpx:hr></gpxtpx:TrackPointExtension></extensions></trkpt>
<trkpt lat="22.4669279" lon="114.2088675">
<ele>5</ele><time>2020-12-28T09:02:57.999Z</time><extensions><gpxtpx:TrackPointExtension><gpxtpx:hr>117</gpxtpx:hr></gpxtpx:TrackPointExtension></extensions></trkpt>
<trkpt lat="22.4669874" lon="114.2088675">
<ele>5</ele><time>2020-12-28T09:03:00.999Z</time><extensions><gpxtpx:TrackPointExtension><gpxtpx:hr>116</gpxtpx:hr></gpxtpx:TrackPointExtension></extensions></trkpt>
<trkpt lat="22.4670271" lon="114.2088890">
<ele>5</ele><time>2020-12-28T09:03:02.999Z</time><extensions><gpxtpx:TrackPointExtension><gpxtpx:hr>116</gpxtpx:hr></gpxtpx:TrackPointExtension></extensions></trkpt>
<trkpt lat="22.4670866" lon="114.2089105">
<ele>5</ele><time>2020-12-28T09:03:06.999Z</time><extensions><gpxtpx:TrackPointExtension><gpxtpx:hr>115</gpxtpx:hr></gpxtpx:TrackPointExtension></extensions></trkpt>
<trkpt lat="22.4671461" lon="114.2089105">
<ele>5</ele><time>2020-12-28T09:03:09.999Z</time><extensions><gpxtpx:TrackPointExtension><gpxtpx:hr>115</gpxtpx:hr></gpxtpx:TrackPointExtension></extensions></trkpt>
<trkpt lat="22.4672055" lon="114.2089105">
<ele>6</ele><time>2020-12-28T09:03:12.999Z</time><extensions><gpxtpx:TrackPointExtension><gpxtpx:hr>116</gpxtpx:hr></gpxtpx:TrackPointExtension></extensions></trkpt>
<trkpt lat="22.4672650" lon="114.2089105">
<ele>6</ele><time>2020-12-28T09:03:15.999Z</time><extensions><gpxtpx:TrackPointExtension><gpxtpx:hr>116</gpxtpx:hr></gpxtpx:TrackPointExtension></extensions></trkpt>
<trkpt lat="22.4673146" lon="114.2089105">
<ele>6</ele><time>2020-12-28T09:03:18.999Z</time><extensions><gpxtpx:TrackPointExtension><gpxtpx:hr>116</gpxtpx:hr></gpxtpx:TrackPointExtension></extensions></trkpt>
<trkpt lat="22.4673741" lon="114.2089105">
<ele>6</ele><time>2020-12-28T09:03:21.999Z</time><extensions><gpxtpx:TrackPointExtension><gpxtpx:hr>116</gpxtpx:hr></gpxtpx:TrackPointExtension></extensions></trkpt>
<trkpt lat="22.4674336" lon="114.2089319">
<ele>6</ele><time>2020-12-28T09:03:24.999Z</time><extensions><gpxtpx:TrackPointExtension><gpxtpx:hr>116</gpxtpx:hr></gpxtpx:TrackPointExtension></extensions></trkpt>
<trkpt lat="22.4675030" lon="114.2089319">
<ele>6</ele><time>2020-12-28T09:03:27.998Z</time><extensions><gpxtpx:TrackPointExtension><gpxtpx:hr>117</gpxtpx:hr></gpxtpx:TrackPointExtension></extensions></trkpt>
<trkpt lat="22.4675625" lon="114.2089319">
<ele>6</ele><time>2020-12-28T09:03:29.998Z</time><extensions><gpxtpx:TrackPointExtension><gpxtpx:hr>117</gpxtpx:hr></gpxtpx:TrackPointExtension></extensions></trkpt>
<trkpt lat="22.4676120" lon="114.2089319">
<ele>6</ele><time>2020-12-28T09:03:31.998Z</time><extensions><gpxtpx:TrackPointExtension><gpxtpx:hr>117</gpxtpx:hr></gpxtpx:TrackPointExtension></extensions></trkpt>
<trkpt lat="22.4676814" lon="114.2089319">
<ele>6</ele><time>2020-12-28T09:03:34.998Z</time><extensions><gpxtpx:TrackPointExtension><gpxtpx:hr>117</gpxtpx:hr></gpxtpx:TrackPointExtension></extensions></trkpt>
<trkpt lat="22.4677310" lon="114.2089319">
<ele>6</ele><time>2020-12-28T09:03:36.998Z</time><extensions><gpxtpx:TrackPointExtension><gpxtpx:hr>117</gpxtpx:hr></gpxtpx:TrackPointExtension></extensions></trkpt>
<trkpt lat="22.4677905" lon="114.2089319">
<ele>6</ele><time>2020-12-28T09:03:39.998Z</time><extensions><gpxtpx:TrackPointExtension><gpxtpx:hr>117</gpxtpx:hr></gpxtpx:TrackPointExtension></extensions></trkpt>
<trkpt lat="22.4678401" lon="114.2089319">
<ele>6</ele><time>2020-12-28T09:03:41.998Z</time><extensions><gpxtpx:TrackPointExtension><gpxtpx:hr>117</gpxtpx:hr></gpxtpx:TrackPointExtension></extensions></trkpt>
<trkpt lat="22.4678896" lon="114.2089534">
<ele>5</ele><time>2020-12-28T09:03:44.998Z</time><extensions><gpxtpx:TrackPointExtension><gpxtpx:hr>117</gpxtpx:hr></gpxtpx:TrackPointExtension></extensions></trkpt>
<trkpt lat="22.4679392" lon="114.2089534">
<ele>5</ele><time>2020-12-28T09:03:48.998Z</time><extensions><gpxtpx:TrackPointExtension><gpxtpx:hr>117</gpxtpx:hr></gpxtpx:TrackPointExtension></extensions></trkpt>
<trkpt lat="22.4679789" lon="114.2089319">
<ele>5</ele><time>2020-12-28T09:03:51.998Z</time><extensions><gpxtpx:TrackPointExtension><gpxtpx:hr>117</gpxtpx:hr></gpxtpx:TrackPointExtension></extensions></trkpt>
<trkpt lat="22.4680284" lon="114.2089319">
<ele>5</ele><time>2020-12-28T09:03:55.998Z</time><extensions><gpxtpx:TrackPointExtension><gpxtpx:hr>117</gpxtpx:hr></gpxtpx:TrackPointExtension></extensions></trkpt>
<trkpt lat="22.4680780" lon="114.2089319">
<ele>5</ele><time>2020-12-28T09:03:59.998Z</time><extensions><gpxtpx:TrackPointExtension><gpxtpx:hr>117</gpxtpx:hr></gpxtpx:TrackPointExtension></extensions></trkpt>
<trkpt lat="22.4681375" lon="114.2089319">
<ele>5</ele><time>2020-12-28T09:04:02.998Z</time><extensions><gpxtpx:TrackPointExtension><gpxtpx:hr>117</gpxtpx:hr></gpxtpx:TrackPointExtension></extensions></trkpt>
<trkpt lat="22.4681871" lon="114.2089534">
<ele>5</ele><time>2020-12-28T09:04:09.999Z</time><extensions><gpxtpx:TrackPointExtension><gpxtpx:hr>117</gpxtpx:hr></gpxtpx:TrackPointExtension></extensions></trkpt>
<trkpt lat="22.4682267" lon="114.2089748">
<ele>5</ele><time>2020-12-28T09:04:14.999Z</time><extensions><gpxtpx:TrackPointExtension><gpxtpx:hr>117</gpxtpx:hr></gpxtpx:TrackPointExtension></extensions></trkpt>
<trkpt lat="22.4682763" lon="114.2089963">
<ele>5</ele><time>2020-12-28T09:04:17.999Z</time><extensions><gpxtpx:TrackPointExtension><gpxtpx:hr>117</gpxtpx:hr></gpxtpx:TrackPointExtension></extensions></trkpt>
<trkpt lat="22.4683259" lon="114.2089963">
<ele>5</ele><time>2020-12-28T09:04:20.999Z</time><extensions><gpxtpx:TrackPointExtension><gpxtpx:hr>117</gpxtpx:hr></gpxtpx:TrackPointExtension></extensions></trkpt>
<trkpt lat="22.4683754" lon="114.2089963">
<ele>5</ele><time>2020-12-28T09:04:23.999Z</time><extensions><gpxtpx:TrackPointExtension><gpxtpx:hr>117</gpxtpx:hr></gpxtpx:TrackPointExtension></extensions></trkpt>
<trkpt lat="22.4684250" lon="114.2090178">
<ele>6</ele><time>2020-12-28T09:04:26.999Z</time><extensions><gpxtpx:TrackPointExtension><gpxtpx:hr>117</gpxtpx:hr></gpxtpx:TrackPointExtension></extensions></trkpt>
<trkpt lat="22.4684845" lon="114.2090392">
<ele>6</ele><time>2020-12-28T09:04:29.999Z</time><extensions><gpxtpx:TrackPointExtension><gpxtpx:hr>117</gpxtpx:hr></gpxtpx:TrackPointExtension></extensions></trkpt>
<trkpt lat="22.4685341" lon="114.2090392">
<ele>6</ele><time>2020-12-28T09:04:32.999Z</time><extensions><gpxtpx:TrackPointExtension><gpxtpx:hr>117</gpxtpx:hr></gpxtpx:TrackPointExtension></extensions></trkpt>
<trkpt lat="22.4685737" lon="114.2090607">
<ele>6</ele><time>2020-12-28T09:04:35.999Z</time><extensions><gpxtpx:TrackPointExtension><gpxtpx:hr>117</gpxtpx:hr></gpxtpx:TrackPointExtension></extensions></trkpt>
<trkpt lat="22.4686332" lon="114.2090821">
<ele>6</ele><time>2020-12-28T09:04:38.999Z</time><extensions><gpxtpx:TrackPointExtension><gpxtpx:hr>117</gpxtpx:hr></gpxtpx:TrackPointExtension></extensions></trkpt>
<trkpt lat="22.4686927" lon="114.2091036">
<ele>6</ele><time>2020-12-28T09:04:40.999Z</time><extensions><gpxtpx:TrackPointExtension><gpxtpx:hr>117</gpxtpx:hr></gpxtpx:TrackPointExtension></extensions></trkpt>
<trkpt lat="22.4687522" lon="114.2091250">
<ele>6</ele><time>2020-12-28T09:04:42.999Z</time><extensions><gpxtpx:TrackPointExtension><gpxtpx:hr>117</gpxtpx:hr></gpxtpx:TrackPointExtension></extensions></trkpt>
<trkpt lat="22.4688117" lon="114.2091465">
<ele>6</ele><time>2020-12-28T09:04:45.999Z</time><extensions><gpxtpx:TrackPointExtension><gpxtpx:hr>117</gpxtpx:hr></gpxtpx:TrackPointExtension></extensions></trkpt>
<trkpt lat="22.4688613" lon="114.2091680">
<ele>6</ele><time>2020-12-28T09:04:49.999Z</time><extensions><gpxtpx:TrackPointExtension><gpxtpx:hr>117</gpxtpx:hr></gpxtpx:TrackPointExtension></extensions></trkpt>
<trkpt lat="22.4689108" lon="114.2091680">
<ele>6</ele><time>2020-12-28T09:04:54.999Z</time><extensions><gpxtpx:TrackPointExtension><gpxtpx:hr>117</gpxtpx:hr></gpxtpx:TrackPointExtension></extensions></trkpt>
<trkpt lat="22.4689406" lon="114.2092109">
<ele>6</ele><time>2020-12-28T09:04:56.999Z</time><extensions><gpxtpx:TrackPointExtension><gpxtpx:hr>117</gpxtpx:hr></gpxtpx:TrackPointExtension></extensions></trkpt>
<trkpt lat="22.4689703" lon="114.2092538">
<ele>6</ele><time>2020-12-28T09:04:58.999Z</time><extensions><gpxtpx:TrackPointExtension><gpxtpx:hr>117</gpxtpx:hr></gpxtpx:TrackPointExtension></extensions></trkpt>
<trkpt lat="22.4690199" lon="114.2092752">
<ele>6</ele><time>2020-12-28T09:05:01.999Z</time><extensions><gpxtpx:TrackPointExtension><gpxtpx:hr>117</gpxtpx:hr></gpxtpx:TrackPointExtension></extensions></trkpt>
<trkpt lat="22.4690595" lon="114.2093182">
<ele>6</ele><time>2020-12-28T09:05:03.999Z</time><extensions><gpxtpx:TrackPointExtension><gpxtpx:hr>117</gpxtpx:hr></gpxtpx:TrackPointExtension></extensions></trkpt>
<trkpt lat="22.4690992" lon="114.2093396">
<ele>6</ele><time>2020-12-28T09:05:05.999Z</time><extensions><gpxtpx:TrackPointExtension><gpxtpx:hr>117</gpxtpx:hr></gpxtpx:TrackPointExtension></extensions></trkpt>
<trkpt lat="22.4691587" lon="114.2093611">
<ele>6</ele><time>2020-12-28T09:05:08.999Z</time><extensions><gpxtpx:TrackPointExtension><gpxtpx:hr>117</gpxtpx:hr></gpxtpx:TrackPointExtension></extensions></trkpt>
<trkpt lat="22.4691983" lon="114.2093825">
<ele>6</ele><time>2020-12-28T09:05:10.999Z</time><extensions><gpxtpx:TrackPointExtension><gpxtpx:hr>117</gpxtpx:hr></gpxtpx:TrackPointExtension></extensions></trkpt>
<trkpt lat="22.4692380" lon="114.2094040">
<ele>6</ele><time>2020-12-28T09:05:12.999Z</time><extensions><gpxtpx:TrackPointExtension><gpxtpx:hr>117</gpxtpx:hr></gpxtpx:TrackPointExtension></extensions></trkpt>
<trkpt lat="22.4692876" lon="114.2094469">
<ele>6</ele><time>2020-12-28T09:05:14.999Z</time><extensions><gpxtpx:TrackPointExtension><gpxtpx:hr>117</gpxtpx:hr></gpxtpx:TrackPointExtension></extensions></trkpt>
<trkpt lat="22.4693371" lon="114.2094898">
<ele>6</ele><time>2020-12-28T09:05:18.999Z</time><extensions><gpxtpx:TrackPointExtension><gpxtpx:hr>117</gpxtpx:hr></gpxtpx:TrackPointExtension></extensions></trkpt>
<trkpt lat="22.4693867" lon="114.2095327">
<ele>6</ele><time>2020-12-28T09:05:21.999Z</time><extensions><gpxtpx:TrackPointExtension><gpxtpx:hr>117</gpxtpx:hr></gpxtpx:TrackPointExtension></extensions></trkpt>
<trkpt lat="22.4694264" lon="114.2095542">
<ele>6</ele><time>2020-12-28T09:05:24.999Z</time><extensions><gpxtpx:TrackPointExtension><gpxtpx:hr>117</gpxtpx:hr></gpxtpx:TrackPointExtension></extensions></trkpt>
<trkpt lat="22.4694561" lon="114.2095971">
<ele>6</ele><time>2020-12-28T09:05:33.999Z</time><extensions><gpxtpx:TrackPointExtension><gpxtpx:hr>117</gpxtpx:hr></gpxtpx:TrackPointExtension></extensions></trkpt>
<trkpt lat="22.4694958" lon="114.2096186">
<ele>6</ele><time>2020-12-28T09:05:35.999Z</time><extensions><gpxtpx:TrackPointExtension><gpxtpx:hr>116</gpxtpx:hr></gpxtpx:TrackPointExtension></extensions></trkpt>
<trkpt lat="22.4695553" lon="114.2096615">
<ele>6</ele><time>2020-12-28T09:05:38.998Z</time><extensions><gpxtpx:TrackPointExtension><gpxtpx:hr>116</gpxtpx:hr></gpxtpx:TrackPointExtension></extensions></trkpt>
<trkpt lat="22.4695949" lon="114.2097259">
<ele>6</ele><time>2020-12-28T09:05:40.998Z</time><extensions><gpxtpx:TrackPointExtension><gpxtpx:hr>116</gpxtpx:hr></gpxtpx:TrackPointExtension></extensions></trkpt>
<trkpt lat="22.4696346" lon="114.2097473">
<ele>6</ele><time>2020-12-28T09:05:42.998Z</time><extensions><gpxtpx:TrackPointExtension><gpxtpx:hr>116</gpxtpx:hr></gpxtpx:TrackPointExtension></extensions></trkpt>
<trkpt lat="22.4696742" lon="114.2097902">
<ele>6</ele><time>2020-12-28T09:05:44.998Z</time><extensions><gpxtpx:TrackPointExtension><gpxtpx:hr>117</gpxtpx:hr></gpxtpx:TrackPointExtension></extensions></trkpt>
<trkpt lat="22.4697040" lon="114.2098331">
<ele>6</ele><time>2020-12-28T09:05:46.998Z</time><extensions><gpxtpx:TrackPointExtension><gpxtpx:hr>117</gpxtpx:hr></gpxtpx:TrackPointExtension></extensions></trkpt>
<trkpt lat="22.4697535" lon="114.2098546">
<ele>6</ele><time>2020-12-28T09:05:48.998Z</time><extensions><gpxtpx:TrackPointExtension><gpxtpx:hr>117</gpxtpx:hr></gpxtpx:TrackPointExtension></extensions></trkpt>
<trkpt lat="22.4697932" lon="114.2098975">
<ele>6</ele><time>2020-12-28T09:05:51.998Z</time><extensions><gpxtpx:TrackPointExtension><gpxtpx:hr>125</gpxtpx:hr></gpxtpx:TrackPointExtension></extensions></trkpt>
<trkpt lat="22.4698329" lon="114.2099404">
<ele>6</ele><time>2020-12-28T09:05:53.998Z</time><extensions><gpxtpx:TrackPointExtension><gpxtpx:hr>125</gpxtpx:hr></gpxtpx:TrackPointExtension></extensions></trkpt>
<trkpt lat="22.4698725" lon="114.2099619">
<ele>6</ele><time>2020-12-28T09:05:55.998Z</time><extensions><gpxtpx:TrackPointExtension><gpxtpx:hr>125</gpxtpx:hr></gpxtpx:TrackPointExtension></extensions></trkpt>
<trkpt lat="22.4699023" lon="114.2100048">
<ele>6</ele><time>2020-12-28T09:05:57.998Z</time><extensions><gpxtpx:TrackPointExtension><gpxtpx:hr>125</gpxtpx:hr></gpxtpx:TrackPointExtension></extensions></trkpt>
<trkpt lat="22.4699320" lon="114.2100477">
<ele>6</ele><time>2020-12-28T09:05:59.998Z</time><extensions><gpxtpx:TrackPointExtension><gpxtpx:hr>125</gpxtpx:hr></gpxtpx:TrackPointExtension></extensions></trkpt>
<trkpt lat="22.4699617" lon="114.2100906">
<ele>6</ele><time>2020-12-28T09:06:01.998Z</time><extensions><gpxtpx:TrackPointExtension><gpxtpx:hr>122</gpxtpx:hr></gpxtpx:TrackPointExtension></extensions></trkpt>
<trkpt lat="22.4699915" lon="114.2101336">
<ele>6</ele><time>2020-12-28T09:06:03.998Z</time><extensions><gpxtpx:TrackPointExtension><gpxtpx:hr>122</gpxtpx:hr></gpxtpx:TrackPointExtension></extensions></trkpt>
<trkpt lat="22.4700510" lon="114.2101765">
<ele>6</ele><time>2020-12-28T09:06:06.998Z</time><extensions><gpxtpx:TrackPointExtension><gpxtpx:hr>122</gpxtpx:hr></gpxtpx:TrackPointExtension></extensions></trkpt>
<trkpt lat="22.4700906" lon="114.2102194">
<ele>5</ele><time>2020-12-28T09:06:08.998Z</time><extensions><gpxtpx:TrackPointExtension><gpxtpx:hr>122</gpxtpx:hr></gpxtpx:TrackPointExtension></extensions></trkpt>
<trkpt lat="22.4701204" lon="114.2102623">
<ele>5</ele><time>2020-12-28T09:06:10.999Z</time><extensions><gpxtpx:TrackPointExtension><gpxtpx:hr>122</gpxtpx:hr></gpxtpx:TrackPointExtension></extensions></trkpt>
<trkpt lat="22.4701699" lon="114.2103052">
<ele>5</ele><time>2020-12-28T09:06:13.999Z</time><extensions><gpxtpx:TrackPointExtension><gpxtpx:hr>122</gpxtpx:hr></gpxtpx:TrackPointExtension></extensions></trkpt>
<trkpt lat="22.4702195" lon="114.2103481">
<ele>5</ele><time>2020-12-28T09:06:16.999Z</time><extensions><gpxtpx:TrackPointExtension><gpxtpx:hr>122</gpxtpx:hr></gpxtpx:TrackPointExtension></extensions></trkpt>
<trkpt lat="22.4702493" lon="114.2103910">
<ele>5</ele><time>2020-12-28T09:06:19.999Z</time><extensions><gpxtpx:TrackPointExtension><gpxtpx:hr>122</gpxtpx:hr></gpxtpx:TrackPointExtension></extensions></trkpt>
<trkpt lat="22.4702889" lon="114.2104340">
<ele>5</ele><time>2020-12-28T09:06:22.999Z</time><extensions><gpxtpx:TrackPointExtension><gpxtpx:hr>122</gpxtpx:hr></gpxtpx:TrackPointExtension></extensions></trkpt>
<trkpt lat="22.4703385" lon="114.2104769">
<ele>5</ele><time>2020-12-28T09:06:25.999Z</time><extensions><gpxtpx:TrackPointExtension><gpxtpx:hr>121</gpxtpx:hr></gpxtpx:TrackPointExtension></extensions></trkpt>
<trkpt lat="22.4703781" lon="114.2105198">
<ele>5</ele><time>2020-12-28T09:06:27.999Z</time><extensions><gpxtpx:TrackPointExtension><gpxtpx:hr>121</gpxtpx:hr></gpxtpx:TrackPointExtension></extensions></trkpt>
<trkpt lat="22.4704178" lon="114.2105627">
<ele>5</ele><time>2020-12-28T09:06:30.999Z</time><extensions><gpxtpx:TrackPointExtension><gpxtpx:hr>121</gpxtpx:hr></gpxtpx:TrackPointExtension></extensions></trkpt>
<trkpt lat="22.4704575" lon="114.2106056">
<ele>5</ele><time>2020-12-28T09:06:33.999Z</time><extensions><gpxtpx:TrackPointExtension><gpxtpx:hr>121</gpxtpx:hr></gpxtpx:TrackPointExtension></extensions></trkpt>
<trkpt lat="22.4704971" lon="114.2106485">
<ele>5</ele><time>2020-12-28T09:06:35.999Z</time><extensions><gpxtpx:TrackPointExtension><gpxtpx:hr>122</gpxtpx:hr></gpxtpx:TrackPointExtension></extensions></trkpt>
<trkpt lat="22.4705467" lon="114.2106915">
<ele>5</ele><time>2020-12-28T09:06:39.999Z</time><extensions><gpxtpx:TrackPointExtension><gpxtpx:hr>122</gpxtpx:hr></gpxtpx:TrackPointExtension></extensions></trkpt>
<trkpt lat="22.4705863" lon="114.2107344">
<ele>6</ele><time>2020-12-28T09:06:42.999Z</time><extensions><gpxtpx:TrackPointExtension><gpxtpx:hr>123</gpxtpx:hr></gpxtpx:TrackPointExtension></extensions></trkpt>
<trkpt lat="22.4706260" lon="114.2107773">
<ele>6</ele><time>2020-12-28T09:06:45.999Z</time><extensions><gpxtpx:TrackPointExtension><gpxtpx:hr>124</gpxtpx:hr></gpxtpx:TrackPointExtension></extensions></trkpt>
<trkpt lat="22.4706855" lon="114.2108202">
<ele>6</ele><time>2020-12-28T09:06:49.999Z</time><extensions><gpxtpx:TrackPointExtension><gpxtpx:hr>124</gpxtpx:hr></gpxtpx:TrackPointExtension></extensions></trkpt>
<trkpt lat="22.4707152" lon="114.2108631">
<ele>6</ele><time>2020-12-28T09:06:51.999Z</time><extensions><gpxtpx:TrackPointExtension><gpxtpx:hr>125</gpxtpx:hr></gpxtpx:TrackPointExtension></extensions></trkpt>
<trkpt lat="22.4707648" lon="114.2109060">
<ele>6</ele><time>2020-12-28T09:06:54.999Z</time><extensions><gpxtpx:TrackPointExtension><gpxtpx:hr>125</gpxtpx:hr></gpxtpx:TrackPointExtension></extensions></trkpt>
<trkpt lat="22.4708045" lon="114.2109489">
<ele>6</ele><time>2020-12-28T09:06:57.999Z</time><extensions><gpxtpx:TrackPointExtension><gpxtpx:hr>125</gpxtpx:hr></gpxtpx:TrackPointExtension></extensions></trkpt>
<trkpt lat="22.4708342" lon="114.2109919">
<ele>6</ele><time>2020-12-28T09:07:00.999Z</time><extensions><gpxtpx:TrackPointExtension><gpxtpx:hr>123</gpxtpx:hr></gpxtpx:TrackPointExtension></extensions></trkpt>
<trkpt lat="22.4708739" lon="114.2110133">
<ele>6</ele><time>2020-12-28T09:07:02.999Z</time><extensions><gpxtpx:TrackPointExtension><gpxtpx:hr>123</gpxtpx:hr></gpxtpx:TrackPointExtension></extensions></trkpt>
<trkpt lat="22.4709036" lon="114.2110562">
<ele>6</ele><time>2020-12-28T09:07:04.999Z</time><extensions><gpxtpx:TrackPointExtension><gpxtpx:hr>123</gpxtpx:hr></gpxtpx:TrackPointExtension></extensions></trkpt>
<trkpt lat="22.4709433" lon="114.2110991">
<ele>6</ele><time>2020-12-28T09:07:07.999Z</time><extensions><gpxtpx:TrackPointExtension><gpxtpx:hr>123</gpxtpx:hr></gpxtpx:TrackPointExtension></extensions></trkpt>
<trkpt lat="22.4709829" lon="114.2111206">
<ele>6</ele><time>2020-12-28T09:07:10.999Z</time><extensions><gpxtpx:TrackPointExtension><gpxtpx:hr>123</gpxtpx:hr></gpxtpx:TrackPointExtension></extensions></trkpt>
<trkpt lat="22.4710226" lon="114.2111635">
<ele>6</ele><time>2020-12-28T09:07:13.999Z</time><extensions><gpxtpx:TrackPointExtension><gpxtpx:hr>123</gpxtpx:hr></gpxtpx:TrackPointExtension></extensions></trkpt>
<trkpt lat="22.4710523" lon="114.2112064">
<ele>6</ele><time>2020-12-28T09:07:15.999Z</time><extensions><gpxtpx:TrackPointExtension><gpxtpx:hr>124</gpxtpx:hr></gpxtpx:TrackPointExtension></extensions></trkpt>
<trkpt lat="22.4711019" lon="114.2112494">
<ele>6</ele><time>2020-12-28T09:07:18.999Z</time><extensions><gpxtpx:TrackPointExtension><gpxtpx:hr>124</gpxtpx:hr></gpxtpx:TrackPointExtension></extensions></trkpt>
<trkpt lat="22.4711415" lon="114.2112923">
<ele>6</ele><time>2020-12-28T09:07:21.999Z</time><extensions><gpxtpx:TrackPointExtension><gpxtpx:hr>123</gpxtpx:hr></gpxtpx:TrackPointExtension></extensions></trkpt>
<trkpt lat="22.4711911" lon="114.2113352">
<ele>6</ele><time>2020-12-28T09:07:24.999Z</time><extensions><gpxtpx:TrackPointExtension><gpxtpx:hr>123</gpxtpx:hr></gpxtpx:TrackPointExtension></extensions></trkpt>
<trkpt lat="22.4712209" lon="114.2113781">
<ele>6</ele><time>2020-12-28T09:07:27.999Z</time><extensions><gpxtpx:TrackPointExtension><gpxtpx:hr>123</gpxtpx:hr></gpxtpx:TrackPointExtension></extensions></trkpt>
<trkpt lat="22.4712605" lon="114.2114210">
<ele>6</ele><time>2020-12-28T09:07:30.999Z</time><extensions><gpxtpx:TrackPointExtension><gpxtpx:hr>123</gpxtpx:hr></gpxtpx:TrackPointExtension></extensions></trkpt>
<trkpt lat="22.4713002" lon="114.2114425">
<ele>6</ele><time>2020-12-28T09:07:33.999Z</time><extensions><gpxtpx:TrackPointExtension><gpxtpx:hr>123</gpxtpx:hr></gpxtpx:TrackPointExtension></extensions></trkpt>
<trkpt lat="22.4713299" lon="114.2114854">
<ele>6</ele><time>2020-12-28T09:07:36.999Z</time><extensions><gpxtpx:TrackPointExtension><gpxtpx:hr>123</gpxtpx:hr></gpxtpx:TrackPointExtension></extensions></trkpt>
<trkpt lat="22.4713894" lon="114.2115498">
<ele>6</ele><time>2020-12-28T09:07:40.998Z</time><extensions><gpxtpx:TrackPointExtension><gpxtpx:hr>123</gpxtpx:hr></gpxtpx:TrackPointExtension></extensions></trkpt>
<trkpt lat="22.4714291" lon="114.2115927">
<ele>6</ele><time>2020-12-28T09:07:43.998Z</time><extensions><gpxtpx:TrackPointExtension><gpxtpx:hr>123</gpxtpx:hr></gpxtpx:TrackPointExtension></extensions></trkpt>
<trkpt lat="22.4714687" lon="114.2116356">
<ele>6</ele><time>2020-12-28T09:07:44.998Z</time><extensions><gpxtpx:TrackPointExtension><gpxtpx:hr>123</gpxtpx:hr></gpxtpx:TrackPointExtension></extensions></trkpt>
<trkpt lat="22.4715282" lon="114.2116785">
<ele>7</ele><time>2020-12-28T09:07:50.998Z</time><extensions><gpxtpx:TrackPointExtension><gpxtpx:hr>123</gpxtpx:hr></gpxtpx:TrackPointExtension></extensions></trkpt>
<trkpt lat="22.4715579" lon="114.2117214">
<ele>7</ele><time>2020-12-28T09:07:52.998Z</time><extensions><gpxtpx:TrackPointExtension><gpxtpx:hr>123</gpxtpx:hr></gpxtpx:TrackPointExtension></extensions></trkpt>
<trkpt lat="22.4715976" lon="114.2117643">
<ele>7</ele><time>2020-12-28T09:07:55.998Z</time><extensions><gpxtpx:TrackPointExtension><gpxtpx:hr>123</gpxtpx:hr></gpxtpx:TrackPointExtension></extensions></trkpt>
<trkpt lat="22.4716472" lon="114.2118073">
<ele>7</ele><time>2020-12-28T09:07:58.998Z</time><extensions><gpxtpx:TrackPointExtension><gpxtpx:hr>123</gpxtpx:hr></gpxtpx:TrackPointExtension></extensions></trkpt>
<trkpt lat="22.4716868" lon="114.2118287">
<ele>7</ele><time>2020-12-28T09:08:01.998Z</time><extensions><gpxtpx:TrackPointExtension><gpxtpx:hr>123</gpxtpx:hr></gpxtpx:TrackPointExtension></extensions></trkpt>
<trkpt lat="22.4717166" lon="114.2118716">
<ele>7</ele><time>2020-12-28T09:08:04.998Z</time><extensions><gpxtpx:TrackPointExtension><gpxtpx:hr>123</gpxtpx:hr></gpxtpx:TrackPointExtension></extensions></trkpt>
<trkpt lat="22.4717562" lon="114.2118931">
<ele>7</ele><time>2020-12-28T09:08:07.998Z</time><extensions><gpxtpx:TrackPointExtension><gpxtpx:hr>123</gpxtpx:hr></gpxtpx:TrackPointExtension></extensions></trkpt>
<trkpt lat="22.4717959" lon="114.2119360">
<ele>7</ele><time>2020-12-28T09:08:10.998Z</time><extensions><gpxtpx:TrackPointExtension><gpxtpx:hr>123</gpxtpx:hr></gpxtpx:TrackPointExtension></extensions></trkpt>
<trkpt lat="22.4718355" lon="114.2119789">
<ele>7</ele><time>2020-12-28T09:08:13.998Z</time><extensions><gpxtpx:TrackPointExtension><gpxtpx:hr>123</gpxtpx:hr></gpxtpx:TrackPointExtension></extensions></trkpt>
<trkpt lat="22.4718752" lon="114.2120218">
<ele>7</ele><time>2020-12-28T09:08:16.999Z</time><extensions><gpxtpx:TrackPointExtension><gpxtpx:hr>123</gpxtpx:hr></gpxtpx:TrackPointExtension></extensions></trkpt>
<trkpt lat="22.4719347" lon="114.2120647">
<ele>7</ele><time>2020-12-28T09:08:19.999Z</time><extensions><gpxtpx:TrackPointExtension><gpxtpx:hr>123</gpxtpx:hr></gpxtpx:TrackPointExtension></extensions></trkpt>
<trkpt lat="22.4719644" lon="114.2121077">
<ele>7</ele><time>2020-12-28T09:08:21.999Z</time><extensions><gpxtpx:TrackPointExtension><gpxtpx:hr>123</gpxtpx:hr></gpxtpx:TrackPointExtension></extensions></trkpt>
<trkpt lat="22.4720041" lon="114.2121291">
<ele>7</ele><time>2020-12-28T09:08:23.999Z</time><extensions><gpxtpx:TrackPointExtension><gpxtpx:hr>123</gpxtpx:hr></gpxtpx:TrackPointExtension></extensions></trkpt>
<trkpt lat="22.4720437" lon="114.2121506">
<ele>7</ele><time>2020-12-28T09:08:25.999Z</time><extensions><gpxtpx:TrackPointExtension><gpxtpx:hr>123</gpxtpx:hr></gpxtpx:TrackPointExtension></extensions></trkpt>
<trkpt lat="22.4720735" lon="114.2121935">
<ele>7</ele><time>2020-12-28T09:08:27.999Z</time><extensions><gpxtpx:TrackPointExtension><gpxtpx:hr>123</gpxtpx:hr></gpxtpx:TrackPointExtension></extensions></trkpt>
<trkpt lat="22.4721131" lon="114.2122364">
<ele>7</ele><time>2020-12-28T09:08:29.999Z</time><extensions><gpxtpx:TrackPointExtension><gpxtpx:hr>123</gpxtpx:hr></gpxtpx:TrackPointExtension></extensions></trkpt>
<trkpt lat="22.4721627" lon="114.2122793">
<ele>7</ele><time>2020-12-28T09:08:32.999Z</time><extensions><gpxtpx:TrackPointExtension><gpxtpx:hr>123</gpxtpx:hr></gpxtpx:TrackPointExtension></extensions></trkpt>
<trkpt lat="22.4722024" lon="114.2123222">
<ele>7</ele><time>2020-12-28T09:08:35.999Z</time><extensions><gpxtpx:TrackPointExtension><gpxtpx:hr>123</gpxtpx:hr></gpxtpx:TrackPointExtension></extensions></trkpt>
<trkpt lat="22.4722618" lon="114.2123652">
<ele>7</ele><time>2020-12-28T09:08:38.999Z</time><extensions><gpxtpx:TrackPointExtension><gpxtpx:hr>123</gpxtpx:hr></gpxtpx:TrackPointExtension></extensions></trkpt>
<trkpt lat="22.4723114" lon="114.2124081">
<ele>6</ele><time>2020-12-28T09:08:41.999Z</time><extensions><gpxtpx:TrackPointExtension><gpxtpx:hr>123</gpxtpx:hr></gpxtpx:TrackPointExtension></extensions></trkpt>
<trkpt lat="22.4723511" lon="114.2124510">
<ele>6</ele><time>2020-12-28T09:08:43.999Z</time><extensions><gpxtpx:TrackPointExtension><gpxtpx:hr>123</gpxtpx:hr></gpxtpx:TrackPointExtension></extensions></trkpt>
<trkpt lat="22.4724006" lon="114.2124724">
<ele>6</ele><time>2020-12-28T09:08:45.999Z</time><extensions><gpxtpx:TrackPointExtension><gpxtpx:hr>123</gpxtpx:hr></gpxtpx:TrackPointExtension></extensions></trkpt>
<trkpt lat="22.4724502" lon="114.2124939">
<ele>6</ele><time>2020-12-28T09:08:47.999Z</time><extensions><gpxtpx:TrackPointExtension><gpxtpx:hr>123</gpxtpx:hr></gpxtpx:TrackPointExtension></extensions></trkpt>
<trkpt lat="22.4725097" lon="114.2125154">
<ele>6</ele><time>2020-12-28T09:08:49.999Z</time><extensions><gpxtpx:TrackPointExtension><gpxtpx:hr>123</gpxtpx:hr></gpxtpx:TrackPointExtension></extensions></trkpt>
<trkpt lat="22.4725593" lon="114.2125368">
<ele>6</ele><time>2020-12-28T09:08:51.999Z</time><extensions><gpxtpx:TrackPointExtension><gpxtpx:hr>123</gpxtpx:hr></gpxtpx:TrackPointExtension></extensions></trkpt>
<trkpt lat="22.4726188" lon="114.2125797">
<ele>5</ele><time>2020-12-28T09:08:53.999Z</time><extensions><gpxtpx:TrackPointExtension><gpxtpx:hr>123</gpxtpx:hr></gpxtpx:TrackPointExtension></extensions></trkpt>
<trkpt lat="22.4726584" lon="114.2126226">
<ele>5</ele><time>2020-12-28T09:08:55.999Z</time><extensions><gpxtpx:TrackPointExtension><gpxtpx:hr>123</gpxtpx:hr></gpxtpx:TrackPointExtension></extensions></trkpt>
<trkpt lat="22.4726981" lon="114.2126441">
<ele>5</ele><time>2020-12-28T09:08:57.999Z</time><extensions><gpxtpx:TrackPointExtension><gpxtpx:hr>123</gpxtpx:hr></gpxtpx:TrackPointExtension></extensions></trkpt>
<trkpt lat="22.4727576" lon="114.2126870">
<ele>5</ele><time>2020-12-28T09:09:00.999Z</time><extensions><gpxtpx:TrackPointExtension><gpxtpx:hr>123</gpxtpx:hr></gpxtpx:TrackPointExtension></extensions></trkpt>
<trkpt lat="22.4727972" lon="114.2127085">
<ele>5</ele><time>2020-12-28T09:09:02.999Z</time><extensions><gpxtpx:TrackPointExtension><gpxtpx:hr>123</gpxtpx:hr></gpxtpx:TrackPointExtension></extensions></trkpt>
<trkpt lat="22.4728369" lon="114.2127299">
<ele>5</ele><time>2020-12-28T09:09:04.999Z</time><extensions><gpxtpx:TrackPointExtension><gpxtpx:hr>123</gpxtpx:hr></gpxtpx:TrackPointExtension></extensions></trkpt>
<trkpt lat="22.4728963" lon="114.2127514">
<ele>5</ele><time>2020-12-28T09:09:07.999Z</time><extensions><gpxtpx:TrackPointExtension><gpxtpx:hr>123</gpxtpx:hr></gpxtpx:TrackPointExtension></extensions></trkpt>
<trkpt lat="22.4729360" lon="114.2127728">
<ele>5</ele><time>2020-12-28T09:09:09.999Z</time><extensions><gpxtpx:TrackPointExtension><gpxtpx:hr>123</gpxtpx:hr></gpxtpx:TrackPointExtension></extensions></trkpt>
<trkpt lat="22.4729856" lon="114.2127943">
<ele>5</ele><time>2020-12-28T09:09:11.999Z</time><extensions><gpxtpx:TrackPointExtension><gpxtpx:hr>123</gpxtpx:hr></gpxtpx:TrackPointExtension></extensions></trkpt>
<trkpt lat="22.4730451" lon="114.2128372">
<ele>5</ele><time>2020-12-28T09:09:14.999Z</time><extensions><gpxtpx:TrackPointExtension><gpxtpx:hr>123</gpxtpx:hr></gpxtpx:TrackPointExtension></extensions></trkpt>
<trkpt lat="22.4730946" lon="114.2128587">
<ele>5</ele><time>2020-12-28T09:09:17.999Z</time><extensions><gpxtpx:TrackPointExtension><gpxtpx:hr>122</gpxtpx:hr></gpxtpx:TrackPointExtension></extensions></trkpt>
<trkpt lat="22.4731343" lon="114.2128801">
<ele>5</ele><time>2020-12-28T09:09:19.999Z</time><extensions><gpxtpx:TrackPointExtension><gpxtpx:hr>122</gpxtpx:hr></gpxtpx:TrackPointExtension></extensions></trkpt>
<trkpt lat="22.4731839" lon="114.2129230">
<ele>5</ele><time>2020-12-28T09:09:22.999Z</time><extensions><gpxtpx:TrackPointExtension><gpxtpx:hr>121</gpxtpx:hr></gpxtpx:TrackPointExtension></extensions></trkpt>
<trkpt lat="22.4732433" lon="114.2129445">
<ele>5</ele><time>2020-12-28T09:09:25.999Z</time><extensions><gpxtpx:TrackPointExtension><gpxtpx:hr>121</gpxtpx:hr></gpxtpx:TrackPointExtension></extensions></trkpt>
<trkpt lat="22.4732830" lon="114.2129660">
<ele>5</ele><time>2020-12-28T09:09:27.999Z</time><extensions><gpxtpx:TrackPointExtension><gpxtpx:hr>121</gpxtpx:hr></gpxtpx:TrackPointExtension></extensions></trkpt>
<trkpt lat="22.4733326" lon="114.2129874">
<ele>5</ele><time>2020-12-28T09:09:30.999Z</time><extensions><gpxtpx:TrackPointExtension><gpxtpx:hr>121</gpxtpx:hr></gpxtpx:TrackPointExtension></extensions></trkpt>
<trkpt lat="22.4733623" lon="114.2130303">
<ele>6</ele><time>2020-12-28T09:09:32.999Z</time><extensions><gpxtpx:TrackPointExtension><gpxtpx:hr>121</gpxtpx:hr></gpxtpx:TrackPointExtension></extensions></trkpt>
<trkpt lat="22.4734119" lon="114.2130518">
<ele>6</ele><time>2020-12-28T09:09:35.998Z</time><extensions><gpxtpx:TrackPointExtension><gpxtpx:hr>121</gpxtpx:hr></gpxtpx:TrackPointExtension></extensions></trkpt>
<trkpt lat="22.4734416" lon="114.2130947">
<ele>6</ele><time>2020-12-28T09:09:38.998Z</time><extensions><gpxtpx:TrackPointExtension><gpxtpx:hr>121</gpxtpx:hr></gpxtpx:TrackPointExtension></extensions></trkpt>
<trkpt lat="22.4734714" lon="114.2131376">
<ele>6</ele><time>2020-12-28T09:09:40.998Z</time><extensions><gpxtpx:TrackPointExtension><gpxtpx:hr>121</gpxtpx:hr></gpxtpx:TrackPointExtension></extensions></trkpt>
<trkpt lat="22.4735011" lon="114.2131805">
<ele>6</ele><time>2020-12-28T09:09:42.998Z</time><extensions><gpxtpx:TrackPointExtension><gpxtpx:hr>121</gpxtpx:hr></gpxtpx:TrackPointExtension></extensions></trkpt>
<trkpt lat="22.4735309" lon="114.2132235">
<ele>6</ele><time>2020-12-28T09:09:45.998Z</time><extensions><gpxtpx:TrackPointExtension><gpxtpx:hr>121</gpxtpx:hr></gpxtpx:TrackPointExtension></extensions></trkpt>
<trkpt lat="22.4735804" lon="114.2132664">
<ele>5</ele><time>2020-12-28T09:09:48.998Z</time><extensions><gpxtpx:TrackPointExtension><gpxtpx:hr>121</gpxtpx:hr></gpxtpx:TrackPointExtension></extensions></trkpt>
<trkpt lat="22.4736300" lon="114.2133093">
<ele>5</ele><time>2020-12-28T09:09:50.998Z</time><extensions><gpxtpx:TrackPointExtension><gpxtpx:hr>121</gpxtpx:hr></gpxtpx:TrackPointExtension></extensions></trkpt>
<trkpt lat="22.4736498" lon="114.2133737">
<ele>5</ele><time>2020-12-28T09:09:52.998Z</time><extensions><gpxtpx:TrackPointExtension><gpxtpx:hr>121</gpxtpx:hr></gpxtpx:TrackPointExtension></extensions></trkpt>
<trkpt lat="22.4736994" lon="114.2134380">
<ele>5</ele><time>2020-12-28T09:09:55.998Z</time><extensions><gpxtpx:TrackPointExtension><gpxtpx:hr>121</gpxtpx:hr></gpxtpx:TrackPointExtension></extensions></trkpt>
<trkpt lat="22.4737291" lon="114.2135024">
<ele>5</ele><time>2020-12-28T09:09:58.998Z</time><extensions><gpxtpx:TrackPointExtension><gpxtpx:hr>121</gpxtpx:hr></gpxtpx:TrackPointExtension></extensions></trkpt>
<trkpt lat="22.4737589" lon="114.2135453">
<ele>5</ele><time>2020-12-28T09:10:00.998Z</time><extensions><gpxtpx:TrackPointExtension><gpxtpx:hr>121</gpxtpx:hr></gpxtpx:TrackPointExtension></extensions></trkpt>
<trkpt lat="22.4737787" lon="114.2136097">
<ele>5</ele><time>2020-12-28T09:10:02.998Z</time><extensions><gpxtpx:TrackPointExtension><gpxtpx:hr>121</gpxtpx:hr></gpxtpx:TrackPointExtension></extensions></trkpt>
<trkpt lat="22.4737985" lon="114.2136526">
<ele>5</ele><time>2020-12-28T09:10:04.998Z</time><extensions><gpxtpx:TrackPointExtension><gpxtpx:hr>121</gpxtpx:hr></gpxtpx:TrackPointExtension></extensions></trkpt>
<trkpt lat="22.4738184" lon="114.2137170">
<ele>5</ele><time>2020-12-28T09:10:07.998Z</time><extensions><gpxtpx:TrackPointExtension><gpxtpx:hr>118</gpxtpx:hr></gpxtpx:TrackPointExtension></extensions></trkpt>
<trkpt lat="22.4738283" lon="114.2137814">
<ele>5</ele><time>2020-12-28T09:10:10.998Z</time><extensions><gpxtpx:TrackPointExtension><gpxtpx:hr>119</gpxtpx:hr></gpxtpx:TrackPointExtension></extensions></trkpt>
<trkpt lat="22.4738481" lon="114.2138672">
<ele>5</ele><time>2020-12-28T09:10:13.998Z</time><extensions><gpxtpx:TrackPointExtension><gpxtpx:hr>119</gpxtpx:hr></gpxtpx:TrackPointExtension></extensions></trkpt>
<trkpt lat="22.4738481" lon="114.2139316">
<ele>5</ele><time>2020-12-28T09:10:16.998Z</time><extensions><gpxtpx:TrackPointExtension><gpxtpx:hr>118</gpxtpx:hr></gpxtpx:TrackPointExtension></extensions></trkpt>
<trkpt lat="22.4738580" lon="114.2139959">
<ele>5</ele><time>2020-12-28T09:10:18.998Z</time><extensions><gpxtpx:TrackPointExtension><gpxtpx:hr>118</gpxtpx:hr></gpxtpx:TrackPointExtension></extensions></trkpt>
<trkpt lat="22.4738481" lon="114.2140603">
<ele>5</ele><time>2020-12-28T09:10:21.998Z</time><extensions><gpxtpx:TrackPointExtension><gpxtpx:hr>119</gpxtpx:hr></gpxtpx:TrackPointExtension></extensions></trkpt>
<trkpt lat="22.4738481" lon="114.2141247">
<ele>5</ele><time>2020-12-28T09:10:24.999Z</time><extensions><gpxtpx:TrackPointExtension><gpxtpx:hr>119</gpxtpx:hr></gpxtpx:TrackPointExtension></extensions></trkpt>
<trkpt lat="22.4738481" lon="114.2141891">
<ele>5</ele><time>2020-12-28T09:10:27.999Z</time><extensions><gpxtpx:TrackPointExtension><gpxtpx:hr>118</gpxtpx:hr></gpxtpx:TrackPointExtension></extensions></trkpt>
<trkpt lat="22.4738283" lon="114.2142534">
<ele>5</ele><time>2020-12-28T09:10:30.999Z</time><extensions><gpxtpx:TrackPointExtension><gpxtpx:hr>118</gpxtpx:hr></gpxtpx:TrackPointExtension></extensions></trkpt>
<trkpt lat="22.4737985" lon="114.2143178">
<ele>5</ele><time>2020-12-28T09:10:33.999Z</time><extensions><gpxtpx:TrackPointExtension><gpxtpx:hr>118</gpxtpx:hr></gpxtpx:TrackPointExtension></extensions></trkpt>
<trkpt lat="22.4737787" lon="114.2143607">
<ele>5</ele><time>2020-12-28T09:10:35.999Z</time><extensions><gpxtpx:TrackPointExtension><gpxtpx:hr>120</gpxtpx:hr></gpxtpx:TrackPointExtension></extensions></trkpt>
<trkpt lat="22.4737589" lon="114.2144251">
<ele>5</ele><time>2020-12-28T09:10:38.999Z</time><extensions><gpxtpx:TrackPointExtension><gpxtpx:hr>120</gpxtpx:hr></gpxtpx:TrackPointExtension></extensions></trkpt>
<trkpt lat="22.4737390" lon="114.2144680">
<ele>5</ele><time>2020-12-28T09:10:40.999Z</time><extensions><gpxtpx:TrackPointExtension><gpxtpx:hr>118</gpxtpx:hr></gpxtpx:TrackPointExtension></extensions></trkpt>
<trkpt lat="22.4737192" lon="114.2145324">
<ele>5</ele><time>2020-12-28T09:10:44.999Z</time><extensions><gpxtpx:TrackPointExtension><gpxtpx:hr>118</gpxtpx:hr></gpxtpx:TrackPointExtension></extensions></trkpt>
<trkpt lat="22.4736994" lon="114.2145967">
<ele>5</ele><time>2020-12-28T09:10:47.999Z</time><extensions><gpxtpx:TrackPointExtension><gpxtpx:hr>117</gpxtpx:hr></gpxtpx:TrackPointExtension></extensions></trkpt>
<trkpt lat="22.4736696" lon="114.2146397">
<ele>5</ele><time>2020-12-28T09:10:58.999Z</time><extensions><gpxtpx:TrackPointExtension><gpxtpx:hr>118</gpxtpx:hr></gpxtpx:TrackPointExtension></extensions></trkpt>
<trkpt lat="22.4736399" lon="114.2147040">
<ele>5</ele><time>2020-12-28T09:11:06.999Z</time><extensions><gpxtpx:TrackPointExtension><gpxtpx:hr>118</gpxtpx:hr></gpxtpx:TrackPointExtension></extensions></trkpt>
<trkpt lat="22.4736201" lon="114.2147684">
<ele>5</ele><time>2020-12-28T09:11:08.999Z</time><extensions><gpxtpx:TrackPointExtension><gpxtpx:hr>118</gpxtpx:hr></gpxtpx:TrackPointExtension></extensions></trkpt>
<trkpt lat="22.4735903" lon="114.2148328">
<ele>5</ele><time>2020-12-28T09:11:10.999Z</time><extensions><gpxtpx:TrackPointExtension><gpxtpx:hr>123</gpxtpx:hr></gpxtpx:TrackPointExtension></extensions></trkpt>
<trkpt lat="22.4735507" lon="114.2148972">
<ele>6</ele><time>2020-12-28T09:11:12.999Z</time><extensions><gpxtpx:TrackPointExtension><gpxtpx:hr>123</gpxtpx:hr></gpxtpx:TrackPointExtension></extensions></trkpt>
<trkpt lat="22.4735110" lon="114.2149615">
<ele>6</ele><time>2020-12-28T09:11:14.999Z</time><extensions><gpxtpx:TrackPointExtension><gpxtpx:hr>123</gpxtpx:hr></gpxtpx:TrackPointExtension></extensions></trkpt>
<trkpt lat="22.4734912" lon="114.2150044">
<ele>5</ele><time>2020-12-28T09:11:15.999Z</time><extensions><gpxtpx:TrackPointExtension><gpxtpx:hr>123</gpxtpx:hr></gpxtpx:TrackPointExtension></extensions></trkpt>
<trkpt lat="22.4734714" lon="114.2150474">
<ele>5</ele><time>2020-12-28T09:11:16.999Z</time><extensions><gpxtpx:TrackPointExtension><gpxtpx:hr>125</gpxtpx:hr></gpxtpx:TrackPointExtension></extensions></trkpt>
<trkpt lat="22.4734317" lon="114.2151117">
<ele>5</ele><time>2020-12-28T09:11:18.999Z</time><extensions><gpxtpx:TrackPointExtension><gpxtpx:hr>125</gpxtpx:hr></gpxtpx:TrackPointExtension></extensions></trkpt>
<trkpt lat="22.4734020" lon="114.2151546">
<ele>5</ele><time>2020-12-28T09:11:20.999Z</time><extensions><gpxtpx:TrackPointExtension><gpxtpx:hr>125</gpxtpx:hr></gpxtpx:TrackPointExtension></extensions></trkpt>
<trkpt lat="22.4733722" lon="114.2151976">
<ele>5</ele><time>2020-12-28T09:11:23.999Z</time><extensions><gpxtpx:TrackPointExtension><gpxtpx:hr>125</gpxtpx:hr></gpxtpx:TrackPointExtension></extensions></trkpt>
<trkpt lat="22.4733425" lon="114.2152405">
<ele>5</ele><time>2020-12-28T09:11:26.999Z</time><extensions><gpxtpx:TrackPointExtension><gpxtpx:hr>125</gpxtpx:hr></gpxtpx:TrackPointExtension></extensions></trkpt>
<trkpt lat="22.4733028" lon="114.2152834">
<ele>5</ele><time>2020-12-28T09:11:29.999Z</time><extensions><gpxtpx:TrackPointExtension><gpxtpx:hr>125</gpxtpx:hr></gpxtpx:TrackPointExtension></extensions></trkpt>
<trkpt lat="22.4732731" lon="114.2153263">
<ele>5</ele><time>2020-12-28T09:11:32.999Z</time><extensions><gpxtpx:TrackPointExtension><gpxtpx:hr>125</gpxtpx:hr></gpxtpx:TrackPointExtension></extensions></trkpt>
<trkpt lat="22.4732334" lon="114.2153692">
<ele>5</ele><time>2020-12-28T09:11:35.999Z</time><extensions><gpxtpx:TrackPointExtension><gpxtpx:hr>125</gpxtpx:hr></gpxtpx:TrackPointExtension></extensions></trkpt>
<trkpt lat="22.4731938" lon="114.2154336">
<ele>5</ele><time>2020-12-28T09:11:39.999Z</time><extensions><gpxtpx:TrackPointExtension><gpxtpx:hr>125</gpxtpx:hr></gpxtpx:TrackPointExtension></extensions></trkpt>
<trkpt lat="22.4731541" lon="114.2154121">
<ele>5</ele><time>2020-12-28T09:12:04.998Z</time><extensions><gpxtpx:TrackPointExtension><gpxtpx:hr>125</gpxtpx:hr></gpxtpx:TrackPointExtension></extensions></trkpt>
<trkpt lat="22.4731739" lon="114.2154551">
<ele>5</ele><time>2020-12-28T09:12:29.999Z</time><extensions><gpxtpx:TrackPointExtension><gpxtpx:hr>125</gpxtpx:hr></gpxtpx:TrackPointExtension></extensions></trkpt>
<trkpt lat="22.4731541" lon="114.2154980">
<ele>5</ele><time>2020-12-28T09:13:11.999Z</time><extensions><gpxtpx:TrackPointExtension><gpxtpx:hr>113</gpxtpx:hr></gpxtpx:TrackPointExtension></extensions></trkpt>
<trkpt lat="22.4731145" lon="114.2155194">
<ele>5</ele><time>2020-12-28T09:13:14.999Z</time><extensions><gpxtpx:TrackPointExtension><gpxtpx:hr>113</gpxtpx:hr></gpxtpx:TrackPointExtension></extensions></trkpt>
<trkpt lat="22.4730847" lon="114.2155623">
<ele>5</ele><time>2020-12-28T09:13:16.999Z</time><extensions><gpxtpx:TrackPointExtension><gpxtpx:hr>113</gpxtpx:hr></gpxtpx:TrackPointExtension></extensions></trkpt>
<trkpt lat="22.4730451" lon="114.2156053">
<ele>5</ele><time>2020-12-28T09:13:18.999Z</time><extensions><gpxtpx:TrackPointExtension><gpxtpx:hr>113</gpxtpx:hr></gpxtpx:TrackPointExtension></extensions></trkpt>
<trkpt lat="22.4730054" lon="114.2156482">
<ele>5</ele><time>2020-12-28T09:13:20.999Z</time><extensions><gpxtpx:TrackPointExtension><gpxtpx:hr>113</gpxtpx:hr></gpxtpx:TrackPointExtension></extensions></trkpt>
<trkpt lat="22.4729657" lon="114.2156911">
<ele>5</ele><time>2020-12-28T09:13:22.999Z</time><extensions><gpxtpx:TrackPointExtension><gpxtpx:hr>113</gpxtpx:hr></gpxtpx:TrackPointExtension></extensions></trkpt>
<trkpt lat="22.4729261" lon="114.2157125">
<ele>5</ele><time>2020-12-28T09:13:24.999Z</time><extensions><gpxtpx:TrackPointExtension><gpxtpx:hr>113</gpxtpx:hr></gpxtpx:TrackPointExtension></extensions></trkpt>
<trkpt lat="22.4728963" lon="114.2157555">
<ele>5</ele><time>2020-12-28T09:13:26.999Z</time><extensions><gpxtpx:TrackPointExtension><gpxtpx:hr>113</gpxtpx:hr></gpxtpx:TrackPointExtension></extensions></trkpt>
<trkpt lat="22.4728666" lon="114.2157984">
<ele>5</ele><time>2020-12-28T09:13:28.999Z</time><extensions><gpxtpx:TrackPointExtension><gpxtpx:hr>113</gpxtpx:hr></gpxtpx:TrackPointExtension></extensions></trkpt>
<trkpt lat="22.4728270" lon="114.2158413">
<ele>5</ele><time>2020-12-28T09:13:31.999Z</time><extensions><gpxtpx:TrackPointExtension><gpxtpx:hr>113</gpxtpx:hr></gpxtpx:TrackPointExtension></extensions></trkpt>
<trkpt lat="22.4727774" lon="114.2158842">
<ele>5</ele><time>2020-12-28T09:13:34.999Z</time><extensions><gpxtpx:TrackPointExtension><gpxtpx:hr>115</gpxtpx:hr></gpxtpx:TrackPointExtension></extensions></trkpt>
<trkpt lat="22.4727278" lon="114.2159057">
<ele>5</ele><time>2020-12-28T09:13:37.999Z</time><extensions><gpxtpx:TrackPointExtension><gpxtpx:hr>116</gpxtpx:hr></gpxtpx:TrackPointExtension></extensions></trkpt>
<trkpt lat="22.4726782" lon="114.2159271">
<ele>5</ele><time>2020-12-28T09:13:40.999Z</time><extensions><gpxtpx:TrackPointExtension><gpxtpx:hr>116</gpxtpx:hr></gpxtpx:TrackPointExtension></extensions></trkpt>
<trkpt lat="22.4726287" lon="114.2159700">
<ele>5</ele><time>2020-12-28T09:13:43.999Z</time><extensions><gpxtpx:TrackPointExtension><gpxtpx:hr>116</gpxtpx:hr></gpxtpx:TrackPointExtension></extensions></trkpt>
<trkpt lat="22.4725692" lon="114.2160130">
<ele>5</ele><time>2020-12-28T09:13:45.999Z</time><extensions><gpxtpx:TrackPointExtension><gpxtpx:hr>116</gpxtpx:hr></gpxtpx:TrackPointExtension></extensions></trkpt>
<trkpt lat="22.4725295" lon="114.2160559">
<ele>5</ele><time>2020-12-28T09:13:48.999Z</time><extensions><gpxtpx:TrackPointExtension><gpxtpx:hr>116</gpxtpx:hr></gpxtpx:TrackPointExtension></extensions></trkpt>
<trkpt lat="22.4724899" lon="114.2160773">
<ele>5</ele><time>2020-12-28T09:13:50.999Z</time><extensions><gpxtpx:TrackPointExtension><gpxtpx:hr>116</gpxtpx:hr></gpxtpx:TrackPointExtension></extensions></trkpt>
<trkpt lat="22.4724502" lon="114.2161202">
<ele>5</ele><time>2020-12-28T09:13:53.999Z</time><extensions><gpxtpx:TrackPointExtension><gpxtpx:hr>116</gpxtpx:hr></gpxtpx:TrackPointExtension></extensions></trkpt>
<trkpt lat="22.4724106" lon="114.2161632">
<ele>5</ele><time>2020-12-28T09:13:56.999Z</time><extensions><gpxtpx:TrackPointExtension><gpxtpx:hr>116</gpxtpx:hr></gpxtpx:TrackPointExtension></extensions></trkpt>
<trkpt lat="22.4723709" lon="114.2161417">
<ele>5</ele><time>2020-12-28T09:13:59.999Z</time><extensions><gpxtpx:TrackPointExtension><gpxtpx:hr>117</gpxtpx:hr></gpxtpx:TrackPointExtension></extensions></trkpt>
<trkpt lat="22.4723213" lon="114.2160773">
<ele>5</ele><time>2020-12-28T09:14:17.999Z</time><extensions><gpxtpx:TrackPointExtension><gpxtpx:hr>120</gpxtpx:hr></gpxtpx:TrackPointExtension></extensions></trkpt>
<trkpt lat="22.4723412" lon="114.2161417">
<ele>5</ele><time>2020-12-28T09:14:22.998Z</time><extensions><gpxtpx:TrackPointExtension><gpxtpx:hr>120</gpxtpx:hr></gpxtpx:TrackPointExtension></extensions></trkpt>
<trkpt lat="22.4723114" lon="114.2161846">
<ele>5</ele><time>2020-12-28T09:14:26.998Z</time><extensions><gpxtpx:TrackPointExtension><gpxtpx:hr>119</gpxtpx:hr></gpxtpx:TrackPointExtension></extensions></trkpt>
<trkpt lat="22.4722718" lon="114.2162061">
<ele>5</ele><time>2020-12-28T09:14:28.998Z</time><extensions><gpxtpx:TrackPointExtension><gpxtpx:hr>119</gpxtpx:hr></gpxtpx:TrackPointExtension></extensions></trkpt>
<trkpt lat="22.4722420" lon="114.2162490">
<ele>5</ele><time>2020-12-28T09:14:30.998Z</time><extensions><gpxtpx:TrackPointExtension><gpxtpx:hr>119</gpxtpx:hr></gpxtpx:TrackPointExtension></extensions></trkpt>
<trkpt lat="22.4722024" lon="114.2162704">
<ele>5</ele><time>2020-12-28T09:14:32.998Z</time><extensions><gpxtpx:TrackPointExtension><gpxtpx:hr>119</gpxtpx:hr></gpxtpx:TrackPointExtension></extensions></trkpt>
<trkpt lat="22.4721528" lon="114.2163134">
<ele>5</ele><time>2020-12-28T09:14:35.000Z</time><extensions><gpxtpx:TrackPointExtension><gpxtpx:hr>119</gpxtpx:hr></gpxtpx:TrackPointExtension></extensions></trkpt>
<trkpt lat="22.4721230" lon="114.2163563">
<ele>5</ele><time>2020-12-28T09:14:37.000Z</time><extensions><gpxtpx:TrackPointExtension><gpxtpx:hr>119</gpxtpx:hr></gpxtpx:TrackPointExtension></extensions></trkpt>
<trkpt lat="22.4720834" lon="114.2164207">
<ele>5</ele><time>2020-12-28T09:14:39.000Z</time><extensions><gpxtpx:TrackPointExtension><gpxtpx:hr>118</gpxtpx:hr></gpxtpx:TrackPointExtension></extensions></trkpt>
<trkpt lat="22.4720437" lon="114.2164636">
<ele>5</ele><time>2020-12-28T09:14:41.000Z</time><extensions><gpxtpx:TrackPointExtension><gpxtpx:hr>118</gpxtpx:hr></gpxtpx:TrackPointExtension></extensions></trkpt>
<trkpt lat="22.4719843" lon="114.2165065">
<ele>5</ele><time>2020-12-28T09:14:43.000Z</time><extensions><gpxtpx:TrackPointExtension><gpxtpx:hr>118</gpxtpx:hr></gpxtpx:TrackPointExtension></extensions></trkpt>
<trkpt lat="22.4719347" lon="114.2165494">
<ele>5</ele><time>2020-12-28T09:14:45.000Z</time><extensions><gpxtpx:TrackPointExtension><gpxtpx:hr>118</gpxtpx:hr></gpxtpx:TrackPointExtension></extensions></trkpt>
<trkpt lat="22.4718752" lon="114.2165923">
<ele>5</ele><time>2020-12-28T09:14:47.000Z</time><extensions><gpxtpx:TrackPointExtension><gpxtpx:hr>118</gpxtpx:hr></gpxtpx:TrackPointExtension></extensions></trkpt>
<trkpt lat="22.4718157" lon="114.2166138">
<ele>5</ele><time>2020-12-28T09:14:49.000Z</time><extensions><gpxtpx:TrackPointExtension><gpxtpx:hr>121</gpxtpx:hr></gpxtpx:TrackPointExtension></extensions></trkpt>
<trkpt lat="22.4717761" lon="114.2166567">
<ele>4</ele><time>2020-12-28T09:14:51.000Z</time><extensions><gpxtpx:TrackPointExtension><gpxtpx:hr>121</gpxtpx:hr></gpxtpx:TrackPointExtension></extensions></trkpt>
<trkpt lat="22.4717364" lon="114.2166996">
<ele>4</ele><time>2020-12-28T09:14:53.000Z</time><extensions><gpxtpx:TrackPointExtension><gpxtpx:hr>121</gpxtpx:hr></gpxtpx:TrackPointExtension></extensions></trkpt>
<trkpt lat="22.4716967" lon="114.2167425">
<ele>4</ele><time>2020-12-28T09:14:54.999Z</time><extensions><gpxtpx:TrackPointExtension><gpxtpx:hr>122</gpxtpx:hr></gpxtpx:TrackPointExtension></extensions></trkpt>
<trkpt lat="22.4716571" lon="114.2167640">
<ele>4</ele><time>2020-12-28T09:14:56.999Z</time><extensions><gpxtpx:TrackPointExtension><gpxtpx:hr>122</gpxtpx:hr></gpxtpx:TrackPointExtension></extensions></trkpt>
<trkpt lat="22.4716075" lon="114.2168069">
<ele>4</ele><time>2020-12-28T09:14:58.999Z</time><extensions><gpxtpx:TrackPointExtension><gpxtpx:hr>122</gpxtpx:hr></gpxtpx:TrackPointExtension></extensions></trkpt>
<trkpt lat="22.4715679" lon="114.2168498">
<ele>4</ele><time>2020-12-28T09:15:01.999Z</time><extensions><gpxtpx:TrackPointExtension><gpxtpx:hr>122</gpxtpx:hr></gpxtpx:TrackPointExtension></extensions></trkpt>
<trkpt lat="22.4715381" lon="114.2168927">
<ele>4</ele><time>2020-12-28T09:15:03.999Z</time><extensions><gpxtpx:TrackPointExtension><gpxtpx:hr>119</gpxtpx:hr></gpxtpx:TrackPointExtension></extensions></trkpt>
<trkpt lat="22.4715084" lon="114.2169356">
<ele>4</ele><time>2020-12-28T09:15:05.999Z</time><extensions><gpxtpx:TrackPointExtension><gpxtpx:hr>119</gpxtpx:hr></gpxtpx:TrackPointExtension></extensions></trkpt>
<trkpt lat="22.4714687" lon="114.2169571">
<ele>4</ele><time>2020-12-28T09:15:07.999Z</time><extensions><gpxtpx:TrackPointExtension><gpxtpx:hr>119</gpxtpx:hr></gpxtpx:TrackPointExtension></extensions></trkpt>
<trkpt lat="22.4714291" lon="114.2170000">
<ele>4</ele><time>2020-12-28T09:15:09.999Z</time><extensions><gpxtpx:TrackPointExtension><gpxtpx:hr>120</gpxtpx:hr></gpxtpx:TrackPointExtension></extensions></trkpt>
<trkpt lat="22.4713894" lon="114.2170429">
<ele>4</ele><time>2020-12-28T09:15:11.999Z</time><extensions><gpxtpx:TrackPointExtension><gpxtpx:hr>120</gpxtpx:hr></gpxtpx:TrackPointExtension></extensions></trkpt>
<trkpt lat="22.4713696" lon="114.2170858">
<ele>5</ele><time>2020-12-28T09:15:13.999Z</time><extensions><gpxtpx:TrackPointExtension><gpxtpx:hr>120</gpxtpx:hr></gpxtpx:TrackPointExtension></extensions></trkpt>
<trkpt lat="22.4713299" lon="114.2171288">
<ele>5</ele><time>2020-12-28T09:15:17.999Z</time><extensions><gpxtpx:TrackPointExtension><gpxtpx:hr>120</gpxtpx:hr></gpxtpx:TrackPointExtension></extensions></trkpt>
<trkpt lat="22.4713002" lon="114.2171931">
<ele>5</ele><time>2020-12-28T09:15:21.999Z</time><extensions><gpxtpx:TrackPointExtension><gpxtpx:hr>120</gpxtpx:hr></gpxtpx:TrackPointExtension></extensions></trkpt>
<trkpt lat="22.4712605" lon="114.2172146">
<ele>5</ele><time>2020-12-28T09:15:23.999Z</time><extensions><gpxtpx:TrackPointExtension><gpxtpx:hr>120</gpxtpx:hr></gpxtpx:TrackPointExtension></extensions></trkpt>
<trkpt lat="22.4712308" lon="114.2172790">
<ele>5</ele><time>2020-12-28T09:15:26.999Z</time><extensions><gpxtpx:TrackPointExtension><gpxtpx:hr>120</gpxtpx:hr></gpxtpx:TrackPointExtension></extensions></trkpt>
<trkpt lat="22.4712109" lon="114.2173433">
<ele>5</ele><time>2020-12-28T09:15:29.999Z</time><extensions><gpxtpx:TrackPointExtension><gpxtpx:hr>120</gpxtpx:hr></gpxtpx:TrackPointExtension></extensions></trkpt>
<trkpt lat="22.4711812" lon="114.2173862">
<ele>5</ele><time>2020-12-28T09:15:31.999Z</time><extensions><gpxtpx:TrackPointExtension><gpxtpx:hr>120</gpxtpx:hr></gpxtpx:TrackPointExtension></extensions></trkpt>
<trkpt lat="22.4711614" lon="114.2174292">
<ele>5</ele><time>2020-12-28T09:15:33.999Z</time><extensions><gpxtpx:TrackPointExtension><gpxtpx:hr>121</gpxtpx:hr></gpxtpx:TrackPointExtension></extensions></trkpt>
<trkpt lat="22.4711217" lon="114.2174506">
<ele>5</ele><time>2020-12-28T09:15:35.999Z</time><extensions><gpxtpx:TrackPointExtension><gpxtpx:hr>121</gpxtpx:hr></gpxtpx:TrackPointExtension></extensions></trkpt>
<trkpt lat="22.4710920" lon="114.2175150">
<ele>6</ele><time>2020-12-28T09:15:38.999Z</time><extensions><gpxtpx:TrackPointExtension><gpxtpx:hr>122</gpxtpx:hr></gpxtpx:TrackPointExtension></extensions></trkpt>
<trkpt lat="22.4710721" lon="114.2175579">
<ele>6</ele><time>2020-12-28T09:15:40.999Z</time><extensions><gpxtpx:TrackPointExtension><gpxtpx:hr>122</gpxtpx:hr></gpxtpx:TrackPointExtension></extensions></trkpt>
<trkpt lat="22.4710424" lon="114.2176223">
<ele>6</ele><time>2020-12-28T09:15:44.999Z</time><extensions><gpxtpx:TrackPointExtension><gpxtpx:hr>121</gpxtpx:hr></gpxtpx:TrackPointExtension></extensions></trkpt>
<trkpt lat="22.4710027" lon="114.2176652">
<ele>6</ele><time>2020-12-28T09:15:47.999Z</time><extensions><gpxtpx:TrackPointExtension><gpxtpx:hr>121</gpxtpx:hr></gpxtpx:TrackPointExtension></extensions></trkpt>
<trkpt lat="22.4709829" lon="114.2177296">
<ele>6</ele><time>2020-12-28T09:15:51.999Z</time><extensions><gpxtpx:TrackPointExtension><gpxtpx:hr>122</gpxtpx:hr></gpxtpx:TrackPointExtension></extensions></trkpt>
<trkpt lat="22.4709631" lon="114.2177939">
<ele>6</ele><time>2020-12-28T09:15:54.999Z</time><extensions><gpxtpx:TrackPointExtension><gpxtpx:hr>121</gpxtpx:hr></gpxtpx:TrackPointExtension></extensions></trkpt>
<trkpt lat="22.4709433" lon="114.2178583">
<ele>6</ele><time>2020-12-28T09:15:59.999Z</time><extensions><gpxtpx:TrackPointExtension><gpxtpx:hr>121</gpxtpx:hr></gpxtpx:TrackPointExtension></extensions></trkpt>
<trkpt lat="22.4709234" lon="114.2179227">
<ele>6</ele><time>2020-12-28T09:16:03.999Z</time><extensions><gpxtpx:TrackPointExtension><gpxtpx:hr>121</gpxtpx:hr></gpxtpx:TrackPointExtension></extensions></trkpt>
<trkpt lat="22.4708937" lon="114.2179871">
<ele>7</ele><time>2020-12-28T09:16:08.999Z</time><extensions><gpxtpx:TrackPointExtension><gpxtpx:hr>121</gpxtpx:hr></gpxtpx:TrackPointExtension></extensions></trkpt>
<trkpt lat="22.4708739" lon="114.2180300">
<ele>7</ele><time>2020-12-28T09:16:12.999Z</time><extensions><gpxtpx:TrackPointExtension><gpxtpx:hr>121</gpxtpx:hr></gpxtpx:TrackPointExtension></extensions></trkpt>
<trkpt lat="22.4708540" lon="114.2180943">
<ele>7</ele><time>2020-12-28T09:16:16.999Z</time><extensions><gpxtpx:TrackPointExtension><gpxtpx:hr>121</gpxtpx:hr></gpxtpx:TrackPointExtension></extensions></trkpt>
<trkpt lat="22.4708441" lon="114.2181802">
<ele>7</ele><time>2020-12-28T09:16:20.999Z</time><extensions><gpxtpx:TrackPointExtension><gpxtpx:hr>121</gpxtpx:hr></gpxtpx:TrackPointExtension></extensions></trkpt>
<trkpt lat="22.4708144" lon="114.2182231">
<ele>7</ele><time>2020-12-28T09:16:23.999Z</time><extensions><gpxtpx:TrackPointExtension><gpxtpx:hr>121</gpxtpx:hr></gpxtpx:TrackPointExtension></extensions></trkpt>
<trkpt lat="22.4707945" lon="114.2182660">
<ele>7</ele><time>2020-12-28T09:16:25.998Z</time><extensions><gpxtpx:TrackPointExtension><gpxtpx:hr>121</gpxtpx:hr></gpxtpx:TrackPointExtension></extensions></trkpt>
<trkpt lat="22.4707648" lon="114.2183304">
<ele>7</ele><time>2020-12-28T09:16:29.998Z</time><extensions><gpxtpx:TrackPointExtension><gpxtpx:hr>122</gpxtpx:hr></gpxtpx:TrackPointExtension></extensions></trkpt>
<trkpt lat="22.4707549" lon="114.2183948">
<ele>7</ele><time>2020-12-28T09:16:34.998Z</time><extensions><gpxtpx:TrackPointExtension><gpxtpx:hr>121</gpxtpx:hr></gpxtpx:TrackPointExtension></extensions></trkpt>
<trkpt lat="22.4707351" lon="114.2184377">
<ele>7</ele><time>2020-12-28T09:16:37.998Z</time><extensions><gpxtpx:TrackPointExtension><gpxtpx:hr>121</gpxtpx:hr></gpxtpx:TrackPointExtension></extensions></trkpt>
<trkpt lat="22.4707152" lon="114.2184806">
<ele>8</ele><time>2020-12-28T09:16:42.000Z</time><extensions><gpxtpx:TrackPointExtension><gpxtpx:hr>122</gpxtpx:hr></gpxtpx:TrackPointExtension></extensions></trkpt>
<trkpt lat="22.4707053" lon="114.2185450">
<ele>8</ele><time>2020-12-28T09:16:46.000Z</time><extensions><gpxtpx:TrackPointExtension><gpxtpx:hr>123</gpxtpx:hr></gpxtpx:TrackPointExtension></extensions></trkpt>
<trkpt lat="22.4706855" lon="114.2185879">
<ele>8</ele><time>2020-12-28T09:16:49.000Z</time><extensions><gpxtpx:TrackPointExtension><gpxtpx:hr>124</gpxtpx:hr></gpxtpx:TrackPointExtension></extensions></trkpt>
<trkpt lat="22.4706855" lon="114.2186522">
<ele>8</ele><time>2020-12-28T09:16:52.000Z</time><extensions><gpxtpx:TrackPointExtension><gpxtpx:hr>124</gpxtpx:hr></gpxtpx:TrackPointExtension></extensions></trkpt>
<trkpt lat="22.4706756" lon="114.2187166">
<ele>8</ele><time>2020-12-28T09:16:55.000Z</time><extensions><gpxtpx:TrackPointExtension><gpxtpx:hr>123</gpxtpx:hr></gpxtpx:TrackPointExtension></extensions></trkpt>
<trkpt lat="22.4706557" lon="114.2187810">
<ele>8</ele><time>2020-12-28T09:16:59.000Z</time><extensions><gpxtpx:TrackPointExtension><gpxtpx:hr>124</gpxtpx:hr></gpxtpx:TrackPointExtension></extensions></trkpt>
<trkpt lat="22.4706458" lon="114.2188668">
<ele>8</ele><time>2020-12-28T09:17:02.999Z</time><extensions><gpxtpx:TrackPointExtension><gpxtpx:hr>124</gpxtpx:hr></gpxtpx:TrackPointExtension></extensions></trkpt>
<trkpt lat="22.4706359" lon="114.2189312">
<ele>8</ele><time>2020-12-28T09:17:08.999Z</time><extensions><gpxtpx:TrackPointExtension><gpxtpx:hr>124</gpxtpx:hr></gpxtpx:TrackPointExtension></extensions></trkpt>
<trkpt lat="22.4706260" lon="114.2189956">
<ele>8</ele><time>2020-12-28T09:17:11.999Z</time><extensions><gpxtpx:TrackPointExtension><gpxtpx:hr>124</gpxtpx:hr></gpxtpx:TrackPointExtension></extensions></trkpt>
<trkpt lat="22.4706260" lon="114.2190599">
<ele>8</ele><time>2020-12-28T09:17:16.999Z</time><extensions><gpxtpx:TrackPointExtension><gpxtpx:hr>125</gpxtpx:hr></gpxtpx:TrackPointExtension></extensions></trkpt>
<trkpt lat="22.4706161" lon="114.2191243">
<ele>8</ele><time>2020-12-28T09:17:21.999Z</time><extensions><gpxtpx:TrackPointExtension><gpxtpx:hr>126</gpxtpx:hr></gpxtpx:TrackPointExtension></extensions></trkpt>
<trkpt lat="22.4706161" lon="114.2191887">
<ele>8</ele><time>2020-12-28T09:17:25.999Z</time><extensions><gpxtpx:TrackPointExtension><gpxtpx:hr>126</gpxtpx:hr></gpxtpx:TrackPointExtension></extensions></trkpt>
<trkpt lat="22.4706062" lon="114.2192531">
<ele>9</ele><time>2020-12-28T09:17:29.999Z</time><extensions><gpxtpx:TrackPointExtension><gpxtpx:hr>126</gpxtpx:hr></gpxtpx:TrackPointExtension></extensions></trkpt>
<trkpt lat="22.4706062" lon="114.2193174">
<ele>9</ele><time>2020-12-28T09:17:32.999Z</time><extensions><gpxtpx:TrackPointExtension><gpxtpx:hr>126</gpxtpx:hr></gpxtpx:TrackPointExtension></extensions></trkpt>
<trkpt lat="22.4706657" lon="114.2193604">
<ele>9</ele><time>2020-12-28T09:17:36.999Z</time><extensions><gpxtpx:TrackPointExtension><gpxtpx:hr>129</gpxtpx:hr></gpxtpx:TrackPointExtension></extensions></trkpt>
<trkpt lat="22.4706855" lon="114.2194033">
<ele>9</ele><time>2020-12-28T09:17:38.999Z</time><extensions><gpxtpx:TrackPointExtension><gpxtpx:hr>130</gpxtpx:hr></gpxtpx:TrackPointExtension></extensions></trkpt>
<trkpt lat="22.4707152" lon="114.2194676">
<ele>9</ele><time>2020-12-28T09:17:40.999Z</time><extensions><gpxtpx:TrackPointExtension><gpxtpx:hr>130</gpxtpx:hr></gpxtpx:TrackPointExtension></extensions></trkpt>
<trkpt lat="22.4707152" lon="114.2195320">
<ele>9</ele><time>2020-12-28T09:17:42.999Z</time><extensions><gpxtpx:TrackPointExtension><gpxtpx:hr>130</gpxtpx:hr></gpxtpx:TrackPointExtension></extensions></trkpt>
<trkpt lat="22.4707152" lon="114.2195964">
<ele>9</ele><time>2020-12-28T09:17:44.999Z</time><extensions><gpxtpx:TrackPointExtension><gpxtpx:hr>127</gpxtpx:hr></gpxtpx:TrackPointExtension></extensions></trkpt>
<trkpt lat="22.4706954" lon="114.2196608">
<ele>9</ele><time>2020-12-28T09:17:46.999Z</time><extensions><gpxtpx:TrackPointExtension><gpxtpx:hr>127</gpxtpx:hr></gpxtpx:TrackPointExtension></extensions></trkpt>
<trkpt lat="22.4706756" lon="114.2197251">
<ele>9</ele><time>2020-12-28T09:17:48.999Z</time><extensions><gpxtpx:TrackPointExtension><gpxtpx:hr>127</gpxtpx:hr></gpxtpx:TrackPointExtension></extensions></trkpt>
<trkpt lat="22.4706557" lon="114.2197895">
<ele>9</ele><time>2020-12-28T09:17:50.999Z</time><extensions><gpxtpx:TrackPointExtension><gpxtpx:hr>127</gpxtpx:hr></gpxtpx:TrackPointExtension></extensions></trkpt>
<trkpt lat="22.4706359" lon="114.2198539">
<ele>9</ele><time>2020-12-28T09:17:52.999Z</time><extensions><gpxtpx:TrackPointExtension><gpxtpx:hr>127</gpxtpx:hr></gpxtpx:TrackPointExtension></extensions></trkpt>
<trkpt lat="22.4706260" lon="114.2199183">
<ele>9</ele><time>2020-12-28T09:17:54.999Z</time><extensions><gpxtpx:TrackPointExtension><gpxtpx:hr>123</gpxtpx:hr></gpxtpx:TrackPointExtension></extensions></trkpt>
<trkpt lat="22.4706161" lon="114.2199826">
<ele>9</ele><time>2020-12-28T09:17:56.999Z</time><extensions><gpxtpx:TrackPointExtension><gpxtpx:hr>123</gpxtpx:hr></gpxtpx:TrackPointExtension></extensions></trkpt>
<trkpt lat="22.4706458" lon="114.2200470">
<ele>9</ele><time>2020-12-28T09:17:58.999Z</time><extensions><gpxtpx:TrackPointExtension><gpxtpx:hr>121</gpxtpx:hr></gpxtpx:TrackPointExtension></extensions></trkpt>
<trkpt lat="22.4706756" lon="114.2200899">
<ele>9</ele><time>2020-12-28T09:18:00.999Z</time><extensions><gpxtpx:TrackPointExtension><gpxtpx:hr>121</gpxtpx:hr></gpxtpx:TrackPointExtension></extensions></trkpt>
<trkpt lat="22.4706855" lon="114.2201543">
<ele>9</ele><time>2020-12-28T09:18:02.999Z</time><extensions><gpxtpx:TrackPointExtension><gpxtpx:hr>121</gpxtpx:hr></gpxtpx:TrackPointExtension></extensions></trkpt>
<trkpt lat="22.4706954" lon="114.2202187">
<ele>9</ele><time>2020-12-28T09:18:04.999Z</time><extensions><gpxtpx:TrackPointExtension><gpxtpx:hr>119</gpxtpx:hr></gpxtpx:TrackPointExtension></extensions></trkpt>
<trkpt lat="22.4706954" lon="114.2202830">
<ele>9</ele><time>2020-12-28T09:18:06.999Z</time><extensions><gpxtpx:TrackPointExtension><gpxtpx:hr>119</gpxtpx:hr></gpxtpx:TrackPointExtension></extensions></trkpt>
<trkpt lat="22.4706954" lon="114.2203474">
<ele>9</ele><time>2020-12-28T09:18:08.999Z</time><extensions><gpxtpx:TrackPointExtension><gpxtpx:hr>119</gpxtpx:hr></gpxtpx:TrackPointExtension></extensions></trkpt>
<trkpt lat="22.4706855" lon="114.2204332">
<ele>9</ele><time>2020-12-28T09:18:11.999Z</time><extensions><gpxtpx:TrackPointExtension><gpxtpx:hr>119</gpxtpx:hr></gpxtpx:TrackPointExtension></extensions></trkpt>
<trkpt lat="22.4706954" lon="114.2204976">
<ele>8</ele><time>2020-12-28T09:18:13.999Z</time><extensions><gpxtpx:TrackPointExtension><gpxtpx:hr>120</gpxtpx:hr></gpxtpx:TrackPointExtension></extensions></trkpt>
<trkpt lat="22.4707053" lon="114.2205834">
<ele>8</ele><time>2020-12-28T09:18:16.999Z</time><extensions><gpxtpx:TrackPointExtension><gpxtpx:hr>120</gpxtpx:hr></gpxtpx:TrackPointExtension></extensions></trkpt>
<trkpt lat="22.4707053" lon="114.2206478">
<ele>8</ele><time>2020-12-28T09:18:19.999Z</time><extensions><gpxtpx:TrackPointExtension><gpxtpx:hr>119</gpxtpx:hr></gpxtpx:TrackPointExtension></extensions></trkpt>
<trkpt lat="22.4707053" lon="114.2207122">
<ele>8</ele><time>2020-12-28T09:18:22.999Z</time><extensions><gpxtpx:TrackPointExtension><gpxtpx:hr>119</gpxtpx:hr></gpxtpx:TrackPointExtension></extensions></trkpt>
<trkpt lat="22.4707152" lon="114.2207980">
<ele>8</ele><time>2020-12-28T09:18:25.999Z</time><extensions><gpxtpx:TrackPointExtension><gpxtpx:hr>119</gpxtpx:hr></gpxtpx:TrackPointExtension></extensions></trkpt>
<trkpt lat="22.4707351" lon="114.2208624">
<ele>8</ele><time>2020-12-28T09:18:28.999Z</time><extensions><gpxtpx:TrackPointExtension><gpxtpx:hr>119</gpxtpx:hr></gpxtpx:TrackPointExtension></extensions></trkpt>
<trkpt lat="22.4707549" lon="114.2209268">
<ele>8</ele><time>2020-12-28T09:18:31.998Z</time><extensions><gpxtpx:TrackPointExtension><gpxtpx:hr>119</gpxtpx:hr></gpxtpx:TrackPointExtension></extensions></trkpt>
<trkpt lat="22.4707747" lon="114.2209697">
<ele>9</ele><time>2020-12-28T09:18:33.998Z</time><extensions><gpxtpx:TrackPointExtension><gpxtpx:hr>119</gpxtpx:hr></gpxtpx:TrackPointExtension></extensions></trkpt>
<trkpt lat="22.4707846" lon="114.2210340">
<ele>9</ele><time>2020-12-28T09:18:36.998Z</time><extensions><gpxtpx:TrackPointExtension><gpxtpx:hr>119</gpxtpx:hr></gpxtpx:TrackPointExtension></extensions></trkpt>
<trkpt lat="22.4708045" lon="114.2210770">
<ele>9</ele><time>2020-12-28T09:18:39.998Z</time><extensions><gpxtpx:TrackPointExtension><gpxtpx:hr>119</gpxtpx:hr></gpxtpx:TrackPointExtension></extensions></trkpt>
<trkpt lat="22.4708243" lon="114.2211199">
<ele>9</ele><time>2020-12-28T09:18:41.998Z</time><extensions><gpxtpx:TrackPointExtension><gpxtpx:hr>119</gpxtpx:hr></gpxtpx:TrackPointExtension></extensions></trkpt>
<trkpt lat="22.4708441" lon="114.2211843">
<ele>8</ele><time>2020-12-28T09:18:44.998Z</time><extensions><gpxtpx:TrackPointExtension><gpxtpx:hr>119</gpxtpx:hr></gpxtpx:TrackPointExtension></extensions></trkpt>
<trkpt lat="22.4708540" lon="114.2212701">
<ele>8</ele><time>2020-12-28T09:18:48.000Z</time><extensions><gpxtpx:TrackPointExtension><gpxtpx:hr>119</gpxtpx:hr></gpxtpx:TrackPointExtension></extensions></trkpt>
<trkpt lat="22.4708838" lon="114.2213130">
<ele>8</ele><time>2020-12-28T09:18:50.000Z</time><extensions><gpxtpx:TrackPointExtension><gpxtpx:hr>120</gpxtpx:hr></gpxtpx:TrackPointExtension></extensions></trkpt>
<trkpt lat="22.4709036" lon="114.2213559">
<ele>8</ele><time>2020-12-28T09:18:52.000Z</time><extensions><gpxtpx:TrackPointExtension><gpxtpx:hr>120</gpxtpx:hr></gpxtpx:TrackPointExtension></extensions></trkpt>
<trkpt lat="22.4709234" lon="114.2214203">
<ele>8</ele><time>2020-12-28T09:18:56.000Z</time><extensions><gpxtpx:TrackPointExtension><gpxtpx:hr>124</gpxtpx:hr></gpxtpx:TrackPointExtension></extensions></trkpt>
<trkpt lat="22.4709532" lon="114.2214632">
<ele>8</ele><time>2020-12-28T09:18:59.000Z</time><extensions><gpxtpx:TrackPointExtension><gpxtpx:hr>121</gpxtpx:hr></gpxtpx:TrackPointExtension></extensions></trkpt>
<trkpt lat="22.4709829" lon="114.2215276">
<ele>8</ele><time>2020-12-28T09:19:02.000Z</time><extensions><gpxtpx:TrackPointExtension><gpxtpx:hr>121</gpxtpx:hr></gpxtpx:TrackPointExtension></extensions></trkpt>
<trkpt lat="22.4710027" lon="114.2215705">
<ele>8</ele><time>2020-12-28T09:19:04.000Z</time><extensions><gpxtpx:TrackPointExtension><gpxtpx:hr>120</gpxtpx:hr></gpxtpx:TrackPointExtension></extensions></trkpt>
<trkpt lat="22.4710226" lon="114.2216349">
<ele>8</ele><time>2020-12-28T09:19:07.000Z</time><extensions><gpxtpx:TrackPointExtension><gpxtpx:hr>120</gpxtpx:hr></gpxtpx:TrackPointExtension></extensions></trkpt>
<trkpt lat="22.4710523" lon="114.2216778">
<ele>8</ele><time>2020-12-28T09:19:09.000Z</time><extensions><gpxtpx:TrackPointExtension><gpxtpx:hr>121</gpxtpx:hr></gpxtpx:TrackPointExtension></extensions></trkpt>
<trkpt lat="22.4710721" lon="114.2217422">
<ele>8</ele><time>2020-12-28T09:19:11.999Z</time><extensions><gpxtpx:TrackPointExtension><gpxtpx:hr>121</gpxtpx:hr></gpxtpx:TrackPointExtension></extensions></trkpt>
<trkpt lat="22.4710920" lon="114.2217851">
<ele>8</ele><time>2020-12-28T09:19:13.999Z</time><extensions><gpxtpx:TrackPointExtension><gpxtpx:hr>122</gpxtpx:hr></gpxtpx:TrackPointExtension></extensions></trkpt>
<trkpt lat="22.4711217" lon="114.2218494">
<ele>8</ele><time>2020-12-28T09:19:16.999Z</time><extensions><gpxtpx:TrackPointExtension><gpxtpx:hr>122</gpxtpx:hr></gpxtpx:TrackPointExtension></extensions></trkpt>
<trkpt lat="22.4711415" lon="114.2218924">
<ele>8</ele><time>2020-12-28T09:19:20.999Z</time><extensions><gpxtpx:TrackPointExtension><gpxtpx:hr>122</gpxtpx:hr></gpxtpx:TrackPointExtension></extensions></trkpt>
<trkpt lat="22.4711614" lon="114.2219567">
<ele>8</ele><time>2020-12-28T09:19:23.999Z</time><extensions><gpxtpx:TrackPointExtension><gpxtpx:hr>122</gpxtpx:hr></gpxtpx:TrackPointExtension></extensions></trkpt>
<trkpt lat="22.4711812" lon="114.2220211">
<ele>8</ele><time>2020-12-28T09:19:27.999Z</time><extensions><gpxtpx:TrackPointExtension><gpxtpx:hr>122</gpxtpx:hr></gpxtpx:TrackPointExtension></extensions></trkpt>
<trkpt lat="22.4712109" lon="114.2220855">
<ele>8</ele><time>2020-12-28T09:19:30.999Z</time><extensions><gpxtpx:TrackPointExtension><gpxtpx:hr>119</gpxtpx:hr></gpxtpx:TrackPointExtension></extensions></trkpt>
<trkpt lat="22.4712407" lon="114.2221498">
<ele>8</ele><time>2020-12-28T09:19:33.999Z</time><extensions><gpxtpx:TrackPointExtension><gpxtpx:hr>122</gpxtpx:hr></gpxtpx:TrackPointExtension></extensions></trkpt>
<trkpt lat="22.4712605" lon="114.2222142">
<ele>8</ele><time>2020-12-28T09:19:36.999Z</time><extensions><gpxtpx:TrackPointExtension><gpxtpx:hr>122</gpxtpx:hr></gpxtpx:TrackPointExtension></extensions></trkpt>
<trkpt lat="22.4712803" lon="114.2222571">
<ele>8</ele><time>2020-12-28T09:19:38.999Z</time><extensions><gpxtpx:TrackPointExtension><gpxtpx:hr>122</gpxtpx:hr></gpxtpx:TrackPointExtension></extensions></trkpt>
<trkpt lat="22.4713002" lon="114.2223215">
<ele>8</ele><time>2020-12-28T09:19:41.999Z</time><extensions><gpxtpx:TrackPointExtension><gpxtpx:hr>122</gpxtpx:hr></gpxtpx:TrackPointExtension></extensions></trkpt>
<trkpt lat="22.4713200" lon="114.2223644">
<ele>8</ele><time>2020-12-28T09:19:43.999Z</time><extensions><gpxtpx:TrackPointExtension><gpxtpx:hr>122</gpxtpx:hr></gpxtpx:TrackPointExtension></extensions></trkpt>
<trkpt lat="22.4713497" lon="114.2224288">
<ele>8</ele><time>2020-12-28T09:19:47.999Z</time><extensions><gpxtpx:TrackPointExtension><gpxtpx:hr>123</gpxtpx:hr></gpxtpx:TrackPointExtension></extensions></trkpt>
<trkpt lat="22.4713696" lon="114.2224717">
<ele>8</ele><time>2020-12-28T09:19:49.999Z</time><extensions><gpxtpx:TrackPointExtension><gpxtpx:hr>124</gpxtpx:hr></gpxtpx:TrackPointExtension></extensions></trkpt>
<trkpt lat="22.4713795" lon="114.2225361">
<ele>8</ele><time>2020-12-28T09:19:52.999Z</time><extensions><gpxtpx:TrackPointExtension><gpxtpx:hr>124</gpxtpx:hr></gpxtpx:TrackPointExtension></extensions></trkpt>
<trkpt lat="22.4713993" lon="114.2225790">
<ele>8</ele><time>2020-12-28T09:19:54.999Z</time><extensions><gpxtpx:TrackPointExtension><gpxtpx:hr>125</gpxtpx:hr></gpxtpx:TrackPointExtension></extensions></trkpt>
<trkpt lat="22.4714191" lon="114.2226434">
<ele>8</ele><time>2020-12-28T09:19:56.999Z</time><extensions><gpxtpx:TrackPointExtension><gpxtpx:hr>125</gpxtpx:hr></gpxtpx:TrackPointExtension></extensions></trkpt>
<trkpt lat="22.4714390" lon="114.2226863">
<ele>8</ele><time>2020-12-28T09:19:58.999Z</time><extensions><gpxtpx:TrackPointExtension><gpxtpx:hr>125</gpxtpx:hr></gpxtpx:TrackPointExtension></extensions></trkpt>
<trkpt lat="22.4714489" lon="114.2227507">
<ele>8</ele><time>2020-12-28T09:20:00.999Z</time><extensions><gpxtpx:TrackPointExtension><gpxtpx:hr>126</gpxtpx:hr></gpxtpx:TrackPointExtension></extensions></trkpt>
<trkpt lat="22.4714687" lon="114.2227936">
<ele>8</ele><time>2020-12-28T09:20:02.999Z</time><extensions><gpxtpx:TrackPointExtension><gpxtpx:hr>126</gpxtpx:hr></gpxtpx:TrackPointExtension></extensions></trkpt>
<trkpt lat="22.4714885" lon="114.2228365">
<ele>8</ele><time>2020-12-28T09:20:04.999Z</time><extensions><gpxtpx:TrackPointExtension><gpxtpx:hr>128</gpxtpx:hr></gpxtpx:TrackPointExtension></extensions></trkpt>
<trkpt lat="22.4715084" lon="114.2229009">
<ele>8</ele><time>2020-12-28T09:20:06.999Z</time><extensions><gpxtpx:TrackPointExtension><gpxtpx:hr>128</gpxtpx:hr></gpxtpx:TrackPointExtension></extensions></trkpt>
<trkpt lat="22.4715282" lon="114.2229438">
<ele>8</ele><time>2020-12-28T09:20:08.999Z</time><extensions><gpxtpx:TrackPointExtension><gpxtpx:hr>128</gpxtpx:hr></gpxtpx:TrackPointExtension></extensions></trkpt>
<trkpt lat="22.4715480" lon="114.2230082">
<ele>8</ele><time>2020-12-28T09:20:11.999Z</time><extensions><gpxtpx:TrackPointExtension><gpxtpx:hr>128</gpxtpx:hr></gpxtpx:TrackPointExtension></extensions></trkpt>
<trkpt lat="22.4715579" lon="114.2230940">
<ele>8</ele><time>2020-12-28T09:20:14.999Z</time><extensions><gpxtpx:TrackPointExtension><gpxtpx:hr>125</gpxtpx:hr></gpxtpx:TrackPointExtension></extensions></trkpt>
<trkpt lat="22.4715679" lon="114.2231584">
<ele>8</ele><time>2020-12-28T09:20:17.999Z</time><extensions><gpxtpx:TrackPointExtension><gpxtpx:hr>125</gpxtpx:hr></gpxtpx:TrackPointExtension></extensions></trkpt>
<trkpt lat="22.4715679" lon="114.2232227">
<ele>8</ele><time>2020-12-28T09:20:19.999Z</time><extensions><gpxtpx:TrackPointExtension><gpxtpx:hr>126</gpxtpx:hr></gpxtpx:TrackPointExtension></extensions></trkpt>
<trkpt lat="22.4715778" lon="114.2232871">
<ele>7</ele><time>2020-12-28T09:20:22.999Z</time><extensions><gpxtpx:TrackPointExtension><gpxtpx:hr>126</gpxtpx:hr></gpxtpx:TrackPointExtension></extensions></trkpt>
<trkpt lat="22.4715877" lon="114.2233515">
<ele>7</ele><time>2020-12-28T09:20:24.999Z</time><extensions><gpxtpx:TrackPointExtension><gpxtpx:hr>124</gpxtpx:hr></gpxtpx:TrackPointExtension></extensions></trkpt>
<trkpt lat="22.4715976" lon="114.2234159">
<ele>7</ele><time>2020-12-28T09:20:26.999Z</time><extensions><gpxtpx:TrackPointExtension><gpxtpx:hr>124</gpxtpx:hr></gpxtpx:TrackPointExtension></extensions></trkpt>
<trkpt lat="22.4716075" lon="114.2234802">
<ele>7</ele><time>2020-12-28T09:20:28.999Z</time><extensions><gpxtpx:TrackPointExtension><gpxtpx:hr>124</gpxtpx:hr></gpxtpx:TrackPointExtension></extensions></trkpt>
<trkpt lat="22.4716174" lon="114.2235661">
<ele>7</ele><time>2020-12-28T09:20:31.999Z</time><extensions><gpxtpx:TrackPointExtension><gpxtpx:hr>124</gpxtpx:hr></gpxtpx:TrackPointExtension></extensions></trkpt>
<trkpt lat="22.4716273" lon="114.2236519">
<ele>7</ele><time>2020-12-28T09:20:34.998Z</time><extensions><gpxtpx:TrackPointExtension><gpxtpx:hr>116</gpxtpx:hr></gpxtpx:TrackPointExtension></extensions></trkpt>
<trkpt lat="22.4716373" lon="114.2237377">
<ele>7</ele><time>2020-12-28T09:20:37.998Z</time><extensions><gpxtpx:TrackPointExtension><gpxtpx:hr>116</gpxtpx:hr></gpxtpx:TrackPointExtension></extensions></trkpt>
<trkpt lat="22.4716373" lon="114.2238235">
<ele>6</ele><time>2020-12-28T09:20:40.998Z</time><extensions><gpxtpx:TrackPointExtension><gpxtpx:hr>117</gpxtpx:hr></gpxtpx:TrackPointExtension></extensions></trkpt>
<trkpt lat="22.4716472" lon="114.2238879">
<ele>6</ele><time>2020-12-28T09:20:42.998Z</time><extensions><gpxtpx:TrackPointExtension><gpxtpx:hr>117</gpxtpx:hr></gpxtpx:TrackPointExtension></extensions></trkpt>
<trkpt lat="22.4716472" lon="114.2239523">
<ele>6</ele><time>2020-12-28T09:20:44.998Z</time><extensions><gpxtpx:TrackPointExtension><gpxtpx:hr>117</gpxtpx:hr></gpxtpx:TrackPointExtension></extensions></trkpt>
<trkpt lat="22.4716670" lon="114.2240167">
<ele>6</ele><time>2020-12-28T09:20:46.998Z</time><extensions><gpxtpx:TrackPointExtension><gpxtpx:hr>117</gpxtpx:hr></gpxtpx:TrackPointExtension></extensions></trkpt>
<trkpt lat="22.4716670" lon="114.2240810">
<ele>6</ele><time>2020-12-28T09:20:49.998Z</time><extensions><gpxtpx:TrackPointExtension><gpxtpx:hr>117</gpxtpx:hr></gpxtpx:TrackPointExtension></extensions></trkpt>
<trkpt lat="22.4716670" lon="114.2241669">
<ele>6</ele><time>2020-12-28T09:20:53.000Z</time><extensions><gpxtpx:TrackPointExtension><gpxtpx:hr>117</gpxtpx:hr></gpxtpx:TrackPointExtension></extensions></trkpt>
<trkpt lat="22.4716670" lon="114.2242312">
<ele>6</ele><time>2020-12-28T09:20:56.000Z</time><extensions><gpxtpx:TrackPointExtension><gpxtpx:hr>116</gpxtpx:hr></gpxtpx:TrackPointExtension></extensions></trkpt>
<trkpt lat="22.4716769" lon="114.2243171">
<ele>6</ele><time>2020-12-28T09:20:58.000Z</time><extensions><gpxtpx:TrackPointExtension><gpxtpx:hr>116</gpxtpx:hr></gpxtpx:TrackPointExtension></extensions></trkpt>
<trkpt lat="22.4716868" lon="114.2244029">
<ele>6</ele><time>2020-12-28T09:21:01.000Z</time><extensions><gpxtpx:TrackPointExtension><gpxtpx:hr>115</gpxtpx:hr></gpxtpx:TrackPointExtension></extensions></trkpt>
<trkpt lat="22.4716868" lon="114.2244673">
<ele>6</ele><time>2020-12-28T09:21:03.000Z</time><extensions><gpxtpx:TrackPointExtension><gpxtpx:hr>115</gpxtpx:hr></gpxtpx:TrackPointExtension></extensions></trkpt>
<trkpt lat="22.4716967" lon="114.2245317">
<ele>6</ele><time>2020-12-28T09:21:06.000Z</time><extensions><gpxtpx:TrackPointExtension><gpxtpx:hr>116</gpxtpx:hr></gpxtpx:TrackPointExtension></extensions></trkpt>
<trkpt lat="22.4716967" lon="114.2245960">
<ele>6</ele><time>2020-12-28T09:21:08.000Z</time><extensions><gpxtpx:TrackPointExtension><gpxtpx:hr>116</gpxtpx:hr></gpxtpx:TrackPointExtension></extensions></trkpt>
<trkpt lat="22.4716967" lon="114.2246819">
<ele>5</ele><time>2020-12-28T09:21:10.000Z</time><extensions><gpxtpx:TrackPointExtension><gpxtpx:hr>116</gpxtpx:hr></gpxtpx:TrackPointExtension></extensions></trkpt>
<trkpt lat="22.4717067" lon="114.2247462">
<ele>5</ele><time>2020-12-28T09:21:12.000Z</time><extensions><gpxtpx:TrackPointExtension><gpxtpx:hr>116</gpxtpx:hr></gpxtpx:TrackPointExtension></extensions></trkpt>
<trkpt lat="22.4717067" lon="114.2248106">
<ele>5</ele><time>2020-12-28T09:21:14.000Z</time><extensions><gpxtpx:TrackPointExtension><gpxtpx:hr>116</gpxtpx:hr></gpxtpx:TrackPointExtension></extensions></trkpt>
<trkpt lat="22.4717166" lon="114.2248964">
<ele>5</ele><time>2020-12-28T09:21:17.000Z</time><extensions><gpxtpx:TrackPointExtension><gpxtpx:hr>116</gpxtpx:hr></gpxtpx:TrackPointExtension></extensions></trkpt>
<trkpt lat="22.4717166" lon="114.2249608">
<ele>5</ele><time>2020-12-28T09:21:19.000Z</time><extensions><gpxtpx:TrackPointExtension><gpxtpx:hr>116</gpxtpx:hr></gpxtpx:TrackPointExtension></extensions></trkpt>
<trkpt lat="22.4717265" lon="114.2250466">
<ele>5</ele><time>2020-12-28T09:21:21.999Z</time><extensions><gpxtpx:TrackPointExtension><gpxtpx:hr>118</gpxtpx:hr></gpxtpx:TrackPointExtension></extensions></trkpt>
<trkpt lat="22.4717265" lon="114.2251110">
<ele>5</ele><time>2020-12-28T09:21:23.999Z</time><extensions><gpxtpx:TrackPointExtension><gpxtpx:hr>118</gpxtpx:hr></gpxtpx:TrackPointExtension></extensions></trkpt>
<trkpt lat="22.4717364" lon="114.2251754">
<ele>5</ele><time>2020-12-28T09:21:25.999Z</time><extensions><gpxtpx:TrackPointExtension><gpxtpx:hr>116</gpxtpx:hr></gpxtpx:TrackPointExtension></extensions></trkpt>
<trkpt lat="22.4717364" lon="114.2252398">
<ele>5</ele><time>2020-12-28T09:21:27.999Z</time><extensions><gpxtpx:TrackPointExtension><gpxtpx:hr>116</gpxtpx:hr></gpxtpx:TrackPointExtension></extensions></trkpt>
<trkpt lat="22.4717463" lon="114.2253041">
<ele>5</ele><time>2020-12-28T09:21:29.999Z</time><extensions><gpxtpx:TrackPointExtension><gpxtpx:hr>115</gpxtpx:hr></gpxtpx:TrackPointExtension></extensions></trkpt>
<trkpt lat="22.4717463" lon="114.2253685">
<ele>5</ele><time>2020-12-28T09:21:31.999Z</time><extensions><gpxtpx:TrackPointExtension><gpxtpx:hr>115</gpxtpx:hr></gpxtpx:TrackPointExtension></extensions></trkpt>
<trkpt lat="22.4717562" lon="114.2254329">
<ele>5</ele><time>2020-12-28T09:21:33.999Z</time><extensions><gpxtpx:TrackPointExtension><gpxtpx:hr>115</gpxtpx:hr></gpxtpx:TrackPointExtension></extensions></trkpt>
<trkpt lat="22.4717562" lon="114.2254972">
<ele>5</ele><time>2020-12-28T09:21:35.999Z</time><extensions><gpxtpx:TrackPointExtension><gpxtpx:hr>115</gpxtpx:hr></gpxtpx:TrackPointExtension></extensions></trkpt>
<trkpt lat="22.4717661" lon="114.2255616">
<ele>5</ele><time>2020-12-28T09:21:37.999Z</time><extensions><gpxtpx:TrackPointExtension><gpxtpx:hr>115</gpxtpx:hr></gpxtpx:TrackPointExtension></extensions></trkpt>
<trkpt lat="22.4717661" lon="114.2256260">
<ele>5</ele><time>2020-12-28T09:21:40.999Z</time><extensions><gpxtpx:TrackPointExtension><gpxtpx:hr>117</gpxtpx:hr></gpxtpx:TrackPointExtension></extensions></trkpt>
<trkpt lat="22.4717860" lon="114.2256689">
<ele>5</ele><time>2020-12-28T09:21:47.999Z</time><extensions><gpxtpx:TrackPointExtension><gpxtpx:hr>118</gpxtpx:hr></gpxtpx:TrackPointExtension></extensions></trkpt>
<trkpt lat="22.4717860" lon="114.2257333">
<ele>5</ele><time>2020-12-28T09:21:51.999Z</time><extensions><gpxtpx:TrackPointExtension><gpxtpx:hr>118</gpxtpx:hr></gpxtpx:TrackPointExtension></extensions></trkpt>
<trkpt lat="22.4717860" lon="114.2258191">
<ele>5</ele><time>2020-12-28T09:21:54.999Z</time><extensions><gpxtpx:TrackPointExtension><gpxtpx:hr>120</gpxtpx:hr></gpxtpx:TrackPointExtension></extensions></trkpt>
<trkpt lat="22.4717959" lon="114.2258835">
<ele>5</ele><time>2020-12-28T09:21:56.999Z</time><extensions><gpxtpx:TrackPointExtension><gpxtpx:hr>120</gpxtpx:hr></gpxtpx:TrackPointExtension></extensions></trkpt>
<trkpt lat="22.4718157" lon="114.2259693">
<ele>5</ele><time>2020-12-28T09:21:59.999Z</time><extensions><gpxtpx:TrackPointExtension><gpxtpx:hr>120</gpxtpx:hr></gpxtpx:TrackPointExtension></extensions></trkpt>
<trkpt lat="22.4718157" lon="114.2260337">
<ele>5</ele><time>2020-12-28T09:22:02.999Z</time><extensions><gpxtpx:TrackPointExtension><gpxtpx:hr>120</gpxtpx:hr></gpxtpx:TrackPointExtension></extensions></trkpt>
<trkpt lat="22.4718256" lon="114.2260981">
<ele>5</ele><time>2020-12-28T09:22:04.999Z</time><extensions><gpxtpx:TrackPointExtension><gpxtpx:hr>122</gpxtpx:hr></gpxtpx:TrackPointExtension></extensions></trkpt>
<trkpt lat="22.4718256" lon="114.2261624">
<ele>5</ele><time>2020-12-28T09:22:07.999Z</time><extensions><gpxtpx:TrackPointExtension><gpxtpx:hr>122</gpxtpx:hr></gpxtpx:TrackPointExtension></extensions></trkpt>
<trkpt lat="22.4718157" lon="114.2262268">
<ele>5</ele><time>2020-12-28T09:22:10.999Z</time><extensions><gpxtpx:TrackPointExtension><gpxtpx:hr>123</gpxtpx:hr></gpxtpx:TrackPointExtension></extensions></trkpt>
<trkpt lat="22.4718256" lon="114.2263126">
<ele>5</ele><time>2020-12-28T09:22:14.999Z</time><extensions><gpxtpx:TrackPointExtension><gpxtpx:hr>123</gpxtpx:hr></gpxtpx:TrackPointExtension></extensions></trkpt>
<trkpt lat="22.4718355" lon="114.2263985">
<ele>5</ele><time>2020-12-28T09:22:17.999Z</time><extensions><gpxtpx:TrackPointExtension><gpxtpx:hr>123</gpxtpx:hr></gpxtpx:TrackPointExtension></extensions></trkpt>
<trkpt lat="22.4718355" lon="114.2264628">
<ele>5</ele><time>2020-12-28T09:22:19.999Z</time><extensions><gpxtpx:TrackPointExtension><gpxtpx:hr>122</gpxtpx:hr></gpxtpx:TrackPointExtension></extensions></trkpt>
<trkpt lat="22.4718355" lon="114.2265487">
<ele>5</ele><time>2020-12-28T09:22:22.999Z</time><extensions><gpxtpx:TrackPointExtension><gpxtpx:hr>122</gpxtpx:hr></gpxtpx:TrackPointExtension></extensions></trkpt>
<trkpt lat="22.4718455" lon="114.2266130">
<ele>5</ele><time>2020-12-28T09:22:24.999Z</time><extensions><gpxtpx:TrackPointExtension><gpxtpx:hr>123</gpxtpx:hr></gpxtpx:TrackPointExtension></extensions></trkpt>
<trkpt lat="22.4718455" lon="114.2266774">
<ele>5</ele><time>2020-12-28T09:22:26.999Z</time><extensions><gpxtpx:TrackPointExtension><gpxtpx:hr>123</gpxtpx:hr></gpxtpx:TrackPointExtension></extensions></trkpt>
<trkpt lat="22.4718554" lon="114.2267632">
<ele>5</ele><time>2020-12-28T09:22:29.999Z</time><extensions><gpxtpx:TrackPointExtension><gpxtpx:hr>123</gpxtpx:hr></gpxtpx:TrackPointExtension></extensions></trkpt>
<trkpt lat="22.4718653" lon="114.2268491">
<ele>5</ele><time>2020-12-28T09:22:32.999Z</time><extensions><gpxtpx:TrackPointExtension><gpxtpx:hr>123</gpxtpx:hr></gpxtpx:TrackPointExtension></extensions></trkpt>
<trkpt lat="22.4718653" lon="114.2269135">
<ele>5</ele><time>2020-12-28T09:22:34.999Z</time><extensions><gpxtpx:TrackPointExtension><gpxtpx:hr>122</gpxtpx:hr></gpxtpx:TrackPointExtension></extensions></trkpt>
<trkpt lat="22.4718752" lon="114.2269993">
<ele>5</ele><time>2020-12-28T09:22:37.999Z</time><extensions><gpxtpx:TrackPointExtension><gpxtpx:hr>122</gpxtpx:hr></gpxtpx:TrackPointExtension></extensions></trkpt>
<trkpt lat="22.4718752" lon="114.2270851">
<ele>4</ele><time>2020-12-28T09:22:40.998Z</time><extensions><gpxtpx:TrackPointExtension><gpxtpx:hr>122</gpxtpx:hr></gpxtpx:TrackPointExtension></extensions></trkpt>
<trkpt lat="22.4718851" lon="114.2271495">
<ele>4</ele><time>2020-12-28T09:22:42.998Z</time><extensions><gpxtpx:TrackPointExtension><gpxtpx:hr>122</gpxtpx:hr></gpxtpx:TrackPointExtension></extensions></trkpt>
<trkpt lat="22.4718950" lon="114.2272353">
<ele>4</ele><time>2020-12-28T09:22:45.998Z</time><extensions><gpxtpx:TrackPointExtension><gpxtpx:hr>122</gpxtpx:hr></gpxtpx:TrackPointExtension></extensions></trkpt>
<trkpt lat="22.4719049" lon="114.2272997">
<ele>4</ele><time>2020-12-28T09:22:49.998Z</time><extensions><gpxtpx:TrackPointExtension><gpxtpx:hr>122</gpxtpx:hr></gpxtpx:TrackPointExtension></extensions></trkpt>
<trkpt lat="22.4719149" lon="114.2273641">
<ele>4</ele><time>2020-12-28T09:22:52.998Z</time><extensions><gpxtpx:TrackPointExtension><gpxtpx:hr>122</gpxtpx:hr></gpxtpx:TrackPointExtension></extensions></trkpt>
<trkpt lat="22.4719149" lon="114.2274284">
<ele>4</ele><time>2020-12-28T09:22:55.998Z</time><extensions><gpxtpx:TrackPointExtension><gpxtpx:hr>122</gpxtpx:hr></gpxtpx:TrackPointExtension></extensions></trkpt>
<trkpt lat="22.4719347" lon="114.2274928">
<ele>4</ele><time>2020-12-28T09:22:59.000Z</time><extensions><gpxtpx:TrackPointExtension><gpxtpx:hr>122</gpxtpx:hr></gpxtpx:TrackPointExtension></extensions></trkpt>
<trkpt lat="22.4719347" lon="114.2275572">
<ele>4</ele><time>2020-12-28T09:23:02.000Z</time><extensions><gpxtpx:TrackPointExtension><gpxtpx:hr>122</gpxtpx:hr></gpxtpx:TrackPointExtension></extensions></trkpt>
<trkpt lat="22.4719545" lon="114.2276001">
<ele>4</ele><time>2020-12-28T09:23:04.000Z</time><extensions><gpxtpx:TrackPointExtension><gpxtpx:hr>122</gpxtpx:hr></gpxtpx:TrackPointExtension></extensions></trkpt>
<trkpt lat="22.4719545" lon="114.2276645">
<ele>4</ele><time>2020-12-28T09:23:06.000Z</time><extensions><gpxtpx:TrackPointExtension><gpxtpx:hr>122</gpxtpx:hr></gpxtpx:TrackPointExtension></extensions></trkpt>
<trkpt lat="22.4719644" lon="114.2277288">
<ele>4</ele><time>2020-12-28T09:23:09.000Z</time><extensions><gpxtpx:TrackPointExtension><gpxtpx:hr>122</gpxtpx:hr></gpxtpx:TrackPointExtension></extensions></trkpt>
<trkpt lat="22.4719743" lon="114.2277932">
<ele>4</ele><time>2020-12-28T09:23:12.000Z</time><extensions><gpxtpx:TrackPointExtension><gpxtpx:hr>122</gpxtpx:hr></gpxtpx:TrackPointExtension></extensions></trkpt>
<trkpt lat="22.4719843" lon="114.2278576">
<ele>4</ele><time>2020-12-28T09:23:16.000Z</time><extensions><gpxtpx:TrackPointExtension><gpxtpx:hr>122</gpxtpx:hr></gpxtpx:TrackPointExtension></extensions></trkpt>
<trkpt lat="22.4719942" lon="114.2279220">
<ele>4</ele><time>2020-12-28T09:23:18.000Z</time><extensions><gpxtpx:TrackPointExtension><gpxtpx:hr>122</gpxtpx:hr></gpxtpx:TrackPointExtension></extensions></trkpt>
<trkpt lat="22.4720041" lon="114.2279863">
<ele>4</ele><time>2020-12-28T09:23:21.000Z</time><extensions><gpxtpx:TrackPointExtension><gpxtpx:hr>122</gpxtpx:hr></gpxtpx:TrackPointExtension></extensions></trkpt>
<trkpt lat="22.4720140" lon="114.2280507">
<ele>4</ele><time>2020-12-28T09:23:23.999Z</time><extensions><gpxtpx:TrackPointExtension><gpxtpx:hr>122</gpxtpx:hr></gpxtpx:TrackPointExtension></extensions></trkpt>
<trkpt lat="22.4720239" lon="114.2281151">
<ele>3</ele><time>2020-12-28T09:23:26.999Z</time><extensions><gpxtpx:TrackPointExtension><gpxtpx:hr>122</gpxtpx:hr></gpxtpx:TrackPointExtension></extensions></trkpt>
<trkpt lat="22.4720338" lon="114.2281795">
<ele>3</ele><time>2020-12-28T09:23:29.999Z</time><extensions><gpxtpx:TrackPointExtension><gpxtpx:hr>122</gpxtpx:hr></gpxtpx:TrackPointExtension></extensions></trkpt>
<trkpt lat="22.4720536" lon="114.2282653">
<ele>3</ele><time>2020-12-28T09:23:32.999Z</time><extensions><gpxtpx:TrackPointExtension><gpxtpx:hr>122</gpxtpx:hr></gpxtpx:TrackPointExtension></extensions></trkpt>
<trkpt lat="22.4720636" lon="114.2283297">
<ele>3</ele><time>2020-12-28T09:23:35.999Z</time><extensions><gpxtpx:TrackPointExtension><gpxtpx:hr>122</gpxtpx:hr></gpxtpx:TrackPointExtension></extensions></trkpt>
<trkpt lat="22.4720735" lon="114.2283940">
<ele>3</ele><time>2020-12-28T09:23:38.999Z</time><extensions><gpxtpx:TrackPointExtension><gpxtpx:hr>122</gpxtpx:hr></gpxtpx:TrackPointExtension></extensions></trkpt>
<trkpt lat="22.4720735" lon="114.2284584">
<ele>3</ele><time>2020-12-28T09:23:41.999Z</time><extensions><gpxtpx:TrackPointExtension><gpxtpx:hr>122</gpxtpx:hr></gpxtpx:TrackPointExtension></extensions></trkpt>
<trkpt lat="22.4720933" lon="114.2285013">
<ele>3</ele><time>2020-12-28T09:23:43.999Z</time><extensions><gpxtpx:TrackPointExtension><gpxtpx:hr>122</gpxtpx:hr></gpxtpx:TrackPointExtension></extensions></trkpt>
<trkpt lat="22.4721032" lon="114.2285657">
<ele>3</ele><time>2020-12-28T09:23:46.999Z</time><extensions><gpxtpx:TrackPointExtension><gpxtpx:hr>122</gpxtpx:hr></gpxtpx:TrackPointExtension></extensions></trkpt>
<trkpt lat="22.4721131" lon="114.2286301">
<ele>3</ele><time>2020-12-28T09:23:49.999Z</time><extensions><gpxtpx:TrackPointExtension><gpxtpx:hr>122</gpxtpx:hr></gpxtpx:TrackPointExtension></extensions></trkpt>
<trkpt lat="22.4721330" lon="114.2287159">
<ele>3</ele><time>2020-12-28T09:23:53.999Z</time><extensions><gpxtpx:TrackPointExtension><gpxtpx:hr>122</gpxtpx:hr></gpxtpx:TrackPointExtension></extensions></trkpt>
<trkpt lat="22.4721330" lon="114.2287803">
<ele>3</ele><time>2020-12-28T09:23:56.999Z</time><extensions><gpxtpx:TrackPointExtension><gpxtpx:hr>122</gpxtpx:hr></gpxtpx:TrackPointExtension></extensions></trkpt>
<trkpt lat="22.4721429" lon="114.2288446">
<ele>3</ele><time>2020-12-28T09:23:58.999Z</time><extensions><gpxtpx:TrackPointExtension><gpxtpx:hr>122</gpxtpx:hr></gpxtpx:TrackPointExtension></extensions></trkpt>
<trkpt lat="22.4721627" lon="114.2288876">
<ele>3</ele><time>2020-12-28T09:24:01.999Z</time><extensions><gpxtpx:TrackPointExtension><gpxtpx:hr>122</gpxtpx:hr></gpxtpx:TrackPointExtension></extensions></trkpt>
<trkpt lat="22.4721627" lon="114.2289519">
<ele>3</ele><time>2020-12-28T09:24:04.999Z</time><extensions><gpxtpx:TrackPointExtension><gpxtpx:hr>120</gpxtpx:hr></gpxtpx:TrackPointExtension></extensions></trkpt>
<trkpt lat="22.4721726" lon="114.2290163">
<ele>3</ele><time>2020-12-28T09:24:07.999Z</time><extensions><gpxtpx:TrackPointExtension><gpxtpx:hr>120</gpxtpx:hr></gpxtpx:TrackPointExtension></extensions></trkpt>
<trkpt lat="22.4721825" lon="114.2290807">
<ele>3</ele><time>2020-12-28T09:24:10.999Z</time><extensions><gpxtpx:TrackPointExtension><gpxtpx:hr>120</gpxtpx:hr></gpxtpx:TrackPointExtension></extensions></trkpt>
<trkpt lat="22.4722024" lon="114.2291665">
<ele>3</ele><time>2020-12-28T09:24:14.999Z</time><extensions><gpxtpx:TrackPointExtension><gpxtpx:hr>120</gpxtpx:hr></gpxtpx:TrackPointExtension></extensions></trkpt>
<trkpt lat="22.4722123" lon="114.2292309">
<ele>3</ele><time>2020-12-28T09:24:18.999Z</time><extensions><gpxtpx:TrackPointExtension><gpxtpx:hr>120</gpxtpx:hr></gpxtpx:TrackPointExtension></extensions></trkpt>
<trkpt lat="22.4722222" lon="114.2292953">
<ele>3</ele><time>2020-12-28T09:24:21.999Z</time><extensions><gpxtpx:TrackPointExtension><gpxtpx:hr>120</gpxtpx:hr></gpxtpx:TrackPointExtension></extensions></trkpt>
<trkpt lat="22.4722321" lon="114.2293596">
<ele>3</ele><time>2020-12-28T09:24:24.999Z</time><extensions><gpxtpx:TrackPointExtension><gpxtpx:hr>122</gpxtpx:hr></gpxtpx:TrackPointExtension></extensions></trkpt>
<trkpt lat="22.4722519" lon="114.2294240">
<ele>3</ele><time>2020-12-28T09:24:27.999Z</time><extensions><gpxtpx:TrackPointExtension><gpxtpx:hr>122</gpxtpx:hr></gpxtpx:TrackPointExtension></extensions></trkpt>
<trkpt lat="22.4722718" lon="114.2294669">
<ele>3</ele><time>2020-12-28T09:24:30.999Z</time><extensions><gpxtpx:TrackPointExtension><gpxtpx:hr>120</gpxtpx:hr></gpxtpx:TrackPointExtension></extensions></trkpt>
<trkpt lat="22.4722718" lon="114.2295527">
<ele>3</ele><time>2020-12-28T09:24:34.999Z</time><extensions><gpxtpx:TrackPointExtension><gpxtpx:hr>119</gpxtpx:hr></gpxtpx:TrackPointExtension></extensions></trkpt>
<trkpt lat="22.4722817" lon="114.2296171">
<ele>3</ele><time>2020-12-28T09:24:37.999Z</time><extensions><gpxtpx:TrackPointExtension><gpxtpx:hr>119</gpxtpx:hr></gpxtpx:TrackPointExtension></extensions></trkpt>
<trkpt lat="22.4722817" lon="114.2296815">
<ele>3</ele><time>2020-12-28T09:24:40.999Z</time><extensions><gpxtpx:TrackPointExtension><gpxtpx:hr>119</gpxtpx:hr></gpxtpx:TrackPointExtension></extensions></trkpt>
<trkpt lat="22.4723015" lon="114.2297459">
<ele>3</ele><time>2020-12-28T09:24:43.998Z</time><extensions><gpxtpx:TrackPointExtension><gpxtpx:hr>119</gpxtpx:hr></gpxtpx:TrackPointExtension></extensions></trkpt>
<trkpt lat="22.4723114" lon="114.2298102">
<ele>3</ele><time>2020-12-28T09:24:46.998Z</time><extensions><gpxtpx:TrackPointExtension><gpxtpx:hr>117</gpxtpx:hr></gpxtpx:TrackPointExtension></extensions></trkpt>
<trkpt lat="22.4723213" lon="114.2298746">
<ele>3</ele><time>2020-12-28T09:24:49.998Z</time><extensions><gpxtpx:TrackPointExtension><gpxtpx:hr>118</gpxtpx:hr></gpxtpx:TrackPointExtension></extensions></trkpt>
<trkpt lat="22.4723015" lon="114.2299175">
<ele>3</ele><time>2020-12-28T09:24:54.998Z</time><extensions><gpxtpx:TrackPointExtension><gpxtpx:hr>120</gpxtpx:hr></gpxtpx:TrackPointExtension></extensions></trkpt>
<trkpt lat="22.4723015" lon="114.2299819">
<ele>4</ele><time>2020-12-28T09:25:15.000Z</time><extensions><gpxtpx:TrackPointExtension><gpxtpx:hr>127</gpxtpx:hr></gpxtpx:TrackPointExtension></extensions></trkpt>
<trkpt lat="22.4723610" lon="114.2300034">
<ele>3</ele><time>2020-12-28T09:25:33.999Z</time><extensions><gpxtpx:TrackPointExtension><gpxtpx:hr>117</gpxtpx:hr></gpxtpx:TrackPointExtension></extensions></trkpt>
<trkpt lat="22.4724006" lon="114.2300248">
<ele>3</ele><time>2020-12-28T09:25:35.999Z</time><extensions><gpxtpx:TrackPointExtension><gpxtpx:hr>115</gpxtpx:hr></gpxtpx:TrackPointExtension></extensions></trkpt>
<trkpt lat="22.4724304" lon="114.2300892">
<ele>3</ele><time>2020-12-28T09:25:37.999Z</time><extensions><gpxtpx:TrackPointExtension><gpxtpx:hr>115</gpxtpx:hr></gpxtpx:TrackPointExtension></extensions></trkpt>
<trkpt lat="22.4724502" lon="114.2301321">
<ele>3</ele><time>2020-12-28T09:25:39.999Z</time><extensions><gpxtpx:TrackPointExtension><gpxtpx:hr>116</gpxtpx:hr></gpxtpx:TrackPointExtension></extensions></trkpt>
<trkpt lat="22.4724601" lon="114.2301965">
<ele>3</ele><time>2020-12-28T09:25:42.999Z</time><extensions><gpxtpx:TrackPointExtension><gpxtpx:hr>116</gpxtpx:hr></gpxtpx:TrackPointExtension></extensions></trkpt>
<trkpt lat="22.4724700" lon="114.2302608">
<ele>3</ele><time>2020-12-28T09:25:45.999Z</time><extensions><gpxtpx:TrackPointExtension><gpxtpx:hr>119</gpxtpx:hr></gpxtpx:TrackPointExtension></extensions></trkpt>
<trkpt lat="22.4724800" lon="114.2303252">
<ele>3</ele><time>2020-12-28T09:25:48.999Z</time><extensions><gpxtpx:TrackPointExtension><gpxtpx:hr>119</gpxtpx:hr></gpxtpx:TrackPointExtension></extensions></trkpt>
<trkpt lat="22.4724998" lon="114.2303681">
<ele>3</ele><time>2020-12-28T09:25:50.999Z</time><extensions><gpxtpx:TrackPointExtension><gpxtpx:hr>120</gpxtpx:hr></gpxtpx:TrackPointExtension></extensions></trkpt>
<trkpt lat="22.4725097" lon="114.2304325">
<ele>3</ele><time>2020-12-28T09:25:54.999Z</time><extensions><gpxtpx:TrackPointExtension><gpxtpx:hr>122</gpxtpx:hr></gpxtpx:TrackPointExtension></extensions></trkpt>
<trkpt lat="22.4725295" lon="114.2304969">
<ele>3</ele><time>2020-12-28T09:26:03.999Z</time><extensions><gpxtpx:TrackPointExtension><gpxtpx:hr>123</gpxtpx:hr></gpxtpx:TrackPointExtension></extensions></trkpt>
<trkpt lat="22.4725295" lon="114.2305613">
<ele>3</ele><time>2020-12-28T09:26:06.999Z</time><extensions><gpxtpx:TrackPointExtension><gpxtpx:hr>123</gpxtpx:hr></gpxtpx:TrackPointExtension></extensions></trkpt>
<trkpt lat="22.4725394" lon="114.2306256">
<ele>3</ele><time>2020-12-28T09:26:09.999Z</time><extensions><gpxtpx:TrackPointExtension><gpxtpx:hr>122</gpxtpx:hr></gpxtpx:TrackPointExtension></extensions></trkpt>
<trkpt lat="22.4725494" lon="114.2306900">
<ele>3</ele><time>2020-12-28T09:26:12.999Z</time><extensions><gpxtpx:TrackPointExtension><gpxtpx:hr>122</gpxtpx:hr></gpxtpx:TrackPointExtension></extensions></trkpt>
<trkpt lat="22.4725593" lon="114.2307758">
<ele>2</ele><time>2020-12-28T09:26:16.999Z</time><extensions><gpxtpx:TrackPointExtension><gpxtpx:hr>122</gpxtpx:hr></gpxtpx:TrackPointExtension></extensions></trkpt>
<trkpt lat="22.4725791" lon="114.2308187">
<ele>2</ele><time>2020-12-28T09:26:18.999Z</time><extensions><gpxtpx:TrackPointExtension><gpxtpx:hr>122</gpxtpx:hr></gpxtpx:TrackPointExtension></extensions></trkpt>
<trkpt lat="22.4725890" lon="114.2308831">
<ele>2</ele><time>2020-12-28T09:26:21.999Z</time><extensions><gpxtpx:TrackPointExtension><gpxtpx:hr>124</gpxtpx:hr></gpxtpx:TrackPointExtension></extensions></trkpt>
<trkpt lat="22.4725989" lon="114.2309475">
<ele>2</ele><time>2020-12-28T09:26:24.999Z</time><extensions><gpxtpx:TrackPointExtension><gpxtpx:hr>123</gpxtpx:hr></gpxtpx:TrackPointExtension></extensions></trkpt>
<trkpt lat="22.4726088" lon="114.2310119">
<ele>2</ele><time>2020-12-28T09:26:27.999Z</time><extensions><gpxtpx:TrackPointExtension><gpxtpx:hr>123</gpxtpx:hr></gpxtpx:TrackPointExtension></extensions></trkpt>
<trkpt lat="22.4726287" lon="114.2310548">
<ele>2</ele><time>2020-12-28T09:26:29.999Z</time><extensions><gpxtpx:TrackPointExtension><gpxtpx:hr>123</gpxtpx:hr></gpxtpx:TrackPointExtension></extensions></trkpt>
<trkpt lat="22.4726584" lon="114.2311192">
<ele>2</ele><time>2020-12-28T09:26:32.999Z</time><extensions><gpxtpx:TrackPointExtension><gpxtpx:hr>123</gpxtpx:hr></gpxtpx:TrackPointExtension></extensions></trkpt>
<trkpt lat="22.4726981" lon="114.2311621">
<ele>2</ele><time>2020-12-28T09:26:35.999Z</time><extensions><gpxtpx:TrackPointExtension><gpxtpx:hr>123</gpxtpx:hr></gpxtpx:TrackPointExtension></extensions></trkpt>
<trkpt lat="22.4727278" lon="114.2312050">
<ele>2</ele><time>2020-12-28T09:26:37.999Z</time><extensions><gpxtpx:TrackPointExtension><gpxtpx:hr>123</gpxtpx:hr></gpxtpx:TrackPointExtension></extensions></trkpt>
<trkpt lat="22.4727576" lon="114.2312694">
<ele>3</ele><time>2020-12-28T09:26:40.999Z</time><extensions><gpxtpx:TrackPointExtension><gpxtpx:hr>125</gpxtpx:hr></gpxtpx:TrackPointExtension></extensions></trkpt>
<trkpt lat="22.4727774" lon="114.2313337">
<ele>3</ele><time>2020-12-28T09:26:44.999Z</time><extensions><gpxtpx:TrackPointExtension><gpxtpx:hr>124</gpxtpx:hr></gpxtpx:TrackPointExtension></extensions></trkpt>
<trkpt lat="22.4727972" lon="114.2313981">
<ele>3</ele><time>2020-12-28T09:26:47.998Z</time><extensions><gpxtpx:TrackPointExtension><gpxtpx:hr>124</gpxtpx:hr></gpxtpx:TrackPointExtension></extensions></trkpt>
<trkpt lat="22.4728071" lon="114.2314625">
<ele>3</ele><time>2020-12-28T09:26:50.998Z</time><extensions><gpxtpx:TrackPointExtension><gpxtpx:hr>124</gpxtpx:hr></gpxtpx:TrackPointExtension></extensions></trkpt>
<trkpt lat="22.4728170" lon="114.2315483">
<ele>3</ele><time>2020-12-28T09:26:54.998Z</time><extensions><gpxtpx:TrackPointExtension><gpxtpx:hr>124</gpxtpx:hr></gpxtpx:TrackPointExtension></extensions></trkpt>
<trkpt lat="22.4728369" lon="114.2316127">
<ele>3</ele><time>2020-12-28T09:26:57.998Z</time><extensions><gpxtpx:TrackPointExtension><gpxtpx:hr>124</gpxtpx:hr></gpxtpx:TrackPointExtension></extensions></trkpt>
<trkpt lat="22.4728468" lon="114.2316771">
<ele>3</ele><time>2020-12-28T09:27:01.998Z</time><extensions><gpxtpx:TrackPointExtension><gpxtpx:hr>122</gpxtpx:hr></gpxtpx:TrackPointExtension></extensions></trkpt>
<trkpt lat="22.4728567" lon="114.2317414">
<ele>3</ele><time>2020-12-28T09:27:05.998Z</time><extensions><gpxtpx:TrackPointExtension><gpxtpx:hr>121</gpxtpx:hr></gpxtpx:TrackPointExtension></extensions></trkpt>
<trkpt lat="22.4728567" lon="114.2318058">
<ele>3</ele><time>2020-12-28T09:27:07.998Z</time><extensions><gpxtpx:TrackPointExtension><gpxtpx:hr>121</gpxtpx:hr></gpxtpx:TrackPointExtension></extensions></trkpt>
<trkpt lat="22.4728567" lon="114.2318702">
<ele>3</ele><time>2020-12-28T09:27:11.999Z</time><extensions><gpxtpx:TrackPointExtension><gpxtpx:hr>120</gpxtpx:hr></gpxtpx:TrackPointExtension></extensions></trkpt>
<trkpt lat="22.4728567" lon="114.2319560">
<ele>3</ele><time>2020-12-28T09:27:14.999Z</time><extensions><gpxtpx:TrackPointExtension><gpxtpx:hr>120</gpxtpx:hr></gpxtpx:TrackPointExtension></extensions></trkpt>
<trkpt lat="22.4728765" lon="114.2320204">
<ele>3</ele><time>2020-12-28T09:27:17.999Z</time><extensions><gpxtpx:TrackPointExtension><gpxtpx:hr>120</gpxtpx:hr></gpxtpx:TrackPointExtension></extensions></trkpt>
<trkpt lat="22.4728864" lon="114.2320848">
<ele>3</ele><time>2020-12-28T09:28:20.999Z</time><extensions><gpxtpx:TrackPointExtension><gpxtpx:hr>121</gpxtpx:hr></gpxtpx:TrackPointExtension></extensions></trkpt>
<trkpt lat="22.4728666" lon="114.2320418">
<ele>3</ele><time>2020-12-28T09:28:48.998Z</time><extensions><gpxtpx:TrackPointExtension><gpxtpx:hr>119</gpxtpx:hr></gpxtpx:TrackPointExtension></extensions></trkpt>
<trkpt lat="22.4729063" lon="114.2320633">
<ele>3</ele><time>2020-12-28T09:29:17.999Z</time><extensions><gpxtpx:TrackPointExtension><gpxtpx:hr>117</gpxtpx:hr></gpxtpx:TrackPointExtension></extensions></trkpt>
<trkpt lat="22.4728864" lon="114.2320204">
<ele>3</ele><time>2020-12-28T09:29:36.999Z</time><extensions><gpxtpx:TrackPointExtension><gpxtpx:hr>117</gpxtpx:hr></gpxtpx:TrackPointExtension></extensions></trkpt>
<trkpt lat="22.4728567" lon="114.2319560">
<ele>3</ele><time>2020-12-28T09:29:42.999Z</time><extensions><gpxtpx:TrackPointExtension><gpxtpx:hr>116</gpxtpx:hr></gpxtpx:TrackPointExtension></extensions></trkpt>
<trkpt lat="22.4728468" lon="114.2318702">
<ele>3</ele><time>2020-12-28T09:29:48.999Z</time><extensions><gpxtpx:TrackPointExtension><gpxtpx:hr>117</gpxtpx:hr></gpxtpx:TrackPointExtension></extensions></trkpt>
<trkpt lat="22.4728270" lon="114.2318273">
<ele>3</ele><time>2020-12-28T09:29:50.999Z</time><extensions><gpxtpx:TrackPointExtension><gpxtpx:hr>117</gpxtpx:hr></gpxtpx:TrackPointExtension></extensions></trkpt>
<trkpt lat="22.4728170" lon="114.2317629">
<ele>3</ele><time>2020-12-28T09:29:52.999Z</time><extensions><gpxtpx:TrackPointExtension><gpxtpx:hr>117</gpxtpx:hr></gpxtpx:TrackPointExtension></extensions></trkpt>
<trkpt lat="22.4728071" lon="114.2316985">
<ele>3</ele><time>2020-12-28T09:29:55.999Z</time><extensions><gpxtpx:TrackPointExtension><gpxtpx:hr>119</gpxtpx:hr></gpxtpx:TrackPointExtension></extensions></trkpt>
<trkpt lat="22.4728071" lon="114.2316341">
<ele>3</ele><time>2020-12-28T09:29:57.999Z</time><extensions><gpxtpx:TrackPointExtension><gpxtpx:hr>119</gpxtpx:hr></gpxtpx:TrackPointExtension></extensions></trkpt>
<trkpt lat="22.4727972" lon="114.2315698">
<ele>3</ele><time>2020-12-28T09:30:00.999Z</time><extensions><gpxtpx:TrackPointExtension><gpxtpx:hr>122</gpxtpx:hr></gpxtpx:TrackPointExtension></extensions></trkpt>
<trkpt lat="22.4727972" lon="114.2315054">
<ele>3</ele><time>2020-12-28T09:30:09.999Z</time><extensions><gpxtpx:TrackPointExtension><gpxtpx:hr>124</gpxtpx:hr></gpxtpx:TrackPointExtension></extensions></trkpt>
<trkpt lat="22.4727774" lon="114.2314625">
<ele>3</ele><time>2020-12-28T09:30:14.999Z</time><extensions><gpxtpx:TrackPointExtension><gpxtpx:hr>125</gpxtpx:hr></gpxtpx:TrackPointExtension></extensions></trkpt>
<trkpt lat="22.4727675" lon="114.2313981">
<ele>2</ele><time>2020-12-28T09:30:18.999Z</time><extensions><gpxtpx:TrackPointExtension><gpxtpx:hr>123</gpxtpx:hr></gpxtpx:TrackPointExtension></extensions></trkpt>
<trkpt lat="22.4727476" lon="114.2313552">
<ele>2</ele><time>2020-12-28T09:30:21.999Z</time><extensions><gpxtpx:TrackPointExtension><gpxtpx:hr>123</gpxtpx:hr></gpxtpx:TrackPointExtension></extensions></trkpt>
<trkpt lat="22.4727278" lon="114.2312908">
<ele>2</ele><time>2020-12-28T09:30:25.999Z</time><extensions><gpxtpx:TrackPointExtension><gpxtpx:hr>123</gpxtpx:hr></gpxtpx:TrackPointExtension></extensions></trkpt>
<trkpt lat="22.4727080" lon="114.2312479">
<ele>2</ele><time>2020-12-28T09:30:29.999Z</time><extensions><gpxtpx:TrackPointExtension><gpxtpx:hr>123</gpxtpx:hr></gpxtpx:TrackPointExtension></extensions></trkpt>
<trkpt lat="22.4726882" lon="114.2312050">
<ele>2</ele><time>2020-12-28T09:30:32.999Z</time><extensions><gpxtpx:TrackPointExtension><gpxtpx:hr>123</gpxtpx:hr></gpxtpx:TrackPointExtension></extensions></trkpt>
<trkpt lat="22.4726584" lon="114.2311621">
<ele>2</ele><time>2020-12-28T09:30:35.999Z</time><extensions><gpxtpx:TrackPointExtension><gpxtpx:hr>123</gpxtpx:hr></gpxtpx:TrackPointExtension></extensions></trkpt>
<trkpt lat="22.4726386" lon="114.2311192">
<ele>2</ele><time>2020-12-28T09:30:38.999Z</time><extensions><gpxtpx:TrackPointExtension><gpxtpx:hr>123</gpxtpx:hr></gpxtpx:TrackPointExtension></extensions></trkpt>
<trkpt lat="22.4725989" lon="114.2310977">
<ele>3</ele><time>2020-12-28T09:31:51.999Z</time><extensions><gpxtpx:TrackPointExtension><gpxtpx:hr>119</gpxtpx:hr></gpxtpx:TrackPointExtension></extensions></trkpt>
<trkpt lat="22.4726485" lon="114.2310977">
<ele>3</ele><time>2020-12-28T09:32:24.999Z</time><extensions><gpxtpx:TrackPointExtension><gpxtpx:hr>114</gpxtpx:hr></gpxtpx:TrackPointExtension></extensions></trkpt>
<trkpt lat="22.4726088" lon="114.2311192">
<ele>3</ele><time>2020-12-28T09:32:37.999Z</time><extensions><gpxtpx:TrackPointExtension><gpxtpx:hr>115</gpxtpx:hr></gpxtpx:TrackPointExtension></extensions></trkpt>
<trkpt lat="22.4726584" lon="114.2311406">
<ele>3</ele><time>2020-12-28T09:32:55.999Z</time><extensions><gpxtpx:TrackPointExtension><gpxtpx:hr>117</gpxtpx:hr></gpxtpx:TrackPointExtension></extensions></trkpt>
<trkpt lat="22.4726782" lon="114.2312050">
<ele>3</ele><time>2020-12-28T09:33:01.999Z</time><extensions><gpxtpx:TrackPointExtension><gpxtpx:hr>117</gpxtpx:hr></gpxtpx:TrackPointExtension></extensions></trkpt>
<trkpt lat="22.4727080" lon="114.2312479">
<ele>3</ele><time>2020-12-28T09:33:05.999Z</time><extensions><gpxtpx:TrackPointExtension><gpxtpx:hr>119</gpxtpx:hr></gpxtpx:TrackPointExtension></extensions></trkpt>
</trkseg></trk>
</gpx>
